<?xml version="1.0" encoding="UTF-8" standalone="no" ?>
<gpx xmlns="http://www.topografix.com/GPX/1/1" xmlns:xsi="http://www.w3.org/2001/XMLSchema-instance" xsi:schemaLocation="http://www.topografix.com/GPX/1/1 http://www.topografix.com/GPX/1/1/gpx.xsd" version="1.1" creator="VisuGPX - https://www.visugpx.com">
  <metadata>
    <name>Allonville Cardonette</name>
    <desc><![CDATA[maison ! ]]></desc>
  </metadata>
  <trk>
    <name><![CDATA[Allonville Cardonette_1]]></name>
    <trkseg>
      <trkpt lat="49.94132" lon="2.36562">
        <ele>106.2</ele>
        <time>2023-01-04T12:59:04Z</time>
      </trkpt>
      <trkpt lat="49.94132" lon="2.36562">
        <ele>106.2</ele>
        <time>2023-01-04T12:59:05Z</time>
      </trkpt>
      <trkpt lat="49.94132" lon="2.36562">
        <ele>106.2</ele>
        <time>2023-01-04T12:59:06Z</time>
      </trkpt>
      <trkpt lat="49.94132" lon="2.36562">
        <ele>106.2</ele>
        <time>2023-01-04T12:59:07Z</time>
      </trkpt>
      <trkpt lat="49.94132" lon="2.36562">
        <ele>106.2</ele>
        <time>2023-01-04T12:59:08Z</time>
      </trkpt>
      <trkpt lat="49.94132" lon="2.36562">
        <ele>106.2</ele>
        <time>2023-01-04T12:59:09Z</time>
      </trkpt>
      <trkpt lat="49.94132" lon="2.36562">
        <ele>106.2</ele>
        <time>2023-01-04T12:59:10Z</time>
      </trkpt>
      <trkpt lat="49.94132" lon="2.36562">
        <ele>106.2</ele>
        <time>2023-01-04T12:59:11Z</time>
      </trkpt>
      <trkpt lat="49.94132" lon="2.36562">
        <ele>106.2</ele>
        <time>2023-01-04T12:59:12Z</time>
      </trkpt>
      <trkpt lat="49.94132" lon="2.36562">
        <ele>106.2</ele>
        <time>2023-01-04T12:59:13Z</time>
      </trkpt>
      <trkpt lat="49.94132" lon="2.36562">
        <ele>106.2</ele>
        <time>2023-01-04T12:59:14Z</time>
      </trkpt>
      <trkpt lat="49.94132" lon="2.36562">
        <ele>106.2</ele>
        <time>2023-01-04T12:59:15Z</time>
      </trkpt>
      <trkpt lat="49.94132" lon="2.36562">
        <ele>106.2</ele>
        <time>2023-01-04T12:59:17Z</time>
      </trkpt>
      <trkpt lat="49.94132" lon="2.36562">
        <ele>106.2</ele>
        <time>2023-01-04T12:59:18Z</time>
      </trkpt>
      <trkpt lat="49.94132" lon="2.36562">
        <ele>106.2</ele>
        <time>2023-01-04T12:59:19Z</time>
      </trkpt>
      <trkpt lat="49.94132" lon="2.36562">
        <ele>106.2</ele>
        <time>2023-01-04T12:59:20Z</time>
      </trkpt>
      <trkpt lat="49.94132" lon="2.36562">
        <ele>106.2</ele>
        <time>2023-01-04T12:59:21Z</time>
      </trkpt>
      <trkpt lat="49.94132" lon="2.36562">
        <ele>106.2</ele>
        <time>2023-01-04T12:59:22Z</time>
      </trkpt>
      <trkpt lat="49.94132" lon="2.36562">
        <ele>106.2</ele>
        <time>2023-01-04T12:59:23Z</time>
      </trkpt>
      <trkpt lat="49.94132" lon="2.36562">
        <ele>106.2</ele>
        <time>2023-01-04T12:59:24Z</time>
      </trkpt>
      <trkpt lat="49.94132" lon="2.36562">
        <ele>106.2</ele>
        <time>2023-01-04T12:59:25Z</time>
      </trkpt>
      <trkpt lat="49.94132" lon="2.36562">
        <ele>106.2</ele>
        <time>2023-01-04T12:59:26Z</time>
      </trkpt>
      <trkpt lat="49.94132" lon="2.36562">
        <ele>106.2</ele>
        <time>2023-01-04T12:59:27Z</time>
      </trkpt>
      <trkpt lat="49.94132" lon="2.36562">
        <ele>106.2</ele>
        <time>2023-01-04T12:59:28Z</time>
      </trkpt>
      <trkpt lat="49.94132" lon="2.36562">
        <ele>106.2</ele>
        <time>2023-01-04T12:59:29Z</time>
      </trkpt>
      <trkpt lat="49.94132" lon="2.36562">
        <ele>106.2</ele>
        <time>2023-01-04T12:59:30Z</time>
      </trkpt>
      <trkpt lat="49.94132" lon="2.36562">
        <ele>106.2</ele>
        <time>2023-01-04T12:59:31Z</time>
      </trkpt>
      <trkpt lat="49.94132" lon="2.36562">
        <ele>106.2</ele>
        <time>2023-01-04T12:59:32Z</time>
      </trkpt>
      <trkpt lat="49.94132" lon="2.36562">
        <ele>106.2</ele>
        <time>2023-01-04T12:59:33Z</time>
      </trkpt>
      <trkpt lat="49.94132" lon="2.36562">
        <ele>106.2</ele>
        <time>2023-01-04T12:59:34Z</time>
      </trkpt>
      <trkpt lat="49.94132" lon="2.36562">
        <ele>106.2</ele>
        <time>2023-01-04T12:59:35Z</time>
      </trkpt>
      <trkpt lat="49.94132" lon="2.36562">
        <ele>106.2</ele>
        <time>2023-01-04T12:59:36Z</time>
      </trkpt>
      <trkpt lat="49.94132" lon="2.36562">
        <ele>106.2</ele>
        <time>2023-01-04T12:59:37Z</time>
      </trkpt>
      <trkpt lat="49.94132" lon="2.36562">
        <ele>106.2</ele>
        <time>2023-01-04T12:59:38Z</time>
      </trkpt>
      <trkpt lat="49.94132" lon="2.36562">
        <ele>106.2</ele>
        <time>2023-01-04T12:59:39Z</time>
      </trkpt>
      <trkpt lat="49.94132" lon="2.36562">
        <ele>106.2</ele>
        <time>2023-01-04T12:59:40Z</time>
      </trkpt>
      <trkpt lat="49.94132" lon="2.36562">
        <ele>106.2</ele>
        <time>2023-01-04T12:59:41Z</time>
      </trkpt>
      <trkpt lat="49.94132" lon="2.36562">
        <ele>106.2</ele>
        <time>2023-01-04T12:59:42Z</time>
      </trkpt>
      <trkpt lat="49.94132" lon="2.36562">
        <ele>106.2</ele>
        <time>2023-01-04T12:59:43Z</time>
      </trkpt>
      <trkpt lat="49.94132" lon="2.36562">
        <ele>106.2</ele>
        <time>2023-01-04T12:59:44Z</time>
      </trkpt>
      <trkpt lat="49.94132" lon="2.36562">
        <ele>106.2</ele>
        <time>2023-01-04T12:59:45Z</time>
      </trkpt>
      <trkpt lat="49.94132" lon="2.36562">
        <ele>106.2</ele>
        <time>2023-01-04T12:59:46Z</time>
      </trkpt>
      <trkpt lat="49.94132" lon="2.36562">
        <ele>106.2</ele>
        <time>2023-01-04T12:59:47Z</time>
      </trkpt>
      <trkpt lat="49.94132" lon="2.36562">
        <ele>106.2</ele>
        <time>2023-01-04T12:59:48Z</time>
      </trkpt>
      <trkpt lat="49.94132" lon="2.36562">
        <ele>106.2</ele>
        <time>2023-01-04T12:59:49Z</time>
      </trkpt>
      <trkpt lat="49.94132" lon="2.36562">
        <ele>106.2</ele>
        <time>2023-01-04T12:59:50Z</time>
      </trkpt>
      <trkpt lat="49.94132" lon="2.36562">
        <ele>106.2</ele>
        <time>2023-01-04T12:59:51Z</time>
      </trkpt>
      <trkpt lat="49.94132" lon="2.36562">
        <ele>106.2</ele>
        <time>2023-01-04T12:59:52Z</time>
      </trkpt>
      <trkpt lat="49.94132" lon="2.36562">
        <ele>106.2</ele>
        <time>2023-01-04T12:59:53Z</time>
      </trkpt>
      <trkpt lat="49.94132" lon="2.36562">
        <ele>106.2</ele>
        <time>2023-01-04T12:59:54Z</time>
      </trkpt>
      <trkpt lat="49.94132" lon="2.36562">
        <ele>106.2</ele>
        <time>2023-01-04T12:59:55Z</time>
      </trkpt>
      <trkpt lat="49.94132" lon="2.36562">
        <ele>106.2</ele>
        <time>2023-01-04T12:59:56Z</time>
      </trkpt>
      <trkpt lat="49.94132" lon="2.36562">
        <ele>106.2</ele>
        <time>2023-01-04T12:59:57Z</time>
      </trkpt>
      <trkpt lat="49.94132" lon="2.36562">
        <ele>106.2</ele>
        <time>2023-01-04T12:59:58Z</time>
      </trkpt>
      <trkpt lat="49.94132" lon="2.36562">
        <ele>106.2</ele>
        <time>2023-01-04T12:59:59Z</time>
      </trkpt>
      <trkpt lat="49.94132" lon="2.36562">
        <ele>106.2</ele>
        <time>2023-01-04T13:00:00Z</time>
      </trkpt>
      <trkpt lat="49.94132" lon="2.36562">
        <ele>106.2</ele>
        <time>2023-01-04T13:00:01Z</time>
      </trkpt>
      <trkpt lat="49.94132" lon="2.36562">
        <ele>106.2</ele>
        <time>2023-01-04T13:00:02Z</time>
      </trkpt>
      <trkpt lat="49.94132" lon="2.36562">
        <ele>106.2</ele>
        <time>2023-01-04T13:00:03Z</time>
      </trkpt>
      <trkpt lat="49.94132" lon="2.36562">
        <ele>106.2</ele>
        <time>2023-01-04T13:00:04Z</time>
      </trkpt>
      <trkpt lat="49.94132" lon="2.36562">
        <ele>106.2</ele>
        <time>2023-01-04T13:00:05Z</time>
      </trkpt>
      <trkpt lat="49.94132" lon="2.36562">
        <ele>106.2</ele>
        <time>2023-01-04T13:00:06Z</time>
      </trkpt>
      <trkpt lat="49.94132" lon="2.36562">
        <ele>106.2</ele>
        <time>2023-01-04T13:00:07Z</time>
      </trkpt>
      <trkpt lat="49.94132" lon="2.36562">
        <ele>106.2</ele>
        <time>2023-01-04T13:00:08Z</time>
      </trkpt>
      <trkpt lat="49.94132" lon="2.36562">
        <ele>106.2</ele>
        <time>2023-01-04T13:00:09Z</time>
      </trkpt>
      <trkpt lat="49.94132" lon="2.36562">
        <ele>106.2</ele>
        <time>2023-01-04T13:00:10Z</time>
      </trkpt>
      <trkpt lat="49.94132" lon="2.36562">
        <ele>106.2</ele>
        <time>2023-01-04T13:00:11Z</time>
      </trkpt>
      <trkpt lat="49.94132" lon="2.36563">
        <ele>106.2</ele>
        <time>2023-01-04T13:00:12Z</time>
      </trkpt>
      <trkpt lat="49.94132" lon="2.36563">
        <ele>106.2</ele>
        <time>2023-01-04T13:00:13Z</time>
      </trkpt>
      <trkpt lat="49.94132" lon="2.36563">
        <ele>106.2</ele>
        <time>2023-01-04T13:00:14Z</time>
      </trkpt>
      <trkpt lat="49.94132" lon="2.36563">
        <ele>106.2</ele>
        <time>2023-01-04T13:00:15Z</time>
      </trkpt>
      <trkpt lat="49.94132" lon="2.36563">
        <ele>106.2</ele>
        <time>2023-01-04T13:00:16Z</time>
      </trkpt>
      <trkpt lat="49.94132" lon="2.36563">
        <ele>106.2</ele>
        <time>2023-01-04T13:00:17Z</time>
      </trkpt>
      <trkpt lat="49.94132" lon="2.36563">
        <ele>106.2</ele>
        <time>2023-01-04T13:00:18Z</time>
      </trkpt>
      <trkpt lat="49.94132" lon="2.36562">
        <ele>106.2</ele>
        <time>2023-01-04T13:00:19Z</time>
      </trkpt>
      <trkpt lat="49.94132" lon="2.36562">
        <ele>106.2</ele>
        <time>2023-01-04T13:00:20Z</time>
      </trkpt>
      <trkpt lat="49.94132" lon="2.36562">
        <ele>106.2</ele>
        <time>2023-01-04T13:00:21Z</time>
      </trkpt>
      <trkpt lat="49.94132" lon="2.36562">
        <ele>106.2</ele>
        <time>2023-01-04T13:00:22Z</time>
      </trkpt>
      <trkpt lat="49.94132" lon="2.36562">
        <ele>106.2</ele>
        <time>2023-01-04T13:00:23Z</time>
      </trkpt>
      <trkpt lat="49.94132" lon="2.36561">
        <ele>106.2</ele>
        <time>2023-01-04T13:00:24Z</time>
      </trkpt>
      <trkpt lat="49.94132" lon="2.36561">
        <ele>106.2</ele>
        <time>2023-01-04T13:00:25Z</time>
      </trkpt>
      <trkpt lat="49.94132" lon="2.36561">
        <ele>106.2</ele>
        <time>2023-01-04T13:00:26Z</time>
      </trkpt>
      <trkpt lat="49.94132" lon="2.36561">
        <ele>106.2</ele>
        <time>2023-01-04T13:00:27Z</time>
      </trkpt>
      <trkpt lat="49.94132" lon="2.36561">
        <ele>106.2</ele>
        <time>2023-01-04T13:00:28Z</time>
      </trkpt>
      <trkpt lat="49.94132" lon="2.36561">
        <ele>106.2</ele>
        <time>2023-01-04T13:00:29Z</time>
      </trkpt>
      <trkpt lat="49.94132" lon="2.36561">
        <ele>106.2</ele>
        <time>2023-01-04T13:00:30Z</time>
      </trkpt>
      <trkpt lat="49.94132" lon="2.36561">
        <ele>106.2</ele>
        <time>2023-01-04T13:00:31Z</time>
      </trkpt>
      <trkpt lat="49.94132" lon="2.36561">
        <ele>106.2</ele>
        <time>2023-01-04T13:00:32Z</time>
      </trkpt>
      <trkpt lat="49.94132" lon="2.36561">
        <ele>106.2</ele>
        <time>2023-01-04T13:00:33Z</time>
      </trkpt>
      <trkpt lat="49.94132" lon="2.36561">
        <ele>106.2</ele>
        <time>2023-01-04T13:00:34Z</time>
      </trkpt>
      <trkpt lat="49.94132" lon="2.36561">
        <ele>106.2</ele>
        <time>2023-01-04T13:00:35Z</time>
      </trkpt>
      <trkpt lat="49.94132" lon="2.36561">
        <ele>106.2</ele>
        <time>2023-01-04T13:00:36Z</time>
      </trkpt>
      <trkpt lat="49.94132" lon="2.36561">
        <ele>106.2</ele>
        <time>2023-01-04T13:00:37Z</time>
      </trkpt>
      <trkpt lat="49.94132" lon="2.36561">
        <ele>106.2</ele>
        <time>2023-01-04T13:00:38Z</time>
      </trkpt>
      <trkpt lat="49.94132" lon="2.36561">
        <ele>106.2</ele>
        <time>2023-01-04T13:00:39Z</time>
      </trkpt>
      <trkpt lat="49.94132" lon="2.36561">
        <ele>106.2</ele>
        <time>2023-01-04T13:00:40Z</time>
      </trkpt>
      <trkpt lat="49.94132" lon="2.36561">
        <ele>106.2</ele>
        <time>2023-01-04T13:00:41Z</time>
      </trkpt>
      <trkpt lat="49.94132" lon="2.36561">
        <ele>106.2</ele>
        <time>2023-01-04T13:00:42Z</time>
      </trkpt>
      <trkpt lat="49.94132" lon="2.36561">
        <ele>106.2</ele>
        <time>2023-01-04T13:00:43Z</time>
      </trkpt>
      <trkpt lat="49.94132" lon="2.36561">
        <ele>106.2</ele>
        <time>2023-01-04T13:00:44Z</time>
      </trkpt>
      <trkpt lat="49.94132" lon="2.36561">
        <ele>106.2</ele>
        <time>2023-01-04T13:00:45Z</time>
      </trkpt>
      <trkpt lat="49.94132" lon="2.36561">
        <ele>106.2</ele>
        <time>2023-01-04T13:00:46Z</time>
      </trkpt>
      <trkpt lat="49.94132" lon="2.36561">
        <ele>106.2</ele>
        <time>2023-01-04T13:00:47Z</time>
      </trkpt>
      <trkpt lat="49.94132" lon="2.36561">
        <ele>106.2</ele>
        <time>2023-01-04T13:00:48Z</time>
      </trkpt>
      <trkpt lat="49.94132" lon="2.36561">
        <ele>106.2</ele>
        <time>2023-01-04T13:00:49Z</time>
      </trkpt>
      <trkpt lat="49.94132" lon="2.36561">
        <ele>106.2</ele>
        <time>2023-01-04T13:00:50Z</time>
      </trkpt>
      <trkpt lat="49.94132" lon="2.36561">
        <ele>106.2</ele>
        <time>2023-01-04T13:00:51Z</time>
      </trkpt>
      <trkpt lat="49.94132" lon="2.36561">
        <ele>106.2</ele>
        <time>2023-01-04T13:00:52Z</time>
      </trkpt>
      <trkpt lat="49.94132" lon="2.36561">
        <ele>106.2</ele>
        <time>2023-01-04T13:00:53Z</time>
      </trkpt>
      <trkpt lat="49.94132" lon="2.36561">
        <ele>106.2</ele>
        <time>2023-01-04T13:00:54Z</time>
      </trkpt>
      <trkpt lat="49.94132" lon="2.36561">
        <ele>106.2</ele>
        <time>2023-01-04T13:00:55Z</time>
      </trkpt>
      <trkpt lat="49.94132" lon="2.36561">
        <ele>106.2</ele>
        <time>2023-01-04T13:00:56Z</time>
      </trkpt>
      <trkpt lat="49.94132" lon="2.36561">
        <ele>106.2</ele>
        <time>2023-01-04T13:00:57Z</time>
      </trkpt>
      <trkpt lat="49.94132" lon="2.36561">
        <ele>106.2</ele>
        <time>2023-01-04T13:00:58Z</time>
      </trkpt>
      <trkpt lat="49.94132" lon="2.36561">
        <ele>106.2</ele>
        <time>2023-01-04T13:00:59Z</time>
      </trkpt>
      <trkpt lat="49.94132" lon="2.36561">
        <ele>106.2</ele>
        <time>2023-01-04T13:01:00Z</time>
      </trkpt>
      <trkpt lat="49.94132" lon="2.36561">
        <ele>106.2</ele>
        <time>2023-01-04T13:01:01Z</time>
      </trkpt>
      <trkpt lat="49.94132" lon="2.36561">
        <ele>106.2</ele>
        <time>2023-01-04T13:01:02Z</time>
      </trkpt>
      <trkpt lat="49.94132" lon="2.36561">
        <ele>106.2</ele>
        <time>2023-01-04T13:01:03Z</time>
      </trkpt>
      <trkpt lat="49.94132" lon="2.36561">
        <ele>106.2</ele>
        <time>2023-01-04T13:01:04Z</time>
      </trkpt>
      <trkpt lat="49.94132" lon="2.36561">
        <ele>106.2</ele>
        <time>2023-01-04T13:01:05Z</time>
      </trkpt>
      <trkpt lat="49.94132" lon="2.36561">
        <ele>106.2</ele>
        <time>2023-01-04T13:01:06Z</time>
      </trkpt>
      <trkpt lat="49.94132" lon="2.36561">
        <ele>106.2</ele>
        <time>2023-01-04T13:01:07Z</time>
      </trkpt>
      <trkpt lat="49.94132" lon="2.36561">
        <ele>106.2</ele>
        <time>2023-01-04T13:01:08Z</time>
      </trkpt>
      <trkpt lat="49.94132" lon="2.36561">
        <ele>106.2</ele>
        <time>2023-01-04T13:01:09Z</time>
      </trkpt>
      <trkpt lat="49.94132" lon="2.36561">
        <ele>106.2</ele>
        <time>2023-01-04T13:01:10Z</time>
      </trkpt>
      <trkpt lat="49.94132" lon="2.36561">
        <ele>106.2</ele>
        <time>2023-01-04T13:01:11Z</time>
      </trkpt>
      <trkpt lat="49.94132" lon="2.36561">
        <ele>106.2</ele>
        <time>2023-01-04T13:01:12Z</time>
      </trkpt>
      <trkpt lat="49.94132" lon="2.36561">
        <ele>106.2</ele>
        <time>2023-01-04T13:01:13Z</time>
      </trkpt>
      <trkpt lat="49.94132" lon="2.36561">
        <ele>106.2</ele>
        <time>2023-01-04T13:01:14Z</time>
      </trkpt>
      <trkpt lat="49.94132" lon="2.36561">
        <ele>106.2</ele>
        <time>2023-01-04T13:01:15Z</time>
      </trkpt>
      <trkpt lat="49.94132" lon="2.36561">
        <ele>106.2</ele>
        <time>2023-01-04T13:01:16Z</time>
      </trkpt>
      <trkpt lat="49.94132" lon="2.36561">
        <ele>106.2</ele>
        <time>2023-01-04T13:01:17Z</time>
      </trkpt>
      <trkpt lat="49.94132" lon="2.36561">
        <ele>106.2</ele>
        <time>2023-01-04T13:01:18Z</time>
      </trkpt>
      <trkpt lat="49.94132" lon="2.36561">
        <ele>106.2</ele>
        <time>2023-01-04T13:01:19Z</time>
      </trkpt>
      <trkpt lat="49.94129" lon="2.36559">
        <ele>106.2</ele>
        <time>2023-01-04T13:01:20Z</time>
      </trkpt>
      <trkpt lat="49.94127" lon="2.36556">
        <ele>106.2</ele>
        <time>2023-01-04T13:01:21Z</time>
      </trkpt>
      <trkpt lat="49.94126" lon="2.36554">
        <ele>106.2</ele>
        <time>2023-01-04T13:01:22Z</time>
      </trkpt>
      <trkpt lat="49.94124" lon="2.36553">
        <ele>106.2</ele>
        <time>2023-01-04T13:01:23Z</time>
      </trkpt>
      <trkpt lat="49.94124" lon="2.36553">
        <ele>106.2</ele>
        <time>2023-01-04T13:01:24Z</time>
      </trkpt>
      <trkpt lat="49.94124" lon="2.36552">
        <ele>106.2</ele>
        <time>2023-01-04T13:01:25Z</time>
      </trkpt>
      <trkpt lat="49.94124" lon="2.36552">
        <ele>106.2</ele>
        <time>2023-01-04T13:01:26Z</time>
      </trkpt>
      <trkpt lat="49.94124" lon="2.36552">
        <ele>106.2</ele>
        <time>2023-01-04T13:01:27Z</time>
      </trkpt>
      <trkpt lat="49.94124" lon="2.36552">
        <ele>106.2</ele>
        <time>2023-01-04T13:01:28Z</time>
      </trkpt>
      <trkpt lat="49.94124" lon="2.36553">
        <ele>106.2</ele>
        <time>2023-01-04T13:01:29Z</time>
      </trkpt>
      <trkpt lat="49.94124" lon="2.36553">
        <ele>106.2</ele>
        <time>2023-01-04T13:01:30Z</time>
      </trkpt>
      <trkpt lat="49.94124" lon="2.36553">
        <ele>106.2</ele>
        <time>2023-01-04T13:01:31Z</time>
      </trkpt>
      <trkpt lat="49.94124" lon="2.36553">
        <ele>106.2</ele>
        <time>2023-01-04T13:01:32Z</time>
      </trkpt>
      <trkpt lat="49.94124" lon="2.36553">
        <ele>106.2</ele>
        <time>2023-01-04T13:01:33Z</time>
      </trkpt>
      <trkpt lat="49.94124" lon="2.36553">
        <ele>106.2</ele>
        <time>2023-01-04T13:01:34Z</time>
      </trkpt>
      <trkpt lat="49.94124" lon="2.36553">
        <ele>106.2</ele>
        <time>2023-01-04T13:01:35Z</time>
      </trkpt>
      <trkpt lat="49.94124" lon="2.36553">
        <ele>106.2</ele>
        <time>2023-01-04T13:01:36Z</time>
      </trkpt>
      <trkpt lat="49.94124" lon="2.36553">
        <ele>106.2</ele>
        <time>2023-01-04T13:01:37Z</time>
      </trkpt>
      <trkpt lat="49.94123" lon="2.36554">
        <ele>106.2</ele>
        <time>2023-01-04T13:01:38Z</time>
      </trkpt>
      <trkpt lat="49.94123" lon="2.36554">
        <ele>106.2</ele>
        <time>2023-01-04T13:01:39Z</time>
      </trkpt>
      <trkpt lat="49.94123" lon="2.36554">
        <ele>106.2</ele>
        <time>2023-01-04T13:01:40Z</time>
      </trkpt>
      <trkpt lat="49.94123" lon="2.36554">
        <ele>106.2</ele>
        <time>2023-01-04T13:01:41Z</time>
      </trkpt>
      <trkpt lat="49.94123" lon="2.36555">
        <ele>106.2</ele>
        <time>2023-01-04T13:01:42Z</time>
      </trkpt>
      <trkpt lat="49.94124" lon="2.36555">
        <ele>106.2</ele>
        <time>2023-01-04T13:01:43Z</time>
      </trkpt>
      <trkpt lat="49.94124" lon="2.36556">
        <ele>106.2</ele>
        <time>2023-01-04T13:01:44Z</time>
      </trkpt>
      <trkpt lat="49.94124" lon="2.36556">
        <ele>106.2</ele>
        <time>2023-01-04T13:01:45Z</time>
      </trkpt>
      <trkpt lat="49.94124" lon="2.36558">
        <ele>106.2</ele>
        <time>2023-01-04T13:01:46Z</time>
      </trkpt>
      <trkpt lat="49.94124" lon="2.36559">
        <ele>106.3</ele>
        <time>2023-01-04T13:01:47Z</time>
      </trkpt>
      <trkpt lat="49.94125" lon="2.36562">
        <ele>106.3</ele>
        <time>2023-01-04T13:01:48Z</time>
      </trkpt>
      <trkpt lat="49.94126" lon="2.36564">
        <ele>106.3</ele>
        <time>2023-01-04T13:01:49Z</time>
      </trkpt>
      <trkpt lat="49.94126" lon="2.36565">
        <ele>106.3</ele>
        <time>2023-01-04T13:01:50Z</time>
      </trkpt>
      <trkpt lat="49.94127" lon="2.36567">
        <ele>106.3</ele>
        <time>2023-01-04T13:01:51Z</time>
      </trkpt>
      <trkpt lat="49.94128" lon="2.36569">
        <ele>106.3</ele>
        <time>2023-01-04T13:01:52Z</time>
      </trkpt>
      <trkpt lat="49.94128" lon="2.36571">
        <ele>106.3</ele>
        <time>2023-01-04T13:01:53Z</time>
      </trkpt>
      <trkpt lat="49.94128" lon="2.36572">
        <ele>106.3</ele>
        <time>2023-01-04T13:01:54Z</time>
      </trkpt>
      <trkpt lat="49.94129" lon="2.36574">
        <ele>106.3</ele>
        <time>2023-01-04T13:01:55Z</time>
      </trkpt>
      <trkpt lat="49.94129" lon="2.36576">
        <ele>106.3</ele>
        <time>2023-01-04T13:01:56Z</time>
      </trkpt>
      <trkpt lat="49.94129" lon="2.36579">
        <ele>106.3</ele>
        <time>2023-01-04T13:01:57Z</time>
      </trkpt>
      <trkpt lat="49.9413" lon="2.36581">
        <ele>106.3</ele>
        <time>2023-01-04T13:01:58Z</time>
      </trkpt>
      <trkpt lat="49.9413" lon="2.36583">
        <ele>106.3</ele>
        <time>2023-01-04T13:01:59Z</time>
      </trkpt>
      <trkpt lat="49.9413" lon="2.36585">
        <ele>106.3</ele>
        <time>2023-01-04T13:02:00Z</time>
      </trkpt>
      <trkpt lat="49.9413" lon="2.36587">
        <ele>106.3</ele>
        <time>2023-01-04T13:02:01Z</time>
      </trkpt>
      <trkpt lat="49.9413" lon="2.36588">
        <ele>106.3</ele>
        <time>2023-01-04T13:02:02Z</time>
      </trkpt>
      <trkpt lat="49.9413" lon="2.3659">
        <ele>106.3</ele>
        <time>2023-01-04T13:02:03Z</time>
      </trkpt>
      <trkpt lat="49.9413" lon="2.36591">
        <ele>106.3</ele>
        <time>2023-01-04T13:02:04Z</time>
      </trkpt>
      <trkpt lat="49.9413" lon="2.36593">
        <ele>106.3</ele>
        <time>2023-01-04T13:02:05Z</time>
      </trkpt>
      <trkpt lat="49.9413" lon="2.36594">
        <ele>106.3</ele>
        <time>2023-01-04T13:02:06Z</time>
      </trkpt>
      <trkpt lat="49.9413" lon="2.36596">
        <ele>106.3</ele>
        <time>2023-01-04T13:02:07Z</time>
      </trkpt>
      <trkpt lat="49.9413" lon="2.36598">
        <ele>106.3</ele>
        <time>2023-01-04T13:02:08Z</time>
      </trkpt>
      <trkpt lat="49.9413" lon="2.36599">
        <ele>106.3</ele>
        <time>2023-01-04T13:02:09Z</time>
      </trkpt>
      <trkpt lat="49.9413" lon="2.366">
        <ele>106.3</ele>
        <time>2023-01-04T13:02:10Z</time>
      </trkpt>
      <trkpt lat="49.9413" lon="2.36604">
        <ele>106.4</ele>
        <time>2023-01-04T13:02:11Z</time>
      </trkpt>
      <trkpt lat="49.9413" lon="2.36606">
        <ele>106.4</ele>
        <time>2023-01-04T13:02:13Z</time>
      </trkpt>
      <trkpt lat="49.9413" lon="2.36608">
        <ele>106.4</ele>
        <time>2023-01-04T13:02:14Z</time>
      </trkpt>
      <trkpt lat="49.9413" lon="2.3661">
        <ele>106.4</ele>
        <time>2023-01-04T13:02:15Z</time>
      </trkpt>
      <trkpt lat="49.9413" lon="2.36613">
        <ele>106.4</ele>
        <time>2023-01-04T13:02:16Z</time>
      </trkpt>
      <trkpt lat="49.94131" lon="2.36615">
        <ele>106.4</ele>
        <time>2023-01-04T13:02:17Z</time>
      </trkpt>
      <trkpt lat="49.94131" lon="2.36618">
        <ele>106.4</ele>
        <time>2023-01-04T13:02:18Z</time>
      </trkpt>
      <trkpt lat="49.9413" lon="2.36621">
        <ele>106.4</ele>
        <time>2023-01-04T13:02:19Z</time>
      </trkpt>
      <trkpt lat="49.9413" lon="2.36623">
        <ele>106.4</ele>
        <time>2023-01-04T13:02:20Z</time>
      </trkpt>
      <trkpt lat="49.9413" lon="2.36624">
        <ele>106.4</ele>
        <time>2023-01-04T13:02:21Z</time>
      </trkpt>
      <trkpt lat="49.94129" lon="2.36626">
        <ele>106.4</ele>
        <time>2023-01-04T13:02:22Z</time>
      </trkpt>
      <trkpt lat="49.94128" lon="2.36628">
        <ele>106.4</ele>
        <time>2023-01-04T13:02:24Z</time>
      </trkpt>
      <trkpt lat="49.94127" lon="2.3663">
        <ele>106.4</ele>
        <time>2023-01-04T13:02:25Z</time>
      </trkpt>
      <trkpt lat="49.94125" lon="2.36631">
        <ele>106.5</ele>
        <time>2023-01-04T13:02:26Z</time>
      </trkpt>
      <trkpt lat="49.94123" lon="2.36631">
        <ele>106.5</ele>
        <time>2023-01-04T13:02:27Z</time>
      </trkpt>
      <trkpt lat="49.94122" lon="2.36632">
        <ele>106.5</ele>
        <time>2023-01-04T13:02:29Z</time>
      </trkpt>
      <trkpt lat="49.9412" lon="2.36632">
        <ele>106.5</ele>
        <time>2023-01-04T13:02:30Z</time>
      </trkpt>
      <trkpt lat="49.94119" lon="2.36632">
        <ele>106.5</ele>
        <time>2023-01-04T13:02:31Z</time>
      </trkpt>
      <trkpt lat="49.94118" lon="2.36632">
        <ele>106.5</ele>
        <time>2023-01-04T13:02:32Z</time>
      </trkpt>
      <trkpt lat="49.94116" lon="2.36631">
        <ele>106.6</ele>
        <time>2023-01-04T13:02:33Z</time>
      </trkpt>
      <trkpt lat="49.94115" lon="2.36631">
        <ele>106.6</ele>
        <time>2023-01-04T13:02:34Z</time>
      </trkpt>
      <trkpt lat="49.94114" lon="2.36631">
        <ele>106.6</ele>
        <time>2023-01-04T13:02:35Z</time>
      </trkpt>
      <trkpt lat="49.94111" lon="2.3663">
        <ele>106.6</ele>
        <time>2023-01-04T13:02:37Z</time>
      </trkpt>
      <trkpt lat="49.9411" lon="2.3663">
        <ele>106.6</ele>
        <time>2023-01-04T13:02:38Z</time>
      </trkpt>
      <trkpt lat="49.94109" lon="2.3663">
        <ele>106.6</ele>
        <time>2023-01-04T13:02:39Z</time>
      </trkpt>
      <trkpt lat="49.94108" lon="2.3663">
        <ele>106.6</ele>
        <time>2023-01-04T13:02:40Z</time>
      </trkpt>
      <trkpt lat="49.94107" lon="2.3663">
        <ele>106.6</ele>
        <time>2023-01-04T13:02:41Z</time>
      </trkpt>
      <trkpt lat="49.94104" lon="2.3663">
        <ele>106.7</ele>
        <time>2023-01-04T13:02:42Z</time>
      </trkpt>
      <trkpt lat="49.94103" lon="2.3663">
        <ele>106.7</ele>
        <time>2023-01-04T13:02:43Z</time>
      </trkpt>
      <trkpt lat="49.94102" lon="2.3663">
        <ele>106.7</ele>
        <time>2023-01-04T13:02:44Z</time>
      </trkpt>
      <trkpt lat="49.94101" lon="2.3663">
        <ele>106.7</ele>
        <time>2023-01-04T13:02:46Z</time>
      </trkpt>
      <trkpt lat="49.941" lon="2.3663">
        <ele>106.7</ele>
        <time>2023-01-04T13:02:47Z</time>
      </trkpt>
      <trkpt lat="49.94097" lon="2.3663">
        <ele>106.7</ele>
        <time>2023-01-04T13:02:48Z</time>
      </trkpt>
      <trkpt lat="49.94096" lon="2.3663">
        <ele>106.7</ele>
        <time>2023-01-04T13:02:49Z</time>
      </trkpt>
      <trkpt lat="49.94094" lon="2.3663">
        <ele>106.8</ele>
        <time>2023-01-04T13:02:50Z</time>
      </trkpt>
      <trkpt lat="49.94093" lon="2.3663">
        <ele>106.8</ele>
        <time>2023-01-04T13:02:51Z</time>
      </trkpt>
      <trkpt lat="49.94092" lon="2.3663">
        <ele>106.8</ele>
        <time>2023-01-04T13:02:52Z</time>
      </trkpt>
      <trkpt lat="49.94091" lon="2.3663">
        <ele>106.8</ele>
        <time>2023-01-04T13:02:53Z</time>
      </trkpt>
      <trkpt lat="49.94089" lon="2.36629">
        <ele>106.8</ele>
        <time>2023-01-04T13:02:54Z</time>
      </trkpt>
      <trkpt lat="49.94088" lon="2.36629">
        <ele>106.8</ele>
        <time>2023-01-04T13:02:56Z</time>
      </trkpt>
      <trkpt lat="49.94087" lon="2.36628">
        <ele>106.8</ele>
        <time>2023-01-04T13:02:57Z</time>
      </trkpt>
      <trkpt lat="49.94084" lon="2.36627">
        <ele>106.9</ele>
        <time>2023-01-04T13:02:58Z</time>
      </trkpt>
      <trkpt lat="49.94082" lon="2.36627">
        <ele>106.9</ele>
        <time>2023-01-04T13:02:59Z</time>
      </trkpt>
      <trkpt lat="49.94081" lon="2.36626">
        <ele>106.9</ele>
        <time>2023-01-04T13:03:00Z</time>
      </trkpt>
      <trkpt lat="49.9408" lon="2.36626">
        <ele>106.9</ele>
        <time>2023-01-04T13:03:01Z</time>
      </trkpt>
      <trkpt lat="49.94077" lon="2.36625">
        <ele>106.9</ele>
        <time>2023-01-04T13:03:02Z</time>
      </trkpt>
      <trkpt lat="49.94075" lon="2.36625">
        <ele>106.9</ele>
        <time>2023-01-04T13:03:03Z</time>
      </trkpt>
      <trkpt lat="49.94072" lon="2.36625">
        <ele>106.9</ele>
        <time>2023-01-04T13:03:04Z</time>
      </trkpt>
      <trkpt lat="49.94071" lon="2.36624">
        <ele>106.9</ele>
        <time>2023-01-04T13:03:06Z</time>
      </trkpt>
      <trkpt lat="49.94069" lon="2.36624">
        <ele>107</ele>
        <time>2023-01-04T13:03:07Z</time>
      </trkpt>
      <trkpt lat="49.94068" lon="2.36623">
        <ele>107</ele>
        <time>2023-01-04T13:03:08Z</time>
      </trkpt>
      <trkpt lat="49.94067" lon="2.36623">
        <ele>107</ele>
        <time>2023-01-04T13:03:09Z</time>
      </trkpt>
      <trkpt lat="49.94066" lon="2.36623">
        <ele>107</ele>
        <time>2023-01-04T13:03:10Z</time>
      </trkpt>
      <trkpt lat="49.94065" lon="2.36622">
        <ele>107</ele>
        <time>2023-01-04T13:03:11Z</time>
      </trkpt>
      <trkpt lat="49.94064" lon="2.36622">
        <ele>107</ele>
        <time>2023-01-04T13:03:12Z</time>
      </trkpt>
      <trkpt lat="49.94061" lon="2.36622">
        <ele>107</ele>
        <time>2023-01-04T13:03:13Z</time>
      </trkpt>
      <trkpt lat="49.9406" lon="2.36622">
        <ele>107</ele>
        <time>2023-01-04T13:03:14Z</time>
      </trkpt>
      <trkpt lat="49.9406" lon="2.36622">
        <ele>107</ele>
        <time>2023-01-04T13:03:15Z</time>
      </trkpt>
      <trkpt lat="49.94059" lon="2.36622">
        <ele>107</ele>
        <time>2023-01-04T13:03:17Z</time>
      </trkpt>
      <trkpt lat="49.94058" lon="2.36621">
        <ele>107</ele>
        <time>2023-01-04T13:03:18Z</time>
      </trkpt>
      <trkpt lat="49.94057" lon="2.36621">
        <ele>107</ele>
        <time>2023-01-04T13:03:19Z</time>
      </trkpt>
      <trkpt lat="49.94056" lon="2.36621">
        <ele>107</ele>
        <time>2023-01-04T13:03:20Z</time>
      </trkpt>
      <trkpt lat="49.94055" lon="2.36621">
        <ele>107</ele>
        <time>2023-01-04T13:03:21Z</time>
      </trkpt>
      <trkpt lat="49.94054" lon="2.36621">
        <ele>107</ele>
        <time>2023-01-04T13:03:22Z</time>
      </trkpt>
      <trkpt lat="49.94052" lon="2.36623">
        <ele>107</ele>
        <time>2023-01-04T13:03:24Z</time>
      </trkpt>
      <trkpt lat="49.94051" lon="2.36623">
        <ele>107</ele>
        <time>2023-01-04T13:03:25Z</time>
      </trkpt>
      <trkpt lat="49.9405" lon="2.36623">
        <ele>107.1</ele>
        <time>2023-01-04T13:03:26Z</time>
      </trkpt>
      <trkpt lat="49.94048" lon="2.36624">
        <ele>107.1</ele>
        <time>2023-01-04T13:03:27Z</time>
      </trkpt>
      <trkpt lat="49.94046" lon="2.36626">
        <ele>107.1</ele>
        <time>2023-01-04T13:03:28Z</time>
      </trkpt>
      <trkpt lat="49.94046" lon="2.36626">
        <ele>107.1</ele>
        <time>2023-01-04T13:03:29Z</time>
      </trkpt>
      <trkpt lat="49.94045" lon="2.36627">
        <ele>107.1</ele>
        <time>2023-01-04T13:03:30Z</time>
      </trkpt>
      <trkpt lat="49.94044" lon="2.36627">
        <ele>107.1</ele>
        <time>2023-01-04T13:03:31Z</time>
      </trkpt>
      <trkpt lat="49.94042" lon="2.36628">
        <ele>107.1</ele>
        <time>2023-01-04T13:03:33Z</time>
      </trkpt>
      <trkpt lat="49.9404" lon="2.36633">
        <ele>107.1</ele>
        <time>2023-01-04T13:03:34Z</time>
      </trkpt>
      <trkpt lat="49.94038" lon="2.36635">
        <ele>107.1</ele>
        <time>2023-01-04T13:03:35Z</time>
      </trkpt>
      <trkpt lat="49.94038" lon="2.36635">
        <ele>107.1</ele>
        <time>2023-01-04T13:03:36Z</time>
      </trkpt>
      <trkpt lat="49.94037" lon="2.36636">
        <ele>107.1</ele>
        <time>2023-01-04T13:03:37Z</time>
      </trkpt>
      <trkpt lat="49.94035" lon="2.36639">
        <ele>107.1</ele>
        <time>2023-01-04T13:03:38Z</time>
      </trkpt>
      <trkpt lat="49.94035" lon="2.36639">
        <ele>107.1</ele>
        <time>2023-01-04T13:03:39Z</time>
      </trkpt>
      <trkpt lat="49.94034" lon="2.3664">
        <ele>107.1</ele>
        <time>2023-01-04T13:03:41Z</time>
      </trkpt>
      <trkpt lat="49.94033" lon="2.3664">
        <ele>107.1</ele>
        <time>2023-01-04T13:03:42Z</time>
      </trkpt>
      <trkpt lat="49.94032" lon="2.3664">
        <ele>107.1</ele>
        <time>2023-01-04T13:03:43Z</time>
      </trkpt>
      <trkpt lat="49.94031" lon="2.36639">
        <ele>107.1</ele>
        <time>2023-01-04T13:03:44Z</time>
      </trkpt>
      <trkpt lat="49.94031" lon="2.3664">
        <ele>107.1</ele>
        <time>2023-01-04T13:03:45Z</time>
      </trkpt>
      <trkpt lat="49.9403" lon="2.3664">
        <ele>107.1</ele>
        <time>2023-01-04T13:03:46Z</time>
      </trkpt>
      <trkpt lat="49.94029" lon="2.3664">
        <ele>107.1</ele>
        <time>2023-01-04T13:03:47Z</time>
      </trkpt>
      <trkpt lat="49.94027" lon="2.36639">
        <ele>107.1</ele>
        <time>2023-01-04T13:03:48Z</time>
      </trkpt>
      <trkpt lat="49.94026" lon="2.36639">
        <ele>107.1</ele>
        <time>2023-01-04T13:03:49Z</time>
      </trkpt>
      <trkpt lat="49.94025" lon="2.3664">
        <ele>107.1</ele>
        <time>2023-01-04T13:03:50Z</time>
      </trkpt>
      <trkpt lat="49.94024" lon="2.3664">
        <ele>107.1</ele>
        <time>2023-01-04T13:03:51Z</time>
      </trkpt>
      <trkpt lat="49.94023" lon="2.36641">
        <ele>107.1</ele>
        <time>2023-01-04T13:03:52Z</time>
      </trkpt>
      <trkpt lat="49.94021" lon="2.36641">
        <ele>107.1</ele>
        <time>2023-01-04T13:03:54Z</time>
      </trkpt>
      <trkpt lat="49.9402" lon="2.36642">
        <ele>107.1</ele>
        <time>2023-01-04T13:03:55Z</time>
      </trkpt>
      <trkpt lat="49.94019" lon="2.36642">
        <ele>107.1</ele>
        <time>2023-01-04T13:03:56Z</time>
      </trkpt>
      <trkpt lat="49.94018" lon="2.36643">
        <ele>107.1</ele>
        <time>2023-01-04T13:03:57Z</time>
      </trkpt>
      <trkpt lat="49.94017" lon="2.36643">
        <ele>107.1</ele>
        <time>2023-01-04T13:03:58Z</time>
      </trkpt>
      <trkpt lat="49.94016" lon="2.36644">
        <ele>107.1</ele>
        <time>2023-01-04T13:03:59Z</time>
      </trkpt>
      <trkpt lat="49.94014" lon="2.36644">
        <ele>107.1</ele>
        <time>2023-01-04T13:04:00Z</time>
      </trkpt>
      <trkpt lat="49.94013" lon="2.36645">
        <ele>107.1</ele>
        <time>2023-01-04T13:04:02Z</time>
      </trkpt>
      <trkpt lat="49.94012" lon="2.36645">
        <ele>107</ele>
        <time>2023-01-04T13:04:03Z</time>
      </trkpt>
      <trkpt lat="49.9401" lon="2.36646">
        <ele>107</ele>
        <time>2023-01-04T13:04:04Z</time>
      </trkpt>
      <trkpt lat="49.9401" lon="2.36646">
        <ele>107</ele>
        <time>2023-01-04T13:04:05Z</time>
      </trkpt>
      <trkpt lat="49.94008" lon="2.36647">
        <ele>107</ele>
        <time>2023-01-04T13:04:06Z</time>
      </trkpt>
      <trkpt lat="49.94007" lon="2.36648">
        <ele>107</ele>
        <time>2023-01-04T13:04:07Z</time>
      </trkpt>
      <trkpt lat="49.94005" lon="2.36649">
        <ele>107</ele>
        <time>2023-01-04T13:04:08Z</time>
      </trkpt>
      <trkpt lat="49.94004" lon="2.36649">
        <ele>107</ele>
        <time>2023-01-04T13:04:10Z</time>
      </trkpt>
      <trkpt lat="49.94003" lon="2.3665">
        <ele>107</ele>
        <time>2023-01-04T13:04:11Z</time>
      </trkpt>
      <trkpt lat="49.94002" lon="2.36651">
        <ele>107</ele>
        <time>2023-01-04T13:04:12Z</time>
      </trkpt>
      <trkpt lat="49.94" lon="2.36652">
        <ele>107</ele>
        <time>2023-01-04T13:04:13Z</time>
      </trkpt>
      <trkpt lat="49.93999" lon="2.36652">
        <ele>106.9</ele>
        <time>2023-01-04T13:04:14Z</time>
      </trkpt>
      <trkpt lat="49.93998" lon="2.36653">
        <ele>106.9</ele>
        <time>2023-01-04T13:04:15Z</time>
      </trkpt>
      <trkpt lat="49.93996" lon="2.36653">
        <ele>106.9</ele>
        <time>2023-01-04T13:04:16Z</time>
      </trkpt>
      <trkpt lat="49.93995" lon="2.36653">
        <ele>106.9</ele>
        <time>2023-01-04T13:04:17Z</time>
      </trkpt>
      <trkpt lat="49.93994" lon="2.36654">
        <ele>106.9</ele>
        <time>2023-01-04T13:04:18Z</time>
      </trkpt>
      <trkpt lat="49.93993" lon="2.36654">
        <ele>106.9</ele>
        <time>2023-01-04T13:04:20Z</time>
      </trkpt>
      <trkpt lat="49.93992" lon="2.36655">
        <ele>106.9</ele>
        <time>2023-01-04T13:04:21Z</time>
      </trkpt>
      <trkpt lat="49.93991" lon="2.36656">
        <ele>106.9</ele>
        <time>2023-01-04T13:04:22Z</time>
      </trkpt>
      <trkpt lat="49.9399" lon="2.36656">
        <ele>106.9</ele>
        <time>2023-01-04T13:04:23Z</time>
      </trkpt>
      <trkpt lat="49.93988" lon="2.36657">
        <ele>106.8</ele>
        <time>2023-01-04T13:04:24Z</time>
      </trkpt>
      <trkpt lat="49.93988" lon="2.36658">
        <ele>106.8</ele>
        <time>2023-01-04T13:04:25Z</time>
      </trkpt>
      <trkpt lat="49.93987" lon="2.36658">
        <ele>106.8</ele>
        <time>2023-01-04T13:04:26Z</time>
      </trkpt>
      <trkpt lat="49.93986" lon="2.36659">
        <ele>106.8</ele>
        <time>2023-01-04T13:04:28Z</time>
      </trkpt>
      <trkpt lat="49.93984" lon="2.36659">
        <ele>106.8</ele>
        <time>2023-01-04T13:04:29Z</time>
      </trkpt>
      <trkpt lat="49.93983" lon="2.3666">
        <ele>106.8</ele>
        <time>2023-01-04T13:04:30Z</time>
      </trkpt>
      <trkpt lat="49.93982" lon="2.3666">
        <ele>106.8</ele>
        <time>2023-01-04T13:04:31Z</time>
      </trkpt>
      <trkpt lat="49.93981" lon="2.36661">
        <ele>106.8</ele>
        <time>2023-01-04T13:04:32Z</time>
      </trkpt>
      <trkpt lat="49.93979" lon="2.36661">
        <ele>106.7</ele>
        <time>2023-01-04T13:04:33Z</time>
      </trkpt>
      <trkpt lat="49.93978" lon="2.36661">
        <ele>106.7</ele>
        <time>2023-01-04T13:04:34Z</time>
      </trkpt>
      <trkpt lat="49.93977" lon="2.36661">
        <ele>106.7</ele>
        <time>2023-01-04T13:04:35Z</time>
      </trkpt>
      <trkpt lat="49.93975" lon="2.36662">
        <ele>106.7</ele>
        <time>2023-01-04T13:04:37Z</time>
      </trkpt>
      <trkpt lat="49.93974" lon="2.36663">
        <ele>106.7</ele>
        <time>2023-01-04T13:04:38Z</time>
      </trkpt>
      <trkpt lat="49.93973" lon="2.36663">
        <ele>106.7</ele>
        <time>2023-01-04T13:04:39Z</time>
      </trkpt>
      <trkpt lat="49.93972" lon="2.36664">
        <ele>106.6</ele>
        <time>2023-01-04T13:04:40Z</time>
      </trkpt>
      <trkpt lat="49.93971" lon="2.36664">
        <ele>106.6</ele>
        <time>2023-01-04T13:04:41Z</time>
      </trkpt>
      <trkpt lat="49.9397" lon="2.36665">
        <ele>106.6</ele>
        <time>2023-01-04T13:04:42Z</time>
      </trkpt>
      <trkpt lat="49.93968" lon="2.36666">
        <ele>106.6</ele>
        <time>2023-01-04T13:04:43Z</time>
      </trkpt>
      <trkpt lat="49.93967" lon="2.36667">
        <ele>106.6</ele>
        <time>2023-01-04T13:04:45Z</time>
      </trkpt>
      <trkpt lat="49.93966" lon="2.36667">
        <ele>106.6</ele>
        <time>2023-01-04T13:04:46Z</time>
      </trkpt>
      <trkpt lat="49.93965" lon="2.36668">
        <ele>106.5</ele>
        <time>2023-01-04T13:04:47Z</time>
      </trkpt>
      <trkpt lat="49.93964" lon="2.36668">
        <ele>106.5</ele>
        <time>2023-01-04T13:04:48Z</time>
      </trkpt>
      <trkpt lat="49.93963" lon="2.36669">
        <ele>106.5</ele>
        <time>2023-01-04T13:04:49Z</time>
      </trkpt>
      <trkpt lat="49.93961" lon="2.3667">
        <ele>106.5</ele>
        <time>2023-01-04T13:04:50Z</time>
      </trkpt>
      <trkpt lat="49.9396" lon="2.3667">
        <ele>106.5</ele>
        <time>2023-01-04T13:04:51Z</time>
      </trkpt>
      <trkpt lat="49.93959" lon="2.36671">
        <ele>106.4</ele>
        <time>2023-01-04T13:04:53Z</time>
      </trkpt>
      <trkpt lat="49.93957" lon="2.36672">
        <ele>106.4</ele>
        <time>2023-01-04T13:04:54Z</time>
      </trkpt>
      <trkpt lat="49.93956" lon="2.36673">
        <ele>106.4</ele>
        <time>2023-01-04T13:04:55Z</time>
      </trkpt>
      <trkpt lat="49.93955" lon="2.36673">
        <ele>106.4</ele>
        <time>2023-01-04T13:04:56Z</time>
      </trkpt>
      <trkpt lat="49.93954" lon="2.36674">
        <ele>106.4</ele>
        <time>2023-01-04T13:04:57Z</time>
      </trkpt>
      <trkpt lat="49.93952" lon="2.36675">
        <ele>106.3</ele>
        <time>2023-01-04T13:04:59Z</time>
      </trkpt>
      <trkpt lat="49.93951" lon="2.36675">
        <ele>106.3</ele>
        <time>2023-01-04T13:05:00Z</time>
      </trkpt>
      <trkpt lat="49.9395" lon="2.36676">
        <ele>106.3</ele>
        <time>2023-01-04T13:05:01Z</time>
      </trkpt>
      <trkpt lat="49.93949" lon="2.36676">
        <ele>106.3</ele>
        <time>2023-01-04T13:05:02Z</time>
      </trkpt>
      <trkpt lat="49.93948" lon="2.36677">
        <ele>106.2</ele>
        <time>2023-01-04T13:05:03Z</time>
      </trkpt>
      <trkpt lat="49.93947" lon="2.36678">
        <ele>106.2</ele>
        <time>2023-01-04T13:05:04Z</time>
      </trkpt>
      <trkpt lat="49.93946" lon="2.36678">
        <ele>106.2</ele>
        <time>2023-01-04T13:05:05Z</time>
      </trkpt>
      <trkpt lat="49.93944" lon="2.36678">
        <ele>106.2</ele>
        <time>2023-01-04T13:05:06Z</time>
      </trkpt>
      <trkpt lat="49.93943" lon="2.36679">
        <ele>106.1</ele>
        <time>2023-01-04T13:05:07Z</time>
      </trkpt>
      <trkpt lat="49.93941" lon="2.3668">
        <ele>106.1</ele>
        <time>2023-01-04T13:05:09Z</time>
      </trkpt>
      <trkpt lat="49.93941" lon="2.3668">
        <ele>106.1</ele>
        <time>2023-01-04T13:05:10Z</time>
      </trkpt>
      <trkpt lat="49.93939" lon="2.3668">
        <ele>106.1</ele>
        <time>2023-01-04T13:05:11Z</time>
      </trkpt>
      <trkpt lat="49.93939" lon="2.36681">
        <ele>106.1</ele>
        <time>2023-01-04T13:05:12Z</time>
      </trkpt>
      <trkpt lat="49.93937" lon="2.36681">
        <ele>106</ele>
        <time>2023-01-04T13:05:13Z</time>
      </trkpt>
      <trkpt lat="49.93935" lon="2.36682">
        <ele>106</ele>
        <time>2023-01-04T13:05:14Z</time>
      </trkpt>
      <trkpt lat="49.93935" lon="2.36683">
        <ele>106</ele>
        <time>2023-01-04T13:05:15Z</time>
      </trkpt>
      <trkpt lat="49.93934" lon="2.36683">
        <ele>106</ele>
        <time>2023-01-04T13:05:16Z</time>
      </trkpt>
      <trkpt lat="49.93932" lon="2.36684">
        <ele>105.9</ele>
        <time>2023-01-04T13:05:18Z</time>
      </trkpt>
      <trkpt lat="49.9393" lon="2.36685">
        <ele>105.9</ele>
        <time>2023-01-04T13:05:19Z</time>
      </trkpt>
      <trkpt lat="49.93929" lon="2.36686">
        <ele>105.9</ele>
        <time>2023-01-04T13:05:20Z</time>
      </trkpt>
      <trkpt lat="49.93928" lon="2.36687">
        <ele>105.9</ele>
        <time>2023-01-04T13:05:21Z</time>
      </trkpt>
      <trkpt lat="49.93927" lon="2.36688">
        <ele>105.8</ele>
        <time>2023-01-04T13:05:22Z</time>
      </trkpt>
      <trkpt lat="49.93926" lon="2.36688">
        <ele>105.8</ele>
        <time>2023-01-04T13:05:24Z</time>
      </trkpt>
      <trkpt lat="49.93923" lon="2.3669">
        <ele>105.8</ele>
        <time>2023-01-04T13:05:25Z</time>
      </trkpt>
      <trkpt lat="49.93922" lon="2.36691">
        <ele>105.8</ele>
        <time>2023-01-04T13:05:26Z</time>
      </trkpt>
      <trkpt lat="49.9392" lon="2.36692">
        <ele>105.7</ele>
        <time>2023-01-04T13:05:27Z</time>
      </trkpt>
      <trkpt lat="49.93919" lon="2.36693">
        <ele>105.7</ele>
        <time>2023-01-04T13:05:29Z</time>
      </trkpt>
      <trkpt lat="49.93917" lon="2.36694">
        <ele>105.7</ele>
        <time>2023-01-04T13:05:30Z</time>
      </trkpt>
      <trkpt lat="49.93916" lon="2.36695">
        <ele>105.6</ele>
        <time>2023-01-04T13:05:31Z</time>
      </trkpt>
      <trkpt lat="49.93915" lon="2.36696">
        <ele>105.6</ele>
        <time>2023-01-04T13:05:32Z</time>
      </trkpt>
      <trkpt lat="49.93914" lon="2.36697">
        <ele>105.6</ele>
        <time>2023-01-04T13:05:33Z</time>
      </trkpt>
      <trkpt lat="49.93912" lon="2.36699">
        <ele>105.5</ele>
        <time>2023-01-04T13:05:34Z</time>
      </trkpt>
      <trkpt lat="49.93912" lon="2.367">
        <ele>105.5</ele>
        <time>2023-01-04T13:05:36Z</time>
      </trkpt>
      <trkpt lat="49.93911" lon="2.367">
        <ele>105.5</ele>
        <time>2023-01-04T13:05:37Z</time>
      </trkpt>
      <trkpt lat="49.9391" lon="2.36702">
        <ele>105.5</ele>
        <time>2023-01-04T13:05:38Z</time>
      </trkpt>
      <trkpt lat="49.93908" lon="2.36702">
        <ele>105.5</ele>
        <time>2023-01-04T13:05:39Z</time>
      </trkpt>
      <trkpt lat="49.93907" lon="2.36703">
        <ele>105.4</ele>
        <time>2023-01-04T13:05:40Z</time>
      </trkpt>
      <trkpt lat="49.93906" lon="2.36703">
        <ele>105.4</ele>
        <time>2023-01-04T13:05:41Z</time>
      </trkpt>
      <trkpt lat="49.93905" lon="2.36704">
        <ele>105.4</ele>
        <time>2023-01-04T13:05:42Z</time>
      </trkpt>
      <trkpt lat="49.93904" lon="2.36704">
        <ele>105.4</ele>
        <time>2023-01-04T13:05:43Z</time>
      </trkpt>
      <trkpt lat="49.93902" lon="2.36705">
        <ele>105.4</ele>
        <time>2023-01-04T13:05:44Z</time>
      </trkpt>
      <trkpt lat="49.93902" lon="2.36706">
        <ele>105.3</ele>
        <time>2023-01-04T13:05:45Z</time>
      </trkpt>
      <trkpt lat="49.93901" lon="2.36707">
        <ele>105.3</ele>
        <time>2023-01-04T13:05:46Z</time>
      </trkpt>
      <trkpt lat="49.939" lon="2.36708">
        <ele>105.3</ele>
        <time>2023-01-04T13:05:48Z</time>
      </trkpt>
      <trkpt lat="49.93897" lon="2.3671">
        <ele>105.3</ele>
        <time>2023-01-04T13:05:49Z</time>
      </trkpt>
      <trkpt lat="49.93897" lon="2.36711">
        <ele>105.3</ele>
        <time>2023-01-04T13:05:50Z</time>
      </trkpt>
      <trkpt lat="49.93895" lon="2.36712">
        <ele>105.3</ele>
        <time>2023-01-04T13:05:51Z</time>
      </trkpt>
      <trkpt lat="49.93894" lon="2.36713">
        <ele>105.2</ele>
        <time>2023-01-04T13:05:52Z</time>
      </trkpt>
      <trkpt lat="49.93893" lon="2.36714">
        <ele>105.2</ele>
        <time>2023-01-04T13:05:54Z</time>
      </trkpt>
      <trkpt lat="49.93891" lon="2.36715">
        <ele>105.2</ele>
        <time>2023-01-04T13:05:55Z</time>
      </trkpt>
      <trkpt lat="49.9389" lon="2.36716">
        <ele>105.2</ele>
        <time>2023-01-04T13:05:56Z</time>
      </trkpt>
      <trkpt lat="49.93889" lon="2.36717">
        <ele>105.2</ele>
        <time>2023-01-04T13:05:57Z</time>
      </trkpt>
      <trkpt lat="49.93888" lon="2.36718">
        <ele>105.1</ele>
        <time>2023-01-04T13:05:58Z</time>
      </trkpt>
      <trkpt lat="49.93886" lon="2.36719">
        <ele>105.1</ele>
        <time>2023-01-04T13:05:59Z</time>
      </trkpt>
      <trkpt lat="49.93885" lon="2.3672">
        <ele>105.1</ele>
        <time>2023-01-04T13:06:00Z</time>
      </trkpt>
      <trkpt lat="49.93883" lon="2.36721">
        <ele>105.1</ele>
        <time>2023-01-04T13:06:02Z</time>
      </trkpt>
      <trkpt lat="49.93882" lon="2.36722">
        <ele>105.1</ele>
        <time>2023-01-04T13:06:03Z</time>
      </trkpt>
      <trkpt lat="49.93881" lon="2.36723">
        <ele>105</ele>
        <time>2023-01-04T13:06:04Z</time>
      </trkpt>
      <trkpt lat="49.93879" lon="2.36724">
        <ele>105</ele>
        <time>2023-01-04T13:06:05Z</time>
      </trkpt>
      <trkpt lat="49.93878" lon="2.36725">
        <ele>105</ele>
        <time>2023-01-04T13:06:06Z</time>
      </trkpt>
      <trkpt lat="49.93878" lon="2.36725">
        <ele>105</ele>
        <time>2023-01-04T13:06:07Z</time>
      </trkpt>
      <trkpt lat="49.93877" lon="2.36726">
        <ele>105</ele>
        <time>2023-01-04T13:06:08Z</time>
      </trkpt>
      <trkpt lat="49.93875" lon="2.36727">
        <ele>104.9</ele>
        <time>2023-01-04T13:06:09Z</time>
      </trkpt>
      <trkpt lat="49.93875" lon="2.36727">
        <ele>104.9</ele>
        <time>2023-01-04T13:06:11Z</time>
      </trkpt>
      <trkpt lat="49.93874" lon="2.36728">
        <ele>104.9</ele>
        <time>2023-01-04T13:06:12Z</time>
      </trkpt>
      <trkpt lat="49.93873" lon="2.36728">
        <ele>104.9</ele>
        <time>2023-01-04T13:06:13Z</time>
      </trkpt>
      <trkpt lat="49.93872" lon="2.36729">
        <ele>104.9</ele>
        <time>2023-01-04T13:06:14Z</time>
      </trkpt>
      <trkpt lat="49.93871" lon="2.3673">
        <ele>104.9</ele>
        <time>2023-01-04T13:06:15Z</time>
      </trkpt>
      <trkpt lat="49.9387" lon="2.3673">
        <ele>104.9</ele>
        <time>2023-01-04T13:06:16Z</time>
      </trkpt>
      <trkpt lat="49.93869" lon="2.36731">
        <ele>104.9</ele>
        <time>2023-01-04T13:06:17Z</time>
      </trkpt>
      <trkpt lat="49.93868" lon="2.36732">
        <ele>104.8</ele>
        <time>2023-01-04T13:06:19Z</time>
      </trkpt>
      <trkpt lat="49.93867" lon="2.36733">
        <ele>104.8</ele>
        <time>2023-01-04T13:06:20Z</time>
      </trkpt>
      <trkpt lat="49.93866" lon="2.36734">
        <ele>104.8</ele>
        <time>2023-01-04T13:06:21Z</time>
      </trkpt>
      <trkpt lat="49.93864" lon="2.36735">
        <ele>104.8</ele>
        <time>2023-01-04T13:06:22Z</time>
      </trkpt>
      <trkpt lat="49.93863" lon="2.36735">
        <ele>104.8</ele>
        <time>2023-01-04T13:06:23Z</time>
      </trkpt>
      <trkpt lat="49.93863" lon="2.36736">
        <ele>104.7</ele>
        <time>2023-01-04T13:06:24Z</time>
      </trkpt>
      <trkpt lat="49.93861" lon="2.36737">
        <ele>104.7</ele>
        <time>2023-01-04T13:06:25Z</time>
      </trkpt>
      <trkpt lat="49.9386" lon="2.36737">
        <ele>104.7</ele>
        <time>2023-01-04T13:06:26Z</time>
      </trkpt>
      <trkpt lat="49.93859" lon="2.36738">
        <ele>104.7</ele>
        <time>2023-01-04T13:06:27Z</time>
      </trkpt>
      <trkpt lat="49.93857" lon="2.36739">
        <ele>104.7</ele>
        <time>2023-01-04T13:06:29Z</time>
      </trkpt>
      <trkpt lat="49.93856" lon="2.3674">
        <ele>104.7</ele>
        <time>2023-01-04T13:06:30Z</time>
      </trkpt>
      <trkpt lat="49.93854" lon="2.36741">
        <ele>104.6</ele>
        <time>2023-01-04T13:06:31Z</time>
      </trkpt>
      <trkpt lat="49.93853" lon="2.36742">
        <ele>104.6</ele>
        <time>2023-01-04T13:06:32Z</time>
      </trkpt>
      <trkpt lat="49.93852" lon="2.36742">
        <ele>104.6</ele>
        <time>2023-01-04T13:06:33Z</time>
      </trkpt>
      <trkpt lat="49.9385" lon="2.36743">
        <ele>104.6</ele>
        <time>2023-01-04T13:06:34Z</time>
      </trkpt>
      <trkpt lat="49.93849" lon="2.36744">
        <ele>104.6</ele>
        <time>2023-01-04T13:06:35Z</time>
      </trkpt>
      <trkpt lat="49.93848" lon="2.36745">
        <ele>104.6</ele>
        <time>2023-01-04T13:06:37Z</time>
      </trkpt>
      <trkpt lat="49.93847" lon="2.36745">
        <ele>104.6</ele>
        <time>2023-01-04T13:06:38Z</time>
      </trkpt>
      <trkpt lat="49.93845" lon="2.36746">
        <ele>104.6</ele>
        <time>2023-01-04T13:06:39Z</time>
      </trkpt>
      <trkpt lat="49.93844" lon="2.36747">
        <ele>104.5</ele>
        <time>2023-01-04T13:06:40Z</time>
      </trkpt>
      <trkpt lat="49.93842" lon="2.36748">
        <ele>104.5</ele>
        <time>2023-01-04T13:06:41Z</time>
      </trkpt>
      <trkpt lat="49.93841" lon="2.36749">
        <ele>104.5</ele>
        <time>2023-01-04T13:06:42Z</time>
      </trkpt>
      <trkpt lat="49.9384" lon="2.3675">
        <ele>104.5</ele>
        <time>2023-01-04T13:06:43Z</time>
      </trkpt>
      <trkpt lat="49.93839" lon="2.36751">
        <ele>104.5</ele>
        <time>2023-01-04T13:06:45Z</time>
      </trkpt>
      <trkpt lat="49.93838" lon="2.36751">
        <ele>104.5</ele>
        <time>2023-01-04T13:06:46Z</time>
      </trkpt>
      <trkpt lat="49.93836" lon="2.36752">
        <ele>104.4</ele>
        <time>2023-01-04T13:06:47Z</time>
      </trkpt>
      <trkpt lat="49.93835" lon="2.36753">
        <ele>104.4</ele>
        <time>2023-01-04T13:06:48Z</time>
      </trkpt>
      <trkpt lat="49.93834" lon="2.36753">
        <ele>104.4</ele>
        <time>2023-01-04T13:06:49Z</time>
      </trkpt>
      <trkpt lat="49.93833" lon="2.36754">
        <ele>104.4</ele>
        <time>2023-01-04T13:06:50Z</time>
      </trkpt>
      <trkpt lat="49.93832" lon="2.36755">
        <ele>104.4</ele>
        <time>2023-01-04T13:06:52Z</time>
      </trkpt>
      <trkpt lat="49.93831" lon="2.36756">
        <ele>104.4</ele>
        <time>2023-01-04T13:06:53Z</time>
      </trkpt>
      <trkpt lat="49.93829" lon="2.36757">
        <ele>104.3</ele>
        <time>2023-01-04T13:06:54Z</time>
      </trkpt>
      <trkpt lat="49.93828" lon="2.36757">
        <ele>104.3</ele>
        <time>2023-01-04T13:06:55Z</time>
      </trkpt>
      <trkpt lat="49.93828" lon="2.36758">
        <ele>104.3</ele>
        <time>2023-01-04T13:06:56Z</time>
      </trkpt>
      <trkpt lat="49.93826" lon="2.36759">
        <ele>104.3</ele>
        <time>2023-01-04T13:06:57Z</time>
      </trkpt>
      <trkpt lat="49.93825" lon="2.3676">
        <ele>104.3</ele>
        <time>2023-01-04T13:06:58Z</time>
      </trkpt>
      <trkpt lat="49.93824" lon="2.36761">
        <ele>104.3</ele>
        <time>2023-01-04T13:06:59Z</time>
      </trkpt>
      <trkpt lat="49.93823" lon="2.36761">
        <ele>104.2</ele>
        <time>2023-01-04T13:07:00Z</time>
      </trkpt>
      <trkpt lat="49.93822" lon="2.36762">
        <ele>104.2</ele>
        <time>2023-01-04T13:07:02Z</time>
      </trkpt>
      <trkpt lat="49.93821" lon="2.36762">
        <ele>104.2</ele>
        <time>2023-01-04T13:07:03Z</time>
      </trkpt>
      <trkpt lat="49.9382" lon="2.36763">
        <ele>104.2</ele>
        <time>2023-01-04T13:07:04Z</time>
      </trkpt>
      <trkpt lat="49.93819" lon="2.36764">
        <ele>104.2</ele>
        <time>2023-01-04T13:07:05Z</time>
      </trkpt>
      <trkpt lat="49.93818" lon="2.36764">
        <ele>104.2</ele>
        <time>2023-01-04T13:07:06Z</time>
      </trkpt>
      <trkpt lat="49.93817" lon="2.36764">
        <ele>104.2</ele>
        <time>2023-01-04T13:07:07Z</time>
      </trkpt>
      <trkpt lat="49.93816" lon="2.36764">
        <ele>104.2</ele>
        <time>2023-01-04T13:07:08Z</time>
      </trkpt>
      <trkpt lat="49.93815" lon="2.36765">
        <ele>104.1</ele>
        <time>2023-01-04T13:07:10Z</time>
      </trkpt>
      <trkpt lat="49.93814" lon="2.36765">
        <ele>104.1</ele>
        <time>2023-01-04T13:07:11Z</time>
      </trkpt>
      <trkpt lat="49.93813" lon="2.36766">
        <ele>104.1</ele>
        <time>2023-01-04T13:07:12Z</time>
      </trkpt>
      <trkpt lat="49.93812" lon="2.36767">
        <ele>104.1</ele>
        <time>2023-01-04T13:07:13Z</time>
      </trkpt>
      <trkpt lat="49.93812" lon="2.36767">
        <ele>104.1</ele>
        <time>2023-01-04T13:07:14Z</time>
      </trkpt>
      <trkpt lat="49.9381" lon="2.36768">
        <ele>104.1</ele>
        <time>2023-01-04T13:07:15Z</time>
      </trkpt>
      <trkpt lat="49.9381" lon="2.36769">
        <ele>104.1</ele>
        <time>2023-01-04T13:07:17Z</time>
      </trkpt>
      <trkpt lat="49.93809" lon="2.3677">
        <ele>104</ele>
        <time>2023-01-04T13:07:18Z</time>
      </trkpt>
      <trkpt lat="49.93808" lon="2.36771">
        <ele>104</ele>
        <time>2023-01-04T13:07:19Z</time>
      </trkpt>
      <trkpt lat="49.93807" lon="2.36772">
        <ele>104</ele>
        <time>2023-01-04T13:07:20Z</time>
      </trkpt>
      <trkpt lat="49.93806" lon="2.36773">
        <ele>104</ele>
        <time>2023-01-04T13:07:21Z</time>
      </trkpt>
      <trkpt lat="49.93805" lon="2.36773">
        <ele>104</ele>
        <time>2023-01-04T13:07:22Z</time>
      </trkpt>
      <trkpt lat="49.93804" lon="2.36774">
        <ele>104</ele>
        <time>2023-01-04T13:07:23Z</time>
      </trkpt>
      <trkpt lat="49.93803" lon="2.36775">
        <ele>104</ele>
        <time>2023-01-04T13:07:24Z</time>
      </trkpt>
      <trkpt lat="49.93802" lon="2.36776">
        <ele>103.9</ele>
        <time>2023-01-04T13:07:26Z</time>
      </trkpt>
      <trkpt lat="49.93801" lon="2.36777">
        <ele>103.9</ele>
        <time>2023-01-04T13:07:27Z</time>
      </trkpt>
      <trkpt lat="49.93799" lon="2.36778">
        <ele>103.9</ele>
        <time>2023-01-04T13:07:28Z</time>
      </trkpt>
      <trkpt lat="49.93798" lon="2.36779">
        <ele>103.9</ele>
        <time>2023-01-04T13:07:29Z</time>
      </trkpt>
      <trkpt lat="49.93797" lon="2.3678">
        <ele>103.8</ele>
        <time>2023-01-04T13:07:30Z</time>
      </trkpt>
      <trkpt lat="49.93796" lon="2.3678">
        <ele>103.8</ele>
        <time>2023-01-04T13:07:31Z</time>
      </trkpt>
      <trkpt lat="49.93795" lon="2.36781">
        <ele>103.8</ele>
        <time>2023-01-04T13:07:32Z</time>
      </trkpt>
      <trkpt lat="49.93795" lon="2.36782">
        <ele>103.8</ele>
        <time>2023-01-04T13:07:34Z</time>
      </trkpt>
      <trkpt lat="49.93793" lon="2.36783">
        <ele>103.8</ele>
        <time>2023-01-04T13:07:35Z</time>
      </trkpt>
      <trkpt lat="49.93793" lon="2.36783">
        <ele>103.8</ele>
        <time>2023-01-04T13:07:36Z</time>
      </trkpt>
      <trkpt lat="49.93792" lon="2.36784">
        <ele>103.8</ele>
        <time>2023-01-04T13:07:37Z</time>
      </trkpt>
      <trkpt lat="49.9379" lon="2.36785">
        <ele>103.7</ele>
        <time>2023-01-04T13:07:38Z</time>
      </trkpt>
      <trkpt lat="49.93789" lon="2.36785">
        <ele>103.7</ele>
        <time>2023-01-04T13:07:39Z</time>
      </trkpt>
      <trkpt lat="49.93788" lon="2.36786">
        <ele>103.7</ele>
        <time>2023-01-04T13:07:40Z</time>
      </trkpt>
      <trkpt lat="49.93787" lon="2.36786">
        <ele>103.7</ele>
        <time>2023-01-04T13:07:42Z</time>
      </trkpt>
      <trkpt lat="49.93786" lon="2.36787">
        <ele>103.7</ele>
        <time>2023-01-04T13:07:43Z</time>
      </trkpt>
      <trkpt lat="49.93785" lon="2.36788">
        <ele>103.6</ele>
        <time>2023-01-04T13:07:44Z</time>
      </trkpt>
      <trkpt lat="49.93783" lon="2.3679">
        <ele>103.6</ele>
        <time>2023-01-04T13:07:45Z</time>
      </trkpt>
      <trkpt lat="49.93782" lon="2.3679">
        <ele>103.6</ele>
        <time>2023-01-04T13:07:46Z</time>
      </trkpt>
      <trkpt lat="49.93781" lon="2.3679">
        <ele>103.6</ele>
        <time>2023-01-04T13:07:47Z</time>
      </trkpt>
      <trkpt lat="49.9378" lon="2.36791">
        <ele>103.6</ele>
        <time>2023-01-04T13:07:48Z</time>
      </trkpt>
      <trkpt lat="49.93779" lon="2.36792">
        <ele>103.5</ele>
        <time>2023-01-04T13:07:49Z</time>
      </trkpt>
      <trkpt lat="49.93777" lon="2.36792">
        <ele>103.5</ele>
        <time>2023-01-04T13:07:51Z</time>
      </trkpt>
      <trkpt lat="49.93775" lon="2.36793">
        <ele>103.5</ele>
        <time>2023-01-04T13:07:52Z</time>
      </trkpt>
      <trkpt lat="49.93775" lon="2.36794">
        <ele>103.5</ele>
        <time>2023-01-04T13:07:53Z</time>
      </trkpt>
      <trkpt lat="49.93774" lon="2.36794">
        <ele>103.5</ele>
        <time>2023-01-04T13:07:54Z</time>
      </trkpt>
      <trkpt lat="49.93772" lon="2.36795">
        <ele>103.4</ele>
        <time>2023-01-04T13:07:55Z</time>
      </trkpt>
      <trkpt lat="49.93771" lon="2.36795">
        <ele>103.4</ele>
        <time>2023-01-04T13:07:56Z</time>
      </trkpt>
      <trkpt lat="49.93771" lon="2.36796">
        <ele>103.4</ele>
        <time>2023-01-04T13:07:57Z</time>
      </trkpt>
      <trkpt lat="49.93769" lon="2.36797">
        <ele>103.4</ele>
        <time>2023-01-04T13:07:58Z</time>
      </trkpt>
      <trkpt lat="49.93768" lon="2.36798">
        <ele>103.4</ele>
        <time>2023-01-04T13:07:59Z</time>
      </trkpt>
      <trkpt lat="49.93767" lon="2.36799">
        <ele>103.3</ele>
        <time>2023-01-04T13:08:01Z</time>
      </trkpt>
      <trkpt lat="49.93765" lon="2.368">
        <ele>103.3</ele>
        <time>2023-01-04T13:08:02Z</time>
      </trkpt>
      <trkpt lat="49.93764" lon="2.368">
        <ele>103.3</ele>
        <time>2023-01-04T13:08:03Z</time>
      </trkpt>
      <trkpt lat="49.93763" lon="2.36801">
        <ele>103.3</ele>
        <time>2023-01-04T13:08:04Z</time>
      </trkpt>
      <trkpt lat="49.93762" lon="2.36802">
        <ele>103.2</ele>
        <time>2023-01-04T13:08:05Z</time>
      </trkpt>
      <trkpt lat="49.93761" lon="2.36802">
        <ele>103.2</ele>
        <time>2023-01-04T13:08:06Z</time>
      </trkpt>
      <trkpt lat="49.9376" lon="2.36803">
        <ele>103.2</ele>
        <time>2023-01-04T13:08:07Z</time>
      </trkpt>
      <trkpt lat="49.93759" lon="2.36804">
        <ele>103.2</ele>
        <time>2023-01-04T13:08:08Z</time>
      </trkpt>
      <trkpt lat="49.93758" lon="2.36805">
        <ele>103.2</ele>
        <time>2023-01-04T13:08:09Z</time>
      </trkpt>
      <trkpt lat="49.93756" lon="2.36805">
        <ele>103.1</ele>
        <time>2023-01-04T13:08:11Z</time>
      </trkpt>
      <trkpt lat="49.93754" lon="2.36807">
        <ele>103.1</ele>
        <time>2023-01-04T13:08:12Z</time>
      </trkpt>
      <trkpt lat="49.93754" lon="2.36807">
        <ele>103.1</ele>
        <time>2023-01-04T13:08:13Z</time>
      </trkpt>
      <trkpt lat="49.93753" lon="2.36807">
        <ele>103</ele>
        <time>2023-01-04T13:08:14Z</time>
      </trkpt>
      <trkpt lat="49.93752" lon="2.36808">
        <ele>103</ele>
        <time>2023-01-04T13:08:15Z</time>
      </trkpt>
      <trkpt lat="49.93751" lon="2.36809">
        <ele>103</ele>
        <time>2023-01-04T13:08:16Z</time>
      </trkpt>
      <trkpt lat="49.9375" lon="2.36809">
        <ele>103</ele>
        <time>2023-01-04T13:08:17Z</time>
      </trkpt>
      <trkpt lat="49.93749" lon="2.3681">
        <ele>103</ele>
        <time>2023-01-04T13:08:18Z</time>
      </trkpt>
      <trkpt lat="49.93748" lon="2.36811">
        <ele>102.9</ele>
        <time>2023-01-04T13:08:19Z</time>
      </trkpt>
      <trkpt lat="49.93747" lon="2.36812">
        <ele>102.9</ele>
        <time>2023-01-04T13:08:21Z</time>
      </trkpt>
      <trkpt lat="49.93746" lon="2.36813">
        <ele>102.9</ele>
        <time>2023-01-04T13:08:22Z</time>
      </trkpt>
      <trkpt lat="49.93745" lon="2.36814">
        <ele>102.9</ele>
        <time>2023-01-04T13:08:23Z</time>
      </trkpt>
      <trkpt lat="49.93744" lon="2.36814">
        <ele>102.9</ele>
        <time>2023-01-04T13:08:24Z</time>
      </trkpt>
      <trkpt lat="49.93743" lon="2.36815">
        <ele>102.8</ele>
        <time>2023-01-04T13:08:25Z</time>
      </trkpt>
      <trkpt lat="49.93742" lon="2.36815">
        <ele>102.8</ele>
        <time>2023-01-04T13:08:26Z</time>
      </trkpt>
      <trkpt lat="49.93741" lon="2.36816">
        <ele>102.8</ele>
        <time>2023-01-04T13:08:27Z</time>
      </trkpt>
      <trkpt lat="49.93739" lon="2.36817">
        <ele>102.8</ele>
        <time>2023-01-04T13:08:29Z</time>
      </trkpt>
      <trkpt lat="49.93738" lon="2.36818">
        <ele>102.7</ele>
        <time>2023-01-04T13:08:30Z</time>
      </trkpt>
      <trkpt lat="49.93737" lon="2.36818">
        <ele>102.7</ele>
        <time>2023-01-04T13:08:31Z</time>
      </trkpt>
      <trkpt lat="49.93736" lon="2.36818">
        <ele>102.7</ele>
        <time>2023-01-04T13:08:32Z</time>
      </trkpt>
      <trkpt lat="49.93735" lon="2.36819">
        <ele>102.7</ele>
        <time>2023-01-04T13:08:33Z</time>
      </trkpt>
      <trkpt lat="49.93734" lon="2.36819">
        <ele>102.7</ele>
        <time>2023-01-04T13:08:34Z</time>
      </trkpt>
      <trkpt lat="49.93731" lon="2.36819">
        <ele>102.6</ele>
        <time>2023-01-04T13:08:35Z</time>
      </trkpt>
      <trkpt lat="49.9373" lon="2.36818">
        <ele>102.6</ele>
        <time>2023-01-04T13:08:37Z</time>
      </trkpt>
      <trkpt lat="49.9373" lon="2.36818">
        <ele>102.6</ele>
        <time>2023-01-04T13:08:38Z</time>
      </trkpt>
      <trkpt lat="49.93729" lon="2.36817">
        <ele>102.6</ele>
        <time>2023-01-04T13:08:39Z</time>
      </trkpt>
      <trkpt lat="49.93728" lon="2.36816">
        <ele>102.6</ele>
        <time>2023-01-04T13:08:40Z</time>
      </trkpt>
      <trkpt lat="49.93728" lon="2.36815">
        <ele>102.5</ele>
        <time>2023-01-04T13:08:41Z</time>
      </trkpt>
      <trkpt lat="49.93728" lon="2.36813">
        <ele>102.6</ele>
        <time>2023-01-04T13:08:42Z</time>
      </trkpt>
      <trkpt lat="49.93728" lon="2.36811">
        <ele>102.6</ele>
        <time>2023-01-04T13:08:43Z</time>
      </trkpt>
      <trkpt lat="49.93729" lon="2.36807">
        <ele>102.6</ele>
        <time>2023-01-04T13:08:44Z</time>
      </trkpt>
      <trkpt lat="49.93729" lon="2.36806">
        <ele>102.6</ele>
        <time>2023-01-04T13:08:46Z</time>
      </trkpt>
      <trkpt lat="49.93729" lon="2.36804">
        <ele>102.6</ele>
        <time>2023-01-04T13:08:47Z</time>
      </trkpt>
      <trkpt lat="49.9373" lon="2.36803">
        <ele>102.6</ele>
        <time>2023-01-04T13:08:48Z</time>
      </trkpt>
      <trkpt lat="49.9373" lon="2.36801">
        <ele>102.6</ele>
        <time>2023-01-04T13:08:49Z</time>
      </trkpt>
      <trkpt lat="49.9373" lon="2.36799">
        <ele>102.6</ele>
        <time>2023-01-04T13:08:50Z</time>
      </trkpt>
      <trkpt lat="49.93731" lon="2.36797">
        <ele>102.7</ele>
        <time>2023-01-04T13:08:51Z</time>
      </trkpt>
      <trkpt lat="49.93731" lon="2.36796">
        <ele>102.7</ele>
        <time>2023-01-04T13:08:53Z</time>
      </trkpt>
      <trkpt lat="49.93731" lon="2.36795">
        <ele>102.7</ele>
        <time>2023-01-04T13:08:54Z</time>
      </trkpt>
      <trkpt lat="49.93731" lon="2.36793">
        <ele>102.7</ele>
        <time>2023-01-04T13:08:55Z</time>
      </trkpt>
      <trkpt lat="49.93731" lon="2.36791">
        <ele>102.7</ele>
        <time>2023-01-04T13:08:56Z</time>
      </trkpt>
      <trkpt lat="49.93731" lon="2.3679">
        <ele>102.7</ele>
        <time>2023-01-04T13:08:57Z</time>
      </trkpt>
      <trkpt lat="49.93731" lon="2.36788">
        <ele>102.7</ele>
        <time>2023-01-04T13:08:58Z</time>
      </trkpt>
      <trkpt lat="49.93731" lon="2.36786">
        <ele>102.7</ele>
        <time>2023-01-04T13:08:59Z</time>
      </trkpt>
      <trkpt lat="49.93732" lon="2.36784">
        <ele>102.7</ele>
        <time>2023-01-04T13:09:01Z</time>
      </trkpt>
      <trkpt lat="49.93732" lon="2.36783">
        <ele>102.7</ele>
        <time>2023-01-04T13:09:02Z</time>
      </trkpt>
      <trkpt lat="49.93732" lon="2.36781">
        <ele>102.7</ele>
        <time>2023-01-04T13:09:03Z</time>
      </trkpt>
      <trkpt lat="49.93732" lon="2.36778">
        <ele>102.8</ele>
        <time>2023-01-04T13:09:04Z</time>
      </trkpt>
      <trkpt lat="49.93732" lon="2.36777">
        <ele>102.8</ele>
        <time>2023-01-04T13:09:05Z</time>
      </trkpt>
      <trkpt lat="49.93732" lon="2.36775">
        <ele>102.8</ele>
        <time>2023-01-04T13:09:07Z</time>
      </trkpt>
      <trkpt lat="49.93732" lon="2.36774">
        <ele>102.8</ele>
        <time>2023-01-04T13:09:08Z</time>
      </trkpt>
      <trkpt lat="49.93732" lon="2.36772">
        <ele>102.8</ele>
        <time>2023-01-04T13:09:09Z</time>
      </trkpt>
      <trkpt lat="49.93732" lon="2.3677">
        <ele>102.8</ele>
        <time>2023-01-04T13:09:10Z</time>
      </trkpt>
      <trkpt lat="49.93732" lon="2.36767">
        <ele>102.8</ele>
        <time>2023-01-04T13:09:11Z</time>
      </trkpt>
      <trkpt lat="49.93732" lon="2.36766">
        <ele>102.8</ele>
        <time>2023-01-04T13:09:12Z</time>
      </trkpt>
      <trkpt lat="49.93732" lon="2.36765">
        <ele>102.8</ele>
        <time>2023-01-04T13:09:13Z</time>
      </trkpt>
      <trkpt lat="49.93732" lon="2.36763">
        <ele>102.8</ele>
        <time>2023-01-04T13:09:15Z</time>
      </trkpt>
      <trkpt lat="49.93732" lon="2.3676">
        <ele>102.9</ele>
        <time>2023-01-04T13:09:16Z</time>
      </trkpt>
      <trkpt lat="49.93733" lon="2.36758">
        <ele>102.9</ele>
        <time>2023-01-04T13:09:17Z</time>
      </trkpt>
      <trkpt lat="49.93733" lon="2.36756">
        <ele>102.9</ele>
        <time>2023-01-04T13:09:18Z</time>
      </trkpt>
      <trkpt lat="49.93733" lon="2.36754">
        <ele>102.9</ele>
        <time>2023-01-04T13:09:19Z</time>
      </trkpt>
      <trkpt lat="49.93734" lon="2.36752">
        <ele>102.9</ele>
        <time>2023-01-04T13:09:20Z</time>
      </trkpt>
      <trkpt lat="49.93734" lon="2.3675">
        <ele>102.9</ele>
        <time>2023-01-04T13:09:21Z</time>
      </trkpt>
      <trkpt lat="49.93734" lon="2.36748">
        <ele>102.9</ele>
        <time>2023-01-04T13:09:22Z</time>
      </trkpt>
      <trkpt lat="49.93734" lon="2.36746">
        <ele>102.9</ele>
        <time>2023-01-04T13:09:24Z</time>
      </trkpt>
      <trkpt lat="49.93735" lon="2.36744">
        <ele>102.9</ele>
        <time>2023-01-04T13:09:25Z</time>
      </trkpt>
      <trkpt lat="49.93735" lon="2.36741">
        <ele>103</ele>
        <time>2023-01-04T13:09:26Z</time>
      </trkpt>
      <trkpt lat="49.93735" lon="2.36738">
        <ele>103</ele>
        <time>2023-01-04T13:09:27Z</time>
      </trkpt>
      <trkpt lat="49.93735" lon="2.36737">
        <ele>103</ele>
        <time>2023-01-04T13:09:28Z</time>
      </trkpt>
      <trkpt lat="49.93735" lon="2.36735">
        <ele>103</ele>
        <time>2023-01-04T13:09:29Z</time>
      </trkpt>
      <trkpt lat="49.93735" lon="2.36733">
        <ele>103</ele>
        <time>2023-01-04T13:09:30Z</time>
      </trkpt>
      <trkpt lat="49.93736" lon="2.36731">
        <ele>103</ele>
        <time>2023-01-04T13:09:31Z</time>
      </trkpt>
      <trkpt lat="49.93736" lon="2.36728">
        <ele>103</ele>
        <time>2023-01-04T13:09:33Z</time>
      </trkpt>
      <trkpt lat="49.93736" lon="2.36727">
        <ele>103</ele>
        <time>2023-01-04T13:09:34Z</time>
      </trkpt>
      <trkpt lat="49.93737" lon="2.36725">
        <ele>103</ele>
        <time>2023-01-04T13:09:35Z</time>
      </trkpt>
      <trkpt lat="49.93737" lon="2.36722">
        <ele>103.1</ele>
        <time>2023-01-04T13:09:36Z</time>
      </trkpt>
      <trkpt lat="49.93738" lon="2.36721">
        <ele>103.1</ele>
        <time>2023-01-04T13:09:37Z</time>
      </trkpt>
      <trkpt lat="49.93738" lon="2.3672">
        <ele>103.1</ele>
        <time>2023-01-04T13:09:38Z</time>
      </trkpt>
      <trkpt lat="49.93738" lon="2.36718">
        <ele>103.1</ele>
        <time>2023-01-04T13:09:39Z</time>
      </trkpt>
      <trkpt lat="49.93738" lon="2.36716">
        <ele>103.1</ele>
        <time>2023-01-04T13:09:40Z</time>
      </trkpt>
      <trkpt lat="49.93738" lon="2.36715">
        <ele>103.1</ele>
        <time>2023-01-04T13:09:42Z</time>
      </trkpt>
      <trkpt lat="49.93739" lon="2.36713">
        <ele>103.1</ele>
        <time>2023-01-04T13:09:43Z</time>
      </trkpt>
      <trkpt lat="49.93739" lon="2.36711">
        <ele>103.1</ele>
        <time>2023-01-04T13:09:44Z</time>
      </trkpt>
      <trkpt lat="49.93739" lon="2.3671">
        <ele>103.1</ele>
        <time>2023-01-04T13:09:45Z</time>
      </trkpt>
      <trkpt lat="49.9374" lon="2.36706">
        <ele>103.1</ele>
        <time>2023-01-04T13:09:46Z</time>
      </trkpt>
      <trkpt lat="49.9374" lon="2.36705">
        <ele>103.2</ele>
        <time>2023-01-04T13:09:47Z</time>
      </trkpt>
      <trkpt lat="49.9374" lon="2.36704">
        <ele>103.2</ele>
        <time>2023-01-04T13:09:48Z</time>
      </trkpt>
      <trkpt lat="49.9374" lon="2.36702">
        <ele>103.2</ele>
        <time>2023-01-04T13:09:49Z</time>
      </trkpt>
      <trkpt lat="49.93741" lon="2.36699">
        <ele>103.2</ele>
        <time>2023-01-04T13:09:51Z</time>
      </trkpt>
      <trkpt lat="49.93741" lon="2.36698">
        <ele>103.2</ele>
        <time>2023-01-04T13:09:52Z</time>
      </trkpt>
      <trkpt lat="49.93742" lon="2.36697">
        <ele>103.2</ele>
        <time>2023-01-04T13:09:53Z</time>
      </trkpt>
      <trkpt lat="49.93742" lon="2.36695">
        <ele>103.2</ele>
        <time>2023-01-04T13:09:55Z</time>
      </trkpt>
      <trkpt lat="49.93742" lon="2.36692">
        <ele>103.2</ele>
        <time>2023-01-04T13:09:56Z</time>
      </trkpt>
      <trkpt lat="49.93742" lon="2.3669">
        <ele>103.2</ele>
        <time>2023-01-04T13:09:57Z</time>
      </trkpt>
      <trkpt lat="49.93743" lon="2.36689">
        <ele>103.2</ele>
        <time>2023-01-04T13:09:58Z</time>
      </trkpt>
      <trkpt lat="49.93743" lon="2.36687">
        <ele>103.2</ele>
        <time>2023-01-04T13:09:59Z</time>
      </trkpt>
      <trkpt lat="49.93743" lon="2.36685">
        <ele>103.2</ele>
        <time>2023-01-04T13:10:00Z</time>
      </trkpt>
      <trkpt lat="49.93744" lon="2.36682">
        <ele>103.2</ele>
        <time>2023-01-04T13:10:01Z</time>
      </trkpt>
      <trkpt lat="49.93744" lon="2.36681">
        <ele>103.3</ele>
        <time>2023-01-04T13:10:02Z</time>
      </trkpt>
      <trkpt lat="49.93744" lon="2.3668">
        <ele>103.3</ele>
        <time>2023-01-04T13:10:03Z</time>
      </trkpt>
      <trkpt lat="49.93744" lon="2.36677">
        <ele>103.3</ele>
        <time>2023-01-04T13:10:05Z</time>
      </trkpt>
      <trkpt lat="49.93745" lon="2.36674">
        <ele>103.3</ele>
        <time>2023-01-04T13:10:06Z</time>
      </trkpt>
      <trkpt lat="49.93746" lon="2.36671">
        <ele>103.3</ele>
        <time>2023-01-04T13:10:07Z</time>
      </trkpt>
      <trkpt lat="49.93746" lon="2.3667">
        <ele>103.3</ele>
        <time>2023-01-04T13:10:08Z</time>
      </trkpt>
      <trkpt lat="49.93746" lon="2.36668">
        <ele>103.3</ele>
        <time>2023-01-04T13:10:09Z</time>
      </trkpt>
      <trkpt lat="49.93747" lon="2.36666">
        <ele>103.3</ele>
        <time>2023-01-04T13:10:10Z</time>
      </trkpt>
      <trkpt lat="49.93747" lon="2.36663">
        <ele>103.3</ele>
        <time>2023-01-04T13:10:11Z</time>
      </trkpt>
      <trkpt lat="49.93747" lon="2.36661">
        <ele>103.3</ele>
        <time>2023-01-04T13:10:13Z</time>
      </trkpt>
      <trkpt lat="49.93747" lon="2.36659">
        <ele>103.3</ele>
        <time>2023-01-04T13:10:14Z</time>
      </trkpt>
      <trkpt lat="49.93748" lon="2.36657">
        <ele>103.3</ele>
        <time>2023-01-04T13:10:15Z</time>
      </trkpt>
      <trkpt lat="49.93748" lon="2.36654">
        <ele>103.3</ele>
        <time>2023-01-04T13:10:16Z</time>
      </trkpt>
      <trkpt lat="49.93748" lon="2.36653">
        <ele>103.3</ele>
        <time>2023-01-04T13:10:17Z</time>
      </trkpt>
      <trkpt lat="49.93749" lon="2.36651">
        <ele>103.3</ele>
        <time>2023-01-04T13:10:18Z</time>
      </trkpt>
      <trkpt lat="49.93749" lon="2.36649">
        <ele>103.3</ele>
        <time>2023-01-04T13:10:19Z</time>
      </trkpt>
      <trkpt lat="49.93749" lon="2.36648">
        <ele>103.3</ele>
        <time>2023-01-04T13:10:20Z</time>
      </trkpt>
      <trkpt lat="49.9375" lon="2.36646">
        <ele>103.3</ele>
        <time>2023-01-04T13:10:22Z</time>
      </trkpt>
      <trkpt lat="49.9375" lon="2.36645">
        <ele>103.3</ele>
        <time>2023-01-04T13:10:23Z</time>
      </trkpt>
      <trkpt lat="49.9375" lon="2.36643">
        <ele>103.3</ele>
        <time>2023-01-04T13:10:24Z</time>
      </trkpt>
      <trkpt lat="49.9375" lon="2.36642">
        <ele>103.3</ele>
        <time>2023-01-04T13:10:25Z</time>
      </trkpt>
      <trkpt lat="49.93751" lon="2.3664">
        <ele>103.3</ele>
        <time>2023-01-04T13:10:26Z</time>
      </trkpt>
      <trkpt lat="49.93751" lon="2.36637">
        <ele>103.3</ele>
        <time>2023-01-04T13:10:27Z</time>
      </trkpt>
      <trkpt lat="49.93751" lon="2.36636">
        <ele>103.2</ele>
        <time>2023-01-04T13:10:28Z</time>
      </trkpt>
      <trkpt lat="49.9375" lon="2.36635">
        <ele>103.2</ele>
        <time>2023-01-04T13:10:30Z</time>
      </trkpt>
      <trkpt lat="49.9375" lon="2.36633">
        <ele>103.2</ele>
        <time>2023-01-04T13:10:31Z</time>
      </trkpt>
      <trkpt lat="49.9375" lon="2.36632">
        <ele>103.2</ele>
        <time>2023-01-04T13:10:32Z</time>
      </trkpt>
      <trkpt lat="49.9375" lon="2.36631">
        <ele>103.2</ele>
        <time>2023-01-04T13:10:33Z</time>
      </trkpt>
      <trkpt lat="49.93751" lon="2.3663">
        <ele>103.2</ele>
        <time>2023-01-04T13:10:34Z</time>
      </trkpt>
      <trkpt lat="49.93751" lon="2.36628">
        <ele>103.2</ele>
        <time>2023-01-04T13:10:35Z</time>
      </trkpt>
      <trkpt lat="49.93751" lon="2.36625">
        <ele>103.2</ele>
        <time>2023-01-04T13:10:36Z</time>
      </trkpt>
      <trkpt lat="49.93751" lon="2.36623">
        <ele>103.2</ele>
        <time>2023-01-04T13:10:38Z</time>
      </trkpt>
      <trkpt lat="49.93751" lon="2.36622">
        <ele>103.2</ele>
        <time>2023-01-04T13:10:39Z</time>
      </trkpt>
      <trkpt lat="49.93751" lon="2.3662">
        <ele>103.1</ele>
        <time>2023-01-04T13:10:40Z</time>
      </trkpt>
      <trkpt lat="49.93752" lon="2.36618">
        <ele>103.1</ele>
        <time>2023-01-04T13:10:41Z</time>
      </trkpt>
      <trkpt lat="49.93751" lon="2.36614">
        <ele>103.1</ele>
        <time>2023-01-04T13:10:42Z</time>
      </trkpt>
      <trkpt lat="49.93751" lon="2.36613">
        <ele>103.1</ele>
        <time>2023-01-04T13:10:43Z</time>
      </trkpt>
      <trkpt lat="49.93751" lon="2.36611">
        <ele>103</ele>
        <time>2023-01-04T13:10:44Z</time>
      </trkpt>
      <trkpt lat="49.93751" lon="2.36607">
        <ele>103</ele>
        <time>2023-01-04T13:10:45Z</time>
      </trkpt>
      <trkpt lat="49.93751" lon="2.36606">
        <ele>103</ele>
        <time>2023-01-04T13:10:46Z</time>
      </trkpt>
      <trkpt lat="49.93751" lon="2.36601">
        <ele>102.9</ele>
        <time>2023-01-04T13:10:47Z</time>
      </trkpt>
      <trkpt lat="49.93751" lon="2.36599">
        <ele>102.9</ele>
        <time>2023-01-04T13:10:49Z</time>
      </trkpt>
      <trkpt lat="49.93751" lon="2.36597">
        <ele>102.8</ele>
        <time>2023-01-04T13:10:50Z</time>
      </trkpt>
      <trkpt lat="49.93751" lon="2.36595">
        <ele>102.8</ele>
        <time>2023-01-04T13:10:51Z</time>
      </trkpt>
      <trkpt lat="49.93751" lon="2.36592">
        <ele>102.8</ele>
        <time>2023-01-04T13:10:52Z</time>
      </trkpt>
      <trkpt lat="49.93752" lon="2.3659">
        <ele>102.7</ele>
        <time>2023-01-04T13:10:53Z</time>
      </trkpt>
      <trkpt lat="49.93752" lon="2.36589">
        <ele>102.7</ele>
        <time>2023-01-04T13:10:54Z</time>
      </trkpt>
      <trkpt lat="49.93752" lon="2.36586">
        <ele>102.7</ele>
        <time>2023-01-04T13:10:56Z</time>
      </trkpt>
      <trkpt lat="49.93752" lon="2.36583">
        <ele>102.6</ele>
        <time>2023-01-04T13:10:57Z</time>
      </trkpt>
      <trkpt lat="49.93752" lon="2.3658">
        <ele>102.6</ele>
        <time>2023-01-04T13:10:58Z</time>
      </trkpt>
      <trkpt lat="49.93753" lon="2.36579">
        <ele>102.5</ele>
        <time>2023-01-04T13:10:59Z</time>
      </trkpt>
      <trkpt lat="49.93753" lon="2.36577">
        <ele>102.5</ele>
        <time>2023-01-04T13:11:00Z</time>
      </trkpt>
      <trkpt lat="49.93753" lon="2.36573">
        <ele>102.4</ele>
        <time>2023-01-04T13:11:01Z</time>
      </trkpt>
      <trkpt lat="49.93753" lon="2.36571">
        <ele>102.4</ele>
        <time>2023-01-04T13:11:03Z</time>
      </trkpt>
      <trkpt lat="49.93754" lon="2.36569">
        <ele>102.4</ele>
        <time>2023-01-04T13:11:04Z</time>
      </trkpt>
      <trkpt lat="49.93754" lon="2.36568">
        <ele>102.3</ele>
        <time>2023-01-04T13:11:05Z</time>
      </trkpt>
      <trkpt lat="49.93754" lon="2.36566">
        <ele>102.3</ele>
        <time>2023-01-04T13:11:06Z</time>
      </trkpt>
      <trkpt lat="49.93754" lon="2.36565">
        <ele>102.3</ele>
        <time>2023-01-04T13:11:07Z</time>
      </trkpt>
      <trkpt lat="49.93754" lon="2.36564">
        <ele>102.2</ele>
        <time>2023-01-04T13:11:08Z</time>
      </trkpt>
      <trkpt lat="49.93754" lon="2.36562">
        <ele>102.2</ele>
        <time>2023-01-04T13:11:09Z</time>
      </trkpt>
      <trkpt lat="49.93755" lon="2.36559">
        <ele>102.1</ele>
        <time>2023-01-04T13:11:10Z</time>
      </trkpt>
      <trkpt lat="49.93755" lon="2.36557">
        <ele>102.1</ele>
        <time>2023-01-04T13:11:11Z</time>
      </trkpt>
      <trkpt lat="49.93755" lon="2.36556">
        <ele>102.1</ele>
        <time>2023-01-04T13:11:13Z</time>
      </trkpt>
      <trkpt lat="49.93755" lon="2.36554">
        <ele>102</ele>
        <time>2023-01-04T13:11:14Z</time>
      </trkpt>
      <trkpt lat="49.93755" lon="2.36553">
        <ele>102</ele>
        <time>2023-01-04T13:11:15Z</time>
      </trkpt>
      <trkpt lat="49.93756" lon="2.36551">
        <ele>101.9</ele>
        <time>2023-01-04T13:11:16Z</time>
      </trkpt>
      <trkpt lat="49.93756" lon="2.3655">
        <ele>101.9</ele>
        <time>2023-01-04T13:11:17Z</time>
      </trkpt>
      <trkpt lat="49.93756" lon="2.36549">
        <ele>101.9</ele>
        <time>2023-01-04T13:11:18Z</time>
      </trkpt>
      <trkpt lat="49.93756" lon="2.36548">
        <ele>101.8</ele>
        <time>2023-01-04T13:11:19Z</time>
      </trkpt>
      <trkpt lat="49.93756" lon="2.36547">
        <ele>101.8</ele>
        <time>2023-01-04T13:11:20Z</time>
      </trkpt>
      <trkpt lat="49.93757" lon="2.36545">
        <ele>101.8</ele>
        <time>2023-01-04T13:11:22Z</time>
      </trkpt>
      <trkpt lat="49.93757" lon="2.36544">
        <ele>101.7</ele>
        <time>2023-01-04T13:11:23Z</time>
      </trkpt>
      <trkpt lat="49.93756" lon="2.36543">
        <ele>101.7</ele>
        <time>2023-01-04T13:11:24Z</time>
      </trkpt>
      <trkpt lat="49.93756" lon="2.36539">
        <ele>101.6</ele>
        <time>2023-01-04T13:11:25Z</time>
      </trkpt>
      <trkpt lat="49.93756" lon="2.36538">
        <ele>101.6</ele>
        <time>2023-01-04T13:11:26Z</time>
      </trkpt>
      <trkpt lat="49.93756" lon="2.36537">
        <ele>101.5</ele>
        <time>2023-01-04T13:11:27Z</time>
      </trkpt>
      <trkpt lat="49.93757" lon="2.36535">
        <ele>101.5</ele>
        <time>2023-01-04T13:11:28Z</time>
      </trkpt>
      <trkpt lat="49.93757" lon="2.36533">
        <ele>101.4</ele>
        <time>2023-01-04T13:11:29Z</time>
      </trkpt>
      <trkpt lat="49.93757" lon="2.36532">
        <ele>101.4</ele>
        <time>2023-01-04T13:11:30Z</time>
      </trkpt>
      <trkpt lat="49.93758" lon="2.36528">
        <ele>101.3</ele>
        <time>2023-01-04T13:11:31Z</time>
      </trkpt>
      <trkpt lat="49.93758" lon="2.36527">
        <ele>101.2</ele>
        <time>2023-01-04T13:11:33Z</time>
      </trkpt>
      <trkpt lat="49.93758" lon="2.36526">
        <ele>101.2</ele>
        <time>2023-01-04T13:11:34Z</time>
      </trkpt>
      <trkpt lat="49.93758" lon="2.36524">
        <ele>101.2</ele>
        <time>2023-01-04T13:11:35Z</time>
      </trkpt>
      <trkpt lat="49.93759" lon="2.36523">
        <ele>101.1</ele>
        <time>2023-01-04T13:11:36Z</time>
      </trkpt>
      <trkpt lat="49.93759" lon="2.36521">
        <ele>101</ele>
        <time>2023-01-04T13:11:37Z</time>
      </trkpt>
      <trkpt lat="49.9376" lon="2.3652">
        <ele>101</ele>
        <time>2023-01-04T13:11:38Z</time>
      </trkpt>
      <trkpt lat="49.9376" lon="2.36518">
        <ele>100.9</ele>
        <time>2023-01-04T13:11:39Z</time>
      </trkpt>
      <trkpt lat="49.93761" lon="2.36516">
        <ele>100.9</ele>
        <time>2023-01-04T13:11:40Z</time>
      </trkpt>
      <trkpt lat="49.93761" lon="2.36513">
        <ele>100.8</ele>
        <time>2023-01-04T13:11:41Z</time>
      </trkpt>
      <trkpt lat="49.93761" lon="2.36512">
        <ele>100.7</ele>
        <time>2023-01-04T13:11:43Z</time>
      </trkpt>
      <trkpt lat="49.93762" lon="2.36509">
        <ele>100.6</ele>
        <time>2023-01-04T13:11:44Z</time>
      </trkpt>
      <trkpt lat="49.93762" lon="2.36507">
        <ele>100.6</ele>
        <time>2023-01-04T13:11:45Z</time>
      </trkpt>
      <trkpt lat="49.93763" lon="2.36503">
        <ele>100.5</ele>
        <time>2023-01-04T13:11:47Z</time>
      </trkpt>
      <trkpt lat="49.93763" lon="2.36502">
        <ele>100.4</ele>
        <time>2023-01-04T13:11:48Z</time>
      </trkpt>
      <trkpt lat="49.93764" lon="2.365">
        <ele>100.4</ele>
        <time>2023-01-04T13:11:49Z</time>
      </trkpt>
      <trkpt lat="49.93764" lon="2.36498">
        <ele>100.3</ele>
        <time>2023-01-04T13:11:50Z</time>
      </trkpt>
      <trkpt lat="49.93765" lon="2.36496">
        <ele>100.2</ele>
        <time>2023-01-04T13:11:51Z</time>
      </trkpt>
      <trkpt lat="49.93765" lon="2.36494">
        <ele>100.1</ele>
        <time>2023-01-04T13:11:52Z</time>
      </trkpt>
      <trkpt lat="49.93766" lon="2.36492">
        <ele>100.1</ele>
        <time>2023-01-04T13:11:53Z</time>
      </trkpt>
      <trkpt lat="49.93766" lon="2.3649">
        <ele>100</ele>
        <time>2023-01-04T13:11:54Z</time>
      </trkpt>
      <trkpt lat="49.93767" lon="2.36488">
        <ele>99.9</ele>
        <time>2023-01-04T13:11:55Z</time>
      </trkpt>
      <trkpt lat="49.93767" lon="2.36485">
        <ele>99.8</ele>
        <time>2023-01-04T13:11:56Z</time>
      </trkpt>
      <trkpt lat="49.93768" lon="2.36482">
        <ele>99.7</ele>
        <time>2023-01-04T13:11:57Z</time>
      </trkpt>
      <trkpt lat="49.93768" lon="2.3648">
        <ele>99.7</ele>
        <time>2023-01-04T13:11:59Z</time>
      </trkpt>
      <trkpt lat="49.93769" lon="2.36479">
        <ele>99.6</ele>
        <time>2023-01-04T13:12:00Z</time>
      </trkpt>
      <trkpt lat="49.93769" lon="2.36477">
        <ele>99.6</ele>
        <time>2023-01-04T13:12:01Z</time>
      </trkpt>
      <trkpt lat="49.93769" lon="2.36474">
        <ele>99.5</ele>
        <time>2023-01-04T13:12:02Z</time>
      </trkpt>
      <trkpt lat="49.9377" lon="2.36471">
        <ele>99.4</ele>
        <time>2023-01-04T13:12:03Z</time>
      </trkpt>
      <trkpt lat="49.9377" lon="2.3647">
        <ele>99.4</ele>
        <time>2023-01-04T13:12:04Z</time>
      </trkpt>
      <trkpt lat="49.9377" lon="2.36468">
        <ele>99.3</ele>
        <time>2023-01-04T13:12:05Z</time>
      </trkpt>
      <trkpt lat="49.93771" lon="2.36465">
        <ele>99.2</ele>
        <time>2023-01-04T13:12:06Z</time>
      </trkpt>
      <trkpt lat="49.93771" lon="2.36464">
        <ele>99.2</ele>
        <time>2023-01-04T13:12:07Z</time>
      </trkpt>
      <trkpt lat="49.93771" lon="2.36462">
        <ele>99.1</ele>
        <time>2023-01-04T13:12:08Z</time>
      </trkpt>
      <trkpt lat="49.93772" lon="2.3646">
        <ele>99.1</ele>
        <time>2023-01-04T13:12:10Z</time>
      </trkpt>
      <trkpt lat="49.93772" lon="2.36458">
        <ele>99</ele>
        <time>2023-01-04T13:12:11Z</time>
      </trkpt>
      <trkpt lat="49.93772" lon="2.36455">
        <ele>98.9</ele>
        <time>2023-01-04T13:12:12Z</time>
      </trkpt>
      <trkpt lat="49.93773" lon="2.36454">
        <ele>98.9</ele>
        <time>2023-01-04T13:12:13Z</time>
      </trkpt>
      <trkpt lat="49.93773" lon="2.36452">
        <ele>98.8</ele>
        <time>2023-01-04T13:12:14Z</time>
      </trkpt>
      <trkpt lat="49.93773" lon="2.3645">
        <ele>98.8</ele>
        <time>2023-01-04T13:12:15Z</time>
      </trkpt>
      <trkpt lat="49.93773" lon="2.36447">
        <ele>98.7</ele>
        <time>2023-01-04T13:12:17Z</time>
      </trkpt>
      <trkpt lat="49.93774" lon="2.36444">
        <ele>98.6</ele>
        <time>2023-01-04T13:12:18Z</time>
      </trkpt>
      <trkpt lat="49.93774" lon="2.36442">
        <ele>98.6</ele>
        <time>2023-01-04T13:12:19Z</time>
      </trkpt>
      <trkpt lat="49.93774" lon="2.36441">
        <ele>98.5</ele>
        <time>2023-01-04T13:12:20Z</time>
      </trkpt>
      <trkpt lat="49.93774" lon="2.36439">
        <ele>98.5</ele>
        <time>2023-01-04T13:12:21Z</time>
      </trkpt>
      <trkpt lat="49.93775" lon="2.36437">
        <ele>98.4</ele>
        <time>2023-01-04T13:12:22Z</time>
      </trkpt>
      <trkpt lat="49.93775" lon="2.36436">
        <ele>98.4</ele>
        <time>2023-01-04T13:12:24Z</time>
      </trkpt>
      <trkpt lat="49.93775" lon="2.36434">
        <ele>98.4</ele>
        <time>2023-01-04T13:12:25Z</time>
      </trkpt>
      <trkpt lat="49.93775" lon="2.36433">
        <ele>98.3</ele>
        <time>2023-01-04T13:12:26Z</time>
      </trkpt>
      <trkpt lat="49.93776" lon="2.36431">
        <ele>98.3</ele>
        <time>2023-01-04T13:12:27Z</time>
      </trkpt>
      <trkpt lat="49.93776" lon="2.36429">
        <ele>98.3</ele>
        <time>2023-01-04T13:12:28Z</time>
      </trkpt>
      <trkpt lat="49.93776" lon="2.36428">
        <ele>98.2</ele>
        <time>2023-01-04T13:12:29Z</time>
      </trkpt>
      <trkpt lat="49.93776" lon="2.36426">
        <ele>98.2</ele>
        <time>2023-01-04T13:12:31Z</time>
      </trkpt>
      <trkpt lat="49.93777" lon="2.36424">
        <ele>98.1</ele>
        <time>2023-01-04T13:12:32Z</time>
      </trkpt>
      <trkpt lat="49.93777" lon="2.36423">
        <ele>98.1</ele>
        <time>2023-01-04T13:12:33Z</time>
      </trkpt>
      <trkpt lat="49.93777" lon="2.36421">
        <ele>98.1</ele>
        <time>2023-01-04T13:12:34Z</time>
      </trkpt>
      <trkpt lat="49.93777" lon="2.3642">
        <ele>98</ele>
        <time>2023-01-04T13:12:35Z</time>
      </trkpt>
      <trkpt lat="49.93778" lon="2.36418">
        <ele>98</ele>
        <time>2023-01-04T13:12:37Z</time>
      </trkpt>
      <trkpt lat="49.93778" lon="2.36417">
        <ele>98</ele>
        <time>2023-01-04T13:12:38Z</time>
      </trkpt>
      <trkpt lat="49.93778" lon="2.36415">
        <ele>97.9</ele>
        <time>2023-01-04T13:12:39Z</time>
      </trkpt>
      <trkpt lat="49.93778" lon="2.36414">
        <ele>97.9</ele>
        <time>2023-01-04T13:12:40Z</time>
      </trkpt>
      <trkpt lat="49.93778" lon="2.36412">
        <ele>97.9</ele>
        <time>2023-01-04T13:12:41Z</time>
      </trkpt>
      <trkpt lat="49.93778" lon="2.36411">
        <ele>97.8</ele>
        <time>2023-01-04T13:12:42Z</time>
      </trkpt>
      <trkpt lat="49.93778" lon="2.36409">
        <ele>97.8</ele>
        <time>2023-01-04T13:12:43Z</time>
      </trkpt>
      <trkpt lat="49.93778" lon="2.36407">
        <ele>97.7</ele>
        <time>2023-01-04T13:12:44Z</time>
      </trkpt>
      <trkpt lat="49.93777" lon="2.36404">
        <ele>97.7</ele>
        <time>2023-01-04T13:12:46Z</time>
      </trkpt>
      <trkpt lat="49.93777" lon="2.36403">
        <ele>97.7</ele>
        <time>2023-01-04T13:12:47Z</time>
      </trkpt>
      <trkpt lat="49.93776" lon="2.36402">
        <ele>97.6</ele>
        <time>2023-01-04T13:12:48Z</time>
      </trkpt>
      <trkpt lat="49.93776" lon="2.36399">
        <ele>97.5</ele>
        <time>2023-01-04T13:12:49Z</time>
      </trkpt>
      <trkpt lat="49.93776" lon="2.36397">
        <ele>97.5</ele>
        <time>2023-01-04T13:12:50Z</time>
      </trkpt>
      <trkpt lat="49.93776" lon="2.36396">
        <ele>97.5</ele>
        <time>2023-01-04T13:12:51Z</time>
      </trkpt>
      <trkpt lat="49.93776" lon="2.36393">
        <ele>97.4</ele>
        <time>2023-01-04T13:12:52Z</time>
      </trkpt>
      <trkpt lat="49.93777" lon="2.36391">
        <ele>97.4</ele>
        <time>2023-01-04T13:12:53Z</time>
      </trkpt>
      <trkpt lat="49.93777" lon="2.36389">
        <ele>97.4</ele>
        <time>2023-01-04T13:12:55Z</time>
      </trkpt>
      <trkpt lat="49.93777" lon="2.36387">
        <ele>97.3</ele>
        <time>2023-01-04T13:12:56Z</time>
      </trkpt>
      <trkpt lat="49.93777" lon="2.36385">
        <ele>97.3</ele>
        <time>2023-01-04T13:12:57Z</time>
      </trkpt>
      <trkpt lat="49.93778" lon="2.36383">
        <ele>97.3</ele>
        <time>2023-01-04T13:12:58Z</time>
      </trkpt>
      <trkpt lat="49.93778" lon="2.36381">
        <ele>97.2</ele>
        <time>2023-01-04T13:12:59Z</time>
      </trkpt>
      <trkpt lat="49.93778" lon="2.3638">
        <ele>97.2</ele>
        <time>2023-01-04T13:13:00Z</time>
      </trkpt>
      <trkpt lat="49.93777" lon="2.36378">
        <ele>97.2</ele>
        <time>2023-01-04T13:13:01Z</time>
      </trkpt>
      <trkpt lat="49.93777" lon="2.36376">
        <ele>97.2</ele>
        <time>2023-01-04T13:13:03Z</time>
      </trkpt>
      <trkpt lat="49.93777" lon="2.36374">
        <ele>97.1</ele>
        <time>2023-01-04T13:13:04Z</time>
      </trkpt>
      <trkpt lat="49.93778" lon="2.36373">
        <ele>97.1</ele>
        <time>2023-01-04T13:13:05Z</time>
      </trkpt>
      <trkpt lat="49.93778" lon="2.36371">
        <ele>97.1</ele>
        <time>2023-01-04T13:13:06Z</time>
      </trkpt>
      <trkpt lat="49.93778" lon="2.36368">
        <ele>97</ele>
        <time>2023-01-04T13:13:07Z</time>
      </trkpt>
      <trkpt lat="49.93778" lon="2.36367">
        <ele>97</ele>
        <time>2023-01-04T13:13:09Z</time>
      </trkpt>
      <trkpt lat="49.93778" lon="2.36366">
        <ele>97</ele>
        <time>2023-01-04T13:13:10Z</time>
      </trkpt>
      <trkpt lat="49.93778" lon="2.36364">
        <ele>97</ele>
        <time>2023-01-04T13:13:11Z</time>
      </trkpt>
      <trkpt lat="49.93778" lon="2.36362">
        <ele>96.9</ele>
        <time>2023-01-04T13:13:12Z</time>
      </trkpt>
      <trkpt lat="49.93779" lon="2.36361">
        <ele>96.9</ele>
        <time>2023-01-04T13:13:13Z</time>
      </trkpt>
      <trkpt lat="49.93779" lon="2.36359">
        <ele>96.9</ele>
        <time>2023-01-04T13:13:14Z</time>
      </trkpt>
      <trkpt lat="49.93779" lon="2.36358">
        <ele>96.9</ele>
        <time>2023-01-04T13:13:15Z</time>
      </trkpt>
      <trkpt lat="49.93779" lon="2.36356">
        <ele>96.9</ele>
        <time>2023-01-04T13:13:17Z</time>
      </trkpt>
      <trkpt lat="49.93779" lon="2.36353">
        <ele>96.8</ele>
        <time>2023-01-04T13:13:18Z</time>
      </trkpt>
      <trkpt lat="49.9378" lon="2.36351">
        <ele>96.8</ele>
        <time>2023-01-04T13:13:19Z</time>
      </trkpt>
      <trkpt lat="49.9378" lon="2.36348">
        <ele>96.8</ele>
        <time>2023-01-04T13:13:20Z</time>
      </trkpt>
      <trkpt lat="49.93781" lon="2.36347">
        <ele>96.8</ele>
        <time>2023-01-04T13:13:21Z</time>
      </trkpt>
      <trkpt lat="49.93781" lon="2.36346">
        <ele>96.7</ele>
        <time>2023-01-04T13:13:22Z</time>
      </trkpt>
      <trkpt lat="49.93781" lon="2.36344">
        <ele>96.7</ele>
        <time>2023-01-04T13:13:23Z</time>
      </trkpt>
      <trkpt lat="49.93782" lon="2.36342">
        <ele>96.7</ele>
        <time>2023-01-04T13:13:24Z</time>
      </trkpt>
      <trkpt lat="49.93782" lon="2.3634">
        <ele>96.7</ele>
        <time>2023-01-04T13:13:26Z</time>
      </trkpt>
      <trkpt lat="49.93783" lon="2.36336">
        <ele>96.6</ele>
        <time>2023-01-04T13:13:27Z</time>
      </trkpt>
      <trkpt lat="49.93783" lon="2.36335">
        <ele>96.6</ele>
        <time>2023-01-04T13:13:28Z</time>
      </trkpt>
      <trkpt lat="49.93783" lon="2.36332">
        <ele>96.6</ele>
        <time>2023-01-04T13:13:29Z</time>
      </trkpt>
      <trkpt lat="49.93783" lon="2.3633">
        <ele>96.6</ele>
        <time>2023-01-04T13:13:30Z</time>
      </trkpt>
      <trkpt lat="49.93783" lon="2.36329">
        <ele>96.6</ele>
        <time>2023-01-04T13:13:31Z</time>
      </trkpt>
      <trkpt lat="49.93783" lon="2.36325">
        <ele>96.5</ele>
        <time>2023-01-04T13:13:33Z</time>
      </trkpt>
      <trkpt lat="49.93784" lon="2.36324">
        <ele>96.5</ele>
        <time>2023-01-04T13:13:34Z</time>
      </trkpt>
      <trkpt lat="49.93784" lon="2.3632">
        <ele>96.5</ele>
        <time>2023-01-04T13:13:35Z</time>
      </trkpt>
      <trkpt lat="49.93784" lon="2.36318">
        <ele>96.4</ele>
        <time>2023-01-04T13:13:36Z</time>
      </trkpt>
      <trkpt lat="49.93784" lon="2.36317">
        <ele>96.4</ele>
        <time>2023-01-04T13:13:37Z</time>
      </trkpt>
      <trkpt lat="49.93785" lon="2.36314">
        <ele>96.4</ele>
        <time>2023-01-04T13:13:38Z</time>
      </trkpt>
      <trkpt lat="49.93785" lon="2.36312">
        <ele>96.4</ele>
        <time>2023-01-04T13:13:39Z</time>
      </trkpt>
      <trkpt lat="49.93785" lon="2.36311">
        <ele>96.4</ele>
        <time>2023-01-04T13:13:40Z</time>
      </trkpt>
      <trkpt lat="49.93785" lon="2.36309">
        <ele>96.4</ele>
        <time>2023-01-04T13:13:42Z</time>
      </trkpt>
      <trkpt lat="49.93786" lon="2.36306">
        <ele>96.3</ele>
        <time>2023-01-04T13:13:43Z</time>
      </trkpt>
      <trkpt lat="49.93786" lon="2.36302">
        <ele>96.3</ele>
        <time>2023-01-04T13:13:44Z</time>
      </trkpt>
      <trkpt lat="49.93786" lon="2.36301">
        <ele>96.3</ele>
        <time>2023-01-04T13:13:45Z</time>
      </trkpt>
      <trkpt lat="49.93786" lon="2.363">
        <ele>96.3</ele>
        <time>2023-01-04T13:13:46Z</time>
      </trkpt>
      <trkpt lat="49.93787" lon="2.36297">
        <ele>96.2</ele>
        <time>2023-01-04T13:13:47Z</time>
      </trkpt>
      <trkpt lat="49.93787" lon="2.36295">
        <ele>96.2</ele>
        <time>2023-01-04T13:13:48Z</time>
      </trkpt>
      <trkpt lat="49.93787" lon="2.36293">
        <ele>96.2</ele>
        <time>2023-01-04T13:13:49Z</time>
      </trkpt>
      <trkpt lat="49.93788" lon="2.36291">
        <ele>96.2</ele>
        <time>2023-01-04T13:13:50Z</time>
      </trkpt>
      <trkpt lat="49.93788" lon="2.36289">
        <ele>96.2</ele>
        <time>2023-01-04T13:13:52Z</time>
      </trkpt>
      <trkpt lat="49.93788" lon="2.36286">
        <ele>96.1</ele>
        <time>2023-01-04T13:13:53Z</time>
      </trkpt>
      <trkpt lat="49.93789" lon="2.36284">
        <ele>96.1</ele>
        <time>2023-01-04T13:13:54Z</time>
      </trkpt>
      <trkpt lat="49.93789" lon="2.36282">
        <ele>96.1</ele>
        <time>2023-01-04T13:13:55Z</time>
      </trkpt>
      <trkpt lat="49.93789" lon="2.36281">
        <ele>96.1</ele>
        <time>2023-01-04T13:13:56Z</time>
      </trkpt>
      <trkpt lat="49.9379" lon="2.36278">
        <ele>96.1</ele>
        <time>2023-01-04T13:13:58Z</time>
      </trkpt>
      <trkpt lat="49.9379" lon="2.36275">
        <ele>96</ele>
        <time>2023-01-04T13:13:59Z</time>
      </trkpt>
      <trkpt lat="49.9379" lon="2.36274">
        <ele>96</ele>
        <time>2023-01-04T13:14:00Z</time>
      </trkpt>
      <trkpt lat="49.93791" lon="2.36272">
        <ele>96</ele>
        <time>2023-01-04T13:14:01Z</time>
      </trkpt>
      <trkpt lat="49.93791" lon="2.36271">
        <ele>96</ele>
        <time>2023-01-04T13:14:02Z</time>
      </trkpt>
      <trkpt lat="49.93791" lon="2.36269">
        <ele>96</ele>
        <time>2023-01-04T13:14:03Z</time>
      </trkpt>
      <trkpt lat="49.93791" lon="2.36267">
        <ele>96</ele>
        <time>2023-01-04T13:14:04Z</time>
      </trkpt>
      <trkpt lat="49.93791" lon="2.36263">
        <ele>95.9</ele>
        <time>2023-01-04T13:14:05Z</time>
      </trkpt>
      <trkpt lat="49.93791" lon="2.36261">
        <ele>95.9</ele>
        <time>2023-01-04T13:14:06Z</time>
      </trkpt>
      <trkpt lat="49.93791" lon="2.3626">
        <ele>95.9</ele>
        <time>2023-01-04T13:14:07Z</time>
      </trkpt>
      <trkpt lat="49.93791" lon="2.36258">
        <ele>95.9</ele>
        <time>2023-01-04T13:14:09Z</time>
      </trkpt>
      <trkpt lat="49.93791" lon="2.36257">
        <ele>95.9</ele>
        <time>2023-01-04T13:14:10Z</time>
      </trkpt>
      <trkpt lat="49.93791" lon="2.36255">
        <ele>95.9</ele>
        <time>2023-01-04T13:14:11Z</time>
      </trkpt>
      <trkpt lat="49.93791" lon="2.36254">
        <ele>95.9</ele>
        <time>2023-01-04T13:14:12Z</time>
      </trkpt>
      <trkpt lat="49.93791" lon="2.36251">
        <ele>95.8</ele>
        <time>2023-01-04T13:14:13Z</time>
      </trkpt>
      <trkpt lat="49.93791" lon="2.36249">
        <ele>95.8</ele>
        <time>2023-01-04T13:14:14Z</time>
      </trkpt>
      <trkpt lat="49.93791" lon="2.36248">
        <ele>95.8</ele>
        <time>2023-01-04T13:14:15Z</time>
      </trkpt>
      <trkpt lat="49.93791" lon="2.36246">
        <ele>95.8</ele>
        <time>2023-01-04T13:14:16Z</time>
      </trkpt>
      <trkpt lat="49.93791" lon="2.36244">
        <ele>95.8</ele>
        <time>2023-01-04T13:14:17Z</time>
      </trkpt>
      <trkpt lat="49.93791" lon="2.36242">
        <ele>95.7</ele>
        <time>2023-01-04T13:14:19Z</time>
      </trkpt>
      <trkpt lat="49.93791" lon="2.3624">
        <ele>95.7</ele>
        <time>2023-01-04T13:14:20Z</time>
      </trkpt>
      <trkpt lat="49.93791" lon="2.36238">
        <ele>95.7</ele>
        <time>2023-01-04T13:14:21Z</time>
      </trkpt>
      <trkpt lat="49.93792" lon="2.36235">
        <ele>95.7</ele>
        <time>2023-01-04T13:14:23Z</time>
      </trkpt>
      <trkpt lat="49.93792" lon="2.36233">
        <ele>95.6</ele>
        <time>2023-01-04T13:14:24Z</time>
      </trkpt>
      <trkpt lat="49.93792" lon="2.36231">
        <ele>95.6</ele>
        <time>2023-01-04T13:14:25Z</time>
      </trkpt>
      <trkpt lat="49.93792" lon="2.36229">
        <ele>95.6</ele>
        <time>2023-01-04T13:14:26Z</time>
      </trkpt>
      <trkpt lat="49.93792" lon="2.36227">
        <ele>95.6</ele>
        <time>2023-01-04T13:14:27Z</time>
      </trkpt>
      <trkpt lat="49.93792" lon="2.36224">
        <ele>95.5</ele>
        <time>2023-01-04T13:14:28Z</time>
      </trkpt>
      <trkpt lat="49.93792" lon="2.36223">
        <ele>95.5</ele>
        <time>2023-01-04T13:14:29Z</time>
      </trkpt>
      <trkpt lat="49.93792" lon="2.36221">
        <ele>95.5</ele>
        <time>2023-01-04T13:14:30Z</time>
      </trkpt>
      <trkpt lat="49.93792" lon="2.36219">
        <ele>95.5</ele>
        <time>2023-01-04T13:14:31Z</time>
      </trkpt>
      <trkpt lat="49.93793" lon="2.36216">
        <ele>95.4</ele>
        <time>2023-01-04T13:14:33Z</time>
      </trkpt>
      <trkpt lat="49.93793" lon="2.36215">
        <ele>95.4</ele>
        <time>2023-01-04T13:14:34Z</time>
      </trkpt>
      <trkpt lat="49.93793" lon="2.36212">
        <ele>95.4</ele>
        <time>2023-01-04T13:14:35Z</time>
      </trkpt>
      <trkpt lat="49.93793" lon="2.3621">
        <ele>95.4</ele>
        <time>2023-01-04T13:14:36Z</time>
      </trkpt>
      <trkpt lat="49.93794" lon="2.36209">
        <ele>95.4</ele>
        <time>2023-01-04T13:14:37Z</time>
      </trkpt>
      <trkpt lat="49.93795" lon="2.36206">
        <ele>95.3</ele>
        <time>2023-01-04T13:14:38Z</time>
      </trkpt>
      <trkpt lat="49.93795" lon="2.36205">
        <ele>95.3</ele>
        <time>2023-01-04T13:14:40Z</time>
      </trkpt>
      <trkpt lat="49.93796" lon="2.36204">
        <ele>95.3</ele>
        <time>2023-01-04T13:14:41Z</time>
      </trkpt>
      <trkpt lat="49.93796" lon="2.36202">
        <ele>95.3</ele>
        <time>2023-01-04T13:14:42Z</time>
      </trkpt>
      <trkpt lat="49.93796" lon="2.36199">
        <ele>95.2</ele>
        <time>2023-01-04T13:14:43Z</time>
      </trkpt>
      <trkpt lat="49.93797" lon="2.36197">
        <ele>95.2</ele>
        <time>2023-01-04T13:14:44Z</time>
      </trkpt>
      <trkpt lat="49.93797" lon="2.36195">
        <ele>95.2</ele>
        <time>2023-01-04T13:14:45Z</time>
      </trkpt>
      <trkpt lat="49.93797" lon="2.36194">
        <ele>95.2</ele>
        <time>2023-01-04T13:14:46Z</time>
      </trkpt>
      <trkpt lat="49.93797" lon="2.36191">
        <ele>95.1</ele>
        <time>2023-01-04T13:14:47Z</time>
      </trkpt>
      <trkpt lat="49.93798" lon="2.3619">
        <ele>95.1</ele>
        <time>2023-01-04T13:14:48Z</time>
      </trkpt>
      <trkpt lat="49.93798" lon="2.36188">
        <ele>95.1</ele>
        <time>2023-01-04T13:14:50Z</time>
      </trkpt>
      <trkpt lat="49.93798" lon="2.36186">
        <ele>95.1</ele>
        <time>2023-01-04T13:14:51Z</time>
      </trkpt>
      <trkpt lat="49.93799" lon="2.36185">
        <ele>95</ele>
        <time>2023-01-04T13:14:52Z</time>
      </trkpt>
      <trkpt lat="49.938" lon="2.36183">
        <ele>95</ele>
        <time>2023-01-04T13:14:53Z</time>
      </trkpt>
      <trkpt lat="49.938" lon="2.36181">
        <ele>95</ele>
        <time>2023-01-04T13:14:54Z</time>
      </trkpt>
      <trkpt lat="49.938" lon="2.36179">
        <ele>95</ele>
        <time>2023-01-04T13:14:56Z</time>
      </trkpt>
      <trkpt lat="49.938" lon="2.36178">
        <ele>94.9</ele>
        <time>2023-01-04T13:14:57Z</time>
      </trkpt>
      <trkpt lat="49.938" lon="2.36175">
        <ele>94.9</ele>
        <time>2023-01-04T13:14:58Z</time>
      </trkpt>
      <trkpt lat="49.938" lon="2.36173">
        <ele>94.9</ele>
        <time>2023-01-04T13:14:59Z</time>
      </trkpt>
      <trkpt lat="49.938" lon="2.36172">
        <ele>94.8</ele>
        <time>2023-01-04T13:15:00Z</time>
      </trkpt>
      <trkpt lat="49.93801" lon="2.3617">
        <ele>94.8</ele>
        <time>2023-01-04T13:15:01Z</time>
      </trkpt>
      <trkpt lat="49.93801" lon="2.36168">
        <ele>94.8</ele>
        <time>2023-01-04T13:15:02Z</time>
      </trkpt>
      <trkpt lat="49.93801" lon="2.36165">
        <ele>94.7</ele>
        <time>2023-01-04T13:15:03Z</time>
      </trkpt>
      <trkpt lat="49.93801" lon="2.36163">
        <ele>94.7</ele>
        <time>2023-01-04T13:15:05Z</time>
      </trkpt>
      <trkpt lat="49.93801" lon="2.36162">
        <ele>94.7</ele>
        <time>2023-01-04T13:15:06Z</time>
      </trkpt>
      <trkpt lat="49.93802" lon="2.36159">
        <ele>94.6</ele>
        <time>2023-01-04T13:15:07Z</time>
      </trkpt>
      <trkpt lat="49.93802" lon="2.36157">
        <ele>94.6</ele>
        <time>2023-01-04T13:15:08Z</time>
      </trkpt>
      <trkpt lat="49.93802" lon="2.36156">
        <ele>94.6</ele>
        <time>2023-01-04T13:15:09Z</time>
      </trkpt>
      <trkpt lat="49.93803" lon="2.36153">
        <ele>94.5</ele>
        <time>2023-01-04T13:15:10Z</time>
      </trkpt>
      <trkpt lat="49.93803" lon="2.36152">
        <ele>94.5</ele>
        <time>2023-01-04T13:15:11Z</time>
      </trkpt>
      <trkpt lat="49.93803" lon="2.3615">
        <ele>94.5</ele>
        <time>2023-01-04T13:15:13Z</time>
      </trkpt>
      <trkpt lat="49.93804" lon="2.36149">
        <ele>94.5</ele>
        <time>2023-01-04T13:15:14Z</time>
      </trkpt>
      <trkpt lat="49.93804" lon="2.36147">
        <ele>94.5</ele>
        <time>2023-01-04T13:15:15Z</time>
      </trkpt>
      <trkpt lat="49.93804" lon="2.36146">
        <ele>94.4</ele>
        <time>2023-01-04T13:15:16Z</time>
      </trkpt>
      <trkpt lat="49.93804" lon="2.36145">
        <ele>94.4</ele>
        <time>2023-01-04T13:15:17Z</time>
      </trkpt>
      <trkpt lat="49.93805" lon="2.36144">
        <ele>94.4</ele>
        <time>2023-01-04T13:15:19Z</time>
      </trkpt>
      <trkpt lat="49.93805" lon="2.36143">
        <ele>94.3</ele>
        <time>2023-01-04T13:15:20Z</time>
      </trkpt>
      <trkpt lat="49.93804" lon="2.36142">
        <ele>94.3</ele>
        <time>2023-01-04T13:15:21Z</time>
      </trkpt>
      <trkpt lat="49.93802" lon="2.36141">
        <ele>94.2</ele>
        <time>2023-01-04T13:15:23Z</time>
      </trkpt>
      <trkpt lat="49.93801" lon="2.36141">
        <ele>94.2</ele>
        <time>2023-01-04T13:15:24Z</time>
      </trkpt>
      <trkpt lat="49.93801" lon="2.36142">
        <ele>94.2</ele>
        <time>2023-01-04T13:15:26Z</time>
      </trkpt>
      <trkpt lat="49.93801" lon="2.36142">
        <ele>94.2</ele>
        <time>2023-01-04T13:15:27Z</time>
      </trkpt>
      <trkpt lat="49.93801" lon="2.36142">
        <ele>94.2</ele>
        <time>2023-01-04T13:15:29Z</time>
      </trkpt>
      <trkpt lat="49.93801" lon="2.36142">
        <ele>94.2</ele>
        <time>2023-01-04T13:15:30Z</time>
      </trkpt>
      <trkpt lat="49.93802" lon="2.36142">
        <ele>94.2</ele>
        <time>2023-01-04T13:15:31Z</time>
      </trkpt>
      <trkpt lat="49.93802" lon="2.36143">
        <ele>94.2</ele>
        <time>2023-01-04T13:15:32Z</time>
      </trkpt>
      <trkpt lat="49.93802" lon="2.36143">
        <ele>94.2</ele>
        <time>2023-01-04T13:15:33Z</time>
      </trkpt>
      <trkpt lat="49.93802" lon="2.36143">
        <ele>94.2</ele>
        <time>2023-01-04T13:15:34Z</time>
      </trkpt>
      <trkpt lat="49.93802" lon="2.36143">
        <ele>94.2</ele>
        <time>2023-01-04T13:15:35Z</time>
      </trkpt>
      <trkpt lat="49.93802" lon="2.36143">
        <ele>94.2</ele>
        <time>2023-01-04T13:15:36Z</time>
      </trkpt>
      <trkpt lat="49.93802" lon="2.36143">
        <ele>94.2</ele>
        <time>2023-01-04T13:15:37Z</time>
      </trkpt>
      <trkpt lat="49.93802" lon="2.36143">
        <ele>94.2</ele>
        <time>2023-01-04T13:15:38Z</time>
      </trkpt>
      <trkpt lat="49.93802" lon="2.36143">
        <ele>94.2</ele>
        <time>2023-01-04T13:15:39Z</time>
      </trkpt>
      <trkpt lat="49.93802" lon="2.36143">
        <ele>94.2</ele>
        <time>2023-01-04T13:15:40Z</time>
      </trkpt>
      <trkpt lat="49.93802" lon="2.36143">
        <ele>94.2</ele>
        <time>2023-01-04T13:15:41Z</time>
      </trkpt>
      <trkpt lat="49.93802" lon="2.36143">
        <ele>94.2</ele>
        <time>2023-01-04T13:15:42Z</time>
      </trkpt>
      <trkpt lat="49.93802" lon="2.36143">
        <ele>94.2</ele>
        <time>2023-01-04T13:15:43Z</time>
      </trkpt>
      <trkpt lat="49.93802" lon="2.36143">
        <ele>94.2</ele>
        <time>2023-01-04T13:15:44Z</time>
      </trkpt>
      <trkpt lat="49.93802" lon="2.36143">
        <ele>94.2</ele>
        <time>2023-01-04T13:15:45Z</time>
      </trkpt>
      <trkpt lat="49.93802" lon="2.36143">
        <ele>94.2</ele>
        <time>2023-01-04T13:15:46Z</time>
      </trkpt>
      <trkpt lat="49.93802" lon="2.36143">
        <ele>94.2</ele>
        <time>2023-01-04T13:15:47Z</time>
      </trkpt>
      <trkpt lat="49.93802" lon="2.36143">
        <ele>94.2</ele>
        <time>2023-01-04T13:15:48Z</time>
      </trkpt>
      <trkpt lat="49.93802" lon="2.36143">
        <ele>94.2</ele>
        <time>2023-01-04T13:15:49Z</time>
      </trkpt>
      <trkpt lat="49.93802" lon="2.36143">
        <ele>94.2</ele>
        <time>2023-01-04T13:15:50Z</time>
      </trkpt>
      <trkpt lat="49.93802" lon="2.36143">
        <ele>94.2</ele>
        <time>2023-01-04T13:15:51Z</time>
      </trkpt>
      <trkpt lat="49.93802" lon="2.36143">
        <ele>94.2</ele>
        <time>2023-01-04T13:15:52Z</time>
      </trkpt>
      <trkpt lat="49.93802" lon="2.36143">
        <ele>94.2</ele>
        <time>2023-01-04T13:15:53Z</time>
      </trkpt>
      <trkpt lat="49.93802" lon="2.36143">
        <ele>94.2</ele>
        <time>2023-01-04T13:15:54Z</time>
      </trkpt>
      <trkpt lat="49.93802" lon="2.36143">
        <ele>94.2</ele>
        <time>2023-01-04T13:15:55Z</time>
      </trkpt>
      <trkpt lat="49.93802" lon="2.36143">
        <ele>94.2</ele>
        <time>2023-01-04T13:15:56Z</time>
      </trkpt>
      <trkpt lat="49.93802" lon="2.36143">
        <ele>94.2</ele>
        <time>2023-01-04T13:15:57Z</time>
      </trkpt>
      <trkpt lat="49.93802" lon="2.36143">
        <ele>94.2</ele>
        <time>2023-01-04T13:15:58Z</time>
      </trkpt>
      <trkpt lat="49.93802" lon="2.36143">
        <ele>94.2</ele>
        <time>2023-01-04T13:15:59Z</time>
      </trkpt>
      <trkpt lat="49.93803" lon="2.36147">
        <ele>94.1</ele>
        <time>2023-01-04T13:16:00Z</time>
      </trkpt>
      <trkpt lat="49.93803" lon="2.36148">
        <ele>94.1</ele>
        <time>2023-01-04T13:16:01Z</time>
      </trkpt>
      <trkpt lat="49.93803" lon="2.36149">
        <ele>94</ele>
        <time>2023-01-04T13:16:02Z</time>
      </trkpt>
      <trkpt lat="49.93804" lon="2.36149">
        <ele>94</ele>
        <time>2023-01-04T13:16:03Z</time>
      </trkpt>
      <trkpt lat="49.93804" lon="2.36148">
        <ele>94</ele>
        <time>2023-01-04T13:16:04Z</time>
      </trkpt>
      <trkpt lat="49.93804" lon="2.36147">
        <ele>94</ele>
        <time>2023-01-04T13:16:05Z</time>
      </trkpt>
      <trkpt lat="49.93804" lon="2.36146">
        <ele>94</ele>
        <time>2023-01-04T13:16:06Z</time>
      </trkpt>
      <trkpt lat="49.93804" lon="2.36145">
        <ele>93.9</ele>
        <time>2023-01-04T13:16:07Z</time>
      </trkpt>
      <trkpt lat="49.93805" lon="2.36142">
        <ele>93.9</ele>
        <time>2023-01-04T13:16:08Z</time>
      </trkpt>
      <trkpt lat="49.93805" lon="2.36141">
        <ele>93.8</ele>
        <time>2023-01-04T13:16:09Z</time>
      </trkpt>
      <trkpt lat="49.93806" lon="2.3614">
        <ele>93.8</ele>
        <time>2023-01-04T13:16:10Z</time>
      </trkpt>
      <trkpt lat="49.93807" lon="2.36138">
        <ele>94</ele>
        <time>2023-01-04T13:16:11Z</time>
      </trkpt>
      <trkpt lat="49.93808" lon="2.36135">
        <ele>94.2</ele>
        <time>2023-01-04T13:16:12Z</time>
      </trkpt>
      <trkpt lat="49.93809" lon="2.36133">
        <ele>94.2</ele>
        <time>2023-01-04T13:16:13Z</time>
      </trkpt>
      <trkpt lat="49.93811" lon="2.36131">
        <ele>94.3</ele>
        <time>2023-01-04T13:16:14Z</time>
      </trkpt>
      <trkpt lat="49.93811" lon="2.3613">
        <ele>94.3</ele>
        <time>2023-01-04T13:16:15Z</time>
      </trkpt>
      <trkpt lat="49.93812" lon="2.36129">
        <ele>94.3</ele>
        <time>2023-01-04T13:16:16Z</time>
      </trkpt>
      <trkpt lat="49.93812" lon="2.36128">
        <ele>94.4</ele>
        <time>2023-01-04T13:16:17Z</time>
      </trkpt>
      <trkpt lat="49.93814" lon="2.36127">
        <ele>94.5</ele>
        <time>2023-01-04T13:16:18Z</time>
      </trkpt>
      <trkpt lat="49.93814" lon="2.36126">
        <ele>94.5</ele>
        <time>2023-01-04T13:16:19Z</time>
      </trkpt>
      <trkpt lat="49.93815" lon="2.36125">
        <ele>94.5</ele>
        <time>2023-01-04T13:16:20Z</time>
      </trkpt>
      <trkpt lat="49.93816" lon="2.36123">
        <ele>94.6</ele>
        <time>2023-01-04T13:16:21Z</time>
      </trkpt>
      <trkpt lat="49.93817" lon="2.36122">
        <ele>94.7</ele>
        <time>2023-01-04T13:16:22Z</time>
      </trkpt>
      <trkpt lat="49.93818" lon="2.36121">
        <ele>94.7</ele>
        <time>2023-01-04T13:16:23Z</time>
      </trkpt>
      <trkpt lat="49.93819" lon="2.3612">
        <ele>94.7</ele>
        <time>2023-01-04T13:16:24Z</time>
      </trkpt>
      <trkpt lat="49.93819" lon="2.3612">
        <ele>94.8</ele>
        <time>2023-01-04T13:16:25Z</time>
      </trkpt>
      <trkpt lat="49.9382" lon="2.36119">
        <ele>94.8</ele>
        <time>2023-01-04T13:16:26Z</time>
      </trkpt>
      <trkpt lat="49.93821" lon="2.36117">
        <ele>94.9</ele>
        <time>2023-01-04T13:16:27Z</time>
      </trkpt>
      <trkpt lat="49.93821" lon="2.36116">
        <ele>94.9</ele>
        <time>2023-01-04T13:16:28Z</time>
      </trkpt>
      <trkpt lat="49.93822" lon="2.36115">
        <ele>94.9</ele>
        <time>2023-01-04T13:16:29Z</time>
      </trkpt>
      <trkpt lat="49.93823" lon="2.36114">
        <ele>95</ele>
        <time>2023-01-04T13:16:30Z</time>
      </trkpt>
      <trkpt lat="49.93823" lon="2.36114">
        <ele>95</ele>
        <time>2023-01-04T13:16:31Z</time>
      </trkpt>
      <trkpt lat="49.93824" lon="2.36113">
        <ele>95.1</ele>
        <time>2023-01-04T13:16:32Z</time>
      </trkpt>
      <trkpt lat="49.93825" lon="2.36113">
        <ele>95.1</ele>
        <time>2023-01-04T13:16:33Z</time>
      </trkpt>
      <trkpt lat="49.93825" lon="2.36112">
        <ele>95.1</ele>
        <time>2023-01-04T13:16:34Z</time>
      </trkpt>
      <trkpt lat="49.93826" lon="2.36112">
        <ele>95.2</ele>
        <time>2023-01-04T13:16:35Z</time>
      </trkpt>
      <trkpt lat="49.93826" lon="2.36111">
        <ele>95.2</ele>
        <time>2023-01-04T13:16:36Z</time>
      </trkpt>
      <trkpt lat="49.93827" lon="2.3611">
        <ele>95.2</ele>
        <time>2023-01-04T13:16:37Z</time>
      </trkpt>
      <trkpt lat="49.93827" lon="2.36109">
        <ele>95.3</ele>
        <time>2023-01-04T13:16:38Z</time>
      </trkpt>
      <trkpt lat="49.9383" lon="2.36107">
        <ele>95.4</ele>
        <time>2023-01-04T13:16:40Z</time>
      </trkpt>
      <trkpt lat="49.93831" lon="2.36104">
        <ele>95.5</ele>
        <time>2023-01-04T13:16:41Z</time>
      </trkpt>
      <trkpt lat="49.93832" lon="2.36103">
        <ele>95.6</ele>
        <time>2023-01-04T13:16:42Z</time>
      </trkpt>
      <trkpt lat="49.93833" lon="2.36103">
        <ele>95.6</ele>
        <time>2023-01-04T13:16:43Z</time>
      </trkpt>
      <trkpt lat="49.93834" lon="2.36101">
        <ele>95.7</ele>
        <time>2023-01-04T13:16:44Z</time>
      </trkpt>
      <trkpt lat="49.93834" lon="2.36101">
        <ele>95.7</ele>
        <time>2023-01-04T13:16:46Z</time>
      </trkpt>
      <trkpt lat="49.93835" lon="2.361">
        <ele>95.8</ele>
        <time>2023-01-04T13:16:47Z</time>
      </trkpt>
      <trkpt lat="49.93836" lon="2.36099">
        <ele>95.6</ele>
        <time>2023-01-04T13:16:48Z</time>
      </trkpt>
      <trkpt lat="49.93836" lon="2.36098">
        <ele>95.6</ele>
        <time>2023-01-04T13:16:49Z</time>
      </trkpt>
      <trkpt lat="49.93837" lon="2.36097">
        <ele>95.5</ele>
        <time>2023-01-04T13:16:51Z</time>
      </trkpt>
      <trkpt lat="49.93837" lon="2.36095">
        <ele>95.5</ele>
        <time>2023-01-04T13:16:52Z</time>
      </trkpt>
      <trkpt lat="49.93838" lon="2.36093">
        <ele>95.5</ele>
        <time>2023-01-04T13:16:53Z</time>
      </trkpt>
      <trkpt lat="49.93839" lon="2.36092">
        <ele>95.5</ele>
        <time>2023-01-04T13:16:54Z</time>
      </trkpt>
      <trkpt lat="49.9384" lon="2.36091">
        <ele>95.5</ele>
        <time>2023-01-04T13:16:55Z</time>
      </trkpt>
      <trkpt lat="49.9384" lon="2.3609">
        <ele>95.5</ele>
        <time>2023-01-04T13:16:56Z</time>
      </trkpt>
      <trkpt lat="49.93841" lon="2.36089">
        <ele>95.5</ele>
        <time>2023-01-04T13:16:57Z</time>
      </trkpt>
      <trkpt lat="49.93842" lon="2.36088">
        <ele>95.5</ele>
        <time>2023-01-04T13:16:58Z</time>
      </trkpt>
      <trkpt lat="49.93843" lon="2.36087">
        <ele>95.5</ele>
        <time>2023-01-04T13:17:00Z</time>
      </trkpt>
      <trkpt lat="49.93844" lon="2.36086">
        <ele>95.5</ele>
        <time>2023-01-04T13:17:01Z</time>
      </trkpt>
      <trkpt lat="49.93844" lon="2.36084">
        <ele>95.5</ele>
        <time>2023-01-04T13:17:02Z</time>
      </trkpt>
      <trkpt lat="49.93844" lon="2.36082">
        <ele>95.4</ele>
        <time>2023-01-04T13:17:03Z</time>
      </trkpt>
      <trkpt lat="49.93844" lon="2.3608">
        <ele>95.4</ele>
        <time>2023-01-04T13:17:04Z</time>
      </trkpt>
      <trkpt lat="49.93845" lon="2.36078">
        <ele>95.4</ele>
        <time>2023-01-04T13:17:05Z</time>
      </trkpt>
      <trkpt lat="49.93845" lon="2.36076">
        <ele>95.4</ele>
        <time>2023-01-04T13:17:06Z</time>
      </trkpt>
      <trkpt lat="49.93846" lon="2.36074">
        <ele>95.4</ele>
        <time>2023-01-04T13:17:08Z</time>
      </trkpt>
      <trkpt lat="49.93846" lon="2.36071">
        <ele>95.4</ele>
        <time>2023-01-04T13:17:09Z</time>
      </trkpt>
      <trkpt lat="49.93847" lon="2.3607">
        <ele>95.4</ele>
        <time>2023-01-04T13:17:10Z</time>
      </trkpt>
      <trkpt lat="49.93847" lon="2.36068">
        <ele>95.4</ele>
        <time>2023-01-04T13:17:11Z</time>
      </trkpt>
      <trkpt lat="49.93847" lon="2.36066">
        <ele>95.4</ele>
        <time>2023-01-04T13:17:12Z</time>
      </trkpt>
      <trkpt lat="49.93848" lon="2.36065">
        <ele>95.4</ele>
        <time>2023-01-04T13:17:13Z</time>
      </trkpt>
      <trkpt lat="49.93848" lon="2.36064">
        <ele>95.4</ele>
        <time>2023-01-04T13:17:15Z</time>
      </trkpt>
      <trkpt lat="49.93848" lon="2.36062">
        <ele>95.4</ele>
        <time>2023-01-04T13:17:16Z</time>
      </trkpt>
      <trkpt lat="49.93848" lon="2.36061">
        <ele>95.4</ele>
        <time>2023-01-04T13:17:17Z</time>
      </trkpt>
      <trkpt lat="49.93849" lon="2.36059">
        <ele>95.4</ele>
        <time>2023-01-04T13:17:18Z</time>
      </trkpt>
      <trkpt lat="49.93848" lon="2.36056">
        <ele>95.4</ele>
        <time>2023-01-04T13:17:19Z</time>
      </trkpt>
      <trkpt lat="49.93848" lon="2.36055">
        <ele>95.4</ele>
        <time>2023-01-04T13:17:20Z</time>
      </trkpt>
      <trkpt lat="49.93849" lon="2.36054">
        <ele>95.4</ele>
        <time>2023-01-04T13:17:21Z</time>
      </trkpt>
      <trkpt lat="49.93849" lon="2.36052">
        <ele>95.4</ele>
        <time>2023-01-04T13:17:22Z</time>
      </trkpt>
      <trkpt lat="49.9385" lon="2.36049">
        <ele>95.4</ele>
        <time>2023-01-04T13:17:24Z</time>
      </trkpt>
      <trkpt lat="49.93851" lon="2.36048">
        <ele>95.4</ele>
        <time>2023-01-04T13:17:25Z</time>
      </trkpt>
      <trkpt lat="49.93851" lon="2.36047">
        <ele>95.4</ele>
        <time>2023-01-04T13:17:26Z</time>
      </trkpt>
      <trkpt lat="49.93852" lon="2.36045">
        <ele>95.4</ele>
        <time>2023-01-04T13:17:27Z</time>
      </trkpt>
      <trkpt lat="49.93853" lon="2.36042">
        <ele>95.4</ele>
        <time>2023-01-04T13:17:28Z</time>
      </trkpt>
      <trkpt lat="49.93853" lon="2.36041">
        <ele>95.4</ele>
        <time>2023-01-04T13:17:29Z</time>
      </trkpt>
      <trkpt lat="49.93853" lon="2.3604">
        <ele>95.4</ele>
        <time>2023-01-04T13:17:30Z</time>
      </trkpt>
      <trkpt lat="49.93854" lon="2.36038">
        <ele>95.4</ele>
        <time>2023-01-04T13:17:31Z</time>
      </trkpt>
      <trkpt lat="49.93854" lon="2.36036">
        <ele>95.4</ele>
        <time>2023-01-04T13:17:32Z</time>
      </trkpt>
      <trkpt lat="49.93855" lon="2.36034">
        <ele>95.4</ele>
        <time>2023-01-04T13:17:34Z</time>
      </trkpt>
      <trkpt lat="49.93855" lon="2.36031">
        <ele>95.4</ele>
        <time>2023-01-04T13:17:35Z</time>
      </trkpt>
      <trkpt lat="49.93856" lon="2.36029">
        <ele>95.4</ele>
        <time>2023-01-04T13:17:36Z</time>
      </trkpt>
      <trkpt lat="49.93856" lon="2.36028">
        <ele>95.4</ele>
        <time>2023-01-04T13:17:37Z</time>
      </trkpt>
      <trkpt lat="49.93857" lon="2.36026">
        <ele>95.4</ele>
        <time>2023-01-04T13:17:38Z</time>
      </trkpt>
      <trkpt lat="49.93857" lon="2.36024">
        <ele>95.4</ele>
        <time>2023-01-04T13:17:39Z</time>
      </trkpt>
      <trkpt lat="49.93858" lon="2.36022">
        <ele>95.4</ele>
        <time>2023-01-04T13:17:40Z</time>
      </trkpt>
      <trkpt lat="49.93858" lon="2.3602">
        <ele>95.4</ele>
        <time>2023-01-04T13:17:41Z</time>
      </trkpt>
      <trkpt lat="49.93859" lon="2.36018">
        <ele>95.4</ele>
        <time>2023-01-04T13:17:42Z</time>
      </trkpt>
      <trkpt lat="49.9386" lon="2.36016">
        <ele>95.4</ele>
        <time>2023-01-04T13:17:44Z</time>
      </trkpt>
      <trkpt lat="49.9386" lon="2.36014">
        <ele>95.4</ele>
        <time>2023-01-04T13:17:45Z</time>
      </trkpt>
      <trkpt lat="49.93861" lon="2.36013">
        <ele>95.4</ele>
        <time>2023-01-04T13:17:46Z</time>
      </trkpt>
      <trkpt lat="49.93861" lon="2.36011">
        <ele>95.4</ele>
        <time>2023-01-04T13:17:47Z</time>
      </trkpt>
      <trkpt lat="49.93862" lon="2.36008">
        <ele>95.4</ele>
        <time>2023-01-04T13:17:48Z</time>
      </trkpt>
      <trkpt lat="49.93862" lon="2.36007">
        <ele>95.4</ele>
        <time>2023-01-04T13:17:49Z</time>
      </trkpt>
      <trkpt lat="49.93863" lon="2.36005">
        <ele>95.4</ele>
        <time>2023-01-04T13:17:50Z</time>
      </trkpt>
      <trkpt lat="49.93864" lon="2.36002">
        <ele>95.5</ele>
        <time>2023-01-04T13:17:51Z</time>
      </trkpt>
      <trkpt lat="49.93865" lon="2.35999">
        <ele>95.5</ele>
        <time>2023-01-04T13:17:53Z</time>
      </trkpt>
      <trkpt lat="49.93866" lon="2.35997">
        <ele>95.5</ele>
        <time>2023-01-04T13:17:54Z</time>
      </trkpt>
      <trkpt lat="49.93866" lon="2.35996">
        <ele>95.5</ele>
        <time>2023-01-04T13:17:55Z</time>
      </trkpt>
      <trkpt lat="49.93866" lon="2.35995">
        <ele>95.5</ele>
        <time>2023-01-04T13:17:56Z</time>
      </trkpt>
      <trkpt lat="49.93867" lon="2.35993">
        <ele>95.5</ele>
        <time>2023-01-04T13:17:57Z</time>
      </trkpt>
      <trkpt lat="49.93867" lon="2.35991">
        <ele>95.5</ele>
        <time>2023-01-04T13:17:58Z</time>
      </trkpt>
      <trkpt lat="49.93868" lon="2.35989">
        <ele>95.5</ele>
        <time>2023-01-04T13:18:00Z</time>
      </trkpt>
      <trkpt lat="49.93869" lon="2.35987">
        <ele>95.5</ele>
        <time>2023-01-04T13:18:01Z</time>
      </trkpt>
      <trkpt lat="49.93869" lon="2.35986">
        <ele>95.5</ele>
        <time>2023-01-04T13:18:02Z</time>
      </trkpt>
      <trkpt lat="49.9387" lon="2.35984">
        <ele>95.5</ele>
        <time>2023-01-04T13:18:03Z</time>
      </trkpt>
      <trkpt lat="49.9387" lon="2.35981">
        <ele>95.5</ele>
        <time>2023-01-04T13:18:04Z</time>
      </trkpt>
      <trkpt lat="49.93871" lon="2.3598">
        <ele>95.5</ele>
        <time>2023-01-04T13:18:05Z</time>
      </trkpt>
      <trkpt lat="49.93871" lon="2.35978">
        <ele>95.5</ele>
        <time>2023-01-04T13:18:06Z</time>
      </trkpt>
      <trkpt lat="49.93872" lon="2.35976">
        <ele>95.5</ele>
        <time>2023-01-04T13:18:07Z</time>
      </trkpt>
      <trkpt lat="49.93872" lon="2.35974">
        <ele>95.5</ele>
        <time>2023-01-04T13:18:09Z</time>
      </trkpt>
      <trkpt lat="49.93873" lon="2.35971">
        <ele>95.5</ele>
        <time>2023-01-04T13:18:10Z</time>
      </trkpt>
      <trkpt lat="49.93873" lon="2.35969">
        <ele>95.5</ele>
        <time>2023-01-04T13:18:11Z</time>
      </trkpt>
      <trkpt lat="49.93874" lon="2.35966">
        <ele>95.5</ele>
        <time>2023-01-04T13:18:12Z</time>
      </trkpt>
      <trkpt lat="49.93874" lon="2.35965">
        <ele>95.5</ele>
        <time>2023-01-04T13:18:13Z</time>
      </trkpt>
      <trkpt lat="49.93875" lon="2.35964">
        <ele>95.5</ele>
        <time>2023-01-04T13:18:14Z</time>
      </trkpt>
      <trkpt lat="49.93875" lon="2.35962">
        <ele>95.5</ele>
        <time>2023-01-04T13:18:15Z</time>
      </trkpt>
      <trkpt lat="49.93876" lon="2.35959">
        <ele>95.5</ele>
        <time>2023-01-04T13:18:16Z</time>
      </trkpt>
      <trkpt lat="49.93876" lon="2.35957">
        <ele>95.5</ele>
        <time>2023-01-04T13:18:17Z</time>
      </trkpt>
      <trkpt lat="49.93877" lon="2.35955">
        <ele>95.5</ele>
        <time>2023-01-04T13:18:19Z</time>
      </trkpt>
      <trkpt lat="49.93877" lon="2.35953">
        <ele>95.5</ele>
        <time>2023-01-04T13:18:20Z</time>
      </trkpt>
      <trkpt lat="49.93878" lon="2.35952">
        <ele>95.5</ele>
        <time>2023-01-04T13:18:21Z</time>
      </trkpt>
      <trkpt lat="49.93878" lon="2.3595">
        <ele>95.5</ele>
        <time>2023-01-04T13:18:22Z</time>
      </trkpt>
      <trkpt lat="49.93879" lon="2.35949">
        <ele>95.5</ele>
        <time>2023-01-04T13:18:23Z</time>
      </trkpt>
      <trkpt lat="49.9388" lon="2.35947">
        <ele>95.5</ele>
        <time>2023-01-04T13:18:24Z</time>
      </trkpt>
      <trkpt lat="49.9388" lon="2.35947">
        <ele>95.5</ele>
        <time>2023-01-04T13:18:25Z</time>
      </trkpt>
      <trkpt lat="49.93881" lon="2.35945">
        <ele>95.5</ele>
        <time>2023-01-04T13:18:26Z</time>
      </trkpt>
      <trkpt lat="49.93881" lon="2.35944">
        <ele>95.5</ele>
        <time>2023-01-04T13:18:27Z</time>
      </trkpt>
      <trkpt lat="49.93882" lon="2.35942">
        <ele>95.4</ele>
        <time>2023-01-04T13:18:29Z</time>
      </trkpt>
      <trkpt lat="49.93883" lon="2.3594">
        <ele>95.4</ele>
        <time>2023-01-04T13:18:30Z</time>
      </trkpt>
      <trkpt lat="49.93884" lon="2.35939">
        <ele>95.4</ele>
        <time>2023-01-04T13:18:31Z</time>
      </trkpt>
      <trkpt lat="49.93884" lon="2.35938">
        <ele>95.4</ele>
        <time>2023-01-04T13:18:32Z</time>
      </trkpt>
      <trkpt lat="49.93885" lon="2.35937">
        <ele>95.4</ele>
        <time>2023-01-04T13:18:33Z</time>
      </trkpt>
      <trkpt lat="49.93886" lon="2.35935">
        <ele>95.4</ele>
        <time>2023-01-04T13:18:34Z</time>
      </trkpt>
      <trkpt lat="49.93886" lon="2.35935">
        <ele>95.4</ele>
        <time>2023-01-04T13:18:35Z</time>
      </trkpt>
      <trkpt lat="49.93887" lon="2.35932">
        <ele>95.4</ele>
        <time>2023-01-04T13:18:36Z</time>
      </trkpt>
      <trkpt lat="49.93887" lon="2.35931">
        <ele>95.4</ele>
        <time>2023-01-04T13:18:37Z</time>
      </trkpt>
      <trkpt lat="49.93888" lon="2.35929">
        <ele>95.4</ele>
        <time>2023-01-04T13:18:38Z</time>
      </trkpt>
      <trkpt lat="49.93889" lon="2.35926">
        <ele>95.4</ele>
        <time>2023-01-04T13:18:40Z</time>
      </trkpt>
      <trkpt lat="49.93889" lon="2.35925">
        <ele>95.4</ele>
        <time>2023-01-04T13:18:41Z</time>
      </trkpt>
      <trkpt lat="49.9389" lon="2.35923">
        <ele>95.4</ele>
        <time>2023-01-04T13:18:42Z</time>
      </trkpt>
      <trkpt lat="49.9389" lon="2.35921">
        <ele>95.4</ele>
        <time>2023-01-04T13:18:43Z</time>
      </trkpt>
      <trkpt lat="49.93891" lon="2.35916">
        <ele>95.3</ele>
        <time>2023-01-04T13:18:44Z</time>
      </trkpt>
      <trkpt lat="49.93891" lon="2.35916">
        <ele>95.3</ele>
        <time>2023-01-04T13:18:45Z</time>
      </trkpt>
      <trkpt lat="49.93891" lon="2.35914">
        <ele>95.3</ele>
        <time>2023-01-04T13:18:46Z</time>
      </trkpt>
      <trkpt lat="49.93891" lon="2.35913">
        <ele>95.3</ele>
        <time>2023-01-04T13:18:47Z</time>
      </trkpt>
      <trkpt lat="49.93891" lon="2.35912">
        <ele>95.3</ele>
        <time>2023-01-04T13:18:49Z</time>
      </trkpt>
      <trkpt lat="49.93891" lon="2.35911">
        <ele>95.3</ele>
        <time>2023-01-04T13:18:50Z</time>
      </trkpt>
      <trkpt lat="49.93891" lon="2.35909">
        <ele>95.3</ele>
        <time>2023-01-04T13:18:51Z</time>
      </trkpt>
      <trkpt lat="49.93892" lon="2.35908">
        <ele>95.3</ele>
        <time>2023-01-04T13:18:52Z</time>
      </trkpt>
      <trkpt lat="49.93892" lon="2.35906">
        <ele>95.3</ele>
        <time>2023-01-04T13:18:53Z</time>
      </trkpt>
      <trkpt lat="49.93892" lon="2.35903">
        <ele>95.3</ele>
        <time>2023-01-04T13:18:54Z</time>
      </trkpt>
      <trkpt lat="49.93892" lon="2.35901">
        <ele>95.3</ele>
        <time>2023-01-04T13:18:56Z</time>
      </trkpt>
      <trkpt lat="49.93893" lon="2.35899">
        <ele>95.3</ele>
        <time>2023-01-04T13:18:57Z</time>
      </trkpt>
      <trkpt lat="49.93894" lon="2.35897">
        <ele>95.3</ele>
        <time>2023-01-04T13:18:58Z</time>
      </trkpt>
      <trkpt lat="49.93894" lon="2.3589">
        <ele>95.3</ele>
        <time>2023-01-04T13:18:59Z</time>
      </trkpt>
      <trkpt lat="49.93893" lon="2.35889">
        <ele>95.3</ele>
        <time>2023-01-04T13:19:00Z</time>
      </trkpt>
      <trkpt lat="49.93894" lon="2.35887">
        <ele>95.3</ele>
        <time>2023-01-04T13:19:01Z</time>
      </trkpt>
      <trkpt lat="49.93894" lon="2.35885">
        <ele>95.2</ele>
        <time>2023-01-04T13:19:02Z</time>
      </trkpt>
      <trkpt lat="49.93895" lon="2.35883">
        <ele>95.2</ele>
        <time>2023-01-04T13:19:03Z</time>
      </trkpt>
      <trkpt lat="49.93895" lon="2.3588">
        <ele>95.2</ele>
        <time>2023-01-04T13:19:04Z</time>
      </trkpt>
      <trkpt lat="49.93896" lon="2.35877">
        <ele>95.2</ele>
        <time>2023-01-04T13:19:06Z</time>
      </trkpt>
      <trkpt lat="49.93896" lon="2.35876">
        <ele>95.2</ele>
        <time>2023-01-04T13:19:07Z</time>
      </trkpt>
      <trkpt lat="49.93897" lon="2.35874">
        <ele>95.2</ele>
        <time>2023-01-04T13:19:08Z</time>
      </trkpt>
      <trkpt lat="49.93898" lon="2.35871">
        <ele>95.2</ele>
        <time>2023-01-04T13:19:09Z</time>
      </trkpt>
      <trkpt lat="49.93898" lon="2.35872">
        <ele>95.1</ele>
        <time>2023-01-04T13:19:10Z</time>
      </trkpt>
      <trkpt lat="49.93899" lon="2.35872">
        <ele>95.1</ele>
        <time>2023-01-04T13:19:11Z</time>
      </trkpt>
      <trkpt lat="49.939" lon="2.3587">
        <ele>95.1</ele>
        <time>2023-01-04T13:19:12Z</time>
      </trkpt>
      <trkpt lat="49.93901" lon="2.35869">
        <ele>95.1</ele>
        <time>2023-01-04T13:19:13Z</time>
      </trkpt>
      <trkpt lat="49.93901" lon="2.35868">
        <ele>95.1</ele>
        <time>2023-01-04T13:19:15Z</time>
      </trkpt>
      <trkpt lat="49.93901" lon="2.35867">
        <ele>95.1</ele>
        <time>2023-01-04T13:19:16Z</time>
      </trkpt>
      <trkpt lat="49.93902" lon="2.35865">
        <ele>95.1</ele>
        <time>2023-01-04T13:19:17Z</time>
      </trkpt>
      <trkpt lat="49.93903" lon="2.35863">
        <ele>95.1</ele>
        <time>2023-01-04T13:19:19Z</time>
      </trkpt>
      <trkpt lat="49.93904" lon="2.3586">
        <ele>95</ele>
        <time>2023-01-04T13:19:20Z</time>
      </trkpt>
      <trkpt lat="49.93904" lon="2.35859">
        <ele>95</ele>
        <time>2023-01-04T13:19:21Z</time>
      </trkpt>
      <trkpt lat="49.93905" lon="2.35855">
        <ele>95</ele>
        <time>2023-01-04T13:19:22Z</time>
      </trkpt>
      <trkpt lat="49.93906" lon="2.35854">
        <ele>95</ele>
        <time>2023-01-04T13:19:23Z</time>
      </trkpt>
      <trkpt lat="49.93907" lon="2.35852">
        <ele>95</ele>
        <time>2023-01-04T13:19:24Z</time>
      </trkpt>
      <trkpt lat="49.93908" lon="2.35852">
        <ele>95</ele>
        <time>2023-01-04T13:19:26Z</time>
      </trkpt>
      <trkpt lat="49.93908" lon="2.35851">
        <ele>94.9</ele>
        <time>2023-01-04T13:19:27Z</time>
      </trkpt>
      <trkpt lat="49.93909" lon="2.3585">
        <ele>94.9</ele>
        <time>2023-01-04T13:19:28Z</time>
      </trkpt>
      <trkpt lat="49.93911" lon="2.35848">
        <ele>94.9</ele>
        <time>2023-01-04T13:19:29Z</time>
      </trkpt>
      <trkpt lat="49.93911" lon="2.35847">
        <ele>94.9</ele>
        <time>2023-01-04T13:19:30Z</time>
      </trkpt>
      <trkpt lat="49.93911" lon="2.35846">
        <ele>94.9</ele>
        <time>2023-01-04T13:19:31Z</time>
      </trkpt>
      <trkpt lat="49.93912" lon="2.35843">
        <ele>94.9</ele>
        <time>2023-01-04T13:19:32Z</time>
      </trkpt>
      <trkpt lat="49.93913" lon="2.35842">
        <ele>94.9</ele>
        <time>2023-01-04T13:19:34Z</time>
      </trkpt>
      <trkpt lat="49.93913" lon="2.35841">
        <ele>94.8</ele>
        <time>2023-01-04T13:19:35Z</time>
      </trkpt>
      <trkpt lat="49.93914" lon="2.35838">
        <ele>94.8</ele>
        <time>2023-01-04T13:19:36Z</time>
      </trkpt>
      <trkpt lat="49.93914" lon="2.35836">
        <ele>94.8</ele>
        <time>2023-01-04T13:19:37Z</time>
      </trkpt>
      <trkpt lat="49.93915" lon="2.35834">
        <ele>94.8</ele>
        <time>2023-01-04T13:19:38Z</time>
      </trkpt>
      <trkpt lat="49.93916" lon="2.35832">
        <ele>94.8</ele>
        <time>2023-01-04T13:19:39Z</time>
      </trkpt>
      <trkpt lat="49.93916" lon="2.3583">
        <ele>94.7</ele>
        <time>2023-01-04T13:19:40Z</time>
      </trkpt>
      <trkpt lat="49.93917" lon="2.35828">
        <ele>94.7</ele>
        <time>2023-01-04T13:19:41Z</time>
      </trkpt>
      <trkpt lat="49.93917" lon="2.35826">
        <ele>94.7</ele>
        <time>2023-01-04T13:19:42Z</time>
      </trkpt>
      <trkpt lat="49.93918" lon="2.35824">
        <ele>94.7</ele>
        <time>2023-01-04T13:19:44Z</time>
      </trkpt>
      <trkpt lat="49.9392" lon="2.3582">
        <ele>94.6</ele>
        <time>2023-01-04T13:19:45Z</time>
      </trkpt>
      <trkpt lat="49.93921" lon="2.35817">
        <ele>94.6</ele>
        <time>2023-01-04T13:19:46Z</time>
      </trkpt>
      <trkpt lat="49.93922" lon="2.35816">
        <ele>94.5</ele>
        <time>2023-01-04T13:19:47Z</time>
      </trkpt>
      <trkpt lat="49.93922" lon="2.35815">
        <ele>94.5</ele>
        <time>2023-01-04T13:19:48Z</time>
      </trkpt>
      <trkpt lat="49.93924" lon="2.35812">
        <ele>94.4</ele>
        <time>2023-01-04T13:19:49Z</time>
      </trkpt>
      <trkpt lat="49.93925" lon="2.3581">
        <ele>94.4</ele>
        <time>2023-01-04T13:19:51Z</time>
      </trkpt>
      <trkpt lat="49.93925" lon="2.35809">
        <ele>94.4</ele>
        <time>2023-01-04T13:19:52Z</time>
      </trkpt>
      <trkpt lat="49.93926" lon="2.35808">
        <ele>94.4</ele>
        <time>2023-01-04T13:19:53Z</time>
      </trkpt>
      <trkpt lat="49.93927" lon="2.35806">
        <ele>94.3</ele>
        <time>2023-01-04T13:19:54Z</time>
      </trkpt>
      <trkpt lat="49.93928" lon="2.35804">
        <ele>94.3</ele>
        <time>2023-01-04T13:19:55Z</time>
      </trkpt>
      <trkpt lat="49.93928" lon="2.35802">
        <ele>94.2</ele>
        <time>2023-01-04T13:19:56Z</time>
      </trkpt>
      <trkpt lat="49.93929" lon="2.35801">
        <ele>94.2</ele>
        <time>2023-01-04T13:19:57Z</time>
      </trkpt>
      <trkpt lat="49.9393" lon="2.35798">
        <ele>94.2</ele>
        <time>2023-01-04T13:19:58Z</time>
      </trkpt>
      <trkpt lat="49.93931" lon="2.35796">
        <ele>94.1</ele>
        <time>2023-01-04T13:19:59Z</time>
      </trkpt>
      <trkpt lat="49.93932" lon="2.35794">
        <ele>94.1</ele>
        <time>2023-01-04T13:20:00Z</time>
      </trkpt>
      <trkpt lat="49.93932" lon="2.35793">
        <ele>94</ele>
        <time>2023-01-04T13:20:02Z</time>
      </trkpt>
      <trkpt lat="49.93933" lon="2.35791">
        <ele>94</ele>
        <time>2023-01-04T13:20:03Z</time>
      </trkpt>
      <trkpt lat="49.93934" lon="2.35789">
        <ele>93.9</ele>
        <time>2023-01-04T13:20:04Z</time>
      </trkpt>
      <trkpt lat="49.93935" lon="2.35787">
        <ele>93.9</ele>
        <time>2023-01-04T13:20:05Z</time>
      </trkpt>
      <trkpt lat="49.93935" lon="2.35786">
        <ele>93.9</ele>
        <time>2023-01-04T13:20:06Z</time>
      </trkpt>
      <trkpt lat="49.93937" lon="2.35784">
        <ele>93.8</ele>
        <time>2023-01-04T13:20:07Z</time>
      </trkpt>
      <trkpt lat="49.93938" lon="2.35783">
        <ele>93.8</ele>
        <time>2023-01-04T13:20:09Z</time>
      </trkpt>
      <trkpt lat="49.93938" lon="2.35782">
        <ele>93.8</ele>
        <time>2023-01-04T13:20:10Z</time>
      </trkpt>
      <trkpt lat="49.9394" lon="2.3578">
        <ele>93.7</ele>
        <time>2023-01-04T13:20:11Z</time>
      </trkpt>
      <trkpt lat="49.93941" lon="2.35779">
        <ele>93.7</ele>
        <time>2023-01-04T13:20:12Z</time>
      </trkpt>
      <trkpt lat="49.93941" lon="2.35778">
        <ele>93.6</ele>
        <time>2023-01-04T13:20:13Z</time>
      </trkpt>
      <trkpt lat="49.93944" lon="2.35775">
        <ele>93.4</ele>
        <time>2023-01-04T13:20:14Z</time>
      </trkpt>
      <trkpt lat="49.93944" lon="2.35774">
        <ele>93.4</ele>
        <time>2023-01-04T13:20:15Z</time>
      </trkpt>
      <trkpt lat="49.93945" lon="2.35773">
        <ele>93.3</ele>
        <time>2023-01-04T13:20:17Z</time>
      </trkpt>
      <trkpt lat="49.93946" lon="2.35772">
        <ele>93.3</ele>
        <time>2023-01-04T13:20:18Z</time>
      </trkpt>
      <trkpt lat="49.93946" lon="2.35771">
        <ele>93.2</ele>
        <time>2023-01-04T13:20:19Z</time>
      </trkpt>
      <trkpt lat="49.93947" lon="2.3577">
        <ele>93.2</ele>
        <time>2023-01-04T13:20:20Z</time>
      </trkpt>
      <trkpt lat="49.93947" lon="2.35769">
        <ele>93.2</ele>
        <time>2023-01-04T13:20:21Z</time>
      </trkpt>
      <trkpt lat="49.93948" lon="2.35768">
        <ele>93.1</ele>
        <time>2023-01-04T13:20:22Z</time>
      </trkpt>
      <trkpt lat="49.93949" lon="2.35767">
        <ele>93.1</ele>
        <time>2023-01-04T13:20:23Z</time>
      </trkpt>
      <trkpt lat="49.93949" lon="2.35767">
        <ele>93</ele>
        <time>2023-01-04T13:20:24Z</time>
      </trkpt>
      <trkpt lat="49.9395" lon="2.35765">
        <ele>93</ele>
        <time>2023-01-04T13:20:25Z</time>
      </trkpt>
      <trkpt lat="49.93951" lon="2.35765">
        <ele>92.9</ele>
        <time>2023-01-04T13:20:27Z</time>
      </trkpt>
      <trkpt lat="49.93952" lon="2.35764">
        <ele>92.9</ele>
        <time>2023-01-04T13:20:28Z</time>
      </trkpt>
      <trkpt lat="49.93952" lon="2.35763">
        <ele>92.8</ele>
        <time>2023-01-04T13:20:29Z</time>
      </trkpt>
      <trkpt lat="49.93954" lon="2.35762">
        <ele>92.8</ele>
        <time>2023-01-04T13:20:30Z</time>
      </trkpt>
      <trkpt lat="49.93955" lon="2.35764">
        <ele>92.7</ele>
        <time>2023-01-04T13:20:32Z</time>
      </trkpt>
      <trkpt lat="49.93955" lon="2.35766">
        <ele>92.6</ele>
        <time>2023-01-04T13:20:33Z</time>
      </trkpt>
      <trkpt lat="49.93954" lon="2.35772">
        <ele>92.4</ele>
        <time>2023-01-04T13:20:35Z</time>
      </trkpt>
      <trkpt lat="49.93954" lon="2.35772">
        <ele>92.4</ele>
        <time>2023-01-04T13:20:36Z</time>
      </trkpt>
      <trkpt lat="49.93954" lon="2.35771">
        <ele>92.4</ele>
        <time>2023-01-04T13:20:37Z</time>
      </trkpt>
      <trkpt lat="49.93954" lon="2.35771">
        <ele>92.4</ele>
        <time>2023-01-04T13:20:39Z</time>
      </trkpt>
      <trkpt lat="49.93955" lon="2.35771">
        <ele>92.4</ele>
        <time>2023-01-04T13:20:40Z</time>
      </trkpt>
      <trkpt lat="49.93955" lon="2.3577">
        <ele>92.3</ele>
        <time>2023-01-04T13:20:41Z</time>
      </trkpt>
      <trkpt lat="49.93956" lon="2.35769">
        <ele>92.3</ele>
        <time>2023-01-04T13:20:42Z</time>
      </trkpt>
      <trkpt lat="49.93957" lon="2.35767">
        <ele>92.2</ele>
        <time>2023-01-04T13:20:43Z</time>
      </trkpt>
      <trkpt lat="49.93958" lon="2.35765">
        <ele>92.1</ele>
        <time>2023-01-04T13:20:44Z</time>
      </trkpt>
      <trkpt lat="49.93959" lon="2.35762">
        <ele>92</ele>
        <time>2023-01-04T13:20:45Z</time>
      </trkpt>
      <trkpt lat="49.93959" lon="2.3576">
        <ele>92</ele>
        <time>2023-01-04T13:20:46Z</time>
      </trkpt>
      <trkpt lat="49.9396" lon="2.35757">
        <ele>91.9</ele>
        <time>2023-01-04T13:20:48Z</time>
      </trkpt>
      <trkpt lat="49.93961" lon="2.35755">
        <ele>91.8</ele>
        <time>2023-01-04T13:20:49Z</time>
      </trkpt>
      <trkpt lat="49.93962" lon="2.35752">
        <ele>91.7</ele>
        <time>2023-01-04T13:20:50Z</time>
      </trkpt>
      <trkpt lat="49.93962" lon="2.3575">
        <ele>91.6</ele>
        <time>2023-01-04T13:20:51Z</time>
      </trkpt>
      <trkpt lat="49.93962" lon="2.35746">
        <ele>91.5</ele>
        <time>2023-01-04T13:20:52Z</time>
      </trkpt>
      <trkpt lat="49.93963" lon="2.35745">
        <ele>91.5</ele>
        <time>2023-01-04T13:20:53Z</time>
      </trkpt>
      <trkpt lat="49.93963" lon="2.35744">
        <ele>91.4</ele>
        <time>2023-01-04T13:20:54Z</time>
      </trkpt>
      <trkpt lat="49.93963" lon="2.3574">
        <ele>91.3</ele>
        <time>2023-01-04T13:20:56Z</time>
      </trkpt>
      <trkpt lat="49.93963" lon="2.35739">
        <ele>91.3</ele>
        <time>2023-01-04T13:20:57Z</time>
      </trkpt>
      <trkpt lat="49.93964" lon="2.35735">
        <ele>91.2</ele>
        <time>2023-01-04T13:20:58Z</time>
      </trkpt>
      <trkpt lat="49.93964" lon="2.35734">
        <ele>91.1</ele>
        <time>2023-01-04T13:21:00Z</time>
      </trkpt>
      <trkpt lat="49.93964" lon="2.35733">
        <ele>91.1</ele>
        <time>2023-01-04T13:21:01Z</time>
      </trkpt>
      <trkpt lat="49.93965" lon="2.35729">
        <ele>91</ele>
        <time>2023-01-04T13:21:02Z</time>
      </trkpt>
      <trkpt lat="49.93966" lon="2.35728">
        <ele>90.9</ele>
        <time>2023-01-04T13:21:03Z</time>
      </trkpt>
      <trkpt lat="49.93966" lon="2.35727">
        <ele>90.9</ele>
        <time>2023-01-04T13:21:04Z</time>
      </trkpt>
      <trkpt lat="49.93967" lon="2.35724">
        <ele>90.8</ele>
        <time>2023-01-04T13:21:05Z</time>
      </trkpt>
      <trkpt lat="49.93967" lon="2.35723">
        <ele>90.8</ele>
        <time>2023-01-04T13:21:06Z</time>
      </trkpt>
      <trkpt lat="49.93968" lon="2.35722">
        <ele>90.7</ele>
        <time>2023-01-04T13:21:08Z</time>
      </trkpt>
      <trkpt lat="49.93968" lon="2.3572">
        <ele>90.7</ele>
        <time>2023-01-04T13:21:09Z</time>
      </trkpt>
      <trkpt lat="49.93969" lon="2.35717">
        <ele>90.6</ele>
        <time>2023-01-04T13:21:10Z</time>
      </trkpt>
      <trkpt lat="49.9397" lon="2.35714">
        <ele>90.5</ele>
        <time>2023-01-04T13:21:11Z</time>
      </trkpt>
      <trkpt lat="49.93971" lon="2.35713">
        <ele>90.5</ele>
        <time>2023-01-04T13:21:12Z</time>
      </trkpt>
      <trkpt lat="49.93971" lon="2.35712">
        <ele>90.4</ele>
        <time>2023-01-04T13:21:13Z</time>
      </trkpt>
      <trkpt lat="49.93972" lon="2.3571">
        <ele>90.4</ele>
        <time>2023-01-04T13:21:14Z</time>
      </trkpt>
      <trkpt lat="49.93973" lon="2.35708">
        <ele>90.3</ele>
        <time>2023-01-04T13:21:15Z</time>
      </trkpt>
      <trkpt lat="49.93973" lon="2.35706">
        <ele>90.3</ele>
        <time>2023-01-04T13:21:16Z</time>
      </trkpt>
      <trkpt lat="49.93974" lon="2.35705">
        <ele>90.2</ele>
        <time>2023-01-04T13:21:18Z</time>
      </trkpt>
      <trkpt lat="49.93974" lon="2.35703">
        <ele>90.2</ele>
        <time>2023-01-04T13:21:19Z</time>
      </trkpt>
      <trkpt lat="49.93975" lon="2.35701">
        <ele>90.1</ele>
        <time>2023-01-04T13:21:20Z</time>
      </trkpt>
      <trkpt lat="49.93975" lon="2.35698">
        <ele>90</ele>
        <time>2023-01-04T13:21:21Z</time>
      </trkpt>
      <trkpt lat="49.93975" lon="2.35697">
        <ele>90</ele>
        <time>2023-01-04T13:21:22Z</time>
      </trkpt>
      <trkpt lat="49.93976" lon="2.35695">
        <ele>89.9</ele>
        <time>2023-01-04T13:21:23Z</time>
      </trkpt>
      <trkpt lat="49.93976" lon="2.35693">
        <ele>89.9</ele>
        <time>2023-01-04T13:21:24Z</time>
      </trkpt>
      <trkpt lat="49.93977" lon="2.3569">
        <ele>89.8</ele>
        <time>2023-01-04T13:21:25Z</time>
      </trkpt>
      <trkpt lat="49.93978" lon="2.35689">
        <ele>89.7</ele>
        <time>2023-01-04T13:21:26Z</time>
      </trkpt>
      <trkpt lat="49.93978" lon="2.35687">
        <ele>89.7</ele>
        <time>2023-01-04T13:21:28Z</time>
      </trkpt>
      <trkpt lat="49.93979" lon="2.35686">
        <ele>89.6</ele>
        <time>2023-01-04T13:21:29Z</time>
      </trkpt>
      <trkpt lat="49.93979" lon="2.35684">
        <ele>89.6</ele>
        <time>2023-01-04T13:21:30Z</time>
      </trkpt>
      <trkpt lat="49.9398" lon="2.35683">
        <ele>89.6</ele>
        <time>2023-01-04T13:21:31Z</time>
      </trkpt>
      <trkpt lat="49.9398" lon="2.35682">
        <ele>89.5</ele>
        <time>2023-01-04T13:21:32Z</time>
      </trkpt>
      <trkpt lat="49.93981" lon="2.3568">
        <ele>89.5</ele>
        <time>2023-01-04T13:21:33Z</time>
      </trkpt>
      <trkpt lat="49.93981" lon="2.35679">
        <ele>89.4</ele>
        <time>2023-01-04T13:21:34Z</time>
      </trkpt>
      <trkpt lat="49.93983" lon="2.35675">
        <ele>89.3</ele>
        <time>2023-01-04T13:21:35Z</time>
      </trkpt>
      <trkpt lat="49.93983" lon="2.35673">
        <ele>89.3</ele>
        <time>2023-01-04T13:21:36Z</time>
      </trkpt>
      <trkpt lat="49.93984" lon="2.35672">
        <ele>89.2</ele>
        <time>2023-01-04T13:21:38Z</time>
      </trkpt>
      <trkpt lat="49.93984" lon="2.35671">
        <ele>89.2</ele>
        <time>2023-01-04T13:21:39Z</time>
      </trkpt>
      <trkpt lat="49.93985" lon="2.35669">
        <ele>89.2</ele>
        <time>2023-01-04T13:21:40Z</time>
      </trkpt>
      <trkpt lat="49.93985" lon="2.35668">
        <ele>89.1</ele>
        <time>2023-01-04T13:21:41Z</time>
      </trkpt>
      <trkpt lat="49.93985" lon="2.35667">
        <ele>89.1</ele>
        <time>2023-01-04T13:21:42Z</time>
      </trkpt>
      <trkpt lat="49.93986" lon="2.35665">
        <ele>89</ele>
        <time>2023-01-04T13:21:43Z</time>
      </trkpt>
      <trkpt lat="49.93986" lon="2.35663">
        <ele>89</ele>
        <time>2023-01-04T13:21:44Z</time>
      </trkpt>
      <trkpt lat="49.93987" lon="2.3566">
        <ele>88.9</ele>
        <time>2023-01-04T13:21:45Z</time>
      </trkpt>
      <trkpt lat="49.93987" lon="2.35659">
        <ele>88.9</ele>
        <time>2023-01-04T13:21:46Z</time>
      </trkpt>
      <trkpt lat="49.93988" lon="2.35656">
        <ele>88.8</ele>
        <time>2023-01-04T13:21:48Z</time>
      </trkpt>
      <trkpt lat="49.93988" lon="2.35654">
        <ele>88.7</ele>
        <time>2023-01-04T13:21:49Z</time>
      </trkpt>
      <trkpt lat="49.93989" lon="2.35653">
        <ele>88.7</ele>
        <time>2023-01-04T13:21:50Z</time>
      </trkpt>
      <trkpt lat="49.93989" lon="2.35651">
        <ele>88.6</ele>
        <time>2023-01-04T13:21:51Z</time>
      </trkpt>
      <trkpt lat="49.9399" lon="2.35649">
        <ele>88.6</ele>
        <time>2023-01-04T13:21:52Z</time>
      </trkpt>
      <trkpt lat="49.9399" lon="2.35646">
        <ele>88.5</ele>
        <time>2023-01-04T13:21:53Z</time>
      </trkpt>
      <trkpt lat="49.93991" lon="2.35644">
        <ele>88.5</ele>
        <time>2023-01-04T13:21:54Z</time>
      </trkpt>
      <trkpt lat="49.93991" lon="2.35643">
        <ele>88.4</ele>
        <time>2023-01-04T13:21:55Z</time>
      </trkpt>
      <trkpt lat="49.93991" lon="2.35642">
        <ele>88.4</ele>
        <time>2023-01-04T13:21:56Z</time>
      </trkpt>
      <trkpt lat="49.93991" lon="2.3564">
        <ele>88.3</ele>
        <time>2023-01-04T13:21:57Z</time>
      </trkpt>
      <trkpt lat="49.93992" lon="2.35639">
        <ele>88.3</ele>
        <time>2023-01-04T13:21:59Z</time>
      </trkpt>
      <trkpt lat="49.93992" lon="2.35637">
        <ele>88.2</ele>
        <time>2023-01-04T13:22:00Z</time>
      </trkpt>
      <trkpt lat="49.93993" lon="2.35634">
        <ele>88.2</ele>
        <time>2023-01-04T13:22:01Z</time>
      </trkpt>
      <trkpt lat="49.93993" lon="2.35632">
        <ele>88.1</ele>
        <time>2023-01-04T13:22:02Z</time>
      </trkpt>
      <trkpt lat="49.93993" lon="2.3563">
        <ele>88.1</ele>
        <time>2023-01-04T13:22:04Z</time>
      </trkpt>
      <trkpt lat="49.93994" lon="2.35628">
        <ele>88</ele>
        <time>2023-01-04T13:22:05Z</time>
      </trkpt>
      <trkpt lat="49.93995" lon="2.35626">
        <ele>88</ele>
        <time>2023-01-04T13:22:06Z</time>
      </trkpt>
      <trkpt lat="49.93995" lon="2.35624">
        <ele>87.9</ele>
        <time>2023-01-04T13:22:07Z</time>
      </trkpt>
      <trkpt lat="49.93995" lon="2.35622">
        <ele>87.9</ele>
        <time>2023-01-04T13:22:08Z</time>
      </trkpt>
      <trkpt lat="49.93996" lon="2.35621">
        <ele>87.8</ele>
        <time>2023-01-04T13:22:09Z</time>
      </trkpt>
      <trkpt lat="49.93996" lon="2.35618">
        <ele>87.8</ele>
        <time>2023-01-04T13:22:11Z</time>
      </trkpt>
      <trkpt lat="49.93997" lon="2.35615">
        <ele>87.7</ele>
        <time>2023-01-04T13:22:12Z</time>
      </trkpt>
      <trkpt lat="49.93997" lon="2.35614">
        <ele>87.7</ele>
        <time>2023-01-04T13:22:13Z</time>
      </trkpt>
      <trkpt lat="49.93997" lon="2.35613">
        <ele>87.6</ele>
        <time>2023-01-04T13:22:14Z</time>
      </trkpt>
      <trkpt lat="49.93997" lon="2.3561">
        <ele>87.6</ele>
        <time>2023-01-04T13:22:15Z</time>
      </trkpt>
      <trkpt lat="49.93997" lon="2.35608">
        <ele>87.5</ele>
        <time>2023-01-04T13:22:16Z</time>
      </trkpt>
      <trkpt lat="49.93998" lon="2.35605">
        <ele>87.5</ele>
        <time>2023-01-04T13:22:17Z</time>
      </trkpt>
      <trkpt lat="49.93998" lon="2.35604">
        <ele>87.4</ele>
        <time>2023-01-04T13:22:18Z</time>
      </trkpt>
      <trkpt lat="49.93999" lon="2.35602">
        <ele>87.4</ele>
        <time>2023-01-04T13:22:20Z</time>
      </trkpt>
      <trkpt lat="49.93999" lon="2.35601">
        <ele>87.4</ele>
        <time>2023-01-04T13:22:21Z</time>
      </trkpt>
      <trkpt lat="49.93999" lon="2.35599">
        <ele>87.3</ele>
        <time>2023-01-04T13:22:22Z</time>
      </trkpt>
      <trkpt lat="49.94" lon="2.35597">
        <ele>87.3</ele>
        <time>2023-01-04T13:22:23Z</time>
      </trkpt>
      <trkpt lat="49.94" lon="2.35594">
        <ele>87.2</ele>
        <time>2023-01-04T13:22:24Z</time>
      </trkpt>
      <trkpt lat="49.94001" lon="2.35593">
        <ele>87.2</ele>
        <time>2023-01-04T13:22:25Z</time>
      </trkpt>
      <trkpt lat="49.94001" lon="2.35591">
        <ele>87.1</ele>
        <time>2023-01-04T13:22:26Z</time>
      </trkpt>
      <trkpt lat="49.94001" lon="2.3559">
        <ele>87.1</ele>
        <time>2023-01-04T13:22:27Z</time>
      </trkpt>
      <trkpt lat="49.94002" lon="2.35588">
        <ele>87.1</ele>
        <time>2023-01-04T13:22:29Z</time>
      </trkpt>
      <trkpt lat="49.94002" lon="2.35586">
        <ele>87</ele>
        <time>2023-01-04T13:22:30Z</time>
      </trkpt>
      <trkpt lat="49.94003" lon="2.35584">
        <ele>87</ele>
        <time>2023-01-04T13:22:31Z</time>
      </trkpt>
      <trkpt lat="49.94003" lon="2.35582">
        <ele>86.9</ele>
        <time>2023-01-04T13:22:32Z</time>
      </trkpt>
      <trkpt lat="49.94003" lon="2.3558">
        <ele>86.9</ele>
        <time>2023-01-04T13:22:33Z</time>
      </trkpt>
      <trkpt lat="49.94004" lon="2.35577">
        <ele>86.8</ele>
        <time>2023-01-04T13:22:34Z</time>
      </trkpt>
      <trkpt lat="49.94004" lon="2.35575">
        <ele>86.8</ele>
        <time>2023-01-04T13:22:35Z</time>
      </trkpt>
      <trkpt lat="49.94005" lon="2.35572">
        <ele>86.7</ele>
        <time>2023-01-04T13:22:36Z</time>
      </trkpt>
      <trkpt lat="49.94006" lon="2.35569">
        <ele>86.6</ele>
        <time>2023-01-04T13:22:37Z</time>
      </trkpt>
      <trkpt lat="49.94006" lon="2.35568">
        <ele>86.6</ele>
        <time>2023-01-04T13:22:39Z</time>
      </trkpt>
      <trkpt lat="49.94006" lon="2.35567">
        <ele>86.6</ele>
        <time>2023-01-04T13:22:40Z</time>
      </trkpt>
      <trkpt lat="49.94007" lon="2.35564">
        <ele>86.5</ele>
        <time>2023-01-04T13:22:41Z</time>
      </trkpt>
      <trkpt lat="49.94007" lon="2.35563">
        <ele>86.5</ele>
        <time>2023-01-04T13:22:42Z</time>
      </trkpt>
      <trkpt lat="49.94008" lon="2.3556">
        <ele>86.4</ele>
        <time>2023-01-04T13:22:43Z</time>
      </trkpt>
      <trkpt lat="49.94008" lon="2.35558">
        <ele>86.4</ele>
        <time>2023-01-04T13:22:44Z</time>
      </trkpt>
      <trkpt lat="49.94008" lon="2.35557">
        <ele>86.4</ele>
        <time>2023-01-04T13:22:45Z</time>
      </trkpt>
      <trkpt lat="49.94009" lon="2.35555">
        <ele>86.3</ele>
        <time>2023-01-04T13:22:46Z</time>
      </trkpt>
      <trkpt lat="49.94009" lon="2.35554">
        <ele>86.3</ele>
        <time>2023-01-04T13:22:47Z</time>
      </trkpt>
      <trkpt lat="49.94009" lon="2.35552">
        <ele>86.2</ele>
        <time>2023-01-04T13:22:49Z</time>
      </trkpt>
      <trkpt lat="49.9401" lon="2.3555">
        <ele>86.2</ele>
        <time>2023-01-04T13:22:50Z</time>
      </trkpt>
      <trkpt lat="49.9401" lon="2.35547">
        <ele>86.1</ele>
        <time>2023-01-04T13:22:51Z</time>
      </trkpt>
      <trkpt lat="49.9401" lon="2.35545">
        <ele>86.1</ele>
        <time>2023-01-04T13:22:52Z</time>
      </trkpt>
      <trkpt lat="49.94011" lon="2.35544">
        <ele>86.1</ele>
        <time>2023-01-04T13:22:53Z</time>
      </trkpt>
      <trkpt lat="49.94011" lon="2.35542">
        <ele>86</ele>
        <time>2023-01-04T13:22:54Z</time>
      </trkpt>
      <trkpt lat="49.94011" lon="2.35539">
        <ele>86</ele>
        <time>2023-01-04T13:22:55Z</time>
      </trkpt>
      <trkpt lat="49.94012" lon="2.35536">
        <ele>85.9</ele>
        <time>2023-01-04T13:22:56Z</time>
      </trkpt>
      <trkpt lat="49.94012" lon="2.35535">
        <ele>85.9</ele>
        <time>2023-01-04T13:22:57Z</time>
      </trkpt>
      <trkpt lat="49.94013" lon="2.35533">
        <ele>85.9</ele>
        <time>2023-01-04T13:22:58Z</time>
      </trkpt>
      <trkpt lat="49.94013" lon="2.35531">
        <ele>85.8</ele>
        <time>2023-01-04T13:23:00Z</time>
      </trkpt>
      <trkpt lat="49.94014" lon="2.35528">
        <ele>85.7</ele>
        <time>2023-01-04T13:23:01Z</time>
      </trkpt>
      <trkpt lat="49.94014" lon="2.35526">
        <ele>85.7</ele>
        <time>2023-01-04T13:23:02Z</time>
      </trkpt>
      <trkpt lat="49.94015" lon="2.35523">
        <ele>85.7</ele>
        <time>2023-01-04T13:23:03Z</time>
      </trkpt>
      <trkpt lat="49.94015" lon="2.35522">
        <ele>85.6</ele>
        <time>2023-01-04T13:23:04Z</time>
      </trkpt>
      <trkpt lat="49.94015" lon="2.35521">
        <ele>85.6</ele>
        <time>2023-01-04T13:23:05Z</time>
      </trkpt>
      <trkpt lat="49.94016" lon="2.35518">
        <ele>85.6</ele>
        <time>2023-01-04T13:23:06Z</time>
      </trkpt>
      <trkpt lat="49.94016" lon="2.35517">
        <ele>85.5</ele>
        <time>2023-01-04T13:23:07Z</time>
      </trkpt>
      <trkpt lat="49.94016" lon="2.35516">
        <ele>85.5</ele>
        <time>2023-01-04T13:23:08Z</time>
      </trkpt>
      <trkpt lat="49.94017" lon="2.35514">
        <ele>85.5</ele>
        <time>2023-01-04T13:23:10Z</time>
      </trkpt>
      <trkpt lat="49.94017" lon="2.35512">
        <ele>85.4</ele>
        <time>2023-01-04T13:23:11Z</time>
      </trkpt>
      <trkpt lat="49.94018" lon="2.35511">
        <ele>85.4</ele>
        <time>2023-01-04T13:23:12Z</time>
      </trkpt>
      <trkpt lat="49.94018" lon="2.35509">
        <ele>85.4</ele>
        <time>2023-01-04T13:23:13Z</time>
      </trkpt>
      <trkpt lat="49.94018" lon="2.35508">
        <ele>85.4</ele>
        <time>2023-01-04T13:23:14Z</time>
      </trkpt>
      <trkpt lat="49.94019" lon="2.35506">
        <ele>85.3</ele>
        <time>2023-01-04T13:23:15Z</time>
      </trkpt>
      <trkpt lat="49.94019" lon="2.35505">
        <ele>85.3</ele>
        <time>2023-01-04T13:23:17Z</time>
      </trkpt>
      <trkpt lat="49.9402" lon="2.35503">
        <ele>85.3</ele>
        <time>2023-01-04T13:23:18Z</time>
      </trkpt>
      <trkpt lat="49.9402" lon="2.35501">
        <ele>85.2</ele>
        <time>2023-01-04T13:23:19Z</time>
      </trkpt>
      <trkpt lat="49.94021" lon="2.355">
        <ele>85.2</ele>
        <time>2023-01-04T13:23:20Z</time>
      </trkpt>
      <trkpt lat="49.94021" lon="2.35498">
        <ele>85.2</ele>
        <time>2023-01-04T13:23:21Z</time>
      </trkpt>
      <trkpt lat="49.94022" lon="2.35497">
        <ele>85.2</ele>
        <time>2023-01-04T13:23:22Z</time>
      </trkpt>
      <trkpt lat="49.94022" lon="2.35496">
        <ele>85.1</ele>
        <time>2023-01-04T13:23:23Z</time>
      </trkpt>
      <trkpt lat="49.94022" lon="2.35494">
        <ele>85.1</ele>
        <time>2023-01-04T13:23:25Z</time>
      </trkpt>
      <trkpt lat="49.94023" lon="2.35492">
        <ele>85.1</ele>
        <time>2023-01-04T13:23:26Z</time>
      </trkpt>
      <trkpt lat="49.94023" lon="2.35491">
        <ele>85.1</ele>
        <time>2023-01-04T13:23:27Z</time>
      </trkpt>
      <trkpt lat="49.94023" lon="2.35489">
        <ele>85</ele>
        <time>2023-01-04T13:23:28Z</time>
      </trkpt>
      <trkpt lat="49.94024" lon="2.35486">
        <ele>85</ele>
        <time>2023-01-04T13:23:29Z</time>
      </trkpt>
      <trkpt lat="49.94024" lon="2.35485">
        <ele>85</ele>
        <time>2023-01-04T13:23:30Z</time>
      </trkpt>
      <trkpt lat="49.94025" lon="2.35483">
        <ele>84.9</ele>
        <time>2023-01-04T13:23:32Z</time>
      </trkpt>
      <trkpt lat="49.94025" lon="2.35481">
        <ele>84.9</ele>
        <time>2023-01-04T13:23:33Z</time>
      </trkpt>
      <trkpt lat="49.94026" lon="2.35479">
        <ele>84.9</ele>
        <time>2023-01-04T13:23:34Z</time>
      </trkpt>
      <trkpt lat="49.94026" lon="2.35478">
        <ele>84.9</ele>
        <time>2023-01-04T13:23:35Z</time>
      </trkpt>
      <trkpt lat="49.94026" lon="2.35476">
        <ele>84.8</ele>
        <time>2023-01-04T13:23:36Z</time>
      </trkpt>
      <trkpt lat="49.94027" lon="2.35475">
        <ele>84.8</ele>
        <time>2023-01-04T13:23:37Z</time>
      </trkpt>
      <trkpt lat="49.94028" lon="2.35472">
        <ele>84.8</ele>
        <time>2023-01-04T13:23:38Z</time>
      </trkpt>
      <trkpt lat="49.94028" lon="2.3547">
        <ele>84.7</ele>
        <time>2023-01-04T13:23:39Z</time>
      </trkpt>
      <trkpt lat="49.94029" lon="2.35469">
        <ele>84.7</ele>
        <time>2023-01-04T13:23:41Z</time>
      </trkpt>
      <trkpt lat="49.94029" lon="2.35467">
        <ele>84.7</ele>
        <time>2023-01-04T13:23:42Z</time>
      </trkpt>
      <trkpt lat="49.94029" lon="2.35466">
        <ele>84.7</ele>
        <time>2023-01-04T13:23:43Z</time>
      </trkpt>
      <trkpt lat="49.9403" lon="2.35464">
        <ele>84.7</ele>
        <time>2023-01-04T13:23:44Z</time>
      </trkpt>
      <trkpt lat="49.9403" lon="2.35463">
        <ele>84.6</ele>
        <time>2023-01-04T13:23:45Z</time>
      </trkpt>
      <trkpt lat="49.9403" lon="2.35461">
        <ele>84.6</ele>
        <time>2023-01-04T13:23:46Z</time>
      </trkpt>
      <trkpt lat="49.94031" lon="2.35459">
        <ele>84.6</ele>
        <time>2023-01-04T13:23:47Z</time>
      </trkpt>
      <trkpt lat="49.94031" lon="2.35458">
        <ele>84.6</ele>
        <time>2023-01-04T13:23:49Z</time>
      </trkpt>
      <trkpt lat="49.94031" lon="2.35455">
        <ele>84.5</ele>
        <time>2023-01-04T13:23:50Z</time>
      </trkpt>
      <trkpt lat="49.94032" lon="2.35453">
        <ele>84.5</ele>
        <time>2023-01-04T13:23:51Z</time>
      </trkpt>
      <trkpt lat="49.94032" lon="2.35452">
        <ele>84.5</ele>
        <time>2023-01-04T13:23:52Z</time>
      </trkpt>
      <trkpt lat="49.94032" lon="2.3545">
        <ele>84.5</ele>
        <time>2023-01-04T13:23:53Z</time>
      </trkpt>
      <trkpt lat="49.94033" lon="2.35447">
        <ele>84.5</ele>
        <time>2023-01-04T13:23:54Z</time>
      </trkpt>
      <trkpt lat="49.94034" lon="2.35446">
        <ele>84.5</ele>
        <time>2023-01-04T13:23:56Z</time>
      </trkpt>
      <trkpt lat="49.94034" lon="2.35445">
        <ele>84.5</ele>
        <time>2023-01-04T13:23:57Z</time>
      </trkpt>
      <trkpt lat="49.94034" lon="2.35443">
        <ele>84.4</ele>
        <time>2023-01-04T13:23:58Z</time>
      </trkpt>
      <trkpt lat="49.94035" lon="2.3544">
        <ele>84.4</ele>
        <time>2023-01-04T13:23:59Z</time>
      </trkpt>
      <trkpt lat="49.94036" lon="2.35439">
        <ele>84.4</ele>
        <time>2023-01-04T13:24:00Z</time>
      </trkpt>
      <trkpt lat="49.94036" lon="2.35438">
        <ele>84.4</ele>
        <time>2023-01-04T13:24:01Z</time>
      </trkpt>
      <trkpt lat="49.94037" lon="2.35436">
        <ele>84.4</ele>
        <time>2023-01-04T13:24:02Z</time>
      </trkpt>
      <trkpt lat="49.94037" lon="2.35434">
        <ele>84.4</ele>
        <time>2023-01-04T13:24:04Z</time>
      </trkpt>
      <trkpt lat="49.94038" lon="2.35432">
        <ele>84.4</ele>
        <time>2023-01-04T13:24:05Z</time>
      </trkpt>
      <trkpt lat="49.94039" lon="2.35431">
        <ele>84.4</ele>
        <time>2023-01-04T13:24:06Z</time>
      </trkpt>
      <trkpt lat="49.94039" lon="2.3543">
        <ele>84.4</ele>
        <time>2023-01-04T13:24:07Z</time>
      </trkpt>
      <trkpt lat="49.9404" lon="2.35428">
        <ele>84.3</ele>
        <time>2023-01-04T13:24:08Z</time>
      </trkpt>
      <trkpt lat="49.94041" lon="2.35426">
        <ele>84.3</ele>
        <time>2023-01-04T13:24:09Z</time>
      </trkpt>
      <trkpt lat="49.94041" lon="2.35425">
        <ele>84.3</ele>
        <time>2023-01-04T13:24:10Z</time>
      </trkpt>
      <trkpt lat="49.94042" lon="2.35424">
        <ele>84.3</ele>
        <time>2023-01-04T13:24:11Z</time>
      </trkpt>
      <trkpt lat="49.94042" lon="2.35422">
        <ele>84.3</ele>
        <time>2023-01-04T13:24:13Z</time>
      </trkpt>
      <trkpt lat="49.94043" lon="2.35421">
        <ele>84.3</ele>
        <time>2023-01-04T13:24:14Z</time>
      </trkpt>
      <trkpt lat="49.94044" lon="2.35419">
        <ele>84.3</ele>
        <time>2023-01-04T13:24:15Z</time>
      </trkpt>
      <trkpt lat="49.94044" lon="2.35418">
        <ele>84.3</ele>
        <time>2023-01-04T13:24:16Z</time>
      </trkpt>
      <trkpt lat="49.94044" lon="2.35417">
        <ele>84.3</ele>
        <time>2023-01-04T13:24:17Z</time>
      </trkpt>
      <trkpt lat="49.94044" lon="2.35416">
        <ele>84.3</ele>
        <time>2023-01-04T13:24:18Z</time>
      </trkpt>
      <trkpt lat="49.94044" lon="2.35416">
        <ele>84.3</ele>
        <time>2023-01-04T13:24:20Z</time>
      </trkpt>
      <trkpt lat="49.94044" lon="2.35416">
        <ele>84.3</ele>
        <time>2023-01-04T13:24:21Z</time>
      </trkpt>
      <trkpt lat="49.94044" lon="2.35415">
        <ele>84.3</ele>
        <time>2023-01-04T13:24:22Z</time>
      </trkpt>
      <trkpt lat="49.94044" lon="2.35416">
        <ele>84.3</ele>
        <time>2023-01-04T13:24:24Z</time>
      </trkpt>
      <trkpt lat="49.94044" lon="2.35415">
        <ele>84.3</ele>
        <time>2023-01-04T13:24:25Z</time>
      </trkpt>
      <trkpt lat="49.94044" lon="2.35416">
        <ele>84.3</ele>
        <time>2023-01-04T13:24:26Z</time>
      </trkpt>
      <trkpt lat="49.94043" lon="2.35416">
        <ele>84.3</ele>
        <time>2023-01-04T13:24:28Z</time>
      </trkpt>
      <trkpt lat="49.94043" lon="2.35416">
        <ele>84.3</ele>
        <time>2023-01-04T13:24:29Z</time>
      </trkpt>
      <trkpt lat="49.94043" lon="2.35416">
        <ele>84.3</ele>
        <time>2023-01-04T13:24:30Z</time>
      </trkpt>
      <trkpt lat="49.94044" lon="2.35416">
        <ele>84.3</ele>
        <time>2023-01-04T13:24:32Z</time>
      </trkpt>
      <trkpt lat="49.94044" lon="2.35416">
        <ele>84.3</ele>
        <time>2023-01-04T13:24:33Z</time>
      </trkpt>
      <trkpt lat="49.94044" lon="2.35415">
        <ele>84.3</ele>
        <time>2023-01-04T13:24:35Z</time>
      </trkpt>
      <trkpt lat="49.94044" lon="2.35415">
        <ele>84.3</ele>
        <time>2023-01-04T13:24:36Z</time>
      </trkpt>
      <trkpt lat="49.94044" lon="2.35415">
        <ele>84.3</ele>
        <time>2023-01-04T13:24:38Z</time>
      </trkpt>
      <trkpt lat="49.94044" lon="2.35415">
        <ele>84.3</ele>
        <time>2023-01-04T13:24:39Z</time>
      </trkpt>
      <trkpt lat="49.94044" lon="2.35415">
        <ele>84.3</ele>
        <time>2023-01-04T13:24:40Z</time>
      </trkpt>
      <trkpt lat="49.94044" lon="2.35414">
        <ele>84.3</ele>
        <time>2023-01-04T13:24:41Z</time>
      </trkpt>
      <trkpt lat="49.94044" lon="2.35414">
        <ele>84.3</ele>
        <time>2023-01-04T13:24:42Z</time>
      </trkpt>
      <trkpt lat="49.94045" lon="2.35413">
        <ele>84.3</ele>
        <time>2023-01-04T13:24:43Z</time>
      </trkpt>
      <trkpt lat="49.94046" lon="2.35411">
        <ele>84.2</ele>
        <time>2023-01-04T13:24:44Z</time>
      </trkpt>
      <trkpt lat="49.94046" lon="2.3541">
        <ele>84.2</ele>
        <time>2023-01-04T13:24:46Z</time>
      </trkpt>
      <trkpt lat="49.94047" lon="2.35409">
        <ele>84.2</ele>
        <time>2023-01-04T13:24:47Z</time>
      </trkpt>
      <trkpt lat="49.94048" lon="2.35408">
        <ele>84.2</ele>
        <time>2023-01-04T13:24:48Z</time>
      </trkpt>
      <trkpt lat="49.94048" lon="2.35407">
        <ele>84.2</ele>
        <time>2023-01-04T13:24:49Z</time>
      </trkpt>
      <trkpt lat="49.94049" lon="2.35405">
        <ele>84.2</ele>
        <time>2023-01-04T13:24:50Z</time>
      </trkpt>
      <trkpt lat="49.9405" lon="2.35403">
        <ele>84.2</ele>
        <time>2023-01-04T13:24:51Z</time>
      </trkpt>
      <trkpt lat="49.94051" lon="2.354">
        <ele>84.2</ele>
        <time>2023-01-04T13:24:53Z</time>
      </trkpt>
      <trkpt lat="49.94051" lon="2.35398">
        <ele>84.1</ele>
        <time>2023-01-04T13:24:54Z</time>
      </trkpt>
      <trkpt lat="49.94052" lon="2.35396">
        <ele>84</ele>
        <time>2023-01-04T13:24:55Z</time>
      </trkpt>
      <trkpt lat="49.94052" lon="2.35392">
        <ele>84</ele>
        <time>2023-01-04T13:24:56Z</time>
      </trkpt>
      <trkpt lat="49.94052" lon="2.35391">
        <ele>83.9</ele>
        <time>2023-01-04T13:24:57Z</time>
      </trkpt>
      <trkpt lat="49.94053" lon="2.3539">
        <ele>83.9</ele>
        <time>2023-01-04T13:24:58Z</time>
      </trkpt>
      <trkpt lat="49.94052" lon="2.35387">
        <ele>83.8</ele>
        <time>2023-01-04T13:24:59Z</time>
      </trkpt>
      <trkpt lat="49.94052" lon="2.35385">
        <ele>83.8</ele>
        <time>2023-01-04T13:25:00Z</time>
      </trkpt>
      <trkpt lat="49.94052" lon="2.35382">
        <ele>83.7</ele>
        <time>2023-01-04T13:25:02Z</time>
      </trkpt>
      <trkpt lat="49.94053" lon="2.35381">
        <ele>83.7</ele>
        <time>2023-01-04T13:25:03Z</time>
      </trkpt>
      <trkpt lat="49.94053" lon="2.3538">
        <ele>83.6</ele>
        <time>2023-01-04T13:25:04Z</time>
      </trkpt>
      <trkpt lat="49.94053" lon="2.35377">
        <ele>83.6</ele>
        <time>2023-01-04T13:25:05Z</time>
      </trkpt>
      <trkpt lat="49.94054" lon="2.35376">
        <ele>83.6</ele>
        <time>2023-01-04T13:25:06Z</time>
      </trkpt>
      <trkpt lat="49.94054" lon="2.35374">
        <ele>83.5</ele>
        <time>2023-01-04T13:25:07Z</time>
      </trkpt>
      <trkpt lat="49.94055" lon="2.35373">
        <ele>83.5</ele>
        <time>2023-01-04T13:25:09Z</time>
      </trkpt>
      <trkpt lat="49.94056" lon="2.3537">
        <ele>83.4</ele>
        <time>2023-01-04T13:25:10Z</time>
      </trkpt>
      <trkpt lat="49.94056" lon="2.35369">
        <ele>83.4</ele>
        <time>2023-01-04T13:25:11Z</time>
      </trkpt>
      <trkpt lat="49.94056" lon="2.35368">
        <ele>83.4</ele>
        <time>2023-01-04T13:25:12Z</time>
      </trkpt>
      <trkpt lat="49.94057" lon="2.35366">
        <ele>83.4</ele>
        <time>2023-01-04T13:25:13Z</time>
      </trkpt>
      <trkpt lat="49.94057" lon="2.35365">
        <ele>83.3</ele>
        <time>2023-01-04T13:25:14Z</time>
      </trkpt>
      <trkpt lat="49.94058" lon="2.35362">
        <ele>83.3</ele>
        <time>2023-01-04T13:25:15Z</time>
      </trkpt>
      <trkpt lat="49.94058" lon="2.35361">
        <ele>83.3</ele>
        <time>2023-01-04T13:25:17Z</time>
      </trkpt>
      <trkpt lat="49.94059" lon="2.35359">
        <ele>83.2</ele>
        <time>2023-01-04T13:25:18Z</time>
      </trkpt>
      <trkpt lat="49.9406" lon="2.35357">
        <ele>83.2</ele>
        <time>2023-01-04T13:25:19Z</time>
      </trkpt>
      <trkpt lat="49.94061" lon="2.35355">
        <ele>83.1</ele>
        <time>2023-01-04T13:25:20Z</time>
      </trkpt>
      <trkpt lat="49.94061" lon="2.35353">
        <ele>83.1</ele>
        <time>2023-01-04T13:25:21Z</time>
      </trkpt>
      <trkpt lat="49.94062" lon="2.35352">
        <ele>83.1</ele>
        <time>2023-01-04T13:25:22Z</time>
      </trkpt>
      <trkpt lat="49.94063" lon="2.3535">
        <ele>83.1</ele>
        <time>2023-01-04T13:25:23Z</time>
      </trkpt>
      <trkpt lat="49.94063" lon="2.35348">
        <ele>83</ele>
        <time>2023-01-04T13:25:25Z</time>
      </trkpt>
      <trkpt lat="49.94064" lon="2.35346">
        <ele>83</ele>
        <time>2023-01-04T13:25:26Z</time>
      </trkpt>
      <trkpt lat="49.94064" lon="2.35345">
        <ele>83</ele>
        <time>2023-01-04T13:25:27Z</time>
      </trkpt>
      <trkpt lat="49.94065" lon="2.35343">
        <ele>83</ele>
        <time>2023-01-04T13:25:28Z</time>
      </trkpt>
      <trkpt lat="49.94066" lon="2.35342">
        <ele>82.9</ele>
        <time>2023-01-04T13:25:29Z</time>
      </trkpt>
      <trkpt lat="49.94066" lon="2.3534">
        <ele>82.9</ele>
        <time>2023-01-04T13:25:30Z</time>
      </trkpt>
      <trkpt lat="49.94067" lon="2.35339">
        <ele>82.9</ele>
        <time>2023-01-04T13:25:31Z</time>
      </trkpt>
      <trkpt lat="49.94067" lon="2.35337">
        <ele>82.9</ele>
        <time>2023-01-04T13:25:32Z</time>
      </trkpt>
      <trkpt lat="49.94068" lon="2.35336">
        <ele>82.9</ele>
        <time>2023-01-04T13:25:34Z</time>
      </trkpt>
      <trkpt lat="49.94068" lon="2.35333">
        <ele>82.8</ele>
        <time>2023-01-04T13:25:35Z</time>
      </trkpt>
      <trkpt lat="49.94069" lon="2.35332">
        <ele>82.8</ele>
        <time>2023-01-04T13:25:36Z</time>
      </trkpt>
      <trkpt lat="49.94069" lon="2.3533">
        <ele>82.8</ele>
        <time>2023-01-04T13:25:37Z</time>
      </trkpt>
      <trkpt lat="49.9407" lon="2.35329">
        <ele>82.8</ele>
        <time>2023-01-04T13:25:38Z</time>
      </trkpt>
      <trkpt lat="49.9407" lon="2.35328">
        <ele>82.8</ele>
        <time>2023-01-04T13:25:39Z</time>
      </trkpt>
      <trkpt lat="49.9407" lon="2.35326">
        <ele>82.7</ele>
        <time>2023-01-04T13:25:41Z</time>
      </trkpt>
      <trkpt lat="49.94071" lon="2.35325">
        <ele>82.7</ele>
        <time>2023-01-04T13:25:42Z</time>
      </trkpt>
      <trkpt lat="49.94071" lon="2.35323">
        <ele>82.7</ele>
        <time>2023-01-04T13:25:43Z</time>
      </trkpt>
      <trkpt lat="49.94072" lon="2.3532">
        <ele>82.7</ele>
        <time>2023-01-04T13:25:44Z</time>
      </trkpt>
      <trkpt lat="49.94072" lon="2.35319">
        <ele>82.7</ele>
        <time>2023-01-04T13:25:45Z</time>
      </trkpt>
      <trkpt lat="49.94073" lon="2.35318">
        <ele>82.6</ele>
        <time>2023-01-04T13:25:46Z</time>
      </trkpt>
      <trkpt lat="49.94073" lon="2.35315">
        <ele>82.6</ele>
        <time>2023-01-04T13:25:47Z</time>
      </trkpt>
      <trkpt lat="49.94074" lon="2.35313">
        <ele>82.6</ele>
        <time>2023-01-04T13:25:49Z</time>
      </trkpt>
      <trkpt lat="49.94074" lon="2.35312">
        <ele>82.6</ele>
        <time>2023-01-04T13:25:50Z</time>
      </trkpt>
      <trkpt lat="49.94074" lon="2.35311">
        <ele>82.6</ele>
        <time>2023-01-04T13:25:51Z</time>
      </trkpt>
      <trkpt lat="49.94075" lon="2.35309">
        <ele>82.5</ele>
        <time>2023-01-04T13:25:52Z</time>
      </trkpt>
      <trkpt lat="49.94075" lon="2.35307">
        <ele>82.5</ele>
        <time>2023-01-04T13:25:53Z</time>
      </trkpt>
      <trkpt lat="49.94076" lon="2.35305">
        <ele>82.5</ele>
        <time>2023-01-04T13:25:54Z</time>
      </trkpt>
      <trkpt lat="49.94076" lon="2.35304">
        <ele>82.5</ele>
        <time>2023-01-04T13:25:55Z</time>
      </trkpt>
      <trkpt lat="49.94076" lon="2.35303">
        <ele>82.5</ele>
        <time>2023-01-04T13:25:56Z</time>
      </trkpt>
      <trkpt lat="49.94077" lon="2.353">
        <ele>82.5</ele>
        <time>2023-01-04T13:25:58Z</time>
      </trkpt>
      <trkpt lat="49.94078" lon="2.35298">
        <ele>82.4</ele>
        <time>2023-01-04T13:25:59Z</time>
      </trkpt>
      <trkpt lat="49.94078" lon="2.35297">
        <ele>82.4</ele>
        <time>2023-01-04T13:26:00Z</time>
      </trkpt>
      <trkpt lat="49.94079" lon="2.35295">
        <ele>82.4</ele>
        <time>2023-01-04T13:26:01Z</time>
      </trkpt>
      <trkpt lat="49.94079" lon="2.35294">
        <ele>82.4</ele>
        <time>2023-01-04T13:26:02Z</time>
      </trkpt>
      <trkpt lat="49.9408" lon="2.35292">
        <ele>82.4</ele>
        <time>2023-01-04T13:26:03Z</time>
      </trkpt>
      <trkpt lat="49.9408" lon="2.35289">
        <ele>82.4</ele>
        <time>2023-01-04T13:26:04Z</time>
      </trkpt>
      <trkpt lat="49.94081" lon="2.35288">
        <ele>82.4</ele>
        <time>2023-01-04T13:26:06Z</time>
      </trkpt>
      <trkpt lat="49.94081" lon="2.35287">
        <ele>82.3</ele>
        <time>2023-01-04T13:26:07Z</time>
      </trkpt>
      <trkpt lat="49.94082" lon="2.35284">
        <ele>82.3</ele>
        <time>2023-01-04T13:26:08Z</time>
      </trkpt>
      <trkpt lat="49.94083" lon="2.35283">
        <ele>82.3</ele>
        <time>2023-01-04T13:26:09Z</time>
      </trkpt>
      <trkpt lat="49.94083" lon="2.35281">
        <ele>82.3</ele>
        <time>2023-01-04T13:26:10Z</time>
      </trkpt>
      <trkpt lat="49.94083" lon="2.3528">
        <ele>82.3</ele>
        <time>2023-01-04T13:26:11Z</time>
      </trkpt>
      <trkpt lat="49.94084" lon="2.35279">
        <ele>82.3</ele>
        <time>2023-01-04T13:26:13Z</time>
      </trkpt>
      <trkpt lat="49.94084" lon="2.35277">
        <ele>82.3</ele>
        <time>2023-01-04T13:26:14Z</time>
      </trkpt>
      <trkpt lat="49.94085" lon="2.35275">
        <ele>82.2</ele>
        <time>2023-01-04T13:26:15Z</time>
      </trkpt>
      <trkpt lat="49.94086" lon="2.35274">
        <ele>82.2</ele>
        <time>2023-01-04T13:26:16Z</time>
      </trkpt>
      <trkpt lat="49.94086" lon="2.35273">
        <ele>82.2</ele>
        <time>2023-01-04T13:26:17Z</time>
      </trkpt>
      <trkpt lat="49.94087" lon="2.35272">
        <ele>82.2</ele>
        <time>2023-01-04T13:26:18Z</time>
      </trkpt>
      <trkpt lat="49.94087" lon="2.3527">
        <ele>82.2</ele>
        <time>2023-01-04T13:26:19Z</time>
      </trkpt>
      <trkpt lat="49.94088" lon="2.35268">
        <ele>82.2</ele>
        <time>2023-01-04T13:26:21Z</time>
      </trkpt>
      <trkpt lat="49.94089" lon="2.35265">
        <ele>82.2</ele>
        <time>2023-01-04T13:26:22Z</time>
      </trkpt>
      <trkpt lat="49.94089" lon="2.35264">
        <ele>82.1</ele>
        <time>2023-01-04T13:26:23Z</time>
      </trkpt>
      <trkpt lat="49.9409" lon="2.35263">
        <ele>82.1</ele>
        <time>2023-01-04T13:26:24Z</time>
      </trkpt>
      <trkpt lat="49.94091" lon="2.3526">
        <ele>82.1</ele>
        <time>2023-01-04T13:26:25Z</time>
      </trkpt>
      <trkpt lat="49.94092" lon="2.35259">
        <ele>82.1</ele>
        <time>2023-01-04T13:26:27Z</time>
      </trkpt>
      <trkpt lat="49.94092" lon="2.35258">
        <ele>82.1</ele>
        <time>2023-01-04T13:26:28Z</time>
      </trkpt>
      <trkpt lat="49.94093" lon="2.35257">
        <ele>82.1</ele>
        <time>2023-01-04T13:26:29Z</time>
      </trkpt>
      <trkpt lat="49.94094" lon="2.35255">
        <ele>82</ele>
        <time>2023-01-04T13:26:30Z</time>
      </trkpt>
      <trkpt lat="49.94094" lon="2.35254">
        <ele>82</ele>
        <time>2023-01-04T13:26:31Z</time>
      </trkpt>
      <trkpt lat="49.94095" lon="2.35253">
        <ele>82</ele>
        <time>2023-01-04T13:26:32Z</time>
      </trkpt>
      <trkpt lat="49.94096" lon="2.35251">
        <ele>82</ele>
        <time>2023-01-04T13:26:33Z</time>
      </trkpt>
      <trkpt lat="49.94097" lon="2.3525">
        <ele>82</ele>
        <time>2023-01-04T13:26:35Z</time>
      </trkpt>
      <trkpt lat="49.94098" lon="2.35248">
        <ele>82</ele>
        <time>2023-01-04T13:26:36Z</time>
      </trkpt>
      <trkpt lat="49.94099" lon="2.35246">
        <ele>81.9</ele>
        <time>2023-01-04T13:26:37Z</time>
      </trkpt>
      <trkpt lat="49.941" lon="2.35245">
        <ele>81.9</ele>
        <time>2023-01-04T13:26:38Z</time>
      </trkpt>
      <trkpt lat="49.941" lon="2.35244">
        <ele>81.9</ele>
        <time>2023-01-04T13:26:39Z</time>
      </trkpt>
      <trkpt lat="49.94101" lon="2.35241">
        <ele>81.9</ele>
        <time>2023-01-04T13:26:40Z</time>
      </trkpt>
      <trkpt lat="49.94102" lon="2.3524">
        <ele>81.9</ele>
        <time>2023-01-04T13:26:41Z</time>
      </trkpt>
      <trkpt lat="49.94103" lon="2.35238">
        <ele>81.8</ele>
        <time>2023-01-04T13:26:43Z</time>
      </trkpt>
      <trkpt lat="49.94104" lon="2.35236">
        <ele>81.8</ele>
        <time>2023-01-04T13:26:44Z</time>
      </trkpt>
      <trkpt lat="49.94104" lon="2.35235">
        <ele>81.8</ele>
        <time>2023-01-04T13:26:45Z</time>
      </trkpt>
      <trkpt lat="49.94105" lon="2.35234">
        <ele>81.8</ele>
        <time>2023-01-04T13:26:46Z</time>
      </trkpt>
      <trkpt lat="49.94105" lon="2.35232">
        <ele>81.8</ele>
        <time>2023-01-04T13:26:47Z</time>
      </trkpt>
      <trkpt lat="49.94106" lon="2.35231">
        <ele>81.8</ele>
        <time>2023-01-04T13:26:48Z</time>
      </trkpt>
      <trkpt lat="49.94107" lon="2.35228">
        <ele>81.7</ele>
        <time>2023-01-04T13:26:49Z</time>
      </trkpt>
      <trkpt lat="49.94108" lon="2.35227">
        <ele>81.7</ele>
        <time>2023-01-04T13:26:51Z</time>
      </trkpt>
      <trkpt lat="49.94109" lon="2.35226">
        <ele>81.7</ele>
        <time>2023-01-04T13:26:52Z</time>
      </trkpt>
      <trkpt lat="49.9411" lon="2.35223">
        <ele>81.7</ele>
        <time>2023-01-04T13:26:53Z</time>
      </trkpt>
      <trkpt lat="49.94111" lon="2.35222">
        <ele>81.7</ele>
        <time>2023-01-04T13:26:54Z</time>
      </trkpt>
      <trkpt lat="49.94111" lon="2.35221">
        <ele>81.7</ele>
        <time>2023-01-04T13:26:55Z</time>
      </trkpt>
      <trkpt lat="49.94112" lon="2.3522">
        <ele>81.6</ele>
        <time>2023-01-04T13:26:56Z</time>
      </trkpt>
      <trkpt lat="49.94113" lon="2.35219">
        <ele>81.6</ele>
        <time>2023-01-04T13:26:57Z</time>
      </trkpt>
      <trkpt lat="49.94114" lon="2.35217">
        <ele>81.6</ele>
        <time>2023-01-04T13:26:59Z</time>
      </trkpt>
      <trkpt lat="49.94115" lon="2.35216">
        <ele>81.6</ele>
        <time>2023-01-04T13:27:00Z</time>
      </trkpt>
      <trkpt lat="49.94116" lon="2.35214">
        <ele>81.6</ele>
        <time>2023-01-04T13:27:01Z</time>
      </trkpt>
      <trkpt lat="49.94117" lon="2.35213">
        <ele>81.6</ele>
        <time>2023-01-04T13:27:02Z</time>
      </trkpt>
      <trkpt lat="49.94117" lon="2.35212">
        <ele>81.5</ele>
        <time>2023-01-04T13:27:03Z</time>
      </trkpt>
      <trkpt lat="49.94118" lon="2.3521">
        <ele>81.5</ele>
        <time>2023-01-04T13:27:04Z</time>
      </trkpt>
      <trkpt lat="49.9412" lon="2.35207">
        <ele>81.5</ele>
        <time>2023-01-04T13:27:05Z</time>
      </trkpt>
      <trkpt lat="49.94121" lon="2.35206">
        <ele>81.5</ele>
        <time>2023-01-04T13:27:06Z</time>
      </trkpt>
      <trkpt lat="49.94121" lon="2.35205">
        <ele>81.5</ele>
        <time>2023-01-04T13:27:08Z</time>
      </trkpt>
      <trkpt lat="49.94122" lon="2.35204">
        <ele>81.5</ele>
        <time>2023-01-04T13:27:09Z</time>
      </trkpt>
      <trkpt lat="49.94122" lon="2.35203">
        <ele>81.5</ele>
        <time>2023-01-04T13:27:10Z</time>
      </trkpt>
      <trkpt lat="49.94123" lon="2.35202">
        <ele>81.4</ele>
        <time>2023-01-04T13:27:11Z</time>
      </trkpt>
      <trkpt lat="49.94124" lon="2.352">
        <ele>81.4</ele>
        <time>2023-01-04T13:27:12Z</time>
      </trkpt>
      <trkpt lat="49.94125" lon="2.35199">
        <ele>81.4</ele>
        <time>2023-01-04T13:27:13Z</time>
      </trkpt>
      <trkpt lat="49.94125" lon="2.35198">
        <ele>81.4</ele>
        <time>2023-01-04T13:27:14Z</time>
      </trkpt>
      <trkpt lat="49.94127" lon="2.35194">
        <ele>81.4</ele>
        <time>2023-01-04T13:27:15Z</time>
      </trkpt>
      <trkpt lat="49.94128" lon="2.35193">
        <ele>81.4</ele>
        <time>2023-01-04T13:27:16Z</time>
      </trkpt>
      <trkpt lat="49.94128" lon="2.35192">
        <ele>81.4</ele>
        <time>2023-01-04T13:27:18Z</time>
      </trkpt>
      <trkpt lat="49.94129" lon="2.35191">
        <ele>81.4</ele>
        <time>2023-01-04T13:27:19Z</time>
      </trkpt>
      <trkpt lat="49.9413" lon="2.35189">
        <ele>81.4</ele>
        <time>2023-01-04T13:27:20Z</time>
      </trkpt>
      <trkpt lat="49.9413" lon="2.35188">
        <ele>81.4</ele>
        <time>2023-01-04T13:27:21Z</time>
      </trkpt>
      <trkpt lat="49.94131" lon="2.35186">
        <ele>81.3</ele>
        <time>2023-01-04T13:27:22Z</time>
      </trkpt>
      <trkpt lat="49.94132" lon="2.35185">
        <ele>81.3</ele>
        <time>2023-01-04T13:27:23Z</time>
      </trkpt>
      <trkpt lat="49.94132" lon="2.35184">
        <ele>81.3</ele>
        <time>2023-01-04T13:27:24Z</time>
      </trkpt>
      <trkpt lat="49.94134" lon="2.35181">
        <ele>81.3</ele>
        <time>2023-01-04T13:27:25Z</time>
      </trkpt>
      <trkpt lat="49.94134" lon="2.3518">
        <ele>81.3</ele>
        <time>2023-01-04T13:27:27Z</time>
      </trkpt>
      <trkpt lat="49.94135" lon="2.35178">
        <ele>81.3</ele>
        <time>2023-01-04T13:27:28Z</time>
      </trkpt>
      <trkpt lat="49.94136" lon="2.35177">
        <ele>81.3</ele>
        <time>2023-01-04T13:27:29Z</time>
      </trkpt>
      <trkpt lat="49.94137" lon="2.35175">
        <ele>81.3</ele>
        <time>2023-01-04T13:27:30Z</time>
      </trkpt>
      <trkpt lat="49.94138" lon="2.35172">
        <ele>81.3</ele>
        <time>2023-01-04T13:27:31Z</time>
      </trkpt>
      <trkpt lat="49.94138" lon="2.35171">
        <ele>81.2</ele>
        <time>2023-01-04T13:27:32Z</time>
      </trkpt>
      <trkpt lat="49.94139" lon="2.35169">
        <ele>81.2</ele>
        <time>2023-01-04T13:27:33Z</time>
      </trkpt>
      <trkpt lat="49.94139" lon="2.35168">
        <ele>81.2</ele>
        <time>2023-01-04T13:27:34Z</time>
      </trkpt>
      <trkpt lat="49.94141" lon="2.35165">
        <ele>81.2</ele>
        <time>2023-01-04T13:27:36Z</time>
      </trkpt>
      <trkpt lat="49.94141" lon="2.35164">
        <ele>81.2</ele>
        <time>2023-01-04T13:27:37Z</time>
      </trkpt>
      <trkpt lat="49.94142" lon="2.35163">
        <ele>81.2</ele>
        <time>2023-01-04T13:27:38Z</time>
      </trkpt>
      <trkpt lat="49.94143" lon="2.3516">
        <ele>81.2</ele>
        <time>2023-01-04T13:27:39Z</time>
      </trkpt>
      <trkpt lat="49.94144" lon="2.35159">
        <ele>81.2</ele>
        <time>2023-01-04T13:27:40Z</time>
      </trkpt>
      <trkpt lat="49.94144" lon="2.35158">
        <ele>81.2</ele>
        <time>2023-01-04T13:27:41Z</time>
      </trkpt>
      <trkpt lat="49.94145" lon="2.35156">
        <ele>81.1</ele>
        <time>2023-01-04T13:27:42Z</time>
      </trkpt>
      <trkpt lat="49.94146" lon="2.35155">
        <ele>81.1</ele>
        <time>2023-01-04T13:27:44Z</time>
      </trkpt>
      <trkpt lat="49.94146" lon="2.35153">
        <ele>81.1</ele>
        <time>2023-01-04T13:27:45Z</time>
      </trkpt>
      <trkpt lat="49.94148" lon="2.35151">
        <ele>81.1</ele>
        <time>2023-01-04T13:27:46Z</time>
      </trkpt>
      <trkpt lat="49.94148" lon="2.3515">
        <ele>81.1</ele>
        <time>2023-01-04T13:27:47Z</time>
      </trkpt>
      <trkpt lat="49.94149" lon="2.35149">
        <ele>81.1</ele>
        <time>2023-01-04T13:27:48Z</time>
      </trkpt>
      <trkpt lat="49.9415" lon="2.35146">
        <ele>81.1</ele>
        <time>2023-01-04T13:27:49Z</time>
      </trkpt>
      <trkpt lat="49.94151" lon="2.35145">
        <ele>81.1</ele>
        <time>2023-01-04T13:27:51Z</time>
      </trkpt>
      <trkpt lat="49.94151" lon="2.35143">
        <ele>81.1</ele>
        <time>2023-01-04T13:27:52Z</time>
      </trkpt>
      <trkpt lat="49.94152" lon="2.35142">
        <ele>81.1</ele>
        <time>2023-01-04T13:27:53Z</time>
      </trkpt>
      <trkpt lat="49.94152" lon="2.35141">
        <ele>81</ele>
        <time>2023-01-04T13:27:54Z</time>
      </trkpt>
      <trkpt lat="49.94153" lon="2.35139">
        <ele>81</ele>
        <time>2023-01-04T13:27:55Z</time>
      </trkpt>
      <trkpt lat="49.94154" lon="2.35138">
        <ele>81</ele>
        <time>2023-01-04T13:27:56Z</time>
      </trkpt>
      <trkpt lat="49.94155" lon="2.35136">
        <ele>81</ele>
        <time>2023-01-04T13:27:58Z</time>
      </trkpt>
      <trkpt lat="49.94156" lon="2.35133">
        <ele>81</ele>
        <time>2023-01-04T13:27:59Z</time>
      </trkpt>
      <trkpt lat="49.94156" lon="2.35132">
        <ele>81</ele>
        <time>2023-01-04T13:28:00Z</time>
      </trkpt>
      <trkpt lat="49.94157" lon="2.35131">
        <ele>81</ele>
        <time>2023-01-04T13:28:01Z</time>
      </trkpt>
      <trkpt lat="49.94157" lon="2.3513">
        <ele>81</ele>
        <time>2023-01-04T13:28:02Z</time>
      </trkpt>
      <trkpt lat="49.94158" lon="2.35128">
        <ele>81</ele>
        <time>2023-01-04T13:28:03Z</time>
      </trkpt>
      <trkpt lat="49.94159" lon="2.35127">
        <ele>81</ele>
        <time>2023-01-04T13:28:04Z</time>
      </trkpt>
      <trkpt lat="49.9416" lon="2.35126">
        <ele>81</ele>
        <time>2023-01-04T13:28:06Z</time>
      </trkpt>
      <trkpt lat="49.9416" lon="2.35125">
        <ele>81</ele>
        <time>2023-01-04T13:28:07Z</time>
      </trkpt>
      <trkpt lat="49.94161" lon="2.35124">
        <ele>81</ele>
        <time>2023-01-04T13:28:08Z</time>
      </trkpt>
      <trkpt lat="49.94162" lon="2.35123">
        <ele>81</ele>
        <time>2023-01-04T13:28:09Z</time>
      </trkpt>
      <trkpt lat="49.94162" lon="2.35121">
        <ele>81</ele>
        <time>2023-01-04T13:28:10Z</time>
      </trkpt>
      <trkpt lat="49.94163" lon="2.35119">
        <ele>81</ele>
        <time>2023-01-04T13:28:11Z</time>
      </trkpt>
      <trkpt lat="49.94163" lon="2.35118">
        <ele>81</ele>
        <time>2023-01-04T13:28:13Z</time>
      </trkpt>
      <trkpt lat="49.94164" lon="2.35117">
        <ele>81</ele>
        <time>2023-01-04T13:28:14Z</time>
      </trkpt>
      <trkpt lat="49.94164" lon="2.35116">
        <ele>81</ele>
        <time>2023-01-04T13:28:15Z</time>
      </trkpt>
      <trkpt lat="49.94165" lon="2.35114">
        <ele>81</ele>
        <time>2023-01-04T13:28:16Z</time>
      </trkpt>
      <trkpt lat="49.94165" lon="2.35113">
        <ele>81</ele>
        <time>2023-01-04T13:28:17Z</time>
      </trkpt>
      <trkpt lat="49.94166" lon="2.35112">
        <ele>81</ele>
        <time>2023-01-04T13:28:18Z</time>
      </trkpt>
      <trkpt lat="49.94166" lon="2.35111">
        <ele>81</ele>
        <time>2023-01-04T13:28:20Z</time>
      </trkpt>
      <trkpt lat="49.94167" lon="2.35109">
        <ele>81</ele>
        <time>2023-01-04T13:28:21Z</time>
      </trkpt>
      <trkpt lat="49.94167" lon="2.35107">
        <ele>81</ele>
        <time>2023-01-04T13:28:22Z</time>
      </trkpt>
      <trkpt lat="49.94168" lon="2.35106">
        <ele>81</ele>
        <time>2023-01-04T13:28:24Z</time>
      </trkpt>
      <trkpt lat="49.94168" lon="2.35105">
        <ele>81</ele>
        <time>2023-01-04T13:28:25Z</time>
      </trkpt>
      <trkpt lat="49.94169" lon="2.35103">
        <ele>80.9</ele>
        <time>2023-01-04T13:28:26Z</time>
      </trkpt>
      <trkpt lat="49.94169" lon="2.35103">
        <ele>80.9</ele>
        <time>2023-01-04T13:28:27Z</time>
      </trkpt>
      <trkpt lat="49.9417" lon="2.35102">
        <ele>80.9</ele>
        <time>2023-01-04T13:28:28Z</time>
      </trkpt>
      <trkpt lat="49.9417" lon="2.35101">
        <ele>80.9</ele>
        <time>2023-01-04T13:28:30Z</time>
      </trkpt>
      <trkpt lat="49.94171" lon="2.35099">
        <ele>80.9</ele>
        <time>2023-01-04T13:28:31Z</time>
      </trkpt>
      <trkpt lat="49.94172" lon="2.35099">
        <ele>80.9</ele>
        <time>2023-01-04T13:28:33Z</time>
      </trkpt>
      <trkpt lat="49.94172" lon="2.35098">
        <ele>80.9</ele>
        <time>2023-01-04T13:28:34Z</time>
      </trkpt>
      <trkpt lat="49.94173" lon="2.35097">
        <ele>80.9</ele>
        <time>2023-01-04T13:28:35Z</time>
      </trkpt>
      <trkpt lat="49.94173" lon="2.35096">
        <ele>80.9</ele>
        <time>2023-01-04T13:28:36Z</time>
      </trkpt>
      <trkpt lat="49.94173" lon="2.35096">
        <ele>80.9</ele>
        <time>2023-01-04T13:28:37Z</time>
      </trkpt>
      <trkpt lat="49.94174" lon="2.35095">
        <ele>80.9</ele>
        <time>2023-01-04T13:28:38Z</time>
      </trkpt>
      <trkpt lat="49.94174" lon="2.35095">
        <ele>80.9</ele>
        <time>2023-01-04T13:28:39Z</time>
      </trkpt>
      <trkpt lat="49.94174" lon="2.35097">
        <ele>80.9</ele>
        <time>2023-01-04T13:28:41Z</time>
      </trkpt>
      <trkpt lat="49.94174" lon="2.35099">
        <ele>80.9</ele>
        <time>2023-01-04T13:28:42Z</time>
      </trkpt>
      <trkpt lat="49.94174" lon="2.351">
        <ele>80.9</ele>
        <time>2023-01-04T13:28:43Z</time>
      </trkpt>
      <trkpt lat="49.94173" lon="2.35101">
        <ele>80.9</ele>
        <time>2023-01-04T13:28:45Z</time>
      </trkpt>
      <trkpt lat="49.94173" lon="2.35102">
        <ele>80.9</ele>
        <time>2023-01-04T13:28:46Z</time>
      </trkpt>
      <trkpt lat="49.94173" lon="2.35102">
        <ele>80.9</ele>
        <time>2023-01-04T13:28:47Z</time>
      </trkpt>
      <trkpt lat="49.94173" lon="2.35103">
        <ele>80.9</ele>
        <time>2023-01-04T13:28:49Z</time>
      </trkpt>
      <trkpt lat="49.94173" lon="2.35103">
        <ele>80.9</ele>
        <time>2023-01-04T13:28:50Z</time>
      </trkpt>
      <trkpt lat="49.94173" lon="2.35103">
        <ele>80.9</ele>
        <time>2023-01-04T13:28:51Z</time>
      </trkpt>
      <trkpt lat="49.94173" lon="2.35104">
        <ele>80.9</ele>
        <time>2023-01-04T13:28:53Z</time>
      </trkpt>
      <trkpt lat="49.94173" lon="2.35104">
        <ele>80.9</ele>
        <time>2023-01-04T13:28:54Z</time>
      </trkpt>
      <trkpt lat="49.94173" lon="2.35104">
        <ele>80.9</ele>
        <time>2023-01-04T13:28:56Z</time>
      </trkpt>
      <trkpt lat="49.94173" lon="2.35104">
        <ele>80.9</ele>
        <time>2023-01-04T13:28:57Z</time>
      </trkpt>
      <trkpt lat="49.94173" lon="2.35104">
        <ele>80.9</ele>
        <time>2023-01-04T13:28:58Z</time>
      </trkpt>
      <trkpt lat="49.94173" lon="2.35104">
        <ele>80.9</ele>
        <time>2023-01-04T13:28:59Z</time>
      </trkpt>
      <trkpt lat="49.94173" lon="2.35104">
        <ele>80.9</ele>
        <time>2023-01-04T13:29:00Z</time>
      </trkpt>
      <trkpt lat="49.94173" lon="2.35104">
        <ele>80.9</ele>
        <time>2023-01-04T13:29:01Z</time>
      </trkpt>
      <trkpt lat="49.94173" lon="2.35104">
        <ele>80.9</ele>
        <time>2023-01-04T13:29:02Z</time>
      </trkpt>
      <trkpt lat="49.94173" lon="2.35104">
        <ele>80.9</ele>
        <time>2023-01-04T13:29:03Z</time>
      </trkpt>
      <trkpt lat="49.94173" lon="2.35104">
        <ele>80.9</ele>
        <time>2023-01-04T13:29:04Z</time>
      </trkpt>
      <trkpt lat="49.94173" lon="2.35104">
        <ele>80.9</ele>
        <time>2023-01-04T13:29:05Z</time>
      </trkpt>
      <trkpt lat="49.94173" lon="2.35104">
        <ele>80.9</ele>
        <time>2023-01-04T13:29:06Z</time>
      </trkpt>
      <trkpt lat="49.94173" lon="2.35104">
        <ele>80.9</ele>
        <time>2023-01-04T13:29:07Z</time>
      </trkpt>
      <trkpt lat="49.94173" lon="2.35104">
        <ele>80.9</ele>
        <time>2023-01-04T13:29:08Z</time>
      </trkpt>
      <trkpt lat="49.94173" lon="2.35104">
        <ele>80.9</ele>
        <time>2023-01-04T13:29:09Z</time>
      </trkpt>
      <trkpt lat="49.94173" lon="2.35104">
        <ele>80.9</ele>
        <time>2023-01-04T13:29:10Z</time>
      </trkpt>
      <trkpt lat="49.94173" lon="2.35104">
        <ele>80.9</ele>
        <time>2023-01-04T13:29:11Z</time>
      </trkpt>
      <trkpt lat="49.94173" lon="2.35104">
        <ele>80.9</ele>
        <time>2023-01-04T13:29:12Z</time>
      </trkpt>
      <trkpt lat="49.94173" lon="2.35104">
        <ele>80.9</ele>
        <time>2023-01-04T13:29:13Z</time>
      </trkpt>
      <trkpt lat="49.94173" lon="2.35104">
        <ele>80.9</ele>
        <time>2023-01-04T13:29:14Z</time>
      </trkpt>
      <trkpt lat="49.94173" lon="2.35104">
        <ele>80.9</ele>
        <time>2023-01-04T13:29:15Z</time>
      </trkpt>
      <trkpt lat="49.94173" lon="2.35104">
        <ele>80.9</ele>
        <time>2023-01-04T13:29:16Z</time>
      </trkpt>
      <trkpt lat="49.94173" lon="2.35104">
        <ele>80.9</ele>
        <time>2023-01-04T13:29:17Z</time>
      </trkpt>
      <trkpt lat="49.94173" lon="2.35104">
        <ele>80.9</ele>
        <time>2023-01-04T13:29:18Z</time>
      </trkpt>
      <trkpt lat="49.94173" lon="2.35104">
        <ele>80.9</ele>
        <time>2023-01-04T13:29:19Z</time>
      </trkpt>
      <trkpt lat="49.94173" lon="2.35104">
        <ele>80.9</ele>
        <time>2023-01-04T13:29:20Z</time>
      </trkpt>
      <trkpt lat="49.94173" lon="2.35104">
        <ele>80.9</ele>
        <time>2023-01-04T13:29:21Z</time>
      </trkpt>
      <trkpt lat="49.94173" lon="2.35104">
        <ele>80.9</ele>
        <time>2023-01-04T13:29:22Z</time>
      </trkpt>
      <trkpt lat="49.94173" lon="2.35104">
        <ele>80.9</ele>
        <time>2023-01-04T13:29:23Z</time>
      </trkpt>
      <trkpt lat="49.94173" lon="2.35104">
        <ele>80.9</ele>
        <time>2023-01-04T13:29:24Z</time>
      </trkpt>
      <trkpt lat="49.94173" lon="2.35104">
        <ele>80.9</ele>
        <time>2023-01-04T13:29:25Z</time>
      </trkpt>
      <trkpt lat="49.94173" lon="2.35104">
        <ele>80.9</ele>
        <time>2023-01-04T13:29:26Z</time>
      </trkpt>
      <trkpt lat="49.94173" lon="2.35104">
        <ele>80.9</ele>
        <time>2023-01-04T13:29:27Z</time>
      </trkpt>
      <trkpt lat="49.94173" lon="2.35104">
        <ele>80.9</ele>
        <time>2023-01-04T13:29:28Z</time>
      </trkpt>
      <trkpt lat="49.94173" lon="2.35104">
        <ele>80.9</ele>
        <time>2023-01-04T13:29:29Z</time>
      </trkpt>
      <trkpt lat="49.94173" lon="2.35104">
        <ele>80.9</ele>
        <time>2023-01-04T13:29:30Z</time>
      </trkpt>
      <trkpt lat="49.94173" lon="2.35104">
        <ele>80.9</ele>
        <time>2023-01-04T13:29:31Z</time>
      </trkpt>
      <trkpt lat="49.94173" lon="2.35104">
        <ele>80.9</ele>
        <time>2023-01-04T13:29:32Z</time>
      </trkpt>
      <trkpt lat="49.94173" lon="2.35104">
        <ele>80.9</ele>
        <time>2023-01-04T13:29:33Z</time>
      </trkpt>
      <trkpt lat="49.94173" lon="2.35104">
        <ele>80.9</ele>
        <time>2023-01-04T13:29:34Z</time>
      </trkpt>
      <trkpt lat="49.94173" lon="2.35104">
        <ele>80.9</ele>
        <time>2023-01-04T13:29:35Z</time>
      </trkpt>
      <trkpt lat="49.94173" lon="2.35104">
        <ele>80.9</ele>
        <time>2023-01-04T13:29:36Z</time>
      </trkpt>
      <trkpt lat="49.94173" lon="2.35104">
        <ele>80.9</ele>
        <time>2023-01-04T13:29:37Z</time>
      </trkpt>
      <trkpt lat="49.94173" lon="2.35104">
        <ele>80.9</ele>
        <time>2023-01-04T13:29:38Z</time>
      </trkpt>
      <trkpt lat="49.94173" lon="2.35104">
        <ele>80.9</ele>
        <time>2023-01-04T13:29:39Z</time>
      </trkpt>
      <trkpt lat="49.94173" lon="2.35104">
        <ele>80.9</ele>
        <time>2023-01-04T13:29:40Z</time>
      </trkpt>
      <trkpt lat="49.94173" lon="2.35104">
        <ele>80.9</ele>
        <time>2023-01-04T13:29:41Z</time>
      </trkpt>
      <trkpt lat="49.94173" lon="2.35104">
        <ele>80.9</ele>
        <time>2023-01-04T13:29:42Z</time>
      </trkpt>
      <trkpt lat="49.94173" lon="2.35104">
        <ele>80.9</ele>
        <time>2023-01-04T13:29:43Z</time>
      </trkpt>
      <trkpt lat="49.94173" lon="2.35104">
        <ele>80.9</ele>
        <time>2023-01-04T13:29:44Z</time>
      </trkpt>
      <trkpt lat="49.94173" lon="2.35104">
        <ele>80.9</ele>
        <time>2023-01-04T13:29:45Z</time>
      </trkpt>
      <trkpt lat="49.94173" lon="2.35104">
        <ele>80.9</ele>
        <time>2023-01-04T13:29:46Z</time>
      </trkpt>
      <trkpt lat="49.94173" lon="2.35104">
        <ele>80.9</ele>
        <time>2023-01-04T13:29:47Z</time>
      </trkpt>
      <trkpt lat="49.94173" lon="2.35104">
        <ele>80.9</ele>
        <time>2023-01-04T13:29:48Z</time>
      </trkpt>
      <trkpt lat="49.94173" lon="2.35104">
        <ele>80.9</ele>
        <time>2023-01-04T13:29:49Z</time>
      </trkpt>
      <trkpt lat="49.94173" lon="2.35104">
        <ele>80.9</ele>
        <time>2023-01-04T13:29:50Z</time>
      </trkpt>
      <trkpt lat="49.94173" lon="2.35104">
        <ele>80.9</ele>
        <time>2023-01-04T13:29:51Z</time>
      </trkpt>
      <trkpt lat="49.94173" lon="2.35104">
        <ele>80.9</ele>
        <time>2023-01-04T13:29:52Z</time>
      </trkpt>
      <trkpt lat="49.94173" lon="2.35104">
        <ele>80.9</ele>
        <time>2023-01-04T13:29:53Z</time>
      </trkpt>
      <trkpt lat="49.94173" lon="2.35104">
        <ele>80.9</ele>
        <time>2023-01-04T13:29:54Z</time>
      </trkpt>
      <trkpt lat="49.94173" lon="2.35104">
        <ele>80.9</ele>
        <time>2023-01-04T13:29:55Z</time>
      </trkpt>
      <trkpt lat="49.94173" lon="2.35104">
        <ele>80.9</ele>
        <time>2023-01-04T13:29:56Z</time>
      </trkpt>
      <trkpt lat="49.94173" lon="2.35104">
        <ele>80.9</ele>
        <time>2023-01-04T13:29:57Z</time>
      </trkpt>
      <trkpt lat="49.94173" lon="2.35104">
        <ele>80.9</ele>
        <time>2023-01-04T13:29:58Z</time>
      </trkpt>
      <trkpt lat="49.94173" lon="2.35104">
        <ele>80.9</ele>
        <time>2023-01-04T13:29:59Z</time>
      </trkpt>
      <trkpt lat="49.94173" lon="2.35104">
        <ele>80.9</ele>
        <time>2023-01-04T13:30:00Z</time>
      </trkpt>
      <trkpt lat="49.94173" lon="2.35104">
        <ele>80.9</ele>
        <time>2023-01-04T13:30:01Z</time>
      </trkpt>
      <trkpt lat="49.94173" lon="2.35104">
        <ele>80.9</ele>
        <time>2023-01-04T13:30:02Z</time>
      </trkpt>
      <trkpt lat="49.94173" lon="2.35104">
        <ele>80.9</ele>
        <time>2023-01-04T13:30:03Z</time>
      </trkpt>
      <trkpt lat="49.94173" lon="2.35104">
        <ele>80.9</ele>
        <time>2023-01-04T13:30:04Z</time>
      </trkpt>
      <trkpt lat="49.94173" lon="2.35104">
        <ele>80.9</ele>
        <time>2023-01-04T13:30:05Z</time>
      </trkpt>
      <trkpt lat="49.94173" lon="2.35104">
        <ele>80.9</ele>
        <time>2023-01-04T13:30:06Z</time>
      </trkpt>
      <trkpt lat="49.94173" lon="2.35104">
        <ele>80.9</ele>
        <time>2023-01-04T13:30:07Z</time>
      </trkpt>
      <trkpt lat="49.94173" lon="2.35104">
        <ele>80.9</ele>
        <time>2023-01-04T13:30:08Z</time>
      </trkpt>
      <trkpt lat="49.94173" lon="2.35104">
        <ele>80.9</ele>
        <time>2023-01-04T13:30:09Z</time>
      </trkpt>
      <trkpt lat="49.94173" lon="2.35104">
        <ele>80.9</ele>
        <time>2023-01-04T13:30:10Z</time>
      </trkpt>
      <trkpt lat="49.94173" lon="2.35104">
        <ele>80.9</ele>
        <time>2023-01-04T13:30:11Z</time>
      </trkpt>
      <trkpt lat="49.94173" lon="2.35104">
        <ele>80.9</ele>
        <time>2023-01-04T13:30:12Z</time>
      </trkpt>
      <trkpt lat="49.94173" lon="2.35104">
        <ele>80.9</ele>
        <time>2023-01-04T13:30:13Z</time>
      </trkpt>
      <trkpt lat="49.94173" lon="2.35104">
        <ele>80.9</ele>
        <time>2023-01-04T13:30:14Z</time>
      </trkpt>
      <trkpt lat="49.94173" lon="2.35104">
        <ele>80.9</ele>
        <time>2023-01-04T13:30:15Z</time>
      </trkpt>
      <trkpt lat="49.94173" lon="2.35104">
        <ele>80.9</ele>
        <time>2023-01-04T13:30:16Z</time>
      </trkpt>
      <trkpt lat="49.94173" lon="2.35104">
        <ele>80.9</ele>
        <time>2023-01-04T13:30:17Z</time>
      </trkpt>
      <trkpt lat="49.94173" lon="2.35104">
        <ele>80.9</ele>
        <time>2023-01-04T13:30:18Z</time>
      </trkpt>
      <trkpt lat="49.94173" lon="2.35104">
        <ele>80.9</ele>
        <time>2023-01-04T13:30:19Z</time>
      </trkpt>
      <trkpt lat="49.94173" lon="2.35104">
        <ele>80.9</ele>
        <time>2023-01-04T13:30:20Z</time>
      </trkpt>
      <trkpt lat="49.94173" lon="2.35104">
        <ele>80.9</ele>
        <time>2023-01-04T13:30:21Z</time>
      </trkpt>
      <trkpt lat="49.94173" lon="2.35104">
        <ele>80.9</ele>
        <time>2023-01-04T13:30:22Z</time>
      </trkpt>
      <trkpt lat="49.94173" lon="2.35104">
        <ele>80.9</ele>
        <time>2023-01-04T13:30:23Z</time>
      </trkpt>
      <trkpt lat="49.94172" lon="2.35105">
        <ele>80.9</ele>
        <time>2023-01-04T13:30:24Z</time>
      </trkpt>
      <trkpt lat="49.94172" lon="2.35106">
        <ele>80.9</ele>
        <time>2023-01-04T13:30:25Z</time>
      </trkpt>
      <trkpt lat="49.94172" lon="2.35106">
        <ele>80.9</ele>
        <time>2023-01-04T13:30:26Z</time>
      </trkpt>
      <trkpt lat="49.94172" lon="2.35106">
        <ele>80.9</ele>
        <time>2023-01-04T13:30:27Z</time>
      </trkpt>
      <trkpt lat="49.94172" lon="2.35106">
        <ele>80.9</ele>
        <time>2023-01-04T13:30:28Z</time>
      </trkpt>
      <trkpt lat="49.94173" lon="2.35106">
        <ele>80.9</ele>
        <time>2023-01-04T13:30:29Z</time>
      </trkpt>
      <trkpt lat="49.94173" lon="2.35106">
        <ele>80.9</ele>
        <time>2023-01-04T13:30:30Z</time>
      </trkpt>
      <trkpt lat="49.94173" lon="2.35106">
        <ele>80.9</ele>
        <time>2023-01-04T13:30:31Z</time>
      </trkpt>
      <trkpt lat="49.94173" lon="2.35106">
        <ele>80.9</ele>
        <time>2023-01-04T13:30:32Z</time>
      </trkpt>
      <trkpt lat="49.94173" lon="2.35106">
        <ele>80.9</ele>
        <time>2023-01-04T13:30:33Z</time>
      </trkpt>
      <trkpt lat="49.94173" lon="2.35105">
        <ele>80.9</ele>
        <time>2023-01-04T13:30:34Z</time>
      </trkpt>
      <trkpt lat="49.94173" lon="2.35105">
        <ele>80.9</ele>
        <time>2023-01-04T13:30:35Z</time>
      </trkpt>
      <trkpt lat="49.94174" lon="2.35105">
        <ele>80.9</ele>
        <time>2023-01-04T13:30:36Z</time>
      </trkpt>
      <trkpt lat="49.94174" lon="2.35105">
        <ele>80.9</ele>
        <time>2023-01-04T13:30:37Z</time>
      </trkpt>
      <trkpt lat="49.94174" lon="2.35105">
        <ele>80.9</ele>
        <time>2023-01-04T13:30:38Z</time>
      </trkpt>
      <trkpt lat="49.94174" lon="2.35105">
        <ele>80.9</ele>
        <time>2023-01-04T13:30:39Z</time>
      </trkpt>
      <trkpt lat="49.94174" lon="2.35105">
        <ele>80.9</ele>
        <time>2023-01-04T13:30:40Z</time>
      </trkpt>
      <trkpt lat="49.94174" lon="2.35105">
        <ele>80.9</ele>
        <time>2023-01-04T13:30:41Z</time>
      </trkpt>
      <trkpt lat="49.94174" lon="2.35105">
        <ele>80.9</ele>
        <time>2023-01-04T13:30:42Z</time>
      </trkpt>
      <trkpt lat="49.94174" lon="2.35105">
        <ele>80.9</ele>
        <time>2023-01-04T13:30:43Z</time>
      </trkpt>
      <trkpt lat="49.94175" lon="2.35105">
        <ele>80.9</ele>
        <time>2023-01-04T13:30:44Z</time>
      </trkpt>
      <trkpt lat="49.94175" lon="2.35105">
        <ele>80.9</ele>
        <time>2023-01-04T13:30:45Z</time>
      </trkpt>
      <trkpt lat="49.94175" lon="2.35105">
        <ele>80.9</ele>
        <time>2023-01-04T13:30:46Z</time>
      </trkpt>
      <trkpt lat="49.94175" lon="2.35105">
        <ele>80.9</ele>
        <time>2023-01-04T13:30:47Z</time>
      </trkpt>
      <trkpt lat="49.94175" lon="2.35104">
        <ele>80.9</ele>
        <time>2023-01-04T13:30:48Z</time>
      </trkpt>
      <trkpt lat="49.94175" lon="2.35104">
        <ele>80.9</ele>
        <time>2023-01-04T13:30:49Z</time>
      </trkpt>
      <trkpt lat="49.94175" lon="2.35104">
        <ele>80.9</ele>
        <time>2023-01-04T13:30:50Z</time>
      </trkpt>
      <trkpt lat="49.94176" lon="2.35104">
        <ele>80.9</ele>
        <time>2023-01-04T13:30:51Z</time>
      </trkpt>
      <trkpt lat="49.94176" lon="2.35104">
        <ele>80.9</ele>
        <time>2023-01-04T13:30:52Z</time>
      </trkpt>
      <trkpt lat="49.94176" lon="2.35104">
        <ele>80.9</ele>
        <time>2023-01-04T13:30:53Z</time>
      </trkpt>
      <trkpt lat="49.94176" lon="2.35104">
        <ele>80.9</ele>
        <time>2023-01-04T13:30:54Z</time>
      </trkpt>
      <trkpt lat="49.94176" lon="2.35104">
        <ele>80.9</ele>
        <time>2023-01-04T13:30:55Z</time>
      </trkpt>
      <trkpt lat="49.94176" lon="2.35104">
        <ele>80.9</ele>
        <time>2023-01-04T13:30:56Z</time>
      </trkpt>
      <trkpt lat="49.94176" lon="2.35104">
        <ele>80.9</ele>
        <time>2023-01-04T13:30:57Z</time>
      </trkpt>
      <trkpt lat="49.94176" lon="2.35104">
        <ele>80.9</ele>
        <time>2023-01-04T13:30:58Z</time>
      </trkpt>
      <trkpt lat="49.94177" lon="2.35104">
        <ele>80.9</ele>
        <time>2023-01-04T13:30:59Z</time>
      </trkpt>
      <trkpt lat="49.94177" lon="2.35104">
        <ele>80.9</ele>
        <time>2023-01-04T13:31:00Z</time>
      </trkpt>
      <trkpt lat="49.94177" lon="2.35104">
        <ele>80.9</ele>
        <time>2023-01-04T13:31:01Z</time>
      </trkpt>
      <trkpt lat="49.94177" lon="2.35103">
        <ele>80.9</ele>
        <time>2023-01-04T13:31:02Z</time>
      </trkpt>
      <trkpt lat="49.94177" lon="2.35103">
        <ele>80.9</ele>
        <time>2023-01-04T13:31:03Z</time>
      </trkpt>
      <trkpt lat="49.94177" lon="2.35103">
        <ele>80.9</ele>
        <time>2023-01-04T13:31:04Z</time>
      </trkpt>
      <trkpt lat="49.94177" lon="2.35103">
        <ele>80.9</ele>
        <time>2023-01-04T13:31:06Z</time>
      </trkpt>
      <trkpt lat="49.94178" lon="2.35103">
        <ele>80.9</ele>
        <time>2023-01-04T13:31:07Z</time>
      </trkpt>
      <trkpt lat="49.94178" lon="2.35103">
        <ele>80.9</ele>
        <time>2023-01-04T13:31:09Z</time>
      </trkpt>
      <trkpt lat="49.94178" lon="2.35103">
        <ele>80.9</ele>
        <time>2023-01-04T13:31:10Z</time>
      </trkpt>
      <trkpt lat="49.94178" lon="2.35103">
        <ele>80.9</ele>
        <time>2023-01-04T13:31:11Z</time>
      </trkpt>
      <trkpt lat="49.94178" lon="2.35103">
        <ele>80.9</ele>
        <time>2023-01-04T13:31:12Z</time>
      </trkpt>
      <trkpt lat="49.94179" lon="2.35103">
        <ele>80.9</ele>
        <time>2023-01-04T13:31:13Z</time>
      </trkpt>
      <trkpt lat="49.9418" lon="2.35103">
        <ele>80.9</ele>
        <time>2023-01-04T13:31:14Z</time>
      </trkpt>
      <trkpt lat="49.94181" lon="2.35103">
        <ele>80.9</ele>
        <time>2023-01-04T13:31:15Z</time>
      </trkpt>
      <trkpt lat="49.94182" lon="2.35102">
        <ele>80.9</ele>
        <time>2023-01-04T13:31:17Z</time>
      </trkpt>
      <trkpt lat="49.94183" lon="2.35102">
        <ele>80.9</ele>
        <time>2023-01-04T13:31:18Z</time>
      </trkpt>
      <trkpt lat="49.94184" lon="2.35102">
        <ele>80.9</ele>
        <time>2023-01-04T13:31:19Z</time>
      </trkpt>
      <trkpt lat="49.94185" lon="2.35102">
        <ele>80.9</ele>
        <time>2023-01-04T13:31:20Z</time>
      </trkpt>
      <trkpt lat="49.94185" lon="2.35102">
        <ele>80.9</ele>
        <time>2023-01-04T13:31:21Z</time>
      </trkpt>
      <trkpt lat="49.94186" lon="2.35102">
        <ele>80.9</ele>
        <time>2023-01-04T13:31:22Z</time>
      </trkpt>
      <trkpt lat="49.94187" lon="2.35102">
        <ele>80.9</ele>
        <time>2023-01-04T13:31:23Z</time>
      </trkpt>
      <trkpt lat="49.94189" lon="2.35104">
        <ele>80.9</ele>
        <time>2023-01-04T13:31:25Z</time>
      </trkpt>
      <trkpt lat="49.9419" lon="2.35104">
        <ele>80.9</ele>
        <time>2023-01-04T13:31:26Z</time>
      </trkpt>
      <trkpt lat="49.94191" lon="2.35105">
        <ele>80.8</ele>
        <time>2023-01-04T13:31:27Z</time>
      </trkpt>
      <trkpt lat="49.94192" lon="2.35105">
        <ele>80.8</ele>
        <time>2023-01-04T13:31:28Z</time>
      </trkpt>
      <trkpt lat="49.94193" lon="2.35105">
        <ele>80.8</ele>
        <time>2023-01-04T13:31:29Z</time>
      </trkpt>
      <trkpt lat="49.94194" lon="2.35105">
        <ele>80.8</ele>
        <time>2023-01-04T13:31:30Z</time>
      </trkpt>
      <trkpt lat="49.94195" lon="2.35106">
        <ele>80.8</ele>
        <time>2023-01-04T13:31:31Z</time>
      </trkpt>
      <trkpt lat="49.94197" lon="2.35107">
        <ele>80.8</ele>
        <time>2023-01-04T13:31:32Z</time>
      </trkpt>
      <trkpt lat="49.94197" lon="2.35107">
        <ele>80.8</ele>
        <time>2023-01-04T13:31:34Z</time>
      </trkpt>
      <trkpt lat="49.94198" lon="2.35107">
        <ele>80.8</ele>
        <time>2023-01-04T13:31:35Z</time>
      </trkpt>
      <trkpt lat="49.94199" lon="2.35108">
        <ele>80.8</ele>
        <time>2023-01-04T13:31:36Z</time>
      </trkpt>
      <trkpt lat="49.942" lon="2.35108">
        <ele>80.8</ele>
        <time>2023-01-04T13:31:37Z</time>
      </trkpt>
      <trkpt lat="49.94201" lon="2.35109">
        <ele>80.8</ele>
        <time>2023-01-04T13:31:38Z</time>
      </trkpt>
      <trkpt lat="49.94202" lon="2.35109">
        <ele>80.8</ele>
        <time>2023-01-04T13:31:39Z</time>
      </trkpt>
      <trkpt lat="49.94203" lon="2.3511">
        <ele>80.8</ele>
        <time>2023-01-04T13:31:41Z</time>
      </trkpt>
      <trkpt lat="49.94204" lon="2.35111">
        <ele>80.8</ele>
        <time>2023-01-04T13:31:42Z</time>
      </trkpt>
      <trkpt lat="49.94206" lon="2.35112">
        <ele>80.8</ele>
        <time>2023-01-04T13:31:43Z</time>
      </trkpt>
      <trkpt lat="49.94207" lon="2.35113">
        <ele>80.8</ele>
        <time>2023-01-04T13:31:44Z</time>
      </trkpt>
      <trkpt lat="49.94209" lon="2.35114">
        <ele>80.8</ele>
        <time>2023-01-04T13:31:45Z</time>
      </trkpt>
      <trkpt lat="49.9421" lon="2.35115">
        <ele>80.8</ele>
        <time>2023-01-04T13:31:47Z</time>
      </trkpt>
      <trkpt lat="49.94211" lon="2.35115">
        <ele>80.8</ele>
        <time>2023-01-04T13:31:48Z</time>
      </trkpt>
      <trkpt lat="49.94213" lon="2.35116">
        <ele>80.8</ele>
        <time>2023-01-04T13:31:49Z</time>
      </trkpt>
      <trkpt lat="49.94214" lon="2.35117">
        <ele>80.8</ele>
        <time>2023-01-04T13:31:50Z</time>
      </trkpt>
      <trkpt lat="49.94215" lon="2.35117">
        <ele>80.8</ele>
        <time>2023-01-04T13:31:51Z</time>
      </trkpt>
      <trkpt lat="49.94216" lon="2.35118">
        <ele>80.8</ele>
        <time>2023-01-04T13:31:53Z</time>
      </trkpt>
      <trkpt lat="49.94217" lon="2.35119">
        <ele>80.8</ele>
        <time>2023-01-04T13:31:54Z</time>
      </trkpt>
      <trkpt lat="49.94219" lon="2.35121">
        <ele>80.8</ele>
        <time>2023-01-04T13:31:55Z</time>
      </trkpt>
      <trkpt lat="49.9422" lon="2.35121">
        <ele>80.8</ele>
        <time>2023-01-04T13:31:56Z</time>
      </trkpt>
      <trkpt lat="49.9422" lon="2.35122">
        <ele>80.8</ele>
        <time>2023-01-04T13:31:57Z</time>
      </trkpt>
      <trkpt lat="49.94222" lon="2.35123">
        <ele>80.8</ele>
        <time>2023-01-04T13:31:58Z</time>
      </trkpt>
      <trkpt lat="49.94223" lon="2.35124">
        <ele>80.8</ele>
        <time>2023-01-04T13:31:59Z</time>
      </trkpt>
      <trkpt lat="49.94224" lon="2.35124">
        <ele>80.8</ele>
        <time>2023-01-04T13:32:01Z</time>
      </trkpt>
      <trkpt lat="49.94225" lon="2.35125">
        <ele>80.8</ele>
        <time>2023-01-04T13:32:02Z</time>
      </trkpt>
      <trkpt lat="49.94226" lon="2.35125">
        <ele>80.8</ele>
        <time>2023-01-04T13:32:03Z</time>
      </trkpt>
      <trkpt lat="49.94227" lon="2.35126">
        <ele>80.8</ele>
        <time>2023-01-04T13:32:04Z</time>
      </trkpt>
      <trkpt lat="49.94229" lon="2.35127">
        <ele>80.8</ele>
        <time>2023-01-04T13:32:05Z</time>
      </trkpt>
      <trkpt lat="49.9423" lon="2.35127">
        <ele>80.8</ele>
        <time>2023-01-04T13:32:06Z</time>
      </trkpt>
      <trkpt lat="49.9423" lon="2.35128">
        <ele>80.8</ele>
        <time>2023-01-04T13:32:07Z</time>
      </trkpt>
      <trkpt lat="49.94231" lon="2.35129">
        <ele>80.8</ele>
        <time>2023-01-04T13:32:09Z</time>
      </trkpt>
      <trkpt lat="49.94232" lon="2.3513">
        <ele>80.8</ele>
        <time>2023-01-04T13:32:10Z</time>
      </trkpt>
      <trkpt lat="49.94233" lon="2.3513">
        <ele>80.8</ele>
        <time>2023-01-04T13:32:11Z</time>
      </trkpt>
      <trkpt lat="49.94235" lon="2.35132">
        <ele>80.7</ele>
        <time>2023-01-04T13:32:12Z</time>
      </trkpt>
      <trkpt lat="49.94236" lon="2.35133">
        <ele>80.7</ele>
        <time>2023-01-04T13:32:13Z</time>
      </trkpt>
      <trkpt lat="49.94238" lon="2.35135">
        <ele>80.7</ele>
        <time>2023-01-04T13:32:14Z</time>
      </trkpt>
      <trkpt lat="49.94238" lon="2.35136">
        <ele>80.7</ele>
        <time>2023-01-04T13:32:15Z</time>
      </trkpt>
      <trkpt lat="49.94239" lon="2.35136">
        <ele>80.7</ele>
        <time>2023-01-04T13:32:17Z</time>
      </trkpt>
      <trkpt lat="49.9424" lon="2.35137">
        <ele>80.7</ele>
        <time>2023-01-04T13:32:18Z</time>
      </trkpt>
      <trkpt lat="49.94241" lon="2.35138">
        <ele>80.7</ele>
        <time>2023-01-04T13:32:19Z</time>
      </trkpt>
      <trkpt lat="49.94242" lon="2.35138">
        <ele>80.7</ele>
        <time>2023-01-04T13:32:20Z</time>
      </trkpt>
      <trkpt lat="49.94244" lon="2.3514">
        <ele>80.7</ele>
        <time>2023-01-04T13:32:21Z</time>
      </trkpt>
      <trkpt lat="49.94245" lon="2.35141">
        <ele>80.6</ele>
        <time>2023-01-04T13:32:22Z</time>
      </trkpt>
      <trkpt lat="49.94246" lon="2.35142">
        <ele>80.6</ele>
        <time>2023-01-04T13:32:24Z</time>
      </trkpt>
      <trkpt lat="49.94247" lon="2.35143">
        <ele>80.6</ele>
        <time>2023-01-04T13:32:25Z</time>
      </trkpt>
      <trkpt lat="49.94248" lon="2.35144">
        <ele>80.6</ele>
        <time>2023-01-04T13:32:26Z</time>
      </trkpt>
      <trkpt lat="49.94249" lon="2.35144">
        <ele>80.6</ele>
        <time>2023-01-04T13:32:27Z</time>
      </trkpt>
      <trkpt lat="49.9425" lon="2.35145">
        <ele>80.6</ele>
        <time>2023-01-04T13:32:28Z</time>
      </trkpt>
      <trkpt lat="49.94251" lon="2.35145">
        <ele>80.6</ele>
        <time>2023-01-04T13:32:29Z</time>
      </trkpt>
      <trkpt lat="49.94252" lon="2.35145">
        <ele>80.6</ele>
        <time>2023-01-04T13:32:30Z</time>
      </trkpt>
      <trkpt lat="49.94253" lon="2.35145">
        <ele>80.6</ele>
        <time>2023-01-04T13:32:31Z</time>
      </trkpt>
      <trkpt lat="49.94254" lon="2.35146">
        <ele>80.6</ele>
        <time>2023-01-04T13:32:33Z</time>
      </trkpt>
      <trkpt lat="49.94256" lon="2.35147">
        <ele>80.5</ele>
        <time>2023-01-04T13:32:34Z</time>
      </trkpt>
      <trkpt lat="49.94257" lon="2.35147">
        <ele>80.5</ele>
        <time>2023-01-04T13:32:35Z</time>
      </trkpt>
      <trkpt lat="49.94258" lon="2.35148">
        <ele>80.5</ele>
        <time>2023-01-04T13:32:36Z</time>
      </trkpt>
      <trkpt lat="49.9426" lon="2.35148">
        <ele>80.5</ele>
        <time>2023-01-04T13:32:38Z</time>
      </trkpt>
      <trkpt lat="49.94261" lon="2.35149">
        <ele>80.5</ele>
        <time>2023-01-04T13:32:39Z</time>
      </trkpt>
      <trkpt lat="49.94261" lon="2.35149">
        <ele>80.5</ele>
        <time>2023-01-04T13:32:40Z</time>
      </trkpt>
      <trkpt lat="49.94262" lon="2.3515">
        <ele>80.5</ele>
        <time>2023-01-04T13:32:41Z</time>
      </trkpt>
      <trkpt lat="49.94263" lon="2.35151">
        <ele>80.5</ele>
        <time>2023-01-04T13:32:42Z</time>
      </trkpt>
      <trkpt lat="49.94264" lon="2.35151">
        <ele>80.5</ele>
        <time>2023-01-04T13:32:43Z</time>
      </trkpt>
      <trkpt lat="49.94265" lon="2.35151">
        <ele>80.5</ele>
        <time>2023-01-04T13:32:44Z</time>
      </trkpt>
      <trkpt lat="49.94266" lon="2.35152">
        <ele>80.5</ele>
        <time>2023-01-04T13:32:45Z</time>
      </trkpt>
      <trkpt lat="49.94267" lon="2.35152">
        <ele>80.5</ele>
        <time>2023-01-04T13:32:46Z</time>
      </trkpt>
      <trkpt lat="49.94269" lon="2.35153">
        <ele>80.5</ele>
        <time>2023-01-04T13:32:48Z</time>
      </trkpt>
      <trkpt lat="49.9427" lon="2.35154">
        <ele>80.5</ele>
        <time>2023-01-04T13:32:49Z</time>
      </trkpt>
      <trkpt lat="49.94271" lon="2.35154">
        <ele>80.5</ele>
        <time>2023-01-04T13:32:50Z</time>
      </trkpt>
      <trkpt lat="49.94272" lon="2.35155">
        <ele>80.5</ele>
        <time>2023-01-04T13:32:51Z</time>
      </trkpt>
      <trkpt lat="49.94274" lon="2.35157">
        <ele>80.5</ele>
        <time>2023-01-04T13:32:52Z</time>
      </trkpt>
      <trkpt lat="49.94274" lon="2.35158">
        <ele>80.5</ele>
        <time>2023-01-04T13:32:53Z</time>
      </trkpt>
      <trkpt lat="49.94275" lon="2.35158">
        <ele>80.5</ele>
        <time>2023-01-04T13:32:54Z</time>
      </trkpt>
      <trkpt lat="49.94277" lon="2.35159">
        <ele>80.6</ele>
        <time>2023-01-04T13:32:56Z</time>
      </trkpt>
      <trkpt lat="49.94278" lon="2.3516">
        <ele>80.6</ele>
        <time>2023-01-04T13:32:57Z</time>
      </trkpt>
      <trkpt lat="49.94279" lon="2.3516">
        <ele>80.6</ele>
        <time>2023-01-04T13:32:58Z</time>
      </trkpt>
      <trkpt lat="49.9428" lon="2.3516">
        <ele>80.6</ele>
        <time>2023-01-04T13:32:59Z</time>
      </trkpt>
      <trkpt lat="49.94281" lon="2.3516">
        <ele>80.6</ele>
        <time>2023-01-04T13:33:00Z</time>
      </trkpt>
      <trkpt lat="49.94282" lon="2.35161">
        <ele>80.7</ele>
        <time>2023-01-04T13:33:01Z</time>
      </trkpt>
      <trkpt lat="49.94284" lon="2.35162">
        <ele>80.7</ele>
        <time>2023-01-04T13:33:02Z</time>
      </trkpt>
      <trkpt lat="49.94285" lon="2.35163">
        <ele>80.7</ele>
        <time>2023-01-04T13:33:03Z</time>
      </trkpt>
      <trkpt lat="49.94286" lon="2.35164">
        <ele>80.8</ele>
        <time>2023-01-04T13:33:05Z</time>
      </trkpt>
      <trkpt lat="49.94287" lon="2.35165">
        <ele>80.8</ele>
        <time>2023-01-04T13:33:06Z</time>
      </trkpt>
      <trkpt lat="49.94288" lon="2.35166">
        <ele>80.9</ele>
        <time>2023-01-04T13:33:07Z</time>
      </trkpt>
      <trkpt lat="49.94289" lon="2.35166">
        <ele>80.9</ele>
        <time>2023-01-04T13:33:08Z</time>
      </trkpt>
      <trkpt lat="49.94289" lon="2.35167">
        <ele>80.9</ele>
        <time>2023-01-04T13:33:09Z</time>
      </trkpt>
      <trkpt lat="49.9429" lon="2.35167">
        <ele>80.9</ele>
        <time>2023-01-04T13:33:10Z</time>
      </trkpt>
      <trkpt lat="49.94292" lon="2.35168">
        <ele>81</ele>
        <time>2023-01-04T13:33:11Z</time>
      </trkpt>
      <trkpt lat="49.94293" lon="2.35169">
        <ele>81</ele>
        <time>2023-01-04T13:33:12Z</time>
      </trkpt>
      <trkpt lat="49.94294" lon="2.3517">
        <ele>81</ele>
        <time>2023-01-04T13:33:13Z</time>
      </trkpt>
      <trkpt lat="49.94295" lon="2.3517">
        <ele>81.1</ele>
        <time>2023-01-04T13:33:15Z</time>
      </trkpt>
      <trkpt lat="49.94296" lon="2.35171">
        <ele>81.1</ele>
        <time>2023-01-04T13:33:16Z</time>
      </trkpt>
      <trkpt lat="49.94298" lon="2.35172">
        <ele>81.1</ele>
        <time>2023-01-04T13:33:17Z</time>
      </trkpt>
      <trkpt lat="49.94299" lon="2.35172">
        <ele>81.1</ele>
        <time>2023-01-04T13:33:18Z</time>
      </trkpt>
      <trkpt lat="49.943" lon="2.35173">
        <ele>81.1</ele>
        <time>2023-01-04T13:33:19Z</time>
      </trkpt>
      <trkpt lat="49.94301" lon="2.35174">
        <ele>81.2</ele>
        <time>2023-01-04T13:33:20Z</time>
      </trkpt>
      <trkpt lat="49.94302" lon="2.35174">
        <ele>81.2</ele>
        <time>2023-01-04T13:33:21Z</time>
      </trkpt>
      <trkpt lat="49.94303" lon="2.35175">
        <ele>81.2</ele>
        <time>2023-01-04T13:33:23Z</time>
      </trkpt>
      <trkpt lat="49.94305" lon="2.35176">
        <ele>81.2</ele>
        <time>2023-01-04T13:33:24Z</time>
      </trkpt>
      <trkpt lat="49.94307" lon="2.35177">
        <ele>81.2</ele>
        <time>2023-01-04T13:33:25Z</time>
      </trkpt>
      <trkpt lat="49.94307" lon="2.35177">
        <ele>81.2</ele>
        <time>2023-01-04T13:33:26Z</time>
      </trkpt>
      <trkpt lat="49.94308" lon="2.35178">
        <ele>81.2</ele>
        <time>2023-01-04T13:33:27Z</time>
      </trkpt>
      <trkpt lat="49.94309" lon="2.35179">
        <ele>81.2</ele>
        <time>2023-01-04T13:33:28Z</time>
      </trkpt>
      <trkpt lat="49.9431" lon="2.3518">
        <ele>81.2</ele>
        <time>2023-01-04T13:33:29Z</time>
      </trkpt>
      <trkpt lat="49.94311" lon="2.35181">
        <ele>81.2</ele>
        <time>2023-01-04T13:33:30Z</time>
      </trkpt>
      <trkpt lat="49.94312" lon="2.35181">
        <ele>81.2</ele>
        <time>2023-01-04T13:33:32Z</time>
      </trkpt>
      <trkpt lat="49.94313" lon="2.35183">
        <ele>81.2</ele>
        <time>2023-01-04T13:33:33Z</time>
      </trkpt>
      <trkpt lat="49.94314" lon="2.35183">
        <ele>81.2</ele>
        <time>2023-01-04T13:33:34Z</time>
      </trkpt>
      <trkpt lat="49.94315" lon="2.35184">
        <ele>81.2</ele>
        <time>2023-01-04T13:33:35Z</time>
      </trkpt>
      <trkpt lat="49.94316" lon="2.35185">
        <ele>81.2</ele>
        <time>2023-01-04T13:33:36Z</time>
      </trkpt>
      <trkpt lat="49.94317" lon="2.35186">
        <ele>81.2</ele>
        <time>2023-01-04T13:33:37Z</time>
      </trkpt>
      <trkpt lat="49.94318" lon="2.35187">
        <ele>81.2</ele>
        <time>2023-01-04T13:33:38Z</time>
      </trkpt>
      <trkpt lat="49.9432" lon="2.35188">
        <ele>81.2</ele>
        <time>2023-01-04T13:33:40Z</time>
      </trkpt>
      <trkpt lat="49.94322" lon="2.35189">
        <ele>81.2</ele>
        <time>2023-01-04T13:33:41Z</time>
      </trkpt>
      <trkpt lat="49.94323" lon="2.3519">
        <ele>81.2</ele>
        <time>2023-01-04T13:33:42Z</time>
      </trkpt>
      <trkpt lat="49.94323" lon="2.35191">
        <ele>81.2</ele>
        <time>2023-01-04T13:33:43Z</time>
      </trkpt>
      <trkpt lat="49.94324" lon="2.35192">
        <ele>81.2</ele>
        <time>2023-01-04T13:33:45Z</time>
      </trkpt>
      <trkpt lat="49.94326" lon="2.35193">
        <ele>81.2</ele>
        <time>2023-01-04T13:33:46Z</time>
      </trkpt>
      <trkpt lat="49.94327" lon="2.35193">
        <ele>81.2</ele>
        <time>2023-01-04T13:33:47Z</time>
      </trkpt>
      <trkpt lat="49.94328" lon="2.35194">
        <ele>81.2</ele>
        <time>2023-01-04T13:33:48Z</time>
      </trkpt>
      <trkpt lat="49.94329" lon="2.35194">
        <ele>81.2</ele>
        <time>2023-01-04T13:33:49Z</time>
      </trkpt>
      <trkpt lat="49.9433" lon="2.35195">
        <ele>81.2</ele>
        <time>2023-01-04T13:33:50Z</time>
      </trkpt>
      <trkpt lat="49.94331" lon="2.35195">
        <ele>81.2</ele>
        <time>2023-01-04T13:33:51Z</time>
      </trkpt>
      <trkpt lat="49.94332" lon="2.35196">
        <ele>81.2</ele>
        <time>2023-01-04T13:33:52Z</time>
      </trkpt>
      <trkpt lat="49.94333" lon="2.35197">
        <ele>81.2</ele>
        <time>2023-01-04T13:33:54Z</time>
      </trkpt>
      <trkpt lat="49.94334" lon="2.35197">
        <ele>81.2</ele>
        <time>2023-01-04T13:33:55Z</time>
      </trkpt>
      <trkpt lat="49.94335" lon="2.35198">
        <ele>81.2</ele>
        <time>2023-01-04T13:33:56Z</time>
      </trkpt>
      <trkpt lat="49.94336" lon="2.35199">
        <ele>81.2</ele>
        <time>2023-01-04T13:33:57Z</time>
      </trkpt>
      <trkpt lat="49.94337" lon="2.352">
        <ele>81.2</ele>
        <time>2023-01-04T13:33:58Z</time>
      </trkpt>
      <trkpt lat="49.94338" lon="2.35201">
        <ele>81.2</ele>
        <time>2023-01-04T13:33:59Z</time>
      </trkpt>
      <trkpt lat="49.94339" lon="2.35201">
        <ele>81.2</ele>
        <time>2023-01-04T13:34:00Z</time>
      </trkpt>
      <trkpt lat="49.94341" lon="2.35202">
        <ele>81.2</ele>
        <time>2023-01-04T13:34:01Z</time>
      </trkpt>
      <trkpt lat="49.94342" lon="2.35203">
        <ele>81.2</ele>
        <time>2023-01-04T13:34:03Z</time>
      </trkpt>
      <trkpt lat="49.94343" lon="2.35204">
        <ele>81.3</ele>
        <time>2023-01-04T13:34:04Z</time>
      </trkpt>
      <trkpt lat="49.94344" lon="2.35204">
        <ele>81.3</ele>
        <time>2023-01-04T13:34:05Z</time>
      </trkpt>
      <trkpt lat="49.94345" lon="2.35205">
        <ele>81.3</ele>
        <time>2023-01-04T13:34:06Z</time>
      </trkpt>
      <trkpt lat="49.94346" lon="2.35206">
        <ele>81.3</ele>
        <time>2023-01-04T13:34:07Z</time>
      </trkpt>
      <trkpt lat="49.94348" lon="2.35208">
        <ele>81.3</ele>
        <time>2023-01-04T13:34:08Z</time>
      </trkpt>
      <trkpt lat="49.94348" lon="2.35208">
        <ele>81.3</ele>
        <time>2023-01-04T13:34:09Z</time>
      </trkpt>
      <trkpt lat="49.94349" lon="2.35208">
        <ele>81.3</ele>
        <time>2023-01-04T13:34:10Z</time>
      </trkpt>
      <trkpt lat="49.9435" lon="2.35209">
        <ele>81.3</ele>
        <time>2023-01-04T13:34:11Z</time>
      </trkpt>
      <trkpt lat="49.94352" lon="2.35211">
        <ele>81.3</ele>
        <time>2023-01-04T13:34:13Z</time>
      </trkpt>
      <trkpt lat="49.94353" lon="2.35211">
        <ele>81.3</ele>
        <time>2023-01-04T13:34:14Z</time>
      </trkpt>
      <trkpt lat="49.94354" lon="2.35212">
        <ele>81.3</ele>
        <time>2023-01-04T13:34:15Z</time>
      </trkpt>
      <trkpt lat="49.94355" lon="2.35213">
        <ele>81.3</ele>
        <time>2023-01-04T13:34:16Z</time>
      </trkpt>
      <trkpt lat="49.94356" lon="2.35214">
        <ele>81.3</ele>
        <time>2023-01-04T13:34:17Z</time>
      </trkpt>
      <trkpt lat="49.94357" lon="2.35215">
        <ele>81.3</ele>
        <time>2023-01-04T13:34:18Z</time>
      </trkpt>
      <trkpt lat="49.94358" lon="2.35215">
        <ele>81.3</ele>
        <time>2023-01-04T13:34:19Z</time>
      </trkpt>
      <trkpt lat="49.94359" lon="2.35216">
        <ele>81.3</ele>
        <time>2023-01-04T13:34:21Z</time>
      </trkpt>
      <trkpt lat="49.9436" lon="2.35217">
        <ele>81.3</ele>
        <time>2023-01-04T13:34:22Z</time>
      </trkpt>
      <trkpt lat="49.94363" lon="2.35218">
        <ele>81.2</ele>
        <time>2023-01-04T13:34:23Z</time>
      </trkpt>
      <trkpt lat="49.94363" lon="2.35219">
        <ele>81.2</ele>
        <time>2023-01-04T13:34:24Z</time>
      </trkpt>
      <trkpt lat="49.94364" lon="2.35219">
        <ele>81.2</ele>
        <time>2023-01-04T13:34:25Z</time>
      </trkpt>
      <trkpt lat="49.94365" lon="2.35221">
        <ele>81.2</ele>
        <time>2023-01-04T13:34:26Z</time>
      </trkpt>
      <trkpt lat="49.94366" lon="2.35222">
        <ele>81.2</ele>
        <time>2023-01-04T13:34:27Z</time>
      </trkpt>
      <trkpt lat="49.94367" lon="2.35223">
        <ele>81.1</ele>
        <time>2023-01-04T13:34:29Z</time>
      </trkpt>
      <trkpt lat="49.94368" lon="2.35224">
        <ele>81.1</ele>
        <time>2023-01-04T13:34:30Z</time>
      </trkpt>
      <trkpt lat="49.94369" lon="2.35224">
        <ele>81.1</ele>
        <time>2023-01-04T13:34:31Z</time>
      </trkpt>
      <trkpt lat="49.9437" lon="2.35225">
        <ele>81.1</ele>
        <time>2023-01-04T13:34:32Z</time>
      </trkpt>
      <trkpt lat="49.94372" lon="2.35226">
        <ele>81.1</ele>
        <time>2023-01-04T13:34:33Z</time>
      </trkpt>
      <trkpt lat="49.94372" lon="2.35227">
        <ele>81</ele>
        <time>2023-01-04T13:34:34Z</time>
      </trkpt>
      <trkpt lat="49.94373" lon="2.35227">
        <ele>81</ele>
        <time>2023-01-04T13:34:35Z</time>
      </trkpt>
      <trkpt lat="49.94374" lon="2.35228">
        <ele>81</ele>
        <time>2023-01-04T13:34:37Z</time>
      </trkpt>
      <trkpt lat="49.94376" lon="2.35228">
        <ele>81</ele>
        <time>2023-01-04T13:34:38Z</time>
      </trkpt>
      <trkpt lat="49.94377" lon="2.35229">
        <ele>81</ele>
        <time>2023-01-04T13:34:39Z</time>
      </trkpt>
      <trkpt lat="49.94377" lon="2.35229">
        <ele>81</ele>
        <time>2023-01-04T13:34:40Z</time>
      </trkpt>
      <trkpt lat="49.94379" lon="2.35229">
        <ele>80.9</ele>
        <time>2023-01-04T13:34:41Z</time>
      </trkpt>
      <trkpt lat="49.9438" lon="2.3523">
        <ele>80.9</ele>
        <time>2023-01-04T13:34:42Z</time>
      </trkpt>
      <trkpt lat="49.94381" lon="2.3523">
        <ele>80.9</ele>
        <time>2023-01-04T13:34:43Z</time>
      </trkpt>
      <trkpt lat="49.94382" lon="2.35231">
        <ele>80.9</ele>
        <time>2023-01-04T13:34:45Z</time>
      </trkpt>
      <trkpt lat="49.94383" lon="2.35231">
        <ele>80.9</ele>
        <time>2023-01-04T13:34:46Z</time>
      </trkpt>
      <trkpt lat="49.94384" lon="2.35232">
        <ele>80.8</ele>
        <time>2023-01-04T13:34:47Z</time>
      </trkpt>
      <trkpt lat="49.94386" lon="2.35232">
        <ele>80.8</ele>
        <time>2023-01-04T13:34:48Z</time>
      </trkpt>
      <trkpt lat="49.94386" lon="2.35232">
        <ele>80.8</ele>
        <time>2023-01-04T13:34:49Z</time>
      </trkpt>
      <trkpt lat="49.94387" lon="2.35233">
        <ele>80.8</ele>
        <time>2023-01-04T13:34:50Z</time>
      </trkpt>
      <trkpt lat="49.94388" lon="2.35233">
        <ele>80.8</ele>
        <time>2023-01-04T13:34:52Z</time>
      </trkpt>
      <trkpt lat="49.94389" lon="2.35234">
        <ele>80.8</ele>
        <time>2023-01-04T13:34:53Z</time>
      </trkpt>
      <trkpt lat="49.94391" lon="2.35234">
        <ele>80.8</ele>
        <time>2023-01-04T13:34:54Z</time>
      </trkpt>
      <trkpt lat="49.94391" lon="2.35234">
        <ele>80.8</ele>
        <time>2023-01-04T13:34:55Z</time>
      </trkpt>
      <trkpt lat="49.94392" lon="2.35235">
        <ele>80.8</ele>
        <time>2023-01-04T13:34:56Z</time>
      </trkpt>
      <trkpt lat="49.94394" lon="2.35236">
        <ele>80.8</ele>
        <time>2023-01-04T13:34:57Z</time>
      </trkpt>
      <trkpt lat="49.94395" lon="2.35237">
        <ele>80.8</ele>
        <time>2023-01-04T13:34:58Z</time>
      </trkpt>
      <trkpt lat="49.94396" lon="2.35238">
        <ele>80.8</ele>
        <time>2023-01-04T13:35:00Z</time>
      </trkpt>
      <trkpt lat="49.94398" lon="2.35239">
        <ele>80.7</ele>
        <time>2023-01-04T13:35:01Z</time>
      </trkpt>
      <trkpt lat="49.94399" lon="2.3524">
        <ele>80.7</ele>
        <time>2023-01-04T13:35:02Z</time>
      </trkpt>
      <trkpt lat="49.944" lon="2.35241">
        <ele>80.7</ele>
        <time>2023-01-04T13:35:03Z</time>
      </trkpt>
      <trkpt lat="49.944" lon="2.35241">
        <ele>80.7</ele>
        <time>2023-01-04T13:35:04Z</time>
      </trkpt>
      <trkpt lat="49.94401" lon="2.35242">
        <ele>80.7</ele>
        <time>2023-01-04T13:35:06Z</time>
      </trkpt>
      <trkpt lat="49.94402" lon="2.35242">
        <ele>80.7</ele>
        <time>2023-01-04T13:35:07Z</time>
      </trkpt>
      <trkpt lat="49.94404" lon="2.35244">
        <ele>80.7</ele>
        <time>2023-01-04T13:35:08Z</time>
      </trkpt>
      <trkpt lat="49.94405" lon="2.35244">
        <ele>80.7</ele>
        <time>2023-01-04T13:35:09Z</time>
      </trkpt>
      <trkpt lat="49.94406" lon="2.35244">
        <ele>80.7</ele>
        <time>2023-01-04T13:35:10Z</time>
      </trkpt>
      <trkpt lat="49.94408" lon="2.35246">
        <ele>80.7</ele>
        <time>2023-01-04T13:35:11Z</time>
      </trkpt>
      <trkpt lat="49.94409" lon="2.35247">
        <ele>80.7</ele>
        <time>2023-01-04T13:35:12Z</time>
      </trkpt>
      <trkpt lat="49.9441" lon="2.35247">
        <ele>80.7</ele>
        <time>2023-01-04T13:35:14Z</time>
      </trkpt>
      <trkpt lat="49.94411" lon="2.35248">
        <ele>80.7</ele>
        <time>2023-01-04T13:35:15Z</time>
      </trkpt>
      <trkpt lat="49.94411" lon="2.35249">
        <ele>80.7</ele>
        <time>2023-01-04T13:35:16Z</time>
      </trkpt>
      <trkpt lat="49.94412" lon="2.3525">
        <ele>80.7</ele>
        <time>2023-01-04T13:35:17Z</time>
      </trkpt>
      <trkpt lat="49.94414" lon="2.35251">
        <ele>80.6</ele>
        <time>2023-01-04T13:35:18Z</time>
      </trkpt>
      <trkpt lat="49.94415" lon="2.35252">
        <ele>80.6</ele>
        <time>2023-01-04T13:35:19Z</time>
      </trkpt>
      <trkpt lat="49.94416" lon="2.35252">
        <ele>80.6</ele>
        <time>2023-01-04T13:35:20Z</time>
      </trkpt>
      <trkpt lat="49.94417" lon="2.35253">
        <ele>80.6</ele>
        <time>2023-01-04T13:35:21Z</time>
      </trkpt>
      <trkpt lat="49.94418" lon="2.35253">
        <ele>80.6</ele>
        <time>2023-01-04T13:35:22Z</time>
      </trkpt>
      <trkpt lat="49.94419" lon="2.35254">
        <ele>80.6</ele>
        <time>2023-01-04T13:35:24Z</time>
      </trkpt>
      <trkpt lat="49.9442" lon="2.35255">
        <ele>80.5</ele>
        <time>2023-01-04T13:35:25Z</time>
      </trkpt>
      <trkpt lat="49.94421" lon="2.35256">
        <ele>80.5</ele>
        <time>2023-01-04T13:35:26Z</time>
      </trkpt>
      <trkpt lat="49.94422" lon="2.35257">
        <ele>80.5</ele>
        <time>2023-01-04T13:35:27Z</time>
      </trkpt>
      <trkpt lat="49.94423" lon="2.35257">
        <ele>80.5</ele>
        <time>2023-01-04T13:35:28Z</time>
      </trkpt>
      <trkpt lat="49.94424" lon="2.35258">
        <ele>80.5</ele>
        <time>2023-01-04T13:35:29Z</time>
      </trkpt>
      <trkpt lat="49.94425" lon="2.35258">
        <ele>80.5</ele>
        <time>2023-01-04T13:35:30Z</time>
      </trkpt>
      <trkpt lat="49.94426" lon="2.35259">
        <ele>80.4</ele>
        <time>2023-01-04T13:35:31Z</time>
      </trkpt>
      <trkpt lat="49.94426" lon="2.3526">
        <ele>80.4</ele>
        <time>2023-01-04T13:35:33Z</time>
      </trkpt>
      <trkpt lat="49.94428" lon="2.35261">
        <ele>80.4</ele>
        <time>2023-01-04T13:35:34Z</time>
      </trkpt>
      <trkpt lat="49.9443" lon="2.35262">
        <ele>80.4</ele>
        <time>2023-01-04T13:35:35Z</time>
      </trkpt>
      <trkpt lat="49.9443" lon="2.35262">
        <ele>80.3</ele>
        <time>2023-01-04T13:35:36Z</time>
      </trkpt>
      <trkpt lat="49.94431" lon="2.35263">
        <ele>80.3</ele>
        <time>2023-01-04T13:35:37Z</time>
      </trkpt>
      <trkpt lat="49.94432" lon="2.35263">
        <ele>80.3</ele>
        <time>2023-01-04T13:35:38Z</time>
      </trkpt>
      <trkpt lat="49.94434" lon="2.35264">
        <ele>80.3</ele>
        <time>2023-01-04T13:35:39Z</time>
      </trkpt>
      <trkpt lat="49.94435" lon="2.35265">
        <ele>80.3</ele>
        <time>2023-01-04T13:35:40Z</time>
      </trkpt>
      <trkpt lat="49.94436" lon="2.35266">
        <ele>80.2</ele>
        <time>2023-01-04T13:35:41Z</time>
      </trkpt>
      <trkpt lat="49.94437" lon="2.35267">
        <ele>80.2</ele>
        <time>2023-01-04T13:35:43Z</time>
      </trkpt>
      <trkpt lat="49.94438" lon="2.35268">
        <ele>80.2</ele>
        <time>2023-01-04T13:35:44Z</time>
      </trkpt>
      <trkpt lat="49.94439" lon="2.35269">
        <ele>80.2</ele>
        <time>2023-01-04T13:35:45Z</time>
      </trkpt>
      <trkpt lat="49.94441" lon="2.35271">
        <ele>80.1</ele>
        <time>2023-01-04T13:35:46Z</time>
      </trkpt>
      <trkpt lat="49.94442" lon="2.35271">
        <ele>80.1</ele>
        <time>2023-01-04T13:35:47Z</time>
      </trkpt>
      <trkpt lat="49.94443" lon="2.35272">
        <ele>80.1</ele>
        <time>2023-01-04T13:35:48Z</time>
      </trkpt>
      <trkpt lat="49.94444" lon="2.35272">
        <ele>80.1</ele>
        <time>2023-01-04T13:35:49Z</time>
      </trkpt>
      <trkpt lat="49.94445" lon="2.35273">
        <ele>80.1</ele>
        <time>2023-01-04T13:35:50Z</time>
      </trkpt>
      <trkpt lat="49.94446" lon="2.35273">
        <ele>80</ele>
        <time>2023-01-04T13:35:52Z</time>
      </trkpt>
      <trkpt lat="49.94448" lon="2.35274">
        <ele>80</ele>
        <time>2023-01-04T13:35:53Z</time>
      </trkpt>
      <trkpt lat="49.94449" lon="2.35275">
        <ele>80</ele>
        <time>2023-01-04T13:35:54Z</time>
      </trkpt>
      <trkpt lat="49.94451" lon="2.35276">
        <ele>80</ele>
        <time>2023-01-04T13:35:55Z</time>
      </trkpt>
      <trkpt lat="49.94452" lon="2.35277">
        <ele>79.9</ele>
        <time>2023-01-04T13:35:56Z</time>
      </trkpt>
      <trkpt lat="49.94453" lon="2.35277">
        <ele>79.9</ele>
        <time>2023-01-04T13:35:57Z</time>
      </trkpt>
      <trkpt lat="49.94454" lon="2.35278">
        <ele>79.9</ele>
        <time>2023-01-04T13:35:58Z</time>
      </trkpt>
      <trkpt lat="49.94455" lon="2.35278">
        <ele>79.9</ele>
        <time>2023-01-04T13:35:59Z</time>
      </trkpt>
      <trkpt lat="49.94456" lon="2.35279">
        <ele>79.9</ele>
        <time>2023-01-04T13:36:01Z</time>
      </trkpt>
      <trkpt lat="49.94457" lon="2.3528">
        <ele>79.9</ele>
        <time>2023-01-04T13:36:02Z</time>
      </trkpt>
      <trkpt lat="49.94459" lon="2.3528">
        <ele>79.8</ele>
        <time>2023-01-04T13:36:03Z</time>
      </trkpt>
      <trkpt lat="49.9446" lon="2.35281">
        <ele>79.8</ele>
        <time>2023-01-04T13:36:04Z</time>
      </trkpt>
      <trkpt lat="49.94461" lon="2.35282">
        <ele>79.8</ele>
        <time>2023-01-04T13:36:05Z</time>
      </trkpt>
      <trkpt lat="49.94463" lon="2.35283">
        <ele>79.7</ele>
        <time>2023-01-04T13:36:06Z</time>
      </trkpt>
      <trkpt lat="49.94464" lon="2.35284">
        <ele>79.7</ele>
        <time>2023-01-04T13:36:07Z</time>
      </trkpt>
      <trkpt lat="49.94465" lon="2.35284">
        <ele>79.7</ele>
        <time>2023-01-04T13:36:08Z</time>
      </trkpt>
      <trkpt lat="49.94467" lon="2.35285">
        <ele>79.7</ele>
        <time>2023-01-04T13:36:10Z</time>
      </trkpt>
      <trkpt lat="49.94468" lon="2.35286">
        <ele>79.6</ele>
        <time>2023-01-04T13:36:11Z</time>
      </trkpt>
      <trkpt lat="49.94469" lon="2.35286">
        <ele>79.6</ele>
        <time>2023-01-04T13:36:12Z</time>
      </trkpt>
      <trkpt lat="49.94471" lon="2.35287">
        <ele>79.6</ele>
        <time>2023-01-04T13:36:13Z</time>
      </trkpt>
      <trkpt lat="49.94471" lon="2.35288">
        <ele>79.6</ele>
        <time>2023-01-04T13:36:14Z</time>
      </trkpt>
      <trkpt lat="49.94473" lon="2.35289">
        <ele>79.5</ele>
        <time>2023-01-04T13:36:16Z</time>
      </trkpt>
      <trkpt lat="49.94474" lon="2.3529">
        <ele>79.5</ele>
        <time>2023-01-04T13:36:17Z</time>
      </trkpt>
      <trkpt lat="49.94475" lon="2.35291">
        <ele>79.4</ele>
        <time>2023-01-04T13:36:18Z</time>
      </trkpt>
      <trkpt lat="49.94476" lon="2.35293">
        <ele>79.4</ele>
        <time>2023-01-04T13:36:19Z</time>
      </trkpt>
      <trkpt lat="49.94477" lon="2.35293">
        <ele>79.4</ele>
        <time>2023-01-04T13:36:20Z</time>
      </trkpt>
      <trkpt lat="49.94478" lon="2.35294">
        <ele>79.3</ele>
        <time>2023-01-04T13:36:21Z</time>
      </trkpt>
      <trkpt lat="49.94479" lon="2.35295">
        <ele>79.3</ele>
        <time>2023-01-04T13:36:22Z</time>
      </trkpt>
      <trkpt lat="49.94481" lon="2.35296">
        <ele>79.2</ele>
        <time>2023-01-04T13:36:23Z</time>
      </trkpt>
      <trkpt lat="49.94482" lon="2.35296">
        <ele>79.2</ele>
        <time>2023-01-04T13:36:25Z</time>
      </trkpt>
      <trkpt lat="49.94483" lon="2.35297">
        <ele>79.2</ele>
        <time>2023-01-04T13:36:26Z</time>
      </trkpt>
      <trkpt lat="49.94484" lon="2.35298">
        <ele>79.1</ele>
        <time>2023-01-04T13:36:27Z</time>
      </trkpt>
      <trkpt lat="49.94485" lon="2.35298">
        <ele>79.1</ele>
        <time>2023-01-04T13:36:28Z</time>
      </trkpt>
      <trkpt lat="49.94486" lon="2.35299">
        <ele>79</ele>
        <time>2023-01-04T13:36:29Z</time>
      </trkpt>
      <trkpt lat="49.94487" lon="2.35299">
        <ele>79</ele>
        <time>2023-01-04T13:36:30Z</time>
      </trkpt>
      <trkpt lat="49.94488" lon="2.353">
        <ele>78.9</ele>
        <time>2023-01-04T13:36:31Z</time>
      </trkpt>
      <trkpt lat="49.94489" lon="2.35301">
        <ele>78.9</ele>
        <time>2023-01-04T13:36:32Z</time>
      </trkpt>
      <trkpt lat="49.9449" lon="2.35301">
        <ele>78.8</ele>
        <time>2023-01-04T13:36:33Z</time>
      </trkpt>
      <trkpt lat="49.94492" lon="2.35302">
        <ele>78.8</ele>
        <time>2023-01-04T13:36:35Z</time>
      </trkpt>
      <trkpt lat="49.94493" lon="2.35303">
        <ele>78.7</ele>
        <time>2023-01-04T13:36:36Z</time>
      </trkpt>
      <trkpt lat="49.94494" lon="2.35303">
        <ele>78.6</ele>
        <time>2023-01-04T13:36:37Z</time>
      </trkpt>
      <trkpt lat="49.94495" lon="2.35304">
        <ele>78.6</ele>
        <time>2023-01-04T13:36:38Z</time>
      </trkpt>
      <trkpt lat="49.94497" lon="2.35305">
        <ele>78.5</ele>
        <time>2023-01-04T13:36:39Z</time>
      </trkpt>
      <trkpt lat="49.94497" lon="2.35305">
        <ele>78.5</ele>
        <time>2023-01-04T13:36:40Z</time>
      </trkpt>
      <trkpt lat="49.94499" lon="2.35306">
        <ele>78.4</ele>
        <time>2023-01-04T13:36:41Z</time>
      </trkpt>
      <trkpt lat="49.945" lon="2.35307">
        <ele>78.4</ele>
        <time>2023-01-04T13:36:42Z</time>
      </trkpt>
      <trkpt lat="49.94501" lon="2.35308">
        <ele>78.3</ele>
        <time>2023-01-04T13:36:44Z</time>
      </trkpt>
      <trkpt lat="49.94502" lon="2.35309">
        <ele>78.2</ele>
        <time>2023-01-04T13:36:45Z</time>
      </trkpt>
      <trkpt lat="49.94503" lon="2.3531">
        <ele>78.2</ele>
        <time>2023-01-04T13:36:46Z</time>
      </trkpt>
      <trkpt lat="49.94505" lon="2.3531">
        <ele>78.1</ele>
        <time>2023-01-04T13:36:47Z</time>
      </trkpt>
      <trkpt lat="49.94506" lon="2.35311">
        <ele>78.1</ele>
        <time>2023-01-04T13:36:48Z</time>
      </trkpt>
      <trkpt lat="49.94507" lon="2.35312">
        <ele>78</ele>
        <time>2023-01-04T13:36:49Z</time>
      </trkpt>
      <trkpt lat="49.94508" lon="2.35312">
        <ele>78</ele>
        <time>2023-01-04T13:36:50Z</time>
      </trkpt>
      <trkpt lat="49.94509" lon="2.35313">
        <ele>77.9</ele>
        <time>2023-01-04T13:36:51Z</time>
      </trkpt>
      <trkpt lat="49.9451" lon="2.35313">
        <ele>77.9</ele>
        <time>2023-01-04T13:36:52Z</time>
      </trkpt>
      <trkpt lat="49.94511" lon="2.35314">
        <ele>77.8</ele>
        <time>2023-01-04T13:36:54Z</time>
      </trkpt>
      <trkpt lat="49.94513" lon="2.35314">
        <ele>77.8</ele>
        <time>2023-01-04T13:36:55Z</time>
      </trkpt>
      <trkpt lat="49.94514" lon="2.35315">
        <ele>77.7</ele>
        <time>2023-01-04T13:36:56Z</time>
      </trkpt>
      <trkpt lat="49.94515" lon="2.35316">
        <ele>77.7</ele>
        <time>2023-01-04T13:36:57Z</time>
      </trkpt>
      <trkpt lat="49.94516" lon="2.35316">
        <ele>77.6</ele>
        <time>2023-01-04T13:36:58Z</time>
      </trkpt>
      <trkpt lat="49.94517" lon="2.35316">
        <ele>77.6</ele>
        <time>2023-01-04T13:36:59Z</time>
      </trkpt>
      <trkpt lat="49.94518" lon="2.35317">
        <ele>77.6</ele>
        <time>2023-01-04T13:37:00Z</time>
      </trkpt>
      <trkpt lat="49.9452" lon="2.35317">
        <ele>77.5</ele>
        <time>2023-01-04T13:37:02Z</time>
      </trkpt>
      <trkpt lat="49.94521" lon="2.35318">
        <ele>77.4</ele>
        <time>2023-01-04T13:37:03Z</time>
      </trkpt>
      <trkpt lat="49.94522" lon="2.35318">
        <ele>77.4</ele>
        <time>2023-01-04T13:37:04Z</time>
      </trkpt>
      <trkpt lat="49.94523" lon="2.35319">
        <ele>77.4</ele>
        <time>2023-01-04T13:37:05Z</time>
      </trkpt>
      <trkpt lat="49.94524" lon="2.35319">
        <ele>77.3</ele>
        <time>2023-01-04T13:37:06Z</time>
      </trkpt>
      <trkpt lat="49.94525" lon="2.3532">
        <ele>77.3</ele>
        <time>2023-01-04T13:37:07Z</time>
      </trkpt>
      <trkpt lat="49.94526" lon="2.35321">
        <ele>77.2</ele>
        <time>2023-01-04T13:37:08Z</time>
      </trkpt>
      <trkpt lat="49.94527" lon="2.35322">
        <ele>77.2</ele>
        <time>2023-01-04T13:37:09Z</time>
      </trkpt>
      <trkpt lat="49.94529" lon="2.35323">
        <ele>77.1</ele>
        <time>2023-01-04T13:37:11Z</time>
      </trkpt>
      <trkpt lat="49.94531" lon="2.35324">
        <ele>77</ele>
        <time>2023-01-04T13:37:12Z</time>
      </trkpt>
      <trkpt lat="49.94531" lon="2.35325">
        <ele>77</ele>
        <time>2023-01-04T13:37:13Z</time>
      </trkpt>
      <trkpt lat="49.94532" lon="2.35326">
        <ele>76.9</ele>
        <time>2023-01-04T13:37:14Z</time>
      </trkpt>
      <trkpt lat="49.94533" lon="2.35326">
        <ele>76.9</ele>
        <time>2023-01-04T13:37:15Z</time>
      </trkpt>
      <trkpt lat="49.94534" lon="2.35327">
        <ele>76.9</ele>
        <time>2023-01-04T13:37:16Z</time>
      </trkpt>
      <trkpt lat="49.94535" lon="2.35328">
        <ele>76.8</ele>
        <time>2023-01-04T13:37:17Z</time>
      </trkpt>
      <trkpt lat="49.94537" lon="2.35329">
        <ele>76.7</ele>
        <time>2023-01-04T13:37:18Z</time>
      </trkpt>
      <trkpt lat="49.94538" lon="2.3533">
        <ele>76.7</ele>
        <time>2023-01-04T13:37:20Z</time>
      </trkpt>
      <trkpt lat="49.94538" lon="2.3533">
        <ele>76.7</ele>
        <time>2023-01-04T13:37:21Z</time>
      </trkpt>
      <trkpt lat="49.9454" lon="2.35332">
        <ele>76.6</ele>
        <time>2023-01-04T13:37:22Z</time>
      </trkpt>
      <trkpt lat="49.94541" lon="2.35333">
        <ele>76.6</ele>
        <time>2023-01-04T13:37:23Z</time>
      </trkpt>
      <trkpt lat="49.94542" lon="2.35334">
        <ele>76.5</ele>
        <time>2023-01-04T13:37:24Z</time>
      </trkpt>
      <trkpt lat="49.94542" lon="2.35334">
        <ele>76.5</ele>
        <time>2023-01-04T13:37:25Z</time>
      </trkpt>
      <trkpt lat="49.94544" lon="2.35335">
        <ele>76.5</ele>
        <time>2023-01-04T13:37:27Z</time>
      </trkpt>
      <trkpt lat="49.94545" lon="2.35335">
        <ele>76.5</ele>
        <time>2023-01-04T13:37:28Z</time>
      </trkpt>
      <trkpt lat="49.94547" lon="2.35336">
        <ele>76.4</ele>
        <time>2023-01-04T13:37:29Z</time>
      </trkpt>
      <trkpt lat="49.94548" lon="2.35336">
        <ele>76.4</ele>
        <time>2023-01-04T13:37:30Z</time>
      </trkpt>
      <trkpt lat="49.94548" lon="2.35337">
        <ele>76.3</ele>
        <time>2023-01-04T13:37:31Z</time>
      </trkpt>
      <trkpt lat="49.94551" lon="2.35337">
        <ele>76.3</ele>
        <time>2023-01-04T13:37:32Z</time>
      </trkpt>
      <trkpt lat="49.94552" lon="2.35338">
        <ele>76.2</ele>
        <time>2023-01-04T13:37:34Z</time>
      </trkpt>
      <trkpt lat="49.94553" lon="2.35338">
        <ele>76.2</ele>
        <time>2023-01-04T13:37:35Z</time>
      </trkpt>
      <trkpt lat="49.94554" lon="2.35338">
        <ele>76.2</ele>
        <time>2023-01-04T13:37:36Z</time>
      </trkpt>
      <trkpt lat="49.94555" lon="2.35339">
        <ele>76.2</ele>
        <time>2023-01-04T13:37:37Z</time>
      </trkpt>
      <trkpt lat="49.94556" lon="2.35339">
        <ele>76.1</ele>
        <time>2023-01-04T13:37:38Z</time>
      </trkpt>
      <trkpt lat="49.94558" lon="2.3534">
        <ele>76.1</ele>
        <time>2023-01-04T13:37:39Z</time>
      </trkpt>
      <trkpt lat="49.94559" lon="2.3534">
        <ele>76.1</ele>
        <time>2023-01-04T13:37:40Z</time>
      </trkpt>
      <trkpt lat="49.9456" lon="2.35341">
        <ele>76</ele>
        <time>2023-01-04T13:37:42Z</time>
      </trkpt>
      <trkpt lat="49.94561" lon="2.35342">
        <ele>76</ele>
        <time>2023-01-04T13:37:43Z</time>
      </trkpt>
      <trkpt lat="49.94561" lon="2.35342">
        <ele>76</ele>
        <time>2023-01-04T13:37:44Z</time>
      </trkpt>
      <trkpt lat="49.94563" lon="2.35343">
        <ele>75.9</ele>
        <time>2023-01-04T13:37:45Z</time>
      </trkpt>
      <trkpt lat="49.94564" lon="2.35344">
        <ele>75.9</ele>
        <time>2023-01-04T13:37:46Z</time>
      </trkpt>
      <trkpt lat="49.94566" lon="2.35345">
        <ele>75.9</ele>
        <time>2023-01-04T13:37:47Z</time>
      </trkpt>
      <trkpt lat="49.94567" lon="2.35346">
        <ele>75.8</ele>
        <time>2023-01-04T13:37:49Z</time>
      </trkpt>
      <trkpt lat="49.94568" lon="2.35347">
        <ele>75.8</ele>
        <time>2023-01-04T13:37:50Z</time>
      </trkpt>
      <trkpt lat="49.94569" lon="2.35348">
        <ele>75.8</ele>
        <time>2023-01-04T13:37:51Z</time>
      </trkpt>
      <trkpt lat="49.9457" lon="2.35349">
        <ele>75.8</ele>
        <time>2023-01-04T13:37:52Z</time>
      </trkpt>
      <trkpt lat="49.94571" lon="2.35349">
        <ele>75.8</ele>
        <time>2023-01-04T13:37:53Z</time>
      </trkpt>
      <trkpt lat="49.94573" lon="2.3535">
        <ele>75.7</ele>
        <time>2023-01-04T13:37:54Z</time>
      </trkpt>
      <trkpt lat="49.94574" lon="2.35351">
        <ele>75.7</ele>
        <time>2023-01-04T13:37:55Z</time>
      </trkpt>
      <trkpt lat="49.94576" lon="2.35353">
        <ele>75.7</ele>
        <time>2023-01-04T13:37:57Z</time>
      </trkpt>
      <trkpt lat="49.94576" lon="2.35354">
        <ele>75.7</ele>
        <time>2023-01-04T13:37:58Z</time>
      </trkpt>
      <trkpt lat="49.94577" lon="2.35354">
        <ele>75.6</ele>
        <time>2023-01-04T13:37:59Z</time>
      </trkpt>
      <trkpt lat="49.94579" lon="2.35356">
        <ele>75.6</ele>
        <time>2023-01-04T13:38:00Z</time>
      </trkpt>
      <trkpt lat="49.9458" lon="2.35357">
        <ele>75.6</ele>
        <time>2023-01-04T13:38:01Z</time>
      </trkpt>
      <trkpt lat="49.94581" lon="2.35357">
        <ele>75.6</ele>
        <time>2023-01-04T13:38:02Z</time>
      </trkpt>
      <trkpt lat="49.94582" lon="2.35358">
        <ele>75.6</ele>
        <time>2023-01-04T13:38:04Z</time>
      </trkpt>
      <trkpt lat="49.94584" lon="2.35359">
        <ele>75.6</ele>
        <time>2023-01-04T13:38:05Z</time>
      </trkpt>
      <trkpt lat="49.94585" lon="2.3536">
        <ele>75.6</ele>
        <time>2023-01-04T13:38:06Z</time>
      </trkpt>
      <trkpt lat="49.94586" lon="2.3536">
        <ele>75.6</ele>
        <time>2023-01-04T13:38:07Z</time>
      </trkpt>
      <trkpt lat="49.94587" lon="2.35361">
        <ele>75.6</ele>
        <time>2023-01-04T13:38:08Z</time>
      </trkpt>
      <trkpt lat="49.94588" lon="2.35362">
        <ele>75.6</ele>
        <time>2023-01-04T13:38:09Z</time>
      </trkpt>
      <trkpt lat="49.94589" lon="2.35362">
        <ele>75.6</ele>
        <time>2023-01-04T13:38:10Z</time>
      </trkpt>
      <trkpt lat="49.9459" lon="2.35362">
        <ele>75.6</ele>
        <time>2023-01-04T13:38:11Z</time>
      </trkpt>
      <trkpt lat="49.94591" lon="2.35363">
        <ele>75.6</ele>
        <time>2023-01-04T13:38:13Z</time>
      </trkpt>
      <trkpt lat="49.94592" lon="2.35363">
        <ele>75.6</ele>
        <time>2023-01-04T13:38:14Z</time>
      </trkpt>
      <trkpt lat="49.94593" lon="2.35364">
        <ele>75.6</ele>
        <time>2023-01-04T13:38:15Z</time>
      </trkpt>
      <trkpt lat="49.94594" lon="2.35364">
        <ele>75.6</ele>
        <time>2023-01-04T13:38:16Z</time>
      </trkpt>
      <trkpt lat="49.94595" lon="2.35365">
        <ele>75.6</ele>
        <time>2023-01-04T13:38:17Z</time>
      </trkpt>
      <trkpt lat="49.94596" lon="2.35365">
        <ele>75.6</ele>
        <time>2023-01-04T13:38:18Z</time>
      </trkpt>
      <trkpt lat="49.94598" lon="2.35366">
        <ele>75.6</ele>
        <time>2023-01-04T13:38:20Z</time>
      </trkpt>
      <trkpt lat="49.94598" lon="2.35366">
        <ele>75.6</ele>
        <time>2023-01-04T13:38:21Z</time>
      </trkpt>
      <trkpt lat="49.94599" lon="2.35367">
        <ele>75.6</ele>
        <time>2023-01-04T13:38:22Z</time>
      </trkpt>
      <trkpt lat="49.94601" lon="2.35367">
        <ele>75.6</ele>
        <time>2023-01-04T13:38:23Z</time>
      </trkpt>
      <trkpt lat="49.94601" lon="2.35367">
        <ele>75.6</ele>
        <time>2023-01-04T13:38:24Z</time>
      </trkpt>
      <trkpt lat="49.94603" lon="2.35368">
        <ele>75.6</ele>
        <time>2023-01-04T13:38:25Z</time>
      </trkpt>
      <trkpt lat="49.94604" lon="2.35368">
        <ele>75.6</ele>
        <time>2023-01-04T13:38:27Z</time>
      </trkpt>
      <trkpt lat="49.94605" lon="2.35369">
        <ele>75.6</ele>
        <time>2023-01-04T13:38:28Z</time>
      </trkpt>
      <trkpt lat="49.94606" lon="2.35369">
        <ele>75.6</ele>
        <time>2023-01-04T13:38:29Z</time>
      </trkpt>
      <trkpt lat="49.94607" lon="2.3537">
        <ele>75.6</ele>
        <time>2023-01-04T13:38:30Z</time>
      </trkpt>
      <trkpt lat="49.94608" lon="2.3537">
        <ele>75.6</ele>
        <time>2023-01-04T13:38:31Z</time>
      </trkpt>
      <trkpt lat="49.94609" lon="2.35371">
        <ele>75.6</ele>
        <time>2023-01-04T13:38:32Z</time>
      </trkpt>
      <trkpt lat="49.9461" lon="2.35373">
        <ele>75.6</ele>
        <time>2023-01-04T13:38:34Z</time>
      </trkpt>
      <trkpt lat="49.94611" lon="2.35374">
        <ele>75.6</ele>
        <time>2023-01-04T13:38:35Z</time>
      </trkpt>
      <trkpt lat="49.94612" lon="2.35375">
        <ele>75.6</ele>
        <time>2023-01-04T13:38:36Z</time>
      </trkpt>
      <trkpt lat="49.94613" lon="2.35376">
        <ele>75.6</ele>
        <time>2023-01-04T13:38:37Z</time>
      </trkpt>
      <trkpt lat="49.94614" lon="2.35377">
        <ele>75.6</ele>
        <time>2023-01-04T13:38:38Z</time>
      </trkpt>
      <trkpt lat="49.94616" lon="2.35378">
        <ele>75.6</ele>
        <time>2023-01-04T13:38:39Z</time>
      </trkpt>
      <trkpt lat="49.94617" lon="2.35379">
        <ele>75.6</ele>
        <time>2023-01-04T13:38:40Z</time>
      </trkpt>
      <trkpt lat="49.94618" lon="2.35379">
        <ele>75.6</ele>
        <time>2023-01-04T13:38:42Z</time>
      </trkpt>
      <trkpt lat="49.94619" lon="2.3538">
        <ele>75.6</ele>
        <time>2023-01-04T13:38:43Z</time>
      </trkpt>
      <trkpt lat="49.9462" lon="2.35381">
        <ele>75.6</ele>
        <time>2023-01-04T13:38:44Z</time>
      </trkpt>
      <trkpt lat="49.94621" lon="2.35381">
        <ele>75.6</ele>
        <time>2023-01-04T13:38:45Z</time>
      </trkpt>
      <trkpt lat="49.94621" lon="2.35381">
        <ele>75.6</ele>
        <time>2023-01-04T13:38:46Z</time>
      </trkpt>
      <trkpt lat="49.94622" lon="2.35382">
        <ele>75.6</ele>
        <time>2023-01-04T13:38:47Z</time>
      </trkpt>
      <trkpt lat="49.94623" lon="2.35383">
        <ele>75.6</ele>
        <time>2023-01-04T13:38:48Z</time>
      </trkpt>
      <trkpt lat="49.94625" lon="2.35384">
        <ele>75.6</ele>
        <time>2023-01-04T13:38:50Z</time>
      </trkpt>
      <trkpt lat="49.94626" lon="2.35384">
        <ele>75.6</ele>
        <time>2023-01-04T13:38:51Z</time>
      </trkpt>
      <trkpt lat="49.94627" lon="2.35385">
        <ele>75.6</ele>
        <time>2023-01-04T13:38:52Z</time>
      </trkpt>
      <trkpt lat="49.94628" lon="2.35386">
        <ele>75.7</ele>
        <time>2023-01-04T13:38:53Z</time>
      </trkpt>
      <trkpt lat="49.94629" lon="2.35386">
        <ele>75.7</ele>
        <time>2023-01-04T13:38:54Z</time>
      </trkpt>
      <trkpt lat="49.9463" lon="2.35387">
        <ele>75.7</ele>
        <time>2023-01-04T13:38:55Z</time>
      </trkpt>
      <trkpt lat="49.94631" lon="2.35388">
        <ele>75.7</ele>
        <time>2023-01-04T13:38:57Z</time>
      </trkpt>
      <trkpt lat="49.94632" lon="2.35388">
        <ele>75.8</ele>
        <time>2023-01-04T13:38:58Z</time>
      </trkpt>
      <trkpt lat="49.94634" lon="2.35389">
        <ele>75.8</ele>
        <time>2023-01-04T13:38:59Z</time>
      </trkpt>
      <trkpt lat="49.94635" lon="2.3539">
        <ele>75.8</ele>
        <time>2023-01-04T13:39:00Z</time>
      </trkpt>
      <trkpt lat="49.94636" lon="2.35391">
        <ele>75.9</ele>
        <time>2023-01-04T13:39:01Z</time>
      </trkpt>
      <trkpt lat="49.94637" lon="2.35391">
        <ele>75.9</ele>
        <time>2023-01-04T13:39:02Z</time>
      </trkpt>
      <trkpt lat="49.94638" lon="2.35392">
        <ele>75.9</ele>
        <time>2023-01-04T13:39:03Z</time>
      </trkpt>
      <trkpt lat="49.94639" lon="2.35393">
        <ele>76</ele>
        <time>2023-01-04T13:39:04Z</time>
      </trkpt>
      <trkpt lat="49.9464" lon="2.35393">
        <ele>76</ele>
        <time>2023-01-04T13:39:06Z</time>
      </trkpt>
      <trkpt lat="49.94641" lon="2.35394">
        <ele>76</ele>
        <time>2023-01-04T13:39:07Z</time>
      </trkpt>
      <trkpt lat="49.94642" lon="2.35394">
        <ele>76.1</ele>
        <time>2023-01-04T13:39:08Z</time>
      </trkpt>
      <trkpt lat="49.94644" lon="2.35395">
        <ele>76.1</ele>
        <time>2023-01-04T13:39:09Z</time>
      </trkpt>
      <trkpt lat="49.94646" lon="2.35397">
        <ele>76.1</ele>
        <time>2023-01-04T13:39:10Z</time>
      </trkpt>
      <trkpt lat="49.94647" lon="2.35397">
        <ele>76.1</ele>
        <time>2023-01-04T13:39:12Z</time>
      </trkpt>
      <trkpt lat="49.94648" lon="2.35398">
        <ele>76.1</ele>
        <time>2023-01-04T13:39:13Z</time>
      </trkpt>
      <trkpt lat="49.94649" lon="2.35398">
        <ele>76.2</ele>
        <time>2023-01-04T13:39:14Z</time>
      </trkpt>
      <trkpt lat="49.9465" lon="2.35399">
        <ele>76.2</ele>
        <time>2023-01-04T13:39:15Z</time>
      </trkpt>
      <trkpt lat="49.94651" lon="2.35399">
        <ele>76.2</ele>
        <time>2023-01-04T13:39:16Z</time>
      </trkpt>
      <trkpt lat="49.94652" lon="2.354">
        <ele>76.2</ele>
        <time>2023-01-04T13:39:17Z</time>
      </trkpt>
      <trkpt lat="49.94653" lon="2.354">
        <ele>76.2</ele>
        <time>2023-01-04T13:39:19Z</time>
      </trkpt>
      <trkpt lat="49.94654" lon="2.35401">
        <ele>76.2</ele>
        <time>2023-01-04T13:39:20Z</time>
      </trkpt>
      <trkpt lat="49.94655" lon="2.35402">
        <ele>76.2</ele>
        <time>2023-01-04T13:39:21Z</time>
      </trkpt>
      <trkpt lat="49.94656" lon="2.35403">
        <ele>76.2</ele>
        <time>2023-01-04T13:39:22Z</time>
      </trkpt>
      <trkpt lat="49.94657" lon="2.35404">
        <ele>76.3</ele>
        <time>2023-01-04T13:39:23Z</time>
      </trkpt>
      <trkpt lat="49.94658" lon="2.35405">
        <ele>76.3</ele>
        <time>2023-01-04T13:39:24Z</time>
      </trkpt>
      <trkpt lat="49.94659" lon="2.35406">
        <ele>76.3</ele>
        <time>2023-01-04T13:39:26Z</time>
      </trkpt>
      <trkpt lat="49.9466" lon="2.35406">
        <ele>76.3</ele>
        <time>2023-01-04T13:39:27Z</time>
      </trkpt>
      <trkpt lat="49.94661" lon="2.35407">
        <ele>76.3</ele>
        <time>2023-01-04T13:39:28Z</time>
      </trkpt>
      <trkpt lat="49.94662" lon="2.35408">
        <ele>76.3</ele>
        <time>2023-01-04T13:39:29Z</time>
      </trkpt>
      <trkpt lat="49.94663" lon="2.35409">
        <ele>76.4</ele>
        <time>2023-01-04T13:39:30Z</time>
      </trkpt>
      <trkpt lat="49.94664" lon="2.3541">
        <ele>76.4</ele>
        <time>2023-01-04T13:39:31Z</time>
      </trkpt>
      <trkpt lat="49.94665" lon="2.3541">
        <ele>76.4</ele>
        <time>2023-01-04T13:39:32Z</time>
      </trkpt>
      <trkpt lat="49.94666" lon="2.35411">
        <ele>76.4</ele>
        <time>2023-01-04T13:39:33Z</time>
      </trkpt>
      <trkpt lat="49.94667" lon="2.35412">
        <ele>76.4</ele>
        <time>2023-01-04T13:39:34Z</time>
      </trkpt>
      <trkpt lat="49.94669" lon="2.35412">
        <ele>76.5</ele>
        <time>2023-01-04T13:39:36Z</time>
      </trkpt>
      <trkpt lat="49.9467" lon="2.35413">
        <ele>76.5</ele>
        <time>2023-01-04T13:39:37Z</time>
      </trkpt>
      <trkpt lat="49.94671" lon="2.35414">
        <ele>76.5</ele>
        <time>2023-01-04T13:39:38Z</time>
      </trkpt>
      <trkpt lat="49.94672" lon="2.35414">
        <ele>76.6</ele>
        <time>2023-01-04T13:39:39Z</time>
      </trkpt>
      <trkpt lat="49.94673" lon="2.35415">
        <ele>76.6</ele>
        <time>2023-01-04T13:39:40Z</time>
      </trkpt>
      <trkpt lat="49.94674" lon="2.35415">
        <ele>76.7</ele>
        <time>2023-01-04T13:39:41Z</time>
      </trkpt>
      <trkpt lat="49.94675" lon="2.35416">
        <ele>76.7</ele>
        <time>2023-01-04T13:39:43Z</time>
      </trkpt>
      <trkpt lat="49.94677" lon="2.35417">
        <ele>76.8</ele>
        <time>2023-01-04T13:39:44Z</time>
      </trkpt>
      <trkpt lat="49.94678" lon="2.35418">
        <ele>76.8</ele>
        <time>2023-01-04T13:39:45Z</time>
      </trkpt>
      <trkpt lat="49.94679" lon="2.35419">
        <ele>76.9</ele>
        <time>2023-01-04T13:39:46Z</time>
      </trkpt>
      <trkpt lat="49.9468" lon="2.35419">
        <ele>76.9</ele>
        <time>2023-01-04T13:39:47Z</time>
      </trkpt>
      <trkpt lat="49.94681" lon="2.3542">
        <ele>76.9</ele>
        <time>2023-01-04T13:39:48Z</time>
      </trkpt>
      <trkpt lat="49.94683" lon="2.35421">
        <ele>77</ele>
        <time>2023-01-04T13:39:50Z</time>
      </trkpt>
      <trkpt lat="49.94684" lon="2.35422">
        <ele>77</ele>
        <time>2023-01-04T13:39:51Z</time>
      </trkpt>
      <trkpt lat="49.94685" lon="2.35422">
        <ele>77.1</ele>
        <time>2023-01-04T13:39:52Z</time>
      </trkpt>
      <trkpt lat="49.94686" lon="2.35423">
        <ele>77.1</ele>
        <time>2023-01-04T13:39:53Z</time>
      </trkpt>
      <trkpt lat="49.94687" lon="2.35424">
        <ele>77.2</ele>
        <time>2023-01-04T13:39:54Z</time>
      </trkpt>
      <trkpt lat="49.94688" lon="2.35424">
        <ele>77.2</ele>
        <time>2023-01-04T13:39:55Z</time>
      </trkpt>
      <trkpt lat="49.9469" lon="2.35425">
        <ele>77.3</ele>
        <time>2023-01-04T13:39:57Z</time>
      </trkpt>
      <trkpt lat="49.94691" lon="2.35426">
        <ele>77.3</ele>
        <time>2023-01-04T13:39:58Z</time>
      </trkpt>
      <trkpt lat="49.94692" lon="2.35426">
        <ele>77.4</ele>
        <time>2023-01-04T13:39:59Z</time>
      </trkpt>
      <trkpt lat="49.94693" lon="2.35428">
        <ele>77.4</ele>
        <time>2023-01-04T13:40:00Z</time>
      </trkpt>
      <trkpt lat="49.94694" lon="2.35428">
        <ele>77.5</ele>
        <time>2023-01-04T13:40:01Z</time>
      </trkpt>
      <trkpt lat="49.94694" lon="2.35429">
        <ele>77.5</ele>
        <time>2023-01-04T13:40:02Z</time>
      </trkpt>
      <trkpt lat="49.94695" lon="2.35429">
        <ele>77.5</ele>
        <time>2023-01-04T13:40:04Z</time>
      </trkpt>
      <trkpt lat="49.94696" lon="2.3543">
        <ele>77.6</ele>
        <time>2023-01-04T13:40:05Z</time>
      </trkpt>
      <trkpt lat="49.94697" lon="2.35431">
        <ele>77.6</ele>
        <time>2023-01-04T13:40:06Z</time>
      </trkpt>
      <trkpt lat="49.94698" lon="2.35432">
        <ele>77.7</ele>
        <time>2023-01-04T13:40:07Z</time>
      </trkpt>
      <trkpt lat="49.94699" lon="2.35432">
        <ele>77.7</ele>
        <time>2023-01-04T13:40:08Z</time>
      </trkpt>
      <trkpt lat="49.947" lon="2.35433">
        <ele>77.8</ele>
        <time>2023-01-04T13:40:09Z</time>
      </trkpt>
      <trkpt lat="49.94701" lon="2.35433">
        <ele>77.8</ele>
        <time>2023-01-04T13:40:10Z</time>
      </trkpt>
      <trkpt lat="49.94702" lon="2.35434">
        <ele>77.9</ele>
        <time>2023-01-04T13:40:12Z</time>
      </trkpt>
      <trkpt lat="49.94703" lon="2.35435">
        <ele>77.9</ele>
        <time>2023-01-04T13:40:13Z</time>
      </trkpt>
      <trkpt lat="49.94704" lon="2.35435">
        <ele>77.9</ele>
        <time>2023-01-04T13:40:14Z</time>
      </trkpt>
      <trkpt lat="49.94705" lon="2.35435">
        <ele>78</ele>
        <time>2023-01-04T13:40:15Z</time>
      </trkpt>
      <trkpt lat="49.94706" lon="2.35436">
        <ele>78</ele>
        <time>2023-01-04T13:40:16Z</time>
      </trkpt>
      <trkpt lat="49.94707" lon="2.35436">
        <ele>78.1</ele>
        <time>2023-01-04T13:40:17Z</time>
      </trkpt>
      <trkpt lat="49.94708" lon="2.35436">
        <ele>78.1</ele>
        <time>2023-01-04T13:40:18Z</time>
      </trkpt>
      <trkpt lat="49.94709" lon="2.35436">
        <ele>78.2</ele>
        <time>2023-01-04T13:40:20Z</time>
      </trkpt>
      <trkpt lat="49.9471" lon="2.35437">
        <ele>78.2</ele>
        <time>2023-01-04T13:40:21Z</time>
      </trkpt>
      <trkpt lat="49.9471" lon="2.35437">
        <ele>78.3</ele>
        <time>2023-01-04T13:40:22Z</time>
      </trkpt>
      <trkpt lat="49.9471" lon="2.35437">
        <ele>78.3</ele>
        <time>2023-01-04T13:40:24Z</time>
      </trkpt>
      <trkpt lat="49.9471" lon="2.35437">
        <ele>78.3</ele>
        <time>2023-01-04T13:40:25Z</time>
      </trkpt>
      <trkpt lat="49.9471" lon="2.35437">
        <ele>78.3</ele>
        <time>2023-01-04T13:40:27Z</time>
      </trkpt>
      <trkpt lat="49.9471" lon="2.35437">
        <ele>78.3</ele>
        <time>2023-01-04T13:40:28Z</time>
      </trkpt>
      <trkpt lat="49.9471" lon="2.35437">
        <ele>78.3</ele>
        <time>2023-01-04T13:40:29Z</time>
      </trkpt>
      <trkpt lat="49.9471" lon="2.35437">
        <ele>78.3</ele>
        <time>2023-01-04T13:40:31Z</time>
      </trkpt>
      <trkpt lat="49.9471" lon="2.35437">
        <ele>78.3</ele>
        <time>2023-01-04T13:40:32Z</time>
      </trkpt>
      <trkpt lat="49.9471" lon="2.35437">
        <ele>78.3</ele>
        <time>2023-01-04T13:40:33Z</time>
      </trkpt>
      <trkpt lat="49.9471" lon="2.35437">
        <ele>78.3</ele>
        <time>2023-01-04T13:40:35Z</time>
      </trkpt>
      <trkpt lat="49.9471" lon="2.35437">
        <ele>78.3</ele>
        <time>2023-01-04T13:40:36Z</time>
      </trkpt>
      <trkpt lat="49.94709" lon="2.35437">
        <ele>78.3</ele>
        <time>2023-01-04T13:40:38Z</time>
      </trkpt>
      <trkpt lat="49.94709" lon="2.35437">
        <ele>78.3</ele>
        <time>2023-01-04T13:40:39Z</time>
      </trkpt>
      <trkpt lat="49.94709" lon="2.35437">
        <ele>78.3</ele>
        <time>2023-01-04T13:40:40Z</time>
      </trkpt>
      <trkpt lat="49.94709" lon="2.35437">
        <ele>78.3</ele>
        <time>2023-01-04T13:40:41Z</time>
      </trkpt>
      <trkpt lat="49.94709" lon="2.35437">
        <ele>78.3</ele>
        <time>2023-01-04T13:40:42Z</time>
      </trkpt>
      <trkpt lat="49.94709" lon="2.35437">
        <ele>78.3</ele>
        <time>2023-01-04T13:40:43Z</time>
      </trkpt>
      <trkpt lat="49.94709" lon="2.35437">
        <ele>78.3</ele>
        <time>2023-01-04T13:40:44Z</time>
      </trkpt>
      <trkpt lat="49.94709" lon="2.35437">
        <ele>78.3</ele>
        <time>2023-01-04T13:40:45Z</time>
      </trkpt>
      <trkpt lat="49.94709" lon="2.35437">
        <ele>78.3</ele>
        <time>2023-01-04T13:40:46Z</time>
      </trkpt>
      <trkpt lat="49.94709" lon="2.35436">
        <ele>78.3</ele>
        <time>2023-01-04T13:40:47Z</time>
      </trkpt>
      <trkpt lat="49.94709" lon="2.35436">
        <ele>78.3</ele>
        <time>2023-01-04T13:40:48Z</time>
      </trkpt>
      <trkpt lat="49.94709" lon="2.35436">
        <ele>78.3</ele>
        <time>2023-01-04T13:40:49Z</time>
      </trkpt>
      <trkpt lat="49.94709" lon="2.35436">
        <ele>78.3</ele>
        <time>2023-01-04T13:40:50Z</time>
      </trkpt>
      <trkpt lat="49.94708" lon="2.35436">
        <ele>78.4</ele>
        <time>2023-01-04T13:40:51Z</time>
      </trkpt>
      <trkpt lat="49.94708" lon="2.35436">
        <ele>78.4</ele>
        <time>2023-01-04T13:40:52Z</time>
      </trkpt>
      <trkpt lat="49.94708" lon="2.35436">
        <ele>78.4</ele>
        <time>2023-01-04T13:40:53Z</time>
      </trkpt>
      <trkpt lat="49.94708" lon="2.35435">
        <ele>78.4</ele>
        <time>2023-01-04T13:40:54Z</time>
      </trkpt>
      <trkpt lat="49.94708" lon="2.35436">
        <ele>78.4</ele>
        <time>2023-01-04T13:40:55Z</time>
      </trkpt>
      <trkpt lat="49.94708" lon="2.35436">
        <ele>78.4</ele>
        <time>2023-01-04T13:40:56Z</time>
      </trkpt>
      <trkpt lat="49.94709" lon="2.35436">
        <ele>78.5</ele>
        <time>2023-01-04T13:40:57Z</time>
      </trkpt>
      <trkpt lat="49.94709" lon="2.35437">
        <ele>78.5</ele>
        <time>2023-01-04T13:40:58Z</time>
      </trkpt>
      <trkpt lat="49.9471" lon="2.35437">
        <ele>78.5</ele>
        <time>2023-01-04T13:40:59Z</time>
      </trkpt>
      <trkpt lat="49.9471" lon="2.35438">
        <ele>78.5</ele>
        <time>2023-01-04T13:41:00Z</time>
      </trkpt>
      <trkpt lat="49.94709" lon="2.35438">
        <ele>78.5</ele>
        <time>2023-01-04T13:41:01Z</time>
      </trkpt>
      <trkpt lat="49.94709" lon="2.35438">
        <ele>78.6</ele>
        <time>2023-01-04T13:41:02Z</time>
      </trkpt>
      <trkpt lat="49.94709" lon="2.35438">
        <ele>78.6</ele>
        <time>2023-01-04T13:41:03Z</time>
      </trkpt>
      <trkpt lat="49.94709" lon="2.35438">
        <ele>78.6</ele>
        <time>2023-01-04T13:41:04Z</time>
      </trkpt>
      <trkpt lat="49.94709" lon="2.35438">
        <ele>78.6</ele>
        <time>2023-01-04T13:41:05Z</time>
      </trkpt>
      <trkpt lat="49.94709" lon="2.35438">
        <ele>78.6</ele>
        <time>2023-01-04T13:41:06Z</time>
      </trkpt>
      <trkpt lat="49.94709" lon="2.35438">
        <ele>78.6</ele>
        <time>2023-01-04T13:41:07Z</time>
      </trkpt>
      <trkpt lat="49.94709" lon="2.35438">
        <ele>78.6</ele>
        <time>2023-01-04T13:41:08Z</time>
      </trkpt>
      <trkpt lat="49.94709" lon="2.35438">
        <ele>78.6</ele>
        <time>2023-01-04T13:41:09Z</time>
      </trkpt>
      <trkpt lat="49.94709" lon="2.35438">
        <ele>78.6</ele>
        <time>2023-01-04T13:41:10Z</time>
      </trkpt>
      <trkpt lat="49.94709" lon="2.35438">
        <ele>78.6</ele>
        <time>2023-01-04T13:41:11Z</time>
      </trkpt>
      <trkpt lat="49.94709" lon="2.35438">
        <ele>78.6</ele>
        <time>2023-01-04T13:41:12Z</time>
      </trkpt>
      <trkpt lat="49.94709" lon="2.35438">
        <ele>78.6</ele>
        <time>2023-01-04T13:41:13Z</time>
      </trkpt>
      <trkpt lat="49.94709" lon="2.35438">
        <ele>78.6</ele>
        <time>2023-01-04T13:41:14Z</time>
      </trkpt>
      <trkpt lat="49.94709" lon="2.35438">
        <ele>78.6</ele>
        <time>2023-01-04T13:41:15Z</time>
      </trkpt>
      <trkpt lat="49.94709" lon="2.35438">
        <ele>78.6</ele>
        <time>2023-01-04T13:41:16Z</time>
      </trkpt>
      <trkpt lat="49.94709" lon="2.35438">
        <ele>78.6</ele>
        <time>2023-01-04T13:41:17Z</time>
      </trkpt>
      <trkpt lat="49.94708" lon="2.35438">
        <ele>78.6</ele>
        <time>2023-01-04T13:41:18Z</time>
      </trkpt>
      <trkpt lat="49.94707" lon="2.35437">
        <ele>78.7</ele>
        <time>2023-01-04T13:41:19Z</time>
      </trkpt>
      <trkpt lat="49.94707" lon="2.35438">
        <ele>78.7</ele>
        <time>2023-01-04T13:41:20Z</time>
      </trkpt>
      <trkpt lat="49.94708" lon="2.35438">
        <ele>78.7</ele>
        <time>2023-01-04T13:41:21Z</time>
      </trkpt>
      <trkpt lat="49.94708" lon="2.35438">
        <ele>78.8</ele>
        <time>2023-01-04T13:41:22Z</time>
      </trkpt>
      <trkpt lat="49.94709" lon="2.35439">
        <ele>78.8</ele>
        <time>2023-01-04T13:41:23Z</time>
      </trkpt>
      <trkpt lat="49.9471" lon="2.3544">
        <ele>78.9</ele>
        <time>2023-01-04T13:41:24Z</time>
      </trkpt>
      <trkpt lat="49.94712" lon="2.35441">
        <ele>79</ele>
        <time>2023-01-04T13:41:25Z</time>
      </trkpt>
      <trkpt lat="49.94713" lon="2.35442">
        <ele>79</ele>
        <time>2023-01-04T13:41:26Z</time>
      </trkpt>
      <trkpt lat="49.94714" lon="2.35442">
        <ele>79.1</ele>
        <time>2023-01-04T13:41:27Z</time>
      </trkpt>
      <trkpt lat="49.94715" lon="2.35443">
        <ele>79.1</ele>
        <time>2023-01-04T13:41:28Z</time>
      </trkpt>
      <trkpt lat="49.94716" lon="2.35444">
        <ele>79.2</ele>
        <time>2023-01-04T13:41:29Z</time>
      </trkpt>
      <trkpt lat="49.94717" lon="2.35445">
        <ele>79.3</ele>
        <time>2023-01-04T13:41:30Z</time>
      </trkpt>
      <trkpt lat="49.94717" lon="2.35446">
        <ele>79.4</ele>
        <time>2023-01-04T13:41:31Z</time>
      </trkpt>
      <trkpt lat="49.94718" lon="2.35447">
        <ele>79.4</ele>
        <time>2023-01-04T13:41:32Z</time>
      </trkpt>
      <trkpt lat="49.94719" lon="2.35448">
        <ele>79.5</ele>
        <time>2023-01-04T13:41:33Z</time>
      </trkpt>
      <trkpt lat="49.94719" lon="2.3545">
        <ele>79.5</ele>
        <time>2023-01-04T13:41:34Z</time>
      </trkpt>
      <trkpt lat="49.9472" lon="2.35451">
        <ele>79.8</ele>
        <time>2023-01-04T13:41:35Z</time>
      </trkpt>
      <trkpt lat="49.9472" lon="2.35453">
        <ele>79.8</ele>
        <time>2023-01-04T13:41:36Z</time>
      </trkpt>
      <trkpt lat="49.9472" lon="2.35454">
        <ele>79.8</ele>
        <time>2023-01-04T13:41:38Z</time>
      </trkpt>
      <trkpt lat="49.9472" lon="2.35455">
        <ele>79.8</ele>
        <time>2023-01-04T13:41:39Z</time>
      </trkpt>
      <trkpt lat="49.9472" lon="2.35457">
        <ele>79.8</ele>
        <time>2023-01-04T13:41:40Z</time>
      </trkpt>
      <trkpt lat="49.9472" lon="2.3546">
        <ele>79.9</ele>
        <time>2023-01-04T13:41:41Z</time>
      </trkpt>
      <trkpt lat="49.9472" lon="2.35461">
        <ele>79.9</ele>
        <time>2023-01-04T13:41:42Z</time>
      </trkpt>
      <trkpt lat="49.9472" lon="2.35462">
        <ele>79.9</ele>
        <time>2023-01-04T13:41:43Z</time>
      </trkpt>
      <trkpt lat="49.9472" lon="2.35464">
        <ele>79.9</ele>
        <time>2023-01-04T13:41:44Z</time>
      </trkpt>
      <trkpt lat="49.9472" lon="2.35467">
        <ele>79.9</ele>
        <time>2023-01-04T13:41:46Z</time>
      </trkpt>
      <trkpt lat="49.9472" lon="2.35469">
        <ele>79.9</ele>
        <time>2023-01-04T13:41:47Z</time>
      </trkpt>
      <trkpt lat="49.9472" lon="2.3547">
        <ele>79.9</ele>
        <time>2023-01-04T13:41:48Z</time>
      </trkpt>
      <trkpt lat="49.9472" lon="2.35472">
        <ele>79.9</ele>
        <time>2023-01-04T13:41:49Z</time>
      </trkpt>
      <trkpt lat="49.9472" lon="2.35474">
        <ele>80</ele>
        <time>2023-01-04T13:41:50Z</time>
      </trkpt>
      <trkpt lat="49.9472" lon="2.35477">
        <ele>80</ele>
        <time>2023-01-04T13:41:51Z</time>
      </trkpt>
      <trkpt lat="49.9472" lon="2.35478">
        <ele>80</ele>
        <time>2023-01-04T13:41:53Z</time>
      </trkpt>
      <trkpt lat="49.9472" lon="2.35481">
        <ele>80</ele>
        <time>2023-01-04T13:41:54Z</time>
      </trkpt>
      <trkpt lat="49.94721" lon="2.35483">
        <ele>80</ele>
        <time>2023-01-04T13:41:55Z</time>
      </trkpt>
      <trkpt lat="49.94721" lon="2.35484">
        <ele>80</ele>
        <time>2023-01-04T13:41:56Z</time>
      </trkpt>
      <trkpt lat="49.94721" lon="2.35486">
        <ele>80</ele>
        <time>2023-01-04T13:41:57Z</time>
      </trkpt>
      <trkpt lat="49.94721" lon="2.35487">
        <ele>80</ele>
        <time>2023-01-04T13:41:58Z</time>
      </trkpt>
      <trkpt lat="49.94721" lon="2.35489">
        <ele>80.1</ele>
        <time>2023-01-04T13:41:59Z</time>
      </trkpt>
      <trkpt lat="49.94722" lon="2.3549">
        <ele>80.1</ele>
        <time>2023-01-04T13:42:00Z</time>
      </trkpt>
      <trkpt lat="49.94722" lon="2.35492">
        <ele>80.1</ele>
        <time>2023-01-04T13:42:02Z</time>
      </trkpt>
      <trkpt lat="49.94722" lon="2.35494">
        <ele>80.1</ele>
        <time>2023-01-04T13:42:03Z</time>
      </trkpt>
      <trkpt lat="49.94723" lon="2.35498">
        <ele>80.1</ele>
        <time>2023-01-04T13:42:04Z</time>
      </trkpt>
      <trkpt lat="49.94723" lon="2.355">
        <ele>80.1</ele>
        <time>2023-01-04T13:42:05Z</time>
      </trkpt>
      <trkpt lat="49.94723" lon="2.35502">
        <ele>80.2</ele>
        <time>2023-01-04T13:42:06Z</time>
      </trkpt>
      <trkpt lat="49.94723" lon="2.35502">
        <ele>80.2</ele>
        <time>2023-01-04T13:42:07Z</time>
      </trkpt>
      <trkpt lat="49.94723" lon="2.35504">
        <ele>80.2</ele>
        <time>2023-01-04T13:42:08Z</time>
      </trkpt>
      <trkpt lat="49.94723" lon="2.35505">
        <ele>80.2</ele>
        <time>2023-01-04T13:42:10Z</time>
      </trkpt>
      <trkpt lat="49.94723" lon="2.35507">
        <ele>80.2</ele>
        <time>2023-01-04T13:42:11Z</time>
      </trkpt>
      <trkpt lat="49.94724" lon="2.3551">
        <ele>80.2</ele>
        <time>2023-01-04T13:42:12Z</time>
      </trkpt>
      <trkpt lat="49.94724" lon="2.35511">
        <ele>80.2</ele>
        <time>2023-01-04T13:42:13Z</time>
      </trkpt>
      <trkpt lat="49.94724" lon="2.35513">
        <ele>80.2</ele>
        <time>2023-01-04T13:42:14Z</time>
      </trkpt>
      <trkpt lat="49.94724" lon="2.35514">
        <ele>80.2</ele>
        <time>2023-01-04T13:42:15Z</time>
      </trkpt>
      <trkpt lat="49.94724" lon="2.35516">
        <ele>80.3</ele>
        <time>2023-01-04T13:42:16Z</time>
      </trkpt>
      <trkpt lat="49.94724" lon="2.35518">
        <ele>80.3</ele>
        <time>2023-01-04T13:42:17Z</time>
      </trkpt>
      <trkpt lat="49.94724" lon="2.35521">
        <ele>80.3</ele>
        <time>2023-01-04T13:42:19Z</time>
      </trkpt>
      <trkpt lat="49.94725" lon="2.35523">
        <ele>80.3</ele>
        <time>2023-01-04T13:42:20Z</time>
      </trkpt>
      <trkpt lat="49.94725" lon="2.35524">
        <ele>80.3</ele>
        <time>2023-01-04T13:42:21Z</time>
      </trkpt>
      <trkpt lat="49.94725" lon="2.35526">
        <ele>80.3</ele>
        <time>2023-01-04T13:42:22Z</time>
      </trkpt>
      <trkpt lat="49.94726" lon="2.35527">
        <ele>80.3</ele>
        <time>2023-01-04T13:42:23Z</time>
      </trkpt>
      <trkpt lat="49.94726" lon="2.35529">
        <ele>80.4</ele>
        <time>2023-01-04T13:42:24Z</time>
      </trkpt>
      <trkpt lat="49.94727" lon="2.3553">
        <ele>80.4</ele>
        <time>2023-01-04T13:42:25Z</time>
      </trkpt>
      <trkpt lat="49.94728" lon="2.35532">
        <ele>80.4</ele>
        <time>2023-01-04T13:42:27Z</time>
      </trkpt>
      <trkpt lat="49.94729" lon="2.35534">
        <ele>80.4</ele>
        <time>2023-01-04T13:42:28Z</time>
      </trkpt>
      <trkpt lat="49.9473" lon="2.35536">
        <ele>80.5</ele>
        <time>2023-01-04T13:42:29Z</time>
      </trkpt>
      <trkpt lat="49.94731" lon="2.35538">
        <ele>80.5</ele>
        <time>2023-01-04T13:42:30Z</time>
      </trkpt>
      <trkpt lat="49.94732" lon="2.35539">
        <ele>80.5</ele>
        <time>2023-01-04T13:42:31Z</time>
      </trkpt>
      <trkpt lat="49.94734" lon="2.35542">
        <ele>80.6</ele>
        <time>2023-01-04T13:42:32Z</time>
      </trkpt>
      <trkpt lat="49.94735" lon="2.35543">
        <ele>80.6</ele>
        <time>2023-01-04T13:42:34Z</time>
      </trkpt>
      <trkpt lat="49.94735" lon="2.35544">
        <ele>80.6</ele>
        <time>2023-01-04T13:42:35Z</time>
      </trkpt>
      <trkpt lat="49.94736" lon="2.35545">
        <ele>80.7</ele>
        <time>2023-01-04T13:42:36Z</time>
      </trkpt>
      <trkpt lat="49.94737" lon="2.35547">
        <ele>80.7</ele>
        <time>2023-01-04T13:42:37Z</time>
      </trkpt>
      <trkpt lat="49.94738" lon="2.35549">
        <ele>80.7</ele>
        <time>2023-01-04T13:42:38Z</time>
      </trkpt>
      <trkpt lat="49.94739" lon="2.3555">
        <ele>80.7</ele>
        <time>2023-01-04T13:42:39Z</time>
      </trkpt>
      <trkpt lat="49.94739" lon="2.35552">
        <ele>80.8</ele>
        <time>2023-01-04T13:42:41Z</time>
      </trkpt>
      <trkpt lat="49.94741" lon="2.35554">
        <ele>80.8</ele>
        <time>2023-01-04T13:42:42Z</time>
      </trkpt>
      <trkpt lat="49.94741" lon="2.35555">
        <ele>80.8</ele>
        <time>2023-01-04T13:42:43Z</time>
      </trkpt>
      <trkpt lat="49.94742" lon="2.35556">
        <ele>80.9</ele>
        <time>2023-01-04T13:42:44Z</time>
      </trkpt>
      <trkpt lat="49.94743" lon="2.35557">
        <ele>80.9</ele>
        <time>2023-01-04T13:42:45Z</time>
      </trkpt>
      <trkpt lat="49.94744" lon="2.35558">
        <ele>80.9</ele>
        <time>2023-01-04T13:42:46Z</time>
      </trkpt>
      <trkpt lat="49.94745" lon="2.35559">
        <ele>80.9</ele>
        <time>2023-01-04T13:42:47Z</time>
      </trkpt>
      <trkpt lat="49.94746" lon="2.3556">
        <ele>81</ele>
        <time>2023-01-04T13:42:49Z</time>
      </trkpt>
      <trkpt lat="49.94747" lon="2.35561">
        <ele>81</ele>
        <time>2023-01-04T13:42:50Z</time>
      </trkpt>
      <trkpt lat="49.94748" lon="2.35561">
        <ele>81</ele>
        <time>2023-01-04T13:42:51Z</time>
      </trkpt>
      <trkpt lat="49.94749" lon="2.35562">
        <ele>81</ele>
        <time>2023-01-04T13:42:52Z</time>
      </trkpt>
      <trkpt lat="49.94749" lon="2.35562">
        <ele>81</ele>
        <time>2023-01-04T13:42:53Z</time>
      </trkpt>
      <trkpt lat="49.94749" lon="2.35562">
        <ele>81</ele>
        <time>2023-01-04T13:42:54Z</time>
      </trkpt>
      <trkpt lat="49.9475" lon="2.35562">
        <ele>81</ele>
        <time>2023-01-04T13:42:56Z</time>
      </trkpt>
      <trkpt lat="49.9475" lon="2.35562">
        <ele>81</ele>
        <time>2023-01-04T13:42:57Z</time>
      </trkpt>
      <trkpt lat="49.9475" lon="2.35562">
        <ele>81</ele>
        <time>2023-01-04T13:42:58Z</time>
      </trkpt>
      <trkpt lat="49.9475" lon="2.35562">
        <ele>81</ele>
        <time>2023-01-04T13:42:59Z</time>
      </trkpt>
      <trkpt lat="49.9475" lon="2.35562">
        <ele>81</ele>
        <time>2023-01-04T13:43:01Z</time>
      </trkpt>
      <trkpt lat="49.9475" lon="2.35563">
        <ele>81</ele>
        <time>2023-01-04T13:43:02Z</time>
      </trkpt>
      <trkpt lat="49.9475" lon="2.35563">
        <ele>81</ele>
        <time>2023-01-04T13:43:03Z</time>
      </trkpt>
      <trkpt lat="49.94751" lon="2.35563">
        <ele>81</ele>
        <time>2023-01-04T13:43:05Z</time>
      </trkpt>
      <trkpt lat="49.94751" lon="2.35563">
        <ele>81</ele>
        <time>2023-01-04T13:43:06Z</time>
      </trkpt>
      <trkpt lat="49.94751" lon="2.35563">
        <ele>81</ele>
        <time>2023-01-04T13:43:08Z</time>
      </trkpt>
      <trkpt lat="49.94751" lon="2.35563">
        <ele>81</ele>
        <time>2023-01-04T13:43:09Z</time>
      </trkpt>
      <trkpt lat="49.94751" lon="2.35563">
        <ele>81</ele>
        <time>2023-01-04T13:43:10Z</time>
      </trkpt>
      <trkpt lat="49.94751" lon="2.35563">
        <ele>81</ele>
        <time>2023-01-04T13:43:12Z</time>
      </trkpt>
      <trkpt lat="49.94752" lon="2.35563">
        <ele>81</ele>
        <time>2023-01-04T13:43:13Z</time>
      </trkpt>
      <trkpt lat="49.94752" lon="2.35563">
        <ele>81</ele>
        <time>2023-01-04T13:43:14Z</time>
      </trkpt>
      <trkpt lat="49.94752" lon="2.35563">
        <ele>81</ele>
        <time>2023-01-04T13:43:15Z</time>
      </trkpt>
      <trkpt lat="49.94752" lon="2.35563">
        <ele>81</ele>
        <time>2023-01-04T13:43:16Z</time>
      </trkpt>
      <trkpt lat="49.94752" lon="2.35564">
        <ele>81</ele>
        <time>2023-01-04T13:43:17Z</time>
      </trkpt>
      <trkpt lat="49.94752" lon="2.35564">
        <ele>81</ele>
        <time>2023-01-04T13:43:18Z</time>
      </trkpt>
      <trkpt lat="49.94753" lon="2.35564">
        <ele>81</ele>
        <time>2023-01-04T13:43:19Z</time>
      </trkpt>
      <trkpt lat="49.94753" lon="2.35564">
        <ele>81</ele>
        <time>2023-01-04T13:43:20Z</time>
      </trkpt>
      <trkpt lat="49.94753" lon="2.35564">
        <ele>81</ele>
        <time>2023-01-04T13:43:21Z</time>
      </trkpt>
      <trkpt lat="49.94753" lon="2.35564">
        <ele>81</ele>
        <time>2023-01-04T13:43:22Z</time>
      </trkpt>
      <trkpt lat="49.94753" lon="2.35564">
        <ele>81</ele>
        <time>2023-01-04T13:43:23Z</time>
      </trkpt>
      <trkpt lat="49.94753" lon="2.35564">
        <ele>81</ele>
        <time>2023-01-04T13:43:24Z</time>
      </trkpt>
      <trkpt lat="49.94753" lon="2.35564">
        <ele>81</ele>
        <time>2023-01-04T13:43:25Z</time>
      </trkpt>
      <trkpt lat="49.94754" lon="2.35564">
        <ele>81</ele>
        <time>2023-01-04T13:43:26Z</time>
      </trkpt>
      <trkpt lat="49.94754" lon="2.35564">
        <ele>81</ele>
        <time>2023-01-04T13:43:27Z</time>
      </trkpt>
      <trkpt lat="49.94754" lon="2.35565">
        <ele>81</ele>
        <time>2023-01-04T13:43:28Z</time>
      </trkpt>
      <trkpt lat="49.94754" lon="2.35565">
        <ele>81</ele>
        <time>2023-01-04T13:43:29Z</time>
      </trkpt>
      <trkpt lat="49.94754" lon="2.35565">
        <ele>81</ele>
        <time>2023-01-04T13:43:30Z</time>
      </trkpt>
      <trkpt lat="49.94754" lon="2.35565">
        <ele>81</ele>
        <time>2023-01-04T13:43:31Z</time>
      </trkpt>
      <trkpt lat="49.94755" lon="2.35565">
        <ele>81</ele>
        <time>2023-01-04T13:43:33Z</time>
      </trkpt>
      <trkpt lat="49.94755" lon="2.35565">
        <ele>81</ele>
        <time>2023-01-04T13:43:34Z</time>
      </trkpt>
      <trkpt lat="49.94755" lon="2.35565">
        <ele>81</ele>
        <time>2023-01-04T13:43:35Z</time>
      </trkpt>
      <trkpt lat="49.94755" lon="2.35565">
        <ele>81</ele>
        <time>2023-01-04T13:43:36Z</time>
      </trkpt>
      <trkpt lat="49.94757" lon="2.35568">
        <ele>81</ele>
        <time>2023-01-04T13:43:38Z</time>
      </trkpt>
      <trkpt lat="49.94758" lon="2.35568">
        <ele>81</ele>
        <time>2023-01-04T13:43:39Z</time>
      </trkpt>
      <trkpt lat="49.94759" lon="2.3557">
        <ele>81</ele>
        <time>2023-01-04T13:43:40Z</time>
      </trkpt>
      <trkpt lat="49.9476" lon="2.3557">
        <ele>81</ele>
        <time>2023-01-04T13:43:41Z</time>
      </trkpt>
      <trkpt lat="49.94761" lon="2.35571">
        <ele>81</ele>
        <time>2023-01-04T13:43:42Z</time>
      </trkpt>
      <trkpt lat="49.94763" lon="2.35572">
        <ele>81.1</ele>
        <time>2023-01-04T13:43:43Z</time>
      </trkpt>
      <trkpt lat="49.94764" lon="2.35572">
        <ele>81.1</ele>
        <time>2023-01-04T13:43:44Z</time>
      </trkpt>
      <trkpt lat="49.94765" lon="2.35572">
        <ele>81.1</ele>
        <time>2023-01-04T13:43:46Z</time>
      </trkpt>
      <trkpt lat="49.94766" lon="2.35572">
        <ele>81.1</ele>
        <time>2023-01-04T13:43:47Z</time>
      </trkpt>
      <trkpt lat="49.94767" lon="2.35572">
        <ele>81.1</ele>
        <time>2023-01-04T13:43:48Z</time>
      </trkpt>
      <trkpt lat="49.94768" lon="2.35572">
        <ele>81.1</ele>
        <time>2023-01-04T13:43:49Z</time>
      </trkpt>
      <trkpt lat="49.94769" lon="2.3557">
        <ele>81.1</ele>
        <time>2023-01-04T13:43:50Z</time>
      </trkpt>
      <trkpt lat="49.9477" lon="2.35569">
        <ele>81.1</ele>
        <time>2023-01-04T13:43:51Z</time>
      </trkpt>
      <trkpt lat="49.94771" lon="2.35568">
        <ele>81.1</ele>
        <time>2023-01-04T13:43:52Z</time>
      </trkpt>
      <trkpt lat="49.94773" lon="2.35566">
        <ele>81.1</ele>
        <time>2023-01-04T13:43:53Z</time>
      </trkpt>
      <trkpt lat="49.94773" lon="2.35564">
        <ele>81.1</ele>
        <time>2023-01-04T13:43:55Z</time>
      </trkpt>
      <trkpt lat="49.94774" lon="2.35563">
        <ele>81.1</ele>
        <time>2023-01-04T13:43:56Z</time>
      </trkpt>
      <trkpt lat="49.94774" lon="2.35562">
        <ele>81.1</ele>
        <time>2023-01-04T13:43:57Z</time>
      </trkpt>
      <trkpt lat="49.94775" lon="2.35561">
        <ele>81.1</ele>
        <time>2023-01-04T13:43:58Z</time>
      </trkpt>
      <trkpt lat="49.94776" lon="2.35559">
        <ele>81.1</ele>
        <time>2023-01-04T13:43:59Z</time>
      </trkpt>
      <trkpt lat="49.94777" lon="2.35557">
        <ele>81.1</ele>
        <time>2023-01-04T13:44:00Z</time>
      </trkpt>
      <trkpt lat="49.94777" lon="2.35555">
        <ele>81.1</ele>
        <time>2023-01-04T13:44:02Z</time>
      </trkpt>
      <trkpt lat="49.94778" lon="2.35554">
        <ele>81.2</ele>
        <time>2023-01-04T13:44:03Z</time>
      </trkpt>
      <trkpt lat="49.94778" lon="2.35552">
        <ele>81.2</ele>
        <time>2023-01-04T13:44:04Z</time>
      </trkpt>
      <trkpt lat="49.94779" lon="2.35551">
        <ele>81.2</ele>
        <time>2023-01-04T13:44:05Z</time>
      </trkpt>
      <trkpt lat="49.94779" lon="2.35549">
        <ele>81.2</ele>
        <time>2023-01-04T13:44:06Z</time>
      </trkpt>
      <trkpt lat="49.9478" lon="2.35548">
        <ele>81.2</ele>
        <time>2023-01-04T13:44:07Z</time>
      </trkpt>
      <trkpt lat="49.9478" lon="2.35547">
        <ele>81.2</ele>
        <time>2023-01-04T13:44:08Z</time>
      </trkpt>
      <trkpt lat="49.94781" lon="2.35546">
        <ele>81.2</ele>
        <time>2023-01-04T13:44:10Z</time>
      </trkpt>
      <trkpt lat="49.94781" lon="2.35544">
        <ele>81.2</ele>
        <time>2023-01-04T13:44:11Z</time>
      </trkpt>
      <trkpt lat="49.94781" lon="2.35543">
        <ele>81.2</ele>
        <time>2023-01-04T13:44:12Z</time>
      </trkpt>
      <trkpt lat="49.94781" lon="2.35542">
        <ele>81.2</ele>
        <time>2023-01-04T13:44:13Z</time>
      </trkpt>
      <trkpt lat="49.94782" lon="2.35541">
        <ele>81.3</ele>
        <time>2023-01-04T13:44:14Z</time>
      </trkpt>
      <trkpt lat="49.94782" lon="2.35539">
        <ele>81.3</ele>
        <time>2023-01-04T13:44:16Z</time>
      </trkpt>
      <trkpt lat="49.94783" lon="2.35538">
        <ele>81.3</ele>
        <time>2023-01-04T13:44:17Z</time>
      </trkpt>
      <trkpt lat="49.94784" lon="2.35537">
        <ele>81.3</ele>
        <time>2023-01-04T13:44:18Z</time>
      </trkpt>
      <trkpt lat="49.94785" lon="2.35535">
        <ele>81.3</ele>
        <time>2023-01-04T13:44:19Z</time>
      </trkpt>
      <trkpt lat="49.94786" lon="2.35534">
        <ele>81.3</ele>
        <time>2023-01-04T13:44:20Z</time>
      </trkpt>
      <trkpt lat="49.94786" lon="2.35533">
        <ele>81.3</ele>
        <time>2023-01-04T13:44:21Z</time>
      </trkpt>
      <trkpt lat="49.94787" lon="2.35532">
        <ele>81.3</ele>
        <time>2023-01-04T13:44:22Z</time>
      </trkpt>
      <trkpt lat="49.94789" lon="2.35531">
        <ele>81.3</ele>
        <time>2023-01-04T13:44:24Z</time>
      </trkpt>
      <trkpt lat="49.9479" lon="2.3553">
        <ele>81.4</ele>
        <time>2023-01-04T13:44:25Z</time>
      </trkpt>
      <trkpt lat="49.94791" lon="2.3553">
        <ele>81.4</ele>
        <time>2023-01-04T13:44:26Z</time>
      </trkpt>
      <trkpt lat="49.94792" lon="2.35529">
        <ele>81.4</ele>
        <time>2023-01-04T13:44:27Z</time>
      </trkpt>
      <trkpt lat="49.94792" lon="2.35528">
        <ele>81.4</ele>
        <time>2023-01-04T13:44:28Z</time>
      </trkpt>
      <trkpt lat="49.94793" lon="2.35527">
        <ele>81.4</ele>
        <time>2023-01-04T13:44:29Z</time>
      </trkpt>
      <trkpt lat="49.94795" lon="2.35525">
        <ele>81.4</ele>
        <time>2023-01-04T13:44:31Z</time>
      </trkpt>
      <trkpt lat="49.94795" lon="2.35524">
        <ele>81.4</ele>
        <time>2023-01-04T13:44:32Z</time>
      </trkpt>
      <trkpt lat="49.94796" lon="2.35523">
        <ele>81.4</ele>
        <time>2023-01-04T13:44:33Z</time>
      </trkpt>
      <trkpt lat="49.94797" lon="2.35522">
        <ele>81.4</ele>
        <time>2023-01-04T13:44:34Z</time>
      </trkpt>
      <trkpt lat="49.94798" lon="2.35521">
        <ele>81.5</ele>
        <time>2023-01-04T13:44:35Z</time>
      </trkpt>
      <trkpt lat="49.94798" lon="2.35521">
        <ele>81.5</ele>
        <time>2023-01-04T13:44:36Z</time>
      </trkpt>
      <trkpt lat="49.94799" lon="2.3552">
        <ele>81.5</ele>
        <time>2023-01-04T13:44:37Z</time>
      </trkpt>
      <trkpt lat="49.948" lon="2.35519">
        <ele>81.5</ele>
        <time>2023-01-04T13:44:38Z</time>
      </trkpt>
      <trkpt lat="49.94801" lon="2.35518">
        <ele>81.5</ele>
        <time>2023-01-04T13:44:40Z</time>
      </trkpt>
      <trkpt lat="49.94802" lon="2.35517">
        <ele>81.5</ele>
        <time>2023-01-04T13:44:41Z</time>
      </trkpt>
      <trkpt lat="49.94802" lon="2.35516">
        <ele>81.5</ele>
        <time>2023-01-04T13:44:42Z</time>
      </trkpt>
      <trkpt lat="49.94803" lon="2.35515">
        <ele>81.5</ele>
        <time>2023-01-04T13:44:43Z</time>
      </trkpt>
      <trkpt lat="49.94804" lon="2.35514">
        <ele>81.5</ele>
        <time>2023-01-04T13:44:44Z</time>
      </trkpt>
      <trkpt lat="49.94805" lon="2.35513">
        <ele>81.5</ele>
        <time>2023-01-04T13:44:45Z</time>
      </trkpt>
      <trkpt lat="49.94806" lon="2.35512">
        <ele>81.5</ele>
        <time>2023-01-04T13:44:46Z</time>
      </trkpt>
      <trkpt lat="49.94807" lon="2.35511">
        <ele>81.6</ele>
        <time>2023-01-04T13:44:47Z</time>
      </trkpt>
      <trkpt lat="49.94808" lon="2.35508">
        <ele>81.6</ele>
        <time>2023-01-04T13:44:49Z</time>
      </trkpt>
      <trkpt lat="49.94809" lon="2.35507">
        <ele>81.6</ele>
        <time>2023-01-04T13:44:50Z</time>
      </trkpt>
      <trkpt lat="49.9481" lon="2.35506">
        <ele>81.6</ele>
        <time>2023-01-04T13:44:51Z</time>
      </trkpt>
      <trkpt lat="49.94811" lon="2.35505">
        <ele>81.6</ele>
        <time>2023-01-04T13:44:52Z</time>
      </trkpt>
      <trkpt lat="49.94812" lon="2.35503">
        <ele>81.6</ele>
        <time>2023-01-04T13:44:53Z</time>
      </trkpt>
      <trkpt lat="49.94812" lon="2.35502">
        <ele>81.6</ele>
        <time>2023-01-04T13:44:54Z</time>
      </trkpt>
      <trkpt lat="49.94813" lon="2.35501">
        <ele>81.7</ele>
        <time>2023-01-04T13:44:55Z</time>
      </trkpt>
      <trkpt lat="49.94813" lon="2.355">
        <ele>81.7</ele>
        <time>2023-01-04T13:44:56Z</time>
      </trkpt>
      <trkpt lat="49.94814" lon="2.35497">
        <ele>81.7</ele>
        <time>2023-01-04T13:44:58Z</time>
      </trkpt>
      <trkpt lat="49.94815" lon="2.35496">
        <ele>81.7</ele>
        <time>2023-01-04T13:44:59Z</time>
      </trkpt>
      <trkpt lat="49.94816" lon="2.35495">
        <ele>81.7</ele>
        <time>2023-01-04T13:45:00Z</time>
      </trkpt>
      <trkpt lat="49.94817" lon="2.35494">
        <ele>81.7</ele>
        <time>2023-01-04T13:45:01Z</time>
      </trkpt>
      <trkpt lat="49.94818" lon="2.35494">
        <ele>81.7</ele>
        <time>2023-01-04T13:45:02Z</time>
      </trkpt>
      <trkpt lat="49.94819" lon="2.35493">
        <ele>81.7</ele>
        <time>2023-01-04T13:45:04Z</time>
      </trkpt>
      <trkpt lat="49.9482" lon="2.35492">
        <ele>81.7</ele>
        <time>2023-01-04T13:45:05Z</time>
      </trkpt>
      <trkpt lat="49.94821" lon="2.35492">
        <ele>81.8</ele>
        <time>2023-01-04T13:45:06Z</time>
      </trkpt>
      <trkpt lat="49.94823" lon="2.35491">
        <ele>81.8</ele>
        <time>2023-01-04T13:45:07Z</time>
      </trkpt>
      <trkpt lat="49.94824" lon="2.35491">
        <ele>81.8</ele>
        <time>2023-01-04T13:45:08Z</time>
      </trkpt>
      <trkpt lat="49.94825" lon="2.35491">
        <ele>81.9</ele>
        <time>2023-01-04T13:45:09Z</time>
      </trkpt>
      <trkpt lat="49.94826" lon="2.35491">
        <ele>81.9</ele>
        <time>2023-01-04T13:45:11Z</time>
      </trkpt>
      <trkpt lat="49.94829" lon="2.35491">
        <ele>82</ele>
        <time>2023-01-04T13:45:12Z</time>
      </trkpt>
      <trkpt lat="49.94829" lon="2.35491">
        <ele>82</ele>
        <time>2023-01-04T13:45:13Z</time>
      </trkpt>
      <trkpt lat="49.9483" lon="2.35491">
        <ele>82</ele>
        <time>2023-01-04T13:45:14Z</time>
      </trkpt>
      <trkpt lat="49.94832" lon="2.35491">
        <ele>82.1</ele>
        <time>2023-01-04T13:45:15Z</time>
      </trkpt>
      <trkpt lat="49.94833" lon="2.35492">
        <ele>82.2</ele>
        <time>2023-01-04T13:45:16Z</time>
      </trkpt>
      <trkpt lat="49.94834" lon="2.35492">
        <ele>82.2</ele>
        <time>2023-01-04T13:45:17Z</time>
      </trkpt>
      <trkpt lat="49.94836" lon="2.35493">
        <ele>82.3</ele>
        <time>2023-01-04T13:45:18Z</time>
      </trkpt>
      <trkpt lat="49.94837" lon="2.35493">
        <ele>82.3</ele>
        <time>2023-01-04T13:45:20Z</time>
      </trkpt>
      <trkpt lat="49.94838" lon="2.35493">
        <ele>82.4</ele>
        <time>2023-01-04T13:45:21Z</time>
      </trkpt>
      <trkpt lat="49.9484" lon="2.35493">
        <ele>82.5</ele>
        <time>2023-01-04T13:45:22Z</time>
      </trkpt>
      <trkpt lat="49.94841" lon="2.35493">
        <ele>82.5</ele>
        <time>2023-01-04T13:45:23Z</time>
      </trkpt>
      <trkpt lat="49.94842" lon="2.35494">
        <ele>82.6</ele>
        <time>2023-01-04T13:45:24Z</time>
      </trkpt>
      <trkpt lat="49.94843" lon="2.35494">
        <ele>82.6</ele>
        <time>2023-01-04T13:45:25Z</time>
      </trkpt>
      <trkpt lat="49.94844" lon="2.35494">
        <ele>82.7</ele>
        <time>2023-01-04T13:45:26Z</time>
      </trkpt>
      <trkpt lat="49.94845" lon="2.35494">
        <ele>82.7</ele>
        <time>2023-01-04T13:45:28Z</time>
      </trkpt>
      <trkpt lat="49.94847" lon="2.35495">
        <ele>82.8</ele>
        <time>2023-01-04T13:45:29Z</time>
      </trkpt>
      <trkpt lat="49.94848" lon="2.35495">
        <ele>82.9</ele>
        <time>2023-01-04T13:45:30Z</time>
      </trkpt>
      <trkpt lat="49.94849" lon="2.35495">
        <ele>82.9</ele>
        <time>2023-01-04T13:45:31Z</time>
      </trkpt>
      <trkpt lat="49.94851" lon="2.35495">
        <ele>83</ele>
        <time>2023-01-04T13:45:32Z</time>
      </trkpt>
      <trkpt lat="49.94852" lon="2.35495">
        <ele>83</ele>
        <time>2023-01-04T13:45:33Z</time>
      </trkpt>
      <trkpt lat="49.94853" lon="2.35495">
        <ele>83</ele>
        <time>2023-01-04T13:45:34Z</time>
      </trkpt>
      <trkpt lat="49.94854" lon="2.35495">
        <ele>83.1</ele>
        <time>2023-01-04T13:45:35Z</time>
      </trkpt>
      <trkpt lat="49.94855" lon="2.35495">
        <ele>83.1</ele>
        <time>2023-01-04T13:45:37Z</time>
      </trkpt>
      <trkpt lat="49.94856" lon="2.35496">
        <ele>83.1</ele>
        <time>2023-01-04T13:45:38Z</time>
      </trkpt>
      <trkpt lat="49.94857" lon="2.35497">
        <ele>83.1</ele>
        <time>2023-01-04T13:45:39Z</time>
      </trkpt>
      <trkpt lat="49.94858" lon="2.35497">
        <ele>83.2</ele>
        <time>2023-01-04T13:45:40Z</time>
      </trkpt>
      <trkpt lat="49.94859" lon="2.35498">
        <ele>83.2</ele>
        <time>2023-01-04T13:45:41Z</time>
      </trkpt>
      <trkpt lat="49.94859" lon="2.35498">
        <ele>83.2</ele>
        <time>2023-01-04T13:45:42Z</time>
      </trkpt>
      <trkpt lat="49.94861" lon="2.35499">
        <ele>83.2</ele>
        <time>2023-01-04T13:45:44Z</time>
      </trkpt>
      <trkpt lat="49.94862" lon="2.35499">
        <ele>83.3</ele>
        <time>2023-01-04T13:45:45Z</time>
      </trkpt>
      <trkpt lat="49.94863" lon="2.355">
        <ele>83.3</ele>
        <time>2023-01-04T13:45:46Z</time>
      </trkpt>
      <trkpt lat="49.94863" lon="2.355">
        <ele>83.3</ele>
        <time>2023-01-04T13:45:47Z</time>
      </trkpt>
      <trkpt lat="49.94865" lon="2.35501">
        <ele>83.4</ele>
        <time>2023-01-04T13:45:48Z</time>
      </trkpt>
      <trkpt lat="49.94866" lon="2.35501">
        <ele>83.4</ele>
        <time>2023-01-04T13:45:50Z</time>
      </trkpt>
      <trkpt lat="49.94867" lon="2.35501">
        <ele>83.4</ele>
        <time>2023-01-04T13:45:51Z</time>
      </trkpt>
      <trkpt lat="49.94869" lon="2.35502">
        <ele>83.4</ele>
        <time>2023-01-04T13:45:52Z</time>
      </trkpt>
      <trkpt lat="49.9487" lon="2.35502">
        <ele>83.5</ele>
        <time>2023-01-04T13:45:53Z</time>
      </trkpt>
      <trkpt lat="49.94871" lon="2.35502">
        <ele>83.5</ele>
        <time>2023-01-04T13:45:54Z</time>
      </trkpt>
      <trkpt lat="49.94872" lon="2.35503">
        <ele>83.5</ele>
        <time>2023-01-04T13:45:55Z</time>
      </trkpt>
      <trkpt lat="49.94874" lon="2.35503">
        <ele>83.6</ele>
        <time>2023-01-04T13:45:57Z</time>
      </trkpt>
      <trkpt lat="49.94875" lon="2.35504">
        <ele>83.6</ele>
        <time>2023-01-04T13:45:58Z</time>
      </trkpt>
      <trkpt lat="49.94877" lon="2.35505">
        <ele>83.7</ele>
        <time>2023-01-04T13:45:59Z</time>
      </trkpt>
      <trkpt lat="49.94878" lon="2.35505">
        <ele>83.7</ele>
        <time>2023-01-04T13:46:00Z</time>
      </trkpt>
      <trkpt lat="49.9488" lon="2.35505">
        <ele>83.7</ele>
        <time>2023-01-04T13:46:01Z</time>
      </trkpt>
      <trkpt lat="49.9488" lon="2.35506">
        <ele>83.7</ele>
        <time>2023-01-04T13:46:02Z</time>
      </trkpt>
      <trkpt lat="49.94882" lon="2.35506">
        <ele>83.8</ele>
        <time>2023-01-04T13:46:04Z</time>
      </trkpt>
      <trkpt lat="49.94883" lon="2.35506">
        <ele>83.8</ele>
        <time>2023-01-04T13:46:05Z</time>
      </trkpt>
      <trkpt lat="49.94885" lon="2.35507">
        <ele>83.8</ele>
        <time>2023-01-04T13:46:06Z</time>
      </trkpt>
      <trkpt lat="49.94886" lon="2.35508">
        <ele>83.9</ele>
        <time>2023-01-04T13:46:07Z</time>
      </trkpt>
      <trkpt lat="49.94886" lon="2.35508">
        <ele>83.9</ele>
        <time>2023-01-04T13:46:08Z</time>
      </trkpt>
      <trkpt lat="49.94887" lon="2.35509">
        <ele>83.9</ele>
        <time>2023-01-04T13:46:09Z</time>
      </trkpt>
      <trkpt lat="49.94889" lon="2.35509">
        <ele>83.9</ele>
        <time>2023-01-04T13:46:11Z</time>
      </trkpt>
      <trkpt lat="49.9489" lon="2.3551">
        <ele>83.9</ele>
        <time>2023-01-04T13:46:12Z</time>
      </trkpt>
      <trkpt lat="49.9489" lon="2.3551">
        <ele>83.9</ele>
        <time>2023-01-04T13:46:13Z</time>
      </trkpt>
      <trkpt lat="49.94892" lon="2.3551">
        <ele>84</ele>
        <time>2023-01-04T13:46:15Z</time>
      </trkpt>
      <trkpt lat="49.94892" lon="2.3551">
        <ele>84</ele>
        <time>2023-01-04T13:46:16Z</time>
      </trkpt>
      <trkpt lat="49.94893" lon="2.3551">
        <ele>84</ele>
        <time>2023-01-04T13:46:18Z</time>
      </trkpt>
      <trkpt lat="49.94893" lon="2.3551">
        <ele>84</ele>
        <time>2023-01-04T13:46:19Z</time>
      </trkpt>
      <trkpt lat="49.94894" lon="2.3551">
        <ele>84</ele>
        <time>2023-01-04T13:46:20Z</time>
      </trkpt>
      <trkpt lat="49.94894" lon="2.35509">
        <ele>84</ele>
        <time>2023-01-04T13:46:21Z</time>
      </trkpt>
      <trkpt lat="49.94895" lon="2.35509">
        <ele>84</ele>
        <time>2023-01-04T13:46:22Z</time>
      </trkpt>
      <trkpt lat="49.94896" lon="2.35509">
        <ele>84</ele>
        <time>2023-01-04T13:46:23Z</time>
      </trkpt>
      <trkpt lat="49.94897" lon="2.35509">
        <ele>84</ele>
        <time>2023-01-04T13:46:25Z</time>
      </trkpt>
      <trkpt lat="49.94897" lon="2.35509">
        <ele>84</ele>
        <time>2023-01-04T13:46:26Z</time>
      </trkpt>
      <trkpt lat="49.94898" lon="2.35508">
        <ele>84</ele>
        <time>2023-01-04T13:46:27Z</time>
      </trkpt>
      <trkpt lat="49.94899" lon="2.35508">
        <ele>84</ele>
        <time>2023-01-04T13:46:29Z</time>
      </trkpt>
      <trkpt lat="49.94899" lon="2.35508">
        <ele>84</ele>
        <time>2023-01-04T13:46:30Z</time>
      </trkpt>
      <trkpt lat="49.949" lon="2.35509">
        <ele>84</ele>
        <time>2023-01-04T13:46:31Z</time>
      </trkpt>
      <trkpt lat="49.949" lon="2.35509">
        <ele>84</ele>
        <time>2023-01-04T13:46:32Z</time>
      </trkpt>
      <trkpt lat="49.949" lon="2.35509">
        <ele>84</ele>
        <time>2023-01-04T13:46:33Z</time>
      </trkpt>
      <trkpt lat="49.949" lon="2.35509">
        <ele>84.1</ele>
        <time>2023-01-04T13:46:35Z</time>
      </trkpt>
      <trkpt lat="49.94901" lon="2.35509">
        <ele>84.1</ele>
        <time>2023-01-04T13:46:36Z</time>
      </trkpt>
      <trkpt lat="49.94901" lon="2.35509">
        <ele>84.1</ele>
        <time>2023-01-04T13:46:37Z</time>
      </trkpt>
      <trkpt lat="49.94902" lon="2.3551">
        <ele>84.1</ele>
        <time>2023-01-04T13:46:38Z</time>
      </trkpt>
      <trkpt lat="49.94903" lon="2.3551">
        <ele>84.1</ele>
        <time>2023-01-04T13:46:39Z</time>
      </trkpt>
      <trkpt lat="49.94904" lon="2.3551">
        <ele>84.1</ele>
        <time>2023-01-04T13:46:40Z</time>
      </trkpt>
      <trkpt lat="49.94905" lon="2.35511">
        <ele>84.1</ele>
        <time>2023-01-04T13:46:41Z</time>
      </trkpt>
      <trkpt lat="49.94906" lon="2.35511">
        <ele>84.1</ele>
        <time>2023-01-04T13:46:43Z</time>
      </trkpt>
      <trkpt lat="49.94907" lon="2.35511">
        <ele>84.1</ele>
        <time>2023-01-04T13:46:44Z</time>
      </trkpt>
      <trkpt lat="49.94908" lon="2.35512">
        <ele>84.2</ele>
        <time>2023-01-04T13:46:45Z</time>
      </trkpt>
      <trkpt lat="49.94908" lon="2.35512">
        <ele>84.2</ele>
        <time>2023-01-04T13:46:46Z</time>
      </trkpt>
      <trkpt lat="49.94908" lon="2.35513">
        <ele>84.2</ele>
        <time>2023-01-04T13:46:47Z</time>
      </trkpt>
      <trkpt lat="49.94909" lon="2.35513">
        <ele>84.2</ele>
        <time>2023-01-04T13:46:49Z</time>
      </trkpt>
      <trkpt lat="49.94909" lon="2.35513">
        <ele>84.2</ele>
        <time>2023-01-04T13:46:50Z</time>
      </trkpt>
      <trkpt lat="49.9491" lon="2.35513">
        <ele>84.2</ele>
        <time>2023-01-04T13:46:51Z</time>
      </trkpt>
      <trkpt lat="49.94911" lon="2.35513">
        <ele>84.2</ele>
        <time>2023-01-04T13:46:52Z</time>
      </trkpt>
      <trkpt lat="49.94912" lon="2.35513">
        <ele>84.2</ele>
        <time>2023-01-04T13:46:53Z</time>
      </trkpt>
      <trkpt lat="49.94913" lon="2.35514">
        <ele>84.2</ele>
        <time>2023-01-04T13:46:55Z</time>
      </trkpt>
      <trkpt lat="49.94915" lon="2.35514">
        <ele>84.3</ele>
        <time>2023-01-04T13:46:56Z</time>
      </trkpt>
      <trkpt lat="49.94915" lon="2.35514">
        <ele>84.3</ele>
        <time>2023-01-04T13:46:57Z</time>
      </trkpt>
      <trkpt lat="49.94916" lon="2.35514">
        <ele>84.3</ele>
        <time>2023-01-04T13:46:58Z</time>
      </trkpt>
      <trkpt lat="49.94917" lon="2.35514">
        <ele>84.3</ele>
        <time>2023-01-04T13:46:59Z</time>
      </trkpt>
      <trkpt lat="49.94918" lon="2.35514">
        <ele>84.3</ele>
        <time>2023-01-04T13:47:00Z</time>
      </trkpt>
      <trkpt lat="49.94919" lon="2.35514">
        <ele>84.4</ele>
        <time>2023-01-04T13:47:02Z</time>
      </trkpt>
      <trkpt lat="49.9492" lon="2.35515">
        <ele>84.4</ele>
        <time>2023-01-04T13:47:03Z</time>
      </trkpt>
      <trkpt lat="49.94921" lon="2.35515">
        <ele>84.4</ele>
        <time>2023-01-04T13:47:04Z</time>
      </trkpt>
      <trkpt lat="49.94922" lon="2.35515">
        <ele>84.4</ele>
        <time>2023-01-04T13:47:05Z</time>
      </trkpt>
      <trkpt lat="49.94923" lon="2.35515">
        <ele>84.4</ele>
        <time>2023-01-04T13:47:06Z</time>
      </trkpt>
      <trkpt lat="49.94924" lon="2.35516">
        <ele>84.5</ele>
        <time>2023-01-04T13:47:08Z</time>
      </trkpt>
      <trkpt lat="49.94926" lon="2.35516">
        <ele>84.5</ele>
        <time>2023-01-04T13:47:09Z</time>
      </trkpt>
      <trkpt lat="49.94927" lon="2.35516">
        <ele>84.5</ele>
        <time>2023-01-04T13:47:10Z</time>
      </trkpt>
      <trkpt lat="49.94928" lon="2.35517">
        <ele>84.5</ele>
        <time>2023-01-04T13:47:11Z</time>
      </trkpt>
      <trkpt lat="49.94929" lon="2.35517">
        <ele>84.5</ele>
        <time>2023-01-04T13:47:12Z</time>
      </trkpt>
      <trkpt lat="49.9493" lon="2.35518">
        <ele>84.6</ele>
        <time>2023-01-04T13:47:13Z</time>
      </trkpt>
      <trkpt lat="49.94931" lon="2.35519">
        <ele>84.6</ele>
        <time>2023-01-04T13:47:14Z</time>
      </trkpt>
      <trkpt lat="49.94932" lon="2.35521">
        <ele>84.6</ele>
        <time>2023-01-04T13:47:16Z</time>
      </trkpt>
      <trkpt lat="49.94933" lon="2.35521">
        <ele>84.6</ele>
        <time>2023-01-04T13:47:17Z</time>
      </trkpt>
      <trkpt lat="49.94934" lon="2.35522">
        <ele>84.7</ele>
        <time>2023-01-04T13:47:18Z</time>
      </trkpt>
      <trkpt lat="49.94935" lon="2.35523">
        <ele>84.7</ele>
        <time>2023-01-04T13:47:19Z</time>
      </trkpt>
      <trkpt lat="49.94936" lon="2.35525">
        <ele>84.7</ele>
        <time>2023-01-04T13:47:20Z</time>
      </trkpt>
      <trkpt lat="49.94937" lon="2.35525">
        <ele>84.7</ele>
        <time>2023-01-04T13:47:21Z</time>
      </trkpt>
      <trkpt lat="49.94938" lon="2.35526">
        <ele>84.7</ele>
        <time>2023-01-04T13:47:23Z</time>
      </trkpt>
      <trkpt lat="49.94939" lon="2.35527">
        <ele>84.7</ele>
        <time>2023-01-04T13:47:24Z</time>
      </trkpt>
      <trkpt lat="49.9494" lon="2.35528">
        <ele>84.7</ele>
        <time>2023-01-04T13:47:25Z</time>
      </trkpt>
      <trkpt lat="49.94941" lon="2.35529">
        <ele>84.8</ele>
        <time>2023-01-04T13:47:26Z</time>
      </trkpt>
      <trkpt lat="49.94942" lon="2.35529">
        <ele>84.8</ele>
        <time>2023-01-04T13:47:27Z</time>
      </trkpt>
      <trkpt lat="49.94943" lon="2.35529">
        <ele>84.8</ele>
        <time>2023-01-04T13:47:28Z</time>
      </trkpt>
      <trkpt lat="49.94944" lon="2.3553">
        <ele>84.8</ele>
        <time>2023-01-04T13:47:29Z</time>
      </trkpt>
      <trkpt lat="49.94945" lon="2.3553">
        <ele>84.8</ele>
        <time>2023-01-04T13:47:30Z</time>
      </trkpt>
      <trkpt lat="49.94946" lon="2.35531">
        <ele>84.8</ele>
        <time>2023-01-04T13:47:32Z</time>
      </trkpt>
      <trkpt lat="49.94947" lon="2.35531">
        <ele>84.8</ele>
        <time>2023-01-04T13:47:33Z</time>
      </trkpt>
      <trkpt lat="49.94948" lon="2.35532">
        <ele>84.9</ele>
        <time>2023-01-04T13:47:34Z</time>
      </trkpt>
      <trkpt lat="49.94949" lon="2.35532">
        <ele>84.9</ele>
        <time>2023-01-04T13:47:35Z</time>
      </trkpt>
      <trkpt lat="49.9495" lon="2.35533">
        <ele>84.9</ele>
        <time>2023-01-04T13:47:36Z</time>
      </trkpt>
      <trkpt lat="49.94951" lon="2.35534">
        <ele>84.9</ele>
        <time>2023-01-04T13:47:37Z</time>
      </trkpt>
      <trkpt lat="49.94952" lon="2.35535">
        <ele>84.9</ele>
        <time>2023-01-04T13:47:38Z</time>
      </trkpt>
      <trkpt lat="49.94954" lon="2.35536">
        <ele>84.9</ele>
        <time>2023-01-04T13:47:40Z</time>
      </trkpt>
      <trkpt lat="49.94954" lon="2.35537">
        <ele>84.9</ele>
        <time>2023-01-04T13:47:41Z</time>
      </trkpt>
      <trkpt lat="49.94955" lon="2.35537">
        <ele>85</ele>
        <time>2023-01-04T13:47:42Z</time>
      </trkpt>
      <trkpt lat="49.94957" lon="2.35538">
        <ele>85</ele>
        <time>2023-01-04T13:47:43Z</time>
      </trkpt>
      <trkpt lat="49.94958" lon="2.35539">
        <ele>85</ele>
        <time>2023-01-04T13:47:44Z</time>
      </trkpt>
      <trkpt lat="49.94959" lon="2.35539">
        <ele>85</ele>
        <time>2023-01-04T13:47:45Z</time>
      </trkpt>
      <trkpt lat="49.9496" lon="2.3554">
        <ele>85</ele>
        <time>2023-01-04T13:47:47Z</time>
      </trkpt>
      <trkpt lat="49.94961" lon="2.3554">
        <ele>85.1</ele>
        <time>2023-01-04T13:47:48Z</time>
      </trkpt>
      <trkpt lat="49.94963" lon="2.35541">
        <ele>85.1</ele>
        <time>2023-01-04T13:47:49Z</time>
      </trkpt>
      <trkpt lat="49.94964" lon="2.35542">
        <ele>85.1</ele>
        <time>2023-01-04T13:47:50Z</time>
      </trkpt>
      <trkpt lat="49.94965" lon="2.35542">
        <ele>85.1</ele>
        <time>2023-01-04T13:47:51Z</time>
      </trkpt>
      <trkpt lat="49.94967" lon="2.35543">
        <ele>85.2</ele>
        <time>2023-01-04T13:47:52Z</time>
      </trkpt>
      <trkpt lat="49.94968" lon="2.35544">
        <ele>85.2</ele>
        <time>2023-01-04T13:47:53Z</time>
      </trkpt>
      <trkpt lat="49.94969" lon="2.35545">
        <ele>85.2</ele>
        <time>2023-01-04T13:47:54Z</time>
      </trkpt>
      <trkpt lat="49.94971" lon="2.35545">
        <ele>85.2</ele>
        <time>2023-01-04T13:47:56Z</time>
      </trkpt>
      <trkpt lat="49.94972" lon="2.35546">
        <ele>85.2</ele>
        <time>2023-01-04T13:47:57Z</time>
      </trkpt>
      <trkpt lat="49.94974" lon="2.35546">
        <ele>85.3</ele>
        <time>2023-01-04T13:47:58Z</time>
      </trkpt>
      <trkpt lat="49.94975" lon="2.35546">
        <ele>85.3</ele>
        <time>2023-01-04T13:47:59Z</time>
      </trkpt>
      <trkpt lat="49.94977" lon="2.35547">
        <ele>85.3</ele>
        <time>2023-01-04T13:48:00Z</time>
      </trkpt>
      <trkpt lat="49.94979" lon="2.35547">
        <ele>85.4</ele>
        <time>2023-01-04T13:48:01Z</time>
      </trkpt>
      <trkpt lat="49.9498" lon="2.35548">
        <ele>85.4</ele>
        <time>2023-01-04T13:48:03Z</time>
      </trkpt>
      <trkpt lat="49.94981" lon="2.35548">
        <ele>85.4</ele>
        <time>2023-01-04T13:48:04Z</time>
      </trkpt>
      <trkpt lat="49.94983" lon="2.35549">
        <ele>85.5</ele>
        <time>2023-01-04T13:48:05Z</time>
      </trkpt>
      <trkpt lat="49.94983" lon="2.35549">
        <ele>85.5</ele>
        <time>2023-01-04T13:48:06Z</time>
      </trkpt>
      <trkpt lat="49.94984" lon="2.35549">
        <ele>85.5</ele>
        <time>2023-01-04T13:48:07Z</time>
      </trkpt>
      <trkpt lat="49.94986" lon="2.3555">
        <ele>85.6</ele>
        <time>2023-01-04T13:48:08Z</time>
      </trkpt>
      <trkpt lat="49.94987" lon="2.3555">
        <ele>85.6</ele>
        <time>2023-01-04T13:48:09Z</time>
      </trkpt>
      <trkpt lat="49.94988" lon="2.3555">
        <ele>85.6</ele>
        <time>2023-01-04T13:48:10Z</time>
      </trkpt>
      <trkpt lat="49.9499" lon="2.35551">
        <ele>85.7</ele>
        <time>2023-01-04T13:48:12Z</time>
      </trkpt>
      <trkpt lat="49.94991" lon="2.35551">
        <ele>85.7</ele>
        <time>2023-01-04T13:48:13Z</time>
      </trkpt>
      <trkpt lat="49.94991" lon="2.35551">
        <ele>85.8</ele>
        <time>2023-01-04T13:48:14Z</time>
      </trkpt>
      <trkpt lat="49.94994" lon="2.35552">
        <ele>85.9</ele>
        <time>2023-01-04T13:48:15Z</time>
      </trkpt>
      <trkpt lat="49.94994" lon="2.35552">
        <ele>85.9</ele>
        <time>2023-01-04T13:48:16Z</time>
      </trkpt>
      <trkpt lat="49.94995" lon="2.35552">
        <ele>86</ele>
        <time>2023-01-04T13:48:17Z</time>
      </trkpt>
      <trkpt lat="49.94996" lon="2.35552">
        <ele>86</ele>
        <time>2023-01-04T13:48:19Z</time>
      </trkpt>
      <trkpt lat="49.94997" lon="2.35553">
        <ele>86.1</ele>
        <time>2023-01-04T13:48:20Z</time>
      </trkpt>
      <trkpt lat="49.94998" lon="2.35553">
        <ele>86.1</ele>
        <time>2023-01-04T13:48:21Z</time>
      </trkpt>
      <trkpt lat="49.95" lon="2.35554">
        <ele>86.2</ele>
        <time>2023-01-04T13:48:22Z</time>
      </trkpt>
      <trkpt lat="49.95001" lon="2.35554">
        <ele>86.3</ele>
        <time>2023-01-04T13:48:23Z</time>
      </trkpt>
      <trkpt lat="49.95002" lon="2.35554">
        <ele>86.3</ele>
        <time>2023-01-04T13:48:24Z</time>
      </trkpt>
      <trkpt lat="49.95003" lon="2.35554">
        <ele>86.4</ele>
        <time>2023-01-04T13:48:25Z</time>
      </trkpt>
      <trkpt lat="49.95004" lon="2.35555">
        <ele>86.4</ele>
        <time>2023-01-04T13:48:26Z</time>
      </trkpt>
      <trkpt lat="49.95005" lon="2.35556">
        <ele>86.5</ele>
        <time>2023-01-04T13:48:28Z</time>
      </trkpt>
      <trkpt lat="49.95007" lon="2.35556">
        <ele>86.6</ele>
        <time>2023-01-04T13:48:29Z</time>
      </trkpt>
      <trkpt lat="49.95007" lon="2.35557">
        <ele>86.6</ele>
        <time>2023-01-04T13:48:30Z</time>
      </trkpt>
      <trkpt lat="49.95009" lon="2.35558">
        <ele>86.7</ele>
        <time>2023-01-04T13:48:31Z</time>
      </trkpt>
      <trkpt lat="49.95011" lon="2.35559">
        <ele>86.8</ele>
        <time>2023-01-04T13:48:32Z</time>
      </trkpt>
      <trkpt lat="49.95012" lon="2.35559">
        <ele>86.8</ele>
        <time>2023-01-04T13:48:33Z</time>
      </trkpt>
      <trkpt lat="49.95012" lon="2.35559">
        <ele>86.8</ele>
        <time>2023-01-04T13:48:35Z</time>
      </trkpt>
      <trkpt lat="49.95013" lon="2.3556">
        <ele>86.8</ele>
        <time>2023-01-04T13:48:36Z</time>
      </trkpt>
      <trkpt lat="49.95014" lon="2.3556">
        <ele>86.9</ele>
        <time>2023-01-04T13:48:37Z</time>
      </trkpt>
      <trkpt lat="49.95015" lon="2.3556">
        <ele>86.9</ele>
        <time>2023-01-04T13:48:38Z</time>
      </trkpt>
      <trkpt lat="49.95016" lon="2.35561">
        <ele>86.9</ele>
        <time>2023-01-04T13:48:39Z</time>
      </trkpt>
      <trkpt lat="49.95017" lon="2.35561">
        <ele>87</ele>
        <time>2023-01-04T13:48:40Z</time>
      </trkpt>
      <trkpt lat="49.95019" lon="2.35562">
        <ele>87</ele>
        <time>2023-01-04T13:48:42Z</time>
      </trkpt>
      <trkpt lat="49.9502" lon="2.35562">
        <ele>87</ele>
        <time>2023-01-04T13:48:43Z</time>
      </trkpt>
      <trkpt lat="49.95021" lon="2.35562">
        <ele>87</ele>
        <time>2023-01-04T13:48:44Z</time>
      </trkpt>
      <trkpt lat="49.95022" lon="2.35562">
        <ele>87.1</ele>
        <time>2023-01-04T13:48:45Z</time>
      </trkpt>
      <trkpt lat="49.95023" lon="2.35563">
        <ele>87.1</ele>
        <time>2023-01-04T13:48:46Z</time>
      </trkpt>
      <trkpt lat="49.95023" lon="2.35563">
        <ele>87.1</ele>
        <time>2023-01-04T13:48:47Z</time>
      </trkpt>
      <trkpt lat="49.95024" lon="2.35563">
        <ele>87.1</ele>
        <time>2023-01-04T13:48:49Z</time>
      </trkpt>
      <trkpt lat="49.95025" lon="2.35564">
        <ele>87.1</ele>
        <time>2023-01-04T13:48:50Z</time>
      </trkpt>
      <trkpt lat="49.95026" lon="2.35564">
        <ele>87.2</ele>
        <time>2023-01-04T13:48:51Z</time>
      </trkpt>
      <trkpt lat="49.95026" lon="2.35564">
        <ele>87.2</ele>
        <time>2023-01-04T13:48:52Z</time>
      </trkpt>
      <trkpt lat="49.95027" lon="2.35565">
        <ele>87.2</ele>
        <time>2023-01-04T13:48:53Z</time>
      </trkpt>
      <trkpt lat="49.95028" lon="2.35566">
        <ele>87.2</ele>
        <time>2023-01-04T13:48:54Z</time>
      </trkpt>
      <trkpt lat="49.95028" lon="2.35568">
        <ele>87.2</ele>
        <time>2023-01-04T13:48:56Z</time>
      </trkpt>
      <trkpt lat="49.95028" lon="2.35569">
        <ele>87.2</ele>
        <time>2023-01-04T13:48:57Z</time>
      </trkpt>
      <trkpt lat="49.95028" lon="2.3557">
        <ele>87.3</ele>
        <time>2023-01-04T13:48:59Z</time>
      </trkpt>
      <trkpt lat="49.95027" lon="2.3557">
        <ele>87.3</ele>
        <time>2023-01-04T13:49:00Z</time>
      </trkpt>
      <trkpt lat="49.95027" lon="2.3557">
        <ele>87.3</ele>
        <time>2023-01-04T13:49:02Z</time>
      </trkpt>
      <trkpt lat="49.95027" lon="2.3557">
        <ele>87.3</ele>
        <time>2023-01-04T13:49:03Z</time>
      </trkpt>
      <trkpt lat="49.95026" lon="2.3557">
        <ele>87.3</ele>
        <time>2023-01-04T13:49:04Z</time>
      </trkpt>
      <trkpt lat="49.95026" lon="2.3557">
        <ele>87.3</ele>
        <time>2023-01-04T13:49:06Z</time>
      </trkpt>
      <trkpt lat="49.95026" lon="2.3557">
        <ele>87.3</ele>
        <time>2023-01-04T13:49:07Z</time>
      </trkpt>
      <trkpt lat="49.95026" lon="2.3557">
        <ele>87.3</ele>
        <time>2023-01-04T13:49:09Z</time>
      </trkpt>
      <trkpt lat="49.95026" lon="2.3557">
        <ele>87.3</ele>
        <time>2023-01-04T13:49:10Z</time>
      </trkpt>
      <trkpt lat="49.95026" lon="2.3557">
        <ele>87.3</ele>
        <time>2023-01-04T13:49:11Z</time>
      </trkpt>
      <trkpt lat="49.95026" lon="2.35571">
        <ele>87.3</ele>
        <time>2023-01-04T13:49:13Z</time>
      </trkpt>
      <trkpt lat="49.95026" lon="2.35571">
        <ele>87.3</ele>
        <time>2023-01-04T13:49:14Z</time>
      </trkpt>
      <trkpt lat="49.95026" lon="2.35571">
        <ele>87.3</ele>
        <time>2023-01-04T13:49:15Z</time>
      </trkpt>
      <trkpt lat="49.95026" lon="2.35571">
        <ele>87.3</ele>
        <time>2023-01-04T13:49:16Z</time>
      </trkpt>
      <trkpt lat="49.95026" lon="2.35571">
        <ele>87.3</ele>
        <time>2023-01-04T13:49:17Z</time>
      </trkpt>
      <trkpt lat="49.95026" lon="2.3557">
        <ele>87.3</ele>
        <time>2023-01-04T13:49:18Z</time>
      </trkpt>
      <trkpt lat="49.95026" lon="2.3557">
        <ele>87.3</ele>
        <time>2023-01-04T13:49:19Z</time>
      </trkpt>
      <trkpt lat="49.95026" lon="2.3557">
        <ele>87.3</ele>
        <time>2023-01-04T13:49:20Z</time>
      </trkpt>
      <trkpt lat="49.95026" lon="2.3557">
        <ele>87.3</ele>
        <time>2023-01-04T13:49:21Z</time>
      </trkpt>
      <trkpt lat="49.95026" lon="2.3557">
        <ele>87.3</ele>
        <time>2023-01-04T13:49:22Z</time>
      </trkpt>
      <trkpt lat="49.95026" lon="2.3557">
        <ele>87.3</ele>
        <time>2023-01-04T13:49:23Z</time>
      </trkpt>
      <trkpt lat="49.95026" lon="2.3557">
        <ele>87.3</ele>
        <time>2023-01-04T13:49:24Z</time>
      </trkpt>
      <trkpt lat="49.95026" lon="2.3557">
        <ele>87.3</ele>
        <time>2023-01-04T13:49:25Z</time>
      </trkpt>
      <trkpt lat="49.95026" lon="2.35571">
        <ele>87.4</ele>
        <time>2023-01-04T13:49:27Z</time>
      </trkpt>
      <trkpt lat="49.95027" lon="2.35571">
        <ele>87.4</ele>
        <time>2023-01-04T13:49:28Z</time>
      </trkpt>
      <trkpt lat="49.95027" lon="2.3557">
        <ele>87.4</ele>
        <time>2023-01-04T13:49:29Z</time>
      </trkpt>
      <trkpt lat="49.95027" lon="2.3557">
        <ele>87.4</ele>
        <time>2023-01-04T13:49:30Z</time>
      </trkpt>
      <trkpt lat="49.95028" lon="2.35569">
        <ele>87.4</ele>
        <time>2023-01-04T13:49:31Z</time>
      </trkpt>
      <trkpt lat="49.95029" lon="2.35568">
        <ele>87.4</ele>
        <time>2023-01-04T13:49:33Z</time>
      </trkpt>
      <trkpt lat="49.9503" lon="2.35567">
        <ele>87.4</ele>
        <time>2023-01-04T13:49:34Z</time>
      </trkpt>
      <trkpt lat="49.95032" lon="2.35567">
        <ele>87.5</ele>
        <time>2023-01-04T13:49:35Z</time>
      </trkpt>
      <trkpt lat="49.95033" lon="2.35566">
        <ele>87.5</ele>
        <time>2023-01-04T13:49:36Z</time>
      </trkpt>
      <trkpt lat="49.95034" lon="2.35566">
        <ele>87.5</ele>
        <time>2023-01-04T13:49:37Z</time>
      </trkpt>
      <trkpt lat="49.95035" lon="2.35566">
        <ele>87.6</ele>
        <time>2023-01-04T13:49:38Z</time>
      </trkpt>
      <trkpt lat="49.95036" lon="2.35565">
        <ele>87.6</ele>
        <time>2023-01-04T13:49:39Z</time>
      </trkpt>
      <trkpt lat="49.95038" lon="2.35565">
        <ele>87.6</ele>
        <time>2023-01-04T13:49:41Z</time>
      </trkpt>
      <trkpt lat="49.95039" lon="2.35565">
        <ele>87.6</ele>
        <time>2023-01-04T13:49:42Z</time>
      </trkpt>
      <trkpt lat="49.95041" lon="2.35565">
        <ele>87.7</ele>
        <time>2023-01-04T13:49:43Z</time>
      </trkpt>
      <trkpt lat="49.95041" lon="2.35565">
        <ele>87.7</ele>
        <time>2023-01-04T13:49:44Z</time>
      </trkpt>
      <trkpt lat="49.95043" lon="2.35565">
        <ele>87.7</ele>
        <time>2023-01-04T13:49:45Z</time>
      </trkpt>
      <trkpt lat="49.95044" lon="2.35565">
        <ele>87.7</ele>
        <time>2023-01-04T13:49:46Z</time>
      </trkpt>
      <trkpt lat="49.95045" lon="2.35566">
        <ele>87.8</ele>
        <time>2023-01-04T13:49:47Z</time>
      </trkpt>
      <trkpt lat="49.95046" lon="2.35566">
        <ele>87.8</ele>
        <time>2023-01-04T13:49:49Z</time>
      </trkpt>
      <trkpt lat="49.95047" lon="2.35567">
        <ele>87.8</ele>
        <time>2023-01-04T13:49:50Z</time>
      </trkpt>
      <trkpt lat="49.95048" lon="2.35568">
        <ele>87.8</ele>
        <time>2023-01-04T13:49:51Z</time>
      </trkpt>
      <trkpt lat="49.9505" lon="2.35569">
        <ele>87.9</ele>
        <time>2023-01-04T13:49:52Z</time>
      </trkpt>
      <trkpt lat="49.95051" lon="2.3557">
        <ele>87.9</ele>
        <time>2023-01-04T13:49:53Z</time>
      </trkpt>
      <trkpt lat="49.95052" lon="2.35571">
        <ele>87.9</ele>
        <time>2023-01-04T13:49:55Z</time>
      </trkpt>
      <trkpt lat="49.95053" lon="2.35571">
        <ele>88</ele>
        <time>2023-01-04T13:49:56Z</time>
      </trkpt>
      <trkpt lat="49.95054" lon="2.35571">
        <ele>88</ele>
        <time>2023-01-04T13:49:57Z</time>
      </trkpt>
      <trkpt lat="49.95055" lon="2.35571">
        <ele>88</ele>
        <time>2023-01-04T13:49:58Z</time>
      </trkpt>
      <trkpt lat="49.95056" lon="2.35571">
        <ele>88.1</ele>
        <time>2023-01-04T13:50:00Z</time>
      </trkpt>
      <trkpt lat="49.95057" lon="2.35571">
        <ele>88.1</ele>
        <time>2023-01-04T13:50:01Z</time>
      </trkpt>
      <trkpt lat="49.95059" lon="2.35571">
        <ele>88.1</ele>
        <time>2023-01-04T13:50:02Z</time>
      </trkpt>
      <trkpt lat="49.9506" lon="2.35571">
        <ele>88.2</ele>
        <time>2023-01-04T13:50:03Z</time>
      </trkpt>
      <trkpt lat="49.9506" lon="2.35572">
        <ele>88.2</ele>
        <time>2023-01-04T13:50:04Z</time>
      </trkpt>
      <trkpt lat="49.95061" lon="2.35572">
        <ele>88.2</ele>
        <time>2023-01-04T13:50:05Z</time>
      </trkpt>
      <trkpt lat="49.95063" lon="2.35573">
        <ele>88.3</ele>
        <time>2023-01-04T13:50:06Z</time>
      </trkpt>
      <trkpt lat="49.95064" lon="2.35574">
        <ele>88.3</ele>
        <time>2023-01-04T13:50:07Z</time>
      </trkpt>
      <trkpt lat="49.95065" lon="2.35575">
        <ele>88.4</ele>
        <time>2023-01-04T13:50:09Z</time>
      </trkpt>
      <trkpt lat="49.95066" lon="2.35576">
        <ele>88.4</ele>
        <time>2023-01-04T13:50:10Z</time>
      </trkpt>
      <trkpt lat="49.95067" lon="2.35576">
        <ele>88.5</ele>
        <time>2023-01-04T13:50:11Z</time>
      </trkpt>
      <trkpt lat="49.95068" lon="2.35576">
        <ele>88.5</ele>
        <time>2023-01-04T13:50:12Z</time>
      </trkpt>
      <trkpt lat="49.95069" lon="2.35576">
        <ele>88.6</ele>
        <time>2023-01-04T13:50:13Z</time>
      </trkpt>
      <trkpt lat="49.95071" lon="2.35576">
        <ele>88.7</ele>
        <time>2023-01-04T13:50:15Z</time>
      </trkpt>
      <trkpt lat="49.95072" lon="2.35576">
        <ele>88.7</ele>
        <time>2023-01-04T13:50:16Z</time>
      </trkpt>
      <trkpt lat="49.95073" lon="2.35577">
        <ele>88.8</ele>
        <time>2023-01-04T13:50:17Z</time>
      </trkpt>
      <trkpt lat="49.95074" lon="2.35577">
        <ele>88.8</ele>
        <time>2023-01-04T13:50:18Z</time>
      </trkpt>
      <trkpt lat="49.95076" lon="2.35577">
        <ele>88.9</ele>
        <time>2023-01-04T13:50:19Z</time>
      </trkpt>
      <trkpt lat="49.95078" lon="2.35578">
        <ele>89.1</ele>
        <time>2023-01-04T13:50:20Z</time>
      </trkpt>
      <trkpt lat="49.95079" lon="2.35579">
        <ele>89.1</ele>
        <time>2023-01-04T13:50:22Z</time>
      </trkpt>
      <trkpt lat="49.9508" lon="2.35579">
        <ele>89.2</ele>
        <time>2023-01-04T13:50:23Z</time>
      </trkpt>
      <trkpt lat="49.95081" lon="2.3558">
        <ele>89.2</ele>
        <time>2023-01-04T13:50:24Z</time>
      </trkpt>
      <trkpt lat="49.95082" lon="2.3558">
        <ele>89.3</ele>
        <time>2023-01-04T13:50:25Z</time>
      </trkpt>
      <trkpt lat="49.95083" lon="2.35581">
        <ele>89.4</ele>
        <time>2023-01-04T13:50:26Z</time>
      </trkpt>
      <trkpt lat="49.95085" lon="2.35582">
        <ele>89.4</ele>
        <time>2023-01-04T13:50:28Z</time>
      </trkpt>
      <trkpt lat="49.95086" lon="2.35583">
        <ele>89.5</ele>
        <time>2023-01-04T13:50:29Z</time>
      </trkpt>
      <trkpt lat="49.95087" lon="2.35584">
        <ele>89.6</ele>
        <time>2023-01-04T13:50:30Z</time>
      </trkpt>
      <trkpt lat="49.95089" lon="2.35585">
        <ele>89.7</ele>
        <time>2023-01-04T13:50:31Z</time>
      </trkpt>
      <trkpt lat="49.9509" lon="2.35585">
        <ele>89.7</ele>
        <time>2023-01-04T13:50:32Z</time>
      </trkpt>
      <trkpt lat="49.95091" lon="2.35586">
        <ele>89.8</ele>
        <time>2023-01-04T13:50:33Z</time>
      </trkpt>
      <trkpt lat="49.95093" lon="2.35586">
        <ele>89.9</ele>
        <time>2023-01-04T13:50:34Z</time>
      </trkpt>
      <trkpt lat="49.95094" lon="2.35586">
        <ele>90</ele>
        <time>2023-01-04T13:50:36Z</time>
      </trkpt>
      <trkpt lat="49.95095" lon="2.35587">
        <ele>90</ele>
        <time>2023-01-04T13:50:37Z</time>
      </trkpt>
      <trkpt lat="49.95096" lon="2.35587">
        <ele>90.1</ele>
        <time>2023-01-04T13:50:38Z</time>
      </trkpt>
      <trkpt lat="49.95097" lon="2.35587">
        <ele>90.1</ele>
        <time>2023-01-04T13:50:39Z</time>
      </trkpt>
      <trkpt lat="49.95098" lon="2.35587">
        <ele>90.2</ele>
        <time>2023-01-04T13:50:40Z</time>
      </trkpt>
      <trkpt lat="49.951" lon="2.35588">
        <ele>90.2</ele>
        <time>2023-01-04T13:50:41Z</time>
      </trkpt>
      <trkpt lat="49.95101" lon="2.35588">
        <ele>90.3</ele>
        <time>2023-01-04T13:50:42Z</time>
      </trkpt>
      <trkpt lat="49.95102" lon="2.35589">
        <ele>90.3</ele>
        <time>2023-01-04T13:50:43Z</time>
      </trkpt>
      <trkpt lat="49.95103" lon="2.3559">
        <ele>90.3</ele>
        <time>2023-01-04T13:50:45Z</time>
      </trkpt>
      <trkpt lat="49.95104" lon="2.35591">
        <ele>90.4</ele>
        <time>2023-01-04T13:50:46Z</time>
      </trkpt>
      <trkpt lat="49.95106" lon="2.35592">
        <ele>90.5</ele>
        <time>2023-01-04T13:50:47Z</time>
      </trkpt>
      <trkpt lat="49.95106" lon="2.35592">
        <ele>90.5</ele>
        <time>2023-01-04T13:50:48Z</time>
      </trkpt>
      <trkpt lat="49.95107" lon="2.35593">
        <ele>90.5</ele>
        <time>2023-01-04T13:50:49Z</time>
      </trkpt>
      <trkpt lat="49.95108" lon="2.35594">
        <ele>90.6</ele>
        <time>2023-01-04T13:50:50Z</time>
      </trkpt>
      <trkpt lat="49.95109" lon="2.35594">
        <ele>90.6</ele>
        <time>2023-01-04T13:50:51Z</time>
      </trkpt>
      <trkpt lat="49.9511" lon="2.35595">
        <ele>90.6</ele>
        <time>2023-01-04T13:50:53Z</time>
      </trkpt>
      <trkpt lat="49.95111" lon="2.35595">
        <ele>90.7</ele>
        <time>2023-01-04T13:50:54Z</time>
      </trkpt>
      <trkpt lat="49.95112" lon="2.35596">
        <ele>90.7</ele>
        <time>2023-01-04T13:50:55Z</time>
      </trkpt>
      <trkpt lat="49.95114" lon="2.35596">
        <ele>90.7</ele>
        <time>2023-01-04T13:50:56Z</time>
      </trkpt>
      <trkpt lat="49.95116" lon="2.35597">
        <ele>90.8</ele>
        <time>2023-01-04T13:50:57Z</time>
      </trkpt>
      <trkpt lat="49.95117" lon="2.35598">
        <ele>90.8</ele>
        <time>2023-01-04T13:50:58Z</time>
      </trkpt>
      <trkpt lat="49.95118" lon="2.35598">
        <ele>90.9</ele>
        <time>2023-01-04T13:51:00Z</time>
      </trkpt>
      <trkpt lat="49.95118" lon="2.35598">
        <ele>90.9</ele>
        <time>2023-01-04T13:51:01Z</time>
      </trkpt>
      <trkpt lat="49.95119" lon="2.35598">
        <ele>90.9</ele>
        <time>2023-01-04T13:51:02Z</time>
      </trkpt>
      <trkpt lat="49.9512" lon="2.35599">
        <ele>90.9</ele>
        <time>2023-01-04T13:51:03Z</time>
      </trkpt>
      <trkpt lat="49.95121" lon="2.35599">
        <ele>91</ele>
        <time>2023-01-04T13:51:04Z</time>
      </trkpt>
      <trkpt lat="49.95122" lon="2.35599">
        <ele>91</ele>
        <time>2023-01-04T13:51:05Z</time>
      </trkpt>
      <trkpt lat="49.95123" lon="2.35599">
        <ele>91</ele>
        <time>2023-01-04T13:51:07Z</time>
      </trkpt>
      <trkpt lat="49.95124" lon="2.356">
        <ele>91</ele>
        <time>2023-01-04T13:51:08Z</time>
      </trkpt>
      <trkpt lat="49.95125" lon="2.356">
        <ele>91.1</ele>
        <time>2023-01-04T13:51:09Z</time>
      </trkpt>
      <trkpt lat="49.95127" lon="2.356">
        <ele>91.1</ele>
        <time>2023-01-04T13:51:10Z</time>
      </trkpt>
      <trkpt lat="49.95128" lon="2.35601">
        <ele>91.1</ele>
        <time>2023-01-04T13:51:11Z</time>
      </trkpt>
      <trkpt lat="49.95129" lon="2.35601">
        <ele>91.2</ele>
        <time>2023-01-04T13:51:12Z</time>
      </trkpt>
      <trkpt lat="49.9513" lon="2.35601">
        <ele>91.2</ele>
        <time>2023-01-04T13:51:13Z</time>
      </trkpt>
      <trkpt lat="49.95132" lon="2.35602">
        <ele>91.3</ele>
        <time>2023-01-04T13:51:15Z</time>
      </trkpt>
      <trkpt lat="49.95133" lon="2.35602">
        <ele>91.3</ele>
        <time>2023-01-04T13:51:16Z</time>
      </trkpt>
      <trkpt lat="49.95134" lon="2.35603">
        <ele>91.3</ele>
        <time>2023-01-04T13:51:17Z</time>
      </trkpt>
      <trkpt lat="49.95135" lon="2.35604">
        <ele>91.4</ele>
        <time>2023-01-04T13:51:18Z</time>
      </trkpt>
      <trkpt lat="49.95136" lon="2.35604">
        <ele>91.4</ele>
        <time>2023-01-04T13:51:19Z</time>
      </trkpt>
      <trkpt lat="49.95136" lon="2.35605">
        <ele>91.4</ele>
        <time>2023-01-04T13:51:20Z</time>
      </trkpt>
      <trkpt lat="49.95137" lon="2.35605">
        <ele>91.4</ele>
        <time>2023-01-04T13:51:21Z</time>
      </trkpt>
      <trkpt lat="49.95138" lon="2.35605">
        <ele>91.5</ele>
        <time>2023-01-04T13:51:22Z</time>
      </trkpt>
      <trkpt lat="49.95139" lon="2.35604">
        <ele>91.5</ele>
        <time>2023-01-04T13:51:24Z</time>
      </trkpt>
      <trkpt lat="49.9514" lon="2.35604">
        <ele>91.5</ele>
        <time>2023-01-04T13:51:25Z</time>
      </trkpt>
      <trkpt lat="49.95141" lon="2.35605">
        <ele>91.6</ele>
        <time>2023-01-04T13:51:26Z</time>
      </trkpt>
      <trkpt lat="49.95142" lon="2.35605">
        <ele>91.6</ele>
        <time>2023-01-04T13:51:27Z</time>
      </trkpt>
      <trkpt lat="49.95143" lon="2.35606">
        <ele>91.6</ele>
        <time>2023-01-04T13:51:28Z</time>
      </trkpt>
      <trkpt lat="49.95145" lon="2.35606">
        <ele>91.7</ele>
        <time>2023-01-04T13:51:29Z</time>
      </trkpt>
      <trkpt lat="49.95146" lon="2.35606">
        <ele>91.7</ele>
        <time>2023-01-04T13:51:31Z</time>
      </trkpt>
      <trkpt lat="49.95147" lon="2.35606">
        <ele>91.8</ele>
        <time>2023-01-04T13:51:32Z</time>
      </trkpt>
      <trkpt lat="49.95149" lon="2.35606">
        <ele>91.8</ele>
        <time>2023-01-04T13:51:33Z</time>
      </trkpt>
      <trkpt lat="49.95149" lon="2.35607">
        <ele>91.8</ele>
        <time>2023-01-04T13:51:34Z</time>
      </trkpt>
      <trkpt lat="49.9515" lon="2.35607">
        <ele>91.8</ele>
        <time>2023-01-04T13:51:35Z</time>
      </trkpt>
      <trkpt lat="49.95152" lon="2.35607">
        <ele>91.9</ele>
        <time>2023-01-04T13:51:36Z</time>
      </trkpt>
      <trkpt lat="49.95153" lon="2.35608">
        <ele>91.9</ele>
        <time>2023-01-04T13:51:37Z</time>
      </trkpt>
      <trkpt lat="49.95154" lon="2.35609">
        <ele>91.9</ele>
        <time>2023-01-04T13:51:39Z</time>
      </trkpt>
      <trkpt lat="49.95156" lon="2.35609">
        <ele>91.9</ele>
        <time>2023-01-04T13:51:40Z</time>
      </trkpt>
      <trkpt lat="49.95157" lon="2.35609">
        <ele>92</ele>
        <time>2023-01-04T13:51:41Z</time>
      </trkpt>
      <trkpt lat="49.95158" lon="2.35609">
        <ele>92</ele>
        <time>2023-01-04T13:51:42Z</time>
      </trkpt>
      <trkpt lat="49.95159" lon="2.3561">
        <ele>92</ele>
        <time>2023-01-04T13:51:43Z</time>
      </trkpt>
      <trkpt lat="49.9516" lon="2.3561">
        <ele>92</ele>
        <time>2023-01-04T13:51:44Z</time>
      </trkpt>
      <trkpt lat="49.95162" lon="2.3561">
        <ele>92</ele>
        <time>2023-01-04T13:51:46Z</time>
      </trkpt>
      <trkpt lat="49.95163" lon="2.3561">
        <ele>92.1</ele>
        <time>2023-01-04T13:51:47Z</time>
      </trkpt>
      <trkpt lat="49.95164" lon="2.3561">
        <ele>92.1</ele>
        <time>2023-01-04T13:51:48Z</time>
      </trkpt>
      <trkpt lat="49.95165" lon="2.35611">
        <ele>92.1</ele>
        <time>2023-01-04T13:51:49Z</time>
      </trkpt>
      <trkpt lat="49.95167" lon="2.35612">
        <ele>92.1</ele>
        <time>2023-01-04T13:51:50Z</time>
      </trkpt>
      <trkpt lat="49.95168" lon="2.35613">
        <ele>92.2</ele>
        <time>2023-01-04T13:51:51Z</time>
      </trkpt>
      <trkpt lat="49.95169" lon="2.35613">
        <ele>92.2</ele>
        <time>2023-01-04T13:51:53Z</time>
      </trkpt>
      <trkpt lat="49.9517" lon="2.35614">
        <ele>92.2</ele>
        <time>2023-01-04T13:51:54Z</time>
      </trkpt>
      <trkpt lat="49.95171" lon="2.35615">
        <ele>92.2</ele>
        <time>2023-01-04T13:51:55Z</time>
      </trkpt>
      <trkpt lat="49.95172" lon="2.35615">
        <ele>92.3</ele>
        <time>2023-01-04T13:51:56Z</time>
      </trkpt>
      <trkpt lat="49.95174" lon="2.35616">
        <ele>92.3</ele>
        <time>2023-01-04T13:51:57Z</time>
      </trkpt>
      <trkpt lat="49.95175" lon="2.35617">
        <ele>92.4</ele>
        <time>2023-01-04T13:51:59Z</time>
      </trkpt>
      <trkpt lat="49.95176" lon="2.35617">
        <ele>92.4</ele>
        <time>2023-01-04T13:52:00Z</time>
      </trkpt>
      <trkpt lat="49.95177" lon="2.35618">
        <ele>92.5</ele>
        <time>2023-01-04T13:52:01Z</time>
      </trkpt>
      <trkpt lat="49.95178" lon="2.35619">
        <ele>92.6</ele>
        <time>2023-01-04T13:52:02Z</time>
      </trkpt>
      <trkpt lat="49.95179" lon="2.3562">
        <ele>92.6</ele>
        <time>2023-01-04T13:52:03Z</time>
      </trkpt>
      <trkpt lat="49.9518" lon="2.3562">
        <ele>92.6</ele>
        <time>2023-01-04T13:52:04Z</time>
      </trkpt>
      <trkpt lat="49.95181" lon="2.35621">
        <ele>92.7</ele>
        <time>2023-01-04T13:52:06Z</time>
      </trkpt>
      <trkpt lat="49.95182" lon="2.35622">
        <ele>92.8</ele>
        <time>2023-01-04T13:52:07Z</time>
      </trkpt>
      <trkpt lat="49.95183" lon="2.35622">
        <ele>92.8</ele>
        <time>2023-01-04T13:52:08Z</time>
      </trkpt>
      <trkpt lat="49.95184" lon="2.35623">
        <ele>92.9</ele>
        <time>2023-01-04T13:52:09Z</time>
      </trkpt>
      <trkpt lat="49.95186" lon="2.35623">
        <ele>93</ele>
        <time>2023-01-04T13:52:10Z</time>
      </trkpt>
      <trkpt lat="49.95187" lon="2.35623">
        <ele>93</ele>
        <time>2023-01-04T13:52:12Z</time>
      </trkpt>
      <trkpt lat="49.95188" lon="2.35623">
        <ele>93.1</ele>
        <time>2023-01-04T13:52:13Z</time>
      </trkpt>
      <trkpt lat="49.95189" lon="2.35624">
        <ele>93.1</ele>
        <time>2023-01-04T13:52:14Z</time>
      </trkpt>
      <trkpt lat="49.9519" lon="2.35624">
        <ele>93.2</ele>
        <time>2023-01-04T13:52:15Z</time>
      </trkpt>
      <trkpt lat="49.95191" lon="2.35625">
        <ele>93.2</ele>
        <time>2023-01-04T13:52:16Z</time>
      </trkpt>
      <trkpt lat="49.95193" lon="2.35626">
        <ele>93.3</ele>
        <time>2023-01-04T13:52:17Z</time>
      </trkpt>
      <trkpt lat="49.95194" lon="2.35626">
        <ele>93.4</ele>
        <time>2023-01-04T13:52:19Z</time>
      </trkpt>
      <trkpt lat="49.95195" lon="2.35627">
        <ele>93.4</ele>
        <time>2023-01-04T13:52:20Z</time>
      </trkpt>
      <trkpt lat="49.95196" lon="2.35627">
        <ele>93.5</ele>
        <time>2023-01-04T13:52:21Z</time>
      </trkpt>
      <trkpt lat="49.95197" lon="2.35628">
        <ele>93.5</ele>
        <time>2023-01-04T13:52:22Z</time>
      </trkpt>
      <trkpt lat="49.95198" lon="2.35628">
        <ele>93.5</ele>
        <time>2023-01-04T13:52:23Z</time>
      </trkpt>
      <trkpt lat="49.952" lon="2.35628">
        <ele>93.6</ele>
        <time>2023-01-04T13:52:24Z</time>
      </trkpt>
      <trkpt lat="49.95201" lon="2.35628">
        <ele>93.6</ele>
        <time>2023-01-04T13:52:26Z</time>
      </trkpt>
      <trkpt lat="49.95202" lon="2.35628">
        <ele>93.7</ele>
        <time>2023-01-04T13:52:27Z</time>
      </trkpt>
      <trkpt lat="49.95203" lon="2.35629">
        <ele>93.7</ele>
        <time>2023-01-04T13:52:28Z</time>
      </trkpt>
      <trkpt lat="49.95204" lon="2.35629">
        <ele>93.8</ele>
        <time>2023-01-04T13:52:29Z</time>
      </trkpt>
      <trkpt lat="49.95206" lon="2.3563">
        <ele>93.8</ele>
        <time>2023-01-04T13:52:30Z</time>
      </trkpt>
      <trkpt lat="49.95207" lon="2.3563">
        <ele>93.8</ele>
        <time>2023-01-04T13:52:32Z</time>
      </trkpt>
      <trkpt lat="49.95208" lon="2.3563">
        <ele>93.9</ele>
        <time>2023-01-04T13:52:33Z</time>
      </trkpt>
      <trkpt lat="49.95209" lon="2.3563">
        <ele>93.9</ele>
        <time>2023-01-04T13:52:34Z</time>
      </trkpt>
      <trkpt lat="49.9521" lon="2.3563">
        <ele>94</ele>
        <time>2023-01-04T13:52:35Z</time>
      </trkpt>
      <trkpt lat="49.95212" lon="2.3563">
        <ele>94</ele>
        <time>2023-01-04T13:52:36Z</time>
      </trkpt>
      <trkpt lat="49.95213" lon="2.35631">
        <ele>94.1</ele>
        <time>2023-01-04T13:52:37Z</time>
      </trkpt>
      <trkpt lat="49.95214" lon="2.35632">
        <ele>94.1</ele>
        <time>2023-01-04T13:52:39Z</time>
      </trkpt>
      <trkpt lat="49.95215" lon="2.35632">
        <ele>94.1</ele>
        <time>2023-01-04T13:52:40Z</time>
      </trkpt>
      <trkpt lat="49.95217" lon="2.35633">
        <ele>94.2</ele>
        <time>2023-01-04T13:52:41Z</time>
      </trkpt>
      <trkpt lat="49.95218" lon="2.35633">
        <ele>94.2</ele>
        <time>2023-01-04T13:52:42Z</time>
      </trkpt>
      <trkpt lat="49.95219" lon="2.35633">
        <ele>94.2</ele>
        <time>2023-01-04T13:52:43Z</time>
      </trkpt>
      <trkpt lat="49.95221" lon="2.35635">
        <ele>94.3</ele>
        <time>2023-01-04T13:52:44Z</time>
      </trkpt>
      <trkpt lat="49.95222" lon="2.35635">
        <ele>94.3</ele>
        <time>2023-01-04T13:52:46Z</time>
      </trkpt>
      <trkpt lat="49.95222" lon="2.35636">
        <ele>94.4</ele>
        <time>2023-01-04T13:52:47Z</time>
      </trkpt>
      <trkpt lat="49.95223" lon="2.35637">
        <ele>94.4</ele>
        <time>2023-01-04T13:52:48Z</time>
      </trkpt>
      <trkpt lat="49.95224" lon="2.35637">
        <ele>94.4</ele>
        <time>2023-01-04T13:52:49Z</time>
      </trkpt>
      <trkpt lat="49.95226" lon="2.35638">
        <ele>94.5</ele>
        <time>2023-01-04T13:52:50Z</time>
      </trkpt>
      <trkpt lat="49.95227" lon="2.35638">
        <ele>94.5</ele>
        <time>2023-01-04T13:52:52Z</time>
      </trkpt>
      <trkpt lat="49.95228" lon="2.35638">
        <ele>94.6</ele>
        <time>2023-01-04T13:52:53Z</time>
      </trkpt>
      <trkpt lat="49.9523" lon="2.35638">
        <ele>94.6</ele>
        <time>2023-01-04T13:52:54Z</time>
      </trkpt>
      <trkpt lat="49.95231" lon="2.35638">
        <ele>94.6</ele>
        <time>2023-01-04T13:52:55Z</time>
      </trkpt>
      <trkpt lat="49.95232" lon="2.35639">
        <ele>94.7</ele>
        <time>2023-01-04T13:52:56Z</time>
      </trkpt>
      <trkpt lat="49.95233" lon="2.35639">
        <ele>94.7</ele>
        <time>2023-01-04T13:52:57Z</time>
      </trkpt>
      <trkpt lat="49.95235" lon="2.35639">
        <ele>94.7</ele>
        <time>2023-01-04T13:52:59Z</time>
      </trkpt>
      <trkpt lat="49.95236" lon="2.3564">
        <ele>94.8</ele>
        <time>2023-01-04T13:53:00Z</time>
      </trkpt>
      <trkpt lat="49.95237" lon="2.3564">
        <ele>94.8</ele>
        <time>2023-01-04T13:53:01Z</time>
      </trkpt>
      <trkpt lat="49.95238" lon="2.3564">
        <ele>94.8</ele>
        <time>2023-01-04T13:53:02Z</time>
      </trkpt>
      <trkpt lat="49.9524" lon="2.35641">
        <ele>94.9</ele>
        <time>2023-01-04T13:53:03Z</time>
      </trkpt>
      <trkpt lat="49.95241" lon="2.35641">
        <ele>94.9</ele>
        <time>2023-01-04T13:53:05Z</time>
      </trkpt>
      <trkpt lat="49.95242" lon="2.35641">
        <ele>94.9</ele>
        <time>2023-01-04T13:53:06Z</time>
      </trkpt>
      <trkpt lat="49.95244" lon="2.35642">
        <ele>94.9</ele>
        <time>2023-01-04T13:53:07Z</time>
      </trkpt>
      <trkpt lat="49.95245" lon="2.35642">
        <ele>95</ele>
        <time>2023-01-04T13:53:08Z</time>
      </trkpt>
      <trkpt lat="49.95246" lon="2.35642">
        <ele>95</ele>
        <time>2023-01-04T13:53:09Z</time>
      </trkpt>
      <trkpt lat="49.95248" lon="2.35643">
        <ele>95</ele>
        <time>2023-01-04T13:53:10Z</time>
      </trkpt>
      <trkpt lat="49.95248" lon="2.35643">
        <ele>95</ele>
        <time>2023-01-04T13:53:12Z</time>
      </trkpt>
      <trkpt lat="49.95249" lon="2.35644">
        <ele>95.1</ele>
        <time>2023-01-04T13:53:13Z</time>
      </trkpt>
      <trkpt lat="49.95251" lon="2.35644">
        <ele>95.1</ele>
        <time>2023-01-04T13:53:14Z</time>
      </trkpt>
      <trkpt lat="49.95252" lon="2.35644">
        <ele>95.1</ele>
        <time>2023-01-04T13:53:15Z</time>
      </trkpt>
      <trkpt lat="49.95253" lon="2.35645">
        <ele>95.1</ele>
        <time>2023-01-04T13:53:16Z</time>
      </trkpt>
      <trkpt lat="49.95254" lon="2.35645">
        <ele>95.2</ele>
        <time>2023-01-04T13:53:17Z</time>
      </trkpt>
      <trkpt lat="49.95256" lon="2.35645">
        <ele>95.2</ele>
        <time>2023-01-04T13:53:19Z</time>
      </trkpt>
      <trkpt lat="49.95257" lon="2.35646">
        <ele>95.2</ele>
        <time>2023-01-04T13:53:20Z</time>
      </trkpt>
      <trkpt lat="49.95259" lon="2.35646">
        <ele>95.3</ele>
        <time>2023-01-04T13:53:21Z</time>
      </trkpt>
      <trkpt lat="49.95261" lon="2.35646">
        <ele>95.3</ele>
        <time>2023-01-04T13:53:22Z</time>
      </trkpt>
      <trkpt lat="49.95262" lon="2.35647">
        <ele>95.4</ele>
        <time>2023-01-04T13:53:23Z</time>
      </trkpt>
      <trkpt lat="49.95263" lon="2.35647">
        <ele>95.4</ele>
        <time>2023-01-04T13:53:25Z</time>
      </trkpt>
      <trkpt lat="49.95264" lon="2.35647">
        <ele>95.4</ele>
        <time>2023-01-04T13:53:26Z</time>
      </trkpt>
      <trkpt lat="49.95265" lon="2.35647">
        <ele>95.5</ele>
        <time>2023-01-04T13:53:27Z</time>
      </trkpt>
      <trkpt lat="49.95266" lon="2.35647">
        <ele>95.5</ele>
        <time>2023-01-04T13:53:28Z</time>
      </trkpt>
      <trkpt lat="49.95267" lon="2.35648">
        <ele>95.5</ele>
        <time>2023-01-04T13:53:29Z</time>
      </trkpt>
      <trkpt lat="49.95268" lon="2.35648">
        <ele>95.6</ele>
        <time>2023-01-04T13:53:30Z</time>
      </trkpt>
      <trkpt lat="49.95269" lon="2.35648">
        <ele>95.6</ele>
        <time>2023-01-04T13:53:32Z</time>
      </trkpt>
      <trkpt lat="49.95271" lon="2.35648">
        <ele>95.7</ele>
        <time>2023-01-04T13:53:33Z</time>
      </trkpt>
      <trkpt lat="49.95272" lon="2.35648">
        <ele>95.8</ele>
        <time>2023-01-04T13:53:34Z</time>
      </trkpt>
      <trkpt lat="49.95273" lon="2.35648">
        <ele>95.8</ele>
        <time>2023-01-04T13:53:35Z</time>
      </trkpt>
      <trkpt lat="49.95274" lon="2.35648">
        <ele>95.9</ele>
        <time>2023-01-04T13:53:36Z</time>
      </trkpt>
      <trkpt lat="49.95275" lon="2.35649">
        <ele>95.9</ele>
        <time>2023-01-04T13:53:37Z</time>
      </trkpt>
      <trkpt lat="49.95277" lon="2.35649">
        <ele>96</ele>
        <time>2023-01-04T13:53:39Z</time>
      </trkpt>
      <trkpt lat="49.95278" lon="2.35649">
        <ele>96</ele>
        <time>2023-01-04T13:53:40Z</time>
      </trkpt>
      <trkpt lat="49.95279" lon="2.3565">
        <ele>96.1</ele>
        <time>2023-01-04T13:53:41Z</time>
      </trkpt>
      <trkpt lat="49.95281" lon="2.3565">
        <ele>96.1</ele>
        <time>2023-01-04T13:53:42Z</time>
      </trkpt>
      <trkpt lat="49.95282" lon="2.3565">
        <ele>96.2</ele>
        <time>2023-01-04T13:53:44Z</time>
      </trkpt>
      <trkpt lat="49.95283" lon="2.35651">
        <ele>96.2</ele>
        <time>2023-01-04T13:53:45Z</time>
      </trkpt>
      <trkpt lat="49.95284" lon="2.35651">
        <ele>96.2</ele>
        <time>2023-01-04T13:53:46Z</time>
      </trkpt>
      <trkpt lat="49.95285" lon="2.35652">
        <ele>96.3</ele>
        <time>2023-01-04T13:53:47Z</time>
      </trkpt>
      <trkpt lat="49.95286" lon="2.35652">
        <ele>96.3</ele>
        <time>2023-01-04T13:53:48Z</time>
      </trkpt>
      <trkpt lat="49.95287" lon="2.35653">
        <ele>96.4</ele>
        <time>2023-01-04T13:53:49Z</time>
      </trkpt>
      <trkpt lat="49.95288" lon="2.35653">
        <ele>96.4</ele>
        <time>2023-01-04T13:53:50Z</time>
      </trkpt>
      <trkpt lat="49.95289" lon="2.35654">
        <ele>96.4</ele>
        <time>2023-01-04T13:53:52Z</time>
      </trkpt>
      <trkpt lat="49.9529" lon="2.35654">
        <ele>96.5</ele>
        <time>2023-01-04T13:53:53Z</time>
      </trkpt>
      <trkpt lat="49.95291" lon="2.35654">
        <ele>96.5</ele>
        <time>2023-01-04T13:53:54Z</time>
      </trkpt>
      <trkpt lat="49.95292" lon="2.35655">
        <ele>96.5</ele>
        <time>2023-01-04T13:53:55Z</time>
      </trkpt>
      <trkpt lat="49.95293" lon="2.35655">
        <ele>96.6</ele>
        <time>2023-01-04T13:53:56Z</time>
      </trkpt>
      <trkpt lat="49.95294" lon="2.35656">
        <ele>96.6</ele>
        <time>2023-01-04T13:53:58Z</time>
      </trkpt>
      <trkpt lat="49.95295" lon="2.35657">
        <ele>96.6</ele>
        <time>2023-01-04T13:53:59Z</time>
      </trkpt>
      <trkpt lat="49.95296" lon="2.35657">
        <ele>96.7</ele>
        <time>2023-01-04T13:54:00Z</time>
      </trkpt>
      <trkpt lat="49.95297" lon="2.35658">
        <ele>96.7</ele>
        <time>2023-01-04T13:54:01Z</time>
      </trkpt>
      <trkpt lat="49.95298" lon="2.35659">
        <ele>96.7</ele>
        <time>2023-01-04T13:54:02Z</time>
      </trkpt>
      <trkpt lat="49.95299" lon="2.35659">
        <ele>96.8</ele>
        <time>2023-01-04T13:54:03Z</time>
      </trkpt>
      <trkpt lat="49.953" lon="2.3566">
        <ele>96.8</ele>
        <time>2023-01-04T13:54:04Z</time>
      </trkpt>
      <trkpt lat="49.95301" lon="2.3566">
        <ele>96.8</ele>
        <time>2023-01-04T13:54:05Z</time>
      </trkpt>
      <trkpt lat="49.95302" lon="2.3566">
        <ele>96.9</ele>
        <time>2023-01-04T13:54:07Z</time>
      </trkpt>
      <trkpt lat="49.95303" lon="2.35661">
        <ele>96.9</ele>
        <time>2023-01-04T13:54:08Z</time>
      </trkpt>
      <trkpt lat="49.95304" lon="2.35661">
        <ele>96.9</ele>
        <time>2023-01-04T13:54:09Z</time>
      </trkpt>
      <trkpt lat="49.95305" lon="2.35661">
        <ele>97</ele>
        <time>2023-01-04T13:54:10Z</time>
      </trkpt>
      <trkpt lat="49.95306" lon="2.35661">
        <ele>97</ele>
        <time>2023-01-04T13:54:11Z</time>
      </trkpt>
      <trkpt lat="49.95307" lon="2.35662">
        <ele>97</ele>
        <time>2023-01-04T13:54:12Z</time>
      </trkpt>
      <trkpt lat="49.95308" lon="2.35663">
        <ele>97.1</ele>
        <time>2023-01-04T13:54:14Z</time>
      </trkpt>
      <trkpt lat="49.95309" lon="2.35663">
        <ele>97.1</ele>
        <time>2023-01-04T13:54:15Z</time>
      </trkpt>
      <trkpt lat="49.9531" lon="2.35664">
        <ele>97.1</ele>
        <time>2023-01-04T13:54:16Z</time>
      </trkpt>
      <trkpt lat="49.95311" lon="2.35665">
        <ele>97.2</ele>
        <time>2023-01-04T13:54:17Z</time>
      </trkpt>
      <trkpt lat="49.95312" lon="2.35666">
        <ele>97.2</ele>
        <time>2023-01-04T13:54:18Z</time>
      </trkpt>
      <trkpt lat="49.95313" lon="2.35667">
        <ele>97.3</ele>
        <time>2023-01-04T13:54:19Z</time>
      </trkpt>
      <trkpt lat="49.95315" lon="2.35668">
        <ele>97.3</ele>
        <time>2023-01-04T13:54:21Z</time>
      </trkpt>
      <trkpt lat="49.95316" lon="2.35669">
        <ele>97.3</ele>
        <time>2023-01-04T13:54:22Z</time>
      </trkpt>
      <trkpt lat="49.95317" lon="2.35671">
        <ele>97.4</ele>
        <time>2023-01-04T13:54:23Z</time>
      </trkpt>
      <trkpt lat="49.95318" lon="2.35673">
        <ele>97.5</ele>
        <time>2023-01-04T13:54:24Z</time>
      </trkpt>
      <trkpt lat="49.95319" lon="2.35674">
        <ele>97.5</ele>
        <time>2023-01-04T13:54:25Z</time>
      </trkpt>
      <trkpt lat="49.9532" lon="2.35675">
        <ele>97.5</ele>
        <time>2023-01-04T13:54:26Z</time>
      </trkpt>
      <trkpt lat="49.95321" lon="2.35676">
        <ele>97.6</ele>
        <time>2023-01-04T13:54:27Z</time>
      </trkpt>
      <trkpt lat="49.95321" lon="2.35678">
        <ele>97.6</ele>
        <time>2023-01-04T13:54:28Z</time>
      </trkpt>
      <trkpt lat="49.95322" lon="2.3568">
        <ele>97.7</ele>
        <time>2023-01-04T13:54:30Z</time>
      </trkpt>
      <trkpt lat="49.95323" lon="2.35682">
        <ele>97.7</ele>
        <time>2023-01-04T13:54:31Z</time>
      </trkpt>
      <trkpt lat="49.95324" lon="2.35683">
        <ele>97.7</ele>
        <time>2023-01-04T13:54:32Z</time>
      </trkpt>
      <trkpt lat="49.95325" lon="2.35684">
        <ele>97.8</ele>
        <time>2023-01-04T13:54:33Z</time>
      </trkpt>
      <trkpt lat="49.95326" lon="2.35685">
        <ele>97.8</ele>
        <time>2023-01-04T13:54:34Z</time>
      </trkpt>
      <trkpt lat="49.95326" lon="2.35687">
        <ele>97.8</ele>
        <time>2023-01-04T13:54:35Z</time>
      </trkpt>
      <trkpt lat="49.95328" lon="2.3569">
        <ele>97.9</ele>
        <time>2023-01-04T13:54:38Z</time>
      </trkpt>
      <trkpt lat="49.95328" lon="2.35691">
        <ele>98</ele>
        <time>2023-01-04T13:54:39Z</time>
      </trkpt>
      <trkpt lat="49.95329" lon="2.35693">
        <ele>98</ele>
        <time>2023-01-04T13:54:40Z</time>
      </trkpt>
      <trkpt lat="49.95329" lon="2.35694">
        <ele>98</ele>
        <time>2023-01-04T13:54:41Z</time>
      </trkpt>
      <trkpt lat="49.9533" lon="2.35696">
        <ele>98</ele>
        <time>2023-01-04T13:54:42Z</time>
      </trkpt>
      <trkpt lat="49.9533" lon="2.35698">
        <ele>98.1</ele>
        <time>2023-01-04T13:54:43Z</time>
      </trkpt>
      <trkpt lat="49.95331" lon="2.357">
        <ele>98.1</ele>
        <time>2023-01-04T13:54:45Z</time>
      </trkpt>
      <trkpt lat="49.95331" lon="2.35701">
        <ele>98.1</ele>
        <time>2023-01-04T13:54:46Z</time>
      </trkpt>
      <trkpt lat="49.95332" lon="2.35703">
        <ele>98.2</ele>
        <time>2023-01-04T13:54:47Z</time>
      </trkpt>
      <trkpt lat="49.95333" lon="2.35704">
        <ele>98.2</ele>
        <time>2023-01-04T13:54:48Z</time>
      </trkpt>
      <trkpt lat="49.95334" lon="2.35706">
        <ele>98.2</ele>
        <time>2023-01-04T13:54:49Z</time>
      </trkpt>
      <trkpt lat="49.95335" lon="2.35707">
        <ele>98.3</ele>
        <time>2023-01-04T13:54:50Z</time>
      </trkpt>
      <trkpt lat="49.95335" lon="2.35708">
        <ele>98.3</ele>
        <time>2023-01-04T13:54:51Z</time>
      </trkpt>
      <trkpt lat="49.95337" lon="2.3571">
        <ele>98.3</ele>
        <time>2023-01-04T13:54:53Z</time>
      </trkpt>
      <trkpt lat="49.95338" lon="2.35711">
        <ele>98.3</ele>
        <time>2023-01-04T13:54:54Z</time>
      </trkpt>
      <trkpt lat="49.95338" lon="2.35712">
        <ele>98.4</ele>
        <time>2023-01-04T13:54:55Z</time>
      </trkpt>
      <trkpt lat="49.95339" lon="2.35713">
        <ele>98.4</ele>
        <time>2023-01-04T13:54:56Z</time>
      </trkpt>
      <trkpt lat="49.9534" lon="2.35714">
        <ele>98.4</ele>
        <time>2023-01-04T13:54:57Z</time>
      </trkpt>
      <trkpt lat="49.95341" lon="2.35715">
        <ele>98.4</ele>
        <time>2023-01-04T13:54:58Z</time>
      </trkpt>
      <trkpt lat="49.95341" lon="2.35716">
        <ele>98.5</ele>
        <time>2023-01-04T13:55:00Z</time>
      </trkpt>
      <trkpt lat="49.95342" lon="2.35718">
        <ele>98.5</ele>
        <time>2023-01-04T13:55:01Z</time>
      </trkpt>
      <trkpt lat="49.95343" lon="2.35719">
        <ele>98.5</ele>
        <time>2023-01-04T13:55:02Z</time>
      </trkpt>
      <trkpt lat="49.95344" lon="2.3572">
        <ele>98.5</ele>
        <time>2023-01-04T13:55:03Z</time>
      </trkpt>
      <trkpt lat="49.95344" lon="2.35721">
        <ele>98.5</ele>
        <time>2023-01-04T13:55:04Z</time>
      </trkpt>
      <trkpt lat="49.95345" lon="2.35722">
        <ele>98.6</ele>
        <time>2023-01-04T13:55:05Z</time>
      </trkpt>
      <trkpt lat="49.95346" lon="2.35724">
        <ele>98.6</ele>
        <time>2023-01-04T13:55:06Z</time>
      </trkpt>
      <trkpt lat="49.95346" lon="2.35724">
        <ele>98.6</ele>
        <time>2023-01-04T13:55:08Z</time>
      </trkpt>
      <trkpt lat="49.95347" lon="2.35725">
        <ele>98.6</ele>
        <time>2023-01-04T13:55:09Z</time>
      </trkpt>
      <trkpt lat="49.95348" lon="2.35726">
        <ele>98.6</ele>
        <time>2023-01-04T13:55:10Z</time>
      </trkpt>
      <trkpt lat="49.95348" lon="2.35726">
        <ele>98.7</ele>
        <time>2023-01-04T13:55:11Z</time>
      </trkpt>
      <trkpt lat="49.95349" lon="2.35727">
        <ele>98.7</ele>
        <time>2023-01-04T13:55:12Z</time>
      </trkpt>
      <trkpt lat="49.9535" lon="2.35728">
        <ele>98.7</ele>
        <time>2023-01-04T13:55:14Z</time>
      </trkpt>
      <trkpt lat="49.95351" lon="2.35729">
        <ele>98.7</ele>
        <time>2023-01-04T13:55:15Z</time>
      </trkpt>
      <trkpt lat="49.95352" lon="2.3573">
        <ele>98.7</ele>
        <time>2023-01-04T13:55:16Z</time>
      </trkpt>
      <trkpt lat="49.95353" lon="2.35731">
        <ele>98.7</ele>
        <time>2023-01-04T13:55:17Z</time>
      </trkpt>
      <trkpt lat="49.95354" lon="2.35732">
        <ele>98.7</ele>
        <time>2023-01-04T13:55:18Z</time>
      </trkpt>
      <trkpt lat="49.95355" lon="2.35733">
        <ele>98.7</ele>
        <time>2023-01-04T13:55:20Z</time>
      </trkpt>
      <trkpt lat="49.95355" lon="2.35734">
        <ele>98.8</ele>
        <time>2023-01-04T13:55:21Z</time>
      </trkpt>
      <trkpt lat="49.95356" lon="2.35735">
        <ele>98.8</ele>
        <time>2023-01-04T13:55:22Z</time>
      </trkpt>
      <trkpt lat="49.95357" lon="2.35736">
        <ele>98.8</ele>
        <time>2023-01-04T13:55:23Z</time>
      </trkpt>
      <trkpt lat="49.95358" lon="2.35737">
        <ele>98.8</ele>
        <time>2023-01-04T13:55:24Z</time>
      </trkpt>
      <trkpt lat="49.95358" lon="2.35738">
        <ele>98.8</ele>
        <time>2023-01-04T13:55:25Z</time>
      </trkpt>
      <trkpt lat="49.95359" lon="2.35739">
        <ele>98.8</ele>
        <time>2023-01-04T13:55:27Z</time>
      </trkpt>
      <trkpt lat="49.9536" lon="2.3574">
        <ele>98.8</ele>
        <time>2023-01-04T13:55:28Z</time>
      </trkpt>
      <trkpt lat="49.95361" lon="2.35742">
        <ele>98.8</ele>
        <time>2023-01-04T13:55:29Z</time>
      </trkpt>
      <trkpt lat="49.95361" lon="2.35743">
        <ele>98.8</ele>
        <time>2023-01-04T13:55:30Z</time>
      </trkpt>
      <trkpt lat="49.95362" lon="2.35744">
        <ele>98.8</ele>
        <time>2023-01-04T13:55:31Z</time>
      </trkpt>
      <trkpt lat="49.95363" lon="2.35745">
        <ele>98.8</ele>
        <time>2023-01-04T13:55:32Z</time>
      </trkpt>
      <trkpt lat="49.95364" lon="2.35746">
        <ele>98.8</ele>
        <time>2023-01-04T13:55:33Z</time>
      </trkpt>
      <trkpt lat="49.95364" lon="2.35747">
        <ele>98.9</ele>
        <time>2023-01-04T13:55:34Z</time>
      </trkpt>
      <trkpt lat="49.95365" lon="2.35748">
        <ele>98.9</ele>
        <time>2023-01-04T13:55:36Z</time>
      </trkpt>
      <trkpt lat="49.95366" lon="2.35749">
        <ele>98.9</ele>
        <time>2023-01-04T13:55:37Z</time>
      </trkpt>
      <trkpt lat="49.95367" lon="2.3575">
        <ele>98.9</ele>
        <time>2023-01-04T13:55:38Z</time>
      </trkpt>
      <trkpt lat="49.95369" lon="2.35752">
        <ele>98.9</ele>
        <time>2023-01-04T13:55:39Z</time>
      </trkpt>
      <trkpt lat="49.9537" lon="2.35753">
        <ele>98.9</ele>
        <time>2023-01-04T13:55:40Z</time>
      </trkpt>
      <trkpt lat="49.95371" lon="2.35753">
        <ele>98.9</ele>
        <time>2023-01-04T13:55:42Z</time>
      </trkpt>
      <trkpt lat="49.95371" lon="2.35754">
        <ele>98.9</ele>
        <time>2023-01-04T13:55:43Z</time>
      </trkpt>
      <trkpt lat="49.95372" lon="2.35755">
        <ele>98.9</ele>
        <time>2023-01-04T13:55:44Z</time>
      </trkpt>
      <trkpt lat="49.95373" lon="2.35755">
        <ele>99</ele>
        <time>2023-01-04T13:55:45Z</time>
      </trkpt>
      <trkpt lat="49.95374" lon="2.35756">
        <ele>99</ele>
        <time>2023-01-04T13:55:46Z</time>
      </trkpt>
      <trkpt lat="49.95375" lon="2.35757">
        <ele>99</ele>
        <time>2023-01-04T13:55:47Z</time>
      </trkpt>
      <trkpt lat="49.95376" lon="2.35758">
        <ele>99</ele>
        <time>2023-01-04T13:55:48Z</time>
      </trkpt>
      <trkpt lat="49.95378" lon="2.35759">
        <ele>99</ele>
        <time>2023-01-04T13:55:50Z</time>
      </trkpt>
      <trkpt lat="49.95379" lon="2.3576">
        <ele>99</ele>
        <time>2023-01-04T13:55:51Z</time>
      </trkpt>
      <trkpt lat="49.95379" lon="2.3576">
        <ele>99.1</ele>
        <time>2023-01-04T13:55:52Z</time>
      </trkpt>
      <trkpt lat="49.95381" lon="2.35762">
        <ele>99.1</ele>
        <time>2023-01-04T13:55:53Z</time>
      </trkpt>
      <trkpt lat="49.95382" lon="2.35763">
        <ele>99.1</ele>
        <time>2023-01-04T13:55:54Z</time>
      </trkpt>
      <trkpt lat="49.95382" lon="2.35764">
        <ele>99.1</ele>
        <time>2023-01-04T13:55:55Z</time>
      </trkpt>
      <trkpt lat="49.95383" lon="2.35765">
        <ele>99.1</ele>
        <time>2023-01-04T13:55:56Z</time>
      </trkpt>
      <trkpt lat="49.95385" lon="2.35766">
        <ele>99.2</ele>
        <time>2023-01-04T13:55:58Z</time>
      </trkpt>
      <trkpt lat="49.95386" lon="2.35767">
        <ele>99.2</ele>
        <time>2023-01-04T13:55:59Z</time>
      </trkpt>
      <trkpt lat="49.95387" lon="2.35768">
        <ele>99.2</ele>
        <time>2023-01-04T13:56:00Z</time>
      </trkpt>
      <trkpt lat="49.95389" lon="2.3577">
        <ele>99.3</ele>
        <time>2023-01-04T13:56:01Z</time>
      </trkpt>
      <trkpt lat="49.9539" lon="2.35771">
        <ele>99.3</ele>
        <time>2023-01-04T13:56:02Z</time>
      </trkpt>
      <trkpt lat="49.9539" lon="2.35771">
        <ele>99.3</ele>
        <time>2023-01-04T13:56:03Z</time>
      </trkpt>
      <trkpt lat="49.95392" lon="2.35772">
        <ele>99.3</ele>
        <time>2023-01-04T13:56:05Z</time>
      </trkpt>
      <trkpt lat="49.95393" lon="2.35773">
        <ele>99.4</ele>
        <time>2023-01-04T13:56:06Z</time>
      </trkpt>
      <trkpt lat="49.95394" lon="2.35774">
        <ele>99.4</ele>
        <time>2023-01-04T13:56:07Z</time>
      </trkpt>
      <trkpt lat="49.95395" lon="2.35775">
        <ele>99.4</ele>
        <time>2023-01-04T13:56:08Z</time>
      </trkpt>
      <trkpt lat="49.95396" lon="2.35776">
        <ele>99.4</ele>
        <time>2023-01-04T13:56:09Z</time>
      </trkpt>
      <trkpt lat="49.95398" lon="2.35777">
        <ele>99.5</ele>
        <time>2023-01-04T13:56:10Z</time>
      </trkpt>
      <trkpt lat="49.95399" lon="2.35778">
        <ele>99.5</ele>
        <time>2023-01-04T13:56:12Z</time>
      </trkpt>
      <trkpt lat="49.954" lon="2.35779">
        <ele>99.5</ele>
        <time>2023-01-04T13:56:13Z</time>
      </trkpt>
      <trkpt lat="49.95401" lon="2.3578">
        <ele>99.5</ele>
        <time>2023-01-04T13:56:14Z</time>
      </trkpt>
      <trkpt lat="49.95402" lon="2.35781">
        <ele>99.6</ele>
        <time>2023-01-04T13:56:15Z</time>
      </trkpt>
      <trkpt lat="49.95403" lon="2.35782">
        <ele>99.6</ele>
        <time>2023-01-04T13:56:16Z</time>
      </trkpt>
      <trkpt lat="49.95403" lon="2.35783">
        <ele>99.6</ele>
        <time>2023-01-04T13:56:17Z</time>
      </trkpt>
      <trkpt lat="49.95404" lon="2.35784">
        <ele>99.6</ele>
        <time>2023-01-04T13:56:18Z</time>
      </trkpt>
      <trkpt lat="49.95405" lon="2.35786">
        <ele>99.6</ele>
        <time>2023-01-04T13:56:19Z</time>
      </trkpt>
      <trkpt lat="49.95406" lon="2.35787">
        <ele>99.7</ele>
        <time>2023-01-04T13:56:20Z</time>
      </trkpt>
      <trkpt lat="49.95407" lon="2.35788">
        <ele>99.7</ele>
        <time>2023-01-04T13:56:22Z</time>
      </trkpt>
      <trkpt lat="49.95408" lon="2.35789">
        <ele>99.7</ele>
        <time>2023-01-04T13:56:23Z</time>
      </trkpt>
      <trkpt lat="49.95409" lon="2.35791">
        <ele>99.7</ele>
        <time>2023-01-04T13:56:24Z</time>
      </trkpt>
      <trkpt lat="49.9541" lon="2.35791">
        <ele>99.7</ele>
        <time>2023-01-04T13:56:25Z</time>
      </trkpt>
      <trkpt lat="49.95411" lon="2.35792">
        <ele>99.8</ele>
        <time>2023-01-04T13:56:26Z</time>
      </trkpt>
      <trkpt lat="49.95412" lon="2.35793">
        <ele>99.8</ele>
        <time>2023-01-04T13:56:27Z</time>
      </trkpt>
      <trkpt lat="49.95414" lon="2.35795">
        <ele>99.8</ele>
        <time>2023-01-04T13:56:28Z</time>
      </trkpt>
      <trkpt lat="49.95415" lon="2.35796">
        <ele>99.8</ele>
        <time>2023-01-04T13:56:30Z</time>
      </trkpt>
      <trkpt lat="49.95415" lon="2.35797">
        <ele>99.8</ele>
        <time>2023-01-04T13:56:31Z</time>
      </trkpt>
      <trkpt lat="49.95417" lon="2.35799">
        <ele>99.8</ele>
        <time>2023-01-04T13:56:32Z</time>
      </trkpt>
      <trkpt lat="49.95417" lon="2.35799">
        <ele>99.8</ele>
        <time>2023-01-04T13:56:33Z</time>
      </trkpt>
      <trkpt lat="49.95418" lon="2.358">
        <ele>99.8</ele>
        <time>2023-01-04T13:56:34Z</time>
      </trkpt>
      <trkpt lat="49.95419" lon="2.35802">
        <ele>99.9</ele>
        <time>2023-01-04T13:56:35Z</time>
      </trkpt>
      <trkpt lat="49.95419" lon="2.35804">
        <ele>99.9</ele>
        <time>2023-01-04T13:56:37Z</time>
      </trkpt>
      <trkpt lat="49.9542" lon="2.35806">
        <ele>99.9</ele>
        <time>2023-01-04T13:56:38Z</time>
      </trkpt>
      <trkpt lat="49.95421" lon="2.35808">
        <ele>99.9</ele>
        <time>2023-01-04T13:56:39Z</time>
      </trkpt>
      <trkpt lat="49.95422" lon="2.35811">
        <ele>99.9</ele>
        <time>2023-01-04T13:56:40Z</time>
      </trkpt>
      <trkpt lat="49.95422" lon="2.35812">
        <ele>99.9</ele>
        <time>2023-01-04T13:56:41Z</time>
      </trkpt>
      <trkpt lat="49.95423" lon="2.35813">
        <ele>99.9</ele>
        <time>2023-01-04T13:56:42Z</time>
      </trkpt>
      <trkpt lat="49.95424" lon="2.35816">
        <ele>99.9</ele>
        <time>2023-01-04T13:56:44Z</time>
      </trkpt>
      <trkpt lat="49.95424" lon="2.35817">
        <ele>99.9</ele>
        <time>2023-01-04T13:56:45Z</time>
      </trkpt>
      <trkpt lat="49.95425" lon="2.35818">
        <ele>100</ele>
        <time>2023-01-04T13:56:46Z</time>
      </trkpt>
      <trkpt lat="49.95427" lon="2.3582">
        <ele>100</ele>
        <time>2023-01-04T13:56:47Z</time>
      </trkpt>
      <trkpt lat="49.95427" lon="2.35821">
        <ele>100</ele>
        <time>2023-01-04T13:56:48Z</time>
      </trkpt>
      <trkpt lat="49.95428" lon="2.35821">
        <ele>100</ele>
        <time>2023-01-04T13:56:49Z</time>
      </trkpt>
      <trkpt lat="49.95429" lon="2.35823">
        <ele>100</ele>
        <time>2023-01-04T13:56:50Z</time>
      </trkpt>
      <trkpt lat="49.95431" lon="2.35823">
        <ele>100</ele>
        <time>2023-01-04T13:56:51Z</time>
      </trkpt>
      <trkpt lat="49.95432" lon="2.35824">
        <ele>100</ele>
        <time>2023-01-04T13:56:53Z</time>
      </trkpt>
      <trkpt lat="49.95434" lon="2.35826">
        <ele>100</ele>
        <time>2023-01-04T13:56:54Z</time>
      </trkpt>
      <trkpt lat="49.95435" lon="2.35827">
        <ele>100</ele>
        <time>2023-01-04T13:56:55Z</time>
      </trkpt>
      <trkpt lat="49.95436" lon="2.35827">
        <ele>100</ele>
        <time>2023-01-04T13:56:56Z</time>
      </trkpt>
      <trkpt lat="49.95438" lon="2.35829">
        <ele>100</ele>
        <time>2023-01-04T13:56:57Z</time>
      </trkpt>
      <trkpt lat="49.95438" lon="2.3583">
        <ele>100</ele>
        <time>2023-01-04T13:56:58Z</time>
      </trkpt>
      <trkpt lat="49.95439" lon="2.35831">
        <ele>100</ele>
        <time>2023-01-04T13:56:59Z</time>
      </trkpt>
      <trkpt lat="49.9544" lon="2.35832">
        <ele>100.1</ele>
        <time>2023-01-04T13:57:00Z</time>
      </trkpt>
      <trkpt lat="49.95441" lon="2.35834">
        <ele>100.1</ele>
        <time>2023-01-04T13:57:01Z</time>
      </trkpt>
      <trkpt lat="49.95442" lon="2.35835">
        <ele>100.1</ele>
        <time>2023-01-04T13:57:02Z</time>
      </trkpt>
      <trkpt lat="49.95443" lon="2.35837">
        <ele>100.1</ele>
        <time>2023-01-04T13:57:04Z</time>
      </trkpt>
      <trkpt lat="49.95444" lon="2.35839">
        <ele>100.1</ele>
        <time>2023-01-04T13:57:05Z</time>
      </trkpt>
      <trkpt lat="49.95445" lon="2.35841">
        <ele>100.1</ele>
        <time>2023-01-04T13:57:06Z</time>
      </trkpt>
      <trkpt lat="49.95445" lon="2.35844">
        <ele>100.1</ele>
        <time>2023-01-04T13:57:07Z</time>
      </trkpt>
      <trkpt lat="49.95445" lon="2.35845">
        <ele>100.1</ele>
        <time>2023-01-04T13:57:08Z</time>
      </trkpt>
      <trkpt lat="49.95446" lon="2.35846">
        <ele>100.1</ele>
        <time>2023-01-04T13:57:09Z</time>
      </trkpt>
      <trkpt lat="49.95446" lon="2.35848">
        <ele>100.1</ele>
        <time>2023-01-04T13:57:11Z</time>
      </trkpt>
      <trkpt lat="49.95446" lon="2.35849">
        <ele>100.1</ele>
        <time>2023-01-04T13:57:12Z</time>
      </trkpt>
      <trkpt lat="49.95447" lon="2.35851">
        <ele>100.1</ele>
        <time>2023-01-04T13:57:13Z</time>
      </trkpt>
      <trkpt lat="49.95449" lon="2.35853">
        <ele>100.1</ele>
        <time>2023-01-04T13:57:14Z</time>
      </trkpt>
      <trkpt lat="49.95449" lon="2.35854">
        <ele>100.1</ele>
        <time>2023-01-04T13:57:15Z</time>
      </trkpt>
      <trkpt lat="49.9545" lon="2.35855">
        <ele>100.1</ele>
        <time>2023-01-04T13:57:16Z</time>
      </trkpt>
      <trkpt lat="49.95451" lon="2.35857">
        <ele>100.2</ele>
        <time>2023-01-04T13:57:17Z</time>
      </trkpt>
      <trkpt lat="49.95452" lon="2.35858">
        <ele>100.2</ele>
        <time>2023-01-04T13:57:18Z</time>
      </trkpt>
      <trkpt lat="49.95454" lon="2.3586">
        <ele>100.2</ele>
        <time>2023-01-04T13:57:20Z</time>
      </trkpt>
      <trkpt lat="49.95454" lon="2.35861">
        <ele>100.2</ele>
        <time>2023-01-04T13:57:21Z</time>
      </trkpt>
      <trkpt lat="49.95455" lon="2.35861">
        <ele>100.2</ele>
        <time>2023-01-04T13:57:22Z</time>
      </trkpt>
      <trkpt lat="49.95456" lon="2.35862">
        <ele>100.2</ele>
        <time>2023-01-04T13:57:23Z</time>
      </trkpt>
      <trkpt lat="49.95457" lon="2.35863">
        <ele>100.2</ele>
        <time>2023-01-04T13:57:24Z</time>
      </trkpt>
      <trkpt lat="49.95458" lon="2.35864">
        <ele>100.2</ele>
        <time>2023-01-04T13:57:25Z</time>
      </trkpt>
      <trkpt lat="49.9546" lon="2.35866">
        <ele>100.3</ele>
        <time>2023-01-04T13:57:26Z</time>
      </trkpt>
      <trkpt lat="49.9546" lon="2.35868">
        <ele>100.3</ele>
        <time>2023-01-04T13:57:28Z</time>
      </trkpt>
      <trkpt lat="49.95461" lon="2.35869">
        <ele>100.3</ele>
        <time>2023-01-04T13:57:29Z</time>
      </trkpt>
      <trkpt lat="49.95462" lon="2.3587">
        <ele>100.3</ele>
        <time>2023-01-04T13:57:30Z</time>
      </trkpt>
      <trkpt lat="49.95462" lon="2.35871">
        <ele>100.3</ele>
        <time>2023-01-04T13:57:31Z</time>
      </trkpt>
      <trkpt lat="49.95463" lon="2.35874">
        <ele>100.4</ele>
        <time>2023-01-04T13:57:32Z</time>
      </trkpt>
      <trkpt lat="49.95463" lon="2.35876">
        <ele>100.4</ele>
        <time>2023-01-04T13:57:33Z</time>
      </trkpt>
      <trkpt lat="49.95464" lon="2.35877">
        <ele>100.4</ele>
        <time>2023-01-04T13:57:34Z</time>
      </trkpt>
      <trkpt lat="49.95464" lon="2.35879">
        <ele>100.5</ele>
        <time>2023-01-04T13:57:35Z</time>
      </trkpt>
      <trkpt lat="49.95463" lon="2.35881">
        <ele>100.5</ele>
        <time>2023-01-04T13:57:36Z</time>
      </trkpt>
      <trkpt lat="49.95464" lon="2.35884">
        <ele>100.5</ele>
        <time>2023-01-04T13:57:38Z</time>
      </trkpt>
      <trkpt lat="49.95464" lon="2.35886">
        <ele>100.5</ele>
        <time>2023-01-04T13:57:39Z</time>
      </trkpt>
      <trkpt lat="49.95464" lon="2.35889">
        <ele>100.5</ele>
        <time>2023-01-04T13:57:40Z</time>
      </trkpt>
      <trkpt lat="49.95464" lon="2.35893">
        <ele>100.4</ele>
        <time>2023-01-04T13:57:41Z</time>
      </trkpt>
      <trkpt lat="49.95464" lon="2.35895">
        <ele>100.4</ele>
        <time>2023-01-04T13:57:42Z</time>
      </trkpt>
      <trkpt lat="49.95465" lon="2.35897">
        <ele>100.4</ele>
        <time>2023-01-04T13:57:44Z</time>
      </trkpt>
      <trkpt lat="49.95465" lon="2.35899">
        <ele>100.3</ele>
        <time>2023-01-04T13:57:45Z</time>
      </trkpt>
      <trkpt lat="49.95465" lon="2.35902">
        <ele>100.3</ele>
        <time>2023-01-04T13:57:46Z</time>
      </trkpt>
      <trkpt lat="49.95464" lon="2.35904">
        <ele>100.3</ele>
        <time>2023-01-04T13:57:47Z</time>
      </trkpt>
      <trkpt lat="49.95462" lon="2.35906">
        <ele>100.2</ele>
        <time>2023-01-04T13:57:48Z</time>
      </trkpt>
      <trkpt lat="49.9546" lon="2.35909">
        <ele>100.1</ele>
        <time>2023-01-04T13:57:49Z</time>
      </trkpt>
      <trkpt lat="49.9546" lon="2.3591">
        <ele>100.1</ele>
        <time>2023-01-04T13:57:50Z</time>
      </trkpt>
      <trkpt lat="49.95459" lon="2.35911">
        <ele>100.1</ele>
        <time>2023-01-04T13:57:51Z</time>
      </trkpt>
      <trkpt lat="49.95458" lon="2.35913">
        <ele>100.1</ele>
        <time>2023-01-04T13:57:53Z</time>
      </trkpt>
      <trkpt lat="49.95458" lon="2.35914">
        <ele>100</ele>
        <time>2023-01-04T13:57:54Z</time>
      </trkpt>
      <trkpt lat="49.95458" lon="2.35917">
        <ele>100</ele>
        <time>2023-01-04T13:57:55Z</time>
      </trkpt>
      <trkpt lat="49.95457" lon="2.35919">
        <ele>99.9</ele>
        <time>2023-01-04T13:57:56Z</time>
      </trkpt>
      <trkpt lat="49.95457" lon="2.35921">
        <ele>99.9</ele>
        <time>2023-01-04T13:57:57Z</time>
      </trkpt>
      <trkpt lat="49.95457" lon="2.35924">
        <ele>99.9</ele>
        <time>2023-01-04T13:57:58Z</time>
      </trkpt>
      <trkpt lat="49.95456" lon="2.35927">
        <ele>99.8</ele>
        <time>2023-01-04T13:57:59Z</time>
      </trkpt>
      <trkpt lat="49.95456" lon="2.35929">
        <ele>99.8</ele>
        <time>2023-01-04T13:58:00Z</time>
      </trkpt>
      <trkpt lat="49.95456" lon="2.3593">
        <ele>99.7</ele>
        <time>2023-01-04T13:58:01Z</time>
      </trkpt>
      <trkpt lat="49.95456" lon="2.35932">
        <ele>99.7</ele>
        <time>2023-01-04T13:58:02Z</time>
      </trkpt>
      <trkpt lat="49.95456" lon="2.35934">
        <ele>99.7</ele>
        <time>2023-01-04T13:58:03Z</time>
      </trkpt>
      <trkpt lat="49.95456" lon="2.35936">
        <ele>99.6</ele>
        <time>2023-01-04T13:58:05Z</time>
      </trkpt>
      <trkpt lat="49.95456" lon="2.35938">
        <ele>99.6</ele>
        <time>2023-01-04T13:58:06Z</time>
      </trkpt>
      <trkpt lat="49.95455" lon="2.35941">
        <ele>99.6</ele>
        <time>2023-01-04T13:58:07Z</time>
      </trkpt>
      <trkpt lat="49.95455" lon="2.35944">
        <ele>99.5</ele>
        <time>2023-01-04T13:58:08Z</time>
      </trkpt>
      <trkpt lat="49.95455" lon="2.35946">
        <ele>99.5</ele>
        <time>2023-01-04T13:58:09Z</time>
      </trkpt>
      <trkpt lat="49.95455" lon="2.35947">
        <ele>99.5</ele>
        <time>2023-01-04T13:58:10Z</time>
      </trkpt>
      <trkpt lat="49.95455" lon="2.3595">
        <ele>99.4</ele>
        <time>2023-01-04T13:58:11Z</time>
      </trkpt>
      <trkpt lat="49.95455" lon="2.35952">
        <ele>99.4</ele>
        <time>2023-01-04T13:58:12Z</time>
      </trkpt>
      <trkpt lat="49.95455" lon="2.35953">
        <ele>99.4</ele>
        <time>2023-01-04T13:58:14Z</time>
      </trkpt>
      <trkpt lat="49.95455" lon="2.35955">
        <ele>99.4</ele>
        <time>2023-01-04T13:58:15Z</time>
      </trkpt>
      <trkpt lat="49.95455" lon="2.35957">
        <ele>99.3</ele>
        <time>2023-01-04T13:58:16Z</time>
      </trkpt>
      <trkpt lat="49.95455" lon="2.35958">
        <ele>99.3</ele>
        <time>2023-01-04T13:58:17Z</time>
      </trkpt>
      <trkpt lat="49.95455" lon="2.35962">
        <ele>99.3</ele>
        <time>2023-01-04T13:58:18Z</time>
      </trkpt>
      <trkpt lat="49.95455" lon="2.35963">
        <ele>99.2</ele>
        <time>2023-01-04T13:58:19Z</time>
      </trkpt>
      <trkpt lat="49.95455" lon="2.35964">
        <ele>99.2</ele>
        <time>2023-01-04T13:58:20Z</time>
      </trkpt>
      <trkpt lat="49.95455" lon="2.35967">
        <ele>99.2</ele>
        <time>2023-01-04T13:58:21Z</time>
      </trkpt>
      <trkpt lat="49.95455" lon="2.35969">
        <ele>99.2</ele>
        <time>2023-01-04T13:58:22Z</time>
      </trkpt>
      <trkpt lat="49.95455" lon="2.3597">
        <ele>99.2</ele>
        <time>2023-01-04T13:58:24Z</time>
      </trkpt>
      <trkpt lat="49.95456" lon="2.35972">
        <ele>99.1</ele>
        <time>2023-01-04T13:58:25Z</time>
      </trkpt>
      <trkpt lat="49.95456" lon="2.35973">
        <ele>99.1</ele>
        <time>2023-01-04T13:58:26Z</time>
      </trkpt>
      <trkpt lat="49.95456" lon="2.35975">
        <ele>99.1</ele>
        <time>2023-01-04T13:58:27Z</time>
      </trkpt>
      <trkpt lat="49.95456" lon="2.35978">
        <ele>99.1</ele>
        <time>2023-01-04T13:58:28Z</time>
      </trkpt>
      <trkpt lat="49.95456" lon="2.35979">
        <ele>99.1</ele>
        <time>2023-01-04T13:58:29Z</time>
      </trkpt>
      <trkpt lat="49.95456" lon="2.35982">
        <ele>99</ele>
        <time>2023-01-04T13:58:30Z</time>
      </trkpt>
      <trkpt lat="49.95456" lon="2.35983">
        <ele>99</ele>
        <time>2023-01-04T13:58:31Z</time>
      </trkpt>
      <trkpt lat="49.95456" lon="2.35985">
        <ele>99</ele>
        <time>2023-01-04T13:58:32Z</time>
      </trkpt>
      <trkpt lat="49.95456" lon="2.35987">
        <ele>99</ele>
        <time>2023-01-04T13:58:34Z</time>
      </trkpt>
      <trkpt lat="49.95456" lon="2.35989">
        <ele>99</ele>
        <time>2023-01-04T13:58:35Z</time>
      </trkpt>
      <trkpt lat="49.95456" lon="2.35991">
        <ele>99</ele>
        <time>2023-01-04T13:58:36Z</time>
      </trkpt>
      <trkpt lat="49.95456" lon="2.35994">
        <ele>99</ele>
        <time>2023-01-04T13:58:37Z</time>
      </trkpt>
      <trkpt lat="49.95456" lon="2.35997">
        <ele>98.9</ele>
        <time>2023-01-04T13:58:38Z</time>
      </trkpt>
      <trkpt lat="49.95455" lon="2.35998">
        <ele>98.9</ele>
        <time>2023-01-04T13:58:39Z</time>
      </trkpt>
      <trkpt lat="49.95455" lon="2.36">
        <ele>98.9</ele>
        <time>2023-01-04T13:58:40Z</time>
      </trkpt>
      <trkpt lat="49.95455" lon="2.36002">
        <ele>98.9</ele>
        <time>2023-01-04T13:58:41Z</time>
      </trkpt>
      <trkpt lat="49.95455" lon="2.36003">
        <ele>98.9</ele>
        <time>2023-01-04T13:58:42Z</time>
      </trkpt>
      <trkpt lat="49.95454" lon="2.36005">
        <ele>98.9</ele>
        <time>2023-01-04T13:58:44Z</time>
      </trkpt>
      <trkpt lat="49.95454" lon="2.36008">
        <ele>98.9</ele>
        <time>2023-01-04T13:58:45Z</time>
      </trkpt>
      <trkpt lat="49.95454" lon="2.36009">
        <ele>98.9</ele>
        <time>2023-01-04T13:58:46Z</time>
      </trkpt>
      <trkpt lat="49.95454" lon="2.36011">
        <ele>98.9</ele>
        <time>2023-01-04T13:58:47Z</time>
      </trkpt>
      <trkpt lat="49.95454" lon="2.36012">
        <ele>98.9</ele>
        <time>2023-01-04T13:58:48Z</time>
      </trkpt>
      <trkpt lat="49.95454" lon="2.36014">
        <ele>98.9</ele>
        <time>2023-01-04T13:58:49Z</time>
      </trkpt>
      <trkpt lat="49.95454" lon="2.36015">
        <ele>98.9</ele>
        <time>2023-01-04T13:58:51Z</time>
      </trkpt>
      <trkpt lat="49.95454" lon="2.36017">
        <ele>98.9</ele>
        <time>2023-01-04T13:58:52Z</time>
      </trkpt>
      <trkpt lat="49.95454" lon="2.3602">
        <ele>99</ele>
        <time>2023-01-04T13:58:53Z</time>
      </trkpt>
      <trkpt lat="49.95454" lon="2.3602">
        <ele>99</ele>
        <time>2023-01-04T13:58:54Z</time>
      </trkpt>
      <trkpt lat="49.95454" lon="2.3602">
        <ele>99</ele>
        <time>2023-01-04T13:58:55Z</time>
      </trkpt>
      <trkpt lat="49.95454" lon="2.3602">
        <ele>99</ele>
        <time>2023-01-04T13:58:56Z</time>
      </trkpt>
      <trkpt lat="49.95454" lon="2.36019">
        <ele>99</ele>
        <time>2023-01-04T13:58:58Z</time>
      </trkpt>
      <trkpt lat="49.95454" lon="2.36019">
        <ele>99</ele>
        <time>2023-01-04T13:58:59Z</time>
      </trkpt>
      <trkpt lat="49.95454" lon="2.36019">
        <ele>99</ele>
        <time>2023-01-04T13:59:00Z</time>
      </trkpt>
      <trkpt lat="49.95454" lon="2.36019">
        <ele>99</ele>
        <time>2023-01-04T13:59:02Z</time>
      </trkpt>
      <trkpt lat="49.95454" lon="2.36019">
        <ele>99</ele>
        <time>2023-01-04T13:59:03Z</time>
      </trkpt>
      <trkpt lat="49.95454" lon="2.36019">
        <ele>99</ele>
        <time>2023-01-04T13:59:04Z</time>
      </trkpt>
      <trkpt lat="49.95454" lon="2.36019">
        <ele>99</ele>
        <time>2023-01-04T13:59:06Z</time>
      </trkpt>
      <trkpt lat="49.95454" lon="2.36019">
        <ele>99</ele>
        <time>2023-01-04T13:59:07Z</time>
      </trkpt>
      <trkpt lat="49.95454" lon="2.36019">
        <ele>99</ele>
        <time>2023-01-04T13:59:09Z</time>
      </trkpt>
      <trkpt lat="49.95454" lon="2.36019">
        <ele>99</ele>
        <time>2023-01-04T13:59:10Z</time>
      </trkpt>
      <trkpt lat="49.95454" lon="2.36019">
        <ele>99</ele>
        <time>2023-01-04T13:59:11Z</time>
      </trkpt>
      <trkpt lat="49.95454" lon="2.36019">
        <ele>99</ele>
        <time>2023-01-04T13:59:13Z</time>
      </trkpt>
      <trkpt lat="49.95454" lon="2.36019">
        <ele>99</ele>
        <time>2023-01-04T13:59:14Z</time>
      </trkpt>
      <trkpt lat="49.95454" lon="2.36019">
        <ele>99</ele>
        <time>2023-01-04T13:59:15Z</time>
      </trkpt>
      <trkpt lat="49.95454" lon="2.36019">
        <ele>99</ele>
        <time>2023-01-04T13:59:17Z</time>
      </trkpt>
      <trkpt lat="49.95454" lon="2.36019">
        <ele>99</ele>
        <time>2023-01-04T13:59:18Z</time>
      </trkpt>
      <trkpt lat="49.95454" lon="2.36019">
        <ele>99</ele>
        <time>2023-01-04T13:59:19Z</time>
      </trkpt>
      <trkpt lat="49.95454" lon="2.36018">
        <ele>99</ele>
        <time>2023-01-04T13:59:20Z</time>
      </trkpt>
      <trkpt lat="49.95454" lon="2.36018">
        <ele>99</ele>
        <time>2023-01-04T13:59:21Z</time>
      </trkpt>
      <trkpt lat="49.95454" lon="2.36018">
        <ele>99</ele>
        <time>2023-01-04T13:59:22Z</time>
      </trkpt>
      <trkpt lat="49.95454" lon="2.36018">
        <ele>99</ele>
        <time>2023-01-04T13:59:23Z</time>
      </trkpt>
      <trkpt lat="49.95454" lon="2.36018">
        <ele>99</ele>
        <time>2023-01-04T13:59:24Z</time>
      </trkpt>
      <trkpt lat="49.95454" lon="2.36018">
        <ele>99</ele>
        <time>2023-01-04T13:59:25Z</time>
      </trkpt>
      <trkpt lat="49.95454" lon="2.36018">
        <ele>99</ele>
        <time>2023-01-04T13:59:26Z</time>
      </trkpt>
      <trkpt lat="49.95454" lon="2.36018">
        <ele>99</ele>
        <time>2023-01-04T13:59:27Z</time>
      </trkpt>
      <trkpt lat="49.95454" lon="2.36018">
        <ele>99</ele>
        <time>2023-01-04T13:59:28Z</time>
      </trkpt>
      <trkpt lat="49.95454" lon="2.36018">
        <ele>99</ele>
        <time>2023-01-04T13:59:29Z</time>
      </trkpt>
      <trkpt lat="49.95454" lon="2.36018">
        <ele>99</ele>
        <time>2023-01-04T13:59:30Z</time>
      </trkpt>
      <trkpt lat="49.95454" lon="2.36018">
        <ele>99</ele>
        <time>2023-01-04T13:59:31Z</time>
      </trkpt>
      <trkpt lat="49.95454" lon="2.36018">
        <ele>99</ele>
        <time>2023-01-04T13:59:32Z</time>
      </trkpt>
      <trkpt lat="49.95454" lon="2.36018">
        <ele>99</ele>
        <time>2023-01-04T13:59:33Z</time>
      </trkpt>
      <trkpt lat="49.95454" lon="2.36018">
        <ele>99</ele>
        <time>2023-01-04T13:59:34Z</time>
      </trkpt>
      <trkpt lat="49.95454" lon="2.36018">
        <ele>99</ele>
        <time>2023-01-04T13:59:35Z</time>
      </trkpt>
      <trkpt lat="49.95454" lon="2.36018">
        <ele>99</ele>
        <time>2023-01-04T13:59:36Z</time>
      </trkpt>
      <trkpt lat="49.95454" lon="2.36017">
        <ele>99</ele>
        <time>2023-01-04T13:59:37Z</time>
      </trkpt>
      <trkpt lat="49.95454" lon="2.36017">
        <ele>99</ele>
        <time>2023-01-04T13:59:38Z</time>
      </trkpt>
      <trkpt lat="49.95454" lon="2.36017">
        <ele>99</ele>
        <time>2023-01-04T13:59:39Z</time>
      </trkpt>
      <trkpt lat="49.95454" lon="2.36017">
        <ele>99</ele>
        <time>2023-01-04T13:59:40Z</time>
      </trkpt>
      <trkpt lat="49.95454" lon="2.36017">
        <ele>99</ele>
        <time>2023-01-04T13:59:41Z</time>
      </trkpt>
      <trkpt lat="49.95454" lon="2.36017">
        <ele>99</ele>
        <time>2023-01-04T13:59:42Z</time>
      </trkpt>
      <trkpt lat="49.95454" lon="2.36017">
        <ele>99</ele>
        <time>2023-01-04T13:59:43Z</time>
      </trkpt>
      <trkpt lat="49.95454" lon="2.36017">
        <ele>99</ele>
        <time>2023-01-04T13:59:44Z</time>
      </trkpt>
      <trkpt lat="49.95454" lon="2.36017">
        <ele>99</ele>
        <time>2023-01-04T13:59:45Z</time>
      </trkpt>
      <trkpt lat="49.95454" lon="2.36017">
        <ele>99</ele>
        <time>2023-01-04T13:59:46Z</time>
      </trkpt>
      <trkpt lat="49.95454" lon="2.36017">
        <ele>99</ele>
        <time>2023-01-04T13:59:47Z</time>
      </trkpt>
      <trkpt lat="49.95454" lon="2.36017">
        <ele>99</ele>
        <time>2023-01-04T13:59:48Z</time>
      </trkpt>
      <trkpt lat="49.95454" lon="2.36017">
        <ele>99</ele>
        <time>2023-01-04T13:59:49Z</time>
      </trkpt>
      <trkpt lat="49.95454" lon="2.36017">
        <ele>99</ele>
        <time>2023-01-04T13:59:50Z</time>
      </trkpt>
      <trkpt lat="49.95454" lon="2.36017">
        <ele>99</ele>
        <time>2023-01-04T13:59:51Z</time>
      </trkpt>
      <trkpt lat="49.95454" lon="2.36017">
        <ele>99</ele>
        <time>2023-01-04T13:59:52Z</time>
      </trkpt>
      <trkpt lat="49.95454" lon="2.36017">
        <ele>99</ele>
        <time>2023-01-04T13:59:53Z</time>
      </trkpt>
      <trkpt lat="49.95454" lon="2.36016">
        <ele>99</ele>
        <time>2023-01-04T13:59:54Z</time>
      </trkpt>
      <trkpt lat="49.95454" lon="2.36016">
        <ele>99</ele>
        <time>2023-01-04T13:59:55Z</time>
      </trkpt>
      <trkpt lat="49.95454" lon="2.36016">
        <ele>99</ele>
        <time>2023-01-04T13:59:56Z</time>
      </trkpt>
      <trkpt lat="49.95454" lon="2.36016">
        <ele>99</ele>
        <time>2023-01-04T13:59:57Z</time>
      </trkpt>
      <trkpt lat="49.95454" lon="2.36016">
        <ele>99</ele>
        <time>2023-01-04T13:59:58Z</time>
      </trkpt>
      <trkpt lat="49.95454" lon="2.36016">
        <ele>99</ele>
        <time>2023-01-04T13:59:59Z</time>
      </trkpt>
      <trkpt lat="49.95454" lon="2.36016">
        <ele>99</ele>
        <time>2023-01-04T14:00:01Z</time>
      </trkpt>
      <trkpt lat="49.95454" lon="2.36016">
        <ele>99</ele>
        <time>2023-01-04T14:00:02Z</time>
      </trkpt>
      <trkpt lat="49.95455" lon="2.36016">
        <ele>99</ele>
        <time>2023-01-04T14:00:03Z</time>
      </trkpt>
      <trkpt lat="49.95456" lon="2.36016">
        <ele>99</ele>
        <time>2023-01-04T14:00:04Z</time>
      </trkpt>
      <trkpt lat="49.95456" lon="2.36016">
        <ele>99</ele>
        <time>2023-01-04T14:00:05Z</time>
      </trkpt>
      <trkpt lat="49.95456" lon="2.36016">
        <ele>99</ele>
        <time>2023-01-04T14:00:06Z</time>
      </trkpt>
      <trkpt lat="49.95456" lon="2.36016">
        <ele>99</ele>
        <time>2023-01-04T14:00:07Z</time>
      </trkpt>
      <trkpt lat="49.95456" lon="2.36016">
        <ele>99</ele>
        <time>2023-01-04T14:00:08Z</time>
      </trkpt>
      <trkpt lat="49.95456" lon="2.36016">
        <ele>99</ele>
        <time>2023-01-04T14:00:09Z</time>
      </trkpt>
      <trkpt lat="49.95456" lon="2.36016">
        <ele>99</ele>
        <time>2023-01-04T14:00:10Z</time>
      </trkpt>
      <trkpt lat="49.95456" lon="2.36016">
        <ele>99</ele>
        <time>2023-01-04T14:00:11Z</time>
      </trkpt>
      <trkpt lat="49.95456" lon="2.36016">
        <ele>99</ele>
        <time>2023-01-04T14:00:12Z</time>
      </trkpt>
      <trkpt lat="49.95456" lon="2.36016">
        <ele>99</ele>
        <time>2023-01-04T14:00:13Z</time>
      </trkpt>
      <trkpt lat="49.95456" lon="2.36016">
        <ele>99</ele>
        <time>2023-01-04T14:00:14Z</time>
      </trkpt>
      <trkpt lat="49.95456" lon="2.36016">
        <ele>99</ele>
        <time>2023-01-04T14:00:15Z</time>
      </trkpt>
      <trkpt lat="49.95456" lon="2.36016">
        <ele>99</ele>
        <time>2023-01-04T14:00:16Z</time>
      </trkpt>
      <trkpt lat="49.95456" lon="2.36016">
        <ele>99</ele>
        <time>2023-01-04T14:00:17Z</time>
      </trkpt>
      <trkpt lat="49.95456" lon="2.36016">
        <ele>99</ele>
        <time>2023-01-04T14:00:18Z</time>
      </trkpt>
      <trkpt lat="49.95456" lon="2.36016">
        <ele>99</ele>
        <time>2023-01-04T14:00:19Z</time>
      </trkpt>
      <trkpt lat="49.95456" lon="2.36016">
        <ele>99</ele>
        <time>2023-01-04T14:00:20Z</time>
      </trkpt>
      <trkpt lat="49.95456" lon="2.36016">
        <ele>99</ele>
        <time>2023-01-04T14:00:21Z</time>
      </trkpt>
      <trkpt lat="49.95456" lon="2.36016">
        <ele>99</ele>
        <time>2023-01-04T14:00:22Z</time>
      </trkpt>
      <trkpt lat="49.95456" lon="2.36016">
        <ele>99</ele>
        <time>2023-01-04T14:00:23Z</time>
      </trkpt>
      <trkpt lat="49.95456" lon="2.36016">
        <ele>99</ele>
        <time>2023-01-04T14:00:24Z</time>
      </trkpt>
      <trkpt lat="49.95456" lon="2.36016">
        <ele>99</ele>
        <time>2023-01-04T14:00:25Z</time>
      </trkpt>
      <trkpt lat="49.95456" lon="2.36016">
        <ele>99</ele>
        <time>2023-01-04T14:00:26Z</time>
      </trkpt>
      <trkpt lat="49.95456" lon="2.36016">
        <ele>99</ele>
        <time>2023-01-04T14:00:27Z</time>
      </trkpt>
      <trkpt lat="49.95456" lon="2.36016">
        <ele>99</ele>
        <time>2023-01-04T14:00:28Z</time>
      </trkpt>
      <trkpt lat="49.95456" lon="2.36016">
        <ele>99</ele>
        <time>2023-01-04T14:00:29Z</time>
      </trkpt>
      <trkpt lat="49.95456" lon="2.36016">
        <ele>99</ele>
        <time>2023-01-04T14:00:30Z</time>
      </trkpt>
      <trkpt lat="49.95456" lon="2.36016">
        <ele>99</ele>
        <time>2023-01-04T14:00:31Z</time>
      </trkpt>
      <trkpt lat="49.95456" lon="2.36016">
        <ele>99</ele>
        <time>2023-01-04T14:00:32Z</time>
      </trkpt>
      <trkpt lat="49.95456" lon="2.36016">
        <ele>99</ele>
        <time>2023-01-04T14:00:33Z</time>
      </trkpt>
      <trkpt lat="49.95456" lon="2.36016">
        <ele>99</ele>
        <time>2023-01-04T14:00:34Z</time>
      </trkpt>
      <trkpt lat="49.95456" lon="2.36016">
        <ele>99</ele>
        <time>2023-01-04T14:00:35Z</time>
      </trkpt>
      <trkpt lat="49.95456" lon="2.36016">
        <ele>99</ele>
        <time>2023-01-04T14:00:36Z</time>
      </trkpt>
      <trkpt lat="49.95456" lon="2.36016">
        <ele>99</ele>
        <time>2023-01-04T14:00:37Z</time>
      </trkpt>
      <trkpt lat="49.95456" lon="2.36016">
        <ele>99</ele>
        <time>2023-01-04T14:00:38Z</time>
      </trkpt>
      <trkpt lat="49.95456" lon="2.36016">
        <ele>99</ele>
        <time>2023-01-04T14:00:39Z</time>
      </trkpt>
      <trkpt lat="49.95456" lon="2.36016">
        <ele>99</ele>
        <time>2023-01-04T14:00:40Z</time>
      </trkpt>
      <trkpt lat="49.95456" lon="2.36016">
        <ele>99</ele>
        <time>2023-01-04T14:00:41Z</time>
      </trkpt>
      <trkpt lat="49.95456" lon="2.36016">
        <ele>99</ele>
        <time>2023-01-04T14:00:42Z</time>
      </trkpt>
      <trkpt lat="49.95456" lon="2.36016">
        <ele>99</ele>
        <time>2023-01-04T14:00:43Z</time>
      </trkpt>
      <trkpt lat="49.95456" lon="2.36016">
        <ele>99</ele>
        <time>2023-01-04T14:00:44Z</time>
      </trkpt>
      <trkpt lat="49.95456" lon="2.36016">
        <ele>99</ele>
        <time>2023-01-04T14:00:45Z</time>
      </trkpt>
      <trkpt lat="49.95456" lon="2.36016">
        <ele>99</ele>
        <time>2023-01-04T14:00:46Z</time>
      </trkpt>
      <trkpt lat="49.95456" lon="2.36016">
        <ele>99</ele>
        <time>2023-01-04T14:00:47Z</time>
      </trkpt>
      <trkpt lat="49.95456" lon="2.36016">
        <ele>99</ele>
        <time>2023-01-04T14:00:48Z</time>
      </trkpt>
      <trkpt lat="49.95456" lon="2.36016">
        <ele>99</ele>
        <time>2023-01-04T14:00:49Z</time>
      </trkpt>
      <trkpt lat="49.95456" lon="2.36016">
        <ele>99</ele>
        <time>2023-01-04T14:00:50Z</time>
      </trkpt>
      <trkpt lat="49.95456" lon="2.36016">
        <ele>99</ele>
        <time>2023-01-04T14:00:51Z</time>
      </trkpt>
      <trkpt lat="49.95456" lon="2.36016">
        <ele>99</ele>
        <time>2023-01-04T14:00:52Z</time>
      </trkpt>
      <trkpt lat="49.95456" lon="2.36016">
        <ele>99</ele>
        <time>2023-01-04T14:00:53Z</time>
      </trkpt>
      <trkpt lat="49.95456" lon="2.36016">
        <ele>99</ele>
        <time>2023-01-04T14:00:54Z</time>
      </trkpt>
      <trkpt lat="49.95456" lon="2.36016">
        <ele>99</ele>
        <time>2023-01-04T14:00:55Z</time>
      </trkpt>
      <trkpt lat="49.95456" lon="2.36016">
        <ele>99</ele>
        <time>2023-01-04T14:00:56Z</time>
      </trkpt>
      <trkpt lat="49.95456" lon="2.36016">
        <ele>99</ele>
        <time>2023-01-04T14:00:57Z</time>
      </trkpt>
      <trkpt lat="49.95456" lon="2.36016">
        <ele>99</ele>
        <time>2023-01-04T14:00:58Z</time>
      </trkpt>
      <trkpt lat="49.95456" lon="2.36016">
        <ele>99</ele>
        <time>2023-01-04T14:00:59Z</time>
      </trkpt>
      <trkpt lat="49.95456" lon="2.36016">
        <ele>99</ele>
        <time>2023-01-04T14:01:00Z</time>
      </trkpt>
      <trkpt lat="49.95456" lon="2.36016">
        <ele>99</ele>
        <time>2023-01-04T14:01:01Z</time>
      </trkpt>
      <trkpt lat="49.95456" lon="2.36016">
        <ele>99</ele>
        <time>2023-01-04T14:01:02Z</time>
      </trkpt>
      <trkpt lat="49.95456" lon="2.36016">
        <ele>99</ele>
        <time>2023-01-04T14:01:03Z</time>
      </trkpt>
      <trkpt lat="49.95456" lon="2.36016">
        <ele>99</ele>
        <time>2023-01-04T14:01:04Z</time>
      </trkpt>
      <trkpt lat="49.95456" lon="2.36016">
        <ele>99</ele>
        <time>2023-01-04T14:01:05Z</time>
      </trkpt>
      <trkpt lat="49.95456" lon="2.36016">
        <ele>99</ele>
        <time>2023-01-04T14:01:06Z</time>
      </trkpt>
      <trkpt lat="49.95456" lon="2.36016">
        <ele>99</ele>
        <time>2023-01-04T14:01:07Z</time>
      </trkpt>
      <trkpt lat="49.95456" lon="2.36016">
        <ele>99</ele>
        <time>2023-01-04T14:01:08Z</time>
      </trkpt>
      <trkpt lat="49.95456" lon="2.36016">
        <ele>99</ele>
        <time>2023-01-04T14:01:09Z</time>
      </trkpt>
      <trkpt lat="49.95456" lon="2.36016">
        <ele>99</ele>
        <time>2023-01-04T14:01:10Z</time>
      </trkpt>
      <trkpt lat="49.95456" lon="2.36016">
        <ele>99</ele>
        <time>2023-01-04T14:01:11Z</time>
      </trkpt>
      <trkpt lat="49.95456" lon="2.36016">
        <ele>99</ele>
        <time>2023-01-04T14:01:12Z</time>
      </trkpt>
      <trkpt lat="49.95456" lon="2.36016">
        <ele>99</ele>
        <time>2023-01-04T14:01:13Z</time>
      </trkpt>
      <trkpt lat="49.95456" lon="2.36016">
        <ele>99</ele>
        <time>2023-01-04T14:01:14Z</time>
      </trkpt>
      <trkpt lat="49.95456" lon="2.36016">
        <ele>99</ele>
        <time>2023-01-04T14:01:15Z</time>
      </trkpt>
      <trkpt lat="49.95456" lon="2.36016">
        <ele>99</ele>
        <time>2023-01-04T14:01:16Z</time>
      </trkpt>
      <trkpt lat="49.95456" lon="2.36016">
        <ele>99</ele>
        <time>2023-01-04T14:01:17Z</time>
      </trkpt>
      <trkpt lat="49.95456" lon="2.36016">
        <ele>99</ele>
        <time>2023-01-04T14:01:18Z</time>
      </trkpt>
      <trkpt lat="49.95456" lon="2.36016">
        <ele>99</ele>
        <time>2023-01-04T14:01:19Z</time>
      </trkpt>
      <trkpt lat="49.95456" lon="2.36016">
        <ele>99</ele>
        <time>2023-01-04T14:01:20Z</time>
      </trkpt>
      <trkpt lat="49.95456" lon="2.36016">
        <ele>99</ele>
        <time>2023-01-04T14:01:21Z</time>
      </trkpt>
      <trkpt lat="49.95456" lon="2.36016">
        <ele>99</ele>
        <time>2023-01-04T14:01:22Z</time>
      </trkpt>
      <trkpt lat="49.95456" lon="2.36016">
        <ele>99</ele>
        <time>2023-01-04T14:01:23Z</time>
      </trkpt>
      <trkpt lat="49.95456" lon="2.36016">
        <ele>99</ele>
        <time>2023-01-04T14:01:24Z</time>
      </trkpt>
      <trkpt lat="49.95456" lon="2.36016">
        <ele>99</ele>
        <time>2023-01-04T14:01:25Z</time>
      </trkpt>
      <trkpt lat="49.95456" lon="2.36016">
        <ele>99</ele>
        <time>2023-01-04T14:01:26Z</time>
      </trkpt>
      <trkpt lat="49.95456" lon="2.36016">
        <ele>99</ele>
        <time>2023-01-04T14:01:27Z</time>
      </trkpt>
      <trkpt lat="49.95456" lon="2.36016">
        <ele>99</ele>
        <time>2023-01-04T14:01:28Z</time>
      </trkpt>
      <trkpt lat="49.95456" lon="2.36016">
        <ele>99</ele>
        <time>2023-01-04T14:01:29Z</time>
      </trkpt>
      <trkpt lat="49.95456" lon="2.36016">
        <ele>99</ele>
        <time>2023-01-04T14:01:30Z</time>
      </trkpt>
      <trkpt lat="49.95456" lon="2.36016">
        <ele>99</ele>
        <time>2023-01-04T14:01:31Z</time>
      </trkpt>
      <trkpt lat="49.95456" lon="2.36016">
        <ele>99</ele>
        <time>2023-01-04T14:01:32Z</time>
      </trkpt>
      <trkpt lat="49.95456" lon="2.36016">
        <ele>99</ele>
        <time>2023-01-04T14:01:33Z</time>
      </trkpt>
      <trkpt lat="49.95456" lon="2.36016">
        <ele>99</ele>
        <time>2023-01-04T14:01:34Z</time>
      </trkpt>
      <trkpt lat="49.95456" lon="2.36016">
        <ele>99</ele>
        <time>2023-01-04T14:01:35Z</time>
      </trkpt>
      <trkpt lat="49.95456" lon="2.36016">
        <ele>99</ele>
        <time>2023-01-04T14:01:36Z</time>
      </trkpt>
      <trkpt lat="49.95456" lon="2.36016">
        <ele>99</ele>
        <time>2023-01-04T14:01:37Z</time>
      </trkpt>
      <trkpt lat="49.95456" lon="2.36016">
        <ele>99</ele>
        <time>2023-01-04T14:01:38Z</time>
      </trkpt>
      <trkpt lat="49.95456" lon="2.36016">
        <ele>99</ele>
        <time>2023-01-04T14:01:39Z</time>
      </trkpt>
      <trkpt lat="49.95456" lon="2.36016">
        <ele>99</ele>
        <time>2023-01-04T14:01:40Z</time>
      </trkpt>
      <trkpt lat="49.95456" lon="2.36016">
        <ele>99</ele>
        <time>2023-01-04T14:01:41Z</time>
      </trkpt>
      <trkpt lat="49.95456" lon="2.36016">
        <ele>99</ele>
        <time>2023-01-04T14:01:42Z</time>
      </trkpt>
      <trkpt lat="49.95456" lon="2.36016">
        <ele>99</ele>
        <time>2023-01-04T14:01:43Z</time>
      </trkpt>
      <trkpt lat="49.95456" lon="2.36016">
        <ele>99</ele>
        <time>2023-01-04T14:01:44Z</time>
      </trkpt>
      <trkpt lat="49.95456" lon="2.36016">
        <ele>99</ele>
        <time>2023-01-04T14:01:45Z</time>
      </trkpt>
      <trkpt lat="49.95456" lon="2.36016">
        <ele>99</ele>
        <time>2023-01-04T14:01:46Z</time>
      </trkpt>
      <trkpt lat="49.95456" lon="2.36016">
        <ele>99</ele>
        <time>2023-01-04T14:01:47Z</time>
      </trkpt>
      <trkpt lat="49.95456" lon="2.36016">
        <ele>99</ele>
        <time>2023-01-04T14:01:48Z</time>
      </trkpt>
      <trkpt lat="49.95456" lon="2.36016">
        <ele>99</ele>
        <time>2023-01-04T14:01:49Z</time>
      </trkpt>
      <trkpt lat="49.95456" lon="2.36016">
        <ele>99</ele>
        <time>2023-01-04T14:01:50Z</time>
      </trkpt>
      <trkpt lat="49.95456" lon="2.36016">
        <ele>99</ele>
        <time>2023-01-04T14:01:51Z</time>
      </trkpt>
      <trkpt lat="49.95456" lon="2.36016">
        <ele>99</ele>
        <time>2023-01-04T14:01:52Z</time>
      </trkpt>
      <trkpt lat="49.95456" lon="2.36016">
        <ele>99</ele>
        <time>2023-01-04T14:01:53Z</time>
      </trkpt>
      <trkpt lat="49.95456" lon="2.36016">
        <ele>99</ele>
        <time>2023-01-04T14:01:54Z</time>
      </trkpt>
      <trkpt lat="49.95456" lon="2.36016">
        <ele>99</ele>
        <time>2023-01-04T14:01:55Z</time>
      </trkpt>
      <trkpt lat="49.95457" lon="2.36017">
        <ele>99</ele>
        <time>2023-01-04T14:01:56Z</time>
      </trkpt>
      <trkpt lat="49.95458" lon="2.36019">
        <ele>99</ele>
        <time>2023-01-04T14:01:57Z</time>
      </trkpt>
      <trkpt lat="49.95459" lon="2.3602">
        <ele>99</ele>
        <time>2023-01-04T14:01:58Z</time>
      </trkpt>
      <trkpt lat="49.95459" lon="2.36021">
        <ele>99.1</ele>
        <time>2023-01-04T14:01:59Z</time>
      </trkpt>
      <trkpt lat="49.9546" lon="2.36022">
        <ele>99.1</ele>
        <time>2023-01-04T14:02:01Z</time>
      </trkpt>
      <trkpt lat="49.95461" lon="2.36023">
        <ele>99.1</ele>
        <time>2023-01-04T14:02:02Z</time>
      </trkpt>
      <trkpt lat="49.95461" lon="2.36024">
        <ele>99.1</ele>
        <time>2023-01-04T14:02:03Z</time>
      </trkpt>
      <trkpt lat="49.95462" lon="2.36025">
        <ele>99.1</ele>
        <time>2023-01-04T14:02:04Z</time>
      </trkpt>
      <trkpt lat="49.95463" lon="2.36026">
        <ele>99.1</ele>
        <time>2023-01-04T14:02:05Z</time>
      </trkpt>
      <trkpt lat="49.95463" lon="2.36028">
        <ele>99.1</ele>
        <time>2023-01-04T14:02:06Z</time>
      </trkpt>
      <trkpt lat="49.95464" lon="2.3603">
        <ele>99.1</ele>
        <time>2023-01-04T14:02:08Z</time>
      </trkpt>
      <trkpt lat="49.95465" lon="2.36031">
        <ele>99.1</ele>
        <time>2023-01-04T14:02:09Z</time>
      </trkpt>
      <trkpt lat="49.95467" lon="2.36032">
        <ele>99.1</ele>
        <time>2023-01-04T14:02:10Z</time>
      </trkpt>
      <trkpt lat="49.95468" lon="2.36032">
        <ele>99.1</ele>
        <time>2023-01-04T14:02:11Z</time>
      </trkpt>
      <trkpt lat="49.95469" lon="2.36032">
        <ele>99.1</ele>
        <time>2023-01-04T14:02:12Z</time>
      </trkpt>
      <trkpt lat="49.95469" lon="2.36032">
        <ele>99.1</ele>
        <time>2023-01-04T14:02:13Z</time>
      </trkpt>
      <trkpt lat="49.95471" lon="2.36032">
        <ele>99.1</ele>
        <time>2023-01-04T14:02:15Z</time>
      </trkpt>
      <trkpt lat="49.95473" lon="2.36033">
        <ele>99.1</ele>
        <time>2023-01-04T14:02:16Z</time>
      </trkpt>
      <trkpt lat="49.95473" lon="2.36034">
        <ele>99.1</ele>
        <time>2023-01-04T14:02:17Z</time>
      </trkpt>
      <trkpt lat="49.95474" lon="2.36035">
        <ele>99.2</ele>
        <time>2023-01-04T14:02:18Z</time>
      </trkpt>
      <trkpt lat="49.95475" lon="2.36036">
        <ele>99.2</ele>
        <time>2023-01-04T14:02:20Z</time>
      </trkpt>
      <trkpt lat="49.95476" lon="2.36036">
        <ele>99.2</ele>
        <time>2023-01-04T14:02:21Z</time>
      </trkpt>
      <trkpt lat="49.95477" lon="2.36036">
        <ele>99.2</ele>
        <time>2023-01-04T14:02:22Z</time>
      </trkpt>
      <trkpt lat="49.95478" lon="2.36037">
        <ele>99.2</ele>
        <time>2023-01-04T14:02:23Z</time>
      </trkpt>
      <trkpt lat="49.95478" lon="2.36038">
        <ele>99.2</ele>
        <time>2023-01-04T14:02:24Z</time>
      </trkpt>
      <trkpt lat="49.9548" lon="2.36039">
        <ele>99.2</ele>
        <time>2023-01-04T14:02:25Z</time>
      </trkpt>
      <trkpt lat="49.95481" lon="2.3604">
        <ele>99.2</ele>
        <time>2023-01-04T14:02:26Z</time>
      </trkpt>
      <trkpt lat="49.95483" lon="2.3604">
        <ele>99.2</ele>
        <time>2023-01-04T14:02:27Z</time>
      </trkpt>
      <trkpt lat="49.95484" lon="2.36041">
        <ele>99.2</ele>
        <time>2023-01-04T14:02:29Z</time>
      </trkpt>
      <trkpt lat="49.95486" lon="2.36041">
        <ele>99.2</ele>
        <time>2023-01-04T14:02:30Z</time>
      </trkpt>
      <trkpt lat="49.95488" lon="2.36042">
        <ele>99.2</ele>
        <time>2023-01-04T14:02:31Z</time>
      </trkpt>
      <trkpt lat="49.95489" lon="2.36042">
        <ele>99.2</ele>
        <time>2023-01-04T14:02:32Z</time>
      </trkpt>
      <trkpt lat="49.95491" lon="2.36042">
        <ele>99.2</ele>
        <time>2023-01-04T14:02:33Z</time>
      </trkpt>
      <trkpt lat="49.95492" lon="2.36043">
        <ele>99.2</ele>
        <time>2023-01-04T14:02:34Z</time>
      </trkpt>
      <trkpt lat="49.95493" lon="2.36043">
        <ele>99.2</ele>
        <time>2023-01-04T14:02:36Z</time>
      </trkpt>
      <trkpt lat="49.95495" lon="2.36043">
        <ele>99.2</ele>
        <time>2023-01-04T14:02:37Z</time>
      </trkpt>
      <trkpt lat="49.95497" lon="2.36043">
        <ele>99.3</ele>
        <time>2023-01-04T14:02:38Z</time>
      </trkpt>
      <trkpt lat="49.95498" lon="2.36043">
        <ele>99.3</ele>
        <time>2023-01-04T14:02:39Z</time>
      </trkpt>
      <trkpt lat="49.955" lon="2.36043">
        <ele>99.3</ele>
        <time>2023-01-04T14:02:40Z</time>
      </trkpt>
      <trkpt lat="49.95501" lon="2.36043">
        <ele>99.3</ele>
        <time>2023-01-04T14:02:41Z</time>
      </trkpt>
      <trkpt lat="49.95502" lon="2.36043">
        <ele>99.3</ele>
        <time>2023-01-04T14:02:42Z</time>
      </trkpt>
      <trkpt lat="49.95504" lon="2.36044">
        <ele>99.3</ele>
        <time>2023-01-04T14:02:43Z</time>
      </trkpt>
      <trkpt lat="49.95505" lon="2.36044">
        <ele>99.3</ele>
        <time>2023-01-04T14:02:45Z</time>
      </trkpt>
      <trkpt lat="49.95506" lon="2.36045">
        <ele>99.3</ele>
        <time>2023-01-04T14:02:46Z</time>
      </trkpt>
      <trkpt lat="49.95508" lon="2.36046">
        <ele>99.3</ele>
        <time>2023-01-04T14:02:47Z</time>
      </trkpt>
      <trkpt lat="49.95509" lon="2.36046">
        <ele>99.3</ele>
        <time>2023-01-04T14:02:48Z</time>
      </trkpt>
      <trkpt lat="49.9551" lon="2.36046">
        <ele>99.3</ele>
        <time>2023-01-04T14:02:49Z</time>
      </trkpt>
      <trkpt lat="49.95511" lon="2.36047">
        <ele>99.3</ele>
        <time>2023-01-04T14:02:50Z</time>
      </trkpt>
      <trkpt lat="49.95512" lon="2.36047">
        <ele>99.3</ele>
        <time>2023-01-04T14:02:51Z</time>
      </trkpt>
      <trkpt lat="49.95513" lon="2.36048">
        <ele>99.3</ele>
        <time>2023-01-04T14:02:53Z</time>
      </trkpt>
      <trkpt lat="49.95514" lon="2.36049">
        <ele>99.3</ele>
        <time>2023-01-04T14:02:54Z</time>
      </trkpt>
      <trkpt lat="49.95516" lon="2.36049">
        <ele>99.3</ele>
        <time>2023-01-04T14:02:55Z</time>
      </trkpt>
      <trkpt lat="49.95517" lon="2.3605">
        <ele>99.3</ele>
        <time>2023-01-04T14:02:56Z</time>
      </trkpt>
      <trkpt lat="49.95518" lon="2.3605">
        <ele>99.4</ele>
        <time>2023-01-04T14:02:57Z</time>
      </trkpt>
      <trkpt lat="49.9552" lon="2.36051">
        <ele>99.4</ele>
        <time>2023-01-04T14:02:59Z</time>
      </trkpt>
      <trkpt lat="49.95522" lon="2.36051">
        <ele>99.4</ele>
        <time>2023-01-04T14:03:00Z</time>
      </trkpt>
      <trkpt lat="49.95522" lon="2.36052">
        <ele>99.4</ele>
        <time>2023-01-04T14:03:01Z</time>
      </trkpt>
      <trkpt lat="49.95523" lon="2.36052">
        <ele>99.4</ele>
        <time>2023-01-04T14:03:02Z</time>
      </trkpt>
      <trkpt lat="49.95525" lon="2.36053">
        <ele>99.4</ele>
        <time>2023-01-04T14:03:03Z</time>
      </trkpt>
      <trkpt lat="49.95526" lon="2.36053">
        <ele>99.4</ele>
        <time>2023-01-04T14:03:04Z</time>
      </trkpt>
      <trkpt lat="49.95527" lon="2.36053">
        <ele>99.4</ele>
        <time>2023-01-04T14:03:05Z</time>
      </trkpt>
      <trkpt lat="49.95529" lon="2.36053">
        <ele>99.4</ele>
        <time>2023-01-04T14:03:06Z</time>
      </trkpt>
      <trkpt lat="49.95531" lon="2.36053">
        <ele>99.4</ele>
        <time>2023-01-04T14:03:08Z</time>
      </trkpt>
      <trkpt lat="49.95532" lon="2.36053">
        <ele>99.4</ele>
        <time>2023-01-04T14:03:09Z</time>
      </trkpt>
      <trkpt lat="49.95533" lon="2.36053">
        <ele>99.4</ele>
        <time>2023-01-04T14:03:10Z</time>
      </trkpt>
      <trkpt lat="49.95534" lon="2.36053">
        <ele>99.4</ele>
        <time>2023-01-04T14:03:11Z</time>
      </trkpt>
      <trkpt lat="49.95535" lon="2.36052">
        <ele>99.4</ele>
        <time>2023-01-04T14:03:12Z</time>
      </trkpt>
      <trkpt lat="49.95536" lon="2.36052">
        <ele>99.4</ele>
        <time>2023-01-04T14:03:13Z</time>
      </trkpt>
      <trkpt lat="49.95537" lon="2.36052">
        <ele>99.4</ele>
        <time>2023-01-04T14:03:14Z</time>
      </trkpt>
      <trkpt lat="49.95538" lon="2.36052">
        <ele>99.4</ele>
        <time>2023-01-04T14:03:15Z</time>
      </trkpt>
      <trkpt lat="49.9554" lon="2.36052">
        <ele>99.5</ele>
        <time>2023-01-04T14:03:16Z</time>
      </trkpt>
      <trkpt lat="49.95541" lon="2.36052">
        <ele>99.5</ele>
        <time>2023-01-04T14:03:17Z</time>
      </trkpt>
      <trkpt lat="49.95543" lon="2.36053">
        <ele>99.5</ele>
        <time>2023-01-04T14:03:19Z</time>
      </trkpt>
      <trkpt lat="49.95545" lon="2.36053">
        <ele>99.5</ele>
        <time>2023-01-04T14:03:20Z</time>
      </trkpt>
      <trkpt lat="49.95546" lon="2.36053">
        <ele>99.5</ele>
        <time>2023-01-04T14:03:21Z</time>
      </trkpt>
      <trkpt lat="49.95547" lon="2.36053">
        <ele>99.5</ele>
        <time>2023-01-04T14:03:22Z</time>
      </trkpt>
      <trkpt lat="49.95549" lon="2.36053">
        <ele>99.5</ele>
        <time>2023-01-04T14:03:23Z</time>
      </trkpt>
      <trkpt lat="49.95549" lon="2.36053">
        <ele>99.5</ele>
        <time>2023-01-04T14:03:24Z</time>
      </trkpt>
      <trkpt lat="49.9555" lon="2.36053">
        <ele>99.5</ele>
        <time>2023-01-04T14:03:25Z</time>
      </trkpt>
      <trkpt lat="49.95552" lon="2.36054">
        <ele>99.5</ele>
        <time>2023-01-04T14:03:26Z</time>
      </trkpt>
      <trkpt lat="49.95553" lon="2.36054">
        <ele>99.5</ele>
        <time>2023-01-04T14:03:27Z</time>
      </trkpt>
      <trkpt lat="49.95555" lon="2.36057">
        <ele>99.5</ele>
        <time>2023-01-04T14:03:29Z</time>
      </trkpt>
      <trkpt lat="49.95555" lon="2.36058">
        <ele>99.5</ele>
        <time>2023-01-04T14:03:30Z</time>
      </trkpt>
      <trkpt lat="49.95555" lon="2.36058">
        <ele>99.5</ele>
        <time>2023-01-04T14:03:31Z</time>
      </trkpt>
      <trkpt lat="49.95556" lon="2.3606">
        <ele>99.5</ele>
        <time>2023-01-04T14:03:32Z</time>
      </trkpt>
      <trkpt lat="49.95558" lon="2.36061">
        <ele>99.5</ele>
        <time>2023-01-04T14:03:33Z</time>
      </trkpt>
      <trkpt lat="49.95559" lon="2.36061">
        <ele>99.5</ele>
        <time>2023-01-04T14:03:34Z</time>
      </trkpt>
      <trkpt lat="49.9556" lon="2.36062">
        <ele>99.5</ele>
        <time>2023-01-04T14:03:35Z</time>
      </trkpt>
      <trkpt lat="49.95561" lon="2.36063">
        <ele>99.5</ele>
        <time>2023-01-04T14:03:36Z</time>
      </trkpt>
      <trkpt lat="49.95562" lon="2.36064">
        <ele>99.5</ele>
        <time>2023-01-04T14:03:38Z</time>
      </trkpt>
      <trkpt lat="49.95564" lon="2.36064">
        <ele>99.6</ele>
        <time>2023-01-04T14:03:39Z</time>
      </trkpt>
      <trkpt lat="49.95565" lon="2.36065">
        <ele>99.6</ele>
        <time>2023-01-04T14:03:40Z</time>
      </trkpt>
      <trkpt lat="49.95567" lon="2.36066">
        <ele>99.6</ele>
        <time>2023-01-04T14:03:41Z</time>
      </trkpt>
      <trkpt lat="49.95568" lon="2.36066">
        <ele>99.6</ele>
        <time>2023-01-04T14:03:42Z</time>
      </trkpt>
      <trkpt lat="49.95569" lon="2.36067">
        <ele>99.6</ele>
        <time>2023-01-04T14:03:43Z</time>
      </trkpt>
      <trkpt lat="49.95569" lon="2.36067">
        <ele>99.6</ele>
        <time>2023-01-04T14:03:44Z</time>
      </trkpt>
      <trkpt lat="49.95571" lon="2.36068">
        <ele>99.6</ele>
        <time>2023-01-04T14:03:46Z</time>
      </trkpt>
      <trkpt lat="49.95572" lon="2.36068">
        <ele>99.6</ele>
        <time>2023-01-04T14:03:47Z</time>
      </trkpt>
      <trkpt lat="49.95572" lon="2.36068">
        <ele>99.6</ele>
        <time>2023-01-04T14:03:48Z</time>
      </trkpt>
      <trkpt lat="49.95574" lon="2.36068">
        <ele>99.6</ele>
        <time>2023-01-04T14:03:49Z</time>
      </trkpt>
      <trkpt lat="49.95575" lon="2.36069">
        <ele>99.6</ele>
        <time>2023-01-04T14:03:51Z</time>
      </trkpt>
      <trkpt lat="49.95576" lon="2.36069">
        <ele>99.6</ele>
        <time>2023-01-04T14:03:52Z</time>
      </trkpt>
      <trkpt lat="49.95578" lon="2.3607">
        <ele>99.6</ele>
        <time>2023-01-04T14:03:53Z</time>
      </trkpt>
      <trkpt lat="49.95579" lon="2.3607">
        <ele>99.6</ele>
        <time>2023-01-04T14:03:55Z</time>
      </trkpt>
      <trkpt lat="49.9558" lon="2.3607">
        <ele>99.6</ele>
        <time>2023-01-04T14:03:56Z</time>
      </trkpt>
      <trkpt lat="49.95581" lon="2.3607">
        <ele>99.6</ele>
        <time>2023-01-04T14:03:57Z</time>
      </trkpt>
      <trkpt lat="49.95582" lon="2.3607">
        <ele>99.6</ele>
        <time>2023-01-04T14:03:58Z</time>
      </trkpt>
      <trkpt lat="49.95583" lon="2.36071">
        <ele>99.6</ele>
        <time>2023-01-04T14:03:59Z</time>
      </trkpt>
      <trkpt lat="49.95584" lon="2.36071">
        <ele>99.6</ele>
        <time>2023-01-04T14:04:00Z</time>
      </trkpt>
      <trkpt lat="49.95585" lon="2.3607">
        <ele>99.6</ele>
        <time>2023-01-04T14:04:01Z</time>
      </trkpt>
      <trkpt lat="49.95586" lon="2.3607">
        <ele>99.6</ele>
        <time>2023-01-04T14:04:03Z</time>
      </trkpt>
      <trkpt lat="49.95586" lon="2.3607">
        <ele>99.6</ele>
        <time>2023-01-04T14:04:04Z</time>
      </trkpt>
      <trkpt lat="49.95587" lon="2.36069">
        <ele>99.6</ele>
        <time>2023-01-04T14:04:05Z</time>
      </trkpt>
      <trkpt lat="49.95589" lon="2.36069">
        <ele>99.6</ele>
        <time>2023-01-04T14:04:06Z</time>
      </trkpt>
      <trkpt lat="49.9559" lon="2.36069">
        <ele>99.6</ele>
        <time>2023-01-04T14:04:07Z</time>
      </trkpt>
      <trkpt lat="49.95591" lon="2.36069">
        <ele>99.6</ele>
        <time>2023-01-04T14:04:08Z</time>
      </trkpt>
      <trkpt lat="49.95592" lon="2.36069">
        <ele>99.6</ele>
        <time>2023-01-04T14:04:09Z</time>
      </trkpt>
      <trkpt lat="49.95593" lon="2.36068">
        <ele>99.6</ele>
        <time>2023-01-04T14:04:11Z</time>
      </trkpt>
      <trkpt lat="49.95594" lon="2.36068">
        <ele>99.6</ele>
        <time>2023-01-04T14:04:12Z</time>
      </trkpt>
      <trkpt lat="49.95595" lon="2.36067">
        <ele>99.6</ele>
        <time>2023-01-04T14:04:13Z</time>
      </trkpt>
      <trkpt lat="49.95596" lon="2.36067">
        <ele>99.6</ele>
        <time>2023-01-04T14:04:14Z</time>
      </trkpt>
      <trkpt lat="49.95597" lon="2.36067">
        <ele>99.6</ele>
        <time>2023-01-04T14:04:15Z</time>
      </trkpt>
      <trkpt lat="49.95599" lon="2.36068">
        <ele>99.6</ele>
        <time>2023-01-04T14:04:16Z</time>
      </trkpt>
      <trkpt lat="49.956" lon="2.36069">
        <ele>99.6</ele>
        <time>2023-01-04T14:04:17Z</time>
      </trkpt>
      <trkpt lat="49.95601" lon="2.3607">
        <ele>99.6</ele>
        <time>2023-01-04T14:04:18Z</time>
      </trkpt>
      <trkpt lat="49.95601" lon="2.36071">
        <ele>99.6</ele>
        <time>2023-01-04T14:04:20Z</time>
      </trkpt>
      <trkpt lat="49.95602" lon="2.36071">
        <ele>99.6</ele>
        <time>2023-01-04T14:04:21Z</time>
      </trkpt>
      <trkpt lat="49.95603" lon="2.36072">
        <ele>99.6</ele>
        <time>2023-01-04T14:04:22Z</time>
      </trkpt>
      <trkpt lat="49.95604" lon="2.36072">
        <ele>99.6</ele>
        <time>2023-01-04T14:04:23Z</time>
      </trkpt>
      <trkpt lat="49.95605" lon="2.36072">
        <ele>99.6</ele>
        <time>2023-01-04T14:04:24Z</time>
      </trkpt>
      <trkpt lat="49.95606" lon="2.36072">
        <ele>99.6</ele>
        <time>2023-01-04T14:04:25Z</time>
      </trkpt>
      <trkpt lat="49.95608" lon="2.36072">
        <ele>99.6</ele>
        <time>2023-01-04T14:04:27Z</time>
      </trkpt>
      <trkpt lat="49.95609" lon="2.36072">
        <ele>99.6</ele>
        <time>2023-01-04T14:04:28Z</time>
      </trkpt>
      <trkpt lat="49.9561" lon="2.36072">
        <ele>99.6</ele>
        <time>2023-01-04T14:04:29Z</time>
      </trkpt>
      <trkpt lat="49.95612" lon="2.36072">
        <ele>99.6</ele>
        <time>2023-01-04T14:04:30Z</time>
      </trkpt>
      <trkpt lat="49.95613" lon="2.36072">
        <ele>99.6</ele>
        <time>2023-01-04T14:04:31Z</time>
      </trkpt>
      <trkpt lat="49.95614" lon="2.36072">
        <ele>99.6</ele>
        <time>2023-01-04T14:04:32Z</time>
      </trkpt>
      <trkpt lat="49.95616" lon="2.36071">
        <ele>99.6</ele>
        <time>2023-01-04T14:04:33Z</time>
      </trkpt>
      <trkpt lat="49.95617" lon="2.36071">
        <ele>99.6</ele>
        <time>2023-01-04T14:04:35Z</time>
      </trkpt>
      <trkpt lat="49.95618" lon="2.3607">
        <ele>99.6</ele>
        <time>2023-01-04T14:04:36Z</time>
      </trkpt>
      <trkpt lat="49.95619" lon="2.3607">
        <ele>99.6</ele>
        <time>2023-01-04T14:04:37Z</time>
      </trkpt>
      <trkpt lat="49.95621" lon="2.3607">
        <ele>99.6</ele>
        <time>2023-01-04T14:04:38Z</time>
      </trkpt>
      <trkpt lat="49.95622" lon="2.36069">
        <ele>99.7</ele>
        <time>2023-01-04T14:04:39Z</time>
      </trkpt>
      <trkpt lat="49.95623" lon="2.36069">
        <ele>99.7</ele>
        <time>2023-01-04T14:04:40Z</time>
      </trkpt>
      <trkpt lat="49.95625" lon="2.36069">
        <ele>99.7</ele>
        <time>2023-01-04T14:04:42Z</time>
      </trkpt>
      <trkpt lat="49.95626" lon="2.36068">
        <ele>99.7</ele>
        <time>2023-01-04T14:04:43Z</time>
      </trkpt>
      <trkpt lat="49.95628" lon="2.36069">
        <ele>99.7</ele>
        <time>2023-01-04T14:04:44Z</time>
      </trkpt>
      <trkpt lat="49.95629" lon="2.36069">
        <ele>99.7</ele>
        <time>2023-01-04T14:04:45Z</time>
      </trkpt>
      <trkpt lat="49.9563" lon="2.36069">
        <ele>99.7</ele>
        <time>2023-01-04T14:04:46Z</time>
      </trkpt>
      <trkpt lat="49.95631" lon="2.36069">
        <ele>99.7</ele>
        <time>2023-01-04T14:04:47Z</time>
      </trkpt>
      <trkpt lat="49.95633" lon="2.36069">
        <ele>99.7</ele>
        <time>2023-01-04T14:04:48Z</time>
      </trkpt>
      <trkpt lat="49.95634" lon="2.36068">
        <ele>99.7</ele>
        <time>2023-01-04T14:04:49Z</time>
      </trkpt>
      <trkpt lat="49.95635" lon="2.36068">
        <ele>99.7</ele>
        <time>2023-01-04T14:04:50Z</time>
      </trkpt>
      <trkpt lat="49.95637" lon="2.36069">
        <ele>99.7</ele>
        <time>2023-01-04T14:04:52Z</time>
      </trkpt>
      <trkpt lat="49.95638" lon="2.36069">
        <ele>99.7</ele>
        <time>2023-01-04T14:04:53Z</time>
      </trkpt>
      <trkpt lat="49.95639" lon="2.36069">
        <ele>99.7</ele>
        <time>2023-01-04T14:04:54Z</time>
      </trkpt>
      <trkpt lat="49.9564" lon="2.36069">
        <ele>99.7</ele>
        <time>2023-01-04T14:04:55Z</time>
      </trkpt>
      <trkpt lat="49.95641" lon="2.36069">
        <ele>99.7</ele>
        <time>2023-01-04T14:04:56Z</time>
      </trkpt>
      <trkpt lat="49.95642" lon="2.36069">
        <ele>99.7</ele>
        <time>2023-01-04T14:04:57Z</time>
      </trkpt>
      <trkpt lat="49.95643" lon="2.36069">
        <ele>99.8</ele>
        <time>2023-01-04T14:04:58Z</time>
      </trkpt>
      <trkpt lat="49.95645" lon="2.36069">
        <ele>99.8</ele>
        <time>2023-01-04T14:04:59Z</time>
      </trkpt>
      <trkpt lat="49.95645" lon="2.3607">
        <ele>99.8</ele>
        <time>2023-01-04T14:05:00Z</time>
      </trkpt>
      <trkpt lat="49.95646" lon="2.3607">
        <ele>99.8</ele>
        <time>2023-01-04T14:05:02Z</time>
      </trkpt>
      <trkpt lat="49.95648" lon="2.3607">
        <ele>99.8</ele>
        <time>2023-01-04T14:05:03Z</time>
      </trkpt>
      <trkpt lat="49.9565" lon="2.3607">
        <ele>99.8</ele>
        <time>2023-01-04T14:05:04Z</time>
      </trkpt>
      <trkpt lat="49.95651" lon="2.36071">
        <ele>99.8</ele>
        <time>2023-01-04T14:05:05Z</time>
      </trkpt>
      <trkpt lat="49.95652" lon="2.36071">
        <ele>99.8</ele>
        <time>2023-01-04T14:05:06Z</time>
      </trkpt>
      <trkpt lat="49.95653" lon="2.36071">
        <ele>99.8</ele>
        <time>2023-01-04T14:05:07Z</time>
      </trkpt>
      <trkpt lat="49.95654" lon="2.36071">
        <ele>99.8</ele>
        <time>2023-01-04T14:05:08Z</time>
      </trkpt>
      <trkpt lat="49.95655" lon="2.36071">
        <ele>99.8</ele>
        <time>2023-01-04T14:05:09Z</time>
      </trkpt>
      <trkpt lat="49.95657" lon="2.36071">
        <ele>99.8</ele>
        <time>2023-01-04T14:05:10Z</time>
      </trkpt>
      <trkpt lat="49.95658" lon="2.36071">
        <ele>99.8</ele>
        <time>2023-01-04T14:05:12Z</time>
      </trkpt>
      <trkpt lat="49.95659" lon="2.36071">
        <ele>99.9</ele>
        <time>2023-01-04T14:05:13Z</time>
      </trkpt>
      <trkpt lat="49.95662" lon="2.36071">
        <ele>99.9</ele>
        <time>2023-01-04T14:05:14Z</time>
      </trkpt>
      <trkpt lat="49.95662" lon="2.3607">
        <ele>99.9</ele>
        <time>2023-01-04T14:05:15Z</time>
      </trkpt>
      <trkpt lat="49.95663" lon="2.3607">
        <ele>99.9</ele>
        <time>2023-01-04T14:05:16Z</time>
      </trkpt>
      <trkpt lat="49.95665" lon="2.3607">
        <ele>99.9</ele>
        <time>2023-01-04T14:05:17Z</time>
      </trkpt>
      <trkpt lat="49.95666" lon="2.36071">
        <ele>99.9</ele>
        <time>2023-01-04T14:05:18Z</time>
      </trkpt>
      <trkpt lat="49.95667" lon="2.36071">
        <ele>99.9</ele>
        <time>2023-01-04T14:05:19Z</time>
      </trkpt>
      <trkpt lat="49.95669" lon="2.36071">
        <ele>99.9</ele>
        <time>2023-01-04T14:05:20Z</time>
      </trkpt>
      <trkpt lat="49.9567" lon="2.36071">
        <ele>99.9</ele>
        <time>2023-01-04T14:05:21Z</time>
      </trkpt>
      <trkpt lat="49.95672" lon="2.36072">
        <ele>100</ele>
        <time>2023-01-04T14:05:23Z</time>
      </trkpt>
      <trkpt lat="49.95673" lon="2.36072">
        <ele>100</ele>
        <time>2023-01-04T14:05:24Z</time>
      </trkpt>
      <trkpt lat="49.95674" lon="2.36072">
        <ele>100</ele>
        <time>2023-01-04T14:05:25Z</time>
      </trkpt>
      <trkpt lat="49.95675" lon="2.36072">
        <ele>100</ele>
        <time>2023-01-04T14:05:26Z</time>
      </trkpt>
      <trkpt lat="49.95677" lon="2.36072">
        <ele>100</ele>
        <time>2023-01-04T14:05:27Z</time>
      </trkpt>
      <trkpt lat="49.95678" lon="2.36071">
        <ele>100</ele>
        <time>2023-01-04T14:05:29Z</time>
      </trkpt>
      <trkpt lat="49.95679" lon="2.36071">
        <ele>100</ele>
        <time>2023-01-04T14:05:30Z</time>
      </trkpt>
      <trkpt lat="49.95681" lon="2.3607">
        <ele>100</ele>
        <time>2023-01-04T14:05:31Z</time>
      </trkpt>
      <trkpt lat="49.95681" lon="2.3607">
        <ele>100</ele>
        <time>2023-01-04T14:05:32Z</time>
      </trkpt>
      <trkpt lat="49.95682" lon="2.3607">
        <ele>100</ele>
        <time>2023-01-04T14:05:33Z</time>
      </trkpt>
      <trkpt lat="49.95684" lon="2.3607">
        <ele>100.1</ele>
        <time>2023-01-04T14:05:34Z</time>
      </trkpt>
      <trkpt lat="49.95685" lon="2.36071">
        <ele>100.1</ele>
        <time>2023-01-04T14:05:35Z</time>
      </trkpt>
      <trkpt lat="49.95688" lon="2.36071">
        <ele>100.1</ele>
        <time>2023-01-04T14:05:36Z</time>
      </trkpt>
      <trkpt lat="49.95688" lon="2.36071">
        <ele>100.1</ele>
        <time>2023-01-04T14:05:37Z</time>
      </trkpt>
      <trkpt lat="49.95689" lon="2.36071">
        <ele>100.1</ele>
        <time>2023-01-04T14:05:38Z</time>
      </trkpt>
      <trkpt lat="49.95691" lon="2.36072">
        <ele>100.1</ele>
        <time>2023-01-04T14:05:40Z</time>
      </trkpt>
      <trkpt lat="49.95693" lon="2.36072">
        <ele>100.1</ele>
        <time>2023-01-04T14:05:41Z</time>
      </trkpt>
      <trkpt lat="49.95694" lon="2.36072">
        <ele>100.2</ele>
        <time>2023-01-04T14:05:42Z</time>
      </trkpt>
      <trkpt lat="49.95696" lon="2.36073">
        <ele>100.2</ele>
        <time>2023-01-04T14:05:43Z</time>
      </trkpt>
      <trkpt lat="49.95698" lon="2.36073">
        <ele>100.2</ele>
        <time>2023-01-04T14:05:44Z</time>
      </trkpt>
      <trkpt lat="49.95699" lon="2.36073">
        <ele>100.2</ele>
        <time>2023-01-04T14:05:45Z</time>
      </trkpt>
      <trkpt lat="49.957" lon="2.36073">
        <ele>100.2</ele>
        <time>2023-01-04T14:05:46Z</time>
      </trkpt>
      <trkpt lat="49.95701" lon="2.36074">
        <ele>100.2</ele>
        <time>2023-01-04T14:05:47Z</time>
      </trkpt>
      <trkpt lat="49.95702" lon="2.36074">
        <ele>100.3</ele>
        <time>2023-01-04T14:05:49Z</time>
      </trkpt>
      <trkpt lat="49.95704" lon="2.36074">
        <ele>100.3</ele>
        <time>2023-01-04T14:05:50Z</time>
      </trkpt>
      <trkpt lat="49.95705" lon="2.36075">
        <ele>100.3</ele>
        <time>2023-01-04T14:05:51Z</time>
      </trkpt>
      <trkpt lat="49.95707" lon="2.36077">
        <ele>100.3</ele>
        <time>2023-01-04T14:05:52Z</time>
      </trkpt>
      <trkpt lat="49.95708" lon="2.36078">
        <ele>100.3</ele>
        <time>2023-01-04T14:05:53Z</time>
      </trkpt>
      <trkpt lat="49.95709" lon="2.36079">
        <ele>100.3</ele>
        <time>2023-01-04T14:05:54Z</time>
      </trkpt>
      <trkpt lat="49.95709" lon="2.36079">
        <ele>100.3</ele>
        <time>2023-01-04T14:05:55Z</time>
      </trkpt>
      <trkpt lat="49.9571" lon="2.36081">
        <ele>100.4</ele>
        <time>2023-01-04T14:05:56Z</time>
      </trkpt>
      <trkpt lat="49.95711" lon="2.36082">
        <ele>100.4</ele>
        <time>2023-01-04T14:05:57Z</time>
      </trkpt>
      <trkpt lat="49.95713" lon="2.36083">
        <ele>100.4</ele>
        <time>2023-01-04T14:05:58Z</time>
      </trkpt>
      <trkpt lat="49.95714" lon="2.36084">
        <ele>100.4</ele>
        <time>2023-01-04T14:06:00Z</time>
      </trkpt>
      <trkpt lat="49.95714" lon="2.36084">
        <ele>100.4</ele>
        <time>2023-01-04T14:06:01Z</time>
      </trkpt>
      <trkpt lat="49.95716" lon="2.36086">
        <ele>100.4</ele>
        <time>2023-01-04T14:06:02Z</time>
      </trkpt>
      <trkpt lat="49.95717" lon="2.36087">
        <ele>100.5</ele>
        <time>2023-01-04T14:06:03Z</time>
      </trkpt>
      <trkpt lat="49.95718" lon="2.36088">
        <ele>100.5</ele>
        <time>2023-01-04T14:06:04Z</time>
      </trkpt>
      <trkpt lat="49.95719" lon="2.36088">
        <ele>100.5</ele>
        <time>2023-01-04T14:06:05Z</time>
      </trkpt>
      <trkpt lat="49.9572" lon="2.36089">
        <ele>100.5</ele>
        <time>2023-01-04T14:06:06Z</time>
      </trkpt>
      <trkpt lat="49.95721" lon="2.3609">
        <ele>100.5</ele>
        <time>2023-01-04T14:06:07Z</time>
      </trkpt>
      <trkpt lat="49.95722" lon="2.36091">
        <ele>100.6</ele>
        <time>2023-01-04T14:06:08Z</time>
      </trkpt>
      <trkpt lat="49.95723" lon="2.36092">
        <ele>100.6</ele>
        <time>2023-01-04T14:06:10Z</time>
      </trkpt>
      <trkpt lat="49.95724" lon="2.36093">
        <ele>100.6</ele>
        <time>2023-01-04T14:06:11Z</time>
      </trkpt>
      <trkpt lat="49.95726" lon="2.36094">
        <ele>100.6</ele>
        <time>2023-01-04T14:06:12Z</time>
      </trkpt>
      <trkpt lat="49.95727" lon="2.36095">
        <ele>100.7</ele>
        <time>2023-01-04T14:06:13Z</time>
      </trkpt>
      <trkpt lat="49.95728" lon="2.36096">
        <ele>100.7</ele>
        <time>2023-01-04T14:06:14Z</time>
      </trkpt>
      <trkpt lat="49.95728" lon="2.36096">
        <ele>100.7</ele>
        <time>2023-01-04T14:06:15Z</time>
      </trkpt>
      <trkpt lat="49.9573" lon="2.36096">
        <ele>100.7</ele>
        <time>2023-01-04T14:06:16Z</time>
      </trkpt>
      <trkpt lat="49.95731" lon="2.36096">
        <ele>100.8</ele>
        <time>2023-01-04T14:06:18Z</time>
      </trkpt>
      <trkpt lat="49.95732" lon="2.36097">
        <ele>100.8</ele>
        <time>2023-01-04T14:06:19Z</time>
      </trkpt>
      <trkpt lat="49.95734" lon="2.36097">
        <ele>100.8</ele>
        <time>2023-01-04T14:06:20Z</time>
      </trkpt>
      <trkpt lat="49.95735" lon="2.36098">
        <ele>100.9</ele>
        <time>2023-01-04T14:06:21Z</time>
      </trkpt>
      <trkpt lat="49.95736" lon="2.36098">
        <ele>100.9</ele>
        <time>2023-01-04T14:06:22Z</time>
      </trkpt>
      <trkpt lat="49.95737" lon="2.36099">
        <ele>100.9</ele>
        <time>2023-01-04T14:06:23Z</time>
      </trkpt>
      <trkpt lat="49.95739" lon="2.36099">
        <ele>101</ele>
        <time>2023-01-04T14:06:24Z</time>
      </trkpt>
      <trkpt lat="49.9574" lon="2.361">
        <ele>101</ele>
        <time>2023-01-04T14:06:25Z</time>
      </trkpt>
      <trkpt lat="49.95741" lon="2.36101">
        <ele>101</ele>
        <time>2023-01-04T14:06:26Z</time>
      </trkpt>
      <trkpt lat="49.95742" lon="2.36101">
        <ele>101.1</ele>
        <time>2023-01-04T14:06:28Z</time>
      </trkpt>
      <trkpt lat="49.95743" lon="2.36101">
        <ele>101.1</ele>
        <time>2023-01-04T14:06:29Z</time>
      </trkpt>
      <trkpt lat="49.95744" lon="2.36102">
        <ele>101.1</ele>
        <time>2023-01-04T14:06:30Z</time>
      </trkpt>
      <trkpt lat="49.95744" lon="2.36102">
        <ele>101.1</ele>
        <time>2023-01-04T14:06:31Z</time>
      </trkpt>
      <trkpt lat="49.95746" lon="2.36103">
        <ele>101.2</ele>
        <time>2023-01-04T14:06:32Z</time>
      </trkpt>
      <trkpt lat="49.95747" lon="2.36103">
        <ele>101.2</ele>
        <time>2023-01-04T14:06:33Z</time>
      </trkpt>
      <trkpt lat="49.95748" lon="2.36104">
        <ele>101.2</ele>
        <time>2023-01-04T14:06:35Z</time>
      </trkpt>
      <trkpt lat="49.95749" lon="2.36105">
        <ele>101.2</ele>
        <time>2023-01-04T14:06:36Z</time>
      </trkpt>
      <trkpt lat="49.95749" lon="2.36105">
        <ele>101.3</ele>
        <time>2023-01-04T14:06:37Z</time>
      </trkpt>
      <trkpt lat="49.9575" lon="2.36106">
        <ele>101.3</ele>
        <time>2023-01-04T14:06:38Z</time>
      </trkpt>
      <trkpt lat="49.95752" lon="2.36106">
        <ele>101.3</ele>
        <time>2023-01-04T14:06:39Z</time>
      </trkpt>
      <trkpt lat="49.95753" lon="2.36107">
        <ele>101.4</ele>
        <time>2023-01-04T14:06:40Z</time>
      </trkpt>
      <trkpt lat="49.95755" lon="2.36107">
        <ele>101.4</ele>
        <time>2023-01-04T14:06:41Z</time>
      </trkpt>
      <trkpt lat="49.95756" lon="2.36107">
        <ele>101.4</ele>
        <time>2023-01-04T14:06:43Z</time>
      </trkpt>
      <trkpt lat="49.95757" lon="2.36107">
        <ele>101.5</ele>
        <time>2023-01-04T14:06:44Z</time>
      </trkpt>
      <trkpt lat="49.95758" lon="2.36107">
        <ele>101.5</ele>
        <time>2023-01-04T14:06:45Z</time>
      </trkpt>
      <trkpt lat="49.95759" lon="2.36107">
        <ele>101.5</ele>
        <time>2023-01-04T14:06:47Z</time>
      </trkpt>
      <trkpt lat="49.95761" lon="2.36107">
        <ele>101.6</ele>
        <time>2023-01-04T14:06:48Z</time>
      </trkpt>
      <trkpt lat="49.95762" lon="2.36108">
        <ele>101.6</ele>
        <time>2023-01-04T14:06:49Z</time>
      </trkpt>
      <trkpt lat="49.95763" lon="2.36108">
        <ele>101.6</ele>
        <time>2023-01-04T14:06:50Z</time>
      </trkpt>
      <trkpt lat="49.95764" lon="2.36108">
        <ele>101.7</ele>
        <time>2023-01-04T14:06:51Z</time>
      </trkpt>
      <trkpt lat="49.95765" lon="2.36108">
        <ele>101.7</ele>
        <time>2023-01-04T14:06:52Z</time>
      </trkpt>
      <trkpt lat="49.95766" lon="2.36108">
        <ele>101.7</ele>
        <time>2023-01-04T14:06:53Z</time>
      </trkpt>
      <trkpt lat="49.95768" lon="2.36108">
        <ele>101.8</ele>
        <time>2023-01-04T14:06:54Z</time>
      </trkpt>
      <trkpt lat="49.95768" lon="2.36109">
        <ele>101.8</ele>
        <time>2023-01-04T14:06:56Z</time>
      </trkpt>
      <trkpt lat="49.95769" lon="2.36109">
        <ele>101.8</ele>
        <time>2023-01-04T14:06:57Z</time>
      </trkpt>
      <trkpt lat="49.9577" lon="2.36109">
        <ele>101.9</ele>
        <time>2023-01-04T14:06:58Z</time>
      </trkpt>
      <trkpt lat="49.95771" lon="2.3611">
        <ele>101.9</ele>
        <time>2023-01-04T14:06:59Z</time>
      </trkpt>
      <trkpt lat="49.95772" lon="2.3611">
        <ele>101.9</ele>
        <time>2023-01-04T14:07:00Z</time>
      </trkpt>
      <trkpt lat="49.95773" lon="2.36111">
        <ele>101.9</ele>
        <time>2023-01-04T14:07:01Z</time>
      </trkpt>
      <trkpt lat="49.95774" lon="2.36111">
        <ele>102</ele>
        <time>2023-01-04T14:07:02Z</time>
      </trkpt>
      <trkpt lat="49.95775" lon="2.36112">
        <ele>102</ele>
        <time>2023-01-04T14:07:03Z</time>
      </trkpt>
      <trkpt lat="49.95777" lon="2.36112">
        <ele>102.1</ele>
        <time>2023-01-04T14:07:04Z</time>
      </trkpt>
      <trkpt lat="49.95778" lon="2.36112">
        <ele>102.1</ele>
        <time>2023-01-04T14:07:05Z</time>
      </trkpt>
      <trkpt lat="49.95779" lon="2.36113">
        <ele>102.1</ele>
        <time>2023-01-04T14:07:07Z</time>
      </trkpt>
      <trkpt lat="49.95781" lon="2.36113">
        <ele>102.2</ele>
        <time>2023-01-04T14:07:08Z</time>
      </trkpt>
      <trkpt lat="49.95782" lon="2.36113">
        <ele>102.2</ele>
        <time>2023-01-04T14:07:09Z</time>
      </trkpt>
      <trkpt lat="49.95783" lon="2.36114">
        <ele>102.3</ele>
        <time>2023-01-04T14:07:10Z</time>
      </trkpt>
      <trkpt lat="49.95784" lon="2.36114">
        <ele>102.3</ele>
        <time>2023-01-04T14:07:11Z</time>
      </trkpt>
      <trkpt lat="49.95785" lon="2.36114">
        <ele>102.3</ele>
        <time>2023-01-04T14:07:12Z</time>
      </trkpt>
      <trkpt lat="49.95786" lon="2.36114">
        <ele>102.4</ele>
        <time>2023-01-04T14:07:14Z</time>
      </trkpt>
      <trkpt lat="49.95788" lon="2.36115">
        <ele>102.5</ele>
        <time>2023-01-04T14:07:15Z</time>
      </trkpt>
      <trkpt lat="49.95789" lon="2.36115">
        <ele>102.5</ele>
        <time>2023-01-04T14:07:16Z</time>
      </trkpt>
      <trkpt lat="49.9579" lon="2.36115">
        <ele>102.6</ele>
        <time>2023-01-04T14:07:17Z</time>
      </trkpt>
      <trkpt lat="49.95791" lon="2.36116">
        <ele>102.6</ele>
        <time>2023-01-04T14:07:18Z</time>
      </trkpt>
      <trkpt lat="49.95792" lon="2.36116">
        <ele>102.7</ele>
        <time>2023-01-04T14:07:19Z</time>
      </trkpt>
      <trkpt lat="49.95794" lon="2.36116">
        <ele>102.7</ele>
        <time>2023-01-04T14:07:20Z</time>
      </trkpt>
      <trkpt lat="49.95795" lon="2.36117">
        <ele>102.8</ele>
        <time>2023-01-04T14:07:21Z</time>
      </trkpt>
      <trkpt lat="49.95797" lon="2.36117">
        <ele>102.9</ele>
        <time>2023-01-04T14:07:22Z</time>
      </trkpt>
      <trkpt lat="49.95798" lon="2.36117">
        <ele>102.9</ele>
        <time>2023-01-04T14:07:24Z</time>
      </trkpt>
      <trkpt lat="49.95799" lon="2.36117">
        <ele>103</ele>
        <time>2023-01-04T14:07:25Z</time>
      </trkpt>
      <trkpt lat="49.958" lon="2.36117">
        <ele>103</ele>
        <time>2023-01-04T14:07:26Z</time>
      </trkpt>
      <trkpt lat="49.95801" lon="2.36118">
        <ele>103</ele>
        <time>2023-01-04T14:07:27Z</time>
      </trkpt>
      <trkpt lat="49.95802" lon="2.36118">
        <ele>103.1</ele>
        <time>2023-01-04T14:07:28Z</time>
      </trkpt>
      <trkpt lat="49.95803" lon="2.36118">
        <ele>103.2</ele>
        <time>2023-01-04T14:07:29Z</time>
      </trkpt>
      <trkpt lat="49.95804" lon="2.36118">
        <ele>103.2</ele>
        <time>2023-01-04T14:07:30Z</time>
      </trkpt>
      <trkpt lat="49.95806" lon="2.36118">
        <ele>103.3</ele>
        <time>2023-01-04T14:07:32Z</time>
      </trkpt>
      <trkpt lat="49.95807" lon="2.36118">
        <ele>103.4</ele>
        <time>2023-01-04T14:07:33Z</time>
      </trkpt>
      <trkpt lat="49.95808" lon="2.36118">
        <ele>103.4</ele>
        <time>2023-01-04T14:07:34Z</time>
      </trkpt>
      <trkpt lat="49.9581" lon="2.36118">
        <ele>103.5</ele>
        <time>2023-01-04T14:07:35Z</time>
      </trkpt>
      <trkpt lat="49.95811" lon="2.36117">
        <ele>103.6</ele>
        <time>2023-01-04T14:07:36Z</time>
      </trkpt>
      <trkpt lat="49.95812" lon="2.36117">
        <ele>103.6</ele>
        <time>2023-01-04T14:07:37Z</time>
      </trkpt>
      <trkpt lat="49.95812" lon="2.36117">
        <ele>103.7</ele>
        <time>2023-01-04T14:07:38Z</time>
      </trkpt>
      <trkpt lat="49.95814" lon="2.36117">
        <ele>103.8</ele>
        <time>2023-01-04T14:07:40Z</time>
      </trkpt>
      <trkpt lat="49.95815" lon="2.36117">
        <ele>103.9</ele>
        <time>2023-01-04T14:07:41Z</time>
      </trkpt>
      <trkpt lat="49.95816" lon="2.36116">
        <ele>103.9</ele>
        <time>2023-01-04T14:07:42Z</time>
      </trkpt>
      <trkpt lat="49.95818" lon="2.36116">
        <ele>104</ele>
        <time>2023-01-04T14:07:43Z</time>
      </trkpt>
      <trkpt lat="49.95818" lon="2.36116">
        <ele>104</ele>
        <time>2023-01-04T14:07:44Z</time>
      </trkpt>
      <trkpt lat="49.9582" lon="2.36115">
        <ele>104.1</ele>
        <time>2023-01-04T14:07:45Z</time>
      </trkpt>
      <trkpt lat="49.9582" lon="2.36115">
        <ele>104.2</ele>
        <time>2023-01-04T14:07:46Z</time>
      </trkpt>
      <trkpt lat="49.95821" lon="2.36115">
        <ele>104.2</ele>
        <time>2023-01-04T14:07:47Z</time>
      </trkpt>
      <trkpt lat="49.95822" lon="2.36115">
        <ele>104.3</ele>
        <time>2023-01-04T14:07:49Z</time>
      </trkpt>
      <trkpt lat="49.95824" lon="2.36114">
        <ele>104.4</ele>
        <time>2023-01-04T14:07:50Z</time>
      </trkpt>
      <trkpt lat="49.95824" lon="2.36114">
        <ele>104.4</ele>
        <time>2023-01-04T14:07:51Z</time>
      </trkpt>
      <trkpt lat="49.95825" lon="2.36114">
        <ele>104.5</ele>
        <time>2023-01-04T14:07:52Z</time>
      </trkpt>
      <trkpt lat="49.95826" lon="2.36113">
        <ele>104.5</ele>
        <time>2023-01-04T14:07:53Z</time>
      </trkpt>
      <trkpt lat="49.95827" lon="2.36113">
        <ele>104.6</ele>
        <time>2023-01-04T14:07:54Z</time>
      </trkpt>
      <trkpt lat="49.95828" lon="2.36113">
        <ele>104.7</ele>
        <time>2023-01-04T14:07:56Z</time>
      </trkpt>
      <trkpt lat="49.95829" lon="2.36113">
        <ele>104.7</ele>
        <time>2023-01-04T14:07:57Z</time>
      </trkpt>
      <trkpt lat="49.9583" lon="2.36113">
        <ele>104.8</ele>
        <time>2023-01-04T14:07:58Z</time>
      </trkpt>
      <trkpt lat="49.95831" lon="2.36113">
        <ele>104.9</ele>
        <time>2023-01-04T14:07:59Z</time>
      </trkpt>
      <trkpt lat="49.95832" lon="2.36112">
        <ele>105</ele>
        <time>2023-01-04T14:08:00Z</time>
      </trkpt>
      <trkpt lat="49.95833" lon="2.36112">
        <ele>105</ele>
        <time>2023-01-04T14:08:01Z</time>
      </trkpt>
      <trkpt lat="49.95835" lon="2.36111">
        <ele>105.1</ele>
        <time>2023-01-04T14:08:02Z</time>
      </trkpt>
      <trkpt lat="49.95836" lon="2.36111">
        <ele>105.2</ele>
        <time>2023-01-04T14:08:04Z</time>
      </trkpt>
      <trkpt lat="49.95837" lon="2.36111">
        <ele>105.3</ele>
        <time>2023-01-04T14:08:05Z</time>
      </trkpt>
      <trkpt lat="49.95838" lon="2.36111">
        <ele>105.3</ele>
        <time>2023-01-04T14:08:06Z</time>
      </trkpt>
      <trkpt lat="49.95839" lon="2.36111">
        <ele>105.4</ele>
        <time>2023-01-04T14:08:07Z</time>
      </trkpt>
      <trkpt lat="49.9584" lon="2.36111">
        <ele>105.5</ele>
        <time>2023-01-04T14:08:08Z</time>
      </trkpt>
      <trkpt lat="49.95842" lon="2.3611">
        <ele>105.6</ele>
        <time>2023-01-04T14:08:09Z</time>
      </trkpt>
      <trkpt lat="49.95843" lon="2.36109">
        <ele>105.7</ele>
        <time>2023-01-04T14:08:10Z</time>
      </trkpt>
      <trkpt lat="49.95844" lon="2.36109">
        <ele>105.8</ele>
        <time>2023-01-04T14:08:12Z</time>
      </trkpt>
      <trkpt lat="49.95845" lon="2.36108">
        <ele>105.8</ele>
        <time>2023-01-04T14:08:13Z</time>
      </trkpt>
      <trkpt lat="49.95846" lon="2.36107">
        <ele>105.9</ele>
        <time>2023-01-04T14:08:14Z</time>
      </trkpt>
      <trkpt lat="49.95847" lon="2.36107">
        <ele>106</ele>
        <time>2023-01-04T14:08:15Z</time>
      </trkpt>
      <trkpt lat="49.95848" lon="2.36107">
        <ele>106</ele>
        <time>2023-01-04T14:08:16Z</time>
      </trkpt>
      <trkpt lat="49.95849" lon="2.36106">
        <ele>106.1</ele>
        <time>2023-01-04T14:08:17Z</time>
      </trkpt>
      <trkpt lat="49.9585" lon="2.36106">
        <ele>106.2</ele>
        <time>2023-01-04T14:08:18Z</time>
      </trkpt>
      <trkpt lat="49.95852" lon="2.36105">
        <ele>106.3</ele>
        <time>2023-01-04T14:08:20Z</time>
      </trkpt>
      <trkpt lat="49.95853" lon="2.36105">
        <ele>106.3</ele>
        <time>2023-01-04T14:08:21Z</time>
      </trkpt>
      <trkpt lat="49.95854" lon="2.36104">
        <ele>106.4</ele>
        <time>2023-01-04T14:08:22Z</time>
      </trkpt>
      <trkpt lat="49.95855" lon="2.36104">
        <ele>106.5</ele>
        <time>2023-01-04T14:08:23Z</time>
      </trkpt>
      <trkpt lat="49.95856" lon="2.36103">
        <ele>106.5</ele>
        <time>2023-01-04T14:08:24Z</time>
      </trkpt>
      <trkpt lat="49.95857" lon="2.36102">
        <ele>106.6</ele>
        <time>2023-01-04T14:08:25Z</time>
      </trkpt>
      <trkpt lat="49.95857" lon="2.36101">
        <ele>106.7</ele>
        <time>2023-01-04T14:08:26Z</time>
      </trkpt>
      <trkpt lat="49.95858" lon="2.361">
        <ele>106.7</ele>
        <time>2023-01-04T14:08:27Z</time>
      </trkpt>
      <trkpt lat="49.95859" lon="2.361">
        <ele>106.8</ele>
        <time>2023-01-04T14:08:29Z</time>
      </trkpt>
      <trkpt lat="49.95861" lon="2.36099">
        <ele>106.9</ele>
        <time>2023-01-04T14:08:30Z</time>
      </trkpt>
      <trkpt lat="49.95861" lon="2.36098">
        <ele>106.9</ele>
        <time>2023-01-04T14:08:31Z</time>
      </trkpt>
      <trkpt lat="49.95862" lon="2.36098">
        <ele>107</ele>
        <time>2023-01-04T14:08:32Z</time>
      </trkpt>
      <trkpt lat="49.95863" lon="2.36097">
        <ele>107.1</ele>
        <time>2023-01-04T14:08:33Z</time>
      </trkpt>
      <trkpt lat="49.95864" lon="2.36097">
        <ele>107.1</ele>
        <time>2023-01-04T14:08:35Z</time>
      </trkpt>
      <trkpt lat="49.95865" lon="2.36096">
        <ele>107.2</ele>
        <time>2023-01-04T14:08:36Z</time>
      </trkpt>
      <trkpt lat="49.95866" lon="2.36095">
        <ele>107.3</ele>
        <time>2023-01-04T14:08:37Z</time>
      </trkpt>
      <trkpt lat="49.95867" lon="2.36095">
        <ele>107.3</ele>
        <time>2023-01-04T14:08:38Z</time>
      </trkpt>
      <trkpt lat="49.95868" lon="2.36094">
        <ele>107.4</ele>
        <time>2023-01-04T14:08:39Z</time>
      </trkpt>
      <trkpt lat="49.95869" lon="2.36094">
        <ele>107.5</ele>
        <time>2023-01-04T14:08:40Z</time>
      </trkpt>
      <trkpt lat="49.9587" lon="2.36093">
        <ele>107.5</ele>
        <time>2023-01-04T14:08:41Z</time>
      </trkpt>
      <trkpt lat="49.95871" lon="2.36092">
        <ele>107.6</ele>
        <time>2023-01-04T14:08:42Z</time>
      </trkpt>
      <trkpt lat="49.95873" lon="2.36091">
        <ele>107.7</ele>
        <time>2023-01-04T14:08:43Z</time>
      </trkpt>
      <trkpt lat="49.95874" lon="2.36091">
        <ele>107.7</ele>
        <time>2023-01-04T14:08:45Z</time>
      </trkpt>
      <trkpt lat="49.95875" lon="2.36091">
        <ele>107.8</ele>
        <time>2023-01-04T14:08:46Z</time>
      </trkpt>
      <trkpt lat="49.95876" lon="2.3609">
        <ele>107.8</ele>
        <time>2023-01-04T14:08:47Z</time>
      </trkpt>
      <trkpt lat="49.95877" lon="2.36089">
        <ele>107.9</ele>
        <time>2023-01-04T14:08:48Z</time>
      </trkpt>
      <trkpt lat="49.95878" lon="2.36089">
        <ele>108</ele>
        <time>2023-01-04T14:08:49Z</time>
      </trkpt>
      <trkpt lat="49.9588" lon="2.36088">
        <ele>108</ele>
        <time>2023-01-04T14:08:50Z</time>
      </trkpt>
      <trkpt lat="49.95881" lon="2.36087">
        <ele>108.1</ele>
        <time>2023-01-04T14:08:51Z</time>
      </trkpt>
      <trkpt lat="49.95883" lon="2.36086">
        <ele>108.2</ele>
        <time>2023-01-04T14:08:52Z</time>
      </trkpt>
      <trkpt lat="49.95884" lon="2.36086">
        <ele>108.2</ele>
        <time>2023-01-04T14:08:54Z</time>
      </trkpt>
      <trkpt lat="49.95884" lon="2.36085">
        <ele>108.3</ele>
        <time>2023-01-04T14:08:55Z</time>
      </trkpt>
      <trkpt lat="49.95886" lon="2.36084">
        <ele>108.3</ele>
        <time>2023-01-04T14:08:56Z</time>
      </trkpt>
      <trkpt lat="49.95887" lon="2.36084">
        <ele>108.4</ele>
        <time>2023-01-04T14:08:57Z</time>
      </trkpt>
      <trkpt lat="49.95888" lon="2.36083">
        <ele>108.4</ele>
        <time>2023-01-04T14:08:58Z</time>
      </trkpt>
      <trkpt lat="49.95889" lon="2.36083">
        <ele>108.5</ele>
        <time>2023-01-04T14:08:59Z</time>
      </trkpt>
      <trkpt lat="49.9589" lon="2.36082">
        <ele>108.6</ele>
        <time>2023-01-04T14:09:01Z</time>
      </trkpt>
      <trkpt lat="49.95891" lon="2.36081">
        <ele>108.6</ele>
        <time>2023-01-04T14:09:02Z</time>
      </trkpt>
      <trkpt lat="49.95893" lon="2.3608">
        <ele>108.7</ele>
        <time>2023-01-04T14:09:03Z</time>
      </trkpt>
      <trkpt lat="49.95894" lon="2.3608">
        <ele>108.7</ele>
        <time>2023-01-04T14:09:04Z</time>
      </trkpt>
      <trkpt lat="49.95895" lon="2.36079">
        <ele>108.8</ele>
        <time>2023-01-04T14:09:05Z</time>
      </trkpt>
      <trkpt lat="49.95896" lon="2.36079">
        <ele>108.8</ele>
        <time>2023-01-04T14:09:06Z</time>
      </trkpt>
      <trkpt lat="49.95897" lon="2.36078">
        <ele>108.9</ele>
        <time>2023-01-04T14:09:07Z</time>
      </trkpt>
      <trkpt lat="49.95899" lon="2.36077">
        <ele>109</ele>
        <time>2023-01-04T14:09:09Z</time>
      </trkpt>
      <trkpt lat="49.959" lon="2.36076">
        <ele>109</ele>
        <time>2023-01-04T14:09:10Z</time>
      </trkpt>
      <trkpt lat="49.95901" lon="2.36076">
        <ele>109</ele>
        <time>2023-01-04T14:09:11Z</time>
      </trkpt>
      <trkpt lat="49.95902" lon="2.36075">
        <ele>109.1</ele>
        <time>2023-01-04T14:09:12Z</time>
      </trkpt>
      <trkpt lat="49.95903" lon="2.36075">
        <ele>109.1</ele>
        <time>2023-01-04T14:09:13Z</time>
      </trkpt>
      <trkpt lat="49.95904" lon="2.36074">
        <ele>109.2</ele>
        <time>2023-01-04T14:09:14Z</time>
      </trkpt>
      <trkpt lat="49.95905" lon="2.36074">
        <ele>109.2</ele>
        <time>2023-01-04T14:09:16Z</time>
      </trkpt>
      <trkpt lat="49.95906" lon="2.36073">
        <ele>109.3</ele>
        <time>2023-01-04T14:09:17Z</time>
      </trkpt>
      <trkpt lat="49.95907" lon="2.36072">
        <ele>109.3</ele>
        <time>2023-01-04T14:09:18Z</time>
      </trkpt>
      <trkpt lat="49.95908" lon="2.36072">
        <ele>109.4</ele>
        <time>2023-01-04T14:09:19Z</time>
      </trkpt>
      <trkpt lat="49.95909" lon="2.36071">
        <ele>109.4</ele>
        <time>2023-01-04T14:09:20Z</time>
      </trkpt>
      <trkpt lat="49.9591" lon="2.3607">
        <ele>109.4</ele>
        <time>2023-01-04T14:09:21Z</time>
      </trkpt>
      <trkpt lat="49.95911" lon="2.3607">
        <ele>109.5</ele>
        <time>2023-01-04T14:09:23Z</time>
      </trkpt>
      <trkpt lat="49.95912" lon="2.36069">
        <ele>109.5</ele>
        <time>2023-01-04T14:09:24Z</time>
      </trkpt>
      <trkpt lat="49.95914" lon="2.36068">
        <ele>109.6</ele>
        <time>2023-01-04T14:09:25Z</time>
      </trkpt>
      <trkpt lat="49.95915" lon="2.36068">
        <ele>109.6</ele>
        <time>2023-01-04T14:09:26Z</time>
      </trkpt>
      <trkpt lat="49.95916" lon="2.36067">
        <ele>109.7</ele>
        <time>2023-01-04T14:09:27Z</time>
      </trkpt>
      <trkpt lat="49.95917" lon="2.36067">
        <ele>109.7</ele>
        <time>2023-01-04T14:09:28Z</time>
      </trkpt>
      <trkpt lat="49.95918" lon="2.36066">
        <ele>109.7</ele>
        <time>2023-01-04T14:09:29Z</time>
      </trkpt>
      <trkpt lat="49.95919" lon="2.36066">
        <ele>109.8</ele>
        <time>2023-01-04T14:09:30Z</time>
      </trkpt>
      <trkpt lat="49.9592" lon="2.36066">
        <ele>109.8</ele>
        <time>2023-01-04T14:09:31Z</time>
      </trkpt>
      <trkpt lat="49.95922" lon="2.36065">
        <ele>109.9</ele>
        <time>2023-01-04T14:09:33Z</time>
      </trkpt>
      <trkpt lat="49.95923" lon="2.36065">
        <ele>110</ele>
        <time>2023-01-04T14:09:34Z</time>
      </trkpt>
      <trkpt lat="49.95924" lon="2.36064">
        <ele>110</ele>
        <time>2023-01-04T14:09:35Z</time>
      </trkpt>
      <trkpt lat="49.95926" lon="2.36064">
        <ele>110.1</ele>
        <time>2023-01-04T14:09:36Z</time>
      </trkpt>
      <trkpt lat="49.95927" lon="2.36063">
        <ele>110.1</ele>
        <time>2023-01-04T14:09:37Z</time>
      </trkpt>
      <trkpt lat="49.95928" lon="2.36063">
        <ele>110.1</ele>
        <time>2023-01-04T14:09:38Z</time>
      </trkpt>
      <trkpt lat="49.95929" lon="2.36063">
        <ele>110.2</ele>
        <time>2023-01-04T14:09:39Z</time>
      </trkpt>
      <trkpt lat="49.95931" lon="2.36063">
        <ele>110.2</ele>
        <time>2023-01-04T14:09:41Z</time>
      </trkpt>
      <trkpt lat="49.95932" lon="2.36063">
        <ele>110.3</ele>
        <time>2023-01-04T14:09:42Z</time>
      </trkpt>
      <trkpt lat="49.95933" lon="2.36062">
        <ele>110.3</ele>
        <time>2023-01-04T14:09:43Z</time>
      </trkpt>
      <trkpt lat="49.95934" lon="2.36062">
        <ele>110.4</ele>
        <time>2023-01-04T14:09:44Z</time>
      </trkpt>
      <trkpt lat="49.95935" lon="2.36061">
        <ele>110.4</ele>
        <time>2023-01-04T14:09:45Z</time>
      </trkpt>
      <trkpt lat="49.95937" lon="2.36061">
        <ele>110.5</ele>
        <time>2023-01-04T14:09:46Z</time>
      </trkpt>
      <trkpt lat="49.95938" lon="2.3606">
        <ele>110.5</ele>
        <time>2023-01-04T14:09:48Z</time>
      </trkpt>
      <trkpt lat="49.9594" lon="2.36059">
        <ele>110.6</ele>
        <time>2023-01-04T14:09:49Z</time>
      </trkpt>
      <trkpt lat="49.95941" lon="2.36058">
        <ele>110.6</ele>
        <time>2023-01-04T14:09:50Z</time>
      </trkpt>
      <trkpt lat="49.95941" lon="2.36058">
        <ele>110.7</ele>
        <time>2023-01-04T14:09:51Z</time>
      </trkpt>
      <trkpt lat="49.95942" lon="2.36057">
        <ele>110.7</ele>
        <time>2023-01-04T14:09:52Z</time>
      </trkpt>
      <trkpt lat="49.95943" lon="2.36056">
        <ele>110.7</ele>
        <time>2023-01-04T14:09:53Z</time>
      </trkpt>
      <trkpt lat="49.95944" lon="2.36055">
        <ele>110.8</ele>
        <time>2023-01-04T14:09:54Z</time>
      </trkpt>
      <trkpt lat="49.95945" lon="2.36055">
        <ele>110.8</ele>
        <time>2023-01-04T14:09:55Z</time>
      </trkpt>
      <trkpt lat="49.95946" lon="2.36054">
        <ele>110.9</ele>
        <time>2023-01-04T14:09:56Z</time>
      </trkpt>
      <trkpt lat="49.95947" lon="2.36053">
        <ele>110.9</ele>
        <time>2023-01-04T14:09:58Z</time>
      </trkpt>
      <trkpt lat="49.95948" lon="2.36053">
        <ele>111</ele>
        <time>2023-01-04T14:09:59Z</time>
      </trkpt>
      <trkpt lat="49.95949" lon="2.36052">
        <ele>111</ele>
        <time>2023-01-04T14:10:00Z</time>
      </trkpt>
      <trkpt lat="49.9595" lon="2.36051">
        <ele>111.1</ele>
        <time>2023-01-04T14:10:01Z</time>
      </trkpt>
      <trkpt lat="49.95951" lon="2.36051">
        <ele>111.1</ele>
        <time>2023-01-04T14:10:02Z</time>
      </trkpt>
      <trkpt lat="49.95952" lon="2.3605">
        <ele>111.1</ele>
        <time>2023-01-04T14:10:03Z</time>
      </trkpt>
      <trkpt lat="49.95953" lon="2.36049">
        <ele>111.2</ele>
        <time>2023-01-04T14:10:05Z</time>
      </trkpt>
      <trkpt lat="49.95954" lon="2.36049">
        <ele>111.2</ele>
        <time>2023-01-04T14:10:06Z</time>
      </trkpt>
      <trkpt lat="49.95955" lon="2.36048">
        <ele>111.2</ele>
        <time>2023-01-04T14:10:07Z</time>
      </trkpt>
      <trkpt lat="49.95955" lon="2.36047">
        <ele>111.3</ele>
        <time>2023-01-04T14:10:08Z</time>
      </trkpt>
      <trkpt lat="49.95956" lon="2.36047">
        <ele>111.3</ele>
        <time>2023-01-04T14:10:09Z</time>
      </trkpt>
      <trkpt lat="49.95957" lon="2.36046">
        <ele>111.3</ele>
        <time>2023-01-04T14:10:10Z</time>
      </trkpt>
      <trkpt lat="49.95958" lon="2.36045">
        <ele>111.4</ele>
        <time>2023-01-04T14:10:11Z</time>
      </trkpt>
      <trkpt lat="49.95959" lon="2.36045">
        <ele>111.4</ele>
        <time>2023-01-04T14:10:12Z</time>
      </trkpt>
      <trkpt lat="49.9596" lon="2.36045">
        <ele>111.4</ele>
        <time>2023-01-04T14:10:14Z</time>
      </trkpt>
      <trkpt lat="49.95961" lon="2.36044">
        <ele>111.5</ele>
        <time>2023-01-04T14:10:15Z</time>
      </trkpt>
      <trkpt lat="49.95963" lon="2.36043">
        <ele>111.5</ele>
        <time>2023-01-04T14:10:16Z</time>
      </trkpt>
      <trkpt lat="49.95964" lon="2.36042">
        <ele>111.6</ele>
        <time>2023-01-04T14:10:17Z</time>
      </trkpt>
      <trkpt lat="49.95964" lon="2.36042">
        <ele>111.6</ele>
        <time>2023-01-04T14:10:18Z</time>
      </trkpt>
      <trkpt lat="49.95965" lon="2.36042">
        <ele>111.6</ele>
        <time>2023-01-04T14:10:20Z</time>
      </trkpt>
      <trkpt lat="49.95966" lon="2.36041">
        <ele>111.6</ele>
        <time>2023-01-04T14:10:21Z</time>
      </trkpt>
      <trkpt lat="49.95968" lon="2.3604">
        <ele>111.7</ele>
        <time>2023-01-04T14:10:22Z</time>
      </trkpt>
      <trkpt lat="49.95969" lon="2.3604">
        <ele>111.7</ele>
        <time>2023-01-04T14:10:23Z</time>
      </trkpt>
      <trkpt lat="49.9597" lon="2.36039">
        <ele>111.8</ele>
        <time>2023-01-04T14:10:24Z</time>
      </trkpt>
      <trkpt lat="49.95971" lon="2.36038">
        <ele>111.8</ele>
        <time>2023-01-04T14:10:25Z</time>
      </trkpt>
      <trkpt lat="49.95972" lon="2.36038">
        <ele>111.8</ele>
        <time>2023-01-04T14:10:26Z</time>
      </trkpt>
      <trkpt lat="49.95973" lon="2.36037">
        <ele>111.9</ele>
        <time>2023-01-04T14:10:28Z</time>
      </trkpt>
      <trkpt lat="49.95974" lon="2.36037">
        <ele>111.9</ele>
        <time>2023-01-04T14:10:29Z</time>
      </trkpt>
      <trkpt lat="49.95975" lon="2.36036">
        <ele>111.9</ele>
        <time>2023-01-04T14:10:30Z</time>
      </trkpt>
      <trkpt lat="49.95976" lon="2.36036">
        <ele>111.9</ele>
        <time>2023-01-04T14:10:31Z</time>
      </trkpt>
      <trkpt lat="49.95977" lon="2.36035">
        <ele>112</ele>
        <time>2023-01-04T14:10:32Z</time>
      </trkpt>
      <trkpt lat="49.95979" lon="2.36034">
        <ele>112</ele>
        <time>2023-01-04T14:10:33Z</time>
      </trkpt>
      <trkpt lat="49.9598" lon="2.36033">
        <ele>112</ele>
        <time>2023-01-04T14:10:34Z</time>
      </trkpt>
      <trkpt lat="49.95981" lon="2.36033">
        <ele>112.1</ele>
        <time>2023-01-04T14:10:36Z</time>
      </trkpt>
      <trkpt lat="49.95982" lon="2.36032">
        <ele>112.1</ele>
        <time>2023-01-04T14:10:38Z</time>
      </trkpt>
      <trkpt lat="49.95983" lon="2.36031">
        <ele>112.1</ele>
        <time>2023-01-04T14:10:39Z</time>
      </trkpt>
      <trkpt lat="49.95984" lon="2.3603">
        <ele>112.2</ele>
        <time>2023-01-04T14:10:40Z</time>
      </trkpt>
      <trkpt lat="49.95985" lon="2.36029">
        <ele>112.2</ele>
        <time>2023-01-04T14:10:41Z</time>
      </trkpt>
      <trkpt lat="49.95986" lon="2.36028">
        <ele>112.2</ele>
        <time>2023-01-04T14:10:42Z</time>
      </trkpt>
      <trkpt lat="49.95987" lon="2.36027">
        <ele>112.2</ele>
        <time>2023-01-04T14:10:43Z</time>
      </trkpt>
      <trkpt lat="49.95988" lon="2.36026">
        <ele>112.3</ele>
        <time>2023-01-04T14:10:45Z</time>
      </trkpt>
      <trkpt lat="49.95989" lon="2.36024">
        <ele>112.3</ele>
        <time>2023-01-04T14:10:46Z</time>
      </trkpt>
      <trkpt lat="49.95991" lon="2.36023">
        <ele>112.4</ele>
        <time>2023-01-04T14:10:47Z</time>
      </trkpt>
      <trkpt lat="49.95993" lon="2.36022">
        <ele>112.4</ele>
        <time>2023-01-04T14:10:48Z</time>
      </trkpt>
      <trkpt lat="49.95993" lon="2.36022">
        <ele>112.4</ele>
        <time>2023-01-04T14:10:49Z</time>
      </trkpt>
      <trkpt lat="49.95994" lon="2.36021">
        <ele>112.4</ele>
        <time>2023-01-04T14:10:50Z</time>
      </trkpt>
      <trkpt lat="49.95996" lon="2.36021">
        <ele>112.5</ele>
        <time>2023-01-04T14:10:51Z</time>
      </trkpt>
      <trkpt lat="49.95997" lon="2.36021">
        <ele>112.5</ele>
        <time>2023-01-04T14:10:53Z</time>
      </trkpt>
      <trkpt lat="49.95999" lon="2.3602">
        <ele>112.5</ele>
        <time>2023-01-04T14:10:54Z</time>
      </trkpt>
      <trkpt lat="49.96" lon="2.36019">
        <ele>112.6</ele>
        <time>2023-01-04T14:10:55Z</time>
      </trkpt>
      <trkpt lat="49.96002" lon="2.36018">
        <ele>112.6</ele>
        <time>2023-01-04T14:10:56Z</time>
      </trkpt>
      <trkpt lat="49.96003" lon="2.36017">
        <ele>112.6</ele>
        <time>2023-01-04T14:10:57Z</time>
      </trkpt>
      <trkpt lat="49.96004" lon="2.36017">
        <ele>112.6</ele>
        <time>2023-01-04T14:10:58Z</time>
      </trkpt>
      <trkpt lat="49.96005" lon="2.36016">
        <ele>112.7</ele>
        <time>2023-01-04T14:11:00Z</time>
      </trkpt>
      <trkpt lat="49.96006" lon="2.36016">
        <ele>112.7</ele>
        <time>2023-01-04T14:11:01Z</time>
      </trkpt>
      <trkpt lat="49.96009" lon="2.36015">
        <ele>112.7</ele>
        <time>2023-01-04T14:11:02Z</time>
      </trkpt>
      <trkpt lat="49.96009" lon="2.36015">
        <ele>112.7</ele>
        <time>2023-01-04T14:11:03Z</time>
      </trkpt>
      <trkpt lat="49.9601" lon="2.36014">
        <ele>112.8</ele>
        <time>2023-01-04T14:11:04Z</time>
      </trkpt>
      <trkpt lat="49.96012" lon="2.36013">
        <ele>112.8</ele>
        <time>2023-01-04T14:11:05Z</time>
      </trkpt>
      <trkpt lat="49.96013" lon="2.36013">
        <ele>112.8</ele>
        <time>2023-01-04T14:11:07Z</time>
      </trkpt>
      <trkpt lat="49.96014" lon="2.36013">
        <ele>112.8</ele>
        <time>2023-01-04T14:11:08Z</time>
      </trkpt>
      <trkpt lat="49.96016" lon="2.36012">
        <ele>112.8</ele>
        <time>2023-01-04T14:11:09Z</time>
      </trkpt>
      <trkpt lat="49.96017" lon="2.36012">
        <ele>112.8</ele>
        <time>2023-01-04T14:11:10Z</time>
      </trkpt>
      <trkpt lat="49.96017" lon="2.36011">
        <ele>112.9</ele>
        <time>2023-01-04T14:11:11Z</time>
      </trkpt>
      <trkpt lat="49.96018" lon="2.36011">
        <ele>112.9</ele>
        <time>2023-01-04T14:11:12Z</time>
      </trkpt>
      <trkpt lat="49.96019" lon="2.3601">
        <ele>112.9</ele>
        <time>2023-01-04T14:11:13Z</time>
      </trkpt>
      <trkpt lat="49.9602" lon="2.3601">
        <ele>112.9</ele>
        <time>2023-01-04T14:11:15Z</time>
      </trkpt>
      <trkpt lat="49.96021" lon="2.36009">
        <ele>112.9</ele>
        <time>2023-01-04T14:11:16Z</time>
      </trkpt>
      <trkpt lat="49.96022" lon="2.36009">
        <ele>112.9</ele>
        <time>2023-01-04T14:11:17Z</time>
      </trkpt>
      <trkpt lat="49.96023" lon="2.36009">
        <ele>112.9</ele>
        <time>2023-01-04T14:11:18Z</time>
      </trkpt>
      <trkpt lat="49.96024" lon="2.36008">
        <ele>113</ele>
        <time>2023-01-04T14:11:19Z</time>
      </trkpt>
      <trkpt lat="49.96026" lon="2.36008">
        <ele>113</ele>
        <time>2023-01-04T14:11:20Z</time>
      </trkpt>
      <trkpt lat="49.96027" lon="2.36008">
        <ele>113</ele>
        <time>2023-01-04T14:11:22Z</time>
      </trkpt>
      <trkpt lat="49.96028" lon="2.36008">
        <ele>113</ele>
        <time>2023-01-04T14:11:23Z</time>
      </trkpt>
      <trkpt lat="49.96029" lon="2.36008">
        <ele>113</ele>
        <time>2023-01-04T14:11:24Z</time>
      </trkpt>
      <trkpt lat="49.9603" lon="2.36008">
        <ele>113</ele>
        <time>2023-01-04T14:11:25Z</time>
      </trkpt>
      <trkpt lat="49.96032" lon="2.36007">
        <ele>113.1</ele>
        <time>2023-01-04T14:11:26Z</time>
      </trkpt>
      <trkpt lat="49.96033" lon="2.36007">
        <ele>113.1</ele>
        <time>2023-01-04T14:11:27Z</time>
      </trkpt>
      <trkpt lat="49.96034" lon="2.36007">
        <ele>113.1</ele>
        <time>2023-01-04T14:11:28Z</time>
      </trkpt>
      <trkpt lat="49.96036" lon="2.36007">
        <ele>113.1</ele>
        <time>2023-01-04T14:11:30Z</time>
      </trkpt>
      <trkpt lat="49.96037" lon="2.36007">
        <ele>113.1</ele>
        <time>2023-01-04T14:11:31Z</time>
      </trkpt>
      <trkpt lat="49.96039" lon="2.36007">
        <ele>113.1</ele>
        <time>2023-01-04T14:11:32Z</time>
      </trkpt>
      <trkpt lat="49.9604" lon="2.36007">
        <ele>113.2</ele>
        <time>2023-01-04T14:11:33Z</time>
      </trkpt>
      <trkpt lat="49.96041" lon="2.36007">
        <ele>113.2</ele>
        <time>2023-01-04T14:11:34Z</time>
      </trkpt>
      <trkpt lat="49.96042" lon="2.36007">
        <ele>113.2</ele>
        <time>2023-01-04T14:11:35Z</time>
      </trkpt>
      <trkpt lat="49.96044" lon="2.36007">
        <ele>113.2</ele>
        <time>2023-01-04T14:11:36Z</time>
      </trkpt>
      <trkpt lat="49.96045" lon="2.36007">
        <ele>113.2</ele>
        <time>2023-01-04T14:11:38Z</time>
      </trkpt>
      <trkpt lat="49.96047" lon="2.36006">
        <ele>113.3</ele>
        <time>2023-01-04T14:11:39Z</time>
      </trkpt>
      <trkpt lat="49.96048" lon="2.36006">
        <ele>113.3</ele>
        <time>2023-01-04T14:11:40Z</time>
      </trkpt>
      <trkpt lat="49.96049" lon="2.36007">
        <ele>113.3</ele>
        <time>2023-01-04T14:11:41Z</time>
      </trkpt>
      <trkpt lat="49.96051" lon="2.36006">
        <ele>113.3</ele>
        <time>2023-01-04T14:11:42Z</time>
      </trkpt>
      <trkpt lat="49.96052" lon="2.36006">
        <ele>113.3</ele>
        <time>2023-01-04T14:11:43Z</time>
      </trkpt>
      <trkpt lat="49.96053" lon="2.36006">
        <ele>113.3</ele>
        <time>2023-01-04T14:11:44Z</time>
      </trkpt>
      <trkpt lat="49.96054" lon="2.36006">
        <ele>113.4</ele>
        <time>2023-01-04T14:11:46Z</time>
      </trkpt>
      <trkpt lat="49.96057" lon="2.36006">
        <ele>113.4</ele>
        <time>2023-01-04T14:11:47Z</time>
      </trkpt>
      <trkpt lat="49.96057" lon="2.36006">
        <ele>113.4</ele>
        <time>2023-01-04T14:11:48Z</time>
      </trkpt>
      <trkpt lat="49.96058" lon="2.36006">
        <ele>113.4</ele>
        <time>2023-01-04T14:11:49Z</time>
      </trkpt>
      <trkpt lat="49.9606" lon="2.36006">
        <ele>113.4</ele>
        <time>2023-01-04T14:11:50Z</time>
      </trkpt>
      <trkpt lat="49.96061" lon="2.36005">
        <ele>113.4</ele>
        <time>2023-01-04T14:11:51Z</time>
      </trkpt>
      <trkpt lat="49.96063" lon="2.36005">
        <ele>113.5</ele>
        <time>2023-01-04T14:11:53Z</time>
      </trkpt>
      <trkpt lat="49.96064" lon="2.36005">
        <ele>113.5</ele>
        <time>2023-01-04T14:11:54Z</time>
      </trkpt>
      <trkpt lat="49.96065" lon="2.36005">
        <ele>113.5</ele>
        <time>2023-01-04T14:11:55Z</time>
      </trkpt>
      <trkpt lat="49.96067" lon="2.36004">
        <ele>113.5</ele>
        <time>2023-01-04T14:11:56Z</time>
      </trkpt>
      <trkpt lat="49.96068" lon="2.36004">
        <ele>113.5</ele>
        <time>2023-01-04T14:11:57Z</time>
      </trkpt>
      <trkpt lat="49.96069" lon="2.36004">
        <ele>113.5</ele>
        <time>2023-01-04T14:11:58Z</time>
      </trkpt>
      <trkpt lat="49.96071" lon="2.36003">
        <ele>113.6</ele>
        <time>2023-01-04T14:11:59Z</time>
      </trkpt>
      <trkpt lat="49.96072" lon="2.36003">
        <ele>113.6</ele>
        <time>2023-01-04T14:12:01Z</time>
      </trkpt>
      <trkpt lat="49.96073" lon="2.36003">
        <ele>113.6</ele>
        <time>2023-01-04T14:12:02Z</time>
      </trkpt>
      <trkpt lat="49.96074" lon="2.36003">
        <ele>113.6</ele>
        <time>2023-01-04T14:12:03Z</time>
      </trkpt>
      <trkpt lat="49.96075" lon="2.36003">
        <ele>113.6</ele>
        <time>2023-01-04T14:12:04Z</time>
      </trkpt>
      <trkpt lat="49.96076" lon="2.36002">
        <ele>113.6</ele>
        <time>2023-01-04T14:12:05Z</time>
      </trkpt>
      <trkpt lat="49.96076" lon="2.36002">
        <ele>113.6</ele>
        <time>2023-01-04T14:12:06Z</time>
      </trkpt>
      <trkpt lat="49.96078" lon="2.36002">
        <ele>113.6</ele>
        <time>2023-01-04T14:12:07Z</time>
      </trkpt>
      <trkpt lat="49.96079" lon="2.36002">
        <ele>113.7</ele>
        <time>2023-01-04T14:12:08Z</time>
      </trkpt>
      <trkpt lat="49.96081" lon="2.36002">
        <ele>113.7</ele>
        <time>2023-01-04T14:12:10Z</time>
      </trkpt>
      <trkpt lat="49.96082" lon="2.36002">
        <ele>113.7</ele>
        <time>2023-01-04T14:12:11Z</time>
      </trkpt>
      <trkpt lat="49.96083" lon="2.36002">
        <ele>113.7</ele>
        <time>2023-01-04T14:12:12Z</time>
      </trkpt>
      <trkpt lat="49.96084" lon="2.36002">
        <ele>113.7</ele>
        <time>2023-01-04T14:12:13Z</time>
      </trkpt>
      <trkpt lat="49.96085" lon="2.36002">
        <ele>113.7</ele>
        <time>2023-01-04T14:12:14Z</time>
      </trkpt>
      <trkpt lat="49.96086" lon="2.36001">
        <ele>113.7</ele>
        <time>2023-01-04T14:12:15Z</time>
      </trkpt>
      <trkpt lat="49.96088" lon="2.36001">
        <ele>113.7</ele>
        <time>2023-01-04T14:12:16Z</time>
      </trkpt>
      <trkpt lat="49.96089" lon="2.36001">
        <ele>113.8</ele>
        <time>2023-01-04T14:12:18Z</time>
      </trkpt>
      <trkpt lat="49.9609" lon="2.36001">
        <ele>113.8</ele>
        <time>2023-01-04T14:12:19Z</time>
      </trkpt>
      <trkpt lat="49.96091" lon="2.36001">
        <ele>113.8</ele>
        <time>2023-01-04T14:12:20Z</time>
      </trkpt>
      <trkpt lat="49.96092" lon="2.36001">
        <ele>113.8</ele>
        <time>2023-01-04T14:12:21Z</time>
      </trkpt>
      <trkpt lat="49.96093" lon="2.36">
        <ele>113.8</ele>
        <time>2023-01-04T14:12:22Z</time>
      </trkpt>
      <trkpt lat="49.96095" lon="2.35999">
        <ele>113.8</ele>
        <time>2023-01-04T14:12:23Z</time>
      </trkpt>
      <trkpt lat="49.96096" lon="2.35999">
        <ele>113.8</ele>
        <time>2023-01-04T14:12:24Z</time>
      </trkpt>
      <trkpt lat="49.96097" lon="2.35998">
        <ele>113.8</ele>
        <time>2023-01-04T14:12:26Z</time>
      </trkpt>
      <trkpt lat="49.96098" lon="2.35998">
        <ele>113.8</ele>
        <time>2023-01-04T14:12:27Z</time>
      </trkpt>
      <trkpt lat="49.96099" lon="2.35998">
        <ele>113.8</ele>
        <time>2023-01-04T14:12:28Z</time>
      </trkpt>
      <trkpt lat="49.961" lon="2.35997">
        <ele>113.9</ele>
        <time>2023-01-04T14:12:29Z</time>
      </trkpt>
      <trkpt lat="49.96101" lon="2.35997">
        <ele>113.9</ele>
        <time>2023-01-04T14:12:30Z</time>
      </trkpt>
      <trkpt lat="49.96102" lon="2.35997">
        <ele>113.9</ele>
        <time>2023-01-04T14:12:31Z</time>
      </trkpt>
      <trkpt lat="49.96103" lon="2.35997">
        <ele>113.9</ele>
        <time>2023-01-04T14:12:32Z</time>
      </trkpt>
      <trkpt lat="49.96104" lon="2.35996">
        <ele>113.9</ele>
        <time>2023-01-04T14:12:33Z</time>
      </trkpt>
      <trkpt lat="49.96105" lon="2.35996">
        <ele>113.9</ele>
        <time>2023-01-04T14:12:34Z</time>
      </trkpt>
      <trkpt lat="49.96107" lon="2.35996">
        <ele>113.9</ele>
        <time>2023-01-04T14:12:35Z</time>
      </trkpt>
      <trkpt lat="49.96108" lon="2.35996">
        <ele>113.9</ele>
        <time>2023-01-04T14:12:36Z</time>
      </trkpt>
      <trkpt lat="49.96109" lon="2.35996">
        <ele>113.9</ele>
        <time>2023-01-04T14:12:37Z</time>
      </trkpt>
      <trkpt lat="49.96111" lon="2.35996">
        <ele>114</ele>
        <time>2023-01-04T14:12:39Z</time>
      </trkpt>
      <trkpt lat="49.96113" lon="2.35995">
        <ele>114</ele>
        <time>2023-01-04T14:12:40Z</time>
      </trkpt>
      <trkpt lat="49.96114" lon="2.35995">
        <ele>114</ele>
        <time>2023-01-04T14:12:41Z</time>
      </trkpt>
      <trkpt lat="49.96114" lon="2.35995">
        <ele>114</ele>
        <time>2023-01-04T14:12:42Z</time>
      </trkpt>
      <trkpt lat="49.96115" lon="2.35995">
        <ele>114</ele>
        <time>2023-01-04T14:12:43Z</time>
      </trkpt>
      <trkpt lat="49.96116" lon="2.35995">
        <ele>114</ele>
        <time>2023-01-04T14:12:44Z</time>
      </trkpt>
      <trkpt lat="49.96117" lon="2.35995">
        <ele>114</ele>
        <time>2023-01-04T14:12:45Z</time>
      </trkpt>
      <trkpt lat="49.96119" lon="2.35994">
        <ele>114</ele>
        <time>2023-01-04T14:12:47Z</time>
      </trkpt>
      <trkpt lat="49.9612" lon="2.35994">
        <ele>114</ele>
        <time>2023-01-04T14:12:48Z</time>
      </trkpt>
      <trkpt lat="49.96121" lon="2.35994">
        <ele>114.1</ele>
        <time>2023-01-04T14:12:49Z</time>
      </trkpt>
      <trkpt lat="49.96122" lon="2.35993">
        <ele>114.1</ele>
        <time>2023-01-04T14:12:50Z</time>
      </trkpt>
      <trkpt lat="49.96123" lon="2.35993">
        <ele>114.1</ele>
        <time>2023-01-04T14:12:51Z</time>
      </trkpt>
      <trkpt lat="49.96125" lon="2.35992">
        <ele>114.1</ele>
        <time>2023-01-04T14:12:52Z</time>
      </trkpt>
      <trkpt lat="49.96126" lon="2.35992">
        <ele>114.1</ele>
        <time>2023-01-04T14:12:53Z</time>
      </trkpt>
      <trkpt lat="49.96127" lon="2.35992">
        <ele>114.1</ele>
        <time>2023-01-04T14:12:54Z</time>
      </trkpt>
      <trkpt lat="49.96128" lon="2.35992">
        <ele>114.1</ele>
        <time>2023-01-04T14:12:56Z</time>
      </trkpt>
      <trkpt lat="49.96129" lon="2.35992">
        <ele>114.1</ele>
        <time>2023-01-04T14:12:57Z</time>
      </trkpt>
      <trkpt lat="49.96131" lon="2.35992">
        <ele>114.1</ele>
        <time>2023-01-04T14:12:58Z</time>
      </trkpt>
      <trkpt lat="49.96132" lon="2.35992">
        <ele>114.1</ele>
        <time>2023-01-04T14:12:59Z</time>
      </trkpt>
      <trkpt lat="49.96133" lon="2.35992">
        <ele>114.2</ele>
        <time>2023-01-04T14:13:00Z</time>
      </trkpt>
      <trkpt lat="49.96134" lon="2.35992">
        <ele>114.2</ele>
        <time>2023-01-04T14:13:01Z</time>
      </trkpt>
      <trkpt lat="49.96136" lon="2.35993">
        <ele>114.2</ele>
        <time>2023-01-04T14:13:02Z</time>
      </trkpt>
      <trkpt lat="49.96138" lon="2.35993">
        <ele>114.2</ele>
        <time>2023-01-04T14:13:04Z</time>
      </trkpt>
      <trkpt lat="49.96139" lon="2.35993">
        <ele>114.2</ele>
        <time>2023-01-04T14:13:05Z</time>
      </trkpt>
      <trkpt lat="49.96139" lon="2.35993">
        <ele>114.2</ele>
        <time>2023-01-04T14:13:06Z</time>
      </trkpt>
      <trkpt lat="49.96141" lon="2.35993">
        <ele>114.2</ele>
        <time>2023-01-04T14:13:07Z</time>
      </trkpt>
      <trkpt lat="49.96142" lon="2.35993">
        <ele>114.2</ele>
        <time>2023-01-04T14:13:08Z</time>
      </trkpt>
      <trkpt lat="49.96143" lon="2.35993">
        <ele>114.2</ele>
        <time>2023-01-04T14:13:09Z</time>
      </trkpt>
      <trkpt lat="49.96145" lon="2.35993">
        <ele>114.2</ele>
        <time>2023-01-04T14:13:10Z</time>
      </trkpt>
      <trkpt lat="49.96146" lon="2.35992">
        <ele>114.3</ele>
        <time>2023-01-04T14:13:11Z</time>
      </trkpt>
      <trkpt lat="49.96147" lon="2.35992">
        <ele>114.3</ele>
        <time>2023-01-04T14:13:12Z</time>
      </trkpt>
      <trkpt lat="49.96148" lon="2.35992">
        <ele>114.3</ele>
        <time>2023-01-04T14:13:13Z</time>
      </trkpt>
      <trkpt lat="49.9615" lon="2.35992">
        <ele>114.3</ele>
        <time>2023-01-04T14:13:14Z</time>
      </trkpt>
      <trkpt lat="49.96151" lon="2.35991">
        <ele>114.3</ele>
        <time>2023-01-04T14:13:16Z</time>
      </trkpt>
      <trkpt lat="49.96153" lon="2.35991">
        <ele>114.3</ele>
        <time>2023-01-04T14:13:17Z</time>
      </trkpt>
      <trkpt lat="49.96154" lon="2.35991">
        <ele>114.3</ele>
        <time>2023-01-04T14:13:18Z</time>
      </trkpt>
      <trkpt lat="49.96155" lon="2.35991">
        <ele>114.3</ele>
        <time>2023-01-04T14:13:19Z</time>
      </trkpt>
      <trkpt lat="49.96156" lon="2.35991">
        <ele>114.3</ele>
        <time>2023-01-04T14:13:20Z</time>
      </trkpt>
      <trkpt lat="49.96157" lon="2.35991">
        <ele>114.3</ele>
        <time>2023-01-04T14:13:21Z</time>
      </trkpt>
      <trkpt lat="49.9616" lon="2.35992">
        <ele>114.3</ele>
        <time>2023-01-04T14:13:22Z</time>
      </trkpt>
      <trkpt lat="49.96161" lon="2.35992">
        <ele>114.3</ele>
        <time>2023-01-04T14:13:24Z</time>
      </trkpt>
      <trkpt lat="49.96161" lon="2.35992">
        <ele>114.3</ele>
        <time>2023-01-04T14:13:25Z</time>
      </trkpt>
      <trkpt lat="49.96163" lon="2.35992">
        <ele>114.3</ele>
        <time>2023-01-04T14:13:26Z</time>
      </trkpt>
      <trkpt lat="49.96164" lon="2.35992">
        <ele>114.3</ele>
        <time>2023-01-04T14:13:27Z</time>
      </trkpt>
      <trkpt lat="49.96165" lon="2.35993">
        <ele>114.3</ele>
        <time>2023-01-04T14:13:28Z</time>
      </trkpt>
      <trkpt lat="49.96166" lon="2.35993">
        <ele>114.3</ele>
        <time>2023-01-04T14:13:29Z</time>
      </trkpt>
      <trkpt lat="49.96168" lon="2.35993">
        <ele>114.4</ele>
        <time>2023-01-04T14:13:30Z</time>
      </trkpt>
      <trkpt lat="49.9617" lon="2.35992">
        <ele>114.4</ele>
        <time>2023-01-04T14:13:31Z</time>
      </trkpt>
      <trkpt lat="49.9617" lon="2.35992">
        <ele>114.4</ele>
        <time>2023-01-04T14:13:33Z</time>
      </trkpt>
      <trkpt lat="49.96171" lon="2.35992">
        <ele>114.4</ele>
        <time>2023-01-04T14:13:34Z</time>
      </trkpt>
      <trkpt lat="49.96173" lon="2.35992">
        <ele>114.4</ele>
        <time>2023-01-04T14:13:35Z</time>
      </trkpt>
      <trkpt lat="49.96174" lon="2.35992">
        <ele>114.4</ele>
        <time>2023-01-04T14:13:36Z</time>
      </trkpt>
      <trkpt lat="49.96175" lon="2.35992">
        <ele>114.4</ele>
        <time>2023-01-04T14:13:37Z</time>
      </trkpt>
      <trkpt lat="49.96176" lon="2.35992">
        <ele>114.4</ele>
        <time>2023-01-04T14:13:38Z</time>
      </trkpt>
      <trkpt lat="49.96177" lon="2.35992">
        <ele>114.4</ele>
        <time>2023-01-04T14:13:39Z</time>
      </trkpt>
      <trkpt lat="49.96178" lon="2.35992">
        <ele>114.4</ele>
        <time>2023-01-04T14:13:40Z</time>
      </trkpt>
      <trkpt lat="49.96181" lon="2.35992">
        <ele>114.4</ele>
        <time>2023-01-04T14:13:41Z</time>
      </trkpt>
      <trkpt lat="49.96182" lon="2.35992">
        <ele>114.4</ele>
        <time>2023-01-04T14:13:43Z</time>
      </trkpt>
      <trkpt lat="49.96183" lon="2.35992">
        <ele>114.4</ele>
        <time>2023-01-04T14:13:44Z</time>
      </trkpt>
      <trkpt lat="49.96184" lon="2.35992">
        <ele>114.4</ele>
        <time>2023-01-04T14:13:45Z</time>
      </trkpt>
      <trkpt lat="49.96185" lon="2.35992">
        <ele>114.4</ele>
        <time>2023-01-04T14:13:46Z</time>
      </trkpt>
      <trkpt lat="49.96187" lon="2.35991">
        <ele>114.4</ele>
        <time>2023-01-04T14:13:47Z</time>
      </trkpt>
      <trkpt lat="49.96188" lon="2.35991">
        <ele>114.4</ele>
        <time>2023-01-04T14:13:48Z</time>
      </trkpt>
      <trkpt lat="49.96189" lon="2.35991">
        <ele>114.4</ele>
        <time>2023-01-04T14:13:49Z</time>
      </trkpt>
      <trkpt lat="49.96191" lon="2.35992">
        <ele>114.4</ele>
        <time>2023-01-04T14:13:50Z</time>
      </trkpt>
      <trkpt lat="49.96192" lon="2.35992">
        <ele>114.4</ele>
        <time>2023-01-04T14:13:51Z</time>
      </trkpt>
      <trkpt lat="49.96193" lon="2.35992">
        <ele>114.5</ele>
        <time>2023-01-04T14:13:52Z</time>
      </trkpt>
      <trkpt lat="49.96195" lon="2.35992">
        <ele>114.5</ele>
        <time>2023-01-04T14:13:54Z</time>
      </trkpt>
      <trkpt lat="49.96196" lon="2.35992">
        <ele>114.5</ele>
        <time>2023-01-04T14:13:55Z</time>
      </trkpt>
      <trkpt lat="49.96197" lon="2.35992">
        <ele>114.5</ele>
        <time>2023-01-04T14:13:56Z</time>
      </trkpt>
      <trkpt lat="49.96199" lon="2.35992">
        <ele>114.5</ele>
        <time>2023-01-04T14:13:57Z</time>
      </trkpt>
      <trkpt lat="49.962" lon="2.35992">
        <ele>114.5</ele>
        <time>2023-01-04T14:13:58Z</time>
      </trkpt>
      <trkpt lat="49.96201" lon="2.35992">
        <ele>114.5</ele>
        <time>2023-01-04T14:13:59Z</time>
      </trkpt>
      <trkpt lat="49.96202" lon="2.35992">
        <ele>114.5</ele>
        <time>2023-01-04T14:14:00Z</time>
      </trkpt>
      <trkpt lat="49.96203" lon="2.35992">
        <ele>114.5</ele>
        <time>2023-01-04T14:14:01Z</time>
      </trkpt>
      <trkpt lat="49.96205" lon="2.35992">
        <ele>114.5</ele>
        <time>2023-01-04T14:14:03Z</time>
      </trkpt>
      <trkpt lat="49.96207" lon="2.35992">
        <ele>114.5</ele>
        <time>2023-01-04T14:14:04Z</time>
      </trkpt>
      <trkpt lat="49.96208" lon="2.35992">
        <ele>114.5</ele>
        <time>2023-01-04T14:14:05Z</time>
      </trkpt>
      <trkpt lat="49.96208" lon="2.35992">
        <ele>114.5</ele>
        <time>2023-01-04T14:14:06Z</time>
      </trkpt>
      <trkpt lat="49.9621" lon="2.35992">
        <ele>114.5</ele>
        <time>2023-01-04T14:14:07Z</time>
      </trkpt>
      <trkpt lat="49.96211" lon="2.35992">
        <ele>114.5</ele>
        <time>2023-01-04T14:14:08Z</time>
      </trkpt>
      <trkpt lat="49.96212" lon="2.35991">
        <ele>114.5</ele>
        <time>2023-01-04T14:14:09Z</time>
      </trkpt>
      <trkpt lat="49.96214" lon="2.35991">
        <ele>114.6</ele>
        <time>2023-01-04T14:14:10Z</time>
      </trkpt>
      <trkpt lat="49.96215" lon="2.35991">
        <ele>114.6</ele>
        <time>2023-01-04T14:14:12Z</time>
      </trkpt>
      <trkpt lat="49.96216" lon="2.35991">
        <ele>114.6</ele>
        <time>2023-01-04T14:14:13Z</time>
      </trkpt>
      <trkpt lat="49.96217" lon="2.3599">
        <ele>114.6</ele>
        <time>2023-01-04T14:14:14Z</time>
      </trkpt>
      <trkpt lat="49.96218" lon="2.3599">
        <ele>114.6</ele>
        <time>2023-01-04T14:14:15Z</time>
      </trkpt>
      <trkpt lat="49.96219" lon="2.3599">
        <ele>114.6</ele>
        <time>2023-01-04T14:14:16Z</time>
      </trkpt>
      <trkpt lat="49.96221" lon="2.3599">
        <ele>114.6</ele>
        <time>2023-01-04T14:14:17Z</time>
      </trkpt>
      <trkpt lat="49.96222" lon="2.35989">
        <ele>114.6</ele>
        <time>2023-01-04T14:14:18Z</time>
      </trkpt>
      <trkpt lat="49.96223" lon="2.35989">
        <ele>114.6</ele>
        <time>2023-01-04T14:14:19Z</time>
      </trkpt>
      <trkpt lat="49.96224" lon="2.35989">
        <ele>114.6</ele>
        <time>2023-01-04T14:14:21Z</time>
      </trkpt>
      <trkpt lat="49.96225" lon="2.35989">
        <ele>114.6</ele>
        <time>2023-01-04T14:14:22Z</time>
      </trkpt>
      <trkpt lat="49.96226" lon="2.35989">
        <ele>114.6</ele>
        <time>2023-01-04T14:14:23Z</time>
      </trkpt>
      <trkpt lat="49.96227" lon="2.35988">
        <ele>114.6</ele>
        <time>2023-01-04T14:14:24Z</time>
      </trkpt>
      <trkpt lat="49.96228" lon="2.35988">
        <ele>114.6</ele>
        <time>2023-01-04T14:14:25Z</time>
      </trkpt>
      <trkpt lat="49.96229" lon="2.35988">
        <ele>114.6</ele>
        <time>2023-01-04T14:14:26Z</time>
      </trkpt>
      <trkpt lat="49.9623" lon="2.35988">
        <ele>114.6</ele>
        <time>2023-01-04T14:14:28Z</time>
      </trkpt>
      <trkpt lat="49.96231" lon="2.35988">
        <ele>114.6</ele>
        <time>2023-01-04T14:14:29Z</time>
      </trkpt>
      <trkpt lat="49.96231" lon="2.35988">
        <ele>114.5</ele>
        <time>2023-01-04T14:14:30Z</time>
      </trkpt>
      <trkpt lat="49.96232" lon="2.35988">
        <ele>114.5</ele>
        <time>2023-01-04T14:14:31Z</time>
      </trkpt>
      <trkpt lat="49.96231" lon="2.35989">
        <ele>114.5</ele>
        <time>2023-01-04T14:14:33Z</time>
      </trkpt>
      <trkpt lat="49.9623" lon="2.35989">
        <ele>114.5</ele>
        <time>2023-01-04T14:14:34Z</time>
      </trkpt>
      <trkpt lat="49.96229" lon="2.3599">
        <ele>114.5</ele>
        <time>2023-01-04T14:14:35Z</time>
      </trkpt>
      <trkpt lat="49.96226" lon="2.35991">
        <ele>114.5</ele>
        <time>2023-01-04T14:14:37Z</time>
      </trkpt>
      <trkpt lat="49.96225" lon="2.35991">
        <ele>114.5</ele>
        <time>2023-01-04T14:14:38Z</time>
      </trkpt>
      <trkpt lat="49.96223" lon="2.35993">
        <ele>114.4</ele>
        <time>2023-01-04T14:14:40Z</time>
      </trkpt>
      <trkpt lat="49.96223" lon="2.35993">
        <ele>114.4</ele>
        <time>2023-01-04T14:14:41Z</time>
      </trkpt>
      <trkpt lat="49.96222" lon="2.35994">
        <ele>114.4</ele>
        <time>2023-01-04T14:14:42Z</time>
      </trkpt>
      <trkpt lat="49.96222" lon="2.35994">
        <ele>114.4</ele>
        <time>2023-01-04T14:14:44Z</time>
      </trkpt>
      <trkpt lat="49.96222" lon="2.35994">
        <ele>114.4</ele>
        <time>2023-01-04T14:14:45Z</time>
      </trkpt>
      <trkpt lat="49.96222" lon="2.35993">
        <ele>114.4</ele>
        <time>2023-01-04T14:14:46Z</time>
      </trkpt>
      <trkpt lat="49.96223" lon="2.35993">
        <ele>114.4</ele>
        <time>2023-01-04T14:14:48Z</time>
      </trkpt>
      <trkpt lat="49.96223" lon="2.35993">
        <ele>114.4</ele>
        <time>2023-01-04T14:14:49Z</time>
      </trkpt>
      <trkpt lat="49.96223" lon="2.35993">
        <ele>114.4</ele>
        <time>2023-01-04T14:14:50Z</time>
      </trkpt>
      <trkpt lat="49.96223" lon="2.35993">
        <ele>114.4</ele>
        <time>2023-01-04T14:14:52Z</time>
      </trkpt>
      <trkpt lat="49.96223" lon="2.35992">
        <ele>114.4</ele>
        <time>2023-01-04T14:14:53Z</time>
      </trkpt>
      <trkpt lat="49.96223" lon="2.35992">
        <ele>114.4</ele>
        <time>2023-01-04T14:14:54Z</time>
      </trkpt>
      <trkpt lat="49.96223" lon="2.35992">
        <ele>114.4</ele>
        <time>2023-01-04T14:14:55Z</time>
      </trkpt>
      <trkpt lat="49.96224" lon="2.35992">
        <ele>114.4</ele>
        <time>2023-01-04T14:14:56Z</time>
      </trkpt>
      <trkpt lat="49.96224" lon="2.35992">
        <ele>114.4</ele>
        <time>2023-01-04T14:14:57Z</time>
      </trkpt>
      <trkpt lat="49.96224" lon="2.35992">
        <ele>114.4</ele>
        <time>2023-01-04T14:14:58Z</time>
      </trkpt>
      <trkpt lat="49.96224" lon="2.35991">
        <ele>114.4</ele>
        <time>2023-01-04T14:14:59Z</time>
      </trkpt>
      <trkpt lat="49.96224" lon="2.35991">
        <ele>114.4</ele>
        <time>2023-01-04T14:15:00Z</time>
      </trkpt>
      <trkpt lat="49.96224" lon="2.35991">
        <ele>114.4</ele>
        <time>2023-01-04T14:15:01Z</time>
      </trkpt>
      <trkpt lat="49.96224" lon="2.35991">
        <ele>114.4</ele>
        <time>2023-01-04T14:15:02Z</time>
      </trkpt>
      <trkpt lat="49.96225" lon="2.35991">
        <ele>114.4</ele>
        <time>2023-01-04T14:15:03Z</time>
      </trkpt>
      <trkpt lat="49.96225" lon="2.3599">
        <ele>114.4</ele>
        <time>2023-01-04T14:15:04Z</time>
      </trkpt>
      <trkpt lat="49.96225" lon="2.3599">
        <ele>114.4</ele>
        <time>2023-01-04T14:15:05Z</time>
      </trkpt>
      <trkpt lat="49.96225" lon="2.3599">
        <ele>114.4</ele>
        <time>2023-01-04T14:15:06Z</time>
      </trkpt>
      <trkpt lat="49.96225" lon="2.3599">
        <ele>114.4</ele>
        <time>2023-01-04T14:15:07Z</time>
      </trkpt>
      <trkpt lat="49.96225" lon="2.3599">
        <ele>114.4</ele>
        <time>2023-01-04T14:15:08Z</time>
      </trkpt>
      <trkpt lat="49.96225" lon="2.35989">
        <ele>114.4</ele>
        <time>2023-01-04T14:15:09Z</time>
      </trkpt>
      <trkpt lat="49.96226" lon="2.35989">
        <ele>114.4</ele>
        <time>2023-01-04T14:15:10Z</time>
      </trkpt>
      <trkpt lat="49.96226" lon="2.35989">
        <ele>114.4</ele>
        <time>2023-01-04T14:15:11Z</time>
      </trkpt>
      <trkpt lat="49.96226" lon="2.35989">
        <ele>114.4</ele>
        <time>2023-01-04T14:15:12Z</time>
      </trkpt>
      <trkpt lat="49.96228" lon="2.35987">
        <ele>114.4</ele>
        <time>2023-01-04T14:15:13Z</time>
      </trkpt>
      <trkpt lat="49.96229" lon="2.35987">
        <ele>114.4</ele>
        <time>2023-01-04T14:15:14Z</time>
      </trkpt>
      <trkpt lat="49.9623" lon="2.35988">
        <ele>114.3</ele>
        <time>2023-01-04T14:15:15Z</time>
      </trkpt>
      <trkpt lat="49.9623" lon="2.35989">
        <ele>114.3</ele>
        <time>2023-01-04T14:15:16Z</time>
      </trkpt>
      <trkpt lat="49.9623" lon="2.3599">
        <ele>114.3</ele>
        <time>2023-01-04T14:15:17Z</time>
      </trkpt>
      <trkpt lat="49.9623" lon="2.35991">
        <ele>114.3</ele>
        <time>2023-01-04T14:15:18Z</time>
      </trkpt>
      <trkpt lat="49.9623" lon="2.35991">
        <ele>114.3</ele>
        <time>2023-01-04T14:15:19Z</time>
      </trkpt>
      <trkpt lat="49.96229" lon="2.35992">
        <ele>114.3</ele>
        <time>2023-01-04T14:15:20Z</time>
      </trkpt>
      <trkpt lat="49.96229" lon="2.35992">
        <ele>114.3</ele>
        <time>2023-01-04T14:15:21Z</time>
      </trkpt>
      <trkpt lat="49.96229" lon="2.35992">
        <ele>114.3</ele>
        <time>2023-01-04T14:15:22Z</time>
      </trkpt>
      <trkpt lat="49.96229" lon="2.35992">
        <ele>114.3</ele>
        <time>2023-01-04T14:15:23Z</time>
      </trkpt>
      <trkpt lat="49.96229" lon="2.35992">
        <ele>114.3</ele>
        <time>2023-01-04T14:15:24Z</time>
      </trkpt>
      <trkpt lat="49.96229" lon="2.35992">
        <ele>114.3</ele>
        <time>2023-01-04T14:15:25Z</time>
      </trkpt>
      <trkpt lat="49.96229" lon="2.35992">
        <ele>114.3</ele>
        <time>2023-01-04T14:15:26Z</time>
      </trkpt>
      <trkpt lat="49.96229" lon="2.35992">
        <ele>114.3</ele>
        <time>2023-01-04T14:15:27Z</time>
      </trkpt>
      <trkpt lat="49.96229" lon="2.35992">
        <ele>114.3</ele>
        <time>2023-01-04T14:15:28Z</time>
      </trkpt>
      <trkpt lat="49.96229" lon="2.35992">
        <ele>114.3</ele>
        <time>2023-01-04T14:15:29Z</time>
      </trkpt>
      <trkpt lat="49.96229" lon="2.35992">
        <ele>114.3</ele>
        <time>2023-01-04T14:15:30Z</time>
      </trkpt>
      <trkpt lat="49.96229" lon="2.35992">
        <ele>114.3</ele>
        <time>2023-01-04T14:15:31Z</time>
      </trkpt>
      <trkpt lat="49.96229" lon="2.35992">
        <ele>114.3</ele>
        <time>2023-01-04T14:15:32Z</time>
      </trkpt>
      <trkpt lat="49.96229" lon="2.35992">
        <ele>114.3</ele>
        <time>2023-01-04T14:15:33Z</time>
      </trkpt>
      <trkpt lat="49.96229" lon="2.35992">
        <ele>114.3</ele>
        <time>2023-01-04T14:15:34Z</time>
      </trkpt>
      <trkpt lat="49.96229" lon="2.35992">
        <ele>114.3</ele>
        <time>2023-01-04T14:15:35Z</time>
      </trkpt>
      <trkpt lat="49.96229" lon="2.35992">
        <ele>114.3</ele>
        <time>2023-01-04T14:15:36Z</time>
      </trkpt>
      <trkpt lat="49.96229" lon="2.35992">
        <ele>114.3</ele>
        <time>2023-01-04T14:15:37Z</time>
      </trkpt>
      <trkpt lat="49.96229" lon="2.35992">
        <ele>114.3</ele>
        <time>2023-01-04T14:15:38Z</time>
      </trkpt>
      <trkpt lat="49.96229" lon="2.35992">
        <ele>114.3</ele>
        <time>2023-01-04T14:15:39Z</time>
      </trkpt>
      <trkpt lat="49.96229" lon="2.35992">
        <ele>114.3</ele>
        <time>2023-01-04T14:15:40Z</time>
      </trkpt>
      <trkpt lat="49.96229" lon="2.35992">
        <ele>114.3</ele>
        <time>2023-01-04T14:15:41Z</time>
      </trkpt>
      <trkpt lat="49.96229" lon="2.35992">
        <ele>114.3</ele>
        <time>2023-01-04T14:15:42Z</time>
      </trkpt>
      <trkpt lat="49.96229" lon="2.35992">
        <ele>114.3</ele>
        <time>2023-01-04T14:15:43Z</time>
      </trkpt>
      <trkpt lat="49.96229" lon="2.35992">
        <ele>114.3</ele>
        <time>2023-01-04T14:15:44Z</time>
      </trkpt>
      <trkpt lat="49.96229" lon="2.35992">
        <ele>114.3</ele>
        <time>2023-01-04T14:15:45Z</time>
      </trkpt>
      <trkpt lat="49.96229" lon="2.35992">
        <ele>114.3</ele>
        <time>2023-01-04T14:15:46Z</time>
      </trkpt>
      <trkpt lat="49.96229" lon="2.35992">
        <ele>114.3</ele>
        <time>2023-01-04T14:15:47Z</time>
      </trkpt>
      <trkpt lat="49.96229" lon="2.35992">
        <ele>114.3</ele>
        <time>2023-01-04T14:15:48Z</time>
      </trkpt>
      <trkpt lat="49.96229" lon="2.35992">
        <ele>114.3</ele>
        <time>2023-01-04T14:15:49Z</time>
      </trkpt>
      <trkpt lat="49.96229" lon="2.35992">
        <ele>114.3</ele>
        <time>2023-01-04T14:15:50Z</time>
      </trkpt>
      <trkpt lat="49.96229" lon="2.35992">
        <ele>114.3</ele>
        <time>2023-01-04T14:15:51Z</time>
      </trkpt>
      <trkpt lat="49.96229" lon="2.35992">
        <ele>114.3</ele>
        <time>2023-01-04T14:15:52Z</time>
      </trkpt>
      <trkpt lat="49.96229" lon="2.35992">
        <ele>114.3</ele>
        <time>2023-01-04T14:15:53Z</time>
      </trkpt>
      <trkpt lat="49.96229" lon="2.35992">
        <ele>114.3</ele>
        <time>2023-01-04T14:15:54Z</time>
      </trkpt>
      <trkpt lat="49.96229" lon="2.35992">
        <ele>114.3</ele>
        <time>2023-01-04T14:15:55Z</time>
      </trkpt>
      <trkpt lat="49.96229" lon="2.35992">
        <ele>114.3</ele>
        <time>2023-01-04T14:15:56Z</time>
      </trkpt>
      <trkpt lat="49.96229" lon="2.35992">
        <ele>114.3</ele>
        <time>2023-01-04T14:15:57Z</time>
      </trkpt>
      <trkpt lat="49.96229" lon="2.35992">
        <ele>114.3</ele>
        <time>2023-01-04T14:15:58Z</time>
      </trkpt>
      <trkpt lat="49.96229" lon="2.35992">
        <ele>114.3</ele>
        <time>2023-01-04T14:15:59Z</time>
      </trkpt>
      <trkpt lat="49.96229" lon="2.35992">
        <ele>114.3</ele>
        <time>2023-01-04T14:16:00Z</time>
      </trkpt>
      <trkpt lat="49.96229" lon="2.35992">
        <ele>114.3</ele>
        <time>2023-01-04T14:16:01Z</time>
      </trkpt>
      <trkpt lat="49.96229" lon="2.35992">
        <ele>114.3</ele>
        <time>2023-01-04T14:16:02Z</time>
      </trkpt>
      <trkpt lat="49.96229" lon="2.35992">
        <ele>114.3</ele>
        <time>2023-01-04T14:16:03Z</time>
      </trkpt>
      <trkpt lat="49.96229" lon="2.35992">
        <ele>114.3</ele>
        <time>2023-01-04T14:16:04Z</time>
      </trkpt>
      <trkpt lat="49.96229" lon="2.35992">
        <ele>114.3</ele>
        <time>2023-01-04T14:16:05Z</time>
      </trkpt>
      <trkpt lat="49.96229" lon="2.35992">
        <ele>114.3</ele>
        <time>2023-01-04T14:16:06Z</time>
      </trkpt>
      <trkpt lat="49.96229" lon="2.35992">
        <ele>114.3</ele>
        <time>2023-01-04T14:16:07Z</time>
      </trkpt>
      <trkpt lat="49.96229" lon="2.35992">
        <ele>114.3</ele>
        <time>2023-01-04T14:16:08Z</time>
      </trkpt>
      <trkpt lat="49.96229" lon="2.35992">
        <ele>114.3</ele>
        <time>2023-01-04T14:16:09Z</time>
      </trkpt>
      <trkpt lat="49.96229" lon="2.35992">
        <ele>114.3</ele>
        <time>2023-01-04T14:16:10Z</time>
      </trkpt>
      <trkpt lat="49.96229" lon="2.35992">
        <ele>114.3</ele>
        <time>2023-01-04T14:16:11Z</time>
      </trkpt>
      <trkpt lat="49.96229" lon="2.35991">
        <ele>114.3</ele>
        <time>2023-01-04T14:16:12Z</time>
      </trkpt>
      <trkpt lat="49.9623" lon="2.35991">
        <ele>114.3</ele>
        <time>2023-01-04T14:16:13Z</time>
      </trkpt>
      <trkpt lat="49.96231" lon="2.35992">
        <ele>114.3</ele>
        <time>2023-01-04T14:16:14Z</time>
      </trkpt>
      <trkpt lat="49.96231" lon="2.35993">
        <ele>114.3</ele>
        <time>2023-01-04T14:16:15Z</time>
      </trkpt>
      <trkpt lat="49.96232" lon="2.35994">
        <ele>114.3</ele>
        <time>2023-01-04T14:16:16Z</time>
      </trkpt>
      <trkpt lat="49.96232" lon="2.35995">
        <ele>114.3</ele>
        <time>2023-01-04T14:16:18Z</time>
      </trkpt>
      <trkpt lat="49.96232" lon="2.35996">
        <ele>114.3</ele>
        <time>2023-01-04T14:16:19Z</time>
      </trkpt>
      <trkpt lat="49.96232" lon="2.35998">
        <ele>114.3</ele>
        <time>2023-01-04T14:16:20Z</time>
      </trkpt>
      <trkpt lat="49.96233" lon="2.36">
        <ele>114.2</ele>
        <time>2023-01-04T14:16:21Z</time>
      </trkpt>
      <trkpt lat="49.96234" lon="2.36002">
        <ele>114.2</ele>
        <time>2023-01-04T14:16:23Z</time>
      </trkpt>
      <trkpt lat="49.96235" lon="2.36005">
        <ele>114.2</ele>
        <time>2023-01-04T14:16:24Z</time>
      </trkpt>
      <trkpt lat="49.96235" lon="2.36007">
        <ele>114.2</ele>
        <time>2023-01-04T14:16:25Z</time>
      </trkpt>
      <trkpt lat="49.96235" lon="2.36009">
        <ele>114.2</ele>
        <time>2023-01-04T14:16:26Z</time>
      </trkpt>
      <trkpt lat="49.96235" lon="2.36011">
        <ele>114.1</ele>
        <time>2023-01-04T14:16:27Z</time>
      </trkpt>
      <trkpt lat="49.96235" lon="2.36014">
        <ele>114.1</ele>
        <time>2023-01-04T14:16:28Z</time>
      </trkpt>
      <trkpt lat="49.96235" lon="2.36016">
        <ele>114.1</ele>
        <time>2023-01-04T14:16:29Z</time>
      </trkpt>
      <trkpt lat="49.96235" lon="2.36018">
        <ele>114.1</ele>
        <time>2023-01-04T14:16:31Z</time>
      </trkpt>
      <trkpt lat="49.96235" lon="2.3602">
        <ele>114.1</ele>
        <time>2023-01-04T14:16:32Z</time>
      </trkpt>
      <trkpt lat="49.96235" lon="2.36022">
        <ele>114.1</ele>
        <time>2023-01-04T14:16:33Z</time>
      </trkpt>
      <trkpt lat="49.96235" lon="2.36025">
        <ele>114.1</ele>
        <time>2023-01-04T14:16:34Z</time>
      </trkpt>
      <trkpt lat="49.96235" lon="2.36028">
        <ele>114</ele>
        <time>2023-01-04T14:16:35Z</time>
      </trkpt>
      <trkpt lat="49.96235" lon="2.36029">
        <ele>114</ele>
        <time>2023-01-04T14:16:36Z</time>
      </trkpt>
      <trkpt lat="49.96235" lon="2.3603">
        <ele>114</ele>
        <time>2023-01-04T14:16:37Z</time>
      </trkpt>
      <trkpt lat="49.96235" lon="2.36034">
        <ele>114</ele>
        <time>2023-01-04T14:16:38Z</time>
      </trkpt>
      <trkpt lat="49.96235" lon="2.36035">
        <ele>114</ele>
        <time>2023-01-04T14:16:40Z</time>
      </trkpt>
      <trkpt lat="49.96235" lon="2.36036">
        <ele>114</ele>
        <time>2023-01-04T14:16:41Z</time>
      </trkpt>
      <trkpt lat="49.96236" lon="2.36038">
        <ele>114.1</ele>
        <time>2023-01-04T14:16:42Z</time>
      </trkpt>
      <trkpt lat="49.96236" lon="2.3604">
        <ele>114.1</ele>
        <time>2023-01-04T14:16:43Z</time>
      </trkpt>
      <trkpt lat="49.96236" lon="2.36042">
        <ele>114.1</ele>
        <time>2023-01-04T14:16:44Z</time>
      </trkpt>
      <trkpt lat="49.96237" lon="2.36044">
        <ele>114.1</ele>
        <time>2023-01-04T14:16:45Z</time>
      </trkpt>
      <trkpt lat="49.96237" lon="2.36046">
        <ele>114.1</ele>
        <time>2023-01-04T14:16:46Z</time>
      </trkpt>
      <trkpt lat="49.96238" lon="2.36049">
        <ele>114.1</ele>
        <time>2023-01-04T14:16:47Z</time>
      </trkpt>
      <trkpt lat="49.96238" lon="2.3605">
        <ele>114.1</ele>
        <time>2023-01-04T14:16:49Z</time>
      </trkpt>
      <trkpt lat="49.96238" lon="2.36051">
        <ele>114.1</ele>
        <time>2023-01-04T14:16:50Z</time>
      </trkpt>
      <trkpt lat="49.96238" lon="2.36055">
        <ele>114.1</ele>
        <time>2023-01-04T14:16:51Z</time>
      </trkpt>
      <trkpt lat="49.96239" lon="2.36056">
        <ele>114.1</ele>
        <time>2023-01-04T14:16:52Z</time>
      </trkpt>
      <trkpt lat="49.96239" lon="2.36058">
        <ele>114.1</ele>
        <time>2023-01-04T14:16:53Z</time>
      </trkpt>
      <trkpt lat="49.96239" lon="2.3606">
        <ele>114.2</ele>
        <time>2023-01-04T14:16:54Z</time>
      </trkpt>
      <trkpt lat="49.96239" lon="2.36062">
        <ele>114.2</ele>
        <time>2023-01-04T14:16:55Z</time>
      </trkpt>
      <trkpt lat="49.96239" lon="2.36063">
        <ele>114.2</ele>
        <time>2023-01-04T14:16:57Z</time>
      </trkpt>
      <trkpt lat="49.96239" lon="2.36065">
        <ele>114.2</ele>
        <time>2023-01-04T14:16:58Z</time>
      </trkpt>
      <trkpt lat="49.96239" lon="2.36066">
        <ele>114.2</ele>
        <time>2023-01-04T14:16:59Z</time>
      </trkpt>
      <trkpt lat="49.96239" lon="2.36068">
        <ele>114.2</ele>
        <time>2023-01-04T14:17:00Z</time>
      </trkpt>
      <trkpt lat="49.96239" lon="2.36071">
        <ele>114.2</ele>
        <time>2023-01-04T14:17:01Z</time>
      </trkpt>
      <trkpt lat="49.96239" lon="2.36073">
        <ele>114.2</ele>
        <time>2023-01-04T14:17:02Z</time>
      </trkpt>
      <trkpt lat="49.96239" lon="2.36074">
        <ele>114.2</ele>
        <time>2023-01-04T14:17:03Z</time>
      </trkpt>
      <trkpt lat="49.96239" lon="2.36075">
        <ele>114.2</ele>
        <time>2023-01-04T14:17:04Z</time>
      </trkpt>
      <trkpt lat="49.9624" lon="2.36077">
        <ele>114.2</ele>
        <time>2023-01-04T14:17:06Z</time>
      </trkpt>
      <trkpt lat="49.9624" lon="2.36079">
        <ele>114.2</ele>
        <time>2023-01-04T14:17:07Z</time>
      </trkpt>
      <trkpt lat="49.9624" lon="2.36081">
        <ele>114.2</ele>
        <time>2023-01-04T14:17:08Z</time>
      </trkpt>
      <trkpt lat="49.9624" lon="2.36083">
        <ele>114.3</ele>
        <time>2023-01-04T14:17:09Z</time>
      </trkpt>
      <trkpt lat="49.9624" lon="2.36085">
        <ele>114.3</ele>
        <time>2023-01-04T14:17:10Z</time>
      </trkpt>
      <trkpt lat="49.96241" lon="2.36087">
        <ele>114.3</ele>
        <time>2023-01-04T14:17:11Z</time>
      </trkpt>
      <trkpt lat="49.9624" lon="2.36089">
        <ele>114.3</ele>
        <time>2023-01-04T14:17:12Z</time>
      </trkpt>
      <trkpt lat="49.9624" lon="2.36091">
        <ele>114.3</ele>
        <time>2023-01-04T14:17:13Z</time>
      </trkpt>
      <trkpt lat="49.9624" lon="2.36092">
        <ele>114.3</ele>
        <time>2023-01-04T14:17:15Z</time>
      </trkpt>
      <trkpt lat="49.9624" lon="2.36094">
        <ele>114.3</ele>
        <time>2023-01-04T14:17:16Z</time>
      </trkpt>
      <trkpt lat="49.9624" lon="2.36096">
        <ele>114.3</ele>
        <time>2023-01-04T14:17:17Z</time>
      </trkpt>
      <trkpt lat="49.9624" lon="2.36098">
        <ele>114.3</ele>
        <time>2023-01-04T14:17:18Z</time>
      </trkpt>
      <trkpt lat="49.9624" lon="2.36102">
        <ele>114.3</ele>
        <time>2023-01-04T14:17:19Z</time>
      </trkpt>
      <trkpt lat="49.9624" lon="2.36103">
        <ele>114.3</ele>
        <time>2023-01-04T14:17:20Z</time>
      </trkpt>
      <trkpt lat="49.9624" lon="2.36104">
        <ele>114.3</ele>
        <time>2023-01-04T14:17:21Z</time>
      </trkpt>
      <trkpt lat="49.9624" lon="2.36108">
        <ele>114.3</ele>
        <time>2023-01-04T14:17:22Z</time>
      </trkpt>
      <trkpt lat="49.9624" lon="2.36109">
        <ele>114.3</ele>
        <time>2023-01-04T14:17:24Z</time>
      </trkpt>
      <trkpt lat="49.96241" lon="2.36111">
        <ele>114.3</ele>
        <time>2023-01-04T14:17:25Z</time>
      </trkpt>
      <trkpt lat="49.96241" lon="2.36113">
        <ele>114.3</ele>
        <time>2023-01-04T14:17:26Z</time>
      </trkpt>
      <trkpt lat="49.96241" lon="2.36114">
        <ele>114.3</ele>
        <time>2023-01-04T14:17:27Z</time>
      </trkpt>
      <trkpt lat="49.96241" lon="2.36116">
        <ele>114.3</ele>
        <time>2023-01-04T14:17:28Z</time>
      </trkpt>
      <trkpt lat="49.96241" lon="2.36119">
        <ele>114.3</ele>
        <time>2023-01-04T14:17:29Z</time>
      </trkpt>
      <trkpt lat="49.96241" lon="2.36122">
        <ele>114.4</ele>
        <time>2023-01-04T14:17:30Z</time>
      </trkpt>
      <trkpt lat="49.96241" lon="2.36123">
        <ele>114.4</ele>
        <time>2023-01-04T14:17:32Z</time>
      </trkpt>
      <trkpt lat="49.9624" lon="2.36124">
        <ele>114.4</ele>
        <time>2023-01-04T14:17:33Z</time>
      </trkpt>
      <trkpt lat="49.96241" lon="2.36128">
        <ele>114.4</ele>
        <time>2023-01-04T14:17:34Z</time>
      </trkpt>
      <trkpt lat="49.96241" lon="2.36129">
        <ele>114.4</ele>
        <time>2023-01-04T14:17:35Z</time>
      </trkpt>
      <trkpt lat="49.96241" lon="2.3613">
        <ele>114.4</ele>
        <time>2023-01-04T14:17:36Z</time>
      </trkpt>
      <trkpt lat="49.96241" lon="2.36132">
        <ele>114.4</ele>
        <time>2023-01-04T14:17:37Z</time>
      </trkpt>
      <trkpt lat="49.96241" lon="2.36133">
        <ele>114.4</ele>
        <time>2023-01-04T14:17:39Z</time>
      </trkpt>
      <trkpt lat="49.96241" lon="2.36136">
        <ele>114.4</ele>
        <time>2023-01-04T14:17:40Z</time>
      </trkpt>
      <trkpt lat="49.96241" lon="2.36139">
        <ele>114.5</ele>
        <time>2023-01-04T14:17:41Z</time>
      </trkpt>
      <trkpt lat="49.96241" lon="2.3614">
        <ele>114.5</ele>
        <time>2023-01-04T14:17:42Z</time>
      </trkpt>
      <trkpt lat="49.9624" lon="2.36141">
        <ele>114.5</ele>
        <time>2023-01-04T14:17:43Z</time>
      </trkpt>
      <trkpt lat="49.9624" lon="2.36145">
        <ele>114.5</ele>
        <time>2023-01-04T14:17:44Z</time>
      </trkpt>
      <trkpt lat="49.9624" lon="2.36146">
        <ele>114.5</ele>
        <time>2023-01-04T14:17:45Z</time>
      </trkpt>
      <trkpt lat="49.9624" lon="2.36147">
        <ele>114.5</ele>
        <time>2023-01-04T14:17:46Z</time>
      </trkpt>
      <trkpt lat="49.9624" lon="2.36149">
        <ele>114.6</ele>
        <time>2023-01-04T14:17:47Z</time>
      </trkpt>
      <trkpt lat="49.9624" lon="2.36151">
        <ele>114.6</ele>
        <time>2023-01-04T14:17:48Z</time>
      </trkpt>
      <trkpt lat="49.9624" lon="2.36153">
        <ele>114.6</ele>
        <time>2023-01-04T14:17:50Z</time>
      </trkpt>
      <trkpt lat="49.9624" lon="2.36156">
        <ele>114.6</ele>
        <time>2023-01-04T14:17:51Z</time>
      </trkpt>
      <trkpt lat="49.9624" lon="2.36157">
        <ele>114.6</ele>
        <time>2023-01-04T14:17:52Z</time>
      </trkpt>
      <trkpt lat="49.9624" lon="2.36159">
        <ele>114.6</ele>
        <time>2023-01-04T14:17:53Z</time>
      </trkpt>
      <trkpt lat="49.96241" lon="2.36162">
        <ele>114.7</ele>
        <time>2023-01-04T14:17:54Z</time>
      </trkpt>
      <trkpt lat="49.96241" lon="2.36163">
        <ele>114.7</ele>
        <time>2023-01-04T14:17:55Z</time>
      </trkpt>
      <trkpt lat="49.96241" lon="2.36165">
        <ele>114.7</ele>
        <time>2023-01-04T14:17:56Z</time>
      </trkpt>
      <trkpt lat="49.96241" lon="2.36168">
        <ele>114.7</ele>
        <time>2023-01-04T14:17:58Z</time>
      </trkpt>
      <trkpt lat="49.96241" lon="2.3617">
        <ele>114.7</ele>
        <time>2023-01-04T14:17:59Z</time>
      </trkpt>
      <trkpt lat="49.96241" lon="2.36171">
        <ele>114.7</ele>
        <time>2023-01-04T14:18:00Z</time>
      </trkpt>
      <trkpt lat="49.96241" lon="2.36173">
        <ele>114.8</ele>
        <time>2023-01-04T14:18:01Z</time>
      </trkpt>
      <trkpt lat="49.96241" lon="2.36176">
        <ele>114.8</ele>
        <time>2023-01-04T14:18:02Z</time>
      </trkpt>
      <trkpt lat="49.96241" lon="2.36178">
        <ele>114.8</ele>
        <time>2023-01-04T14:18:04Z</time>
      </trkpt>
      <trkpt lat="49.96241" lon="2.36179">
        <ele>114.8</ele>
        <time>2023-01-04T14:18:05Z</time>
      </trkpt>
      <trkpt lat="49.96241" lon="2.36181">
        <ele>114.8</ele>
        <time>2023-01-04T14:18:06Z</time>
      </trkpt>
      <trkpt lat="49.96241" lon="2.36182">
        <ele>114.8</ele>
        <time>2023-01-04T14:18:07Z</time>
      </trkpt>
      <trkpt lat="49.96241" lon="2.36184">
        <ele>114.8</ele>
        <time>2023-01-04T14:18:08Z</time>
      </trkpt>
      <trkpt lat="49.96241" lon="2.36186">
        <ele>114.8</ele>
        <time>2023-01-04T14:18:09Z</time>
      </trkpt>
      <trkpt lat="49.96241" lon="2.36188">
        <ele>114.8</ele>
        <time>2023-01-04T14:18:10Z</time>
      </trkpt>
      <trkpt lat="49.96242" lon="2.36189">
        <ele>114.8</ele>
        <time>2023-01-04T14:18:11Z</time>
      </trkpt>
      <trkpt lat="49.96242" lon="2.36193">
        <ele>114.8</ele>
        <time>2023-01-04T14:18:13Z</time>
      </trkpt>
      <trkpt lat="49.96242" lon="2.36195">
        <ele>114.8</ele>
        <time>2023-01-04T14:18:14Z</time>
      </trkpt>
      <trkpt lat="49.96243" lon="2.36196">
        <ele>114.8</ele>
        <time>2023-01-04T14:18:15Z</time>
      </trkpt>
      <trkpt lat="49.96243" lon="2.36199">
        <ele>114.9</ele>
        <time>2023-01-04T14:18:16Z</time>
      </trkpt>
      <trkpt lat="49.96243" lon="2.36201">
        <ele>114.9</ele>
        <time>2023-01-04T14:18:17Z</time>
      </trkpt>
      <trkpt lat="49.96243" lon="2.36202">
        <ele>114.9</ele>
        <time>2023-01-04T14:18:18Z</time>
      </trkpt>
      <trkpt lat="49.96243" lon="2.36204">
        <ele>114.9</ele>
        <time>2023-01-04T14:18:19Z</time>
      </trkpt>
      <trkpt lat="49.96244" lon="2.36207">
        <ele>114.9</ele>
        <time>2023-01-04T14:18:21Z</time>
      </trkpt>
      <trkpt lat="49.96244" lon="2.36209">
        <ele>114.9</ele>
        <time>2023-01-04T14:18:22Z</time>
      </trkpt>
      <trkpt lat="49.96244" lon="2.36211">
        <ele>114.9</ele>
        <time>2023-01-04T14:18:23Z</time>
      </trkpt>
      <trkpt lat="49.96244" lon="2.36214">
        <ele>114.9</ele>
        <time>2023-01-04T14:18:24Z</time>
      </trkpt>
      <trkpt lat="49.96244" lon="2.36216">
        <ele>114.9</ele>
        <time>2023-01-04T14:18:25Z</time>
      </trkpt>
      <trkpt lat="49.96244" lon="2.36217">
        <ele>114.9</ele>
        <time>2023-01-04T14:18:26Z</time>
      </trkpt>
      <trkpt lat="49.96244" lon="2.36219">
        <ele>114.9</ele>
        <time>2023-01-04T14:18:28Z</time>
      </trkpt>
      <trkpt lat="49.96244" lon="2.36221">
        <ele>114.9</ele>
        <time>2023-01-04T14:18:29Z</time>
      </trkpt>
      <trkpt lat="49.96244" lon="2.36223">
        <ele>114.9</ele>
        <time>2023-01-04T14:18:30Z</time>
      </trkpt>
      <trkpt lat="49.96244" lon="2.36224">
        <ele>114.9</ele>
        <time>2023-01-04T14:18:31Z</time>
      </trkpt>
      <trkpt lat="49.96244" lon="2.36226">
        <ele>114.9</ele>
        <time>2023-01-04T14:18:32Z</time>
      </trkpt>
      <trkpt lat="49.96244" lon="2.36228">
        <ele>114.9</ele>
        <time>2023-01-04T14:18:33Z</time>
      </trkpt>
      <trkpt lat="49.96244" lon="2.3623">
        <ele>114.9</ele>
        <time>2023-01-04T14:18:34Z</time>
      </trkpt>
      <trkpt lat="49.96244" lon="2.36233">
        <ele>114.9</ele>
        <time>2023-01-04T14:18:35Z</time>
      </trkpt>
      <trkpt lat="49.96244" lon="2.36235">
        <ele>114.9</ele>
        <time>2023-01-04T14:18:36Z</time>
      </trkpt>
      <trkpt lat="49.96244" lon="2.36237">
        <ele>114.9</ele>
        <time>2023-01-04T14:18:38Z</time>
      </trkpt>
      <trkpt lat="49.96244" lon="2.36238">
        <ele>114.9</ele>
        <time>2023-01-04T14:18:39Z</time>
      </trkpt>
      <trkpt lat="49.96244" lon="2.3624">
        <ele>114.9</ele>
        <time>2023-01-04T14:18:40Z</time>
      </trkpt>
      <trkpt lat="49.96244" lon="2.36242">
        <ele>114.9</ele>
        <time>2023-01-04T14:18:41Z</time>
      </trkpt>
      <trkpt lat="49.96244" lon="2.36245">
        <ele>114.9</ele>
        <time>2023-01-04T14:18:42Z</time>
      </trkpt>
      <trkpt lat="49.96244" lon="2.36247">
        <ele>114.9</ele>
        <time>2023-01-04T14:18:43Z</time>
      </trkpt>
      <trkpt lat="49.96244" lon="2.36248">
        <ele>114.9</ele>
        <time>2023-01-04T14:18:44Z</time>
      </trkpt>
      <trkpt lat="49.96243" lon="2.3625">
        <ele>114.8</ele>
        <time>2023-01-04T14:18:45Z</time>
      </trkpt>
      <trkpt lat="49.96243" lon="2.36251">
        <ele>114.8</ele>
        <time>2023-01-04T14:18:46Z</time>
      </trkpt>
      <trkpt lat="49.96243" lon="2.36253">
        <ele>114.8</ele>
        <time>2023-01-04T14:18:47Z</time>
      </trkpt>
      <trkpt lat="49.96243" lon="2.36256">
        <ele>114.8</ele>
        <time>2023-01-04T14:18:48Z</time>
      </trkpt>
      <trkpt lat="49.96243" lon="2.36257">
        <ele>114.8</ele>
        <time>2023-01-04T14:18:50Z</time>
      </trkpt>
      <trkpt lat="49.96244" lon="2.36258">
        <ele>114.8</ele>
        <time>2023-01-04T14:18:51Z</time>
      </trkpt>
      <trkpt lat="49.96244" lon="2.36262">
        <ele>114.8</ele>
        <time>2023-01-04T14:18:52Z</time>
      </trkpt>
      <trkpt lat="49.96244" lon="2.36263">
        <ele>114.8</ele>
        <time>2023-01-04T14:18:53Z</time>
      </trkpt>
      <trkpt lat="49.96244" lon="2.36264">
        <ele>114.8</ele>
        <time>2023-01-04T14:18:54Z</time>
      </trkpt>
      <trkpt lat="49.96244" lon="2.36266">
        <ele>114.8</ele>
        <time>2023-01-04T14:18:55Z</time>
      </trkpt>
      <trkpt lat="49.96244" lon="2.36268">
        <ele>114.8</ele>
        <time>2023-01-04T14:18:56Z</time>
      </trkpt>
      <trkpt lat="49.96244" lon="2.36269">
        <ele>114.8</ele>
        <time>2023-01-04T14:18:57Z</time>
      </trkpt>
      <trkpt lat="49.96244" lon="2.36272">
        <ele>114.8</ele>
        <time>2023-01-04T14:18:59Z</time>
      </trkpt>
      <trkpt lat="49.96244" lon="2.36273">
        <ele>114.8</ele>
        <time>2023-01-04T14:19:00Z</time>
      </trkpt>
      <trkpt lat="49.96244" lon="2.36275">
        <ele>114.8</ele>
        <time>2023-01-04T14:19:01Z</time>
      </trkpt>
      <trkpt lat="49.96244" lon="2.36278">
        <ele>114.8</ele>
        <time>2023-01-04T14:19:02Z</time>
      </trkpt>
      <trkpt lat="49.96244" lon="2.3628">
        <ele>114.8</ele>
        <time>2023-01-04T14:19:03Z</time>
      </trkpt>
      <trkpt lat="49.96244" lon="2.36281">
        <ele>114.8</ele>
        <time>2023-01-04T14:19:04Z</time>
      </trkpt>
      <trkpt lat="49.96244" lon="2.36283">
        <ele>114.8</ele>
        <time>2023-01-04T14:19:05Z</time>
      </trkpt>
      <trkpt lat="49.96244" lon="2.36284">
        <ele>114.8</ele>
        <time>2023-01-04T14:19:06Z</time>
      </trkpt>
      <trkpt lat="49.96244" lon="2.36286">
        <ele>114.8</ele>
        <time>2023-01-04T14:19:08Z</time>
      </trkpt>
      <trkpt lat="49.96244" lon="2.36288">
        <ele>114.8</ele>
        <time>2023-01-04T14:19:09Z</time>
      </trkpt>
      <trkpt lat="49.96244" lon="2.36291">
        <ele>114.8</ele>
        <time>2023-01-04T14:19:10Z</time>
      </trkpt>
      <trkpt lat="49.96245" lon="2.36294">
        <ele>114.9</ele>
        <time>2023-01-04T14:19:11Z</time>
      </trkpt>
      <trkpt lat="49.96245" lon="2.36295">
        <ele>114.9</ele>
        <time>2023-01-04T14:19:12Z</time>
      </trkpt>
      <trkpt lat="49.96245" lon="2.36297">
        <ele>114.9</ele>
        <time>2023-01-04T14:19:13Z</time>
      </trkpt>
      <trkpt lat="49.96245" lon="2.36299">
        <ele>114.9</ele>
        <time>2023-01-04T14:19:14Z</time>
      </trkpt>
      <trkpt lat="49.96245" lon="2.363">
        <ele>114.9</ele>
        <time>2023-01-04T14:19:15Z</time>
      </trkpt>
      <trkpt lat="49.96246" lon="2.36302">
        <ele>114.9</ele>
        <time>2023-01-04T14:19:17Z</time>
      </trkpt>
      <trkpt lat="49.96246" lon="2.36305">
        <ele>114.9</ele>
        <time>2023-01-04T14:19:18Z</time>
      </trkpt>
      <trkpt lat="49.96246" lon="2.36307">
        <ele>115</ele>
        <time>2023-01-04T14:19:19Z</time>
      </trkpt>
      <trkpt lat="49.96246" lon="2.3631">
        <ele>115</ele>
        <time>2023-01-04T14:19:20Z</time>
      </trkpt>
      <trkpt lat="49.96246" lon="2.36312">
        <ele>115</ele>
        <time>2023-01-04T14:19:21Z</time>
      </trkpt>
      <trkpt lat="49.96247" lon="2.36314">
        <ele>115</ele>
        <time>2023-01-04T14:19:22Z</time>
      </trkpt>
      <trkpt lat="49.96247" lon="2.36317">
        <ele>115</ele>
        <time>2023-01-04T14:19:23Z</time>
      </trkpt>
      <trkpt lat="49.96247" lon="2.36319">
        <ele>115</ele>
        <time>2023-01-04T14:19:25Z</time>
      </trkpt>
      <trkpt lat="49.96247" lon="2.36321">
        <ele>115</ele>
        <time>2023-01-04T14:19:26Z</time>
      </trkpt>
      <trkpt lat="49.96247" lon="2.36325">
        <ele>115</ele>
        <time>2023-01-04T14:19:27Z</time>
      </trkpt>
      <trkpt lat="49.96247" lon="2.36326">
        <ele>115</ele>
        <time>2023-01-04T14:19:28Z</time>
      </trkpt>
      <trkpt lat="49.96247" lon="2.36328">
        <ele>115</ele>
        <time>2023-01-04T14:19:29Z</time>
      </trkpt>
      <trkpt lat="49.96247" lon="2.36329">
        <ele>115</ele>
        <time>2023-01-04T14:19:30Z</time>
      </trkpt>
      <trkpt lat="49.96247" lon="2.36331">
        <ele>115</ele>
        <time>2023-01-04T14:19:32Z</time>
      </trkpt>
      <trkpt lat="49.96247" lon="2.36333">
        <ele>115</ele>
        <time>2023-01-04T14:19:33Z</time>
      </trkpt>
      <trkpt lat="49.96247" lon="2.36335">
        <ele>115</ele>
        <time>2023-01-04T14:19:34Z</time>
      </trkpt>
      <trkpt lat="49.96247" lon="2.36337">
        <ele>115</ele>
        <time>2023-01-04T14:19:35Z</time>
      </trkpt>
      <trkpt lat="49.96248" lon="2.36339">
        <ele>115</ele>
        <time>2023-01-04T14:19:36Z</time>
      </trkpt>
      <trkpt lat="49.96248" lon="2.36341">
        <ele>115</ele>
        <time>2023-01-04T14:19:37Z</time>
      </trkpt>
      <trkpt lat="49.96248" lon="2.36342">
        <ele>115</ele>
        <time>2023-01-04T14:19:39Z</time>
      </trkpt>
      <trkpt lat="49.96248" lon="2.36345">
        <ele>115</ele>
        <time>2023-01-04T14:19:40Z</time>
      </trkpt>
      <trkpt lat="49.96248" lon="2.36346">
        <ele>115</ele>
        <time>2023-01-04T14:19:41Z</time>
      </trkpt>
      <trkpt lat="49.96248" lon="2.36348">
        <ele>115</ele>
        <time>2023-01-04T14:19:42Z</time>
      </trkpt>
      <trkpt lat="49.96249" lon="2.3635">
        <ele>115</ele>
        <time>2023-01-04T14:19:43Z</time>
      </trkpt>
      <trkpt lat="49.96249" lon="2.36352">
        <ele>115</ele>
        <time>2023-01-04T14:19:44Z</time>
      </trkpt>
      <trkpt lat="49.96249" lon="2.36353">
        <ele>115</ele>
        <time>2023-01-04T14:19:45Z</time>
      </trkpt>
      <trkpt lat="49.96249" lon="2.36356">
        <ele>115</ele>
        <time>2023-01-04T14:19:46Z</time>
      </trkpt>
      <trkpt lat="49.96249" lon="2.36358">
        <ele>115</ele>
        <time>2023-01-04T14:19:48Z</time>
      </trkpt>
      <trkpt lat="49.96249" lon="2.36359">
        <ele>115</ele>
        <time>2023-01-04T14:19:49Z</time>
      </trkpt>
      <trkpt lat="49.96249" lon="2.36362">
        <ele>115</ele>
        <time>2023-01-04T14:19:50Z</time>
      </trkpt>
      <trkpt lat="49.96249" lon="2.36364">
        <ele>115</ele>
        <time>2023-01-04T14:19:51Z</time>
      </trkpt>
      <trkpt lat="49.96249" lon="2.36365">
        <ele>115</ele>
        <time>2023-01-04T14:19:52Z</time>
      </trkpt>
      <trkpt lat="49.96249" lon="2.36367">
        <ele>115</ele>
        <time>2023-01-04T14:19:53Z</time>
      </trkpt>
      <trkpt lat="49.96249" lon="2.3637">
        <ele>115</ele>
        <time>2023-01-04T14:19:55Z</time>
      </trkpt>
      <trkpt lat="49.96249" lon="2.36371">
        <ele>115</ele>
        <time>2023-01-04T14:19:56Z</time>
      </trkpt>
      <trkpt lat="49.96249" lon="2.36373">
        <ele>115</ele>
        <time>2023-01-04T14:19:57Z</time>
      </trkpt>
      <trkpt lat="49.96249" lon="2.36375">
        <ele>115</ele>
        <time>2023-01-04T14:19:58Z</time>
      </trkpt>
      <trkpt lat="49.96249" lon="2.36377">
        <ele>115</ele>
        <time>2023-01-04T14:19:59Z</time>
      </trkpt>
      <trkpt lat="49.96249" lon="2.3638">
        <ele>115</ele>
        <time>2023-01-04T14:20:00Z</time>
      </trkpt>
      <trkpt lat="49.96249" lon="2.36382">
        <ele>115</ele>
        <time>2023-01-04T14:20:01Z</time>
      </trkpt>
      <trkpt lat="49.96249" lon="2.36383">
        <ele>115</ele>
        <time>2023-01-04T14:20:02Z</time>
      </trkpt>
      <trkpt lat="49.96249" lon="2.36385">
        <ele>115</ele>
        <time>2023-01-04T14:20:03Z</time>
      </trkpt>
      <trkpt lat="49.96249" lon="2.36388">
        <ele>115</ele>
        <time>2023-01-04T14:20:05Z</time>
      </trkpt>
      <trkpt lat="49.9625" lon="2.36389">
        <ele>115</ele>
        <time>2023-01-04T14:20:06Z</time>
      </trkpt>
      <trkpt lat="49.9625" lon="2.36392">
        <ele>115</ele>
        <time>2023-01-04T14:20:07Z</time>
      </trkpt>
      <trkpt lat="49.9625" lon="2.36394">
        <ele>115</ele>
        <time>2023-01-04T14:20:08Z</time>
      </trkpt>
      <trkpt lat="49.9625" lon="2.36395">
        <ele>115</ele>
        <time>2023-01-04T14:20:09Z</time>
      </trkpt>
      <trkpt lat="49.9625" lon="2.36398">
        <ele>115</ele>
        <time>2023-01-04T14:20:10Z</time>
      </trkpt>
      <trkpt lat="49.9625" lon="2.36399">
        <ele>115</ele>
        <time>2023-01-04T14:20:11Z</time>
      </trkpt>
      <trkpt lat="49.96251" lon="2.364">
        <ele>115</ele>
        <time>2023-01-04T14:20:12Z</time>
      </trkpt>
      <trkpt lat="49.96251" lon="2.36402">
        <ele>115</ele>
        <time>2023-01-04T14:20:14Z</time>
      </trkpt>
      <trkpt lat="49.96251" lon="2.36405">
        <ele>115</ele>
        <time>2023-01-04T14:20:15Z</time>
      </trkpt>
      <trkpt lat="49.96251" lon="2.36406">
        <ele>115</ele>
        <time>2023-01-04T14:20:16Z</time>
      </trkpt>
      <trkpt lat="49.96251" lon="2.36408">
        <ele>115</ele>
        <time>2023-01-04T14:20:17Z</time>
      </trkpt>
      <trkpt lat="49.96251" lon="2.36409">
        <ele>115</ele>
        <time>2023-01-04T14:20:18Z</time>
      </trkpt>
      <trkpt lat="49.96252" lon="2.36413">
        <ele>115</ele>
        <time>2023-01-04T14:20:19Z</time>
      </trkpt>
      <trkpt lat="49.96252" lon="2.36415">
        <ele>115</ele>
        <time>2023-01-04T14:20:20Z</time>
      </trkpt>
      <trkpt lat="49.96252" lon="2.36416">
        <ele>115</ele>
        <time>2023-01-04T14:20:22Z</time>
      </trkpt>
      <trkpt lat="49.96252" lon="2.36418">
        <ele>115</ele>
        <time>2023-01-04T14:20:23Z</time>
      </trkpt>
      <trkpt lat="49.96252" lon="2.3642">
        <ele>115</ele>
        <time>2023-01-04T14:20:24Z</time>
      </trkpt>
      <trkpt lat="49.96252" lon="2.36422">
        <ele>115</ele>
        <time>2023-01-04T14:20:25Z</time>
      </trkpt>
      <trkpt lat="49.96252" lon="2.36423">
        <ele>115</ele>
        <time>2023-01-04T14:20:26Z</time>
      </trkpt>
      <trkpt lat="49.96252" lon="2.36425">
        <ele>115</ele>
        <time>2023-01-04T14:20:27Z</time>
      </trkpt>
      <trkpt lat="49.96252" lon="2.36426">
        <ele>115.1</ele>
        <time>2023-01-04T14:20:28Z</time>
      </trkpt>
      <trkpt lat="49.96252" lon="2.36429">
        <ele>115.1</ele>
        <time>2023-01-04T14:20:30Z</time>
      </trkpt>
      <trkpt lat="49.96252" lon="2.36431">
        <ele>115.1</ele>
        <time>2023-01-04T14:20:31Z</time>
      </trkpt>
      <trkpt lat="49.96252" lon="2.36433">
        <ele>115.1</ele>
        <time>2023-01-04T14:20:32Z</time>
      </trkpt>
      <trkpt lat="49.96252" lon="2.36436">
        <ele>115.1</ele>
        <time>2023-01-04T14:20:33Z</time>
      </trkpt>
      <trkpt lat="49.96252" lon="2.36437">
        <ele>115.1</ele>
        <time>2023-01-04T14:20:34Z</time>
      </trkpt>
      <trkpt lat="49.96252" lon="2.36438">
        <ele>115.1</ele>
        <time>2023-01-04T14:20:35Z</time>
      </trkpt>
      <trkpt lat="49.96252" lon="2.3644">
        <ele>115.1</ele>
        <time>2023-01-04T14:20:36Z</time>
      </trkpt>
      <trkpt lat="49.96252" lon="2.36442">
        <ele>115.1</ele>
        <time>2023-01-04T14:20:38Z</time>
      </trkpt>
      <trkpt lat="49.96252" lon="2.36444">
        <ele>115.1</ele>
        <time>2023-01-04T14:20:39Z</time>
      </trkpt>
      <trkpt lat="49.96252" lon="2.36448">
        <ele>115.1</ele>
        <time>2023-01-04T14:20:40Z</time>
      </trkpt>
      <trkpt lat="49.96252" lon="2.36449">
        <ele>115.1</ele>
        <time>2023-01-04T14:20:41Z</time>
      </trkpt>
      <trkpt lat="49.96252" lon="2.3645">
        <ele>115.1</ele>
        <time>2023-01-04T14:20:42Z</time>
      </trkpt>
      <trkpt lat="49.96252" lon="2.36452">
        <ele>115.1</ele>
        <time>2023-01-04T14:20:43Z</time>
      </trkpt>
      <trkpt lat="49.96252" lon="2.36454">
        <ele>115.2</ele>
        <time>2023-01-04T14:20:44Z</time>
      </trkpt>
      <trkpt lat="49.96252" lon="2.36458">
        <ele>115.2</ele>
        <time>2023-01-04T14:20:45Z</time>
      </trkpt>
      <trkpt lat="49.96252" lon="2.36459">
        <ele>115.2</ele>
        <time>2023-01-04T14:20:47Z</time>
      </trkpt>
      <trkpt lat="49.96252" lon="2.3646">
        <ele>115.2</ele>
        <time>2023-01-04T14:20:48Z</time>
      </trkpt>
      <trkpt lat="49.96252" lon="2.36462">
        <ele>115.2</ele>
        <time>2023-01-04T14:20:49Z</time>
      </trkpt>
      <trkpt lat="49.96252" lon="2.36465">
        <ele>115.2</ele>
        <time>2023-01-04T14:20:50Z</time>
      </trkpt>
      <trkpt lat="49.96252" lon="2.36466">
        <ele>115.2</ele>
        <time>2023-01-04T14:20:51Z</time>
      </trkpt>
      <trkpt lat="49.96252" lon="2.36467">
        <ele>115.2</ele>
        <time>2023-01-04T14:20:52Z</time>
      </trkpt>
      <trkpt lat="49.96252" lon="2.36469">
        <ele>115.2</ele>
        <time>2023-01-04T14:20:53Z</time>
      </trkpt>
      <trkpt lat="49.96253" lon="2.36473">
        <ele>115.3</ele>
        <time>2023-01-04T14:20:55Z</time>
      </trkpt>
      <trkpt lat="49.96253" lon="2.36475">
        <ele>115.3</ele>
        <time>2023-01-04T14:20:57Z</time>
      </trkpt>
      <trkpt lat="49.96253" lon="2.36479">
        <ele>115.3</ele>
        <time>2023-01-04T14:20:58Z</time>
      </trkpt>
      <trkpt lat="49.96253" lon="2.3648">
        <ele>115.3</ele>
        <time>2023-01-04T14:20:59Z</time>
      </trkpt>
      <trkpt lat="49.96253" lon="2.36481">
        <ele>115.3</ele>
        <time>2023-01-04T14:21:00Z</time>
      </trkpt>
      <trkpt lat="49.96253" lon="2.36483">
        <ele>115.3</ele>
        <time>2023-01-04T14:21:01Z</time>
      </trkpt>
      <trkpt lat="49.96254" lon="2.36484">
        <ele>115.3</ele>
        <time>2023-01-04T14:21:02Z</time>
      </trkpt>
      <trkpt lat="49.96254" lon="2.36486">
        <ele>115.4</ele>
        <time>2023-01-04T14:21:03Z</time>
      </trkpt>
      <trkpt lat="49.96254" lon="2.36488">
        <ele>115.4</ele>
        <time>2023-01-04T14:21:05Z</time>
      </trkpt>
      <trkpt lat="49.96254" lon="2.3649">
        <ele>115.4</ele>
        <time>2023-01-04T14:21:06Z</time>
      </trkpt>
      <trkpt lat="49.96254" lon="2.36492">
        <ele>115.4</ele>
        <time>2023-01-04T14:21:07Z</time>
      </trkpt>
      <trkpt lat="49.96254" lon="2.36494">
        <ele>115.4</ele>
        <time>2023-01-04T14:21:08Z</time>
      </trkpt>
      <trkpt lat="49.96254" lon="2.36495">
        <ele>115.4</ele>
        <time>2023-01-04T14:21:09Z</time>
      </trkpt>
      <trkpt lat="49.96253" lon="2.36498">
        <ele>115.5</ele>
        <time>2023-01-04T14:21:10Z</time>
      </trkpt>
      <trkpt lat="49.96253" lon="2.36499">
        <ele>115.5</ele>
        <time>2023-01-04T14:21:11Z</time>
      </trkpt>
      <trkpt lat="49.96253" lon="2.36501">
        <ele>115.5</ele>
        <time>2023-01-04T14:21:12Z</time>
      </trkpt>
      <trkpt lat="49.96253" lon="2.36502">
        <ele>115.5</ele>
        <time>2023-01-04T14:21:13Z</time>
      </trkpt>
      <trkpt lat="49.96253" lon="2.36504">
        <ele>115.5</ele>
        <time>2023-01-04T14:21:15Z</time>
      </trkpt>
      <trkpt lat="49.96253" lon="2.36506">
        <ele>115.5</ele>
        <time>2023-01-04T14:21:16Z</time>
      </trkpt>
      <trkpt lat="49.96253" lon="2.36508">
        <ele>115.5</ele>
        <time>2023-01-04T14:21:17Z</time>
      </trkpt>
      <trkpt lat="49.96253" lon="2.36509">
        <ele>115.5</ele>
        <time>2023-01-04T14:21:18Z</time>
      </trkpt>
      <trkpt lat="49.96253" lon="2.36511">
        <ele>115.5</ele>
        <time>2023-01-04T14:21:19Z</time>
      </trkpt>
      <trkpt lat="49.96253" lon="2.36514">
        <ele>115.5</ele>
        <time>2023-01-04T14:21:20Z</time>
      </trkpt>
      <trkpt lat="49.96253" lon="2.36515">
        <ele>115.6</ele>
        <time>2023-01-04T14:21:21Z</time>
      </trkpt>
      <trkpt lat="49.96253" lon="2.36518">
        <ele>115.6</ele>
        <time>2023-01-04T14:21:23Z</time>
      </trkpt>
      <trkpt lat="49.96253" lon="2.36521">
        <ele>115.6</ele>
        <time>2023-01-04T14:21:24Z</time>
      </trkpt>
      <trkpt lat="49.96253" lon="2.36523">
        <ele>115.6</ele>
        <time>2023-01-04T14:21:25Z</time>
      </trkpt>
      <trkpt lat="49.96253" lon="2.36524">
        <ele>115.6</ele>
        <time>2023-01-04T14:21:26Z</time>
      </trkpt>
      <trkpt lat="49.96252" lon="2.36526">
        <ele>115.6</ele>
        <time>2023-01-04T14:21:27Z</time>
      </trkpt>
      <trkpt lat="49.96252" lon="2.36527">
        <ele>115.6</ele>
        <time>2023-01-04T14:21:28Z</time>
      </trkpt>
      <trkpt lat="49.96252" lon="2.36529">
        <ele>115.6</ele>
        <time>2023-01-04T14:21:29Z</time>
      </trkpt>
      <trkpt lat="49.96252" lon="2.3653">
        <ele>115.6</ele>
        <time>2023-01-04T14:21:30Z</time>
      </trkpt>
      <trkpt lat="49.96251" lon="2.36532">
        <ele>115.6</ele>
        <time>2023-01-04T14:21:32Z</time>
      </trkpt>
      <trkpt lat="49.96251" lon="2.36531">
        <ele>115.6</ele>
        <time>2023-01-04T14:21:33Z</time>
      </trkpt>
      <trkpt lat="49.96252" lon="2.3653">
        <ele>115.6</ele>
        <time>2023-01-04T14:21:35Z</time>
      </trkpt>
      <trkpt lat="49.96252" lon="2.36532">
        <ele>115.6</ele>
        <time>2023-01-04T14:21:36Z</time>
      </trkpt>
      <trkpt lat="49.96252" lon="2.36534">
        <ele>115.6</ele>
        <time>2023-01-04T14:21:37Z</time>
      </trkpt>
      <trkpt lat="49.96253" lon="2.36537">
        <ele>115.6</ele>
        <time>2023-01-04T14:21:38Z</time>
      </trkpt>
      <trkpt lat="49.96253" lon="2.36538">
        <ele>115.6</ele>
        <time>2023-01-04T14:21:39Z</time>
      </trkpt>
      <trkpt lat="49.96253" lon="2.3654">
        <ele>115.6</ele>
        <time>2023-01-04T14:21:40Z</time>
      </trkpt>
      <trkpt lat="49.96253" lon="2.36543">
        <ele>115.6</ele>
        <time>2023-01-04T14:21:41Z</time>
      </trkpt>
      <trkpt lat="49.96254" lon="2.36544">
        <ele>115.6</ele>
        <time>2023-01-04T14:21:42Z</time>
      </trkpt>
      <trkpt lat="49.96254" lon="2.36546">
        <ele>115.6</ele>
        <time>2023-01-04T14:21:43Z</time>
      </trkpt>
      <trkpt lat="49.96254" lon="2.36548">
        <ele>115.6</ele>
        <time>2023-01-04T14:21:45Z</time>
      </trkpt>
      <trkpt lat="49.96254" lon="2.36551">
        <ele>115.6</ele>
        <time>2023-01-04T14:21:46Z</time>
      </trkpt>
      <trkpt lat="49.96254" lon="2.36554">
        <ele>115.6</ele>
        <time>2023-01-04T14:21:47Z</time>
      </trkpt>
      <trkpt lat="49.96254" lon="2.36555">
        <ele>115.6</ele>
        <time>2023-01-04T14:21:48Z</time>
      </trkpt>
      <trkpt lat="49.96254" lon="2.36556">
        <ele>115.6</ele>
        <time>2023-01-04T14:21:49Z</time>
      </trkpt>
      <trkpt lat="49.96254" lon="2.36559">
        <ele>115.6</ele>
        <time>2023-01-04T14:21:50Z</time>
      </trkpt>
      <trkpt lat="49.96254" lon="2.3656">
        <ele>115.6</ele>
        <time>2023-01-04T14:21:51Z</time>
      </trkpt>
      <trkpt lat="49.96254" lon="2.36562">
        <ele>115.6</ele>
        <time>2023-01-04T14:21:53Z</time>
      </trkpt>
      <trkpt lat="49.96255" lon="2.36565">
        <ele>115.6</ele>
        <time>2023-01-04T14:21:54Z</time>
      </trkpt>
      <trkpt lat="49.96255" lon="2.36567">
        <ele>115.6</ele>
        <time>2023-01-04T14:21:55Z</time>
      </trkpt>
      <trkpt lat="49.96255" lon="2.36568">
        <ele>115.6</ele>
        <time>2023-01-04T14:21:56Z</time>
      </trkpt>
      <trkpt lat="49.96254" lon="2.3657">
        <ele>115.6</ele>
        <time>2023-01-04T14:21:57Z</time>
      </trkpt>
      <trkpt lat="49.96254" lon="2.36572">
        <ele>115.6</ele>
        <time>2023-01-04T14:21:58Z</time>
      </trkpt>
      <trkpt lat="49.96254" lon="2.36573">
        <ele>115.6</ele>
        <time>2023-01-04T14:21:59Z</time>
      </trkpt>
      <trkpt lat="49.96253" lon="2.36577">
        <ele>115.6</ele>
        <time>2023-01-04T14:22:00Z</time>
      </trkpt>
      <trkpt lat="49.96253" lon="2.36578">
        <ele>115.6</ele>
        <time>2023-01-04T14:22:02Z</time>
      </trkpt>
      <trkpt lat="49.96253" lon="2.36579">
        <ele>115.6</ele>
        <time>2023-01-04T14:22:03Z</time>
      </trkpt>
      <trkpt lat="49.96252" lon="2.36582">
        <ele>115.6</ele>
        <time>2023-01-04T14:22:04Z</time>
      </trkpt>
      <trkpt lat="49.96252" lon="2.36583">
        <ele>115.6</ele>
        <time>2023-01-04T14:22:05Z</time>
      </trkpt>
      <trkpt lat="49.96252" lon="2.36585">
        <ele>115.6</ele>
        <time>2023-01-04T14:22:06Z</time>
      </trkpt>
      <trkpt lat="49.96252" lon="2.36586">
        <ele>115.6</ele>
        <time>2023-01-04T14:22:07Z</time>
      </trkpt>
      <trkpt lat="49.96253" lon="2.36588">
        <ele>115.6</ele>
        <time>2023-01-04T14:22:08Z</time>
      </trkpt>
      <trkpt lat="49.96253" lon="2.3659">
        <ele>115.6</ele>
        <time>2023-01-04T14:22:09Z</time>
      </trkpt>
      <trkpt lat="49.96254" lon="2.36594">
        <ele>115.6</ele>
        <time>2023-01-04T14:22:10Z</time>
      </trkpt>
      <trkpt lat="49.96254" lon="2.36596">
        <ele>115.6</ele>
        <time>2023-01-04T14:22:12Z</time>
      </trkpt>
      <trkpt lat="49.96254" lon="2.36597">
        <ele>115.7</ele>
        <time>2023-01-04T14:22:13Z</time>
      </trkpt>
      <trkpt lat="49.96254" lon="2.36598">
        <ele>115.7</ele>
        <time>2023-01-04T14:22:14Z</time>
      </trkpt>
      <trkpt lat="49.96255" lon="2.366">
        <ele>115.7</ele>
        <time>2023-01-04T14:22:15Z</time>
      </trkpt>
      <trkpt lat="49.96255" lon="2.36603">
        <ele>115.7</ele>
        <time>2023-01-04T14:22:16Z</time>
      </trkpt>
      <trkpt lat="49.96255" lon="2.36604">
        <ele>115.7</ele>
        <time>2023-01-04T14:22:17Z</time>
      </trkpt>
      <trkpt lat="49.96256" lon="2.36605">
        <ele>115.7</ele>
        <time>2023-01-04T14:22:18Z</time>
      </trkpt>
      <trkpt lat="49.96256" lon="2.36607">
        <ele>115.7</ele>
        <time>2023-01-04T14:22:19Z</time>
      </trkpt>
      <trkpt lat="49.96256" lon="2.3661">
        <ele>115.7</ele>
        <time>2023-01-04T14:22:21Z</time>
      </trkpt>
      <trkpt lat="49.96256" lon="2.36611">
        <ele>115.8</ele>
        <time>2023-01-04T14:22:22Z</time>
      </trkpt>
      <trkpt lat="49.96256" lon="2.36613">
        <ele>115.8</ele>
        <time>2023-01-04T14:22:23Z</time>
      </trkpt>
      <trkpt lat="49.96256" lon="2.36614">
        <ele>115.8</ele>
        <time>2023-01-04T14:22:24Z</time>
      </trkpt>
      <trkpt lat="49.96256" lon="2.36616">
        <ele>115.8</ele>
        <time>2023-01-04T14:22:25Z</time>
      </trkpt>
      <trkpt lat="49.96256" lon="2.36619">
        <ele>115.8</ele>
        <time>2023-01-04T14:22:26Z</time>
      </trkpt>
      <trkpt lat="49.96256" lon="2.3662">
        <ele>115.8</ele>
        <time>2023-01-04T14:22:27Z</time>
      </trkpt>
      <trkpt lat="49.96256" lon="2.36622">
        <ele>115.8</ele>
        <time>2023-01-04T14:22:28Z</time>
      </trkpt>
      <trkpt lat="49.96256" lon="2.36624">
        <ele>115.8</ele>
        <time>2023-01-04T14:22:30Z</time>
      </trkpt>
      <trkpt lat="49.96256" lon="2.36628">
        <ele>115.9</ele>
        <time>2023-01-04T14:22:31Z</time>
      </trkpt>
      <trkpt lat="49.96255" lon="2.36629">
        <ele>115.9</ele>
        <time>2023-01-04T14:22:32Z</time>
      </trkpt>
      <trkpt lat="49.96255" lon="2.36631">
        <ele>115.9</ele>
        <time>2023-01-04T14:22:33Z</time>
      </trkpt>
      <trkpt lat="49.96255" lon="2.36633">
        <ele>115.9</ele>
        <time>2023-01-04T14:22:34Z</time>
      </trkpt>
      <trkpt lat="49.96255" lon="2.36635">
        <ele>115.9</ele>
        <time>2023-01-04T14:22:35Z</time>
      </trkpt>
      <trkpt lat="49.96255" lon="2.36638">
        <ele>116</ele>
        <time>2023-01-04T14:22:36Z</time>
      </trkpt>
      <trkpt lat="49.96255" lon="2.36639">
        <ele>116</ele>
        <time>2023-01-04T14:22:38Z</time>
      </trkpt>
      <trkpt lat="49.96255" lon="2.36641">
        <ele>116</ele>
        <time>2023-01-04T14:22:39Z</time>
      </trkpt>
      <trkpt lat="49.96255" lon="2.36643">
        <ele>116</ele>
        <time>2023-01-04T14:22:40Z</time>
      </trkpt>
      <trkpt lat="49.96254" lon="2.36645">
        <ele>116</ele>
        <time>2023-01-04T14:22:41Z</time>
      </trkpt>
      <trkpt lat="49.96254" lon="2.36647">
        <ele>116</ele>
        <time>2023-01-04T14:22:42Z</time>
      </trkpt>
      <trkpt lat="49.96254" lon="2.36648">
        <ele>116</ele>
        <time>2023-01-04T14:22:43Z</time>
      </trkpt>
      <trkpt lat="49.96254" lon="2.3665">
        <ele>116</ele>
        <time>2023-01-04T14:22:45Z</time>
      </trkpt>
      <trkpt lat="49.96254" lon="2.36653">
        <ele>116.1</ele>
        <time>2023-01-04T14:22:46Z</time>
      </trkpt>
      <trkpt lat="49.96254" lon="2.36654">
        <ele>116.1</ele>
        <time>2023-01-04T14:22:47Z</time>
      </trkpt>
      <trkpt lat="49.96254" lon="2.36656">
        <ele>116.1</ele>
        <time>2023-01-04T14:22:48Z</time>
      </trkpt>
      <trkpt lat="49.96254" lon="2.36657">
        <ele>116.1</ele>
        <time>2023-01-04T14:22:49Z</time>
      </trkpt>
      <trkpt lat="49.96254" lon="2.36659">
        <ele>116.1</ele>
        <time>2023-01-04T14:22:50Z</time>
      </trkpt>
      <trkpt lat="49.96254" lon="2.36661">
        <ele>116.1</ele>
        <time>2023-01-04T14:22:51Z</time>
      </trkpt>
      <trkpt lat="49.96254" lon="2.36663">
        <ele>116.1</ele>
        <time>2023-01-04T14:22:53Z</time>
      </trkpt>
      <trkpt lat="49.96255" lon="2.36665">
        <ele>116.1</ele>
        <time>2023-01-04T14:22:54Z</time>
      </trkpt>
      <trkpt lat="49.96255" lon="2.36666">
        <ele>116.2</ele>
        <time>2023-01-04T14:22:55Z</time>
      </trkpt>
      <trkpt lat="49.96255" lon="2.36669">
        <ele>116.2</ele>
        <time>2023-01-04T14:22:56Z</time>
      </trkpt>
      <trkpt lat="49.96256" lon="2.3667">
        <ele>116.2</ele>
        <time>2023-01-04T14:22:57Z</time>
      </trkpt>
      <trkpt lat="49.96256" lon="2.36672">
        <ele>116.2</ele>
        <time>2023-01-04T14:22:58Z</time>
      </trkpt>
      <trkpt lat="49.96256" lon="2.36674">
        <ele>116.2</ele>
        <time>2023-01-04T14:23:00Z</time>
      </trkpt>
      <trkpt lat="49.96257" lon="2.36677">
        <ele>116.2</ele>
        <time>2023-01-04T14:23:01Z</time>
      </trkpt>
      <trkpt lat="49.96257" lon="2.36678">
        <ele>116.2</ele>
        <time>2023-01-04T14:23:02Z</time>
      </trkpt>
      <trkpt lat="49.96257" lon="2.3668">
        <ele>116.3</ele>
        <time>2023-01-04T14:23:03Z</time>
      </trkpt>
      <trkpt lat="49.96258" lon="2.36681">
        <ele>116.3</ele>
        <time>2023-01-04T14:23:04Z</time>
      </trkpt>
      <trkpt lat="49.96258" lon="2.36683">
        <ele>116.3</ele>
        <time>2023-01-04T14:23:05Z</time>
      </trkpt>
      <trkpt lat="49.96259" lon="2.36686">
        <ele>116.3</ele>
        <time>2023-01-04T14:23:06Z</time>
      </trkpt>
      <trkpt lat="49.96259" lon="2.36687">
        <ele>116.3</ele>
        <time>2023-01-04T14:23:07Z</time>
      </trkpt>
      <trkpt lat="49.96259" lon="2.36689">
        <ele>116.3</ele>
        <time>2023-01-04T14:23:08Z</time>
      </trkpt>
      <trkpt lat="49.96259" lon="2.36691">
        <ele>116.3</ele>
        <time>2023-01-04T14:23:10Z</time>
      </trkpt>
      <trkpt lat="49.96259" lon="2.36694">
        <ele>116.3</ele>
        <time>2023-01-04T14:23:11Z</time>
      </trkpt>
      <trkpt lat="49.96259" lon="2.36695">
        <ele>116.3</ele>
        <time>2023-01-04T14:23:12Z</time>
      </trkpt>
      <trkpt lat="49.96259" lon="2.36697">
        <ele>116.3</ele>
        <time>2023-01-04T14:23:13Z</time>
      </trkpt>
      <trkpt lat="49.96259" lon="2.36699">
        <ele>116.3</ele>
        <time>2023-01-04T14:23:14Z</time>
      </trkpt>
      <trkpt lat="49.96259" lon="2.36701">
        <ele>116.3</ele>
        <time>2023-01-04T14:23:15Z</time>
      </trkpt>
      <trkpt lat="49.96259" lon="2.36703">
        <ele>116.3</ele>
        <time>2023-01-04T14:23:16Z</time>
      </trkpt>
      <trkpt lat="49.9626" lon="2.36705">
        <ele>116.3</ele>
        <time>2023-01-04T14:23:18Z</time>
      </trkpt>
      <trkpt lat="49.9626" lon="2.36706">
        <ele>116.3</ele>
        <time>2023-01-04T14:23:19Z</time>
      </trkpt>
      <trkpt lat="49.9626" lon="2.36708">
        <ele>116.3</ele>
        <time>2023-01-04T14:23:20Z</time>
      </trkpt>
      <trkpt lat="49.9626" lon="2.36712">
        <ele>116.3</ele>
        <time>2023-01-04T14:23:21Z</time>
      </trkpt>
      <trkpt lat="49.9626" lon="2.36713">
        <ele>116.4</ele>
        <time>2023-01-04T14:23:22Z</time>
      </trkpt>
      <trkpt lat="49.9626" lon="2.36714">
        <ele>116.4</ele>
        <time>2023-01-04T14:23:23Z</time>
      </trkpt>
      <trkpt lat="49.9626" lon="2.36717">
        <ele>116.4</ele>
        <time>2023-01-04T14:23:24Z</time>
      </trkpt>
      <trkpt lat="49.9626" lon="2.36719">
        <ele>116.4</ele>
        <time>2023-01-04T14:23:25Z</time>
      </trkpt>
      <trkpt lat="49.9626" lon="2.3672">
        <ele>116.4</ele>
        <time>2023-01-04T14:23:26Z</time>
      </trkpt>
      <trkpt lat="49.9626" lon="2.36724">
        <ele>116.4</ele>
        <time>2023-01-04T14:23:28Z</time>
      </trkpt>
      <trkpt lat="49.9626" lon="2.36725">
        <ele>116.4</ele>
        <time>2023-01-04T14:23:29Z</time>
      </trkpt>
      <trkpt lat="49.9626" lon="2.36727">
        <ele>116.5</ele>
        <time>2023-01-04T14:23:30Z</time>
      </trkpt>
      <trkpt lat="49.9626" lon="2.3673">
        <ele>116.5</ele>
        <time>2023-01-04T14:23:31Z</time>
      </trkpt>
      <trkpt lat="49.9626" lon="2.36731">
        <ele>116.5</ele>
        <time>2023-01-04T14:23:32Z</time>
      </trkpt>
      <trkpt lat="49.9626" lon="2.36732">
        <ele>116.5</ele>
        <time>2023-01-04T14:23:33Z</time>
      </trkpt>
      <trkpt lat="49.96261" lon="2.36736">
        <ele>116.5</ele>
        <time>2023-01-04T14:23:34Z</time>
      </trkpt>
      <trkpt lat="49.96261" lon="2.36738">
        <ele>116.5</ele>
        <time>2023-01-04T14:23:36Z</time>
      </trkpt>
      <trkpt lat="49.96261" lon="2.36739">
        <ele>116.6</ele>
        <time>2023-01-04T14:23:37Z</time>
      </trkpt>
      <trkpt lat="49.96261" lon="2.36741">
        <ele>116.6</ele>
        <time>2023-01-04T14:23:38Z</time>
      </trkpt>
      <trkpt lat="49.96261" lon="2.36743">
        <ele>116.6</ele>
        <time>2023-01-04T14:23:39Z</time>
      </trkpt>
      <trkpt lat="49.96261" lon="2.36744">
        <ele>116.6</ele>
        <time>2023-01-04T14:23:40Z</time>
      </trkpt>
      <trkpt lat="49.96261" lon="2.36747">
        <ele>116.6</ele>
        <time>2023-01-04T14:23:41Z</time>
      </trkpt>
      <trkpt lat="49.96262" lon="2.36748">
        <ele>116.6</ele>
        <time>2023-01-04T14:23:43Z</time>
      </trkpt>
      <trkpt lat="49.96262" lon="2.36752">
        <ele>116.7</ele>
        <time>2023-01-04T14:23:44Z</time>
      </trkpt>
      <trkpt lat="49.96262" lon="2.36753">
        <ele>116.7</ele>
        <time>2023-01-04T14:23:45Z</time>
      </trkpt>
      <trkpt lat="49.96263" lon="2.36755">
        <ele>116.7</ele>
        <time>2023-01-04T14:23:46Z</time>
      </trkpt>
      <trkpt lat="49.96263" lon="2.36756">
        <ele>116.7</ele>
        <time>2023-01-04T14:23:47Z</time>
      </trkpt>
      <trkpt lat="49.96263" lon="2.36758">
        <ele>116.7</ele>
        <time>2023-01-04T14:23:48Z</time>
      </trkpt>
      <trkpt lat="49.96263" lon="2.3676">
        <ele>116.8</ele>
        <time>2023-01-04T14:23:49Z</time>
      </trkpt>
      <trkpt lat="49.96264" lon="2.36762">
        <ele>116.8</ele>
        <time>2023-01-04T14:23:51Z</time>
      </trkpt>
      <trkpt lat="49.96264" lon="2.36765">
        <ele>116.8</ele>
        <time>2023-01-04T14:23:52Z</time>
      </trkpt>
      <trkpt lat="49.96264" lon="2.36767">
        <ele>116.8</ele>
        <time>2023-01-04T14:23:53Z</time>
      </trkpt>
      <trkpt lat="49.96264" lon="2.36768">
        <ele>116.8</ele>
        <time>2023-01-04T14:23:54Z</time>
      </trkpt>
      <trkpt lat="49.96264" lon="2.3677">
        <ele>116.8</ele>
        <time>2023-01-04T14:23:55Z</time>
      </trkpt>
      <trkpt lat="49.96264" lon="2.36774">
        <ele>116.9</ele>
        <time>2023-01-04T14:23:56Z</time>
      </trkpt>
      <trkpt lat="49.96264" lon="2.36775">
        <ele>116.9</ele>
        <time>2023-01-04T14:23:58Z</time>
      </trkpt>
      <trkpt lat="49.96264" lon="2.36776">
        <ele>116.9</ele>
        <time>2023-01-04T14:23:59Z</time>
      </trkpt>
      <trkpt lat="49.96264" lon="2.36778">
        <ele>116.9</ele>
        <time>2023-01-04T14:24:00Z</time>
      </trkpt>
      <trkpt lat="49.96264" lon="2.3678">
        <ele>116.9</ele>
        <time>2023-01-04T14:24:01Z</time>
      </trkpt>
      <trkpt lat="49.96263" lon="2.36782">
        <ele>116.9</ele>
        <time>2023-01-04T14:24:02Z</time>
      </trkpt>
      <trkpt lat="49.96263" lon="2.36784">
        <ele>116.9</ele>
        <time>2023-01-04T14:24:03Z</time>
      </trkpt>
      <trkpt lat="49.96263" lon="2.36786">
        <ele>116.9</ele>
        <time>2023-01-04T14:24:04Z</time>
      </trkpt>
      <trkpt lat="49.96263" lon="2.36788">
        <ele>116.9</ele>
        <time>2023-01-04T14:24:06Z</time>
      </trkpt>
      <trkpt lat="49.96263" lon="2.3679">
        <ele>117</ele>
        <time>2023-01-04T14:24:07Z</time>
      </trkpt>
      <trkpt lat="49.96263" lon="2.36792">
        <ele>117</ele>
        <time>2023-01-04T14:24:08Z</time>
      </trkpt>
      <trkpt lat="49.96263" lon="2.36794">
        <ele>117</ele>
        <time>2023-01-04T14:24:09Z</time>
      </trkpt>
      <trkpt lat="49.96263" lon="2.36795">
        <ele>117</ele>
        <time>2023-01-04T14:24:10Z</time>
      </trkpt>
      <trkpt lat="49.96263" lon="2.36798">
        <ele>117</ele>
        <time>2023-01-04T14:24:11Z</time>
      </trkpt>
      <trkpt lat="49.96263" lon="2.36799">
        <ele>117</ele>
        <time>2023-01-04T14:24:12Z</time>
      </trkpt>
      <trkpt lat="49.96263" lon="2.36801">
        <ele>117</ele>
        <time>2023-01-04T14:24:14Z</time>
      </trkpt>
      <trkpt lat="49.96263" lon="2.36803">
        <ele>117</ele>
        <time>2023-01-04T14:24:15Z</time>
      </trkpt>
      <trkpt lat="49.96263" lon="2.36804">
        <ele>117</ele>
        <time>2023-01-04T14:24:16Z</time>
      </trkpt>
      <trkpt lat="49.96263" lon="2.36806">
        <ele>117.1</ele>
        <time>2023-01-04T14:24:17Z</time>
      </trkpt>
      <trkpt lat="49.96263" lon="2.36809">
        <ele>117.1</ele>
        <time>2023-01-04T14:24:18Z</time>
      </trkpt>
      <trkpt lat="49.96263" lon="2.36811">
        <ele>117.1</ele>
        <time>2023-01-04T14:24:19Z</time>
      </trkpt>
      <trkpt lat="49.96263" lon="2.36812">
        <ele>117.1</ele>
        <time>2023-01-04T14:24:21Z</time>
      </trkpt>
      <trkpt lat="49.96263" lon="2.36814">
        <ele>117.1</ele>
        <time>2023-01-04T14:24:22Z</time>
      </trkpt>
      <trkpt lat="49.96263" lon="2.36815">
        <ele>117.1</ele>
        <time>2023-01-04T14:24:23Z</time>
      </trkpt>
      <trkpt lat="49.96263" lon="2.36817">
        <ele>117.1</ele>
        <time>2023-01-04T14:24:24Z</time>
      </trkpt>
      <trkpt lat="49.96263" lon="2.36819">
        <ele>117.1</ele>
        <time>2023-01-04T14:24:25Z</time>
      </trkpt>
      <trkpt lat="49.96263" lon="2.36821">
        <ele>117.2</ele>
        <time>2023-01-04T14:24:26Z</time>
      </trkpt>
      <trkpt lat="49.96264" lon="2.36824">
        <ele>117.2</ele>
        <time>2023-01-04T14:24:27Z</time>
      </trkpt>
      <trkpt lat="49.96264" lon="2.36826">
        <ele>117.2</ele>
        <time>2023-01-04T14:24:29Z</time>
      </trkpt>
      <trkpt lat="49.96264" lon="2.36827">
        <ele>117.2</ele>
        <time>2023-01-04T14:24:30Z</time>
      </trkpt>
      <trkpt lat="49.96264" lon="2.36829">
        <ele>117.2</ele>
        <time>2023-01-04T14:24:31Z</time>
      </trkpt>
      <trkpt lat="49.96264" lon="2.36832">
        <ele>117.2</ele>
        <time>2023-01-04T14:24:32Z</time>
      </trkpt>
      <trkpt lat="49.96264" lon="2.36833">
        <ele>117.3</ele>
        <time>2023-01-04T14:24:33Z</time>
      </trkpt>
      <trkpt lat="49.96264" lon="2.36835">
        <ele>117.3</ele>
        <time>2023-01-04T14:24:34Z</time>
      </trkpt>
      <trkpt lat="49.96264" lon="2.36837">
        <ele>117.3</ele>
        <time>2023-01-04T14:24:36Z</time>
      </trkpt>
      <trkpt lat="49.96264" lon="2.3684">
        <ele>117.3</ele>
        <time>2023-01-04T14:24:37Z</time>
      </trkpt>
      <trkpt lat="49.96264" lon="2.36842">
        <ele>117.3</ele>
        <time>2023-01-04T14:24:38Z</time>
      </trkpt>
      <trkpt lat="49.96264" lon="2.36845">
        <ele>117.3</ele>
        <time>2023-01-04T14:24:39Z</time>
      </trkpt>
      <trkpt lat="49.96264" lon="2.36847">
        <ele>117.3</ele>
        <time>2023-01-04T14:24:40Z</time>
      </trkpt>
      <trkpt lat="49.96264" lon="2.36849">
        <ele>117.3</ele>
        <time>2023-01-04T14:24:41Z</time>
      </trkpt>
      <trkpt lat="49.96264" lon="2.36852">
        <ele>117.4</ele>
        <time>2023-01-04T14:24:42Z</time>
      </trkpt>
      <trkpt lat="49.96264" lon="2.36854">
        <ele>117.4</ele>
        <time>2023-01-04T14:24:44Z</time>
      </trkpt>
      <trkpt lat="49.96264" lon="2.36855">
        <ele>117.4</ele>
        <time>2023-01-04T14:24:45Z</time>
      </trkpt>
      <trkpt lat="49.96264" lon="2.36857">
        <ele>117.4</ele>
        <time>2023-01-04T14:24:46Z</time>
      </trkpt>
      <trkpt lat="49.96264" lon="2.3686">
        <ele>117.4</ele>
        <time>2023-01-04T14:24:47Z</time>
      </trkpt>
      <trkpt lat="49.96264" lon="2.36862">
        <ele>117.4</ele>
        <time>2023-01-04T14:24:48Z</time>
      </trkpt>
      <trkpt lat="49.96265" lon="2.36863">
        <ele>117.4</ele>
        <time>2023-01-04T14:24:49Z</time>
      </trkpt>
      <trkpt lat="49.96265" lon="2.36865">
        <ele>117.4</ele>
        <time>2023-01-04T14:24:50Z</time>
      </trkpt>
      <trkpt lat="49.96265" lon="2.36868">
        <ele>117.4</ele>
        <time>2023-01-04T14:24:52Z</time>
      </trkpt>
      <trkpt lat="49.96265" lon="2.36869">
        <ele>117.4</ele>
        <time>2023-01-04T14:24:53Z</time>
      </trkpt>
      <trkpt lat="49.96266" lon="2.36871">
        <ele>117.4</ele>
        <time>2023-01-04T14:24:54Z</time>
      </trkpt>
      <trkpt lat="49.96266" lon="2.36873">
        <ele>117.4</ele>
        <time>2023-01-04T14:24:55Z</time>
      </trkpt>
      <trkpt lat="49.96266" lon="2.36875">
        <ele>117.4</ele>
        <time>2023-01-04T14:24:56Z</time>
      </trkpt>
      <trkpt lat="49.96266" lon="2.36877">
        <ele>117.4</ele>
        <time>2023-01-04T14:24:57Z</time>
      </trkpt>
      <trkpt lat="49.96266" lon="2.36879">
        <ele>117.4</ele>
        <time>2023-01-04T14:24:58Z</time>
      </trkpt>
      <trkpt lat="49.96267" lon="2.36882">
        <ele>117.5</ele>
        <time>2023-01-04T14:24:59Z</time>
      </trkpt>
      <trkpt lat="49.96267" lon="2.36883">
        <ele>117.5</ele>
        <time>2023-01-04T14:25:01Z</time>
      </trkpt>
      <trkpt lat="49.96267" lon="2.36885">
        <ele>117.5</ele>
        <time>2023-01-04T14:25:02Z</time>
      </trkpt>
      <trkpt lat="49.96267" lon="2.36886">
        <ele>117.5</ele>
        <time>2023-01-04T14:25:03Z</time>
      </trkpt>
      <trkpt lat="49.96267" lon="2.36888">
        <ele>117.5</ele>
        <time>2023-01-04T14:25:04Z</time>
      </trkpt>
      <trkpt lat="49.96267" lon="2.36889">
        <ele>117.5</ele>
        <time>2023-01-04T14:25:05Z</time>
      </trkpt>
      <trkpt lat="49.96267" lon="2.36891">
        <ele>117.5</ele>
        <time>2023-01-04T14:25:06Z</time>
      </trkpt>
      <trkpt lat="49.96267" lon="2.36893">
        <ele>117.5</ele>
        <time>2023-01-04T14:25:07Z</time>
      </trkpt>
      <trkpt lat="49.96267" lon="2.36895">
        <ele>117.5</ele>
        <time>2023-01-04T14:25:09Z</time>
      </trkpt>
      <trkpt lat="49.96267" lon="2.36897">
        <ele>117.5</ele>
        <time>2023-01-04T14:25:10Z</time>
      </trkpt>
      <trkpt lat="49.96267" lon="2.36898">
        <ele>117.5</ele>
        <time>2023-01-04T14:25:11Z</time>
      </trkpt>
      <trkpt lat="49.96266" lon="2.369">
        <ele>117.5</ele>
        <time>2023-01-04T14:25:12Z</time>
      </trkpt>
      <trkpt lat="49.96266" lon="2.36902">
        <ele>117.5</ele>
        <time>2023-01-04T14:25:13Z</time>
      </trkpt>
      <trkpt lat="49.96266" lon="2.36903">
        <ele>117.5</ele>
        <time>2023-01-04T14:25:14Z</time>
      </trkpt>
      <trkpt lat="49.96266" lon="2.36905">
        <ele>117.6</ele>
        <time>2023-01-04T14:25:15Z</time>
      </trkpt>
      <trkpt lat="49.96267" lon="2.36907">
        <ele>117.6</ele>
        <time>2023-01-04T14:25:16Z</time>
      </trkpt>
      <trkpt lat="49.96267" lon="2.36909">
        <ele>117.6</ele>
        <time>2023-01-04T14:25:18Z</time>
      </trkpt>
      <trkpt lat="49.96267" lon="2.36911">
        <ele>117.6</ele>
        <time>2023-01-04T14:25:19Z</time>
      </trkpt>
      <trkpt lat="49.96267" lon="2.36913">
        <ele>117.6</ele>
        <time>2023-01-04T14:25:20Z</time>
      </trkpt>
      <trkpt lat="49.96267" lon="2.36914">
        <ele>117.6</ele>
        <time>2023-01-04T14:25:21Z</time>
      </trkpt>
      <trkpt lat="49.96267" lon="2.36917">
        <ele>117.6</ele>
        <time>2023-01-04T14:25:22Z</time>
      </trkpt>
      <trkpt lat="49.96267" lon="2.36918">
        <ele>117.6</ele>
        <time>2023-01-04T14:25:23Z</time>
      </trkpt>
      <trkpt lat="49.96267" lon="2.3692">
        <ele>117.6</ele>
        <time>2023-01-04T14:25:24Z</time>
      </trkpt>
      <trkpt lat="49.96267" lon="2.36922">
        <ele>117.6</ele>
        <time>2023-01-04T14:25:25Z</time>
      </trkpt>
      <trkpt lat="49.96267" lon="2.36924">
        <ele>117.6</ele>
        <time>2023-01-04T14:25:26Z</time>
      </trkpt>
      <trkpt lat="49.96267" lon="2.36927">
        <ele>117.6</ele>
        <time>2023-01-04T14:25:28Z</time>
      </trkpt>
      <trkpt lat="49.96267" lon="2.36929">
        <ele>117.6</ele>
        <time>2023-01-04T14:25:29Z</time>
      </trkpt>
      <trkpt lat="49.96267" lon="2.3693">
        <ele>117.6</ele>
        <time>2023-01-04T14:25:30Z</time>
      </trkpt>
      <trkpt lat="49.96267" lon="2.36932">
        <ele>117.6</ele>
        <time>2023-01-04T14:25:31Z</time>
      </trkpt>
      <trkpt lat="49.96267" lon="2.36934">
        <ele>117.5</ele>
        <time>2023-01-04T14:25:32Z</time>
      </trkpt>
      <trkpt lat="49.96267" lon="2.36936">
        <ele>117.5</ele>
        <time>2023-01-04T14:25:33Z</time>
      </trkpt>
      <trkpt lat="49.96267" lon="2.36938">
        <ele>117.5</ele>
        <time>2023-01-04T14:25:35Z</time>
      </trkpt>
      <trkpt lat="49.96268" lon="2.3694">
        <ele>117.5</ele>
        <time>2023-01-04T14:25:36Z</time>
      </trkpt>
      <trkpt lat="49.96268" lon="2.36943">
        <ele>117.5</ele>
        <time>2023-01-04T14:25:37Z</time>
      </trkpt>
      <trkpt lat="49.96268" lon="2.36944">
        <ele>117.5</ele>
        <time>2023-01-04T14:25:38Z</time>
      </trkpt>
      <trkpt lat="49.96268" lon="2.36946">
        <ele>117.5</ele>
        <time>2023-01-04T14:25:39Z</time>
      </trkpt>
      <trkpt lat="49.96268" lon="2.36948">
        <ele>117.5</ele>
        <time>2023-01-04T14:25:40Z</time>
      </trkpt>
      <trkpt lat="49.96268" lon="2.36949">
        <ele>117.5</ele>
        <time>2023-01-04T14:25:41Z</time>
      </trkpt>
      <trkpt lat="49.96268" lon="2.36952">
        <ele>117.5</ele>
        <time>2023-01-04T14:25:43Z</time>
      </trkpt>
      <trkpt lat="49.96267" lon="2.36954">
        <ele>117.5</ele>
        <time>2023-01-04T14:25:44Z</time>
      </trkpt>
      <trkpt lat="49.96267" lon="2.36957">
        <ele>117.5</ele>
        <time>2023-01-04T14:25:45Z</time>
      </trkpt>
      <trkpt lat="49.96267" lon="2.36959">
        <ele>117.5</ele>
        <time>2023-01-04T14:25:46Z</time>
      </trkpt>
      <trkpt lat="49.96267" lon="2.3696">
        <ele>117.5</ele>
        <time>2023-01-04T14:25:47Z</time>
      </trkpt>
      <trkpt lat="49.96267" lon="2.36962">
        <ele>117.4</ele>
        <time>2023-01-04T14:25:48Z</time>
      </trkpt>
      <trkpt lat="49.96266" lon="2.36963">
        <ele>117.4</ele>
        <time>2023-01-04T14:25:49Z</time>
      </trkpt>
      <trkpt lat="49.96266" lon="2.36965">
        <ele>117.4</ele>
        <time>2023-01-04T14:25:51Z</time>
      </trkpt>
      <trkpt lat="49.96266" lon="2.36968">
        <ele>117.4</ele>
        <time>2023-01-04T14:25:52Z</time>
      </trkpt>
      <trkpt lat="49.96266" lon="2.3697">
        <ele>117.4</ele>
        <time>2023-01-04T14:25:53Z</time>
      </trkpt>
      <trkpt lat="49.96265" lon="2.36972">
        <ele>117.4</ele>
        <time>2023-01-04T14:25:54Z</time>
      </trkpt>
      <trkpt lat="49.96265" lon="2.36974">
        <ele>117.4</ele>
        <time>2023-01-04T14:25:55Z</time>
      </trkpt>
      <trkpt lat="49.96265" lon="2.36976">
        <ele>117.4</ele>
        <time>2023-01-04T14:25:56Z</time>
      </trkpt>
      <trkpt lat="49.96264" lon="2.36979">
        <ele>117.4</ele>
        <time>2023-01-04T14:25:57Z</time>
      </trkpt>
      <trkpt lat="49.96264" lon="2.3698">
        <ele>117.4</ele>
        <time>2023-01-04T14:25:58Z</time>
      </trkpt>
      <trkpt lat="49.96263" lon="2.36982">
        <ele>117.4</ele>
        <time>2023-01-04T14:25:59Z</time>
      </trkpt>
      <trkpt lat="49.96263" lon="2.36984">
        <ele>117.4</ele>
        <time>2023-01-04T14:26:01Z</time>
      </trkpt>
      <trkpt lat="49.96262" lon="2.36986">
        <ele>117.4</ele>
        <time>2023-01-04T14:26:02Z</time>
      </trkpt>
      <trkpt lat="49.96262" lon="2.36988">
        <ele>117.4</ele>
        <time>2023-01-04T14:26:03Z</time>
      </trkpt>
      <trkpt lat="49.96261" lon="2.3699">
        <ele>117.4</ele>
        <time>2023-01-04T14:26:04Z</time>
      </trkpt>
      <trkpt lat="49.96261" lon="2.36992">
        <ele>117.4</ele>
        <time>2023-01-04T14:26:05Z</time>
      </trkpt>
      <trkpt lat="49.9626" lon="2.36994">
        <ele>117.4</ele>
        <time>2023-01-04T14:26:07Z</time>
      </trkpt>
      <trkpt lat="49.9626" lon="2.36997">
        <ele>117.4</ele>
        <time>2023-01-04T14:26:08Z</time>
      </trkpt>
      <trkpt lat="49.96259" lon="2.37001">
        <ele>117.4</ele>
        <time>2023-01-04T14:26:09Z</time>
      </trkpt>
      <trkpt lat="49.96259" lon="2.37002">
        <ele>117.4</ele>
        <time>2023-01-04T14:26:10Z</time>
      </trkpt>
      <trkpt lat="49.96259" lon="2.37003">
        <ele>117.5</ele>
        <time>2023-01-04T14:26:11Z</time>
      </trkpt>
      <trkpt lat="49.96258" lon="2.37006">
        <ele>117.5</ele>
        <time>2023-01-04T14:26:12Z</time>
      </trkpt>
      <trkpt lat="49.96258" lon="2.37007">
        <ele>117.5</ele>
        <time>2023-01-04T14:26:13Z</time>
      </trkpt>
      <trkpt lat="49.96258" lon="2.3701">
        <ele>117.5</ele>
        <time>2023-01-04T14:26:14Z</time>
      </trkpt>
      <trkpt lat="49.96257" lon="2.37012">
        <ele>117.5</ele>
        <time>2023-01-04T14:26:16Z</time>
      </trkpt>
      <trkpt lat="49.96257" lon="2.37013">
        <ele>117.5</ele>
        <time>2023-01-04T14:26:17Z</time>
      </trkpt>
      <trkpt lat="49.96257" lon="2.37015">
        <ele>117.5</ele>
        <time>2023-01-04T14:26:18Z</time>
      </trkpt>
      <trkpt lat="49.96256" lon="2.37017">
        <ele>117.4</ele>
        <time>2023-01-04T14:26:19Z</time>
      </trkpt>
      <trkpt lat="49.96256" lon="2.37018">
        <ele>117.4</ele>
        <time>2023-01-04T14:26:20Z</time>
      </trkpt>
      <trkpt lat="49.96256" lon="2.3702">
        <ele>117.4</ele>
        <time>2023-01-04T14:26:21Z</time>
      </trkpt>
      <trkpt lat="49.96255" lon="2.37022">
        <ele>117.4</ele>
        <time>2023-01-04T14:26:22Z</time>
      </trkpt>
      <trkpt lat="49.96255" lon="2.37023">
        <ele>117.4</ele>
        <time>2023-01-04T14:26:23Z</time>
      </trkpt>
      <trkpt lat="49.96254" lon="2.37025">
        <ele>117.4</ele>
        <time>2023-01-04T14:26:25Z</time>
      </trkpt>
      <trkpt lat="49.96253" lon="2.37027">
        <ele>117.4</ele>
        <time>2023-01-04T14:26:26Z</time>
      </trkpt>
      <trkpt lat="49.96253" lon="2.37029">
        <ele>117.3</ele>
        <time>2023-01-04T14:26:27Z</time>
      </trkpt>
      <trkpt lat="49.96253" lon="2.3703">
        <ele>117.3</ele>
        <time>2023-01-04T14:26:28Z</time>
      </trkpt>
      <trkpt lat="49.96253" lon="2.37032">
        <ele>117.3</ele>
        <time>2023-01-04T14:26:29Z</time>
      </trkpt>
      <trkpt lat="49.96252" lon="2.37035">
        <ele>117.3</ele>
        <time>2023-01-04T14:26:30Z</time>
      </trkpt>
      <trkpt lat="49.96252" lon="2.37036">
        <ele>117.3</ele>
        <time>2023-01-04T14:26:31Z</time>
      </trkpt>
      <trkpt lat="49.96252" lon="2.37037">
        <ele>117.2</ele>
        <time>2023-01-04T14:26:32Z</time>
      </trkpt>
      <trkpt lat="49.96251" lon="2.37041">
        <ele>117.2</ele>
        <time>2023-01-04T14:26:34Z</time>
      </trkpt>
      <trkpt lat="49.96251" lon="2.37042">
        <ele>117.2</ele>
        <time>2023-01-04T14:26:35Z</time>
      </trkpt>
      <trkpt lat="49.96251" lon="2.37043">
        <ele>117.2</ele>
        <time>2023-01-04T14:26:36Z</time>
      </trkpt>
      <trkpt lat="49.9625" lon="2.37046">
        <ele>117.1</ele>
        <time>2023-01-04T14:26:37Z</time>
      </trkpt>
      <trkpt lat="49.9625" lon="2.37048">
        <ele>117.1</ele>
        <time>2023-01-04T14:26:38Z</time>
      </trkpt>
      <trkpt lat="49.96249" lon="2.3705">
        <ele>117.1</ele>
        <time>2023-01-04T14:26:39Z</time>
      </trkpt>
      <trkpt lat="49.96249" lon="2.37051">
        <ele>117.1</ele>
        <time>2023-01-04T14:26:40Z</time>
      </trkpt>
      <trkpt lat="49.96248" lon="2.37054">
        <ele>117.1</ele>
        <time>2023-01-04T14:26:42Z</time>
      </trkpt>
      <trkpt lat="49.96247" lon="2.37056">
        <ele>117.1</ele>
        <time>2023-01-04T14:26:43Z</time>
      </trkpt>
      <trkpt lat="49.96247" lon="2.37058">
        <ele>117</ele>
        <time>2023-01-04T14:26:44Z</time>
      </trkpt>
      <trkpt lat="49.96247" lon="2.37061">
        <ele>117</ele>
        <time>2023-01-04T14:26:45Z</time>
      </trkpt>
      <trkpt lat="49.96248" lon="2.37062">
        <ele>117</ele>
        <time>2023-01-04T14:26:46Z</time>
      </trkpt>
      <trkpt lat="49.96248" lon="2.37063">
        <ele>117</ele>
        <time>2023-01-04T14:26:47Z</time>
      </trkpt>
      <trkpt lat="49.96248" lon="2.37064">
        <ele>117</ele>
        <time>2023-01-04T14:26:49Z</time>
      </trkpt>
      <trkpt lat="49.96249" lon="2.37066">
        <ele>117</ele>
        <time>2023-01-04T14:26:50Z</time>
      </trkpt>
      <trkpt lat="49.9625" lon="2.37068">
        <ele>116.9</ele>
        <time>2023-01-04T14:26:51Z</time>
      </trkpt>
      <trkpt lat="49.96251" lon="2.37069">
        <ele>116.9</ele>
        <time>2023-01-04T14:26:52Z</time>
      </trkpt>
      <trkpt lat="49.96252" lon="2.3707">
        <ele>116.9</ele>
        <time>2023-01-04T14:26:53Z</time>
      </trkpt>
      <trkpt lat="49.96253" lon="2.37071">
        <ele>116.9</ele>
        <time>2023-01-04T14:26:54Z</time>
      </trkpt>
      <trkpt lat="49.96255" lon="2.37071">
        <ele>116.9</ele>
        <time>2023-01-04T14:26:55Z</time>
      </trkpt>
      <trkpt lat="49.96256" lon="2.37072">
        <ele>116.9</ele>
        <time>2023-01-04T14:26:57Z</time>
      </trkpt>
      <trkpt lat="49.96257" lon="2.37072">
        <ele>116.8</ele>
        <time>2023-01-04T14:26:58Z</time>
      </trkpt>
      <trkpt lat="49.96258" lon="2.37072">
        <ele>116.8</ele>
        <time>2023-01-04T14:26:59Z</time>
      </trkpt>
      <trkpt lat="49.96259" lon="2.37073">
        <ele>116.8</ele>
        <time>2023-01-04T14:27:00Z</time>
      </trkpt>
      <trkpt lat="49.9626" lon="2.37073">
        <ele>116.8</ele>
        <time>2023-01-04T14:27:01Z</time>
      </trkpt>
      <trkpt lat="49.96261" lon="2.37073">
        <ele>116.8</ele>
        <time>2023-01-04T14:27:02Z</time>
      </trkpt>
      <trkpt lat="49.96262" lon="2.37074">
        <ele>116.8</ele>
        <time>2023-01-04T14:27:03Z</time>
      </trkpt>
      <trkpt lat="49.96263" lon="2.37074">
        <ele>116.8</ele>
        <time>2023-01-04T14:27:04Z</time>
      </trkpt>
      <trkpt lat="49.96265" lon="2.37074">
        <ele>116.7</ele>
        <time>2023-01-04T14:27:06Z</time>
      </trkpt>
      <trkpt lat="49.96266" lon="2.37075">
        <ele>116.7</ele>
        <time>2023-01-04T14:27:07Z</time>
      </trkpt>
      <trkpt lat="49.96267" lon="2.37075">
        <ele>116.7</ele>
        <time>2023-01-04T14:27:08Z</time>
      </trkpt>
      <trkpt lat="49.96268" lon="2.37076">
        <ele>116.7</ele>
        <time>2023-01-04T14:27:09Z</time>
      </trkpt>
      <trkpt lat="49.96269" lon="2.37076">
        <ele>116.7</ele>
        <time>2023-01-04T14:27:10Z</time>
      </trkpt>
      <trkpt lat="49.9627" lon="2.37077">
        <ele>116.7</ele>
        <time>2023-01-04T14:27:11Z</time>
      </trkpt>
      <trkpt lat="49.96272" lon="2.37078">
        <ele>116.6</ele>
        <time>2023-01-04T14:27:13Z</time>
      </trkpt>
      <trkpt lat="49.96273" lon="2.37079">
        <ele>116.6</ele>
        <time>2023-01-04T14:27:14Z</time>
      </trkpt>
      <trkpt lat="49.96274" lon="2.37081">
        <ele>116.6</ele>
        <time>2023-01-04T14:27:15Z</time>
      </trkpt>
      <trkpt lat="49.96275" lon="2.37081">
        <ele>116.6</ele>
        <time>2023-01-04T14:27:16Z</time>
      </trkpt>
      <trkpt lat="49.96276" lon="2.37082">
        <ele>116.6</ele>
        <time>2023-01-04T14:27:17Z</time>
      </trkpt>
      <trkpt lat="49.96277" lon="2.37082">
        <ele>116.6</ele>
        <time>2023-01-04T14:27:18Z</time>
      </trkpt>
      <trkpt lat="49.96278" lon="2.37083">
        <ele>116.5</ele>
        <time>2023-01-04T14:27:19Z</time>
      </trkpt>
      <trkpt lat="49.96279" lon="2.37084">
        <ele>116.5</ele>
        <time>2023-01-04T14:27:21Z</time>
      </trkpt>
      <trkpt lat="49.9628" lon="2.37084">
        <ele>116.5</ele>
        <time>2023-01-04T14:27:22Z</time>
      </trkpt>
      <trkpt lat="49.96281" lon="2.37085">
        <ele>116.5</ele>
        <time>2023-01-04T14:27:23Z</time>
      </trkpt>
      <trkpt lat="49.96282" lon="2.37085">
        <ele>116.5</ele>
        <time>2023-01-04T14:27:24Z</time>
      </trkpt>
      <trkpt lat="49.96283" lon="2.37086">
        <ele>116.5</ele>
        <time>2023-01-04T14:27:25Z</time>
      </trkpt>
      <trkpt lat="49.96284" lon="2.37086">
        <ele>116.5</ele>
        <time>2023-01-04T14:27:26Z</time>
      </trkpt>
      <trkpt lat="49.96285" lon="2.37087">
        <ele>116.4</ele>
        <time>2023-01-04T14:27:28Z</time>
      </trkpt>
      <trkpt lat="49.96286" lon="2.37088">
        <ele>116.4</ele>
        <time>2023-01-04T14:27:29Z</time>
      </trkpt>
      <trkpt lat="49.96287" lon="2.37088">
        <ele>116.4</ele>
        <time>2023-01-04T14:27:30Z</time>
      </trkpt>
      <trkpt lat="49.96288" lon="2.37089">
        <ele>116.4</ele>
        <time>2023-01-04T14:27:31Z</time>
      </trkpt>
      <trkpt lat="49.96288" lon="2.37088">
        <ele>116.4</ele>
        <time>2023-01-04T14:27:32Z</time>
      </trkpt>
      <trkpt lat="49.96288" lon="2.37087">
        <ele>116.4</ele>
        <time>2023-01-04T14:27:33Z</time>
      </trkpt>
      <trkpt lat="49.96289" lon="2.37086">
        <ele>116.4</ele>
        <time>2023-01-04T14:27:34Z</time>
      </trkpt>
      <trkpt lat="49.9629" lon="2.37086">
        <ele>116.4</ele>
        <time>2023-01-04T14:27:36Z</time>
      </trkpt>
      <trkpt lat="49.96291" lon="2.37086">
        <ele>116.3</ele>
        <time>2023-01-04T14:27:37Z</time>
      </trkpt>
      <trkpt lat="49.96293" lon="2.37088">
        <ele>116.3</ele>
        <time>2023-01-04T14:27:38Z</time>
      </trkpt>
      <trkpt lat="49.96294" lon="2.37091">
        <ele>116.3</ele>
        <time>2023-01-04T14:27:39Z</time>
      </trkpt>
      <trkpt lat="49.96295" lon="2.37091">
        <ele>116.3</ele>
        <time>2023-01-04T14:27:40Z</time>
      </trkpt>
      <trkpt lat="49.96295" lon="2.37092">
        <ele>116.3</ele>
        <time>2023-01-04T14:27:41Z</time>
      </trkpt>
      <trkpt lat="49.96296" lon="2.37093">
        <ele>116.2</ele>
        <time>2023-01-04T14:27:42Z</time>
      </trkpt>
      <trkpt lat="49.96297" lon="2.37094">
        <ele>116.2</ele>
        <time>2023-01-04T14:27:44Z</time>
      </trkpt>
      <trkpt lat="49.96298" lon="2.37095">
        <ele>116.2</ele>
        <time>2023-01-04T14:27:45Z</time>
      </trkpt>
      <trkpt lat="49.96299" lon="2.37096">
        <ele>116.1</ele>
        <time>2023-01-04T14:27:46Z</time>
      </trkpt>
      <trkpt lat="49.963" lon="2.37096">
        <ele>116.1</ele>
        <time>2023-01-04T14:27:47Z</time>
      </trkpt>
      <trkpt lat="49.96301" lon="2.37096">
        <ele>116.1</ele>
        <time>2023-01-04T14:27:48Z</time>
      </trkpt>
      <trkpt lat="49.96303" lon="2.37097">
        <ele>116.1</ele>
        <time>2023-01-04T14:27:49Z</time>
      </trkpt>
      <trkpt lat="49.96303" lon="2.37098">
        <ele>116</ele>
        <time>2023-01-04T14:27:50Z</time>
      </trkpt>
      <trkpt lat="49.96304" lon="2.37098">
        <ele>116</ele>
        <time>2023-01-04T14:27:52Z</time>
      </trkpt>
      <trkpt lat="49.96305" lon="2.37098">
        <ele>116</ele>
        <time>2023-01-04T14:27:53Z</time>
      </trkpt>
      <trkpt lat="49.96305" lon="2.37099">
        <ele>116</ele>
        <time>2023-01-04T14:27:54Z</time>
      </trkpt>
      <trkpt lat="49.96306" lon="2.37099">
        <ele>116</ele>
        <time>2023-01-04T14:27:55Z</time>
      </trkpt>
      <trkpt lat="49.96306" lon="2.371">
        <ele>116</ele>
        <time>2023-01-04T14:27:56Z</time>
      </trkpt>
      <trkpt lat="49.96307" lon="2.371">
        <ele>115.9</ele>
        <time>2023-01-04T14:27:57Z</time>
      </trkpt>
      <trkpt lat="49.9631" lon="2.37102">
        <ele>115.9</ele>
        <time>2023-01-04T14:27:58Z</time>
      </trkpt>
      <trkpt lat="49.96311" lon="2.37103">
        <ele>115.8</ele>
        <time>2023-01-04T14:28:00Z</time>
      </trkpt>
      <trkpt lat="49.96312" lon="2.37104">
        <ele>115.8</ele>
        <time>2023-01-04T14:28:01Z</time>
      </trkpt>
      <trkpt lat="49.96313" lon="2.37105">
        <ele>115.8</ele>
        <time>2023-01-04T14:28:02Z</time>
      </trkpt>
      <trkpt lat="49.96315" lon="2.37106">
        <ele>115.7</ele>
        <time>2023-01-04T14:28:03Z</time>
      </trkpt>
      <trkpt lat="49.96317" lon="2.37107">
        <ele>115.7</ele>
        <time>2023-01-04T14:28:04Z</time>
      </trkpt>
      <trkpt lat="49.96319" lon="2.37108">
        <ele>115.6</ele>
        <time>2023-01-04T14:28:05Z</time>
      </trkpt>
      <trkpt lat="49.9632" lon="2.37109">
        <ele>115.6</ele>
        <time>2023-01-04T14:28:06Z</time>
      </trkpt>
      <trkpt lat="49.96322" lon="2.37109">
        <ele>115.6</ele>
        <time>2023-01-04T14:28:08Z</time>
      </trkpt>
      <trkpt lat="49.96323" lon="2.3711">
        <ele>115.5</ele>
        <time>2023-01-04T14:28:09Z</time>
      </trkpt>
      <trkpt lat="49.96325" lon="2.37111">
        <ele>115.5</ele>
        <time>2023-01-04T14:28:10Z</time>
      </trkpt>
      <trkpt lat="49.96326" lon="2.37111">
        <ele>115.4</ele>
        <time>2023-01-04T14:28:11Z</time>
      </trkpt>
      <trkpt lat="49.96328" lon="2.37112">
        <ele>115.4</ele>
        <time>2023-01-04T14:28:12Z</time>
      </trkpt>
      <trkpt lat="49.96329" lon="2.37113">
        <ele>115.4</ele>
        <time>2023-01-04T14:28:13Z</time>
      </trkpt>
      <trkpt lat="49.9633" lon="2.37114">
        <ele>115.3</ele>
        <time>2023-01-04T14:28:14Z</time>
      </trkpt>
      <trkpt lat="49.96331" lon="2.37114">
        <ele>115.3</ele>
        <time>2023-01-04T14:28:15Z</time>
      </trkpt>
      <trkpt lat="49.96332" lon="2.37115">
        <ele>115.3</ele>
        <time>2023-01-04T14:28:16Z</time>
      </trkpt>
      <trkpt lat="49.96333" lon="2.37116">
        <ele>115.3</ele>
        <time>2023-01-04T14:28:18Z</time>
      </trkpt>
      <trkpt lat="49.96335" lon="2.37116">
        <ele>115.2</ele>
        <time>2023-01-04T14:28:19Z</time>
      </trkpt>
      <trkpt lat="49.96337" lon="2.37117">
        <ele>115.2</ele>
        <time>2023-01-04T14:28:20Z</time>
      </trkpt>
      <trkpt lat="49.96338" lon="2.37118">
        <ele>115.2</ele>
        <time>2023-01-04T14:28:21Z</time>
      </trkpt>
      <trkpt lat="49.9634" lon="2.37119">
        <ele>115.2</ele>
        <time>2023-01-04T14:28:22Z</time>
      </trkpt>
      <trkpt lat="49.9634" lon="2.37119">
        <ele>115.1</ele>
        <time>2023-01-04T14:28:23Z</time>
      </trkpt>
      <trkpt lat="49.96341" lon="2.37119">
        <ele>115.1</ele>
        <time>2023-01-04T14:28:24Z</time>
      </trkpt>
      <trkpt lat="49.96343" lon="2.3712">
        <ele>115.1</ele>
        <time>2023-01-04T14:28:25Z</time>
      </trkpt>
      <trkpt lat="49.96344" lon="2.37121">
        <ele>115.1</ele>
        <time>2023-01-04T14:28:26Z</time>
      </trkpt>
      <trkpt lat="49.96345" lon="2.37122">
        <ele>115.1</ele>
        <time>2023-01-04T14:28:28Z</time>
      </trkpt>
      <trkpt lat="49.96346" lon="2.37122">
        <ele>115</ele>
        <time>2023-01-04T14:28:29Z</time>
      </trkpt>
      <trkpt lat="49.96347" lon="2.37123">
        <ele>115</ele>
        <time>2023-01-04T14:28:30Z</time>
      </trkpt>
      <trkpt lat="49.96348" lon="2.37123">
        <ele>115</ele>
        <time>2023-01-04T14:28:31Z</time>
      </trkpt>
      <trkpt lat="49.96349" lon="2.37124">
        <ele>115</ele>
        <time>2023-01-04T14:28:32Z</time>
      </trkpt>
      <trkpt lat="49.9635" lon="2.37125">
        <ele>115</ele>
        <time>2023-01-04T14:28:33Z</time>
      </trkpt>
      <trkpt lat="49.96351" lon="2.37125">
        <ele>114.9</ele>
        <time>2023-01-04T14:28:34Z</time>
      </trkpt>
      <trkpt lat="49.96352" lon="2.37126">
        <ele>114.9</ele>
        <time>2023-01-04T14:28:35Z</time>
      </trkpt>
      <trkpt lat="49.96353" lon="2.37126">
        <ele>114.9</ele>
        <time>2023-01-04T14:28:37Z</time>
      </trkpt>
      <trkpt lat="49.96354" lon="2.37127">
        <ele>114.9</ele>
        <time>2023-01-04T14:28:38Z</time>
      </trkpt>
      <trkpt lat="49.96357" lon="2.37128">
        <ele>114.8</ele>
        <time>2023-01-04T14:28:39Z</time>
      </trkpt>
      <trkpt lat="49.96358" lon="2.37129">
        <ele>114.8</ele>
        <time>2023-01-04T14:28:40Z</time>
      </trkpt>
      <trkpt lat="49.9636" lon="2.3713">
        <ele>114.7</ele>
        <time>2023-01-04T14:28:41Z</time>
      </trkpt>
      <trkpt lat="49.96361" lon="2.3713">
        <ele>114.7</ele>
        <time>2023-01-04T14:28:43Z</time>
      </trkpt>
      <trkpt lat="49.96362" lon="2.37131">
        <ele>114.7</ele>
        <time>2023-01-04T14:28:44Z</time>
      </trkpt>
      <trkpt lat="49.96364" lon="2.37132">
        <ele>114.7</ele>
        <time>2023-01-04T14:28:45Z</time>
      </trkpt>
      <trkpt lat="49.96365" lon="2.37133">
        <ele>114.6</ele>
        <time>2023-01-04T14:28:46Z</time>
      </trkpt>
      <trkpt lat="49.96366" lon="2.37133">
        <ele>114.6</ele>
        <time>2023-01-04T14:28:48Z</time>
      </trkpt>
      <trkpt lat="49.96367" lon="2.37134">
        <ele>114.6</ele>
        <time>2023-01-04T14:28:49Z</time>
      </trkpt>
      <trkpt lat="49.96369" lon="2.37135">
        <ele>114.6</ele>
        <time>2023-01-04T14:28:50Z</time>
      </trkpt>
      <trkpt lat="49.9637" lon="2.37135">
        <ele>114.5</ele>
        <time>2023-01-04T14:28:51Z</time>
      </trkpt>
      <trkpt lat="49.96371" lon="2.37136">
        <ele>114.5</ele>
        <time>2023-01-04T14:28:52Z</time>
      </trkpt>
      <trkpt lat="49.96372" lon="2.37137">
        <ele>114.5</ele>
        <time>2023-01-04T14:28:53Z</time>
      </trkpt>
      <trkpt lat="49.96373" lon="2.37138">
        <ele>114.5</ele>
        <time>2023-01-04T14:28:54Z</time>
      </trkpt>
      <trkpt lat="49.96375" lon="2.37139">
        <ele>114.4</ele>
        <time>2023-01-04T14:28:55Z</time>
      </trkpt>
      <trkpt lat="49.96376" lon="2.37139">
        <ele>114.4</ele>
        <time>2023-01-04T14:28:56Z</time>
      </trkpt>
      <trkpt lat="49.96376" lon="2.37139">
        <ele>114.4</ele>
        <time>2023-01-04T14:28:57Z</time>
      </trkpt>
      <trkpt lat="49.96377" lon="2.3714">
        <ele>114.4</ele>
        <time>2023-01-04T14:28:58Z</time>
      </trkpt>
      <trkpt lat="49.96378" lon="2.3714">
        <ele>114.4</ele>
        <time>2023-01-04T14:29:00Z</time>
      </trkpt>
      <trkpt lat="49.9638" lon="2.37141">
        <ele>114.4</ele>
        <time>2023-01-04T14:29:01Z</time>
      </trkpt>
      <trkpt lat="49.96381" lon="2.37142">
        <ele>114.3</ele>
        <time>2023-01-04T14:29:02Z</time>
      </trkpt>
      <trkpt lat="49.96382" lon="2.37142">
        <ele>114.3</ele>
        <time>2023-01-04T14:29:03Z</time>
      </trkpt>
      <trkpt lat="49.96383" lon="2.37143">
        <ele>114.3</ele>
        <time>2023-01-04T14:29:04Z</time>
      </trkpt>
      <trkpt lat="49.96384" lon="2.37144">
        <ele>114.3</ele>
        <time>2023-01-04T14:29:05Z</time>
      </trkpt>
      <trkpt lat="49.96385" lon="2.37144">
        <ele>114.3</ele>
        <time>2023-01-04T14:29:06Z</time>
      </trkpt>
      <trkpt lat="49.96386" lon="2.37145">
        <ele>114.3</ele>
        <time>2023-01-04T14:29:07Z</time>
      </trkpt>
      <trkpt lat="49.96388" lon="2.37147">
        <ele>114.2</ele>
        <time>2023-01-04T14:29:08Z</time>
      </trkpt>
      <trkpt lat="49.96389" lon="2.37147">
        <ele>114.2</ele>
        <time>2023-01-04T14:29:09Z</time>
      </trkpt>
      <trkpt lat="49.9639" lon="2.37148">
        <ele>114.2</ele>
        <time>2023-01-04T14:29:11Z</time>
      </trkpt>
      <trkpt lat="49.96391" lon="2.37149">
        <ele>114.2</ele>
        <time>2023-01-04T14:29:12Z</time>
      </trkpt>
      <trkpt lat="49.96391" lon="2.37149">
        <ele>114.2</ele>
        <time>2023-01-04T14:29:13Z</time>
      </trkpt>
      <trkpt lat="49.96392" lon="2.3715">
        <ele>114.2</ele>
        <time>2023-01-04T14:29:14Z</time>
      </trkpt>
      <trkpt lat="49.96394" lon="2.37151">
        <ele>114.2</ele>
        <time>2023-01-04T14:29:15Z</time>
      </trkpt>
      <trkpt lat="49.96395" lon="2.37152">
        <ele>114.1</ele>
        <time>2023-01-04T14:29:16Z</time>
      </trkpt>
      <trkpt lat="49.96396" lon="2.37153">
        <ele>114.1</ele>
        <time>2023-01-04T14:29:17Z</time>
      </trkpt>
      <trkpt lat="49.96397" lon="2.37153">
        <ele>114.1</ele>
        <time>2023-01-04T14:29:18Z</time>
      </trkpt>
      <trkpt lat="49.96398" lon="2.37154">
        <ele>114.1</ele>
        <time>2023-01-04T14:29:19Z</time>
      </trkpt>
      <trkpt lat="49.964" lon="2.37155">
        <ele>114.1</ele>
        <time>2023-01-04T14:29:20Z</time>
      </trkpt>
      <trkpt lat="49.96401" lon="2.37155">
        <ele>114.1</ele>
        <time>2023-01-04T14:29:22Z</time>
      </trkpt>
      <trkpt lat="49.96401" lon="2.37155">
        <ele>114.1</ele>
        <time>2023-01-04T14:29:23Z</time>
      </trkpt>
      <trkpt lat="49.96404" lon="2.37156">
        <ele>114</ele>
        <time>2023-01-04T14:29:24Z</time>
      </trkpt>
      <trkpt lat="49.96405" lon="2.37156">
        <ele>114</ele>
        <time>2023-01-04T14:29:25Z</time>
      </trkpt>
      <trkpt lat="49.96405" lon="2.37156">
        <ele>114</ele>
        <time>2023-01-04T14:29:26Z</time>
      </trkpt>
      <trkpt lat="49.96407" lon="2.37157">
        <ele>114</ele>
        <time>2023-01-04T14:29:27Z</time>
      </trkpt>
      <trkpt lat="49.96408" lon="2.37158">
        <ele>114</ele>
        <time>2023-01-04T14:29:28Z</time>
      </trkpt>
      <trkpt lat="49.96409" lon="2.37158">
        <ele>114</ele>
        <time>2023-01-04T14:29:29Z</time>
      </trkpt>
      <trkpt lat="49.9641" lon="2.37159">
        <ele>114</ele>
        <time>2023-01-04T14:29:30Z</time>
      </trkpt>
      <trkpt lat="49.96412" lon="2.3716">
        <ele>114</ele>
        <time>2023-01-04T14:29:32Z</time>
      </trkpt>
      <trkpt lat="49.96413" lon="2.37161">
        <ele>114</ele>
        <time>2023-01-04T14:29:33Z</time>
      </trkpt>
      <trkpt lat="49.96414" lon="2.37161">
        <ele>114</ele>
        <time>2023-01-04T14:29:34Z</time>
      </trkpt>
      <trkpt lat="49.96415" lon="2.37162">
        <ele>114</ele>
        <time>2023-01-04T14:29:35Z</time>
      </trkpt>
      <trkpt lat="49.96417" lon="2.37163">
        <ele>114</ele>
        <time>2023-01-04T14:29:36Z</time>
      </trkpt>
      <trkpt lat="49.96418" lon="2.37163">
        <ele>114</ele>
        <time>2023-01-04T14:29:37Z</time>
      </trkpt>
      <trkpt lat="49.96419" lon="2.37164">
        <ele>114</ele>
        <time>2023-01-04T14:29:38Z</time>
      </trkpt>
      <trkpt lat="49.9642" lon="2.37164">
        <ele>114</ele>
        <time>2023-01-04T14:29:40Z</time>
      </trkpt>
      <trkpt lat="49.96422" lon="2.37165">
        <ele>114</ele>
        <time>2023-01-04T14:29:41Z</time>
      </trkpt>
      <trkpt lat="49.96423" lon="2.37166">
        <ele>114</ele>
        <time>2023-01-04T14:29:42Z</time>
      </trkpt>
      <trkpt lat="49.96424" lon="2.37167">
        <ele>114</ele>
        <time>2023-01-04T14:29:43Z</time>
      </trkpt>
      <trkpt lat="49.96425" lon="2.37168">
        <ele>113.9</ele>
        <time>2023-01-04T14:29:44Z</time>
      </trkpt>
      <trkpt lat="49.96427" lon="2.37168">
        <ele>113.9</ele>
        <time>2023-01-04T14:29:45Z</time>
      </trkpt>
      <trkpt lat="49.96428" lon="2.37169">
        <ele>113.9</ele>
        <time>2023-01-04T14:29:46Z</time>
      </trkpt>
      <trkpt lat="49.96429" lon="2.37169">
        <ele>113.9</ele>
        <time>2023-01-04T14:29:47Z</time>
      </trkpt>
      <trkpt lat="49.9643" lon="2.3717">
        <ele>113.9</ele>
        <time>2023-01-04T14:29:48Z</time>
      </trkpt>
      <trkpt lat="49.96431" lon="2.3717">
        <ele>113.9</ele>
        <time>2023-01-04T14:29:49Z</time>
      </trkpt>
      <trkpt lat="49.96433" lon="2.37171">
        <ele>113.9</ele>
        <time>2023-01-04T14:29:51Z</time>
      </trkpt>
      <trkpt lat="49.96434" lon="2.37172">
        <ele>113.9</ele>
        <time>2023-01-04T14:29:52Z</time>
      </trkpt>
      <trkpt lat="49.96436" lon="2.37173">
        <ele>113.9</ele>
        <time>2023-01-04T14:29:53Z</time>
      </trkpt>
      <trkpt lat="49.96437" lon="2.37173">
        <ele>113.9</ele>
        <time>2023-01-04T14:29:54Z</time>
      </trkpt>
      <trkpt lat="49.96438" lon="2.37174">
        <ele>113.9</ele>
        <time>2023-01-04T14:29:55Z</time>
      </trkpt>
      <trkpt lat="49.96439" lon="2.37175">
        <ele>113.9</ele>
        <time>2023-01-04T14:29:56Z</time>
      </trkpt>
      <trkpt lat="49.9644" lon="2.37175">
        <ele>113.9</ele>
        <time>2023-01-04T14:29:57Z</time>
      </trkpt>
      <trkpt lat="49.96441" lon="2.37176">
        <ele>113.8</ele>
        <time>2023-01-04T14:29:58Z</time>
      </trkpt>
      <trkpt lat="49.96442" lon="2.37176">
        <ele>113.8</ele>
        <time>2023-01-04T14:29:59Z</time>
      </trkpt>
      <trkpt lat="49.96444" lon="2.37177">
        <ele>113.8</ele>
        <time>2023-01-04T14:30:01Z</time>
      </trkpt>
      <trkpt lat="49.96445" lon="2.37179">
        <ele>113.8</ele>
        <time>2023-01-04T14:30:02Z</time>
      </trkpt>
      <trkpt lat="49.96446" lon="2.37179">
        <ele>113.8</ele>
        <time>2023-01-04T14:30:03Z</time>
      </trkpt>
      <trkpt lat="49.96447" lon="2.3718">
        <ele>113.8</ele>
        <time>2023-01-04T14:30:04Z</time>
      </trkpt>
      <trkpt lat="49.96448" lon="2.37181">
        <ele>113.7</ele>
        <time>2023-01-04T14:30:05Z</time>
      </trkpt>
      <trkpt lat="49.9645" lon="2.37182">
        <ele>113.7</ele>
        <time>2023-01-04T14:30:06Z</time>
      </trkpt>
      <trkpt lat="49.96451" lon="2.37182">
        <ele>113.7</ele>
        <time>2023-01-04T14:30:07Z</time>
      </trkpt>
      <trkpt lat="49.96452" lon="2.37183">
        <ele>113.7</ele>
        <time>2023-01-04T14:30:08Z</time>
      </trkpt>
      <trkpt lat="49.96454" lon="2.37183">
        <ele>113.6</ele>
        <time>2023-01-04T14:30:09Z</time>
      </trkpt>
      <trkpt lat="49.96455" lon="2.37184">
        <ele>113.6</ele>
        <time>2023-01-04T14:30:10Z</time>
      </trkpt>
      <trkpt lat="49.96456" lon="2.37185">
        <ele>113.6</ele>
        <time>2023-01-04T14:30:12Z</time>
      </trkpt>
      <trkpt lat="49.96457" lon="2.37185">
        <ele>113.6</ele>
        <time>2023-01-04T14:30:13Z</time>
      </trkpt>
      <trkpt lat="49.96459" lon="2.37187">
        <ele>113.5</ele>
        <time>2023-01-04T14:30:14Z</time>
      </trkpt>
      <trkpt lat="49.9646" lon="2.37187">
        <ele>113.5</ele>
        <time>2023-01-04T14:30:15Z</time>
      </trkpt>
      <trkpt lat="49.96461" lon="2.37188">
        <ele>113.5</ele>
        <time>2023-01-04T14:30:16Z</time>
      </trkpt>
      <trkpt lat="49.96462" lon="2.37188">
        <ele>113.5</ele>
        <time>2023-01-04T14:30:17Z</time>
      </trkpt>
      <trkpt lat="49.96463" lon="2.37189">
        <ele>113.4</ele>
        <time>2023-01-04T14:30:18Z</time>
      </trkpt>
      <trkpt lat="49.96464" lon="2.3719">
        <ele>113.4</ele>
        <time>2023-01-04T14:30:20Z</time>
      </trkpt>
      <trkpt lat="49.96466" lon="2.37191">
        <ele>113.4</ele>
        <time>2023-01-04T14:30:21Z</time>
      </trkpt>
      <trkpt lat="49.96467" lon="2.37192">
        <ele>113.4</ele>
        <time>2023-01-04T14:30:22Z</time>
      </trkpt>
      <trkpt lat="49.96468" lon="2.37193">
        <ele>113.3</ele>
        <time>2023-01-04T14:30:23Z</time>
      </trkpt>
      <trkpt lat="49.96469" lon="2.37194">
        <ele>113.3</ele>
        <time>2023-01-04T14:30:24Z</time>
      </trkpt>
      <trkpt lat="49.9647" lon="2.37195">
        <ele>113.3</ele>
        <time>2023-01-04T14:30:25Z</time>
      </trkpt>
      <trkpt lat="49.96472" lon="2.37196">
        <ele>113.2</ele>
        <time>2023-01-04T14:30:26Z</time>
      </trkpt>
      <trkpt lat="49.96473" lon="2.37197">
        <ele>113.2</ele>
        <time>2023-01-04T14:30:28Z</time>
      </trkpt>
      <trkpt lat="49.96473" lon="2.37197">
        <ele>113.2</ele>
        <time>2023-01-04T14:30:29Z</time>
      </trkpt>
      <trkpt lat="49.96475" lon="2.37198">
        <ele>113.2</ele>
        <time>2023-01-04T14:30:30Z</time>
      </trkpt>
      <trkpt lat="49.96476" lon="2.37199">
        <ele>113.1</ele>
        <time>2023-01-04T14:30:31Z</time>
      </trkpt>
      <trkpt lat="49.96477" lon="2.37199">
        <ele>113.1</ele>
        <time>2023-01-04T14:30:32Z</time>
      </trkpt>
      <trkpt lat="49.96478" lon="2.372">
        <ele>113.1</ele>
        <time>2023-01-04T14:30:33Z</time>
      </trkpt>
      <trkpt lat="49.96479" lon="2.372">
        <ele>113</ele>
        <time>2023-01-04T14:30:34Z</time>
      </trkpt>
      <trkpt lat="49.96481" lon="2.37201">
        <ele>113</ele>
        <time>2023-01-04T14:30:35Z</time>
      </trkpt>
      <trkpt lat="49.96483" lon="2.37201">
        <ele>113</ele>
        <time>2023-01-04T14:30:37Z</time>
      </trkpt>
      <trkpt lat="49.96484" lon="2.37202">
        <ele>112.9</ele>
        <time>2023-01-04T14:30:38Z</time>
      </trkpt>
      <trkpt lat="49.96485" lon="2.37203">
        <ele>112.9</ele>
        <time>2023-01-04T14:30:39Z</time>
      </trkpt>
      <trkpt lat="49.96486" lon="2.37204">
        <ele>112.9</ele>
        <time>2023-01-04T14:30:40Z</time>
      </trkpt>
      <trkpt lat="49.96488" lon="2.37204">
        <ele>112.8</ele>
        <time>2023-01-04T14:30:41Z</time>
      </trkpt>
      <trkpt lat="49.96489" lon="2.37205">
        <ele>112.8</ele>
        <time>2023-01-04T14:30:42Z</time>
      </trkpt>
      <trkpt lat="49.9649" lon="2.37205">
        <ele>112.8</ele>
        <time>2023-01-04T14:30:43Z</time>
      </trkpt>
      <trkpt lat="49.96491" lon="2.37206">
        <ele>112.7</ele>
        <time>2023-01-04T14:30:45Z</time>
      </trkpt>
      <trkpt lat="49.96493" lon="2.37206">
        <ele>112.7</ele>
        <time>2023-01-04T14:30:46Z</time>
      </trkpt>
      <trkpt lat="49.96494" lon="2.37207">
        <ele>112.6</ele>
        <time>2023-01-04T14:30:47Z</time>
      </trkpt>
      <trkpt lat="49.96496" lon="2.37208">
        <ele>112.6</ele>
        <time>2023-01-04T14:30:48Z</time>
      </trkpt>
      <trkpt lat="49.96497" lon="2.37208">
        <ele>112.5</ele>
        <time>2023-01-04T14:30:49Z</time>
      </trkpt>
      <trkpt lat="49.96498" lon="2.37209">
        <ele>112.5</ele>
        <time>2023-01-04T14:30:50Z</time>
      </trkpt>
      <trkpt lat="49.965" lon="2.3721">
        <ele>112.4</ele>
        <time>2023-01-04T14:30:51Z</time>
      </trkpt>
      <trkpt lat="49.96501" lon="2.3721">
        <ele>112.4</ele>
        <time>2023-01-04T14:30:52Z</time>
      </trkpt>
      <trkpt lat="49.96502" lon="2.37211">
        <ele>112.4</ele>
        <time>2023-01-04T14:30:53Z</time>
      </trkpt>
      <trkpt lat="49.96503" lon="2.37211">
        <ele>112.4</ele>
        <time>2023-01-04T14:30:55Z</time>
      </trkpt>
      <trkpt lat="49.96504" lon="2.37212">
        <ele>112.3</ele>
        <time>2023-01-04T14:30:56Z</time>
      </trkpt>
      <trkpt lat="49.96506" lon="2.37213">
        <ele>112.3</ele>
        <time>2023-01-04T14:30:57Z</time>
      </trkpt>
      <trkpt lat="49.96507" lon="2.37213">
        <ele>112.2</ele>
        <time>2023-01-04T14:30:58Z</time>
      </trkpt>
      <trkpt lat="49.96509" lon="2.37215">
        <ele>112.2</ele>
        <time>2023-01-04T14:30:59Z</time>
      </trkpt>
      <trkpt lat="49.9651" lon="2.37215">
        <ele>112.1</ele>
        <time>2023-01-04T14:31:00Z</time>
      </trkpt>
      <trkpt lat="49.96511" lon="2.37216">
        <ele>112.1</ele>
        <time>2023-01-04T14:31:01Z</time>
      </trkpt>
      <trkpt lat="49.96511" lon="2.37216">
        <ele>112.1</ele>
        <time>2023-01-04T14:31:02Z</time>
      </trkpt>
      <trkpt lat="49.96512" lon="2.37217">
        <ele>112</ele>
        <time>2023-01-04T14:31:03Z</time>
      </trkpt>
      <trkpt lat="49.96513" lon="2.37217">
        <ele>112</ele>
        <time>2023-01-04T14:31:04Z</time>
      </trkpt>
      <trkpt lat="49.96514" lon="2.37218">
        <ele>112</ele>
        <time>2023-01-04T14:31:06Z</time>
      </trkpt>
      <trkpt lat="49.96516" lon="2.37219">
        <ele>111.9</ele>
        <time>2023-01-04T14:31:07Z</time>
      </trkpt>
      <trkpt lat="49.96518" lon="2.3722">
        <ele>111.9</ele>
        <time>2023-01-04T14:31:08Z</time>
      </trkpt>
      <trkpt lat="49.96519" lon="2.37221">
        <ele>111.9</ele>
        <time>2023-01-04T14:31:09Z</time>
      </trkpt>
      <trkpt lat="49.96519" lon="2.37221">
        <ele>111.8</ele>
        <time>2023-01-04T14:31:10Z</time>
      </trkpt>
      <trkpt lat="49.96521" lon="2.37222">
        <ele>111.8</ele>
        <time>2023-01-04T14:31:11Z</time>
      </trkpt>
      <trkpt lat="49.96522" lon="2.37223">
        <ele>111.8</ele>
        <time>2023-01-04T14:31:12Z</time>
      </trkpt>
      <trkpt lat="49.96523" lon="2.37224">
        <ele>111.7</ele>
        <time>2023-01-04T14:31:14Z</time>
      </trkpt>
      <trkpt lat="49.96524" lon="2.37225">
        <ele>111.7</ele>
        <time>2023-01-04T14:31:15Z</time>
      </trkpt>
      <trkpt lat="49.96526" lon="2.37226">
        <ele>111.6</ele>
        <time>2023-01-04T14:31:16Z</time>
      </trkpt>
      <trkpt lat="49.96527" lon="2.37227">
        <ele>111.6</ele>
        <time>2023-01-04T14:31:17Z</time>
      </trkpt>
      <trkpt lat="49.96528" lon="2.37227">
        <ele>111.6</ele>
        <time>2023-01-04T14:31:18Z</time>
      </trkpt>
      <trkpt lat="49.96529" lon="2.37228">
        <ele>111.6</ele>
        <time>2023-01-04T14:31:20Z</time>
      </trkpt>
      <trkpt lat="49.9653" lon="2.37229">
        <ele>111.5</ele>
        <time>2023-01-04T14:31:21Z</time>
      </trkpt>
      <trkpt lat="49.96532" lon="2.3723">
        <ele>111.5</ele>
        <time>2023-01-04T14:31:22Z</time>
      </trkpt>
      <trkpt lat="49.96533" lon="2.3723">
        <ele>111.5</ele>
        <time>2023-01-04T14:31:23Z</time>
      </trkpt>
      <trkpt lat="49.96535" lon="2.37231">
        <ele>111.4</ele>
        <time>2023-01-04T14:31:24Z</time>
      </trkpt>
      <trkpt lat="49.96536" lon="2.37232">
        <ele>111.4</ele>
        <time>2023-01-04T14:31:25Z</time>
      </trkpt>
      <trkpt lat="49.96537" lon="2.37232">
        <ele>111.4</ele>
        <time>2023-01-04T14:31:26Z</time>
      </trkpt>
      <trkpt lat="49.96539" lon="2.37233">
        <ele>111.4</ele>
        <time>2023-01-04T14:31:27Z</time>
      </trkpt>
      <trkpt lat="49.9654" lon="2.37233">
        <ele>111.4</ele>
        <time>2023-01-04T14:31:29Z</time>
      </trkpt>
      <trkpt lat="49.96541" lon="2.37234">
        <ele>111.3</ele>
        <time>2023-01-04T14:31:30Z</time>
      </trkpt>
      <trkpt lat="49.96542" lon="2.37235">
        <ele>111.3</ele>
        <time>2023-01-04T14:31:31Z</time>
      </trkpt>
      <trkpt lat="49.96543" lon="2.37235">
        <ele>111.3</ele>
        <time>2023-01-04T14:31:32Z</time>
      </trkpt>
      <trkpt lat="49.96544" lon="2.37236">
        <ele>111.3</ele>
        <time>2023-01-04T14:31:33Z</time>
      </trkpt>
      <trkpt lat="49.96545" lon="2.37237">
        <ele>111.3</ele>
        <time>2023-01-04T14:31:34Z</time>
      </trkpt>
      <trkpt lat="49.96546" lon="2.37237">
        <ele>111.3</ele>
        <time>2023-01-04T14:31:35Z</time>
      </trkpt>
      <trkpt lat="49.96549" lon="2.37239">
        <ele>111.2</ele>
        <time>2023-01-04T14:31:36Z</time>
      </trkpt>
      <trkpt lat="49.9655" lon="2.37239">
        <ele>111.2</ele>
        <time>2023-01-04T14:31:38Z</time>
      </trkpt>
      <trkpt lat="49.96551" lon="2.37239">
        <ele>111.2</ele>
        <time>2023-01-04T14:31:39Z</time>
      </trkpt>
      <trkpt lat="49.96552" lon="2.3724">
        <ele>111.2</ele>
        <time>2023-01-04T14:31:40Z</time>
      </trkpt>
      <trkpt lat="49.96553" lon="2.3724">
        <ele>111.2</ele>
        <time>2023-01-04T14:31:41Z</time>
      </trkpt>
      <trkpt lat="49.96554" lon="2.3724">
        <ele>111.2</ele>
        <time>2023-01-04T14:31:42Z</time>
      </trkpt>
      <trkpt lat="49.96555" lon="2.37241">
        <ele>111.2</ele>
        <time>2023-01-04T14:31:44Z</time>
      </trkpt>
      <trkpt lat="49.96556" lon="2.37242">
        <ele>111.2</ele>
        <time>2023-01-04T14:31:45Z</time>
      </trkpt>
      <trkpt lat="49.96556" lon="2.37242">
        <ele>111.2</ele>
        <time>2023-01-04T14:31:46Z</time>
      </trkpt>
      <trkpt lat="49.96557" lon="2.37243">
        <ele>111.2</ele>
        <time>2023-01-04T14:31:47Z</time>
      </trkpt>
      <trkpt lat="49.96558" lon="2.37243">
        <ele>111.2</ele>
        <time>2023-01-04T14:31:48Z</time>
      </trkpt>
      <trkpt lat="49.96559" lon="2.37244">
        <ele>111.2</ele>
        <time>2023-01-04T14:31:49Z</time>
      </trkpt>
      <trkpt lat="49.96559" lon="2.37244">
        <ele>111.2</ele>
        <time>2023-01-04T14:31:50Z</time>
      </trkpt>
      <trkpt lat="49.9656" lon="2.37245">
        <ele>111.2</ele>
        <time>2023-01-04T14:31:52Z</time>
      </trkpt>
      <trkpt lat="49.96561" lon="2.37245">
        <ele>111.2</ele>
        <time>2023-01-04T14:31:53Z</time>
      </trkpt>
      <trkpt lat="49.96561" lon="2.37246">
        <ele>111.2</ele>
        <time>2023-01-04T14:31:54Z</time>
      </trkpt>
      <trkpt lat="49.96561" lon="2.37247">
        <ele>111.2</ele>
        <time>2023-01-04T14:31:55Z</time>
      </trkpt>
      <trkpt lat="49.9656" lon="2.37248">
        <ele>111.2</ele>
        <time>2023-01-04T14:31:57Z</time>
      </trkpt>
      <trkpt lat="49.96559" lon="2.37248">
        <ele>111.2</ele>
        <time>2023-01-04T14:31:58Z</time>
      </trkpt>
      <trkpt lat="49.96559" lon="2.37248">
        <ele>111.2</ele>
        <time>2023-01-04T14:31:59Z</time>
      </trkpt>
      <trkpt lat="49.96559" lon="2.37247">
        <ele>111.2</ele>
        <time>2023-01-04T14:32:01Z</time>
      </trkpt>
      <trkpt lat="49.96558" lon="2.37247">
        <ele>111.2</ele>
        <time>2023-01-04T14:32:02Z</time>
      </trkpt>
      <trkpt lat="49.96558" lon="2.37246">
        <ele>111.2</ele>
        <time>2023-01-04T14:32:04Z</time>
      </trkpt>
      <trkpt lat="49.96558" lon="2.37246">
        <ele>111.2</ele>
        <time>2023-01-04T14:32:05Z</time>
      </trkpt>
      <trkpt lat="49.96558" lon="2.37246">
        <ele>111.2</ele>
        <time>2023-01-04T14:32:06Z</time>
      </trkpt>
      <trkpt lat="49.96558" lon="2.37246">
        <ele>111.2</ele>
        <time>2023-01-04T14:32:08Z</time>
      </trkpt>
      <trkpt lat="49.96558" lon="2.37246">
        <ele>111.2</ele>
        <time>2023-01-04T14:32:09Z</time>
      </trkpt>
      <trkpt lat="49.96557" lon="2.37246">
        <ele>111.2</ele>
        <time>2023-01-04T14:32:10Z</time>
      </trkpt>
      <trkpt lat="49.96557" lon="2.37246">
        <ele>111.1</ele>
        <time>2023-01-04T14:32:11Z</time>
      </trkpt>
      <trkpt lat="49.96557" lon="2.37246">
        <ele>111.1</ele>
        <time>2023-01-04T14:32:12Z</time>
      </trkpt>
      <trkpt lat="49.96557" lon="2.37246">
        <ele>111.1</ele>
        <time>2023-01-04T14:32:13Z</time>
      </trkpt>
      <trkpt lat="49.96557" lon="2.37246">
        <ele>111.1</ele>
        <time>2023-01-04T14:32:14Z</time>
      </trkpt>
      <trkpt lat="49.96557" lon="2.37246">
        <ele>111.1</ele>
        <time>2023-01-04T14:32:15Z</time>
      </trkpt>
      <trkpt lat="49.96557" lon="2.37246">
        <ele>111.1</ele>
        <time>2023-01-04T14:32:16Z</time>
      </trkpt>
      <trkpt lat="49.96557" lon="2.37246">
        <ele>111.1</ele>
        <time>2023-01-04T14:32:17Z</time>
      </trkpt>
      <trkpt lat="49.96557" lon="2.37246">
        <ele>111.1</ele>
        <time>2023-01-04T14:32:18Z</time>
      </trkpt>
      <trkpt lat="49.96557" lon="2.37246">
        <ele>111.1</ele>
        <time>2023-01-04T14:32:19Z</time>
      </trkpt>
      <trkpt lat="49.96557" lon="2.37246">
        <ele>111.1</ele>
        <time>2023-01-04T14:32:20Z</time>
      </trkpt>
      <trkpt lat="49.96557" lon="2.37245">
        <ele>111.1</ele>
        <time>2023-01-04T14:32:21Z</time>
      </trkpt>
      <trkpt lat="49.96557" lon="2.37245">
        <ele>111.1</ele>
        <time>2023-01-04T14:32:22Z</time>
      </trkpt>
      <trkpt lat="49.96557" lon="2.37245">
        <ele>111.1</ele>
        <time>2023-01-04T14:32:23Z</time>
      </trkpt>
      <trkpt lat="49.96557" lon="2.37245">
        <ele>111.1</ele>
        <time>2023-01-04T14:32:24Z</time>
      </trkpt>
      <trkpt lat="49.96557" lon="2.37245">
        <ele>111.1</ele>
        <time>2023-01-04T14:32:25Z</time>
      </trkpt>
      <trkpt lat="49.96557" lon="2.37245">
        <ele>111.1</ele>
        <time>2023-01-04T14:32:26Z</time>
      </trkpt>
      <trkpt lat="49.96557" lon="2.37245">
        <ele>111.1</ele>
        <time>2023-01-04T14:32:27Z</time>
      </trkpt>
      <trkpt lat="49.96557" lon="2.37245">
        <ele>111.1</ele>
        <time>2023-01-04T14:32:28Z</time>
      </trkpt>
      <trkpt lat="49.96557" lon="2.37245">
        <ele>111.1</ele>
        <time>2023-01-04T14:32:29Z</time>
      </trkpt>
      <trkpt lat="49.96557" lon="2.37245">
        <ele>111.1</ele>
        <time>2023-01-04T14:32:30Z</time>
      </trkpt>
      <trkpt lat="49.96556" lon="2.37245">
        <ele>111.1</ele>
        <time>2023-01-04T14:32:31Z</time>
      </trkpt>
      <trkpt lat="49.96556" lon="2.37245">
        <ele>111.1</ele>
        <time>2023-01-04T14:32:32Z</time>
      </trkpt>
      <trkpt lat="49.96556" lon="2.37245">
        <ele>111.1</ele>
        <time>2023-01-04T14:32:33Z</time>
      </trkpt>
      <trkpt lat="49.96556" lon="2.37245">
        <ele>111.1</ele>
        <time>2023-01-04T14:32:34Z</time>
      </trkpt>
      <trkpt lat="49.96556" lon="2.37245">
        <ele>111.1</ele>
        <time>2023-01-04T14:32:35Z</time>
      </trkpt>
      <trkpt lat="49.96556" lon="2.37245">
        <ele>111.1</ele>
        <time>2023-01-04T14:32:36Z</time>
      </trkpt>
      <trkpt lat="49.96556" lon="2.37245">
        <ele>111.1</ele>
        <time>2023-01-04T14:32:37Z</time>
      </trkpt>
      <trkpt lat="49.96556" lon="2.37245">
        <ele>111.1</ele>
        <time>2023-01-04T14:32:38Z</time>
      </trkpt>
      <trkpt lat="49.96556" lon="2.37245">
        <ele>111.1</ele>
        <time>2023-01-04T14:32:39Z</time>
      </trkpt>
      <trkpt lat="49.96556" lon="2.37244">
        <ele>111.1</ele>
        <time>2023-01-04T14:32:40Z</time>
      </trkpt>
      <trkpt lat="49.96556" lon="2.37244">
        <ele>111.1</ele>
        <time>2023-01-04T14:32:41Z</time>
      </trkpt>
      <trkpt lat="49.96556" lon="2.37244">
        <ele>111.1</ele>
        <time>2023-01-04T14:32:42Z</time>
      </trkpt>
      <trkpt lat="49.96556" lon="2.37244">
        <ele>111.1</ele>
        <time>2023-01-04T14:32:43Z</time>
      </trkpt>
      <trkpt lat="49.96556" lon="2.37244">
        <ele>111.1</ele>
        <time>2023-01-04T14:32:44Z</time>
      </trkpt>
      <trkpt lat="49.96556" lon="2.37244">
        <ele>111.1</ele>
        <time>2023-01-04T14:32:45Z</time>
      </trkpt>
      <trkpt lat="49.96556" lon="2.37244">
        <ele>111.1</ele>
        <time>2023-01-04T14:32:46Z</time>
      </trkpt>
      <trkpt lat="49.96556" lon="2.37244">
        <ele>111.1</ele>
        <time>2023-01-04T14:32:47Z</time>
      </trkpt>
      <trkpt lat="49.96556" lon="2.37244">
        <ele>111.1</ele>
        <time>2023-01-04T14:32:48Z</time>
      </trkpt>
      <trkpt lat="49.96556" lon="2.37244">
        <ele>111.1</ele>
        <time>2023-01-04T14:32:49Z</time>
      </trkpt>
      <trkpt lat="49.96556" lon="2.37244">
        <ele>111.1</ele>
        <time>2023-01-04T14:32:50Z</time>
      </trkpt>
      <trkpt lat="49.96555" lon="2.37244">
        <ele>111.1</ele>
        <time>2023-01-04T14:32:51Z</time>
      </trkpt>
      <trkpt lat="49.96555" lon="2.37244">
        <ele>111.1</ele>
        <time>2023-01-04T14:32:52Z</time>
      </trkpt>
      <trkpt lat="49.96555" lon="2.37244">
        <ele>111.1</ele>
        <time>2023-01-04T14:32:53Z</time>
      </trkpt>
      <trkpt lat="49.96555" lon="2.37244">
        <ele>111.1</ele>
        <time>2023-01-04T14:32:54Z</time>
      </trkpt>
      <trkpt lat="49.96555" lon="2.37244">
        <ele>111.1</ele>
        <time>2023-01-04T14:32:55Z</time>
      </trkpt>
      <trkpt lat="49.96555" lon="2.37244">
        <ele>111.1</ele>
        <time>2023-01-04T14:32:56Z</time>
      </trkpt>
      <trkpt lat="49.96555" lon="2.37244">
        <ele>111.1</ele>
        <time>2023-01-04T14:32:57Z</time>
      </trkpt>
      <trkpt lat="49.96555" lon="2.37244">
        <ele>111.1</ele>
        <time>2023-01-04T14:32:58Z</time>
      </trkpt>
      <trkpt lat="49.96555" lon="2.37243">
        <ele>111.1</ele>
        <time>2023-01-04T14:32:59Z</time>
      </trkpt>
      <trkpt lat="49.96555" lon="2.37243">
        <ele>111.1</ele>
        <time>2023-01-04T14:33:00Z</time>
      </trkpt>
      <trkpt lat="49.96555" lon="2.37243">
        <ele>111.1</ele>
        <time>2023-01-04T14:33:01Z</time>
      </trkpt>
      <trkpt lat="49.96555" lon="2.37243">
        <ele>111.1</ele>
        <time>2023-01-04T14:33:02Z</time>
      </trkpt>
      <trkpt lat="49.96555" lon="2.37243">
        <ele>111.1</ele>
        <time>2023-01-04T14:33:03Z</time>
      </trkpt>
      <trkpt lat="49.96555" lon="2.37243">
        <ele>111.1</ele>
        <time>2023-01-04T14:33:04Z</time>
      </trkpt>
      <trkpt lat="49.96555" lon="2.37243">
        <ele>111.1</ele>
        <time>2023-01-04T14:33:05Z</time>
      </trkpt>
      <trkpt lat="49.96555" lon="2.37243">
        <ele>111.1</ele>
        <time>2023-01-04T14:33:06Z</time>
      </trkpt>
      <trkpt lat="49.96555" lon="2.37243">
        <ele>111.1</ele>
        <time>2023-01-04T14:33:07Z</time>
      </trkpt>
      <trkpt lat="49.96555" lon="2.37243">
        <ele>111.1</ele>
        <time>2023-01-04T14:33:08Z</time>
      </trkpt>
      <trkpt lat="49.96555" lon="2.37243">
        <ele>111.1</ele>
        <time>2023-01-04T14:33:09Z</time>
      </trkpt>
      <trkpt lat="49.96555" lon="2.37243">
        <ele>111.1</ele>
        <time>2023-01-04T14:33:10Z</time>
      </trkpt>
      <trkpt lat="49.96554" lon="2.37243">
        <ele>111.1</ele>
        <time>2023-01-04T14:33:11Z</time>
      </trkpt>
      <trkpt lat="49.96554" lon="2.37243">
        <ele>111.1</ele>
        <time>2023-01-04T14:33:12Z</time>
      </trkpt>
      <trkpt lat="49.96553" lon="2.37242">
        <ele>111.1</ele>
        <time>2023-01-04T14:33:13Z</time>
      </trkpt>
      <trkpt lat="49.96552" lon="2.37242">
        <ele>111.1</ele>
        <time>2023-01-04T14:33:14Z</time>
      </trkpt>
      <trkpt lat="49.96552" lon="2.37241">
        <ele>111.1</ele>
        <time>2023-01-04T14:33:15Z</time>
      </trkpt>
      <trkpt lat="49.96552" lon="2.37241">
        <ele>111.1</ele>
        <time>2023-01-04T14:33:16Z</time>
      </trkpt>
      <trkpt lat="49.96551" lon="2.37241">
        <ele>111.1</ele>
        <time>2023-01-04T14:33:17Z</time>
      </trkpt>
      <trkpt lat="49.96551" lon="2.37241">
        <ele>111.1</ele>
        <time>2023-01-04T14:33:18Z</time>
      </trkpt>
      <trkpt lat="49.96551" lon="2.37241">
        <ele>111.1</ele>
        <time>2023-01-04T14:33:19Z</time>
      </trkpt>
      <trkpt lat="49.96551" lon="2.37241">
        <ele>111.1</ele>
        <time>2023-01-04T14:33:20Z</time>
      </trkpt>
      <trkpt lat="49.96551" lon="2.37241">
        <ele>111.1</ele>
        <time>2023-01-04T14:33:21Z</time>
      </trkpt>
      <trkpt lat="49.96551" lon="2.37241">
        <ele>111.1</ele>
        <time>2023-01-04T14:33:22Z</time>
      </trkpt>
      <trkpt lat="49.96551" lon="2.37241">
        <ele>111.1</ele>
        <time>2023-01-04T14:33:23Z</time>
      </trkpt>
      <trkpt lat="49.96551" lon="2.37241">
        <ele>111.1</ele>
        <time>2023-01-04T14:33:24Z</time>
      </trkpt>
      <trkpt lat="49.96551" lon="2.37241">
        <ele>111.1</ele>
        <time>2023-01-04T14:33:25Z</time>
      </trkpt>
      <trkpt lat="49.96551" lon="2.37241">
        <ele>111.1</ele>
        <time>2023-01-04T14:33:26Z</time>
      </trkpt>
      <trkpt lat="49.96551" lon="2.37241">
        <ele>111.1</ele>
        <time>2023-01-04T14:33:27Z</time>
      </trkpt>
      <trkpt lat="49.96551" lon="2.37241">
        <ele>111.1</ele>
        <time>2023-01-04T14:33:28Z</time>
      </trkpt>
      <trkpt lat="49.96551" lon="2.37241">
        <ele>111.1</ele>
        <time>2023-01-04T14:33:29Z</time>
      </trkpt>
      <trkpt lat="49.96551" lon="2.37241">
        <ele>111.1</ele>
        <time>2023-01-04T14:33:30Z</time>
      </trkpt>
      <trkpt lat="49.96551" lon="2.37241">
        <ele>111.1</ele>
        <time>2023-01-04T14:33:31Z</time>
      </trkpt>
      <trkpt lat="49.96551" lon="2.37241">
        <ele>111.1</ele>
        <time>2023-01-04T14:33:32Z</time>
      </trkpt>
      <trkpt lat="49.96551" lon="2.37241">
        <ele>111.1</ele>
        <time>2023-01-04T14:33:33Z</time>
      </trkpt>
      <trkpt lat="49.96551" lon="2.37241">
        <ele>111.1</ele>
        <time>2023-01-04T14:33:34Z</time>
      </trkpt>
      <trkpt lat="49.96551" lon="2.37241">
        <ele>111.1</ele>
        <time>2023-01-04T14:33:35Z</time>
      </trkpt>
      <trkpt lat="49.96551" lon="2.37241">
        <ele>111.1</ele>
        <time>2023-01-04T14:33:36Z</time>
      </trkpt>
      <trkpt lat="49.96551" lon="2.37241">
        <ele>111.1</ele>
        <time>2023-01-04T14:33:37Z</time>
      </trkpt>
      <trkpt lat="49.96551" lon="2.37241">
        <ele>111.1</ele>
        <time>2023-01-04T14:33:38Z</time>
      </trkpt>
      <trkpt lat="49.96551" lon="2.37241">
        <ele>111.1</ele>
        <time>2023-01-04T14:33:39Z</time>
      </trkpt>
      <trkpt lat="49.96551" lon="2.37241">
        <ele>111.1</ele>
        <time>2023-01-04T14:33:40Z</time>
      </trkpt>
      <trkpt lat="49.96551" lon="2.37241">
        <ele>111.1</ele>
        <time>2023-01-04T14:33:41Z</time>
      </trkpt>
      <trkpt lat="49.96551" lon="2.37241">
        <ele>111.1</ele>
        <time>2023-01-04T14:33:42Z</time>
      </trkpt>
      <trkpt lat="49.96551" lon="2.37241">
        <ele>111.1</ele>
        <time>2023-01-04T14:33:43Z</time>
      </trkpt>
      <trkpt lat="49.96551" lon="2.37241">
        <ele>111.1</ele>
        <time>2023-01-04T14:33:44Z</time>
      </trkpt>
      <trkpt lat="49.96551" lon="2.37241">
        <ele>111.1</ele>
        <time>2023-01-04T14:33:45Z</time>
      </trkpt>
      <trkpt lat="49.96551" lon="2.37241">
        <ele>111.1</ele>
        <time>2023-01-04T14:33:46Z</time>
      </trkpt>
      <trkpt lat="49.96551" lon="2.37241">
        <ele>111.1</ele>
        <time>2023-01-04T14:33:47Z</time>
      </trkpt>
      <trkpt lat="49.96551" lon="2.37241">
        <ele>111.1</ele>
        <time>2023-01-04T14:33:48Z</time>
      </trkpt>
      <trkpt lat="49.96551" lon="2.37241">
        <ele>111.1</ele>
        <time>2023-01-04T14:33:49Z</time>
      </trkpt>
      <trkpt lat="49.96551" lon="2.37241">
        <ele>111.1</ele>
        <time>2023-01-04T14:33:50Z</time>
      </trkpt>
      <trkpt lat="49.96551" lon="2.37241">
        <ele>111.1</ele>
        <time>2023-01-04T14:33:51Z</time>
      </trkpt>
      <trkpt lat="49.96551" lon="2.37241">
        <ele>111.1</ele>
        <time>2023-01-04T14:33:52Z</time>
      </trkpt>
      <trkpt lat="49.96551" lon="2.37241">
        <ele>111.1</ele>
        <time>2023-01-04T14:33:53Z</time>
      </trkpt>
      <trkpt lat="49.96551" lon="2.37241">
        <ele>111.1</ele>
        <time>2023-01-04T14:33:54Z</time>
      </trkpt>
      <trkpt lat="49.96551" lon="2.37241">
        <ele>111.1</ele>
        <time>2023-01-04T14:33:55Z</time>
      </trkpt>
      <trkpt lat="49.96551" lon="2.37241">
        <ele>111.1</ele>
        <time>2023-01-04T14:33:56Z</time>
      </trkpt>
      <trkpt lat="49.96551" lon="2.37241">
        <ele>111.1</ele>
        <time>2023-01-04T14:33:57Z</time>
      </trkpt>
      <trkpt lat="49.96551" lon="2.37241">
        <ele>111.1</ele>
        <time>2023-01-04T14:33:58Z</time>
      </trkpt>
      <trkpt lat="49.96551" lon="2.37241">
        <ele>111.1</ele>
        <time>2023-01-04T14:33:59Z</time>
      </trkpt>
      <trkpt lat="49.96551" lon="2.37241">
        <ele>111.1</ele>
        <time>2023-01-04T14:34:00Z</time>
      </trkpt>
      <trkpt lat="49.96551" lon="2.37241">
        <ele>111.1</ele>
        <time>2023-01-04T14:34:01Z</time>
      </trkpt>
      <trkpt lat="49.96551" lon="2.37241">
        <ele>111.1</ele>
        <time>2023-01-04T14:34:02Z</time>
      </trkpt>
      <trkpt lat="49.96551" lon="2.37241">
        <ele>111.1</ele>
        <time>2023-01-04T14:34:03Z</time>
      </trkpt>
      <trkpt lat="49.96551" lon="2.37241">
        <ele>111.1</ele>
        <time>2023-01-04T14:34:04Z</time>
      </trkpt>
      <trkpt lat="49.96551" lon="2.37241">
        <ele>111.1</ele>
        <time>2023-01-04T14:34:05Z</time>
      </trkpt>
      <trkpt lat="49.96551" lon="2.37241">
        <ele>111.1</ele>
        <time>2023-01-04T14:34:06Z</time>
      </trkpt>
      <trkpt lat="49.96551" lon="2.37241">
        <ele>111.1</ele>
        <time>2023-01-04T14:34:07Z</time>
      </trkpt>
      <trkpt lat="49.96551" lon="2.37241">
        <ele>111.1</ele>
        <time>2023-01-04T14:34:08Z</time>
      </trkpt>
      <trkpt lat="49.96551" lon="2.37241">
        <ele>111.1</ele>
        <time>2023-01-04T14:34:09Z</time>
      </trkpt>
      <trkpt lat="49.96551" lon="2.37241">
        <ele>111.1</ele>
        <time>2023-01-04T14:34:10Z</time>
      </trkpt>
      <trkpt lat="49.96551" lon="2.37241">
        <ele>111.1</ele>
        <time>2023-01-04T14:34:11Z</time>
      </trkpt>
      <trkpt lat="49.96551" lon="2.37241">
        <ele>111.1</ele>
        <time>2023-01-04T14:34:12Z</time>
      </trkpt>
      <trkpt lat="49.96551" lon="2.37241">
        <ele>111.1</ele>
        <time>2023-01-04T14:34:13Z</time>
      </trkpt>
      <trkpt lat="49.96551" lon="2.37241">
        <ele>111.1</ele>
        <time>2023-01-04T14:34:14Z</time>
      </trkpt>
      <trkpt lat="49.96551" lon="2.37241">
        <ele>111.1</ele>
        <time>2023-01-04T14:34:15Z</time>
      </trkpt>
      <trkpt lat="49.96551" lon="2.37241">
        <ele>111.1</ele>
        <time>2023-01-04T14:34:16Z</time>
      </trkpt>
      <trkpt lat="49.96551" lon="2.37241">
        <ele>111.1</ele>
        <time>2023-01-04T14:34:17Z</time>
      </trkpt>
      <trkpt lat="49.96551" lon="2.37241">
        <ele>111.1</ele>
        <time>2023-01-04T14:34:18Z</time>
      </trkpt>
      <trkpt lat="49.96551" lon="2.37241">
        <ele>111.1</ele>
        <time>2023-01-04T14:34:19Z</time>
      </trkpt>
      <trkpt lat="49.96551" lon="2.37241">
        <ele>111.1</ele>
        <time>2023-01-04T14:34:20Z</time>
      </trkpt>
      <trkpt lat="49.96551" lon="2.37241">
        <ele>111.1</ele>
        <time>2023-01-04T14:34:21Z</time>
      </trkpt>
      <trkpt lat="49.96551" lon="2.37241">
        <ele>111.1</ele>
        <time>2023-01-04T14:34:22Z</time>
      </trkpt>
      <trkpt lat="49.96551" lon="2.37241">
        <ele>111.1</ele>
        <time>2023-01-04T14:34:23Z</time>
      </trkpt>
      <trkpt lat="49.96551" lon="2.37241">
        <ele>111.1</ele>
        <time>2023-01-04T14:34:24Z</time>
      </trkpt>
      <trkpt lat="49.96551" lon="2.37241">
        <ele>111.1</ele>
        <time>2023-01-04T14:34:25Z</time>
      </trkpt>
      <trkpt lat="49.96551" lon="2.37241">
        <ele>111.1</ele>
        <time>2023-01-04T14:34:26Z</time>
      </trkpt>
      <trkpt lat="49.96551" lon="2.37241">
        <ele>111.1</ele>
        <time>2023-01-04T14:34:27Z</time>
      </trkpt>
      <trkpt lat="49.96551" lon="2.37241">
        <ele>111.1</ele>
        <time>2023-01-04T14:34:28Z</time>
      </trkpt>
      <trkpt lat="49.96551" lon="2.37241">
        <ele>111.1</ele>
        <time>2023-01-04T14:34:29Z</time>
      </trkpt>
      <trkpt lat="49.96551" lon="2.37241">
        <ele>111.1</ele>
        <time>2023-01-04T14:34:30Z</time>
      </trkpt>
      <trkpt lat="49.96551" lon="2.37241">
        <ele>111.1</ele>
        <time>2023-01-04T14:34:31Z</time>
      </trkpt>
      <trkpt lat="49.96551" lon="2.37241">
        <ele>111.1</ele>
        <time>2023-01-04T14:34:32Z</time>
      </trkpt>
      <trkpt lat="49.96551" lon="2.37241">
        <ele>111.1</ele>
        <time>2023-01-04T14:34:33Z</time>
      </trkpt>
      <trkpt lat="49.96551" lon="2.37241">
        <ele>111.1</ele>
        <time>2023-01-04T14:34:34Z</time>
      </trkpt>
      <trkpt lat="49.96551" lon="2.37241">
        <ele>111.1</ele>
        <time>2023-01-04T14:34:35Z</time>
      </trkpt>
      <trkpt lat="49.96551" lon="2.37241">
        <ele>111.1</ele>
        <time>2023-01-04T14:34:36Z</time>
      </trkpt>
      <trkpt lat="49.96551" lon="2.37241">
        <ele>111.1</ele>
        <time>2023-01-04T14:34:37Z</time>
      </trkpt>
      <trkpt lat="49.96551" lon="2.37241">
        <ele>111.1</ele>
        <time>2023-01-04T14:34:38Z</time>
      </trkpt>
      <trkpt lat="49.96551" lon="2.37241">
        <ele>111.1</ele>
        <time>2023-01-04T14:34:39Z</time>
      </trkpt>
      <trkpt lat="49.96551" lon="2.37241">
        <ele>111.1</ele>
        <time>2023-01-04T14:34:40Z</time>
      </trkpt>
      <trkpt lat="49.96551" lon="2.37241">
        <ele>111.1</ele>
        <time>2023-01-04T14:34:41Z</time>
      </trkpt>
      <trkpt lat="49.96551" lon="2.37241">
        <ele>111.1</ele>
        <time>2023-01-04T14:34:42Z</time>
      </trkpt>
      <trkpt lat="49.96551" lon="2.37241">
        <ele>111.1</ele>
        <time>2023-01-04T14:34:43Z</time>
      </trkpt>
      <trkpt lat="49.96551" lon="2.37241">
        <ele>111.1</ele>
        <time>2023-01-04T14:34:44Z</time>
      </trkpt>
      <trkpt lat="49.96551" lon="2.37241">
        <ele>111.1</ele>
        <time>2023-01-04T14:34:45Z</time>
      </trkpt>
      <trkpt lat="49.96551" lon="2.37241">
        <ele>111.1</ele>
        <time>2023-01-04T14:34:46Z</time>
      </trkpt>
      <trkpt lat="49.96551" lon="2.37241">
        <ele>111.1</ele>
        <time>2023-01-04T14:34:47Z</time>
      </trkpt>
      <trkpt lat="49.96551" lon="2.37241">
        <ele>111.1</ele>
        <time>2023-01-04T14:34:48Z</time>
      </trkpt>
      <trkpt lat="49.96551" lon="2.37241">
        <ele>111.1</ele>
        <time>2023-01-04T14:34:49Z</time>
      </trkpt>
      <trkpt lat="49.96551" lon="2.37241">
        <ele>111.1</ele>
        <time>2023-01-04T14:34:50Z</time>
      </trkpt>
      <trkpt lat="49.96551" lon="2.37241">
        <ele>111.1</ele>
        <time>2023-01-04T14:34:51Z</time>
      </trkpt>
      <trkpt lat="49.96551" lon="2.37241">
        <ele>111.1</ele>
        <time>2023-01-04T14:34:52Z</time>
      </trkpt>
      <trkpt lat="49.96551" lon="2.37241">
        <ele>111.1</ele>
        <time>2023-01-04T14:34:53Z</time>
      </trkpt>
      <trkpt lat="49.96551" lon="2.37241">
        <ele>111.1</ele>
        <time>2023-01-04T14:34:54Z</time>
      </trkpt>
      <trkpt lat="49.96551" lon="2.37241">
        <ele>111.1</ele>
        <time>2023-01-04T14:34:55Z</time>
      </trkpt>
      <trkpt lat="49.96551" lon="2.37241">
        <ele>111.1</ele>
        <time>2023-01-04T14:34:56Z</time>
      </trkpt>
      <trkpt lat="49.96551" lon="2.37241">
        <ele>111.1</ele>
        <time>2023-01-04T14:34:57Z</time>
      </trkpt>
      <trkpt lat="49.96551" lon="2.37241">
        <ele>111.1</ele>
        <time>2023-01-04T14:34:58Z</time>
      </trkpt>
      <trkpt lat="49.96551" lon="2.37241">
        <ele>111.1</ele>
        <time>2023-01-04T14:34:59Z</time>
      </trkpt>
      <trkpt lat="49.96551" lon="2.37241">
        <ele>111.1</ele>
        <time>2023-01-04T14:35:00Z</time>
      </trkpt>
      <trkpt lat="49.96551" lon="2.37241">
        <ele>111.1</ele>
        <time>2023-01-04T14:35:01Z</time>
      </trkpt>
      <trkpt lat="49.96551" lon="2.37241">
        <ele>111.1</ele>
        <time>2023-01-04T14:35:02Z</time>
      </trkpt>
      <trkpt lat="49.96551" lon="2.37241">
        <ele>111.1</ele>
        <time>2023-01-04T14:35:03Z</time>
      </trkpt>
      <trkpt lat="49.96551" lon="2.37241">
        <ele>111.1</ele>
        <time>2023-01-04T14:35:04Z</time>
      </trkpt>
      <trkpt lat="49.96551" lon="2.37241">
        <ele>111.1</ele>
        <time>2023-01-04T14:35:05Z</time>
      </trkpt>
      <trkpt lat="49.96551" lon="2.37241">
        <ele>111.1</ele>
        <time>2023-01-04T14:35:06Z</time>
      </trkpt>
      <trkpt lat="49.96551" lon="2.37241">
        <ele>111.1</ele>
        <time>2023-01-04T14:35:07Z</time>
      </trkpt>
      <trkpt lat="49.96551" lon="2.37241">
        <ele>111.1</ele>
        <time>2023-01-04T14:35:08Z</time>
      </trkpt>
      <trkpt lat="49.96551" lon="2.37241">
        <ele>111.1</ele>
        <time>2023-01-04T14:35:09Z</time>
      </trkpt>
      <trkpt lat="49.96551" lon="2.37241">
        <ele>111.1</ele>
        <time>2023-01-04T14:35:10Z</time>
      </trkpt>
      <trkpt lat="49.96551" lon="2.37241">
        <ele>111.1</ele>
        <time>2023-01-04T14:35:11Z</time>
      </trkpt>
      <trkpt lat="49.96551" lon="2.37241">
        <ele>111.1</ele>
        <time>2023-01-04T14:35:12Z</time>
      </trkpt>
      <trkpt lat="49.96551" lon="2.37241">
        <ele>111.1</ele>
        <time>2023-01-04T14:35:13Z</time>
      </trkpt>
      <trkpt lat="49.96551" lon="2.37241">
        <ele>111.1</ele>
        <time>2023-01-04T14:35:14Z</time>
      </trkpt>
      <trkpt lat="49.96551" lon="2.37241">
        <ele>111.1</ele>
        <time>2023-01-04T14:35:15Z</time>
      </trkpt>
      <trkpt lat="49.96551" lon="2.37241">
        <ele>111.1</ele>
        <time>2023-01-04T14:35:16Z</time>
      </trkpt>
      <trkpt lat="49.96551" lon="2.37241">
        <ele>111.1</ele>
        <time>2023-01-04T14:35:17Z</time>
      </trkpt>
      <trkpt lat="49.96551" lon="2.37241">
        <ele>111.1</ele>
        <time>2023-01-04T14:35:18Z</time>
      </trkpt>
      <trkpt lat="49.96551" lon="2.37241">
        <ele>111.1</ele>
        <time>2023-01-04T14:35:19Z</time>
      </trkpt>
      <trkpt lat="49.96551" lon="2.37241">
        <ele>111.1</ele>
        <time>2023-01-04T14:35:20Z</time>
      </trkpt>
      <trkpt lat="49.96551" lon="2.37241">
        <ele>111.1</ele>
        <time>2023-01-04T14:35:21Z</time>
      </trkpt>
      <trkpt lat="49.96551" lon="2.37241">
        <ele>111.1</ele>
        <time>2023-01-04T14:35:22Z</time>
      </trkpt>
      <trkpt lat="49.96551" lon="2.37241">
        <ele>111.1</ele>
        <time>2023-01-04T14:35:23Z</time>
      </trkpt>
      <trkpt lat="49.96551" lon="2.37241">
        <ele>111.1</ele>
        <time>2023-01-04T14:35:24Z</time>
      </trkpt>
      <trkpt lat="49.96551" lon="2.37241">
        <ele>111.1</ele>
        <time>2023-01-04T14:35:25Z</time>
      </trkpt>
      <trkpt lat="49.96551" lon="2.37241">
        <ele>111.1</ele>
        <time>2023-01-04T14:35:26Z</time>
      </trkpt>
      <trkpt lat="49.96551" lon="2.37241">
        <ele>111.1</ele>
        <time>2023-01-04T14:35:27Z</time>
      </trkpt>
      <trkpt lat="49.96551" lon="2.37241">
        <ele>111.1</ele>
        <time>2023-01-04T14:35:28Z</time>
      </trkpt>
      <trkpt lat="49.96551" lon="2.37241">
        <ele>111.1</ele>
        <time>2023-01-04T14:35:29Z</time>
      </trkpt>
      <trkpt lat="49.96551" lon="2.37241">
        <ele>111.1</ele>
        <time>2023-01-04T14:35:30Z</time>
      </trkpt>
      <trkpt lat="49.96551" lon="2.37241">
        <ele>111.1</ele>
        <time>2023-01-04T14:35:31Z</time>
      </trkpt>
      <trkpt lat="49.96551" lon="2.37241">
        <ele>111.1</ele>
        <time>2023-01-04T14:35:32Z</time>
      </trkpt>
      <trkpt lat="49.96551" lon="2.37241">
        <ele>111.1</ele>
        <time>2023-01-04T14:35:33Z</time>
      </trkpt>
      <trkpt lat="49.96551" lon="2.37241">
        <ele>111.1</ele>
        <time>2023-01-04T14:35:34Z</time>
      </trkpt>
      <trkpt lat="49.96551" lon="2.37241">
        <ele>111.1</ele>
        <time>2023-01-04T14:35:35Z</time>
      </trkpt>
      <trkpt lat="49.96551" lon="2.37241">
        <ele>111.1</ele>
        <time>2023-01-04T14:35:36Z</time>
      </trkpt>
      <trkpt lat="49.96551" lon="2.37241">
        <ele>111.1</ele>
        <time>2023-01-04T14:35:37Z</time>
      </trkpt>
      <trkpt lat="49.96551" lon="2.37241">
        <ele>111.1</ele>
        <time>2023-01-04T14:35:38Z</time>
      </trkpt>
      <trkpt lat="49.96551" lon="2.37241">
        <ele>111.1</ele>
        <time>2023-01-04T14:35:39Z</time>
      </trkpt>
      <trkpt lat="49.96551" lon="2.37241">
        <ele>111.1</ele>
        <time>2023-01-04T14:35:40Z</time>
      </trkpt>
      <trkpt lat="49.96551" lon="2.37241">
        <ele>111.1</ele>
        <time>2023-01-04T14:35:41Z</time>
      </trkpt>
      <trkpt lat="49.96551" lon="2.37241">
        <ele>111.1</ele>
        <time>2023-01-04T14:35:42Z</time>
      </trkpt>
      <trkpt lat="49.96551" lon="2.37241">
        <ele>111.1</ele>
        <time>2023-01-04T14:35:43Z</time>
      </trkpt>
      <trkpt lat="49.96551" lon="2.37241">
        <ele>111.1</ele>
        <time>2023-01-04T14:35:44Z</time>
      </trkpt>
      <trkpt lat="49.96551" lon="2.37241">
        <ele>111.1</ele>
        <time>2023-01-04T14:35:45Z</time>
      </trkpt>
      <trkpt lat="49.96551" lon="2.37241">
        <ele>111.1</ele>
        <time>2023-01-04T14:35:46Z</time>
      </trkpt>
      <trkpt lat="49.96551" lon="2.3724">
        <ele>111.1</ele>
        <time>2023-01-04T14:35:47Z</time>
      </trkpt>
      <trkpt lat="49.96552" lon="2.3724">
        <ele>111.1</ele>
        <time>2023-01-04T14:35:48Z</time>
      </trkpt>
      <trkpt lat="49.96552" lon="2.3724">
        <ele>111.1</ele>
        <time>2023-01-04T14:35:49Z</time>
      </trkpt>
      <trkpt lat="49.96552" lon="2.3724">
        <ele>111.1</ele>
        <time>2023-01-04T14:35:50Z</time>
      </trkpt>
      <trkpt lat="49.96552" lon="2.3724">
        <ele>111.1</ele>
        <time>2023-01-04T14:35:51Z</time>
      </trkpt>
      <trkpt lat="49.96552" lon="2.3724">
        <ele>111.1</ele>
        <time>2023-01-04T14:35:53Z</time>
      </trkpt>
      <trkpt lat="49.96553" lon="2.37241">
        <ele>111.1</ele>
        <time>2023-01-04T14:35:54Z</time>
      </trkpt>
      <trkpt lat="49.96553" lon="2.37241">
        <ele>111.1</ele>
        <time>2023-01-04T14:35:55Z</time>
      </trkpt>
      <trkpt lat="49.96554" lon="2.37241">
        <ele>111.1</ele>
        <time>2023-01-04T14:35:57Z</time>
      </trkpt>
      <trkpt lat="49.96554" lon="2.37241">
        <ele>111.1</ele>
        <time>2023-01-04T14:35:58Z</time>
      </trkpt>
      <trkpt lat="49.96554" lon="2.37241">
        <ele>111.1</ele>
        <time>2023-01-04T14:35:59Z</time>
      </trkpt>
      <trkpt lat="49.96555" lon="2.37241">
        <ele>111.1</ele>
        <time>2023-01-04T14:36:00Z</time>
      </trkpt>
      <trkpt lat="49.96555" lon="2.37242">
        <ele>111.1</ele>
        <time>2023-01-04T14:36:01Z</time>
      </trkpt>
      <trkpt lat="49.96555" lon="2.37242">
        <ele>111.1</ele>
        <time>2023-01-04T14:36:02Z</time>
      </trkpt>
      <trkpt lat="49.96556" lon="2.37242">
        <ele>111.1</ele>
        <time>2023-01-04T14:36:03Z</time>
      </trkpt>
      <trkpt lat="49.96555" lon="2.37244">
        <ele>111.1</ele>
        <time>2023-01-04T14:36:05Z</time>
      </trkpt>
      <trkpt lat="49.96554" lon="2.37244">
        <ele>111.1</ele>
        <time>2023-01-04T14:36:06Z</time>
      </trkpt>
      <trkpt lat="49.96553" lon="2.37244">
        <ele>111</ele>
        <time>2023-01-04T14:36:07Z</time>
      </trkpt>
      <trkpt lat="49.96552" lon="2.37244">
        <ele>111</ele>
        <time>2023-01-04T14:36:09Z</time>
      </trkpt>
      <trkpt lat="49.96552" lon="2.37244">
        <ele>111</ele>
        <time>2023-01-04T14:36:10Z</time>
      </trkpt>
      <trkpt lat="49.96552" lon="2.37243">
        <ele>111</ele>
        <time>2023-01-04T14:36:11Z</time>
      </trkpt>
      <trkpt lat="49.96552" lon="2.37243">
        <ele>111</ele>
        <time>2023-01-04T14:36:12Z</time>
      </trkpt>
      <trkpt lat="49.96552" lon="2.37244">
        <ele>111</ele>
        <time>2023-01-04T14:36:14Z</time>
      </trkpt>
      <trkpt lat="49.96552" lon="2.37244">
        <ele>111</ele>
        <time>2023-01-04T14:36:15Z</time>
      </trkpt>
      <trkpt lat="49.96552" lon="2.37245">
        <ele>111</ele>
        <time>2023-01-04T14:36:16Z</time>
      </trkpt>
      <trkpt lat="49.96551" lon="2.37247">
        <ele>111</ele>
        <time>2023-01-04T14:36:17Z</time>
      </trkpt>
      <trkpt lat="49.96552" lon="2.37249">
        <ele>111</ele>
        <time>2023-01-04T14:36:18Z</time>
      </trkpt>
      <trkpt lat="49.96552" lon="2.37251">
        <ele>111</ele>
        <time>2023-01-04T14:36:19Z</time>
      </trkpt>
      <trkpt lat="49.96554" lon="2.37253">
        <ele>111</ele>
        <time>2023-01-04T14:36:20Z</time>
      </trkpt>
      <trkpt lat="49.96555" lon="2.37256">
        <ele>110.9</ele>
        <time>2023-01-04T14:36:22Z</time>
      </trkpt>
      <trkpt lat="49.96556" lon="2.37258">
        <ele>110.9</ele>
        <time>2023-01-04T14:36:23Z</time>
      </trkpt>
      <trkpt lat="49.96557" lon="2.37262">
        <ele>110.9</ele>
        <time>2023-01-04T14:36:24Z</time>
      </trkpt>
      <trkpt lat="49.96558" lon="2.37263">
        <ele>110.9</ele>
        <time>2023-01-04T14:36:25Z</time>
      </trkpt>
      <trkpt lat="49.96559" lon="2.37265">
        <ele>110.9</ele>
        <time>2023-01-04T14:36:26Z</time>
      </trkpt>
      <trkpt lat="49.96559" lon="2.37268">
        <ele>110.9</ele>
        <time>2023-01-04T14:36:27Z</time>
      </trkpt>
      <trkpt lat="49.96559" lon="2.3727">
        <ele>110.9</ele>
        <time>2023-01-04T14:36:29Z</time>
      </trkpt>
      <trkpt lat="49.96559" lon="2.37272">
        <ele>110.9</ele>
        <time>2023-01-04T14:36:30Z</time>
      </trkpt>
      <trkpt lat="49.96558" lon="2.37275">
        <ele>110.9</ele>
        <time>2023-01-04T14:36:31Z</time>
      </trkpt>
      <trkpt lat="49.96558" lon="2.37276">
        <ele>110.9</ele>
        <time>2023-01-04T14:36:32Z</time>
      </trkpt>
      <trkpt lat="49.96557" lon="2.37278">
        <ele>110.9</ele>
        <time>2023-01-04T14:36:33Z</time>
      </trkpt>
      <trkpt lat="49.96557" lon="2.37279">
        <ele>110.9</ele>
        <time>2023-01-04T14:36:34Z</time>
      </trkpt>
      <trkpt lat="49.96556" lon="2.37281">
        <ele>110.9</ele>
        <time>2023-01-04T14:36:35Z</time>
      </trkpt>
      <trkpt lat="49.96556" lon="2.37282">
        <ele>110.8</ele>
        <time>2023-01-04T14:36:36Z</time>
      </trkpt>
      <trkpt lat="49.96556" lon="2.37284">
        <ele>110.8</ele>
        <time>2023-01-04T14:36:38Z</time>
      </trkpt>
      <trkpt lat="49.96555" lon="2.37286">
        <ele>110.8</ele>
        <time>2023-01-04T14:36:39Z</time>
      </trkpt>
      <trkpt lat="49.96555" lon="2.37287">
        <ele>110.8</ele>
        <time>2023-01-04T14:36:40Z</time>
      </trkpt>
      <trkpt lat="49.96555" lon="2.37289">
        <ele>110.8</ele>
        <time>2023-01-04T14:36:41Z</time>
      </trkpt>
      <trkpt lat="49.96554" lon="2.37292">
        <ele>110.8</ele>
        <time>2023-01-04T14:36:42Z</time>
      </trkpt>
      <trkpt lat="49.96554" lon="2.37294">
        <ele>110.8</ele>
        <time>2023-01-04T14:36:43Z</time>
      </trkpt>
      <trkpt lat="49.96554" lon="2.37296">
        <ele>110.8</ele>
        <time>2023-01-04T14:36:44Z</time>
      </trkpt>
      <trkpt lat="49.96554" lon="2.37298">
        <ele>110.8</ele>
        <time>2023-01-04T14:36:46Z</time>
      </trkpt>
      <trkpt lat="49.96553" lon="2.373">
        <ele>110.8</ele>
        <time>2023-01-04T14:36:47Z</time>
      </trkpt>
      <trkpt lat="49.96552" lon="2.37302">
        <ele>110.8</ele>
        <time>2023-01-04T14:36:48Z</time>
      </trkpt>
      <trkpt lat="49.96551" lon="2.37304">
        <ele>110.8</ele>
        <time>2023-01-04T14:36:49Z</time>
      </trkpt>
      <trkpt lat="49.9655" lon="2.37307">
        <ele>110.8</ele>
        <time>2023-01-04T14:36:50Z</time>
      </trkpt>
      <trkpt lat="49.96549" lon="2.37308">
        <ele>110.8</ele>
        <time>2023-01-04T14:36:51Z</time>
      </trkpt>
      <trkpt lat="49.96548" lon="2.3731">
        <ele>110.8</ele>
        <time>2023-01-04T14:36:53Z</time>
      </trkpt>
      <trkpt lat="49.96547" lon="2.37312">
        <ele>110.8</ele>
        <time>2023-01-04T14:36:54Z</time>
      </trkpt>
      <trkpt lat="49.96546" lon="2.37315">
        <ele>110.8</ele>
        <time>2023-01-04T14:36:55Z</time>
      </trkpt>
      <trkpt lat="49.96546" lon="2.37317">
        <ele>110.8</ele>
        <time>2023-01-04T14:36:56Z</time>
      </trkpt>
      <trkpt lat="49.96545" lon="2.3732">
        <ele>110.8</ele>
        <time>2023-01-04T14:36:57Z</time>
      </trkpt>
      <trkpt lat="49.96544" lon="2.37321">
        <ele>110.8</ele>
        <time>2023-01-04T14:36:58Z</time>
      </trkpt>
      <trkpt lat="49.96544" lon="2.37323">
        <ele>110.8</ele>
        <time>2023-01-04T14:36:59Z</time>
      </trkpt>
      <trkpt lat="49.96544" lon="2.37325">
        <ele>110.8</ele>
        <time>2023-01-04T14:37:00Z</time>
      </trkpt>
      <trkpt lat="49.96543" lon="2.37326">
        <ele>110.8</ele>
        <time>2023-01-04T14:37:02Z</time>
      </trkpt>
      <trkpt lat="49.96543" lon="2.37327">
        <ele>110.8</ele>
        <time>2023-01-04T14:37:03Z</time>
      </trkpt>
      <trkpt lat="49.96542" lon="2.37328">
        <ele>110.8</ele>
        <time>2023-01-04T14:37:04Z</time>
      </trkpt>
      <trkpt lat="49.96541" lon="2.3733">
        <ele>110.8</ele>
        <time>2023-01-04T14:37:05Z</time>
      </trkpt>
      <trkpt lat="49.96541" lon="2.37332">
        <ele>110.8</ele>
        <time>2023-01-04T14:37:06Z</time>
      </trkpt>
      <trkpt lat="49.9654" lon="2.37333">
        <ele>110.8</ele>
        <time>2023-01-04T14:37:07Z</time>
      </trkpt>
      <trkpt lat="49.96539" lon="2.37334">
        <ele>110.8</ele>
        <time>2023-01-04T14:37:08Z</time>
      </trkpt>
      <trkpt lat="49.96539" lon="2.37336">
        <ele>110.7</ele>
        <time>2023-01-04T14:37:09Z</time>
      </trkpt>
      <trkpt lat="49.96538" lon="2.37338">
        <ele>110.7</ele>
        <time>2023-01-04T14:37:10Z</time>
      </trkpt>
      <trkpt lat="49.96537" lon="2.37339">
        <ele>110.7</ele>
        <time>2023-01-04T14:37:12Z</time>
      </trkpt>
      <trkpt lat="49.96537" lon="2.37341">
        <ele>110.7</ele>
        <time>2023-01-04T14:37:13Z</time>
      </trkpt>
      <trkpt lat="49.96536" lon="2.37343">
        <ele>110.7</ele>
        <time>2023-01-04T14:37:14Z</time>
      </trkpt>
      <trkpt lat="49.96535" lon="2.37346">
        <ele>110.6</ele>
        <time>2023-01-04T14:37:15Z</time>
      </trkpt>
      <trkpt lat="49.96535" lon="2.37347">
        <ele>110.6</ele>
        <time>2023-01-04T14:37:16Z</time>
      </trkpt>
      <trkpt lat="49.96534" lon="2.37349">
        <ele>110.6</ele>
        <time>2023-01-04T14:37:17Z</time>
      </trkpt>
      <trkpt lat="49.96533" lon="2.3735">
        <ele>110.6</ele>
        <time>2023-01-04T14:37:18Z</time>
      </trkpt>
      <trkpt lat="49.96533" lon="2.37352">
        <ele>110.6</ele>
        <time>2023-01-04T14:37:19Z</time>
      </trkpt>
      <trkpt lat="49.96532" lon="2.37354">
        <ele>110.6</ele>
        <time>2023-01-04T14:37:21Z</time>
      </trkpt>
      <trkpt lat="49.96531" lon="2.37355">
        <ele>110.5</ele>
        <time>2023-01-04T14:37:22Z</time>
      </trkpt>
      <trkpt lat="49.96531" lon="2.37357">
        <ele>110.5</ele>
        <time>2023-01-04T14:37:23Z</time>
      </trkpt>
      <trkpt lat="49.9653" lon="2.3736">
        <ele>110.5</ele>
        <time>2023-01-04T14:37:24Z</time>
      </trkpt>
      <trkpt lat="49.96529" lon="2.37364">
        <ele>110.4</ele>
        <time>2023-01-04T14:37:25Z</time>
      </trkpt>
      <trkpt lat="49.96528" lon="2.37365">
        <ele>110.4</ele>
        <time>2023-01-04T14:37:27Z</time>
      </trkpt>
      <trkpt lat="49.96528" lon="2.37367">
        <ele>110.4</ele>
        <time>2023-01-04T14:37:28Z</time>
      </trkpt>
      <trkpt lat="49.96527" lon="2.37368">
        <ele>110.4</ele>
        <time>2023-01-04T14:37:29Z</time>
      </trkpt>
      <trkpt lat="49.96527" lon="2.3737">
        <ele>110.4</ele>
        <time>2023-01-04T14:37:30Z</time>
      </trkpt>
      <trkpt lat="49.96526" lon="2.37371">
        <ele>110.4</ele>
        <time>2023-01-04T14:37:31Z</time>
      </trkpt>
      <trkpt lat="49.96526" lon="2.37372">
        <ele>110.4</ele>
        <time>2023-01-04T14:37:32Z</time>
      </trkpt>
      <trkpt lat="49.96525" lon="2.37374">
        <ele>110.3</ele>
        <time>2023-01-04T14:37:33Z</time>
      </trkpt>
      <trkpt lat="49.96525" lon="2.37376">
        <ele>110.3</ele>
        <time>2023-01-04T14:37:34Z</time>
      </trkpt>
      <trkpt lat="49.96524" lon="2.37378">
        <ele>110.3</ele>
        <time>2023-01-04T14:37:35Z</time>
      </trkpt>
      <trkpt lat="49.96524" lon="2.3738">
        <ele>110.3</ele>
        <time>2023-01-04T14:37:37Z</time>
      </trkpt>
      <trkpt lat="49.96523" lon="2.37382">
        <ele>110.3</ele>
        <time>2023-01-04T14:37:38Z</time>
      </trkpt>
      <trkpt lat="49.96523" lon="2.37384">
        <ele>110.2</ele>
        <time>2023-01-04T14:37:39Z</time>
      </trkpt>
      <trkpt lat="49.96522" lon="2.37387">
        <ele>110.2</ele>
        <time>2023-01-04T14:37:40Z</time>
      </trkpt>
      <trkpt lat="49.96522" lon="2.37388">
        <ele>110.2</ele>
        <time>2023-01-04T14:37:41Z</time>
      </trkpt>
      <trkpt lat="49.96522" lon="2.37389">
        <ele>110.2</ele>
        <time>2023-01-04T14:37:42Z</time>
      </trkpt>
      <trkpt lat="49.96521" lon="2.37392">
        <ele>110.1</ele>
        <time>2023-01-04T14:37:43Z</time>
      </trkpt>
      <trkpt lat="49.9652" lon="2.37394">
        <ele>110.1</ele>
        <time>2023-01-04T14:37:44Z</time>
      </trkpt>
      <trkpt lat="49.9652" lon="2.37395">
        <ele>110.1</ele>
        <time>2023-01-04T14:37:45Z</time>
      </trkpt>
      <trkpt lat="49.96519" lon="2.37398">
        <ele>110.1</ele>
        <time>2023-01-04T14:37:47Z</time>
      </trkpt>
      <trkpt lat="49.96519" lon="2.37399">
        <ele>110.1</ele>
        <time>2023-01-04T14:37:48Z</time>
      </trkpt>
      <trkpt lat="49.96519" lon="2.374">
        <ele>110.1</ele>
        <time>2023-01-04T14:37:49Z</time>
      </trkpt>
      <trkpt lat="49.96518" lon="2.37404">
        <ele>110</ele>
        <time>2023-01-04T14:37:50Z</time>
      </trkpt>
      <trkpt lat="49.96518" lon="2.37405">
        <ele>110</ele>
        <time>2023-01-04T14:37:51Z</time>
      </trkpt>
      <trkpt lat="49.96517" lon="2.37406">
        <ele>110</ele>
        <time>2023-01-04T14:37:52Z</time>
      </trkpt>
      <trkpt lat="49.96517" lon="2.37409">
        <ele>110</ele>
        <time>2023-01-04T14:37:53Z</time>
      </trkpt>
      <trkpt lat="49.96516" lon="2.3741">
        <ele>110</ele>
        <time>2023-01-04T14:37:54Z</time>
      </trkpt>
      <trkpt lat="49.96516" lon="2.37412">
        <ele>110</ele>
        <time>2023-01-04T14:37:55Z</time>
      </trkpt>
      <trkpt lat="49.96515" lon="2.37414">
        <ele>110</ele>
        <time>2023-01-04T14:37:57Z</time>
      </trkpt>
      <trkpt lat="49.96514" lon="2.37416">
        <ele>110</ele>
        <time>2023-01-04T14:37:58Z</time>
      </trkpt>
      <trkpt lat="49.96514" lon="2.37417">
        <ele>110</ele>
        <time>2023-01-04T14:37:59Z</time>
      </trkpt>
      <trkpt lat="49.96513" lon="2.37418">
        <ele>110</ele>
        <time>2023-01-04T14:38:00Z</time>
      </trkpt>
      <trkpt lat="49.96512" lon="2.37421">
        <ele>110</ele>
        <time>2023-01-04T14:38:01Z</time>
      </trkpt>
      <trkpt lat="49.96511" lon="2.37422">
        <ele>110</ele>
        <time>2023-01-04T14:38:02Z</time>
      </trkpt>
      <trkpt lat="49.9651" lon="2.37424">
        <ele>110</ele>
        <time>2023-01-04T14:38:04Z</time>
      </trkpt>
      <trkpt lat="49.96509" lon="2.37426">
        <ele>110</ele>
        <time>2023-01-04T14:38:05Z</time>
      </trkpt>
      <trkpt lat="49.96508" lon="2.37428">
        <ele>110</ele>
        <time>2023-01-04T14:38:06Z</time>
      </trkpt>
      <trkpt lat="49.96506" lon="2.3743">
        <ele>109.9</ele>
        <time>2023-01-04T14:38:07Z</time>
      </trkpt>
      <trkpt lat="49.96506" lon="2.37431">
        <ele>109.9</ele>
        <time>2023-01-04T14:38:08Z</time>
      </trkpt>
      <trkpt lat="49.96505" lon="2.37432">
        <ele>109.9</ele>
        <time>2023-01-04T14:38:09Z</time>
      </trkpt>
      <trkpt lat="49.96504" lon="2.37435">
        <ele>109.9</ele>
        <time>2023-01-04T14:38:10Z</time>
      </trkpt>
      <trkpt lat="49.96503" lon="2.37436">
        <ele>109.9</ele>
        <time>2023-01-04T14:38:11Z</time>
      </trkpt>
      <trkpt lat="49.96502" lon="2.37436">
        <ele>109.9</ele>
        <time>2023-01-04T14:38:12Z</time>
      </trkpt>
      <trkpt lat="49.96501" lon="2.37438">
        <ele>109.9</ele>
        <time>2023-01-04T14:38:13Z</time>
      </trkpt>
      <trkpt lat="49.96501" lon="2.37439">
        <ele>109.9</ele>
        <time>2023-01-04T14:38:15Z</time>
      </trkpt>
      <trkpt lat="49.96499" lon="2.37441">
        <ele>109.9</ele>
        <time>2023-01-04T14:38:16Z</time>
      </trkpt>
      <trkpt lat="49.96499" lon="2.37443">
        <ele>110</ele>
        <time>2023-01-04T14:38:17Z</time>
      </trkpt>
      <trkpt lat="49.96498" lon="2.37445">
        <ele>110</ele>
        <time>2023-01-04T14:38:18Z</time>
      </trkpt>
      <trkpt lat="49.96497" lon="2.37447">
        <ele>110</ele>
        <time>2023-01-04T14:38:19Z</time>
      </trkpt>
      <trkpt lat="49.96496" lon="2.37449">
        <ele>110</ele>
        <time>2023-01-04T14:38:20Z</time>
      </trkpt>
      <trkpt lat="49.96495" lon="2.37451">
        <ele>110</ele>
        <time>2023-01-04T14:38:21Z</time>
      </trkpt>
      <trkpt lat="49.96494" lon="2.37453">
        <ele>110</ele>
        <time>2023-01-04T14:38:22Z</time>
      </trkpt>
      <trkpt lat="49.96493" lon="2.37455">
        <ele>110</ele>
        <time>2023-01-04T14:38:24Z</time>
      </trkpt>
      <trkpt lat="49.96493" lon="2.37456">
        <ele>110</ele>
        <time>2023-01-04T14:38:25Z</time>
      </trkpt>
      <trkpt lat="49.96492" lon="2.37458">
        <ele>110</ele>
        <time>2023-01-04T14:38:26Z</time>
      </trkpt>
      <trkpt lat="49.96491" lon="2.3746">
        <ele>110</ele>
        <time>2023-01-04T14:38:27Z</time>
      </trkpt>
      <trkpt lat="49.9649" lon="2.37461">
        <ele>110</ele>
        <time>2023-01-04T14:38:28Z</time>
      </trkpt>
      <trkpt lat="49.96489" lon="2.37463">
        <ele>110</ele>
        <time>2023-01-04T14:38:29Z</time>
      </trkpt>
      <trkpt lat="49.96488" lon="2.37466">
        <ele>110</ele>
        <time>2023-01-04T14:38:30Z</time>
      </trkpt>
      <trkpt lat="49.96488" lon="2.37467">
        <ele>110</ele>
        <time>2023-01-04T14:38:31Z</time>
      </trkpt>
      <trkpt lat="49.96487" lon="2.3747">
        <ele>110</ele>
        <time>2023-01-04T14:38:32Z</time>
      </trkpt>
      <trkpt lat="49.96486" lon="2.37471">
        <ele>110</ele>
        <time>2023-01-04T14:38:33Z</time>
      </trkpt>
      <trkpt lat="49.96486" lon="2.37472">
        <ele>110</ele>
        <time>2023-01-04T14:38:34Z</time>
      </trkpt>
      <trkpt lat="49.96484" lon="2.37475">
        <ele>110</ele>
        <time>2023-01-04T14:38:36Z</time>
      </trkpt>
      <trkpt lat="49.96484" lon="2.37477">
        <ele>110</ele>
        <time>2023-01-04T14:38:37Z</time>
      </trkpt>
      <trkpt lat="49.96483" lon="2.3748">
        <ele>110</ele>
        <time>2023-01-04T14:38:38Z</time>
      </trkpt>
      <trkpt lat="49.96483" lon="2.37481">
        <ele>110</ele>
        <time>2023-01-04T14:38:39Z</time>
      </trkpt>
      <trkpt lat="49.96482" lon="2.37483">
        <ele>110</ele>
        <time>2023-01-04T14:38:40Z</time>
      </trkpt>
      <trkpt lat="49.96481" lon="2.37485">
        <ele>110</ele>
        <time>2023-01-04T14:38:41Z</time>
      </trkpt>
      <trkpt lat="49.96481" lon="2.37486">
        <ele>110</ele>
        <time>2023-01-04T14:38:43Z</time>
      </trkpt>
      <trkpt lat="49.9648" lon="2.37487">
        <ele>110</ele>
        <time>2023-01-04T14:38:44Z</time>
      </trkpt>
      <trkpt lat="49.96479" lon="2.37489">
        <ele>110</ele>
        <time>2023-01-04T14:38:45Z</time>
      </trkpt>
      <trkpt lat="49.96479" lon="2.37492">
        <ele>110</ele>
        <time>2023-01-04T14:38:46Z</time>
      </trkpt>
      <trkpt lat="49.96478" lon="2.37493">
        <ele>110</ele>
        <time>2023-01-04T14:38:47Z</time>
      </trkpt>
      <trkpt lat="49.96477" lon="2.37494">
        <ele>110</ele>
        <time>2023-01-04T14:38:48Z</time>
      </trkpt>
      <trkpt lat="49.96477" lon="2.37496">
        <ele>110</ele>
        <time>2023-01-04T14:38:49Z</time>
      </trkpt>
      <trkpt lat="49.96477" lon="2.37497">
        <ele>110</ele>
        <time>2023-01-04T14:38:50Z</time>
      </trkpt>
      <trkpt lat="49.96476" lon="2.37499">
        <ele>110</ele>
        <time>2023-01-04T14:38:51Z</time>
      </trkpt>
      <trkpt lat="49.96475" lon="2.375">
        <ele>110</ele>
        <time>2023-01-04T14:38:52Z</time>
      </trkpt>
      <trkpt lat="49.96475" lon="2.37501">
        <ele>110</ele>
        <time>2023-01-04T14:38:53Z</time>
      </trkpt>
      <trkpt lat="49.96474" lon="2.37503">
        <ele>110</ele>
        <time>2023-01-04T14:38:54Z</time>
      </trkpt>
      <trkpt lat="49.96473" lon="2.37504">
        <ele>110</ele>
        <time>2023-01-04T14:38:56Z</time>
      </trkpt>
      <trkpt lat="49.96472" lon="2.37507">
        <ele>110</ele>
        <time>2023-01-04T14:38:57Z</time>
      </trkpt>
      <trkpt lat="49.96471" lon="2.37508">
        <ele>110</ele>
        <time>2023-01-04T14:38:58Z</time>
      </trkpt>
      <trkpt lat="49.9647" lon="2.37509">
        <ele>110</ele>
        <time>2023-01-04T14:38:59Z</time>
      </trkpt>
      <trkpt lat="49.96469" lon="2.37511">
        <ele>110</ele>
        <time>2023-01-04T14:39:00Z</time>
      </trkpt>
      <trkpt lat="49.96468" lon="2.37512">
        <ele>110</ele>
        <time>2023-01-04T14:39:01Z</time>
      </trkpt>
      <trkpt lat="49.96468" lon="2.37513">
        <ele>110</ele>
        <time>2023-01-04T14:39:02Z</time>
      </trkpt>
      <trkpt lat="49.96466" lon="2.37516">
        <ele>110</ele>
        <time>2023-01-04T14:39:03Z</time>
      </trkpt>
      <trkpt lat="49.96466" lon="2.37517">
        <ele>110</ele>
        <time>2023-01-04T14:39:05Z</time>
      </trkpt>
      <trkpt lat="49.96465" lon="2.37518">
        <ele>110</ele>
        <time>2023-01-04T14:39:06Z</time>
      </trkpt>
      <trkpt lat="49.96465" lon="2.37519">
        <ele>110</ele>
        <time>2023-01-04T14:39:07Z</time>
      </trkpt>
      <trkpt lat="49.96464" lon="2.37521">
        <ele>110</ele>
        <time>2023-01-04T14:39:08Z</time>
      </trkpt>
      <trkpt lat="49.96463" lon="2.37523">
        <ele>110</ele>
        <time>2023-01-04T14:39:09Z</time>
      </trkpt>
      <trkpt lat="49.96462" lon="2.37526">
        <ele>110</ele>
        <time>2023-01-04T14:39:10Z</time>
      </trkpt>
      <trkpt lat="49.96461" lon="2.37528">
        <ele>110</ele>
        <time>2023-01-04T14:39:12Z</time>
      </trkpt>
      <trkpt lat="49.96461" lon="2.37529">
        <ele>110</ele>
        <time>2023-01-04T14:39:13Z</time>
      </trkpt>
      <trkpt lat="49.9646" lon="2.3753">
        <ele>110</ele>
        <time>2023-01-04T14:39:14Z</time>
      </trkpt>
      <trkpt lat="49.9646" lon="2.37532">
        <ele>110</ele>
        <time>2023-01-04T14:39:15Z</time>
      </trkpt>
      <trkpt lat="49.96459" lon="2.37534">
        <ele>110</ele>
        <time>2023-01-04T14:39:16Z</time>
      </trkpt>
      <trkpt lat="49.96458" lon="2.37535">
        <ele>110</ele>
        <time>2023-01-04T14:39:17Z</time>
      </trkpt>
      <trkpt lat="49.96457" lon="2.37536">
        <ele>110</ele>
        <time>2023-01-04T14:39:18Z</time>
      </trkpt>
      <trkpt lat="49.96457" lon="2.37538">
        <ele>110</ele>
        <time>2023-01-04T14:39:20Z</time>
      </trkpt>
      <trkpt lat="49.96456" lon="2.37541">
        <ele>110</ele>
        <time>2023-01-04T14:39:21Z</time>
      </trkpt>
      <trkpt lat="49.96454" lon="2.37543">
        <ele>110</ele>
        <time>2023-01-04T14:39:22Z</time>
      </trkpt>
      <trkpt lat="49.96454" lon="2.37544">
        <ele>110</ele>
        <time>2023-01-04T14:39:23Z</time>
      </trkpt>
      <trkpt lat="49.96454" lon="2.37545">
        <ele>110</ele>
        <time>2023-01-04T14:39:24Z</time>
      </trkpt>
      <trkpt lat="49.96453" lon="2.37547">
        <ele>110</ele>
        <time>2023-01-04T14:39:25Z</time>
      </trkpt>
      <trkpt lat="49.96452" lon="2.37549">
        <ele>110</ele>
        <time>2023-01-04T14:39:26Z</time>
      </trkpt>
      <trkpt lat="49.96451" lon="2.3755">
        <ele>110</ele>
        <time>2023-01-04T14:39:27Z</time>
      </trkpt>
      <trkpt lat="49.96451" lon="2.37551">
        <ele>110</ele>
        <time>2023-01-04T14:39:28Z</time>
      </trkpt>
      <trkpt lat="49.9645" lon="2.37553">
        <ele>110</ele>
        <time>2023-01-04T14:39:30Z</time>
      </trkpt>
      <trkpt lat="49.96449" lon="2.37555">
        <ele>110</ele>
        <time>2023-01-04T14:39:31Z</time>
      </trkpt>
      <trkpt lat="49.96448" lon="2.37556">
        <ele>110</ele>
        <time>2023-01-04T14:39:32Z</time>
      </trkpt>
      <trkpt lat="49.96447" lon="2.37559">
        <ele>110</ele>
        <time>2023-01-04T14:39:33Z</time>
      </trkpt>
      <trkpt lat="49.96446" lon="2.3756">
        <ele>110</ele>
        <time>2023-01-04T14:39:34Z</time>
      </trkpt>
      <trkpt lat="49.96446" lon="2.37561">
        <ele>110</ele>
        <time>2023-01-04T14:39:35Z</time>
      </trkpt>
      <trkpt lat="49.96445" lon="2.37564">
        <ele>110</ele>
        <time>2023-01-04T14:39:36Z</time>
      </trkpt>
      <trkpt lat="49.96444" lon="2.37565">
        <ele>110</ele>
        <time>2023-01-04T14:39:37Z</time>
      </trkpt>
      <trkpt lat="49.96444" lon="2.37566">
        <ele>110</ele>
        <time>2023-01-04T14:39:38Z</time>
      </trkpt>
      <trkpt lat="49.96443" lon="2.37568">
        <ele>110</ele>
        <time>2023-01-04T14:39:39Z</time>
      </trkpt>
      <trkpt lat="49.96442" lon="2.37569">
        <ele>110</ele>
        <time>2023-01-04T14:39:40Z</time>
      </trkpt>
      <trkpt lat="49.96441" lon="2.37571">
        <ele>110</ele>
        <time>2023-01-04T14:39:42Z</time>
      </trkpt>
      <trkpt lat="49.96441" lon="2.37573">
        <ele>110</ele>
        <time>2023-01-04T14:39:43Z</time>
      </trkpt>
      <trkpt lat="49.96439" lon="2.37576">
        <ele>110</ele>
        <time>2023-01-04T14:39:44Z</time>
      </trkpt>
      <trkpt lat="49.96439" lon="2.37577">
        <ele>110</ele>
        <time>2023-01-04T14:39:45Z</time>
      </trkpt>
      <trkpt lat="49.96438" lon="2.37579">
        <ele>110</ele>
        <time>2023-01-04T14:39:46Z</time>
      </trkpt>
      <trkpt lat="49.96437" lon="2.37581">
        <ele>110</ele>
        <time>2023-01-04T14:39:47Z</time>
      </trkpt>
      <trkpt lat="49.96437" lon="2.37582">
        <ele>110</ele>
        <time>2023-01-04T14:39:48Z</time>
      </trkpt>
      <trkpt lat="49.96436" lon="2.37583">
        <ele>110</ele>
        <time>2023-01-04T14:39:49Z</time>
      </trkpt>
      <trkpt lat="49.96435" lon="2.37585">
        <ele>110</ele>
        <time>2023-01-04T14:39:51Z</time>
      </trkpt>
      <trkpt lat="49.96434" lon="2.37587">
        <ele>110</ele>
        <time>2023-01-04T14:39:52Z</time>
      </trkpt>
      <trkpt lat="49.96433" lon="2.3759">
        <ele>110</ele>
        <time>2023-01-04T14:39:53Z</time>
      </trkpt>
      <trkpt lat="49.96432" lon="2.37591">
        <ele>110</ele>
        <time>2023-01-04T14:39:54Z</time>
      </trkpt>
      <trkpt lat="49.96432" lon="2.37592">
        <ele>110</ele>
        <time>2023-01-04T14:39:55Z</time>
      </trkpt>
      <trkpt lat="49.9643" lon="2.37595">
        <ele>110</ele>
        <time>2023-01-04T14:39:56Z</time>
      </trkpt>
      <trkpt lat="49.9643" lon="2.37596">
        <ele>110</ele>
        <time>2023-01-04T14:39:57Z</time>
      </trkpt>
      <trkpt lat="49.96429" lon="2.37598">
        <ele>110</ele>
        <time>2023-01-04T14:39:58Z</time>
      </trkpt>
      <trkpt lat="49.96429" lon="2.37599">
        <ele>110</ele>
        <time>2023-01-04T14:39:59Z</time>
      </trkpt>
      <trkpt lat="49.96428" lon="2.37601">
        <ele>110</ele>
        <time>2023-01-04T14:40:01Z</time>
      </trkpt>
      <trkpt lat="49.96426" lon="2.37604">
        <ele>110</ele>
        <time>2023-01-04T14:40:02Z</time>
      </trkpt>
      <trkpt lat="49.96426" lon="2.37605">
        <ele>110</ele>
        <time>2023-01-04T14:40:03Z</time>
      </trkpt>
      <trkpt lat="49.96425" lon="2.37606">
        <ele>110</ele>
        <time>2023-01-04T14:40:04Z</time>
      </trkpt>
      <trkpt lat="49.96425" lon="2.37607">
        <ele>110</ele>
        <time>2023-01-04T14:40:05Z</time>
      </trkpt>
      <trkpt lat="49.96424" lon="2.37609">
        <ele>110</ele>
        <time>2023-01-04T14:40:06Z</time>
      </trkpt>
      <trkpt lat="49.96423" lon="2.37612">
        <ele>110</ele>
        <time>2023-01-04T14:40:07Z</time>
      </trkpt>
      <trkpt lat="49.96422" lon="2.37613">
        <ele>110</ele>
        <time>2023-01-04T14:40:08Z</time>
      </trkpt>
      <trkpt lat="49.96422" lon="2.37614">
        <ele>110</ele>
        <time>2023-01-04T14:40:09Z</time>
      </trkpt>
      <trkpt lat="49.96421" lon="2.37616">
        <ele>110</ele>
        <time>2023-01-04T14:40:10Z</time>
      </trkpt>
      <trkpt lat="49.9642" lon="2.37619">
        <ele>110</ele>
        <time>2023-01-04T14:40:11Z</time>
      </trkpt>
      <trkpt lat="49.9642" lon="2.3762">
        <ele>110</ele>
        <time>2023-01-04T14:40:13Z</time>
      </trkpt>
      <trkpt lat="49.96419" lon="2.37622">
        <ele>110</ele>
        <time>2023-01-04T14:40:14Z</time>
      </trkpt>
      <trkpt lat="49.96419" lon="2.37624">
        <ele>110</ele>
        <time>2023-01-04T14:40:15Z</time>
      </trkpt>
      <trkpt lat="49.96418" lon="2.37626">
        <ele>109.9</ele>
        <time>2023-01-04T14:40:16Z</time>
      </trkpt>
      <trkpt lat="49.96418" lon="2.37628">
        <ele>109.9</ele>
        <time>2023-01-04T14:40:17Z</time>
      </trkpt>
      <trkpt lat="49.96417" lon="2.37629">
        <ele>109.9</ele>
        <time>2023-01-04T14:40:18Z</time>
      </trkpt>
      <trkpt lat="49.96416" lon="2.37631">
        <ele>109.9</ele>
        <time>2023-01-04T14:40:19Z</time>
      </trkpt>
      <trkpt lat="49.96416" lon="2.37634">
        <ele>109.9</ele>
        <time>2023-01-04T14:40:20Z</time>
      </trkpt>
      <trkpt lat="49.96415" lon="2.37635">
        <ele>109.9</ele>
        <time>2023-01-04T14:40:21Z</time>
      </trkpt>
      <trkpt lat="49.96415" lon="2.37637">
        <ele>109.9</ele>
        <time>2023-01-04T14:40:22Z</time>
      </trkpt>
      <trkpt lat="49.96414" lon="2.3764">
        <ele>109.8</ele>
        <time>2023-01-04T14:40:24Z</time>
      </trkpt>
      <trkpt lat="49.96414" lon="2.37641">
        <ele>109.8</ele>
        <time>2023-01-04T14:40:25Z</time>
      </trkpt>
      <trkpt lat="49.96413" lon="2.37642">
        <ele>109.8</ele>
        <time>2023-01-04T14:40:26Z</time>
      </trkpt>
      <trkpt lat="49.96413" lon="2.37645">
        <ele>109.8</ele>
        <time>2023-01-04T14:40:27Z</time>
      </trkpt>
      <trkpt lat="49.96412" lon="2.37646">
        <ele>109.8</ele>
        <time>2023-01-04T14:40:28Z</time>
      </trkpt>
      <trkpt lat="49.96412" lon="2.37647">
        <ele>109.8</ele>
        <time>2023-01-04T14:40:29Z</time>
      </trkpt>
      <trkpt lat="49.96411" lon="2.37649">
        <ele>109.7</ele>
        <time>2023-01-04T14:40:30Z</time>
      </trkpt>
      <trkpt lat="49.96411" lon="2.37651">
        <ele>109.7</ele>
        <time>2023-01-04T14:40:31Z</time>
      </trkpt>
      <trkpt lat="49.9641" lon="2.37654">
        <ele>109.7</ele>
        <time>2023-01-04T14:40:32Z</time>
      </trkpt>
      <trkpt lat="49.96409" lon="2.37656">
        <ele>109.7</ele>
        <time>2023-01-04T14:40:34Z</time>
      </trkpt>
      <trkpt lat="49.96409" lon="2.37657">
        <ele>109.6</ele>
        <time>2023-01-04T14:40:35Z</time>
      </trkpt>
      <trkpt lat="49.96408" lon="2.37659">
        <ele>109.6</ele>
        <time>2023-01-04T14:40:36Z</time>
      </trkpt>
      <trkpt lat="49.96408" lon="2.37662">
        <ele>109.6</ele>
        <time>2023-01-04T14:40:37Z</time>
      </trkpt>
      <trkpt lat="49.96407" lon="2.37664">
        <ele>109.5</ele>
        <time>2023-01-04T14:40:38Z</time>
      </trkpt>
      <trkpt lat="49.96406" lon="2.37666">
        <ele>109.5</ele>
        <time>2023-01-04T14:40:39Z</time>
      </trkpt>
      <trkpt lat="49.96406" lon="2.37668">
        <ele>109.5</ele>
        <time>2023-01-04T14:40:40Z</time>
      </trkpt>
      <trkpt lat="49.96405" lon="2.3767">
        <ele>109.5</ele>
        <time>2023-01-04T14:40:41Z</time>
      </trkpt>
      <trkpt lat="49.96404" lon="2.37673">
        <ele>109.4</ele>
        <time>2023-01-04T14:40:43Z</time>
      </trkpt>
      <trkpt lat="49.96404" lon="2.37674">
        <ele>109.4</ele>
        <time>2023-01-04T14:40:44Z</time>
      </trkpt>
      <trkpt lat="49.96403" lon="2.37676">
        <ele>109.4</ele>
        <time>2023-01-04T14:40:45Z</time>
      </trkpt>
      <trkpt lat="49.96403" lon="2.37678">
        <ele>109.3</ele>
        <time>2023-01-04T14:40:46Z</time>
      </trkpt>
      <trkpt lat="49.96402" lon="2.37681">
        <ele>109.3</ele>
        <time>2023-01-04T14:40:47Z</time>
      </trkpt>
      <trkpt lat="49.96402" lon="2.37682">
        <ele>109.3</ele>
        <time>2023-01-04T14:40:48Z</time>
      </trkpt>
      <trkpt lat="49.96401" lon="2.37684">
        <ele>109.2</ele>
        <time>2023-01-04T14:40:49Z</time>
      </trkpt>
      <trkpt lat="49.96401" lon="2.37686">
        <ele>109.2</ele>
        <time>2023-01-04T14:40:50Z</time>
      </trkpt>
      <trkpt lat="49.964" lon="2.37689">
        <ele>109.2</ele>
        <time>2023-01-04T14:40:51Z</time>
      </trkpt>
      <trkpt lat="49.964" lon="2.3769">
        <ele>109.2</ele>
        <time>2023-01-04T14:40:52Z</time>
      </trkpt>
      <trkpt lat="49.96399" lon="2.37692">
        <ele>109.1</ele>
        <time>2023-01-04T14:40:54Z</time>
      </trkpt>
      <trkpt lat="49.96399" lon="2.37694">
        <ele>109.1</ele>
        <time>2023-01-04T14:40:55Z</time>
      </trkpt>
      <trkpt lat="49.96398" lon="2.37696">
        <ele>109.1</ele>
        <time>2023-01-04T14:40:56Z</time>
      </trkpt>
      <trkpt lat="49.96398" lon="2.37698">
        <ele>109</ele>
        <time>2023-01-04T14:40:57Z</time>
      </trkpt>
      <trkpt lat="49.96398" lon="2.377">
        <ele>109</ele>
        <time>2023-01-04T14:40:58Z</time>
      </trkpt>
      <trkpt lat="49.96398" lon="2.37702">
        <ele>109</ele>
        <time>2023-01-04T14:40:59Z</time>
      </trkpt>
      <trkpt lat="49.96398" lon="2.37704">
        <ele>109</ele>
        <time>2023-01-04T14:41:00Z</time>
      </trkpt>
      <trkpt lat="49.96397" lon="2.37707">
        <ele>108.9</ele>
        <time>2023-01-04T14:41:02Z</time>
      </trkpt>
      <trkpt lat="49.96397" lon="2.37708">
        <ele>108.9</ele>
        <time>2023-01-04T14:41:03Z</time>
      </trkpt>
      <trkpt lat="49.96397" lon="2.3771">
        <ele>108.9</ele>
        <time>2023-01-04T14:41:04Z</time>
      </trkpt>
      <trkpt lat="49.96396" lon="2.37712">
        <ele>108.8</ele>
        <time>2023-01-04T14:41:05Z</time>
      </trkpt>
      <trkpt lat="49.96396" lon="2.37714">
        <ele>108.8</ele>
        <time>2023-01-04T14:41:06Z</time>
      </trkpt>
      <trkpt lat="49.96395" lon="2.37715">
        <ele>108.8</ele>
        <time>2023-01-04T14:41:07Z</time>
      </trkpt>
      <trkpt lat="49.96394" lon="2.37718">
        <ele>108.7</ele>
        <time>2023-01-04T14:41:08Z</time>
      </trkpt>
      <trkpt lat="49.96394" lon="2.37719">
        <ele>108.7</ele>
        <time>2023-01-04T14:41:09Z</time>
      </trkpt>
      <trkpt lat="49.96394" lon="2.3772">
        <ele>108.7</ele>
        <time>2023-01-04T14:41:10Z</time>
      </trkpt>
      <trkpt lat="49.96393" lon="2.37723">
        <ele>108.6</ele>
        <time>2023-01-04T14:41:11Z</time>
      </trkpt>
      <trkpt lat="49.96393" lon="2.37724">
        <ele>108.6</ele>
        <time>2023-01-04T14:41:13Z</time>
      </trkpt>
      <trkpt lat="49.96392" lon="2.37726">
        <ele>108.6</ele>
        <time>2023-01-04T14:41:14Z</time>
      </trkpt>
      <trkpt lat="49.96392" lon="2.37729">
        <ele>108.5</ele>
        <time>2023-01-04T14:41:15Z</time>
      </trkpt>
      <trkpt lat="49.96391" lon="2.3773">
        <ele>108.5</ele>
        <time>2023-01-04T14:41:16Z</time>
      </trkpt>
      <trkpt lat="49.96391" lon="2.37732">
        <ele>108.4</ele>
        <time>2023-01-04T14:41:18Z</time>
      </trkpt>
      <trkpt lat="49.96391" lon="2.37734">
        <ele>108.4</ele>
        <time>2023-01-04T14:41:19Z</time>
      </trkpt>
      <trkpt lat="49.96392" lon="2.37737">
        <ele>108.4</ele>
        <time>2023-01-04T14:41:20Z</time>
      </trkpt>
      <trkpt lat="49.96392" lon="2.37738">
        <ele>108.3</ele>
        <time>2023-01-04T14:41:21Z</time>
      </trkpt>
      <trkpt lat="49.96392" lon="2.3774">
        <ele>108.3</ele>
        <time>2023-01-04T14:41:22Z</time>
      </trkpt>
      <trkpt lat="49.96392" lon="2.37742">
        <ele>108.3</ele>
        <time>2023-01-04T14:41:23Z</time>
      </trkpt>
      <trkpt lat="49.96391" lon="2.37743">
        <ele>108.2</ele>
        <time>2023-01-04T14:41:24Z</time>
      </trkpt>
      <trkpt lat="49.96391" lon="2.37745">
        <ele>108.2</ele>
        <time>2023-01-04T14:41:25Z</time>
      </trkpt>
      <trkpt lat="49.9639" lon="2.37747">
        <ele>108.2</ele>
        <time>2023-01-04T14:41:26Z</time>
      </trkpt>
      <trkpt lat="49.9639" lon="2.37748">
        <ele>108.1</ele>
        <time>2023-01-04T14:41:28Z</time>
      </trkpt>
      <trkpt lat="49.96389" lon="2.3775">
        <ele>108.1</ele>
        <time>2023-01-04T14:41:29Z</time>
      </trkpt>
      <trkpt lat="49.96389" lon="2.37751">
        <ele>108.1</ele>
        <time>2023-01-04T14:41:30Z</time>
      </trkpt>
      <trkpt lat="49.96389" lon="2.37752">
        <ele>108</ele>
        <time>2023-01-04T14:41:31Z</time>
      </trkpt>
      <trkpt lat="49.96388" lon="2.37754">
        <ele>108</ele>
        <time>2023-01-04T14:41:32Z</time>
      </trkpt>
      <trkpt lat="49.96388" lon="2.37755">
        <ele>108</ele>
        <time>2023-01-04T14:41:33Z</time>
      </trkpt>
      <trkpt lat="49.96388" lon="2.37757">
        <ele>107.9</ele>
        <time>2023-01-04T14:41:34Z</time>
      </trkpt>
      <trkpt lat="49.96387" lon="2.37759">
        <ele>107.9</ele>
        <time>2023-01-04T14:41:35Z</time>
      </trkpt>
      <trkpt lat="49.96387" lon="2.37762">
        <ele>107.8</ele>
        <time>2023-01-04T14:41:37Z</time>
      </trkpt>
      <trkpt lat="49.96387" lon="2.37764">
        <ele>107.8</ele>
        <time>2023-01-04T14:41:38Z</time>
      </trkpt>
      <trkpt lat="49.96386" lon="2.37767">
        <ele>107.7</ele>
        <time>2023-01-04T14:41:39Z</time>
      </trkpt>
      <trkpt lat="49.96386" lon="2.37768">
        <ele>107.7</ele>
        <time>2023-01-04T14:41:40Z</time>
      </trkpt>
      <trkpt lat="49.96385" lon="2.37769">
        <ele>107.7</ele>
        <time>2023-01-04T14:41:41Z</time>
      </trkpt>
      <trkpt lat="49.96385" lon="2.37771">
        <ele>107.7</ele>
        <time>2023-01-04T14:41:42Z</time>
      </trkpt>
      <trkpt lat="49.96384" lon="2.37773">
        <ele>107.6</ele>
        <time>2023-01-04T14:41:43Z</time>
      </trkpt>
      <trkpt lat="49.96384" lon="2.37774">
        <ele>107.6</ele>
        <time>2023-01-04T14:41:44Z</time>
      </trkpt>
      <trkpt lat="49.96383" lon="2.37776">
        <ele>107.6</ele>
        <time>2023-01-04T14:41:46Z</time>
      </trkpt>
      <trkpt lat="49.96383" lon="2.37779">
        <ele>107.5</ele>
        <time>2023-01-04T14:41:47Z</time>
      </trkpt>
      <trkpt lat="49.96383" lon="2.37782">
        <ele>107.4</ele>
        <time>2023-01-04T14:41:48Z</time>
      </trkpt>
      <trkpt lat="49.96383" lon="2.37783">
        <ele>107.4</ele>
        <time>2023-01-04T14:41:49Z</time>
      </trkpt>
      <trkpt lat="49.96383" lon="2.37785">
        <ele>107.4</ele>
        <time>2023-01-04T14:41:50Z</time>
      </trkpt>
      <trkpt lat="49.96382" lon="2.37787">
        <ele>107.4</ele>
        <time>2023-01-04T14:41:51Z</time>
      </trkpt>
      <trkpt lat="49.96382" lon="2.37789">
        <ele>107.3</ele>
        <time>2023-01-04T14:41:52Z</time>
      </trkpt>
      <trkpt lat="49.96382" lon="2.37792">
        <ele>107.2</ele>
        <time>2023-01-04T14:41:54Z</time>
      </trkpt>
      <trkpt lat="49.96382" lon="2.37793">
        <ele>107.2</ele>
        <time>2023-01-04T14:41:55Z</time>
      </trkpt>
      <trkpt lat="49.96382" lon="2.37795">
        <ele>107.2</ele>
        <time>2023-01-04T14:41:56Z</time>
      </trkpt>
      <trkpt lat="49.96382" lon="2.37797">
        <ele>107.2</ele>
        <time>2023-01-04T14:41:57Z</time>
      </trkpt>
      <trkpt lat="49.96382" lon="2.37798">
        <ele>107.1</ele>
        <time>2023-01-04T14:41:58Z</time>
      </trkpt>
      <trkpt lat="49.96381" lon="2.378">
        <ele>107.1</ele>
        <time>2023-01-04T14:41:59Z</time>
      </trkpt>
      <trkpt lat="49.96381" lon="2.37802">
        <ele>107.1</ele>
        <time>2023-01-04T14:42:00Z</time>
      </trkpt>
      <trkpt lat="49.96381" lon="2.37803">
        <ele>107</ele>
        <time>2023-01-04T14:42:01Z</time>
      </trkpt>
      <trkpt lat="49.96381" lon="2.37807">
        <ele>107</ele>
        <time>2023-01-04T14:42:03Z</time>
      </trkpt>
      <trkpt lat="49.96381" lon="2.3781">
        <ele>106.9</ele>
        <time>2023-01-04T14:42:04Z</time>
      </trkpt>
      <trkpt lat="49.96381" lon="2.37811">
        <ele>106.9</ele>
        <time>2023-01-04T14:42:05Z</time>
      </trkpt>
      <trkpt lat="49.96381" lon="2.37813">
        <ele>106.8</ele>
        <time>2023-01-04T14:42:06Z</time>
      </trkpt>
      <trkpt lat="49.96381" lon="2.37816">
        <ele>106.8</ele>
        <time>2023-01-04T14:42:08Z</time>
      </trkpt>
      <trkpt lat="49.96381" lon="2.37818">
        <ele>106.7</ele>
        <time>2023-01-04T14:42:09Z</time>
      </trkpt>
      <trkpt lat="49.9638" lon="2.37821">
        <ele>106.7</ele>
        <time>2023-01-04T14:42:10Z</time>
      </trkpt>
      <trkpt lat="49.9638" lon="2.37822">
        <ele>106.7</ele>
        <time>2023-01-04T14:42:11Z</time>
      </trkpt>
      <trkpt lat="49.96379" lon="2.37824">
        <ele>106.7</ele>
        <time>2023-01-04T14:42:12Z</time>
      </trkpt>
      <trkpt lat="49.96378" lon="2.37822">
        <ele>106.7</ele>
        <time>2023-01-04T14:42:13Z</time>
      </trkpt>
      <trkpt lat="49.96378" lon="2.3782">
        <ele>106.7</ele>
        <time>2023-01-04T14:42:15Z</time>
      </trkpt>
      <trkpt lat="49.96377" lon="2.37819">
        <ele>106.7</ele>
        <time>2023-01-04T14:42:16Z</time>
      </trkpt>
      <trkpt lat="49.96377" lon="2.37817">
        <ele>106.7</ele>
        <time>2023-01-04T14:42:17Z</time>
      </trkpt>
      <trkpt lat="49.96376" lon="2.37813">
        <ele>106.8</ele>
        <time>2023-01-04T14:42:19Z</time>
      </trkpt>
      <trkpt lat="49.96375" lon="2.37809">
        <ele>106.8</ele>
        <time>2023-01-04T14:42:20Z</time>
      </trkpt>
      <trkpt lat="49.96374" lon="2.37807">
        <ele>106.8</ele>
        <time>2023-01-04T14:42:21Z</time>
      </trkpt>
      <trkpt lat="49.96372" lon="2.37807">
        <ele>106.8</ele>
        <time>2023-01-04T14:42:23Z</time>
      </trkpt>
      <trkpt lat="49.96371" lon="2.37807">
        <ele>106.8</ele>
        <time>2023-01-04T14:42:24Z</time>
      </trkpt>
      <trkpt lat="49.9637" lon="2.37807">
        <ele>106.9</ele>
        <time>2023-01-04T14:42:25Z</time>
      </trkpt>
      <trkpt lat="49.96369" lon="2.37807">
        <ele>106.9</ele>
        <time>2023-01-04T14:42:27Z</time>
      </trkpt>
      <trkpt lat="49.96368" lon="2.37806">
        <ele>106.9</ele>
        <time>2023-01-04T14:42:28Z</time>
      </trkpt>
      <trkpt lat="49.96368" lon="2.37806">
        <ele>106.9</ele>
        <time>2023-01-04T14:42:29Z</time>
      </trkpt>
      <trkpt lat="49.96368" lon="2.37805">
        <ele>106.9</ele>
        <time>2023-01-04T14:42:30Z</time>
      </trkpt>
      <trkpt lat="49.96369" lon="2.37805">
        <ele>106.9</ele>
        <time>2023-01-04T14:42:32Z</time>
      </trkpt>
      <trkpt lat="49.96369" lon="2.37805">
        <ele>106.9</ele>
        <time>2023-01-04T14:42:33Z</time>
      </trkpt>
      <trkpt lat="49.96369" lon="2.37805">
        <ele>106.9</ele>
        <time>2023-01-04T14:42:34Z</time>
      </trkpt>
      <trkpt lat="49.96369" lon="2.37805">
        <ele>106.9</ele>
        <time>2023-01-04T14:42:36Z</time>
      </trkpt>
      <trkpt lat="49.96369" lon="2.37805">
        <ele>106.9</ele>
        <time>2023-01-04T14:42:37Z</time>
      </trkpt>
      <trkpt lat="49.96369" lon="2.37805">
        <ele>106.9</ele>
        <time>2023-01-04T14:42:38Z</time>
      </trkpt>
      <trkpt lat="49.96368" lon="2.37804">
        <ele>106.9</ele>
        <time>2023-01-04T14:42:39Z</time>
      </trkpt>
      <trkpt lat="49.96368" lon="2.37804">
        <ele>106.9</ele>
        <time>2023-01-04T14:42:40Z</time>
      </trkpt>
      <trkpt lat="49.96367" lon="2.37804">
        <ele>106.9</ele>
        <time>2023-01-04T14:42:41Z</time>
      </trkpt>
      <trkpt lat="49.96367" lon="2.37803">
        <ele>106.9</ele>
        <time>2023-01-04T14:42:42Z</time>
      </trkpt>
      <trkpt lat="49.96366" lon="2.37804">
        <ele>106.9</ele>
        <time>2023-01-04T14:42:43Z</time>
      </trkpt>
      <trkpt lat="49.96366" lon="2.37806">
        <ele>106.9</ele>
        <time>2023-01-04T14:42:45Z</time>
      </trkpt>
      <trkpt lat="49.96365" lon="2.37807">
        <ele>107</ele>
        <time>2023-01-04T14:42:46Z</time>
      </trkpt>
      <trkpt lat="49.96365" lon="2.37807">
        <ele>107</ele>
        <time>2023-01-04T14:42:47Z</time>
      </trkpt>
      <trkpt lat="49.96364" lon="2.37807">
        <ele>107</ele>
        <time>2023-01-04T14:42:48Z</time>
      </trkpt>
      <trkpt lat="49.96362" lon="2.37807">
        <ele>107</ele>
        <time>2023-01-04T14:42:49Z</time>
      </trkpt>
      <trkpt lat="49.96361" lon="2.37806">
        <ele>107</ele>
        <time>2023-01-04T14:42:50Z</time>
      </trkpt>
      <trkpt lat="49.9636" lon="2.37806">
        <ele>107</ele>
        <time>2023-01-04T14:42:51Z</time>
      </trkpt>
      <trkpt lat="49.9636" lon="2.37806">
        <ele>107</ele>
        <time>2023-01-04T14:42:53Z</time>
      </trkpt>
      <trkpt lat="49.96359" lon="2.37805">
        <ele>107</ele>
        <time>2023-01-04T14:42:54Z</time>
      </trkpt>
      <trkpt lat="49.96358" lon="2.37805">
        <ele>107</ele>
        <time>2023-01-04T14:42:55Z</time>
      </trkpt>
      <trkpt lat="49.96357" lon="2.37805">
        <ele>107</ele>
        <time>2023-01-04T14:42:56Z</time>
      </trkpt>
      <trkpt lat="49.96356" lon="2.37805">
        <ele>107</ele>
        <time>2023-01-04T14:42:57Z</time>
      </trkpt>
      <trkpt lat="49.96355" lon="2.37805">
        <ele>107</ele>
        <time>2023-01-04T14:42:59Z</time>
      </trkpt>
      <trkpt lat="49.96353" lon="2.37805">
        <ele>107.1</ele>
        <time>2023-01-04T14:43:00Z</time>
      </trkpt>
      <trkpt lat="49.96352" lon="2.37805">
        <ele>107.1</ele>
        <time>2023-01-04T14:43:01Z</time>
      </trkpt>
      <trkpt lat="49.96351" lon="2.37805">
        <ele>107.1</ele>
        <time>2023-01-04T14:43:02Z</time>
      </trkpt>
      <trkpt lat="49.96351" lon="2.37805">
        <ele>107.1</ele>
        <time>2023-01-04T14:43:03Z</time>
      </trkpt>
      <trkpt lat="49.96349" lon="2.37803">
        <ele>107.1</ele>
        <time>2023-01-04T14:43:04Z</time>
      </trkpt>
      <trkpt lat="49.96348" lon="2.37802">
        <ele>107.1</ele>
        <time>2023-01-04T14:43:05Z</time>
      </trkpt>
      <trkpt lat="49.96347" lon="2.37801">
        <ele>107.1</ele>
        <time>2023-01-04T14:43:06Z</time>
      </trkpt>
      <trkpt lat="49.96346" lon="2.378">
        <ele>107.1</ele>
        <time>2023-01-04T14:43:08Z</time>
      </trkpt>
      <trkpt lat="49.96345" lon="2.37799">
        <ele>107.1</ele>
        <time>2023-01-04T14:43:09Z</time>
      </trkpt>
      <trkpt lat="49.96344" lon="2.37798">
        <ele>107.1</ele>
        <time>2023-01-04T14:43:10Z</time>
      </trkpt>
      <trkpt lat="49.96344" lon="2.37798">
        <ele>107.2</ele>
        <time>2023-01-04T14:43:11Z</time>
      </trkpt>
      <trkpt lat="49.96342" lon="2.37797">
        <ele>107.2</ele>
        <time>2023-01-04T14:43:12Z</time>
      </trkpt>
      <trkpt lat="49.96341" lon="2.37795">
        <ele>107.2</ele>
        <time>2023-01-04T14:43:14Z</time>
      </trkpt>
      <trkpt lat="49.9634" lon="2.37794">
        <ele>107.2</ele>
        <time>2023-01-04T14:43:15Z</time>
      </trkpt>
      <trkpt lat="49.96339" lon="2.37793">
        <ele>107.2</ele>
        <time>2023-01-04T14:43:16Z</time>
      </trkpt>
      <trkpt lat="49.96337" lon="2.37791">
        <ele>107.2</ele>
        <time>2023-01-04T14:43:17Z</time>
      </trkpt>
      <trkpt lat="49.96336" lon="2.3779">
        <ele>107.2</ele>
        <time>2023-01-04T14:43:18Z</time>
      </trkpt>
      <trkpt lat="49.96336" lon="2.37789">
        <ele>107.2</ele>
        <time>2023-01-04T14:43:19Z</time>
      </trkpt>
      <trkpt lat="49.96334" lon="2.37787">
        <ele>107.3</ele>
        <time>2023-01-04T14:43:20Z</time>
      </trkpt>
      <trkpt lat="49.96334" lon="2.37785">
        <ele>107.3</ele>
        <time>2023-01-04T14:43:22Z</time>
      </trkpt>
      <trkpt lat="49.96333" lon="2.37784">
        <ele>107.3</ele>
        <time>2023-01-04T14:43:23Z</time>
      </trkpt>
      <trkpt lat="49.96331" lon="2.37782">
        <ele>107.3</ele>
        <time>2023-01-04T14:43:24Z</time>
      </trkpt>
      <trkpt lat="49.96331" lon="2.37781">
        <ele>107.3</ele>
        <time>2023-01-04T14:43:26Z</time>
      </trkpt>
      <trkpt lat="49.9633" lon="2.37781">
        <ele>107.3</ele>
        <time>2023-01-04T14:43:27Z</time>
      </trkpt>
      <trkpt lat="49.96329" lon="2.3778">
        <ele>107.3</ele>
        <time>2023-01-04T14:43:28Z</time>
      </trkpt>
      <trkpt lat="49.96328" lon="2.37779">
        <ele>107.3</ele>
        <time>2023-01-04T14:43:29Z</time>
      </trkpt>
      <trkpt lat="49.96327" lon="2.37778">
        <ele>107.3</ele>
        <time>2023-01-04T14:43:30Z</time>
      </trkpt>
      <trkpt lat="49.96326" lon="2.37777">
        <ele>107.4</ele>
        <time>2023-01-04T14:43:31Z</time>
      </trkpt>
      <trkpt lat="49.96325" lon="2.37777">
        <ele>107.4</ele>
        <time>2023-01-04T14:43:33Z</time>
      </trkpt>
      <trkpt lat="49.96324" lon="2.37776">
        <ele>107.4</ele>
        <time>2023-01-04T14:43:34Z</time>
      </trkpt>
      <trkpt lat="49.96323" lon="2.37776">
        <ele>107.4</ele>
        <time>2023-01-04T14:43:35Z</time>
      </trkpt>
      <trkpt lat="49.96322" lon="2.37775">
        <ele>107.4</ele>
        <time>2023-01-04T14:43:36Z</time>
      </trkpt>
      <trkpt lat="49.96321" lon="2.37775">
        <ele>107.4</ele>
        <time>2023-01-04T14:43:37Z</time>
      </trkpt>
      <trkpt lat="49.9632" lon="2.37774">
        <ele>107.4</ele>
        <time>2023-01-04T14:43:38Z</time>
      </trkpt>
      <trkpt lat="49.96319" lon="2.37773">
        <ele>107.4</ele>
        <time>2023-01-04T14:43:39Z</time>
      </trkpt>
      <trkpt lat="49.96317" lon="2.37772">
        <ele>107.5</ele>
        <time>2023-01-04T14:43:41Z</time>
      </trkpt>
      <trkpt lat="49.96316" lon="2.37771">
        <ele>107.5</ele>
        <time>2023-01-04T14:43:42Z</time>
      </trkpt>
      <trkpt lat="49.96315" lon="2.37771">
        <ele>107.5</ele>
        <time>2023-01-04T14:43:43Z</time>
      </trkpt>
      <trkpt lat="49.96313" lon="2.3777">
        <ele>107.5</ele>
        <time>2023-01-04T14:43:44Z</time>
      </trkpt>
      <trkpt lat="49.96313" lon="2.37769">
        <ele>107.5</ele>
        <time>2023-01-04T14:43:45Z</time>
      </trkpt>
      <trkpt lat="49.96312" lon="2.37769">
        <ele>107.5</ele>
        <time>2023-01-04T14:43:46Z</time>
      </trkpt>
      <trkpt lat="49.9631" lon="2.37768">
        <ele>107.5</ele>
        <time>2023-01-04T14:43:48Z</time>
      </trkpt>
      <trkpt lat="49.96309" lon="2.37768">
        <ele>107.5</ele>
        <time>2023-01-04T14:43:49Z</time>
      </trkpt>
      <trkpt lat="49.96307" lon="2.37767">
        <ele>107.5</ele>
        <time>2023-01-04T14:43:50Z</time>
      </trkpt>
      <trkpt lat="49.96306" lon="2.37766">
        <ele>107.6</ele>
        <time>2023-01-04T14:43:51Z</time>
      </trkpt>
      <trkpt lat="49.96305" lon="2.37766">
        <ele>107.6</ele>
        <time>2023-01-04T14:43:52Z</time>
      </trkpt>
      <trkpt lat="49.96304" lon="2.37765">
        <ele>107.6</ele>
        <time>2023-01-04T14:43:53Z</time>
      </trkpt>
      <trkpt lat="49.96303" lon="2.37764">
        <ele>107.6</ele>
        <time>2023-01-04T14:43:55Z</time>
      </trkpt>
      <trkpt lat="49.96302" lon="2.37763">
        <ele>107.6</ele>
        <time>2023-01-04T14:43:56Z</time>
      </trkpt>
      <trkpt lat="49.963" lon="2.37762">
        <ele>107.6</ele>
        <time>2023-01-04T14:43:57Z</time>
      </trkpt>
      <trkpt lat="49.963" lon="2.37761">
        <ele>107.6</ele>
        <time>2023-01-04T14:43:58Z</time>
      </trkpt>
      <trkpt lat="49.96299" lon="2.3776">
        <ele>107.6</ele>
        <time>2023-01-04T14:43:59Z</time>
      </trkpt>
      <trkpt lat="49.96298" lon="2.37759">
        <ele>107.6</ele>
        <time>2023-01-04T14:44:00Z</time>
      </trkpt>
      <trkpt lat="49.96297" lon="2.37758">
        <ele>107.6</ele>
        <time>2023-01-04T14:44:02Z</time>
      </trkpt>
      <trkpt lat="49.96296" lon="2.37757">
        <ele>107.6</ele>
        <time>2023-01-04T14:44:03Z</time>
      </trkpt>
      <trkpt lat="49.96295" lon="2.37756">
        <ele>107.6</ele>
        <time>2023-01-04T14:44:04Z</time>
      </trkpt>
      <trkpt lat="49.96294" lon="2.37756">
        <ele>107.6</ele>
        <time>2023-01-04T14:44:05Z</time>
      </trkpt>
      <trkpt lat="49.96293" lon="2.37756">
        <ele>107.6</ele>
        <time>2023-01-04T14:44:06Z</time>
      </trkpt>
      <trkpt lat="49.96292" lon="2.37755">
        <ele>107.6</ele>
        <time>2023-01-04T14:44:07Z</time>
      </trkpt>
      <trkpt lat="49.96291" lon="2.37754">
        <ele>107.6</ele>
        <time>2023-01-04T14:44:08Z</time>
      </trkpt>
      <trkpt lat="49.96289" lon="2.37753">
        <ele>107.7</ele>
        <time>2023-01-04T14:44:10Z</time>
      </trkpt>
      <trkpt lat="49.96288" lon="2.37752">
        <ele>107.7</ele>
        <time>2023-01-04T14:44:11Z</time>
      </trkpt>
      <trkpt lat="49.96287" lon="2.37751">
        <ele>107.7</ele>
        <time>2023-01-04T14:44:12Z</time>
      </trkpt>
      <trkpt lat="49.96286" lon="2.3775">
        <ele>107.7</ele>
        <time>2023-01-04T14:44:13Z</time>
      </trkpt>
      <trkpt lat="49.96285" lon="2.37749">
        <ele>107.7</ele>
        <time>2023-01-04T14:44:14Z</time>
      </trkpt>
      <trkpt lat="49.96284" lon="2.37749">
        <ele>107.7</ele>
        <time>2023-01-04T14:44:15Z</time>
      </trkpt>
      <trkpt lat="49.96283" lon="2.37748">
        <ele>107.7</ele>
        <time>2023-01-04T14:44:17Z</time>
      </trkpt>
      <trkpt lat="49.96282" lon="2.37747">
        <ele>107.7</ele>
        <time>2023-01-04T14:44:18Z</time>
      </trkpt>
      <trkpt lat="49.96281" lon="2.37746">
        <ele>107.7</ele>
        <time>2023-01-04T14:44:19Z</time>
      </trkpt>
      <trkpt lat="49.9628" lon="2.37745">
        <ele>107.7</ele>
        <time>2023-01-04T14:44:20Z</time>
      </trkpt>
      <trkpt lat="49.96279" lon="2.37745">
        <ele>107.7</ele>
        <time>2023-01-04T14:44:21Z</time>
      </trkpt>
      <trkpt lat="49.96278" lon="2.37744">
        <ele>107.7</ele>
        <time>2023-01-04T14:44:22Z</time>
      </trkpt>
      <trkpt lat="49.96277" lon="2.37743">
        <ele>107.7</ele>
        <time>2023-01-04T14:44:23Z</time>
      </trkpt>
      <trkpt lat="49.96275" lon="2.37741">
        <ele>107.8</ele>
        <time>2023-01-04T14:44:25Z</time>
      </trkpt>
      <trkpt lat="49.96274" lon="2.37741">
        <ele>107.8</ele>
        <time>2023-01-04T14:44:26Z</time>
      </trkpt>
      <trkpt lat="49.96274" lon="2.3774">
        <ele>107.8</ele>
        <time>2023-01-04T14:44:27Z</time>
      </trkpt>
      <trkpt lat="49.96272" lon="2.37739">
        <ele>107.8</ele>
        <time>2023-01-04T14:44:28Z</time>
      </trkpt>
      <trkpt lat="49.96271" lon="2.37738">
        <ele>107.8</ele>
        <time>2023-01-04T14:44:29Z</time>
      </trkpt>
      <trkpt lat="49.9627" lon="2.37738">
        <ele>107.8</ele>
        <time>2023-01-04T14:44:30Z</time>
      </trkpt>
      <trkpt lat="49.96269" lon="2.37737">
        <ele>107.8</ele>
        <time>2023-01-04T14:44:32Z</time>
      </trkpt>
      <trkpt lat="49.96268" lon="2.37735">
        <ele>107.8</ele>
        <time>2023-01-04T14:44:33Z</time>
      </trkpt>
      <trkpt lat="49.96267" lon="2.37734">
        <ele>107.8</ele>
        <time>2023-01-04T14:44:34Z</time>
      </trkpt>
      <trkpt lat="49.96266" lon="2.37733">
        <ele>107.8</ele>
        <time>2023-01-04T14:44:35Z</time>
      </trkpt>
      <trkpt lat="49.96265" lon="2.37732">
        <ele>107.8</ele>
        <time>2023-01-04T14:44:36Z</time>
      </trkpt>
      <trkpt lat="49.96263" lon="2.37731">
        <ele>107.8</ele>
        <time>2023-01-04T14:44:37Z</time>
      </trkpt>
      <trkpt lat="49.96263" lon="2.3773">
        <ele>107.8</ele>
        <time>2023-01-04T14:44:39Z</time>
      </trkpt>
      <trkpt lat="49.96262" lon="2.37729">
        <ele>107.8</ele>
        <time>2023-01-04T14:44:40Z</time>
      </trkpt>
      <trkpt lat="49.96261" lon="2.37728">
        <ele>107.8</ele>
        <time>2023-01-04T14:44:41Z</time>
      </trkpt>
      <trkpt lat="49.9626" lon="2.37727">
        <ele>107.8</ele>
        <time>2023-01-04T14:44:42Z</time>
      </trkpt>
      <trkpt lat="49.9626" lon="2.37726">
        <ele>107.8</ele>
        <time>2023-01-04T14:44:43Z</time>
      </trkpt>
      <trkpt lat="49.96259" lon="2.37725">
        <ele>107.8</ele>
        <time>2023-01-04T14:44:44Z</time>
      </trkpt>
      <trkpt lat="49.96257" lon="2.37724">
        <ele>107.8</ele>
        <time>2023-01-04T14:44:45Z</time>
      </trkpt>
      <trkpt lat="49.96256" lon="2.37723">
        <ele>107.9</ele>
        <time>2023-01-04T14:44:47Z</time>
      </trkpt>
      <trkpt lat="49.96254" lon="2.37722">
        <ele>107.9</ele>
        <time>2023-01-04T14:44:48Z</time>
      </trkpt>
      <trkpt lat="49.96254" lon="2.37721">
        <ele>107.9</ele>
        <time>2023-01-04T14:44:49Z</time>
      </trkpt>
      <trkpt lat="49.96253" lon="2.3772">
        <ele>107.9</ele>
        <time>2023-01-04T14:44:50Z</time>
      </trkpt>
      <trkpt lat="49.96252" lon="2.37719">
        <ele>107.9</ele>
        <time>2023-01-04T14:44:51Z</time>
      </trkpt>
      <trkpt lat="49.96251" lon="2.37719">
        <ele>107.9</ele>
        <time>2023-01-04T14:44:52Z</time>
      </trkpt>
      <trkpt lat="49.9625" lon="2.37718">
        <ele>107.9</ele>
        <time>2023-01-04T14:44:54Z</time>
      </trkpt>
      <trkpt lat="49.96249" lon="2.37717">
        <ele>107.9</ele>
        <time>2023-01-04T14:44:55Z</time>
      </trkpt>
      <trkpt lat="49.96248" lon="2.37717">
        <ele>107.9</ele>
        <time>2023-01-04T14:44:56Z</time>
      </trkpt>
      <trkpt lat="49.96247" lon="2.37716">
        <ele>107.9</ele>
        <time>2023-01-04T14:44:57Z</time>
      </trkpt>
      <trkpt lat="49.96245" lon="2.37715">
        <ele>107.9</ele>
        <time>2023-01-04T14:44:58Z</time>
      </trkpt>
      <trkpt lat="49.96244" lon="2.37714">
        <ele>108</ele>
        <time>2023-01-04T14:44:59Z</time>
      </trkpt>
      <trkpt lat="49.96244" lon="2.37714">
        <ele>108</ele>
        <time>2023-01-04T14:45:00Z</time>
      </trkpt>
      <trkpt lat="49.96243" lon="2.37713">
        <ele>108</ele>
        <time>2023-01-04T14:45:01Z</time>
      </trkpt>
      <trkpt lat="49.96242" lon="2.37712">
        <ele>107.9</ele>
        <time>2023-01-04T14:45:03Z</time>
      </trkpt>
      <trkpt lat="49.96241" lon="2.37711">
        <ele>107.9</ele>
        <time>2023-01-04T14:45:04Z</time>
      </trkpt>
      <trkpt lat="49.96239" lon="2.3771">
        <ele>108</ele>
        <time>2023-01-04T14:45:05Z</time>
      </trkpt>
      <trkpt lat="49.96238" lon="2.37709">
        <ele>108</ele>
        <time>2023-01-04T14:45:06Z</time>
      </trkpt>
      <trkpt lat="49.96238" lon="2.37708">
        <ele>108</ele>
        <time>2023-01-04T14:45:07Z</time>
      </trkpt>
      <trkpt lat="49.96237" lon="2.37707">
        <ele>108</ele>
        <time>2023-01-04T14:45:08Z</time>
      </trkpt>
      <trkpt lat="49.96235" lon="2.37705">
        <ele>108</ele>
        <time>2023-01-04T14:45:09Z</time>
      </trkpt>
      <trkpt lat="49.96234" lon="2.37705">
        <ele>108</ele>
        <time>2023-01-04T14:45:11Z</time>
      </trkpt>
      <trkpt lat="49.96233" lon="2.37704">
        <ele>108.1</ele>
        <time>2023-01-04T14:45:12Z</time>
      </trkpt>
      <trkpt lat="49.96232" lon="2.37703">
        <ele>108.1</ele>
        <time>2023-01-04T14:45:13Z</time>
      </trkpt>
      <trkpt lat="49.96231" lon="2.37702">
        <ele>108.1</ele>
        <time>2023-01-04T14:45:14Z</time>
      </trkpt>
      <trkpt lat="49.9623" lon="2.37701">
        <ele>108.1</ele>
        <time>2023-01-04T14:45:15Z</time>
      </trkpt>
      <trkpt lat="49.96229" lon="2.37701">
        <ele>108.1</ele>
        <time>2023-01-04T14:45:16Z</time>
      </trkpt>
      <trkpt lat="49.96228" lon="2.37699">
        <ele>108.2</ele>
        <time>2023-01-04T14:45:17Z</time>
      </trkpt>
      <trkpt lat="49.96227" lon="2.37699">
        <ele>108.2</ele>
        <time>2023-01-04T14:45:19Z</time>
      </trkpt>
      <trkpt lat="49.96226" lon="2.37698">
        <ele>108.2</ele>
        <time>2023-01-04T14:45:20Z</time>
      </trkpt>
      <trkpt lat="49.96225" lon="2.37697">
        <ele>108.2</ele>
        <time>2023-01-04T14:45:21Z</time>
      </trkpt>
      <trkpt lat="49.96225" lon="2.37697">
        <ele>108.2</ele>
        <time>2023-01-04T14:45:22Z</time>
      </trkpt>
      <trkpt lat="49.96224" lon="2.37696">
        <ele>108.2</ele>
        <time>2023-01-04T14:45:23Z</time>
      </trkpt>
      <trkpt lat="49.96223" lon="2.37695">
        <ele>108.2</ele>
        <time>2023-01-04T14:45:24Z</time>
      </trkpt>
      <trkpt lat="49.96222" lon="2.37694">
        <ele>108.3</ele>
        <time>2023-01-04T14:45:25Z</time>
      </trkpt>
      <trkpt lat="49.96221" lon="2.37694">
        <ele>108.3</ele>
        <time>2023-01-04T14:45:26Z</time>
      </trkpt>
      <trkpt lat="49.9622" lon="2.37693">
        <ele>108.3</ele>
        <time>2023-01-04T14:45:28Z</time>
      </trkpt>
      <trkpt lat="49.96219" lon="2.37692">
        <ele>108.3</ele>
        <time>2023-01-04T14:45:29Z</time>
      </trkpt>
      <trkpt lat="49.96217" lon="2.37691">
        <ele>108.4</ele>
        <time>2023-01-04T14:45:30Z</time>
      </trkpt>
      <trkpt lat="49.96217" lon="2.37691">
        <ele>108.4</ele>
        <time>2023-01-04T14:45:31Z</time>
      </trkpt>
      <trkpt lat="49.96215" lon="2.3769">
        <ele>108.4</ele>
        <time>2023-01-04T14:45:32Z</time>
      </trkpt>
      <trkpt lat="49.96214" lon="2.3769">
        <ele>108.4</ele>
        <time>2023-01-04T14:45:33Z</time>
      </trkpt>
      <trkpt lat="49.96212" lon="2.37689">
        <ele>108.5</ele>
        <time>2023-01-04T14:45:34Z</time>
      </trkpt>
      <trkpt lat="49.96211" lon="2.37689">
        <ele>108.5</ele>
        <time>2023-01-04T14:45:36Z</time>
      </trkpt>
      <trkpt lat="49.9621" lon="2.37688">
        <ele>108.5</ele>
        <time>2023-01-04T14:45:37Z</time>
      </trkpt>
      <trkpt lat="49.96208" lon="2.37687">
        <ele>108.5</ele>
        <time>2023-01-04T14:45:38Z</time>
      </trkpt>
      <trkpt lat="49.96207" lon="2.37687">
        <ele>108.6</ele>
        <time>2023-01-04T14:45:39Z</time>
      </trkpt>
      <trkpt lat="49.96207" lon="2.37686">
        <ele>108.6</ele>
        <time>2023-01-04T14:45:40Z</time>
      </trkpt>
      <trkpt lat="49.96206" lon="2.37686">
        <ele>108.6</ele>
        <time>2023-01-04T14:45:41Z</time>
      </trkpt>
      <trkpt lat="49.96204" lon="2.37685">
        <ele>108.6</ele>
        <time>2023-01-04T14:45:43Z</time>
      </trkpt>
      <trkpt lat="49.96203" lon="2.37684">
        <ele>108.7</ele>
        <time>2023-01-04T14:45:44Z</time>
      </trkpt>
      <trkpt lat="49.96202" lon="2.37683">
        <ele>108.7</ele>
        <time>2023-01-04T14:45:45Z</time>
      </trkpt>
      <trkpt lat="49.96201" lon="2.37682">
        <ele>108.7</ele>
        <time>2023-01-04T14:45:46Z</time>
      </trkpt>
      <trkpt lat="49.96199" lon="2.37681">
        <ele>108.7</ele>
        <time>2023-01-04T14:45:47Z</time>
      </trkpt>
      <trkpt lat="49.96198" lon="2.3768">
        <ele>108.8</ele>
        <time>2023-01-04T14:45:48Z</time>
      </trkpt>
      <trkpt lat="49.96197" lon="2.37679">
        <ele>108.8</ele>
        <time>2023-01-04T14:45:50Z</time>
      </trkpt>
      <trkpt lat="49.96196" lon="2.37678">
        <ele>108.8</ele>
        <time>2023-01-04T14:45:51Z</time>
      </trkpt>
      <trkpt lat="49.96195" lon="2.37677">
        <ele>108.8</ele>
        <time>2023-01-04T14:45:52Z</time>
      </trkpt>
      <trkpt lat="49.96194" lon="2.37676">
        <ele>108.9</ele>
        <time>2023-01-04T14:45:53Z</time>
      </trkpt>
      <trkpt lat="49.96193" lon="2.37675">
        <ele>108.9</ele>
        <time>2023-01-04T14:45:54Z</time>
      </trkpt>
      <trkpt lat="49.96192" lon="2.37674">
        <ele>108.9</ele>
        <time>2023-01-04T14:45:56Z</time>
      </trkpt>
      <trkpt lat="49.9619" lon="2.37673">
        <ele>108.9</ele>
        <time>2023-01-04T14:45:57Z</time>
      </trkpt>
      <trkpt lat="49.96189" lon="2.37672">
        <ele>109</ele>
        <time>2023-01-04T14:45:58Z</time>
      </trkpt>
      <trkpt lat="49.96188" lon="2.3767">
        <ele>109</ele>
        <time>2023-01-04T14:45:59Z</time>
      </trkpt>
      <trkpt lat="49.96187" lon="2.37669">
        <ele>109</ele>
        <time>2023-01-04T14:46:00Z</time>
      </trkpt>
      <trkpt lat="49.96186" lon="2.37668">
        <ele>109</ele>
        <time>2023-01-04T14:46:01Z</time>
      </trkpt>
      <trkpt lat="49.96185" lon="2.37666">
        <ele>109.1</ele>
        <time>2023-01-04T14:46:03Z</time>
      </trkpt>
      <trkpt lat="49.96184" lon="2.37666">
        <ele>109.1</ele>
        <time>2023-01-04T14:46:04Z</time>
      </trkpt>
      <trkpt lat="49.96183" lon="2.37665">
        <ele>109.1</ele>
        <time>2023-01-04T14:46:05Z</time>
      </trkpt>
      <trkpt lat="49.96181" lon="2.37663">
        <ele>109.2</ele>
        <time>2023-01-04T14:46:06Z</time>
      </trkpt>
      <trkpt lat="49.96181" lon="2.37663">
        <ele>109.2</ele>
        <time>2023-01-04T14:46:07Z</time>
      </trkpt>
      <trkpt lat="49.9618" lon="2.37662">
        <ele>109.2</ele>
        <time>2023-01-04T14:46:08Z</time>
      </trkpt>
      <trkpt lat="49.96178" lon="2.37661">
        <ele>109.3</ele>
        <time>2023-01-04T14:46:10Z</time>
      </trkpt>
      <trkpt lat="49.96177" lon="2.3766">
        <ele>109.3</ele>
        <time>2023-01-04T14:46:11Z</time>
      </trkpt>
      <trkpt lat="49.96177" lon="2.37659">
        <ele>109.3</ele>
        <time>2023-01-04T14:46:12Z</time>
      </trkpt>
      <trkpt lat="49.96176" lon="2.37659">
        <ele>109.4</ele>
        <time>2023-01-04T14:46:13Z</time>
      </trkpt>
      <trkpt lat="49.96175" lon="2.37658">
        <ele>109.4</ele>
        <time>2023-01-04T14:46:14Z</time>
      </trkpt>
      <trkpt lat="49.96174" lon="2.37658">
        <ele>109.4</ele>
        <time>2023-01-04T14:46:15Z</time>
      </trkpt>
      <trkpt lat="49.96173" lon="2.37657">
        <ele>109.5</ele>
        <time>2023-01-04T14:46:16Z</time>
      </trkpt>
      <trkpt lat="49.96172" lon="2.37656">
        <ele>109.5</ele>
        <time>2023-01-04T14:46:17Z</time>
      </trkpt>
      <trkpt lat="49.96171" lon="2.37656">
        <ele>109.6</ele>
        <time>2023-01-04T14:46:18Z</time>
      </trkpt>
      <trkpt lat="49.9617" lon="2.37655">
        <ele>109.6</ele>
        <time>2023-01-04T14:46:20Z</time>
      </trkpt>
      <trkpt lat="49.96169" lon="2.37654">
        <ele>109.6</ele>
        <time>2023-01-04T14:46:21Z</time>
      </trkpt>
      <trkpt lat="49.96168" lon="2.37654">
        <ele>109.7</ele>
        <time>2023-01-04T14:46:22Z</time>
      </trkpt>
      <trkpt lat="49.96167" lon="2.37653">
        <ele>109.7</ele>
        <time>2023-01-04T14:46:23Z</time>
      </trkpt>
      <trkpt lat="49.96166" lon="2.37653">
        <ele>109.7</ele>
        <time>2023-01-04T14:46:24Z</time>
      </trkpt>
      <trkpt lat="49.96165" lon="2.37652">
        <ele>109.8</ele>
        <time>2023-01-04T14:46:25Z</time>
      </trkpt>
      <trkpt lat="49.96164" lon="2.37651">
        <ele>109.8</ele>
        <time>2023-01-04T14:46:26Z</time>
      </trkpt>
      <trkpt lat="49.96163" lon="2.3765">
        <ele>109.9</ele>
        <time>2023-01-04T14:46:27Z</time>
      </trkpt>
      <trkpt lat="49.96162" lon="2.3765">
        <ele>109.9</ele>
        <time>2023-01-04T14:46:28Z</time>
      </trkpt>
      <trkpt lat="49.96161" lon="2.37649">
        <ele>109.9</ele>
        <time>2023-01-04T14:46:30Z</time>
      </trkpt>
      <trkpt lat="49.9616" lon="2.37648">
        <ele>110</ele>
        <time>2023-01-04T14:46:31Z</time>
      </trkpt>
      <trkpt lat="49.96159" lon="2.37648">
        <ele>110</ele>
        <time>2023-01-04T14:46:32Z</time>
      </trkpt>
      <trkpt lat="49.96158" lon="2.37648">
        <ele>110</ele>
        <time>2023-01-04T14:46:33Z</time>
      </trkpt>
      <trkpt lat="49.96158" lon="2.37647">
        <ele>110.1</ele>
        <time>2023-01-04T14:46:34Z</time>
      </trkpt>
      <trkpt lat="49.96157" lon="2.37646">
        <ele>110.1</ele>
        <time>2023-01-04T14:46:36Z</time>
      </trkpt>
      <trkpt lat="49.96156" lon="2.37646">
        <ele>110.1</ele>
        <time>2023-01-04T14:46:37Z</time>
      </trkpt>
      <trkpt lat="49.96154" lon="2.37645">
        <ele>110.2</ele>
        <time>2023-01-04T14:46:38Z</time>
      </trkpt>
      <trkpt lat="49.96154" lon="2.37644">
        <ele>110.2</ele>
        <time>2023-01-04T14:46:39Z</time>
      </trkpt>
      <trkpt lat="49.96153" lon="2.37643">
        <ele>110.2</ele>
        <time>2023-01-04T14:46:40Z</time>
      </trkpt>
      <trkpt lat="49.96152" lon="2.37642">
        <ele>110.3</ele>
        <time>2023-01-04T14:46:41Z</time>
      </trkpt>
      <trkpt lat="49.96152" lon="2.37641">
        <ele>110.3</ele>
        <time>2023-01-04T14:46:42Z</time>
      </trkpt>
      <trkpt lat="49.96151" lon="2.3764">
        <ele>110.4</ele>
        <time>2023-01-04T14:46:44Z</time>
      </trkpt>
      <trkpt lat="49.9615" lon="2.37639">
        <ele>110.4</ele>
        <time>2023-01-04T14:46:45Z</time>
      </trkpt>
      <trkpt lat="49.96149" lon="2.37639">
        <ele>110.5</ele>
        <time>2023-01-04T14:46:46Z</time>
      </trkpt>
      <trkpt lat="49.96148" lon="2.37638">
        <ele>110.5</ele>
        <time>2023-01-04T14:46:47Z</time>
      </trkpt>
      <trkpt lat="49.96147" lon="2.37637">
        <ele>110.5</ele>
        <time>2023-01-04T14:46:48Z</time>
      </trkpt>
      <trkpt lat="49.96146" lon="2.37637">
        <ele>110.6</ele>
        <time>2023-01-04T14:46:49Z</time>
      </trkpt>
      <trkpt lat="49.96145" lon="2.37636">
        <ele>110.6</ele>
        <time>2023-01-04T14:46:50Z</time>
      </trkpt>
      <trkpt lat="49.96145" lon="2.37635">
        <ele>110.6</ele>
        <time>2023-01-04T14:46:51Z</time>
      </trkpt>
      <trkpt lat="49.96144" lon="2.37634">
        <ele>110.7</ele>
        <time>2023-01-04T14:46:53Z</time>
      </trkpt>
      <trkpt lat="49.96143" lon="2.37633">
        <ele>110.7</ele>
        <time>2023-01-04T14:46:54Z</time>
      </trkpt>
      <trkpt lat="49.96142" lon="2.37632">
        <ele>110.8</ele>
        <time>2023-01-04T14:46:55Z</time>
      </trkpt>
      <trkpt lat="49.96141" lon="2.37631">
        <ele>110.8</ele>
        <time>2023-01-04T14:46:56Z</time>
      </trkpt>
      <trkpt lat="49.9614" lon="2.3763">
        <ele>110.8</ele>
        <time>2023-01-04T14:46:57Z</time>
      </trkpt>
      <trkpt lat="49.96139" lon="2.37629">
        <ele>110.9</ele>
        <time>2023-01-04T14:46:58Z</time>
      </trkpt>
      <trkpt lat="49.96139" lon="2.37628">
        <ele>110.9</ele>
        <time>2023-01-04T14:46:59Z</time>
      </trkpt>
      <trkpt lat="49.96138" lon="2.37627">
        <ele>111</ele>
        <time>2023-01-04T14:47:01Z</time>
      </trkpt>
      <trkpt lat="49.96136" lon="2.37625">
        <ele>111.1</ele>
        <time>2023-01-04T14:47:02Z</time>
      </trkpt>
      <trkpt lat="49.96135" lon="2.37624">
        <ele>111.1</ele>
        <time>2023-01-04T14:47:03Z</time>
      </trkpt>
      <trkpt lat="49.96134" lon="2.37623">
        <ele>111.1</ele>
        <time>2023-01-04T14:47:04Z</time>
      </trkpt>
      <trkpt lat="49.96133" lon="2.37622">
        <ele>111.2</ele>
        <time>2023-01-04T14:47:05Z</time>
      </trkpt>
      <trkpt lat="49.96132" lon="2.37622">
        <ele>111.2</ele>
        <time>2023-01-04T14:47:06Z</time>
      </trkpt>
      <trkpt lat="49.96131" lon="2.37621">
        <ele>111.3</ele>
        <time>2023-01-04T14:47:08Z</time>
      </trkpt>
      <trkpt lat="49.9613" lon="2.3762">
        <ele>111.3</ele>
        <time>2023-01-04T14:47:09Z</time>
      </trkpt>
      <trkpt lat="49.96129" lon="2.37619">
        <ele>111.3</ele>
        <time>2023-01-04T14:47:10Z</time>
      </trkpt>
      <trkpt lat="49.96128" lon="2.37618">
        <ele>111.4</ele>
        <time>2023-01-04T14:47:11Z</time>
      </trkpt>
      <trkpt lat="49.96127" lon="2.37618">
        <ele>111.4</ele>
        <time>2023-01-04T14:47:12Z</time>
      </trkpt>
      <trkpt lat="49.96126" lon="2.37616">
        <ele>111.5</ele>
        <time>2023-01-04T14:47:14Z</time>
      </trkpt>
      <trkpt lat="49.96125" lon="2.37615">
        <ele>111.5</ele>
        <time>2023-01-04T14:47:15Z</time>
      </trkpt>
      <trkpt lat="49.96124" lon="2.37614">
        <ele>111.6</ele>
        <time>2023-01-04T14:47:16Z</time>
      </trkpt>
      <trkpt lat="49.96123" lon="2.37613">
        <ele>111.6</ele>
        <time>2023-01-04T14:47:18Z</time>
      </trkpt>
      <trkpt lat="49.96122" lon="2.37612">
        <ele>111.7</ele>
        <time>2023-01-04T14:47:19Z</time>
      </trkpt>
      <trkpt lat="49.96121" lon="2.37611">
        <ele>111.7</ele>
        <time>2023-01-04T14:47:20Z</time>
      </trkpt>
      <trkpt lat="49.96121" lon="2.3761">
        <ele>111.7</ele>
        <time>2023-01-04T14:47:21Z</time>
      </trkpt>
      <trkpt lat="49.9612" lon="2.37608">
        <ele>111.8</ele>
        <time>2023-01-04T14:47:23Z</time>
      </trkpt>
      <trkpt lat="49.96119" lon="2.37608">
        <ele>111.8</ele>
        <time>2023-01-04T14:47:24Z</time>
      </trkpt>
      <trkpt lat="49.96118" lon="2.37607">
        <ele>111.9</ele>
        <time>2023-01-04T14:47:25Z</time>
      </trkpt>
      <trkpt lat="49.96118" lon="2.37607">
        <ele>111.9</ele>
        <time>2023-01-04T14:47:27Z</time>
      </trkpt>
      <trkpt lat="49.96117" lon="2.37606">
        <ele>111.9</ele>
        <time>2023-01-04T14:47:28Z</time>
      </trkpt>
      <trkpt lat="49.96116" lon="2.37606">
        <ele>112</ele>
        <time>2023-01-04T14:47:29Z</time>
      </trkpt>
      <trkpt lat="49.96115" lon="2.37605">
        <ele>112</ele>
        <time>2023-01-04T14:47:30Z</time>
      </trkpt>
      <trkpt lat="49.96114" lon="2.37604">
        <ele>112</ele>
        <time>2023-01-04T14:47:31Z</time>
      </trkpt>
      <trkpt lat="49.96114" lon="2.37604">
        <ele>112.1</ele>
        <time>2023-01-04T14:47:32Z</time>
      </trkpt>
      <trkpt lat="49.96112" lon="2.37603">
        <ele>112.1</ele>
        <time>2023-01-04T14:47:33Z</time>
      </trkpt>
      <trkpt lat="49.96112" lon="2.37602">
        <ele>112.2</ele>
        <time>2023-01-04T14:47:34Z</time>
      </trkpt>
      <trkpt lat="49.96111" lon="2.37601">
        <ele>112.2</ele>
        <time>2023-01-04T14:47:36Z</time>
      </trkpt>
      <trkpt lat="49.9611" lon="2.376">
        <ele>112.3</ele>
        <time>2023-01-04T14:47:37Z</time>
      </trkpt>
      <trkpt lat="49.96109" lon="2.37599">
        <ele>112.3</ele>
        <time>2023-01-04T14:47:38Z</time>
      </trkpt>
      <trkpt lat="49.96109" lon="2.37598">
        <ele>112.4</ele>
        <time>2023-01-04T14:47:40Z</time>
      </trkpt>
      <trkpt lat="49.96108" lon="2.37597">
        <ele>112.4</ele>
        <time>2023-01-04T14:47:41Z</time>
      </trkpt>
      <trkpt lat="49.96106" lon="2.37596">
        <ele>112.5</ele>
        <time>2023-01-04T14:47:42Z</time>
      </trkpt>
      <trkpt lat="49.96106" lon="2.37595">
        <ele>112.5</ele>
        <time>2023-01-04T14:47:43Z</time>
      </trkpt>
      <trkpt lat="49.96105" lon="2.37595">
        <ele>112.6</ele>
        <time>2023-01-04T14:47:44Z</time>
      </trkpt>
      <trkpt lat="49.96105" lon="2.37594">
        <ele>112.6</ele>
        <time>2023-01-04T14:47:45Z</time>
      </trkpt>
      <trkpt lat="49.96104" lon="2.37593">
        <ele>112.6</ele>
        <time>2023-01-04T14:47:46Z</time>
      </trkpt>
      <trkpt lat="49.96104" lon="2.37593">
        <ele>112.7</ele>
        <time>2023-01-04T14:47:48Z</time>
      </trkpt>
      <trkpt lat="49.96103" lon="2.37592">
        <ele>112.7</ele>
        <time>2023-01-04T14:47:49Z</time>
      </trkpt>
      <trkpt lat="49.96103" lon="2.37591">
        <ele>112.7</ele>
        <time>2023-01-04T14:47:50Z</time>
      </trkpt>
      <trkpt lat="49.96102" lon="2.3759">
        <ele>112.8</ele>
        <time>2023-01-04T14:47:52Z</time>
      </trkpt>
      <trkpt lat="49.96101" lon="2.37589">
        <ele>112.8</ele>
        <time>2023-01-04T14:47:53Z</time>
      </trkpt>
      <trkpt lat="49.96101" lon="2.37589">
        <ele>112.8</ele>
        <time>2023-01-04T14:47:54Z</time>
      </trkpt>
      <trkpt lat="49.96101" lon="2.37588">
        <ele>112.9</ele>
        <time>2023-01-04T14:47:55Z</time>
      </trkpt>
      <trkpt lat="49.961" lon="2.37588">
        <ele>112.9</ele>
        <time>2023-01-04T14:47:56Z</time>
      </trkpt>
      <trkpt lat="49.96099" lon="2.37587">
        <ele>113</ele>
        <time>2023-01-04T14:47:57Z</time>
      </trkpt>
      <trkpt lat="49.96098" lon="2.37587">
        <ele>113</ele>
        <time>2023-01-04T14:47:59Z</time>
      </trkpt>
      <trkpt lat="49.96097" lon="2.37586">
        <ele>113.1</ele>
        <time>2023-01-04T14:48:00Z</time>
      </trkpt>
      <trkpt lat="49.96096" lon="2.37586">
        <ele>113.1</ele>
        <time>2023-01-04T14:48:01Z</time>
      </trkpt>
      <trkpt lat="49.96095" lon="2.37585">
        <ele>113.1</ele>
        <time>2023-01-04T14:48:02Z</time>
      </trkpt>
      <trkpt lat="49.96094" lon="2.37584">
        <ele>113.2</ele>
        <time>2023-01-04T14:48:03Z</time>
      </trkpt>
      <trkpt lat="49.96093" lon="2.37584">
        <ele>113.2</ele>
        <time>2023-01-04T14:48:04Z</time>
      </trkpt>
      <trkpt lat="49.96092" lon="2.37583">
        <ele>113.3</ele>
        <time>2023-01-04T14:48:05Z</time>
      </trkpt>
      <trkpt lat="49.96091" lon="2.37582">
        <ele>113.4</ele>
        <time>2023-01-04T14:48:07Z</time>
      </trkpt>
      <trkpt lat="49.9609" lon="2.37581">
        <ele>113.4</ele>
        <time>2023-01-04T14:48:08Z</time>
      </trkpt>
      <trkpt lat="49.96088" lon="2.37579">
        <ele>113.5</ele>
        <time>2023-01-04T14:48:09Z</time>
      </trkpt>
      <trkpt lat="49.96087" lon="2.37578">
        <ele>113.6</ele>
        <time>2023-01-04T14:48:10Z</time>
      </trkpt>
      <trkpt lat="49.96086" lon="2.37577">
        <ele>113.6</ele>
        <time>2023-01-04T14:48:11Z</time>
      </trkpt>
      <trkpt lat="49.96085" lon="2.37576">
        <ele>113.7</ele>
        <time>2023-01-04T14:48:12Z</time>
      </trkpt>
      <trkpt lat="49.96084" lon="2.37575">
        <ele>113.8</ele>
        <time>2023-01-04T14:48:14Z</time>
      </trkpt>
      <trkpt lat="49.96083" lon="2.37574">
        <ele>113.8</ele>
        <time>2023-01-04T14:48:15Z</time>
      </trkpt>
      <trkpt lat="49.96081" lon="2.37572">
        <ele>113.9</ele>
        <time>2023-01-04T14:48:16Z</time>
      </trkpt>
      <trkpt lat="49.9608" lon="2.37571">
        <ele>114</ele>
        <time>2023-01-04T14:48:17Z</time>
      </trkpt>
      <trkpt lat="49.96079" lon="2.3757">
        <ele>114</ele>
        <time>2023-01-04T14:48:18Z</time>
      </trkpt>
      <trkpt lat="49.96077" lon="2.37569">
        <ele>114.1</ele>
        <time>2023-01-04T14:48:20Z</time>
      </trkpt>
      <trkpt lat="49.96076" lon="2.37568">
        <ele>114.1</ele>
        <time>2023-01-04T14:48:21Z</time>
      </trkpt>
      <trkpt lat="49.96076" lon="2.37567">
        <ele>114.1</ele>
        <time>2023-01-04T14:48:22Z</time>
      </trkpt>
      <trkpt lat="49.96074" lon="2.37566">
        <ele>114.2</ele>
        <time>2023-01-04T14:48:23Z</time>
      </trkpt>
      <trkpt lat="49.96073" lon="2.37565">
        <ele>114.2</ele>
        <time>2023-01-04T14:48:24Z</time>
      </trkpt>
      <trkpt lat="49.96072" lon="2.37564">
        <ele>114.2</ele>
        <time>2023-01-04T14:48:25Z</time>
      </trkpt>
      <trkpt lat="49.96071" lon="2.37564">
        <ele>114.3</ele>
        <time>2023-01-04T14:48:26Z</time>
      </trkpt>
      <trkpt lat="49.9607" lon="2.37562">
        <ele>114.3</ele>
        <time>2023-01-04T14:48:28Z</time>
      </trkpt>
      <trkpt lat="49.96068" lon="2.37561">
        <ele>114.4</ele>
        <time>2023-01-04T14:48:29Z</time>
      </trkpt>
      <trkpt lat="49.96067" lon="2.3756">
        <ele>114.4</ele>
        <time>2023-01-04T14:48:30Z</time>
      </trkpt>
      <trkpt lat="49.96066" lon="2.37559">
        <ele>114.4</ele>
        <time>2023-01-04T14:48:32Z</time>
      </trkpt>
      <trkpt lat="49.96065" lon="2.37558">
        <ele>114.5</ele>
        <time>2023-01-04T14:48:33Z</time>
      </trkpt>
      <trkpt lat="49.96063" lon="2.37556">
        <ele>114.5</ele>
        <time>2023-01-04T14:48:34Z</time>
      </trkpt>
      <trkpt lat="49.96062" lon="2.37555">
        <ele>114.6</ele>
        <time>2023-01-04T14:48:35Z</time>
      </trkpt>
      <trkpt lat="49.96061" lon="2.37554">
        <ele>114.6</ele>
        <time>2023-01-04T14:48:36Z</time>
      </trkpt>
      <trkpt lat="49.9606" lon="2.37553">
        <ele>114.6</ele>
        <time>2023-01-04T14:48:38Z</time>
      </trkpt>
      <trkpt lat="49.96059" lon="2.37553">
        <ele>114.7</ele>
        <time>2023-01-04T14:48:39Z</time>
      </trkpt>
      <trkpt lat="49.96059" lon="2.37552">
        <ele>114.7</ele>
        <time>2023-01-04T14:48:40Z</time>
      </trkpt>
      <trkpt lat="49.96058" lon="2.37552">
        <ele>114.7</ele>
        <time>2023-01-04T14:48:41Z</time>
      </trkpt>
      <trkpt lat="49.96057" lon="2.37551">
        <ele>114.7</ele>
        <time>2023-01-04T14:48:42Z</time>
      </trkpt>
      <trkpt lat="49.96056" lon="2.3755">
        <ele>114.8</ele>
        <time>2023-01-04T14:48:43Z</time>
      </trkpt>
      <trkpt lat="49.96055" lon="2.37549">
        <ele>114.8</ele>
        <time>2023-01-04T14:48:44Z</time>
      </trkpt>
      <trkpt lat="49.96054" lon="2.37548">
        <ele>114.8</ele>
        <time>2023-01-04T14:48:46Z</time>
      </trkpt>
      <trkpt lat="49.96053" lon="2.37548">
        <ele>114.9</ele>
        <time>2023-01-04T14:48:47Z</time>
      </trkpt>
      <trkpt lat="49.96052" lon="2.37547">
        <ele>114.9</ele>
        <time>2023-01-04T14:48:48Z</time>
      </trkpt>
      <trkpt lat="49.96051" lon="2.37546">
        <ele>114.9</ele>
        <time>2023-01-04T14:48:49Z</time>
      </trkpt>
      <trkpt lat="49.96051" lon="2.37546">
        <ele>114.9</ele>
        <time>2023-01-04T14:48:50Z</time>
      </trkpt>
      <trkpt lat="49.9605" lon="2.37545">
        <ele>115</ele>
        <time>2023-01-04T14:48:51Z</time>
      </trkpt>
      <trkpt lat="49.96049" lon="2.37544">
        <ele>115</ele>
        <time>2023-01-04T14:48:53Z</time>
      </trkpt>
      <trkpt lat="49.96048" lon="2.37543">
        <ele>115</ele>
        <time>2023-01-04T14:48:54Z</time>
      </trkpt>
      <trkpt lat="49.96048" lon="2.37542">
        <ele>115</ele>
        <time>2023-01-04T14:48:55Z</time>
      </trkpt>
      <trkpt lat="49.96047" lon="2.37541">
        <ele>115</ele>
        <time>2023-01-04T14:48:56Z</time>
      </trkpt>
      <trkpt lat="49.96047" lon="2.3754">
        <ele>115.1</ele>
        <time>2023-01-04T14:48:57Z</time>
      </trkpt>
      <trkpt lat="49.96046" lon="2.37539">
        <ele>115.1</ele>
        <time>2023-01-04T14:48:58Z</time>
      </trkpt>
      <trkpt lat="49.96045" lon="2.37539">
        <ele>115.1</ele>
        <time>2023-01-04T14:48:59Z</time>
      </trkpt>
      <trkpt lat="49.96045" lon="2.37538">
        <ele>115.1</ele>
        <time>2023-01-04T14:49:00Z</time>
      </trkpt>
      <trkpt lat="49.96044" lon="2.37537">
        <ele>115.2</ele>
        <time>2023-01-04T14:49:02Z</time>
      </trkpt>
      <trkpt lat="49.96043" lon="2.37536">
        <ele>115.2</ele>
        <time>2023-01-04T14:49:03Z</time>
      </trkpt>
      <trkpt lat="49.96042" lon="2.37536">
        <ele>115.2</ele>
        <time>2023-01-04T14:49:04Z</time>
      </trkpt>
      <trkpt lat="49.96042" lon="2.37535">
        <ele>115.2</ele>
        <time>2023-01-04T14:49:05Z</time>
      </trkpt>
      <trkpt lat="49.96041" lon="2.37534">
        <ele>115.2</ele>
        <time>2023-01-04T14:49:06Z</time>
      </trkpt>
      <trkpt lat="49.96039" lon="2.37533">
        <ele>115.3</ele>
        <time>2023-01-04T14:49:08Z</time>
      </trkpt>
      <trkpt lat="49.96038" lon="2.37531">
        <ele>115.3</ele>
        <time>2023-01-04T14:49:09Z</time>
      </trkpt>
      <trkpt lat="49.96037" lon="2.3753">
        <ele>115.3</ele>
        <time>2023-01-04T14:49:10Z</time>
      </trkpt>
      <trkpt lat="49.96036" lon="2.37529">
        <ele>115.4</ele>
        <time>2023-01-04T14:49:12Z</time>
      </trkpt>
      <trkpt lat="49.96035" lon="2.37528">
        <ele>115.4</ele>
        <time>2023-01-04T14:49:13Z</time>
      </trkpt>
      <trkpt lat="49.96035" lon="2.37527">
        <ele>115.4</ele>
        <time>2023-01-04T14:49:14Z</time>
      </trkpt>
      <trkpt lat="49.96034" lon="2.37525">
        <ele>115.4</ele>
        <time>2023-01-04T14:49:15Z</time>
      </trkpt>
      <trkpt lat="49.96033" lon="2.37524">
        <ele>115.5</ele>
        <time>2023-01-04T14:49:16Z</time>
      </trkpt>
      <trkpt lat="49.96032" lon="2.37523">
        <ele>115.5</ele>
        <time>2023-01-04T14:49:17Z</time>
      </trkpt>
      <trkpt lat="49.96031" lon="2.37523">
        <ele>115.5</ele>
        <time>2023-01-04T14:49:18Z</time>
      </trkpt>
      <trkpt lat="49.9603" lon="2.37522">
        <ele>115.5</ele>
        <time>2023-01-04T14:49:20Z</time>
      </trkpt>
      <trkpt lat="49.96029" lon="2.37521">
        <ele>115.5</ele>
        <time>2023-01-04T14:49:21Z</time>
      </trkpt>
      <trkpt lat="49.96028" lon="2.37521">
        <ele>115.5</ele>
        <time>2023-01-04T14:49:22Z</time>
      </trkpt>
      <trkpt lat="49.96027" lon="2.37521">
        <ele>115.5</ele>
        <time>2023-01-04T14:49:23Z</time>
      </trkpt>
      <trkpt lat="49.96026" lon="2.37521">
        <ele>115.6</ele>
        <time>2023-01-04T14:49:24Z</time>
      </trkpt>
      <trkpt lat="49.96025" lon="2.3752">
        <ele>115.6</ele>
        <time>2023-01-04T14:49:26Z</time>
      </trkpt>
      <trkpt lat="49.96024" lon="2.37521">
        <ele>115.6</ele>
        <time>2023-01-04T14:49:27Z</time>
      </trkpt>
      <trkpt lat="49.96024" lon="2.37522">
        <ele>115.6</ele>
        <time>2023-01-04T14:49:28Z</time>
      </trkpt>
      <trkpt lat="49.96024" lon="2.37523">
        <ele>115.6</ele>
        <time>2023-01-04T14:49:30Z</time>
      </trkpt>
      <trkpt lat="49.96024" lon="2.37524">
        <ele>115.6</ele>
        <time>2023-01-04T14:49:31Z</time>
      </trkpt>
      <trkpt lat="49.96025" lon="2.37524">
        <ele>115.6</ele>
        <time>2023-01-04T14:49:33Z</time>
      </trkpt>
      <trkpt lat="49.96025" lon="2.37524">
        <ele>115.6</ele>
        <time>2023-01-04T14:49:34Z</time>
      </trkpt>
      <trkpt lat="49.96025" lon="2.37524">
        <ele>115.6</ele>
        <time>2023-01-04T14:49:36Z</time>
      </trkpt>
      <trkpt lat="49.96025" lon="2.37525">
        <ele>115.6</ele>
        <time>2023-01-04T14:49:37Z</time>
      </trkpt>
      <trkpt lat="49.96025" lon="2.37525">
        <ele>115.6</ele>
        <time>2023-01-04T14:49:38Z</time>
      </trkpt>
      <trkpt lat="49.96025" lon="2.37524">
        <ele>115.6</ele>
        <time>2023-01-04T14:49:40Z</time>
      </trkpt>
      <trkpt lat="49.96025" lon="2.37524">
        <ele>115.6</ele>
        <time>2023-01-04T14:49:41Z</time>
      </trkpt>
      <trkpt lat="49.96026" lon="2.37524">
        <ele>115.6</ele>
        <time>2023-01-04T14:49:42Z</time>
      </trkpt>
      <trkpt lat="49.96026" lon="2.37523">
        <ele>115.6</ele>
        <time>2023-01-04T14:49:44Z</time>
      </trkpt>
      <trkpt lat="49.96027" lon="2.37522">
        <ele>115.6</ele>
        <time>2023-01-04T14:49:45Z</time>
      </trkpt>
      <trkpt lat="49.96027" lon="2.37521">
        <ele>115.6</ele>
        <time>2023-01-04T14:49:46Z</time>
      </trkpt>
      <trkpt lat="49.96028" lon="2.37521">
        <ele>115.6</ele>
        <time>2023-01-04T14:49:47Z</time>
      </trkpt>
      <trkpt lat="49.96028" lon="2.37521">
        <ele>115.6</ele>
        <time>2023-01-04T14:49:48Z</time>
      </trkpt>
      <trkpt lat="49.96028" lon="2.37521">
        <ele>115.6</ele>
        <time>2023-01-04T14:49:49Z</time>
      </trkpt>
      <trkpt lat="49.96028" lon="2.37521">
        <ele>115.6</ele>
        <time>2023-01-04T14:49:50Z</time>
      </trkpt>
      <trkpt lat="49.96028" lon="2.37521">
        <ele>115.6</ele>
        <time>2023-01-04T14:49:51Z</time>
      </trkpt>
      <trkpt lat="49.96028" lon="2.37521">
        <ele>115.6</ele>
        <time>2023-01-04T14:49:52Z</time>
      </trkpt>
      <trkpt lat="49.96028" lon="2.37521">
        <ele>115.6</ele>
        <time>2023-01-04T14:49:53Z</time>
      </trkpt>
      <trkpt lat="49.96028" lon="2.37521">
        <ele>115.6</ele>
        <time>2023-01-04T14:49:54Z</time>
      </trkpt>
      <trkpt lat="49.96028" lon="2.37521">
        <ele>115.6</ele>
        <time>2023-01-04T14:49:55Z</time>
      </trkpt>
      <trkpt lat="49.96028" lon="2.37521">
        <ele>115.6</ele>
        <time>2023-01-04T14:49:56Z</time>
      </trkpt>
      <trkpt lat="49.96028" lon="2.37521">
        <ele>115.6</ele>
        <time>2023-01-04T14:49:57Z</time>
      </trkpt>
      <trkpt lat="49.96028" lon="2.37521">
        <ele>115.6</ele>
        <time>2023-01-04T14:49:58Z</time>
      </trkpt>
      <trkpt lat="49.96028" lon="2.37521">
        <ele>115.6</ele>
        <time>2023-01-04T14:49:59Z</time>
      </trkpt>
      <trkpt lat="49.96028" lon="2.37521">
        <ele>115.6</ele>
        <time>2023-01-04T14:50:00Z</time>
      </trkpt>
      <trkpt lat="49.96028" lon="2.37521">
        <ele>115.6</ele>
        <time>2023-01-04T14:50:01Z</time>
      </trkpt>
      <trkpt lat="49.96028" lon="2.37521">
        <ele>115.6</ele>
        <time>2023-01-04T14:50:02Z</time>
      </trkpt>
      <trkpt lat="49.96028" lon="2.37521">
        <ele>115.6</ele>
        <time>2023-01-04T14:50:03Z</time>
      </trkpt>
      <trkpt lat="49.96028" lon="2.37521">
        <ele>115.6</ele>
        <time>2023-01-04T14:50:04Z</time>
      </trkpt>
      <trkpt lat="49.96028" lon="2.37521">
        <ele>115.6</ele>
        <time>2023-01-04T14:50:05Z</time>
      </trkpt>
      <trkpt lat="49.96028" lon="2.37521">
        <ele>115.6</ele>
        <time>2023-01-04T14:50:06Z</time>
      </trkpt>
      <trkpt lat="49.96028" lon="2.37521">
        <ele>115.6</ele>
        <time>2023-01-04T14:50:07Z</time>
      </trkpt>
      <trkpt lat="49.96028" lon="2.37521">
        <ele>115.6</ele>
        <time>2023-01-04T14:50:08Z</time>
      </trkpt>
      <trkpt lat="49.96028" lon="2.37521">
        <ele>115.6</ele>
        <time>2023-01-04T14:50:09Z</time>
      </trkpt>
      <trkpt lat="49.96028" lon="2.37521">
        <ele>115.6</ele>
        <time>2023-01-04T14:50:10Z</time>
      </trkpt>
      <trkpt lat="49.96028" lon="2.37521">
        <ele>115.6</ele>
        <time>2023-01-04T14:50:11Z</time>
      </trkpt>
      <trkpt lat="49.96028" lon="2.37521">
        <ele>115.6</ele>
        <time>2023-01-04T14:50:12Z</time>
      </trkpt>
      <trkpt lat="49.96028" lon="2.37521">
        <ele>115.6</ele>
        <time>2023-01-04T14:50:13Z</time>
      </trkpt>
      <trkpt lat="49.96028" lon="2.37521">
        <ele>115.6</ele>
        <time>2023-01-04T14:50:14Z</time>
      </trkpt>
      <trkpt lat="49.96028" lon="2.37521">
        <ele>115.6</ele>
        <time>2023-01-04T14:50:15Z</time>
      </trkpt>
      <trkpt lat="49.96028" lon="2.37521">
        <ele>115.6</ele>
        <time>2023-01-04T14:50:16Z</time>
      </trkpt>
      <trkpt lat="49.96028" lon="2.37521">
        <ele>115.6</ele>
        <time>2023-01-04T14:50:17Z</time>
      </trkpt>
      <trkpt lat="49.96028" lon="2.37521">
        <ele>115.6</ele>
        <time>2023-01-04T14:50:18Z</time>
      </trkpt>
      <trkpt lat="49.96028" lon="2.37521">
        <ele>115.6</ele>
        <time>2023-01-04T14:50:19Z</time>
      </trkpt>
      <trkpt lat="49.96028" lon="2.37521">
        <ele>115.6</ele>
        <time>2023-01-04T14:50:20Z</time>
      </trkpt>
      <trkpt lat="49.96028" lon="2.37521">
        <ele>115.6</ele>
        <time>2023-01-04T14:50:21Z</time>
      </trkpt>
      <trkpt lat="49.96028" lon="2.37521">
        <ele>115.6</ele>
        <time>2023-01-04T14:50:22Z</time>
      </trkpt>
      <trkpt lat="49.96028" lon="2.37521">
        <ele>115.6</ele>
        <time>2023-01-04T14:50:23Z</time>
      </trkpt>
      <trkpt lat="49.96028" lon="2.37521">
        <ele>115.6</ele>
        <time>2023-01-04T14:50:24Z</time>
      </trkpt>
      <trkpt lat="49.96028" lon="2.37521">
        <ele>115.6</ele>
        <time>2023-01-04T14:50:25Z</time>
      </trkpt>
      <trkpt lat="49.96028" lon="2.37521">
        <ele>115.6</ele>
        <time>2023-01-04T14:50:26Z</time>
      </trkpt>
      <trkpt lat="49.96028" lon="2.37521">
        <ele>115.6</ele>
        <time>2023-01-04T14:50:27Z</time>
      </trkpt>
      <trkpt lat="49.96028" lon="2.37521">
        <ele>115.6</ele>
        <time>2023-01-04T14:50:28Z</time>
      </trkpt>
      <trkpt lat="49.96028" lon="2.37521">
        <ele>115.6</ele>
        <time>2023-01-04T14:50:29Z</time>
      </trkpt>
      <trkpt lat="49.96028" lon="2.37521">
        <ele>115.6</ele>
        <time>2023-01-04T14:50:30Z</time>
      </trkpt>
      <trkpt lat="49.96028" lon="2.37521">
        <ele>115.6</ele>
        <time>2023-01-04T14:50:31Z</time>
      </trkpt>
      <trkpt lat="49.96028" lon="2.37521">
        <ele>115.6</ele>
        <time>2023-01-04T14:50:32Z</time>
      </trkpt>
      <trkpt lat="49.96028" lon="2.37521">
        <ele>115.6</ele>
        <time>2023-01-04T14:50:33Z</time>
      </trkpt>
      <trkpt lat="49.96028" lon="2.37521">
        <ele>115.6</ele>
        <time>2023-01-04T14:50:34Z</time>
      </trkpt>
      <trkpt lat="49.96028" lon="2.37521">
        <ele>115.6</ele>
        <time>2023-01-04T14:50:35Z</time>
      </trkpt>
      <trkpt lat="49.96028" lon="2.37521">
        <ele>115.6</ele>
        <time>2023-01-04T14:50:36Z</time>
      </trkpt>
      <trkpt lat="49.96028" lon="2.37521">
        <ele>115.6</ele>
        <time>2023-01-04T14:50:37Z</time>
      </trkpt>
      <trkpt lat="49.96028" lon="2.37521">
        <ele>115.6</ele>
        <time>2023-01-04T14:50:38Z</time>
      </trkpt>
      <trkpt lat="49.96029" lon="2.37521">
        <ele>115.7</ele>
        <time>2023-01-04T14:50:39Z</time>
      </trkpt>
      <trkpt lat="49.96029" lon="2.3752">
        <ele>115.7</ele>
        <time>2023-01-04T14:50:41Z</time>
      </trkpt>
      <trkpt lat="49.96029" lon="2.3752">
        <ele>115.7</ele>
        <time>2023-01-04T14:50:42Z</time>
      </trkpt>
      <trkpt lat="49.96029" lon="2.3752">
        <ele>115.7</ele>
        <time>2023-01-04T14:50:43Z</time>
      </trkpt>
      <trkpt lat="49.96028" lon="2.37519">
        <ele>115.7</ele>
        <time>2023-01-04T14:50:44Z</time>
      </trkpt>
      <trkpt lat="49.96028" lon="2.37517">
        <ele>115.7</ele>
        <time>2023-01-04T14:50:45Z</time>
      </trkpt>
      <trkpt lat="49.96027" lon="2.37516">
        <ele>115.7</ele>
        <time>2023-01-04T14:50:46Z</time>
      </trkpt>
      <trkpt lat="49.96026" lon="2.37516">
        <ele>115.7</ele>
        <time>2023-01-04T14:50:48Z</time>
      </trkpt>
      <trkpt lat="49.96024" lon="2.37516">
        <ele>115.7</ele>
        <time>2023-01-04T14:50:49Z</time>
      </trkpt>
      <trkpt lat="49.96024" lon="2.37517">
        <ele>115.7</ele>
        <time>2023-01-04T14:50:50Z</time>
      </trkpt>
      <trkpt lat="49.96023" lon="2.37518">
        <ele>115.7</ele>
        <time>2023-01-04T14:50:52Z</time>
      </trkpt>
      <trkpt lat="49.96023" lon="2.37519">
        <ele>115.7</ele>
        <time>2023-01-04T14:50:53Z</time>
      </trkpt>
      <trkpt lat="49.96023" lon="2.37519">
        <ele>115.7</ele>
        <time>2023-01-04T14:50:55Z</time>
      </trkpt>
      <trkpt lat="49.96023" lon="2.3752">
        <ele>115.8</ele>
        <time>2023-01-04T14:50:56Z</time>
      </trkpt>
      <trkpt lat="49.96023" lon="2.3752">
        <ele>115.8</ele>
        <time>2023-01-04T14:50:57Z</time>
      </trkpt>
      <trkpt lat="49.96023" lon="2.3752">
        <ele>115.8</ele>
        <time>2023-01-04T14:50:59Z</time>
      </trkpt>
      <trkpt lat="49.96023" lon="2.3752">
        <ele>115.8</ele>
        <time>2023-01-04T14:51:00Z</time>
      </trkpt>
      <trkpt lat="49.96023" lon="2.3752">
        <ele>115.8</ele>
        <time>2023-01-04T14:51:02Z</time>
      </trkpt>
      <trkpt lat="49.96023" lon="2.3752">
        <ele>115.8</ele>
        <time>2023-01-04T14:51:03Z</time>
      </trkpt>
      <trkpt lat="49.96023" lon="2.37521">
        <ele>115.8</ele>
        <time>2023-01-04T14:51:05Z</time>
      </trkpt>
      <trkpt lat="49.96023" lon="2.37521">
        <ele>115.8</ele>
        <time>2023-01-04T14:51:06Z</time>
      </trkpt>
      <trkpt lat="49.96023" lon="2.37521">
        <ele>115.8</ele>
        <time>2023-01-04T14:51:07Z</time>
      </trkpt>
      <trkpt lat="49.96023" lon="2.37521">
        <ele>115.8</ele>
        <time>2023-01-04T14:51:08Z</time>
      </trkpt>
      <trkpt lat="49.96023" lon="2.37521">
        <ele>115.8</ele>
        <time>2023-01-04T14:51:09Z</time>
      </trkpt>
      <trkpt lat="49.96023" lon="2.37521">
        <ele>115.8</ele>
        <time>2023-01-04T14:51:10Z</time>
      </trkpt>
      <trkpt lat="49.96023" lon="2.37521">
        <ele>115.8</ele>
        <time>2023-01-04T14:51:11Z</time>
      </trkpt>
      <trkpt lat="49.96023" lon="2.37521">
        <ele>115.8</ele>
        <time>2023-01-04T14:51:12Z</time>
      </trkpt>
      <trkpt lat="49.96023" lon="2.37521">
        <ele>115.8</ele>
        <time>2023-01-04T14:51:13Z</time>
      </trkpt>
      <trkpt lat="49.96024" lon="2.37521">
        <ele>115.8</ele>
        <time>2023-01-04T14:51:14Z</time>
      </trkpt>
      <trkpt lat="49.96024" lon="2.37521">
        <ele>115.8</ele>
        <time>2023-01-04T14:51:15Z</time>
      </trkpt>
      <trkpt lat="49.96024" lon="2.37521">
        <ele>115.8</ele>
        <time>2023-01-04T14:51:16Z</time>
      </trkpt>
      <trkpt lat="49.96024" lon="2.37521">
        <ele>115.8</ele>
        <time>2023-01-04T14:51:17Z</time>
      </trkpt>
      <trkpt lat="49.96024" lon="2.37521">
        <ele>115.8</ele>
        <time>2023-01-04T14:51:18Z</time>
      </trkpt>
      <trkpt lat="49.96024" lon="2.37521">
        <ele>115.8</ele>
        <time>2023-01-04T14:51:19Z</time>
      </trkpt>
      <trkpt lat="49.96024" lon="2.37521">
        <ele>115.8</ele>
        <time>2023-01-04T14:51:20Z</time>
      </trkpt>
      <trkpt lat="49.96024" lon="2.37521">
        <ele>115.8</ele>
        <time>2023-01-04T14:51:21Z</time>
      </trkpt>
      <trkpt lat="49.96024" lon="2.37521">
        <ele>115.8</ele>
        <time>2023-01-04T14:51:22Z</time>
      </trkpt>
      <trkpt lat="49.96024" lon="2.37521">
        <ele>115.8</ele>
        <time>2023-01-04T14:51:23Z</time>
      </trkpt>
      <trkpt lat="49.96024" lon="2.37521">
        <ele>115.8</ele>
        <time>2023-01-04T14:51:24Z</time>
      </trkpt>
      <trkpt lat="49.96024" lon="2.37521">
        <ele>115.8</ele>
        <time>2023-01-04T14:51:25Z</time>
      </trkpt>
      <trkpt lat="49.96024" lon="2.37521">
        <ele>115.8</ele>
        <time>2023-01-04T14:51:26Z</time>
      </trkpt>
      <trkpt lat="49.96024" lon="2.37521">
        <ele>115.8</ele>
        <time>2023-01-04T14:51:27Z</time>
      </trkpt>
      <trkpt lat="49.96024" lon="2.37521">
        <ele>115.8</ele>
        <time>2023-01-04T14:51:28Z</time>
      </trkpt>
      <trkpt lat="49.96024" lon="2.37521">
        <ele>115.8</ele>
        <time>2023-01-04T14:51:29Z</time>
      </trkpt>
      <trkpt lat="49.96024" lon="2.37521">
        <ele>115.8</ele>
        <time>2023-01-04T14:51:30Z</time>
      </trkpt>
      <trkpt lat="49.96024" lon="2.37521">
        <ele>115.8</ele>
        <time>2023-01-04T14:51:31Z</time>
      </trkpt>
      <trkpt lat="49.96024" lon="2.37521">
        <ele>115.8</ele>
        <time>2023-01-04T14:51:32Z</time>
      </trkpt>
      <trkpt lat="49.96024" lon="2.37521">
        <ele>115.8</ele>
        <time>2023-01-04T14:51:33Z</time>
      </trkpt>
      <trkpt lat="49.96024" lon="2.37521">
        <ele>115.8</ele>
        <time>2023-01-04T14:51:34Z</time>
      </trkpt>
      <trkpt lat="49.96024" lon="2.37521">
        <ele>115.8</ele>
        <time>2023-01-04T14:51:35Z</time>
      </trkpt>
      <trkpt lat="49.96024" lon="2.37521">
        <ele>115.8</ele>
        <time>2023-01-04T14:51:36Z</time>
      </trkpt>
      <trkpt lat="49.96024" lon="2.37521">
        <ele>115.8</ele>
        <time>2023-01-04T14:51:37Z</time>
      </trkpt>
      <trkpt lat="49.96024" lon="2.37521">
        <ele>115.8</ele>
        <time>2023-01-04T14:51:38Z</time>
      </trkpt>
      <trkpt lat="49.96024" lon="2.37521">
        <ele>115.8</ele>
        <time>2023-01-04T14:51:39Z</time>
      </trkpt>
      <trkpt lat="49.96024" lon="2.37521">
        <ele>115.8</ele>
        <time>2023-01-04T14:51:40Z</time>
      </trkpt>
      <trkpt lat="49.96024" lon="2.37521">
        <ele>115.8</ele>
        <time>2023-01-04T14:51:41Z</time>
      </trkpt>
      <trkpt lat="49.96024" lon="2.37521">
        <ele>115.8</ele>
        <time>2023-01-04T14:51:42Z</time>
      </trkpt>
      <trkpt lat="49.96024" lon="2.37521">
        <ele>115.8</ele>
        <time>2023-01-04T14:51:43Z</time>
      </trkpt>
      <trkpt lat="49.96024" lon="2.37521">
        <ele>115.8</ele>
        <time>2023-01-04T14:51:44Z</time>
      </trkpt>
      <trkpt lat="49.96024" lon="2.37521">
        <ele>115.8</ele>
        <time>2023-01-04T14:51:45Z</time>
      </trkpt>
      <trkpt lat="49.96024" lon="2.37521">
        <ele>115.8</ele>
        <time>2023-01-04T14:51:47Z</time>
      </trkpt>
      <trkpt lat="49.96024" lon="2.37521">
        <ele>115.8</ele>
        <time>2023-01-04T14:51:48Z</time>
      </trkpt>
      <trkpt lat="49.96024" lon="2.37521">
        <ele>115.8</ele>
        <time>2023-01-04T14:51:49Z</time>
      </trkpt>
      <trkpt lat="49.96024" lon="2.37521">
        <ele>115.8</ele>
        <time>2023-01-04T14:51:50Z</time>
      </trkpt>
      <trkpt lat="49.96024" lon="2.37521">
        <ele>115.8</ele>
        <time>2023-01-04T14:51:51Z</time>
      </trkpt>
      <trkpt lat="49.96024" lon="2.37521">
        <ele>115.8</ele>
        <time>2023-01-04T14:51:53Z</time>
      </trkpt>
      <trkpt lat="49.96024" lon="2.37521">
        <ele>115.8</ele>
        <time>2023-01-04T14:51:54Z</time>
      </trkpt>
      <trkpt lat="49.96024" lon="2.37521">
        <ele>115.8</ele>
        <time>2023-01-04T14:51:55Z</time>
      </trkpt>
      <trkpt lat="49.96024" lon="2.37521">
        <ele>115.8</ele>
        <time>2023-01-04T14:51:56Z</time>
      </trkpt>
      <trkpt lat="49.96024" lon="2.37521">
        <ele>115.8</ele>
        <time>2023-01-04T14:51:57Z</time>
      </trkpt>
      <trkpt lat="49.96024" lon="2.37521">
        <ele>115.8</ele>
        <time>2023-01-04T14:51:58Z</time>
      </trkpt>
      <trkpt lat="49.96023" lon="2.37521">
        <ele>115.8</ele>
        <time>2023-01-04T14:51:59Z</time>
      </trkpt>
      <trkpt lat="49.96023" lon="2.37521">
        <ele>115.8</ele>
        <time>2023-01-04T14:52:00Z</time>
      </trkpt>
      <trkpt lat="49.96023" lon="2.3752">
        <ele>115.8</ele>
        <time>2023-01-04T14:52:02Z</time>
      </trkpt>
      <trkpt lat="49.96023" lon="2.37519">
        <ele>115.8</ele>
        <time>2023-01-04T14:52:03Z</time>
      </trkpt>
      <trkpt lat="49.96023" lon="2.37518">
        <ele>115.8</ele>
        <time>2023-01-04T14:52:04Z</time>
      </trkpt>
      <trkpt lat="49.96022" lon="2.37517">
        <ele>115.8</ele>
        <time>2023-01-04T14:52:05Z</time>
      </trkpt>
      <trkpt lat="49.96022" lon="2.37515">
        <ele>115.8</ele>
        <time>2023-01-04T14:52:07Z</time>
      </trkpt>
      <trkpt lat="49.96022" lon="2.37515">
        <ele>115.8</ele>
        <time>2023-01-04T14:52:08Z</time>
      </trkpt>
      <trkpt lat="49.96022" lon="2.37515">
        <ele>115.8</ele>
        <time>2023-01-04T14:52:10Z</time>
      </trkpt>
      <trkpt lat="49.96022" lon="2.37515">
        <ele>115.8</ele>
        <time>2023-01-04T14:52:11Z</time>
      </trkpt>
      <trkpt lat="49.96022" lon="2.37515">
        <ele>115.8</ele>
        <time>2023-01-04T14:52:12Z</time>
      </trkpt>
      <trkpt lat="49.96022" lon="2.37515">
        <ele>115.8</ele>
        <time>2023-01-04T14:52:14Z</time>
      </trkpt>
      <trkpt lat="49.96022" lon="2.37515">
        <ele>115.8</ele>
        <time>2023-01-04T14:52:15Z</time>
      </trkpt>
      <trkpt lat="49.96022" lon="2.37515">
        <ele>115.8</ele>
        <time>2023-01-04T14:52:17Z</time>
      </trkpt>
      <trkpt lat="49.96022" lon="2.37515">
        <ele>115.8</ele>
        <time>2023-01-04T14:52:18Z</time>
      </trkpt>
      <trkpt lat="49.96022" lon="2.37516">
        <ele>115.8</ele>
        <time>2023-01-04T14:52:19Z</time>
      </trkpt>
      <trkpt lat="49.96022" lon="2.37515">
        <ele>115.8</ele>
        <time>2023-01-04T14:52:20Z</time>
      </trkpt>
      <trkpt lat="49.96021" lon="2.37515">
        <ele>115.8</ele>
        <time>2023-01-04T14:52:22Z</time>
      </trkpt>
      <trkpt lat="49.96021" lon="2.37515">
        <ele>115.8</ele>
        <time>2023-01-04T14:52:23Z</time>
      </trkpt>
      <trkpt lat="49.96021" lon="2.37515">
        <ele>115.8</ele>
        <time>2023-01-04T14:52:24Z</time>
      </trkpt>
      <trkpt lat="49.96022" lon="2.37516">
        <ele>115.8</ele>
        <time>2023-01-04T14:52:25Z</time>
      </trkpt>
      <trkpt lat="49.96022" lon="2.37516">
        <ele>115.8</ele>
        <time>2023-01-04T14:52:26Z</time>
      </trkpt>
      <trkpt lat="49.96022" lon="2.37516">
        <ele>115.8</ele>
        <time>2023-01-04T14:52:27Z</time>
      </trkpt>
      <trkpt lat="49.96022" lon="2.37516">
        <ele>115.8</ele>
        <time>2023-01-04T14:52:28Z</time>
      </trkpt>
      <trkpt lat="49.96022" lon="2.37516">
        <ele>115.8</ele>
        <time>2023-01-04T14:52:29Z</time>
      </trkpt>
      <trkpt lat="49.96022" lon="2.37516">
        <ele>115.8</ele>
        <time>2023-01-04T14:52:30Z</time>
      </trkpt>
      <trkpt lat="49.96022" lon="2.37516">
        <ele>115.8</ele>
        <time>2023-01-04T14:52:31Z</time>
      </trkpt>
      <trkpt lat="49.96022" lon="2.37516">
        <ele>115.8</ele>
        <time>2023-01-04T14:52:32Z</time>
      </trkpt>
      <trkpt lat="49.96022" lon="2.37516">
        <ele>115.8</ele>
        <time>2023-01-04T14:52:33Z</time>
      </trkpt>
      <trkpt lat="49.96022" lon="2.37516">
        <ele>115.8</ele>
        <time>2023-01-04T14:52:34Z</time>
      </trkpt>
      <trkpt lat="49.96022" lon="2.37516">
        <ele>115.8</ele>
        <time>2023-01-04T14:52:35Z</time>
      </trkpt>
      <trkpt lat="49.96022" lon="2.37516">
        <ele>115.8</ele>
        <time>2023-01-04T14:52:36Z</time>
      </trkpt>
      <trkpt lat="49.96022" lon="2.37516">
        <ele>115.8</ele>
        <time>2023-01-04T14:52:37Z</time>
      </trkpt>
      <trkpt lat="49.96022" lon="2.37516">
        <ele>115.8</ele>
        <time>2023-01-04T14:52:38Z</time>
      </trkpt>
      <trkpt lat="49.96022" lon="2.37516">
        <ele>115.8</ele>
        <time>2023-01-04T14:52:39Z</time>
      </trkpt>
      <trkpt lat="49.96022" lon="2.37516">
        <ele>115.8</ele>
        <time>2023-01-04T14:52:40Z</time>
      </trkpt>
      <trkpt lat="49.96022" lon="2.37516">
        <ele>115.8</ele>
        <time>2023-01-04T14:52:41Z</time>
      </trkpt>
      <trkpt lat="49.96022" lon="2.37516">
        <ele>115.8</ele>
        <time>2023-01-04T14:52:42Z</time>
      </trkpt>
      <trkpt lat="49.96022" lon="2.37516">
        <ele>115.8</ele>
        <time>2023-01-04T14:52:43Z</time>
      </trkpt>
      <trkpt lat="49.96022" lon="2.37516">
        <ele>115.8</ele>
        <time>2023-01-04T14:52:44Z</time>
      </trkpt>
      <trkpt lat="49.96022" lon="2.37516">
        <ele>115.8</ele>
        <time>2023-01-04T14:52:45Z</time>
      </trkpt>
      <trkpt lat="49.96022" lon="2.37516">
        <ele>115.8</ele>
        <time>2023-01-04T14:52:46Z</time>
      </trkpt>
      <trkpt lat="49.96022" lon="2.37516">
        <ele>115.8</ele>
        <time>2023-01-04T14:52:47Z</time>
      </trkpt>
      <trkpt lat="49.96022" lon="2.37516">
        <ele>115.8</ele>
        <time>2023-01-04T14:52:48Z</time>
      </trkpt>
      <trkpt lat="49.96022" lon="2.37516">
        <ele>115.8</ele>
        <time>2023-01-04T14:52:49Z</time>
      </trkpt>
      <trkpt lat="49.96023" lon="2.37516">
        <ele>115.8</ele>
        <time>2023-01-04T14:52:51Z</time>
      </trkpt>
      <trkpt lat="49.96023" lon="2.37516">
        <ele>115.8</ele>
        <time>2023-01-04T14:52:52Z</time>
      </trkpt>
      <trkpt lat="49.96022" lon="2.37514">
        <ele>115.8</ele>
        <time>2023-01-04T14:52:53Z</time>
      </trkpt>
      <trkpt lat="49.9602" lon="2.37513">
        <ele>115.8</ele>
        <time>2023-01-04T14:52:54Z</time>
      </trkpt>
      <trkpt lat="49.96017" lon="2.37511">
        <ele>115.8</ele>
        <time>2023-01-04T14:52:55Z</time>
      </trkpt>
      <trkpt lat="49.96016" lon="2.3751">
        <ele>115.8</ele>
        <time>2023-01-04T14:52:56Z</time>
      </trkpt>
      <trkpt lat="49.96014" lon="2.37509">
        <ele>115.8</ele>
        <time>2023-01-04T14:52:58Z</time>
      </trkpt>
      <trkpt lat="49.96013" lon="2.37508">
        <ele>115.8</ele>
        <time>2023-01-04T14:52:59Z</time>
      </trkpt>
      <trkpt lat="49.96012" lon="2.37507">
        <ele>115.7</ele>
        <time>2023-01-04T14:53:00Z</time>
      </trkpt>
      <trkpt lat="49.96011" lon="2.37506">
        <ele>115.7</ele>
        <time>2023-01-04T14:53:01Z</time>
      </trkpt>
      <trkpt lat="49.96011" lon="2.37506">
        <ele>115.7</ele>
        <time>2023-01-04T14:53:02Z</time>
      </trkpt>
      <trkpt lat="49.9601" lon="2.37505">
        <ele>115.7</ele>
        <time>2023-01-04T14:53:03Z</time>
      </trkpt>
      <trkpt lat="49.96009" lon="2.37504">
        <ele>115.7</ele>
        <time>2023-01-04T14:53:04Z</time>
      </trkpt>
      <trkpt lat="49.96009" lon="2.37504">
        <ele>115.7</ele>
        <time>2023-01-04T14:53:05Z</time>
      </trkpt>
      <trkpt lat="49.96009" lon="2.37504">
        <ele>115.7</ele>
        <time>2023-01-04T14:53:07Z</time>
      </trkpt>
      <trkpt lat="49.96009" lon="2.37504">
        <ele>115.7</ele>
        <time>2023-01-04T14:53:08Z</time>
      </trkpt>
      <trkpt lat="49.96008" lon="2.37504">
        <ele>115.7</ele>
        <time>2023-01-04T14:53:09Z</time>
      </trkpt>
      <trkpt lat="49.96008" lon="2.37504">
        <ele>115.7</ele>
        <time>2023-01-04T14:53:10Z</time>
      </trkpt>
      <trkpt lat="49.96006" lon="2.37504">
        <ele>115.7</ele>
        <time>2023-01-04T14:53:12Z</time>
      </trkpt>
      <trkpt lat="49.96005" lon="2.37503">
        <ele>115.7</ele>
        <time>2023-01-04T14:53:13Z</time>
      </trkpt>
      <trkpt lat="49.96003" lon="2.37501">
        <ele>115.7</ele>
        <time>2023-01-04T14:53:14Z</time>
      </trkpt>
      <trkpt lat="49.96002" lon="2.375">
        <ele>115.6</ele>
        <time>2023-01-04T14:53:16Z</time>
      </trkpt>
      <trkpt lat="49.96002" lon="2.37499">
        <ele>115.6</ele>
        <time>2023-01-04T14:53:17Z</time>
      </trkpt>
      <trkpt lat="49.96001" lon="2.37499">
        <ele>115.6</ele>
        <time>2023-01-04T14:53:18Z</time>
      </trkpt>
      <trkpt lat="49.96" lon="2.37498">
        <ele>115.6</ele>
        <time>2023-01-04T14:53:19Z</time>
      </trkpt>
      <trkpt lat="49.95999" lon="2.37497">
        <ele>115.6</ele>
        <time>2023-01-04T14:53:20Z</time>
      </trkpt>
      <trkpt lat="49.95998" lon="2.37496">
        <ele>115.6</ele>
        <time>2023-01-04T14:53:21Z</time>
      </trkpt>
      <trkpt lat="49.95998" lon="2.37495">
        <ele>115.6</ele>
        <time>2023-01-04T14:53:23Z</time>
      </trkpt>
      <trkpt lat="49.95997" lon="2.37494">
        <ele>115.6</ele>
        <time>2023-01-04T14:53:24Z</time>
      </trkpt>
      <trkpt lat="49.95996" lon="2.37492">
        <ele>115.6</ele>
        <time>2023-01-04T14:53:25Z</time>
      </trkpt>
      <trkpt lat="49.95994" lon="2.37491">
        <ele>115.6</ele>
        <time>2023-01-04T14:53:26Z</time>
      </trkpt>
      <trkpt lat="49.95993" lon="2.3749">
        <ele>115.6</ele>
        <time>2023-01-04T14:53:27Z</time>
      </trkpt>
      <trkpt lat="49.95993" lon="2.37489">
        <ele>115.6</ele>
        <time>2023-01-04T14:53:28Z</time>
      </trkpt>
      <trkpt lat="49.95992" lon="2.37488">
        <ele>115.6</ele>
        <time>2023-01-04T14:53:30Z</time>
      </trkpt>
      <trkpt lat="49.95991" lon="2.37488">
        <ele>115.6</ele>
        <time>2023-01-04T14:53:31Z</time>
      </trkpt>
      <trkpt lat="49.9599" lon="2.37487">
        <ele>115.5</ele>
        <time>2023-01-04T14:53:32Z</time>
      </trkpt>
      <trkpt lat="49.95988" lon="2.37486">
        <ele>115.5</ele>
        <time>2023-01-04T14:53:33Z</time>
      </trkpt>
      <trkpt lat="49.95986" lon="2.37484">
        <ele>115.5</ele>
        <time>2023-01-04T14:53:34Z</time>
      </trkpt>
      <trkpt lat="49.95985" lon="2.37483">
        <ele>115.5</ele>
        <time>2023-01-04T14:53:36Z</time>
      </trkpt>
      <trkpt lat="49.95984" lon="2.37483">
        <ele>115.5</ele>
        <time>2023-01-04T14:53:37Z</time>
      </trkpt>
      <trkpt lat="49.95983" lon="2.37482">
        <ele>115.5</ele>
        <time>2023-01-04T14:53:38Z</time>
      </trkpt>
      <trkpt lat="49.95981" lon="2.37481">
        <ele>115.5</ele>
        <time>2023-01-04T14:53:39Z</time>
      </trkpt>
      <trkpt lat="49.9598" lon="2.37481">
        <ele>115.5</ele>
        <time>2023-01-04T14:53:40Z</time>
      </trkpt>
      <trkpt lat="49.95979" lon="2.37481">
        <ele>115.5</ele>
        <time>2023-01-04T14:53:41Z</time>
      </trkpt>
      <trkpt lat="49.95978" lon="2.37481">
        <ele>115.4</ele>
        <time>2023-01-04T14:53:42Z</time>
      </trkpt>
      <trkpt lat="49.95976" lon="2.3748">
        <ele>115.4</ele>
        <time>2023-01-04T14:53:44Z</time>
      </trkpt>
      <trkpt lat="49.95974" lon="2.37479">
        <ele>115.4</ele>
        <time>2023-01-04T14:53:45Z</time>
      </trkpt>
      <trkpt lat="49.95972" lon="2.37478">
        <ele>115.4</ele>
        <time>2023-01-04T14:53:46Z</time>
      </trkpt>
      <trkpt lat="49.95972" lon="2.37477">
        <ele>115.4</ele>
        <time>2023-01-04T14:53:48Z</time>
      </trkpt>
      <trkpt lat="49.95971" lon="2.37477">
        <ele>115.4</ele>
        <time>2023-01-04T14:53:49Z</time>
      </trkpt>
      <trkpt lat="49.95969" lon="2.37476">
        <ele>115.3</ele>
        <time>2023-01-04T14:53:50Z</time>
      </trkpt>
      <trkpt lat="49.95968" lon="2.37475">
        <ele>115.3</ele>
        <time>2023-01-04T14:53:51Z</time>
      </trkpt>
      <trkpt lat="49.95968" lon="2.37475">
        <ele>115.3</ele>
        <time>2023-01-04T14:53:52Z</time>
      </trkpt>
      <trkpt lat="49.95967" lon="2.37474">
        <ele>115.3</ele>
        <time>2023-01-04T14:53:53Z</time>
      </trkpt>
      <trkpt lat="49.95966" lon="2.37473">
        <ele>115.3</ele>
        <time>2023-01-04T14:53:55Z</time>
      </trkpt>
      <trkpt lat="49.95965" lon="2.37472">
        <ele>115.2</ele>
        <time>2023-01-04T14:53:56Z</time>
      </trkpt>
      <trkpt lat="49.95963" lon="2.3747">
        <ele>115.2</ele>
        <time>2023-01-04T14:53:57Z</time>
      </trkpt>
      <trkpt lat="49.95962" lon="2.37469">
        <ele>115.2</ele>
        <time>2023-01-04T14:53:58Z</time>
      </trkpt>
      <trkpt lat="49.95961" lon="2.37468">
        <ele>115.2</ele>
        <time>2023-01-04T14:53:59Z</time>
      </trkpt>
      <trkpt lat="49.9596" lon="2.37468">
        <ele>115.2</ele>
        <time>2023-01-04T14:54:00Z</time>
      </trkpt>
      <trkpt lat="49.95959" lon="2.37467">
        <ele>115.2</ele>
        <time>2023-01-04T14:54:01Z</time>
      </trkpt>
      <trkpt lat="49.95957" lon="2.37466">
        <ele>115.1</ele>
        <time>2023-01-04T14:54:03Z</time>
      </trkpt>
      <trkpt lat="49.95956" lon="2.37466">
        <ele>115.1</ele>
        <time>2023-01-04T14:54:04Z</time>
      </trkpt>
      <trkpt lat="49.95955" lon="2.37465">
        <ele>115.1</ele>
        <time>2023-01-04T14:54:05Z</time>
      </trkpt>
      <trkpt lat="49.95953" lon="2.37465">
        <ele>115.1</ele>
        <time>2023-01-04T14:54:06Z</time>
      </trkpt>
      <trkpt lat="49.95952" lon="2.37464">
        <ele>115.1</ele>
        <time>2023-01-04T14:54:07Z</time>
      </trkpt>
      <trkpt lat="49.95951" lon="2.37463">
        <ele>115</ele>
        <time>2023-01-04T14:54:09Z</time>
      </trkpt>
      <trkpt lat="49.9595" lon="2.37463">
        <ele>115</ele>
        <time>2023-01-04T14:54:10Z</time>
      </trkpt>
      <trkpt lat="49.95948" lon="2.37462">
        <ele>115</ele>
        <time>2023-01-04T14:54:11Z</time>
      </trkpt>
      <trkpt lat="49.95946" lon="2.37461">
        <ele>115</ele>
        <time>2023-01-04T14:54:12Z</time>
      </trkpt>
      <trkpt lat="49.95946" lon="2.3746">
        <ele>115</ele>
        <time>2023-01-04T14:54:13Z</time>
      </trkpt>
      <trkpt lat="49.95945" lon="2.3746">
        <ele>115</ele>
        <time>2023-01-04T14:54:14Z</time>
      </trkpt>
      <trkpt lat="49.95943" lon="2.37459">
        <ele>115</ele>
        <time>2023-01-04T14:54:16Z</time>
      </trkpt>
      <trkpt lat="49.95942" lon="2.37458">
        <ele>115</ele>
        <time>2023-01-04T14:54:17Z</time>
      </trkpt>
      <trkpt lat="49.95941" lon="2.37458">
        <ele>115</ele>
        <time>2023-01-04T14:54:18Z</time>
      </trkpt>
      <trkpt lat="49.95939" lon="2.37457">
        <ele>115</ele>
        <time>2023-01-04T14:54:19Z</time>
      </trkpt>
      <trkpt lat="49.95938" lon="2.37457">
        <ele>114.9</ele>
        <time>2023-01-04T14:54:20Z</time>
      </trkpt>
      <trkpt lat="49.95937" lon="2.37457">
        <ele>114.9</ele>
        <time>2023-01-04T14:54:21Z</time>
      </trkpt>
      <trkpt lat="49.95935" lon="2.37456">
        <ele>114.9</ele>
        <time>2023-01-04T14:54:22Z</time>
      </trkpt>
      <trkpt lat="49.95935" lon="2.37455">
        <ele>114.9</ele>
        <time>2023-01-04T14:54:24Z</time>
      </trkpt>
      <trkpt lat="49.95934" lon="2.37455">
        <ele>114.9</ele>
        <time>2023-01-04T14:54:25Z</time>
      </trkpt>
      <trkpt lat="49.95932" lon="2.37453">
        <ele>114.9</ele>
        <time>2023-01-04T14:54:26Z</time>
      </trkpt>
      <trkpt lat="49.95931" lon="2.37452">
        <ele>114.9</ele>
        <time>2023-01-04T14:54:27Z</time>
      </trkpt>
      <trkpt lat="49.9593" lon="2.37452">
        <ele>114.9</ele>
        <time>2023-01-04T14:54:28Z</time>
      </trkpt>
      <trkpt lat="49.95929" lon="2.37451">
        <ele>114.9</ele>
        <time>2023-01-04T14:54:29Z</time>
      </trkpt>
      <trkpt lat="49.95929" lon="2.37451">
        <ele>114.9</ele>
        <time>2023-01-04T14:54:30Z</time>
      </trkpt>
      <trkpt lat="49.95927" lon="2.3745">
        <ele>114.8</ele>
        <time>2023-01-04T14:54:32Z</time>
      </trkpt>
      <trkpt lat="49.95926" lon="2.37449">
        <ele>114.8</ele>
        <time>2023-01-04T14:54:33Z</time>
      </trkpt>
      <trkpt lat="49.95925" lon="2.37449">
        <ele>114.8</ele>
        <time>2023-01-04T14:54:34Z</time>
      </trkpt>
      <trkpt lat="49.95924" lon="2.37448">
        <ele>114.8</ele>
        <time>2023-01-04T14:54:35Z</time>
      </trkpt>
      <trkpt lat="49.95923" lon="2.37448">
        <ele>114.8</ele>
        <time>2023-01-04T14:54:36Z</time>
      </trkpt>
      <trkpt lat="49.95922" lon="2.37447">
        <ele>114.8</ele>
        <time>2023-01-04T14:54:37Z</time>
      </trkpt>
      <trkpt lat="49.95921" lon="2.37447">
        <ele>114.8</ele>
        <time>2023-01-04T14:54:38Z</time>
      </trkpt>
      <trkpt lat="49.95919" lon="2.37445">
        <ele>114.7</ele>
        <time>2023-01-04T14:54:40Z</time>
      </trkpt>
      <trkpt lat="49.95918" lon="2.37445">
        <ele>114.7</ele>
        <time>2023-01-04T14:54:41Z</time>
      </trkpt>
      <trkpt lat="49.95918" lon="2.37444">
        <ele>114.7</ele>
        <time>2023-01-04T14:54:42Z</time>
      </trkpt>
      <trkpt lat="49.95916" lon="2.37443">
        <ele>114.7</ele>
        <time>2023-01-04T14:54:43Z</time>
      </trkpt>
      <trkpt lat="49.95915" lon="2.37442">
        <ele>114.7</ele>
        <time>2023-01-04T14:54:44Z</time>
      </trkpt>
      <trkpt lat="49.95914" lon="2.37441">
        <ele>114.7</ele>
        <time>2023-01-04T14:54:45Z</time>
      </trkpt>
      <trkpt lat="49.95914" lon="2.3744">
        <ele>114.7</ele>
        <time>2023-01-04T14:54:46Z</time>
      </trkpt>
      <trkpt lat="49.95912" lon="2.3744">
        <ele>114.7</ele>
        <time>2023-01-04T14:54:48Z</time>
      </trkpt>
      <trkpt lat="49.95911" lon="2.37439">
        <ele>114.7</ele>
        <time>2023-01-04T14:54:49Z</time>
      </trkpt>
      <trkpt lat="49.95909" lon="2.37438">
        <ele>114.6</ele>
        <time>2023-01-04T14:54:50Z</time>
      </trkpt>
      <trkpt lat="49.95909" lon="2.37437">
        <ele>114.6</ele>
        <time>2023-01-04T14:54:51Z</time>
      </trkpt>
      <trkpt lat="49.95908" lon="2.37436">
        <ele>114.6</ele>
        <time>2023-01-04T14:54:52Z</time>
      </trkpt>
      <trkpt lat="49.95907" lon="2.37435">
        <ele>114.6</ele>
        <time>2023-01-04T14:54:53Z</time>
      </trkpt>
      <trkpt lat="49.95906" lon="2.37434">
        <ele>114.6</ele>
        <time>2023-01-04T14:54:54Z</time>
      </trkpt>
      <trkpt lat="49.95905" lon="2.37433">
        <ele>114.6</ele>
        <time>2023-01-04T14:54:56Z</time>
      </trkpt>
      <trkpt lat="49.95904" lon="2.37433">
        <ele>114.6</ele>
        <time>2023-01-04T14:54:57Z</time>
      </trkpt>
      <trkpt lat="49.95902" lon="2.37432">
        <ele>114.6</ele>
        <time>2023-01-04T14:54:58Z</time>
      </trkpt>
      <trkpt lat="49.95901" lon="2.37431">
        <ele>114.6</ele>
        <time>2023-01-04T14:54:59Z</time>
      </trkpt>
      <trkpt lat="49.959" lon="2.3743">
        <ele>114.5</ele>
        <time>2023-01-04T14:55:00Z</time>
      </trkpt>
      <trkpt lat="49.95899" lon="2.3743">
        <ele>114.5</ele>
        <time>2023-01-04T14:55:01Z</time>
      </trkpt>
      <trkpt lat="49.95897" lon="2.37429">
        <ele>114.5</ele>
        <time>2023-01-04T14:55:02Z</time>
      </trkpt>
      <trkpt lat="49.95896" lon="2.37429">
        <ele>114.5</ele>
        <time>2023-01-04T14:55:04Z</time>
      </trkpt>
      <trkpt lat="49.95894" lon="2.37427">
        <ele>114.5</ele>
        <time>2023-01-04T14:55:05Z</time>
      </trkpt>
      <trkpt lat="49.95893" lon="2.37427">
        <ele>114.5</ele>
        <time>2023-01-04T14:55:06Z</time>
      </trkpt>
      <trkpt lat="49.95893" lon="2.37426">
        <ele>114.5</ele>
        <time>2023-01-04T14:55:07Z</time>
      </trkpt>
      <trkpt lat="49.95891" lon="2.37425">
        <ele>114.5</ele>
        <time>2023-01-04T14:55:08Z</time>
      </trkpt>
      <trkpt lat="49.9589" lon="2.37424">
        <ele>114.5</ele>
        <time>2023-01-04T14:55:09Z</time>
      </trkpt>
      <trkpt lat="49.95889" lon="2.37423">
        <ele>114.5</ele>
        <time>2023-01-04T14:55:11Z</time>
      </trkpt>
      <trkpt lat="49.95888" lon="2.37423">
        <ele>114.4</ele>
        <time>2023-01-04T14:55:12Z</time>
      </trkpt>
      <trkpt lat="49.95887" lon="2.37422">
        <ele>114.4</ele>
        <time>2023-01-04T14:55:13Z</time>
      </trkpt>
      <trkpt lat="49.95886" lon="2.37421">
        <ele>114.4</ele>
        <time>2023-01-04T14:55:14Z</time>
      </trkpt>
      <trkpt lat="49.95884" lon="2.37419">
        <ele>114.4</ele>
        <time>2023-01-04T14:55:15Z</time>
      </trkpt>
      <trkpt lat="49.95884" lon="2.37418">
        <ele>114.4</ele>
        <time>2023-01-04T14:55:16Z</time>
      </trkpt>
      <trkpt lat="49.95883" lon="2.37418">
        <ele>114.4</ele>
        <time>2023-01-04T14:55:17Z</time>
      </trkpt>
      <trkpt lat="49.95881" lon="2.37416">
        <ele>114.3</ele>
        <time>2023-01-04T14:55:19Z</time>
      </trkpt>
      <trkpt lat="49.95881" lon="2.37415">
        <ele>114.3</ele>
        <time>2023-01-04T14:55:20Z</time>
      </trkpt>
      <trkpt lat="49.9588" lon="2.37414">
        <ele>114.3</ele>
        <time>2023-01-04T14:55:21Z</time>
      </trkpt>
      <trkpt lat="49.95878" lon="2.37413">
        <ele>114.3</ele>
        <time>2023-01-04T14:55:22Z</time>
      </trkpt>
      <trkpt lat="49.95877" lon="2.37412">
        <ele>114.3</ele>
        <time>2023-01-04T14:55:23Z</time>
      </trkpt>
      <trkpt lat="49.95876" lon="2.37412">
        <ele>114.3</ele>
        <time>2023-01-04T14:55:24Z</time>
      </trkpt>
      <trkpt lat="49.95874" lon="2.3741">
        <ele>114.2</ele>
        <time>2023-01-04T14:55:26Z</time>
      </trkpt>
      <trkpt lat="49.95874" lon="2.3741">
        <ele>114.2</ele>
        <time>2023-01-04T14:55:27Z</time>
      </trkpt>
      <trkpt lat="49.95873" lon="2.37409">
        <ele>114.2</ele>
        <time>2023-01-04T14:55:28Z</time>
      </trkpt>
      <trkpt lat="49.95871" lon="2.37408">
        <ele>114.2</ele>
        <time>2023-01-04T14:55:29Z</time>
      </trkpt>
      <trkpt lat="49.9587" lon="2.37407">
        <ele>114.2</ele>
        <time>2023-01-04T14:55:30Z</time>
      </trkpt>
      <trkpt lat="49.9587" lon="2.37407">
        <ele>114.2</ele>
        <time>2023-01-04T14:55:31Z</time>
      </trkpt>
      <trkpt lat="49.95868" lon="2.37405">
        <ele>114.2</ele>
        <time>2023-01-04T14:55:32Z</time>
      </trkpt>
      <trkpt lat="49.95867" lon="2.37405">
        <ele>114.2</ele>
        <time>2023-01-04T14:55:34Z</time>
      </trkpt>
      <trkpt lat="49.95866" lon="2.37404">
        <ele>114.2</ele>
        <time>2023-01-04T14:55:35Z</time>
      </trkpt>
      <trkpt lat="49.95865" lon="2.37404">
        <ele>114.2</ele>
        <time>2023-01-04T14:55:36Z</time>
      </trkpt>
      <trkpt lat="49.95864" lon="2.37403">
        <ele>114.2</ele>
        <time>2023-01-04T14:55:37Z</time>
      </trkpt>
      <trkpt lat="49.95863" lon="2.37403">
        <ele>114.1</ele>
        <time>2023-01-04T14:55:38Z</time>
      </trkpt>
      <trkpt lat="49.95861" lon="2.37401">
        <ele>114.1</ele>
        <time>2023-01-04T14:55:39Z</time>
      </trkpt>
      <trkpt lat="49.9586" lon="2.37401">
        <ele>114.1</ele>
        <time>2023-01-04T14:55:41Z</time>
      </trkpt>
      <trkpt lat="49.9586" lon="2.374">
        <ele>114.1</ele>
        <time>2023-01-04T14:55:42Z</time>
      </trkpt>
      <trkpt lat="49.95858" lon="2.37399">
        <ele>114.1</ele>
        <time>2023-01-04T14:55:43Z</time>
      </trkpt>
      <trkpt lat="49.95857" lon="2.37398">
        <ele>114.1</ele>
        <time>2023-01-04T14:55:44Z</time>
      </trkpt>
      <trkpt lat="49.95856" lon="2.37398">
        <ele>114.1</ele>
        <time>2023-01-04T14:55:45Z</time>
      </trkpt>
      <trkpt lat="49.95855" lon="2.37397">
        <ele>114.1</ele>
        <time>2023-01-04T14:55:46Z</time>
      </trkpt>
      <trkpt lat="49.95854" lon="2.37396">
        <ele>114.1</ele>
        <time>2023-01-04T14:55:47Z</time>
      </trkpt>
      <trkpt lat="49.95853" lon="2.37395">
        <ele>114.1</ele>
        <time>2023-01-04T14:55:49Z</time>
      </trkpt>
      <trkpt lat="49.95852" lon="2.37394">
        <ele>114.1</ele>
        <time>2023-01-04T14:55:50Z</time>
      </trkpt>
      <trkpt lat="49.9585" lon="2.37394">
        <ele>114.1</ele>
        <time>2023-01-04T14:55:51Z</time>
      </trkpt>
      <trkpt lat="49.95849" lon="2.37394">
        <ele>114.1</ele>
        <time>2023-01-04T14:55:52Z</time>
      </trkpt>
      <trkpt lat="49.95848" lon="2.37394">
        <ele>114.1</ele>
        <time>2023-01-04T14:55:53Z</time>
      </trkpt>
      <trkpt lat="49.95847" lon="2.37393">
        <ele>114.1</ele>
        <time>2023-01-04T14:55:54Z</time>
      </trkpt>
      <trkpt lat="49.95846" lon="2.37392">
        <ele>114.1</ele>
        <time>2023-01-04T14:55:55Z</time>
      </trkpt>
      <trkpt lat="49.95844" lon="2.37391">
        <ele>114.1</ele>
        <time>2023-01-04T14:55:56Z</time>
      </trkpt>
      <trkpt lat="49.95843" lon="2.37391">
        <ele>114</ele>
        <time>2023-01-04T14:55:58Z</time>
      </trkpt>
      <trkpt lat="49.95843" lon="2.3739">
        <ele>114</ele>
        <time>2023-01-04T14:55:59Z</time>
      </trkpt>
      <trkpt lat="49.95841" lon="2.37388">
        <ele>114</ele>
        <time>2023-01-04T14:56:00Z</time>
      </trkpt>
      <trkpt lat="49.9584" lon="2.37387">
        <ele>114</ele>
        <time>2023-01-04T14:56:01Z</time>
      </trkpt>
      <trkpt lat="49.95839" lon="2.37386">
        <ele>114</ele>
        <time>2023-01-04T14:56:02Z</time>
      </trkpt>
      <trkpt lat="49.95838" lon="2.37386">
        <ele>114</ele>
        <time>2023-01-04T14:56:03Z</time>
      </trkpt>
      <trkpt lat="49.95837" lon="2.37385">
        <ele>114</ele>
        <time>2023-01-04T14:56:04Z</time>
      </trkpt>
      <trkpt lat="49.95836" lon="2.37384">
        <ele>114</ele>
        <time>2023-01-04T14:56:06Z</time>
      </trkpt>
      <trkpt lat="49.95835" lon="2.37384">
        <ele>114</ele>
        <time>2023-01-04T14:56:07Z</time>
      </trkpt>
      <trkpt lat="49.95834" lon="2.37383">
        <ele>114</ele>
        <time>2023-01-04T14:56:08Z</time>
      </trkpt>
      <trkpt lat="49.95833" lon="2.37382">
        <ele>114</ele>
        <time>2023-01-04T14:56:09Z</time>
      </trkpt>
      <trkpt lat="49.95832" lon="2.37382">
        <ele>113.9</ele>
        <time>2023-01-04T14:56:10Z</time>
      </trkpt>
      <trkpt lat="49.9583" lon="2.37381">
        <ele>113.9</ele>
        <time>2023-01-04T14:56:11Z</time>
      </trkpt>
      <trkpt lat="49.95829" lon="2.3738">
        <ele>113.9</ele>
        <time>2023-01-04T14:56:12Z</time>
      </trkpt>
      <trkpt lat="49.95828" lon="2.3738">
        <ele>113.9</ele>
        <time>2023-01-04T14:56:14Z</time>
      </trkpt>
      <trkpt lat="49.95827" lon="2.37379">
        <ele>113.9</ele>
        <time>2023-01-04T14:56:15Z</time>
      </trkpt>
      <trkpt lat="49.95826" lon="2.37379">
        <ele>113.9</ele>
        <time>2023-01-04T14:56:16Z</time>
      </trkpt>
      <trkpt lat="49.95825" lon="2.37379">
        <ele>113.9</ele>
        <time>2023-01-04T14:56:17Z</time>
      </trkpt>
      <trkpt lat="49.95824" lon="2.37378">
        <ele>113.9</ele>
        <time>2023-01-04T14:56:18Z</time>
      </trkpt>
      <trkpt lat="49.95822" lon="2.37378">
        <ele>113.9</ele>
        <time>2023-01-04T14:56:19Z</time>
      </trkpt>
      <trkpt lat="49.95822" lon="2.37377">
        <ele>113.9</ele>
        <time>2023-01-04T14:56:21Z</time>
      </trkpt>
      <trkpt lat="49.95821" lon="2.37376">
        <ele>113.9</ele>
        <time>2023-01-04T14:56:22Z</time>
      </trkpt>
      <trkpt lat="49.9582" lon="2.37375">
        <ele>113.8</ele>
        <time>2023-01-04T14:56:23Z</time>
      </trkpt>
      <trkpt lat="49.95819" lon="2.37374">
        <ele>113.8</ele>
        <time>2023-01-04T14:56:24Z</time>
      </trkpt>
      <trkpt lat="49.95819" lon="2.37372">
        <ele>113.8</ele>
        <time>2023-01-04T14:56:25Z</time>
      </trkpt>
      <trkpt lat="49.95818" lon="2.3737">
        <ele>113.8</ele>
        <time>2023-01-04T14:56:26Z</time>
      </trkpt>
      <trkpt lat="49.95817" lon="2.37369">
        <ele>113.8</ele>
        <time>2023-01-04T14:56:28Z</time>
      </trkpt>
      <trkpt lat="49.95816" lon="2.37367">
        <ele>113.8</ele>
        <time>2023-01-04T14:56:29Z</time>
      </trkpt>
      <trkpt lat="49.95815" lon="2.37366">
        <ele>113.8</ele>
        <time>2023-01-04T14:56:30Z</time>
      </trkpt>
      <trkpt lat="49.95814" lon="2.37365">
        <ele>113.8</ele>
        <time>2023-01-04T14:56:31Z</time>
      </trkpt>
      <trkpt lat="49.95813" lon="2.37363">
        <ele>113.8</ele>
        <time>2023-01-04T14:56:32Z</time>
      </trkpt>
      <trkpt lat="49.95812" lon="2.37362">
        <ele>113.7</ele>
        <time>2023-01-04T14:56:33Z</time>
      </trkpt>
      <trkpt lat="49.95811" lon="2.37362">
        <ele>113.7</ele>
        <time>2023-01-04T14:56:34Z</time>
      </trkpt>
      <trkpt lat="49.95809" lon="2.3736">
        <ele>113.7</ele>
        <time>2023-01-04T14:56:35Z</time>
      </trkpt>
      <trkpt lat="49.95809" lon="2.37359">
        <ele>113.7</ele>
        <time>2023-01-04T14:56:37Z</time>
      </trkpt>
      <trkpt lat="49.95808" lon="2.37358">
        <ele>113.7</ele>
        <time>2023-01-04T14:56:38Z</time>
      </trkpt>
      <trkpt lat="49.95806" lon="2.37356">
        <ele>113.6</ele>
        <time>2023-01-04T14:56:39Z</time>
      </trkpt>
      <trkpt lat="49.95805" lon="2.37356">
        <ele>113.6</ele>
        <time>2023-01-04T14:56:40Z</time>
      </trkpt>
      <trkpt lat="49.95805" lon="2.37355">
        <ele>113.6</ele>
        <time>2023-01-04T14:56:41Z</time>
      </trkpt>
      <trkpt lat="49.95804" lon="2.37354">
        <ele>113.6</ele>
        <time>2023-01-04T14:56:42Z</time>
      </trkpt>
      <trkpt lat="49.95803" lon="2.37353">
        <ele>113.6</ele>
        <time>2023-01-04T14:56:44Z</time>
      </trkpt>
      <trkpt lat="49.95802" lon="2.37352">
        <ele>113.6</ele>
        <time>2023-01-04T14:56:45Z</time>
      </trkpt>
      <trkpt lat="49.95801" lon="2.37351">
        <ele>113.5</ele>
        <time>2023-01-04T14:56:46Z</time>
      </trkpt>
      <trkpt lat="49.958" lon="2.37351">
        <ele>113.5</ele>
        <time>2023-01-04T14:56:47Z</time>
      </trkpt>
      <trkpt lat="49.95799" lon="2.3735">
        <ele>113.5</ele>
        <time>2023-01-04T14:56:48Z</time>
      </trkpt>
      <trkpt lat="49.95798" lon="2.3735">
        <ele>113.5</ele>
        <time>2023-01-04T14:56:49Z</time>
      </trkpt>
      <trkpt lat="49.95797" lon="2.37349">
        <ele>113.4</ele>
        <time>2023-01-04T14:56:51Z</time>
      </trkpt>
      <trkpt lat="49.95796" lon="2.37348">
        <ele>113.4</ele>
        <time>2023-01-04T14:56:52Z</time>
      </trkpt>
      <trkpt lat="49.95794" lon="2.37346">
        <ele>113.4</ele>
        <time>2023-01-04T14:56:53Z</time>
      </trkpt>
      <trkpt lat="49.95793" lon="2.37345">
        <ele>113.4</ele>
        <time>2023-01-04T14:56:54Z</time>
      </trkpt>
      <trkpt lat="49.95793" lon="2.37344">
        <ele>113.3</ele>
        <time>2023-01-04T14:56:55Z</time>
      </trkpt>
      <trkpt lat="49.95792" lon="2.37344">
        <ele>113.3</ele>
        <time>2023-01-04T14:56:56Z</time>
      </trkpt>
      <trkpt lat="49.95791" lon="2.37343">
        <ele>113.3</ele>
        <time>2023-01-04T14:56:58Z</time>
      </trkpt>
      <trkpt lat="49.9579" lon="2.37342">
        <ele>113.3</ele>
        <time>2023-01-04T14:56:59Z</time>
      </trkpt>
      <trkpt lat="49.95788" lon="2.3734">
        <ele>113.2</ele>
        <time>2023-01-04T14:57:00Z</time>
      </trkpt>
      <trkpt lat="49.95788" lon="2.37339">
        <ele>113.2</ele>
        <time>2023-01-04T14:57:01Z</time>
      </trkpt>
      <trkpt lat="49.95787" lon="2.37338">
        <ele>113.2</ele>
        <time>2023-01-04T14:57:02Z</time>
      </trkpt>
      <trkpt lat="49.95785" lon="2.37336">
        <ele>113.2</ele>
        <time>2023-01-04T14:57:03Z</time>
      </trkpt>
      <trkpt lat="49.95785" lon="2.37335">
        <ele>113.2</ele>
        <time>2023-01-04T14:57:05Z</time>
      </trkpt>
      <trkpt lat="49.95784" lon="2.37335">
        <ele>113.1</ele>
        <time>2023-01-04T14:57:06Z</time>
      </trkpt>
      <trkpt lat="49.95783" lon="2.37334">
        <ele>113.1</ele>
        <time>2023-01-04T14:57:07Z</time>
      </trkpt>
      <trkpt lat="49.95782" lon="2.37333">
        <ele>113.1</ele>
        <time>2023-01-04T14:57:08Z</time>
      </trkpt>
      <trkpt lat="49.95782" lon="2.37332">
        <ele>113.1</ele>
        <time>2023-01-04T14:57:09Z</time>
      </trkpt>
      <trkpt lat="49.95781" lon="2.3733">
        <ele>113.1</ele>
        <time>2023-01-04T14:57:10Z</time>
      </trkpt>
      <trkpt lat="49.9578" lon="2.37329">
        <ele>113.1</ele>
        <time>2023-01-04T14:57:11Z</time>
      </trkpt>
      <trkpt lat="49.95779" lon="2.37328">
        <ele>113.1</ele>
        <time>2023-01-04T14:57:13Z</time>
      </trkpt>
      <trkpt lat="49.95778" lon="2.37326">
        <ele>113.1</ele>
        <time>2023-01-04T14:57:14Z</time>
      </trkpt>
      <trkpt lat="49.95778" lon="2.37325">
        <ele>113</ele>
        <time>2023-01-04T14:57:15Z</time>
      </trkpt>
      <trkpt lat="49.95777" lon="2.37323">
        <ele>113</ele>
        <time>2023-01-04T14:57:16Z</time>
      </trkpt>
      <trkpt lat="49.95776" lon="2.37321">
        <ele>113</ele>
        <time>2023-01-04T14:57:17Z</time>
      </trkpt>
      <trkpt lat="49.95775" lon="2.3732">
        <ele>113</ele>
        <time>2023-01-04T14:57:19Z</time>
      </trkpt>
      <trkpt lat="49.95774" lon="2.37319">
        <ele>113</ele>
        <time>2023-01-04T14:57:20Z</time>
      </trkpt>
      <trkpt lat="49.95773" lon="2.37318">
        <ele>113</ele>
        <time>2023-01-04T14:57:21Z</time>
      </trkpt>
      <trkpt lat="49.95773" lon="2.37317">
        <ele>113</ele>
        <time>2023-01-04T14:57:22Z</time>
      </trkpt>
      <trkpt lat="49.95771" lon="2.37315">
        <ele>113</ele>
        <time>2023-01-04T14:57:23Z</time>
      </trkpt>
      <trkpt lat="49.9577" lon="2.37314">
        <ele>113</ele>
        <time>2023-01-04T14:57:24Z</time>
      </trkpt>
      <trkpt lat="49.95769" lon="2.37312">
        <ele>112.9</ele>
        <time>2023-01-04T14:57:26Z</time>
      </trkpt>
      <trkpt lat="49.95768" lon="2.37311">
        <ele>112.9</ele>
        <time>2023-01-04T14:57:27Z</time>
      </trkpt>
      <trkpt lat="49.95767" lon="2.37308">
        <ele>112.9</ele>
        <time>2023-01-04T14:57:28Z</time>
      </trkpt>
      <trkpt lat="49.95766" lon="2.37308">
        <ele>112.9</ele>
        <time>2023-01-04T14:57:29Z</time>
      </trkpt>
      <trkpt lat="49.95766" lon="2.37307">
        <ele>112.9</ele>
        <time>2023-01-04T14:57:30Z</time>
      </trkpt>
      <trkpt lat="49.95765" lon="2.37306">
        <ele>112.9</ele>
        <time>2023-01-04T14:57:31Z</time>
      </trkpt>
      <trkpt lat="49.95763" lon="2.37304">
        <ele>112.8</ele>
        <time>2023-01-04T14:57:32Z</time>
      </trkpt>
      <trkpt lat="49.95763" lon="2.37303">
        <ele>112.8</ele>
        <time>2023-01-04T14:57:33Z</time>
      </trkpt>
      <trkpt lat="49.95762" lon="2.37301">
        <ele>112.8</ele>
        <time>2023-01-04T14:57:35Z</time>
      </trkpt>
      <trkpt lat="49.95761" lon="2.373">
        <ele>112.8</ele>
        <time>2023-01-04T14:57:36Z</time>
      </trkpt>
      <trkpt lat="49.9576" lon="2.37297">
        <ele>112.7</ele>
        <time>2023-01-04T14:57:37Z</time>
      </trkpt>
      <trkpt lat="49.9576" lon="2.37296">
        <ele>112.7</ele>
        <time>2023-01-04T14:57:38Z</time>
      </trkpt>
      <trkpt lat="49.95759" lon="2.37295">
        <ele>112.7</ele>
        <time>2023-01-04T14:57:39Z</time>
      </trkpt>
      <trkpt lat="49.95758" lon="2.37294">
        <ele>112.7</ele>
        <time>2023-01-04T14:57:40Z</time>
      </trkpt>
      <trkpt lat="49.95758" lon="2.37292">
        <ele>112.7</ele>
        <time>2023-01-04T14:57:41Z</time>
      </trkpt>
      <trkpt lat="49.95757" lon="2.3729">
        <ele>112.7</ele>
        <time>2023-01-04T14:57:43Z</time>
      </trkpt>
      <trkpt lat="49.95756" lon="2.37289">
        <ele>112.6</ele>
        <time>2023-01-04T14:57:44Z</time>
      </trkpt>
      <trkpt lat="49.95755" lon="2.37288">
        <ele>112.6</ele>
        <time>2023-01-04T14:57:45Z</time>
      </trkpt>
      <trkpt lat="49.95754" lon="2.37286">
        <ele>112.6</ele>
        <time>2023-01-04T14:57:46Z</time>
      </trkpt>
      <trkpt lat="49.95754" lon="2.37285">
        <ele>112.6</ele>
        <time>2023-01-04T14:57:47Z</time>
      </trkpt>
      <trkpt lat="49.95752" lon="2.37283">
        <ele>112.5</ele>
        <time>2023-01-04T14:57:48Z</time>
      </trkpt>
      <trkpt lat="49.95751" lon="2.37281">
        <ele>112.5</ele>
        <time>2023-01-04T14:57:49Z</time>
      </trkpt>
      <trkpt lat="49.9575" lon="2.3728">
        <ele>112.4</ele>
        <time>2023-01-04T14:57:50Z</time>
      </trkpt>
      <trkpt lat="49.9575" lon="2.37279">
        <ele>112.4</ele>
        <time>2023-01-04T14:57:52Z</time>
      </trkpt>
      <trkpt lat="49.95749" lon="2.37277">
        <ele>112.4</ele>
        <time>2023-01-04T14:57:53Z</time>
      </trkpt>
      <trkpt lat="49.95748" lon="2.37276">
        <ele>112.4</ele>
        <time>2023-01-04T14:57:54Z</time>
      </trkpt>
      <trkpt lat="49.95747" lon="2.37275">
        <ele>112.4</ele>
        <time>2023-01-04T14:57:55Z</time>
      </trkpt>
      <trkpt lat="49.95746" lon="2.37274">
        <ele>112.3</ele>
        <time>2023-01-04T14:57:56Z</time>
      </trkpt>
      <trkpt lat="49.95745" lon="2.37273">
        <ele>112.3</ele>
        <time>2023-01-04T14:57:57Z</time>
      </trkpt>
      <trkpt lat="49.95744" lon="2.37272">
        <ele>112.3</ele>
        <time>2023-01-04T14:57:59Z</time>
      </trkpt>
      <trkpt lat="49.95744" lon="2.37271">
        <ele>112.3</ele>
        <time>2023-01-04T14:58:00Z</time>
      </trkpt>
      <trkpt lat="49.95743" lon="2.37269">
        <ele>112.2</ele>
        <time>2023-01-04T14:58:01Z</time>
      </trkpt>
      <trkpt lat="49.95742" lon="2.37268">
        <ele>112.2</ele>
        <time>2023-01-04T14:58:02Z</time>
      </trkpt>
      <trkpt lat="49.9574" lon="2.37267">
        <ele>112.2</ele>
        <time>2023-01-04T14:58:03Z</time>
      </trkpt>
      <trkpt lat="49.95739" lon="2.37266">
        <ele>112.2</ele>
        <time>2023-01-04T14:58:04Z</time>
      </trkpt>
      <trkpt lat="49.95739" lon="2.37265">
        <ele>112.1</ele>
        <time>2023-01-04T14:58:06Z</time>
      </trkpt>
      <trkpt lat="49.95738" lon="2.37264">
        <ele>112.1</ele>
        <time>2023-01-04T14:58:07Z</time>
      </trkpt>
      <trkpt lat="49.95736" lon="2.37263">
        <ele>112.1</ele>
        <time>2023-01-04T14:58:08Z</time>
      </trkpt>
      <trkpt lat="49.95736" lon="2.37262">
        <ele>112.1</ele>
        <time>2023-01-04T14:58:09Z</time>
      </trkpt>
      <trkpt lat="49.95735" lon="2.3726">
        <ele>112.1</ele>
        <time>2023-01-04T14:58:10Z</time>
      </trkpt>
      <trkpt lat="49.95734" lon="2.37259">
        <ele>112</ele>
        <time>2023-01-04T14:58:12Z</time>
      </trkpt>
      <trkpt lat="49.95733" lon="2.37257">
        <ele>112</ele>
        <time>2023-01-04T14:58:13Z</time>
      </trkpt>
      <trkpt lat="49.95732" lon="2.37256">
        <ele>112</ele>
        <time>2023-01-04T14:58:14Z</time>
      </trkpt>
      <trkpt lat="49.95731" lon="2.37255">
        <ele>112</ele>
        <time>2023-01-04T14:58:15Z</time>
      </trkpt>
      <trkpt lat="49.95731" lon="2.37254">
        <ele>112</ele>
        <time>2023-01-04T14:58:16Z</time>
      </trkpt>
      <trkpt lat="49.9573" lon="2.37253">
        <ele>112</ele>
        <time>2023-01-04T14:58:17Z</time>
      </trkpt>
      <trkpt lat="49.95729" lon="2.37251">
        <ele>112</ele>
        <time>2023-01-04T14:58:18Z</time>
      </trkpt>
      <trkpt lat="49.95728" lon="2.3725">
        <ele>112</ele>
        <time>2023-01-04T14:58:20Z</time>
      </trkpt>
      <trkpt lat="49.95728" lon="2.37249">
        <ele>111.9</ele>
        <time>2023-01-04T14:58:21Z</time>
      </trkpt>
      <trkpt lat="49.95727" lon="2.37248">
        <ele>111.9</ele>
        <time>2023-01-04T14:58:22Z</time>
      </trkpt>
      <trkpt lat="49.95726" lon="2.37246">
        <ele>111.9</ele>
        <time>2023-01-04T14:58:23Z</time>
      </trkpt>
      <trkpt lat="49.95725" lon="2.37245">
        <ele>111.9</ele>
        <time>2023-01-04T14:58:24Z</time>
      </trkpt>
      <trkpt lat="49.95724" lon="2.37244">
        <ele>111.9</ele>
        <time>2023-01-04T14:58:25Z</time>
      </trkpt>
      <trkpt lat="49.95723" lon="2.37243">
        <ele>111.9</ele>
        <time>2023-01-04T14:58:26Z</time>
      </trkpt>
      <trkpt lat="49.95722" lon="2.37241">
        <ele>111.9</ele>
        <time>2023-01-04T14:58:28Z</time>
      </trkpt>
      <trkpt lat="49.95722" lon="2.3724">
        <ele>111.9</ele>
        <time>2023-01-04T14:58:29Z</time>
      </trkpt>
      <trkpt lat="49.95721" lon="2.37238">
        <ele>111.9</ele>
        <time>2023-01-04T14:58:30Z</time>
      </trkpt>
      <trkpt lat="49.95721" lon="2.37237">
        <ele>111.9</ele>
        <time>2023-01-04T14:58:31Z</time>
      </trkpt>
      <trkpt lat="49.9572" lon="2.37236">
        <ele>111.9</ele>
        <time>2023-01-04T14:58:32Z</time>
      </trkpt>
      <trkpt lat="49.95719" lon="2.37234">
        <ele>111.9</ele>
        <time>2023-01-04T14:58:33Z</time>
      </trkpt>
      <trkpt lat="49.95718" lon="2.37233">
        <ele>111.8</ele>
        <time>2023-01-04T14:58:35Z</time>
      </trkpt>
      <trkpt lat="49.95717" lon="2.37232">
        <ele>111.8</ele>
        <time>2023-01-04T14:58:36Z</time>
      </trkpt>
      <trkpt lat="49.95716" lon="2.37231">
        <ele>111.8</ele>
        <time>2023-01-04T14:58:37Z</time>
      </trkpt>
      <trkpt lat="49.95715" lon="2.37229">
        <ele>111.8</ele>
        <time>2023-01-04T14:58:38Z</time>
      </trkpt>
      <trkpt lat="49.95715" lon="2.37228">
        <ele>111.8</ele>
        <time>2023-01-04T14:58:39Z</time>
      </trkpt>
      <trkpt lat="49.95714" lon="2.37227">
        <ele>111.8</ele>
        <time>2023-01-04T14:58:40Z</time>
      </trkpt>
      <trkpt lat="49.95713" lon="2.37226">
        <ele>111.8</ele>
        <time>2023-01-04T14:58:41Z</time>
      </trkpt>
      <trkpt lat="49.95713" lon="2.37225">
        <ele>111.7</ele>
        <time>2023-01-04T14:58:43Z</time>
      </trkpt>
      <trkpt lat="49.95711" lon="2.37223">
        <ele>111.7</ele>
        <time>2023-01-04T14:58:44Z</time>
      </trkpt>
      <trkpt lat="49.95711" lon="2.37221">
        <ele>111.7</ele>
        <time>2023-01-04T14:58:45Z</time>
      </trkpt>
      <trkpt lat="49.95709" lon="2.37219">
        <ele>111.7</ele>
        <time>2023-01-04T14:58:46Z</time>
      </trkpt>
      <trkpt lat="49.95709" lon="2.37218">
        <ele>111.6</ele>
        <time>2023-01-04T14:58:47Z</time>
      </trkpt>
      <trkpt lat="49.95708" lon="2.37217">
        <ele>111.6</ele>
        <time>2023-01-04T14:58:48Z</time>
      </trkpt>
      <trkpt lat="49.95707" lon="2.37215">
        <ele>111.6</ele>
        <time>2023-01-04T14:58:50Z</time>
      </trkpt>
      <trkpt lat="49.95706" lon="2.37214">
        <ele>111.6</ele>
        <time>2023-01-04T14:58:51Z</time>
      </trkpt>
      <trkpt lat="49.95705" lon="2.37213">
        <ele>111.5</ele>
        <time>2023-01-04T14:58:52Z</time>
      </trkpt>
      <trkpt lat="49.95704" lon="2.3721">
        <ele>111.5</ele>
        <time>2023-01-04T14:58:53Z</time>
      </trkpt>
      <trkpt lat="49.95703" lon="2.37209">
        <ele>111.5</ele>
        <time>2023-01-04T14:58:54Z</time>
      </trkpt>
      <trkpt lat="49.95703" lon="2.37209">
        <ele>111.4</ele>
        <time>2023-01-04T14:58:55Z</time>
      </trkpt>
      <trkpt lat="49.95702" lon="2.37207">
        <ele>111.4</ele>
        <time>2023-01-04T14:58:57Z</time>
      </trkpt>
      <trkpt lat="49.95701" lon="2.37205">
        <ele>111.4</ele>
        <time>2023-01-04T14:58:58Z</time>
      </trkpt>
      <trkpt lat="49.957" lon="2.37204">
        <ele>111.3</ele>
        <time>2023-01-04T14:58:59Z</time>
      </trkpt>
      <trkpt lat="49.95699" lon="2.37203">
        <ele>111.3</ele>
        <time>2023-01-04T14:59:00Z</time>
      </trkpt>
      <trkpt lat="49.95698" lon="2.37201">
        <ele>111.3</ele>
        <time>2023-01-04T14:59:01Z</time>
      </trkpt>
      <trkpt lat="49.95697" lon="2.372">
        <ele>111.3</ele>
        <time>2023-01-04T14:59:02Z</time>
      </trkpt>
      <trkpt lat="49.95696" lon="2.37199">
        <ele>111.2</ele>
        <time>2023-01-04T14:59:03Z</time>
      </trkpt>
      <trkpt lat="49.95695" lon="2.37198">
        <ele>111.2</ele>
        <time>2023-01-04T14:59:05Z</time>
      </trkpt>
      <trkpt lat="49.95694" lon="2.37196">
        <ele>111.2</ele>
        <time>2023-01-04T14:59:06Z</time>
      </trkpt>
      <trkpt lat="49.95693" lon="2.37195">
        <ele>111.1</ele>
        <time>2023-01-04T14:59:07Z</time>
      </trkpt>
      <trkpt lat="49.95692" lon="2.37193">
        <ele>111.1</ele>
        <time>2023-01-04T14:59:08Z</time>
      </trkpt>
      <trkpt lat="49.95692" lon="2.37192">
        <ele>111.1</ele>
        <time>2023-01-04T14:59:09Z</time>
      </trkpt>
      <trkpt lat="49.95691" lon="2.37191">
        <ele>111.1</ele>
        <time>2023-01-04T14:59:10Z</time>
      </trkpt>
      <trkpt lat="49.95691" lon="2.3719">
        <ele>111</ele>
        <time>2023-01-04T14:59:11Z</time>
      </trkpt>
      <trkpt lat="49.9569" lon="2.37189">
        <ele>111</ele>
        <time>2023-01-04T14:59:12Z</time>
      </trkpt>
      <trkpt lat="49.95689" lon="2.37188">
        <ele>111</ele>
        <time>2023-01-04T14:59:14Z</time>
      </trkpt>
      <trkpt lat="49.95689" lon="2.37186">
        <ele>111</ele>
        <time>2023-01-04T14:59:15Z</time>
      </trkpt>
      <trkpt lat="49.95688" lon="2.37185">
        <ele>111</ele>
        <time>2023-01-04T14:59:16Z</time>
      </trkpt>
      <trkpt lat="49.95687" lon="2.37183">
        <ele>110.9</ele>
        <time>2023-01-04T14:59:17Z</time>
      </trkpt>
      <trkpt lat="49.95686" lon="2.37182">
        <ele>110.9</ele>
        <time>2023-01-04T14:59:18Z</time>
      </trkpt>
      <trkpt lat="49.95686" lon="2.37181">
        <ele>110.9</ele>
        <time>2023-01-04T14:59:19Z</time>
      </trkpt>
      <trkpt lat="49.95685" lon="2.37179">
        <ele>110.9</ele>
        <time>2023-01-04T14:59:21Z</time>
      </trkpt>
      <trkpt lat="49.95684" lon="2.37177">
        <ele>110.8</ele>
        <time>2023-01-04T14:59:22Z</time>
      </trkpt>
      <trkpt lat="49.95683" lon="2.37176">
        <ele>110.8</ele>
        <time>2023-01-04T14:59:23Z</time>
      </trkpt>
      <trkpt lat="49.95683" lon="2.37175">
        <ele>110.8</ele>
        <time>2023-01-04T14:59:25Z</time>
      </trkpt>
      <trkpt lat="49.95682" lon="2.37173">
        <ele>110.8</ele>
        <time>2023-01-04T14:59:26Z</time>
      </trkpt>
      <trkpt lat="49.95681" lon="2.37172">
        <ele>110.8</ele>
        <time>2023-01-04T14:59:27Z</time>
      </trkpt>
      <trkpt lat="49.95681" lon="2.37171">
        <ele>110.7</ele>
        <time>2023-01-04T14:59:28Z</time>
      </trkpt>
      <trkpt lat="49.9568" lon="2.3717">
        <ele>110.7</ele>
        <time>2023-01-04T14:59:29Z</time>
      </trkpt>
      <trkpt lat="49.9568" lon="2.37169">
        <ele>110.7</ele>
        <time>2023-01-04T14:59:30Z</time>
      </trkpt>
      <trkpt lat="49.9568" lon="2.37168">
        <ele>110.7</ele>
        <time>2023-01-04T14:59:31Z</time>
      </trkpt>
      <trkpt lat="49.95679" lon="2.37167">
        <ele>110.7</ele>
        <time>2023-01-04T14:59:33Z</time>
      </trkpt>
      <trkpt lat="49.95679" lon="2.37167">
        <ele>110.6</ele>
        <time>2023-01-04T14:59:34Z</time>
      </trkpt>
      <trkpt lat="49.95678" lon="2.37166">
        <ele>110.6</ele>
        <time>2023-01-04T14:59:35Z</time>
      </trkpt>
      <trkpt lat="49.95678" lon="2.37165">
        <ele>110.6</ele>
        <time>2023-01-04T14:59:36Z</time>
      </trkpt>
      <trkpt lat="49.95678" lon="2.37164">
        <ele>110.6</ele>
        <time>2023-01-04T14:59:37Z</time>
      </trkpt>
      <trkpt lat="49.95678" lon="2.37163">
        <ele>110.6</ele>
        <time>2023-01-04T14:59:38Z</time>
      </trkpt>
      <trkpt lat="49.95679" lon="2.37163">
        <ele>110.6</ele>
        <time>2023-01-04T14:59:40Z</time>
      </trkpt>
      <trkpt lat="49.95679" lon="2.37163">
        <ele>110.6</ele>
        <time>2023-01-04T14:59:41Z</time>
      </trkpt>
      <trkpt lat="49.95679" lon="2.37163">
        <ele>110.6</ele>
        <time>2023-01-04T14:59:43Z</time>
      </trkpt>
      <trkpt lat="49.95679" lon="2.37164">
        <ele>110.5</ele>
        <time>2023-01-04T14:59:44Z</time>
      </trkpt>
      <trkpt lat="49.95679" lon="2.37164">
        <ele>110.5</ele>
        <time>2023-01-04T14:59:45Z</time>
      </trkpt>
      <trkpt lat="49.9568" lon="2.37164">
        <ele>110.5</ele>
        <time>2023-01-04T14:59:47Z</time>
      </trkpt>
      <trkpt lat="49.9568" lon="2.37165">
        <ele>110.5</ele>
        <time>2023-01-04T14:59:48Z</time>
      </trkpt>
      <trkpt lat="49.9568" lon="2.37165">
        <ele>110.5</ele>
        <time>2023-01-04T14:59:50Z</time>
      </trkpt>
      <trkpt lat="49.9568" lon="2.37165">
        <ele>110.5</ele>
        <time>2023-01-04T14:59:51Z</time>
      </trkpt>
      <trkpt lat="49.9568" lon="2.37166">
        <ele>110.5</ele>
        <time>2023-01-04T14:59:52Z</time>
      </trkpt>
      <trkpt lat="49.9568" lon="2.37166">
        <ele>110.5</ele>
        <time>2023-01-04T14:59:53Z</time>
      </trkpt>
      <trkpt lat="49.9568" lon="2.37166">
        <ele>110.5</ele>
        <time>2023-01-04T14:59:54Z</time>
      </trkpt>
      <trkpt lat="49.9568" lon="2.37166">
        <ele>110.5</ele>
        <time>2023-01-04T14:59:55Z</time>
      </trkpt>
      <trkpt lat="49.95681" lon="2.37167">
        <ele>110.5</ele>
        <time>2023-01-04T14:59:56Z</time>
      </trkpt>
      <trkpt lat="49.95681" lon="2.37167">
        <ele>110.5</ele>
        <time>2023-01-04T14:59:57Z</time>
      </trkpt>
      <trkpt lat="49.95681" lon="2.37167">
        <ele>110.5</ele>
        <time>2023-01-04T14:59:58Z</time>
      </trkpt>
      <trkpt lat="49.95682" lon="2.3717">
        <ele>110.4</ele>
        <time>2023-01-04T14:59:59Z</time>
      </trkpt>
      <trkpt lat="49.95681" lon="2.37166">
        <ele>110.4</ele>
        <time>2023-01-04T15:00:01Z</time>
      </trkpt>
      <trkpt lat="49.9568" lon="2.37165">
        <ele>110.3</ele>
        <time>2023-01-04T15:00:02Z</time>
      </trkpt>
      <trkpt lat="49.9568" lon="2.37165">
        <ele>110.3</ele>
        <time>2023-01-04T15:00:03Z</time>
      </trkpt>
      <trkpt lat="49.95679" lon="2.37165">
        <ele>110.3</ele>
        <time>2023-01-04T15:00:04Z</time>
      </trkpt>
      <trkpt lat="49.95678" lon="2.37165">
        <ele>110.3</ele>
        <time>2023-01-04T15:00:05Z</time>
      </trkpt>
      <trkpt lat="49.95677" lon="2.37165">
        <ele>110.3</ele>
        <time>2023-01-04T15:00:06Z</time>
      </trkpt>
      <trkpt lat="49.95676" lon="2.37166">
        <ele>110.2</ele>
        <time>2023-01-04T15:00:07Z</time>
      </trkpt>
      <trkpt lat="49.95675" lon="2.37166">
        <ele>110.2</ele>
        <time>2023-01-04T15:00:09Z</time>
      </trkpt>
      <trkpt lat="49.95674" lon="2.37166">
        <ele>110.2</ele>
        <time>2023-01-04T15:00:10Z</time>
      </trkpt>
      <trkpt lat="49.95673" lon="2.37165">
        <ele>110.2</ele>
        <time>2023-01-04T15:00:11Z</time>
      </trkpt>
      <trkpt lat="49.95672" lon="2.37164">
        <ele>110.1</ele>
        <time>2023-01-04T15:00:12Z</time>
      </trkpt>
      <trkpt lat="49.9567" lon="2.37164">
        <ele>110.1</ele>
        <time>2023-01-04T15:00:13Z</time>
      </trkpt>
      <trkpt lat="49.95669" lon="2.37163">
        <ele>110.1</ele>
        <time>2023-01-04T15:00:14Z</time>
      </trkpt>
      <trkpt lat="49.95668" lon="2.37163">
        <ele>110</ele>
        <time>2023-01-04T15:00:15Z</time>
      </trkpt>
      <trkpt lat="49.95667" lon="2.37162">
        <ele>110</ele>
        <time>2023-01-04T15:00:17Z</time>
      </trkpt>
      <trkpt lat="49.95665" lon="2.37161">
        <ele>110</ele>
        <time>2023-01-04T15:00:18Z</time>
      </trkpt>
      <trkpt lat="49.95664" lon="2.37159">
        <ele>109.9</ele>
        <time>2023-01-04T15:00:19Z</time>
      </trkpt>
      <trkpt lat="49.95663" lon="2.37159">
        <ele>109.9</ele>
        <time>2023-01-04T15:00:20Z</time>
      </trkpt>
      <trkpt lat="49.95662" lon="2.37158">
        <ele>109.8</ele>
        <time>2023-01-04T15:00:22Z</time>
      </trkpt>
      <trkpt lat="49.9566" lon="2.37157">
        <ele>109.8</ele>
        <time>2023-01-04T15:00:23Z</time>
      </trkpt>
      <trkpt lat="49.95658" lon="2.37155">
        <ele>109.8</ele>
        <time>2023-01-04T15:00:24Z</time>
      </trkpt>
      <trkpt lat="49.95658" lon="2.37154">
        <ele>109.7</ele>
        <time>2023-01-04T15:00:25Z</time>
      </trkpt>
      <trkpt lat="49.95657" lon="2.37154">
        <ele>109.7</ele>
        <time>2023-01-04T15:00:26Z</time>
      </trkpt>
      <trkpt lat="49.95656" lon="2.37152">
        <ele>109.7</ele>
        <time>2023-01-04T15:00:27Z</time>
      </trkpt>
      <trkpt lat="49.95654" lon="2.37151">
        <ele>109.6</ele>
        <time>2023-01-04T15:00:29Z</time>
      </trkpt>
      <trkpt lat="49.95653" lon="2.3715">
        <ele>109.6</ele>
        <time>2023-01-04T15:00:30Z</time>
      </trkpt>
      <trkpt lat="49.95652" lon="2.37149">
        <ele>109.6</ele>
        <time>2023-01-04T15:00:31Z</time>
      </trkpt>
      <trkpt lat="49.95651" lon="2.37148">
        <ele>109.5</ele>
        <time>2023-01-04T15:00:32Z</time>
      </trkpt>
      <trkpt lat="49.9565" lon="2.37146">
        <ele>109.5</ele>
        <time>2023-01-04T15:00:33Z</time>
      </trkpt>
      <trkpt lat="49.95649" lon="2.37144">
        <ele>109.5</ele>
        <time>2023-01-04T15:00:34Z</time>
      </trkpt>
      <trkpt lat="49.95647" lon="2.37142">
        <ele>109.4</ele>
        <time>2023-01-04T15:00:36Z</time>
      </trkpt>
      <trkpt lat="49.95647" lon="2.37141">
        <ele>109.4</ele>
        <time>2023-01-04T15:00:37Z</time>
      </trkpt>
      <trkpt lat="49.95646" lon="2.37141">
        <ele>109.4</ele>
        <time>2023-01-04T15:00:38Z</time>
      </trkpt>
      <trkpt lat="49.95644" lon="2.37138">
        <ele>109.3</ele>
        <time>2023-01-04T15:00:39Z</time>
      </trkpt>
      <trkpt lat="49.95644" lon="2.37137">
        <ele>109.3</ele>
        <time>2023-01-04T15:00:40Z</time>
      </trkpt>
      <trkpt lat="49.95643" lon="2.37137">
        <ele>109.3</ele>
        <time>2023-01-04T15:00:41Z</time>
      </trkpt>
      <trkpt lat="49.95643" lon="2.37135">
        <ele>109.2</ele>
        <time>2023-01-04T15:00:42Z</time>
      </trkpt>
      <trkpt lat="49.95642" lon="2.37134">
        <ele>109.2</ele>
        <time>2023-01-04T15:00:44Z</time>
      </trkpt>
      <trkpt lat="49.95641" lon="2.37133">
        <ele>109.2</ele>
        <time>2023-01-04T15:00:45Z</time>
      </trkpt>
      <trkpt lat="49.9564" lon="2.37132">
        <ele>109.2</ele>
        <time>2023-01-04T15:00:46Z</time>
      </trkpt>
      <trkpt lat="49.9564" lon="2.37131">
        <ele>109.1</ele>
        <time>2023-01-04T15:00:47Z</time>
      </trkpt>
      <trkpt lat="49.95639" lon="2.3713">
        <ele>109.1</ele>
        <time>2023-01-04T15:00:48Z</time>
      </trkpt>
      <trkpt lat="49.95638" lon="2.37128">
        <ele>109.1</ele>
        <time>2023-01-04T15:00:49Z</time>
      </trkpt>
      <trkpt lat="49.95637" lon="2.37127">
        <ele>109</ele>
        <time>2023-01-04T15:00:51Z</time>
      </trkpt>
      <trkpt lat="49.95636" lon="2.37126">
        <ele>109</ele>
        <time>2023-01-04T15:00:52Z</time>
      </trkpt>
      <trkpt lat="49.95635" lon="2.37125">
        <ele>109</ele>
        <time>2023-01-04T15:00:53Z</time>
      </trkpt>
      <trkpt lat="49.95634" lon="2.37125">
        <ele>109</ele>
        <time>2023-01-04T15:00:54Z</time>
      </trkpt>
      <trkpt lat="49.95633" lon="2.37124">
        <ele>108.9</ele>
        <time>2023-01-04T15:00:55Z</time>
      </trkpt>
      <trkpt lat="49.95632" lon="2.37123">
        <ele>108.9</ele>
        <time>2023-01-04T15:00:56Z</time>
      </trkpt>
      <trkpt lat="49.9563" lon="2.37122">
        <ele>108.9</ele>
        <time>2023-01-04T15:00:57Z</time>
      </trkpt>
      <trkpt lat="49.95629" lon="2.37121">
        <ele>108.8</ele>
        <time>2023-01-04T15:00:59Z</time>
      </trkpt>
      <trkpt lat="49.95628" lon="2.3712">
        <ele>108.8</ele>
        <time>2023-01-04T15:01:00Z</time>
      </trkpt>
      <trkpt lat="49.95627" lon="2.37119">
        <ele>108.8</ele>
        <time>2023-01-04T15:01:01Z</time>
      </trkpt>
      <trkpt lat="49.95626" lon="2.37118">
        <ele>108.7</ele>
        <time>2023-01-04T15:01:02Z</time>
      </trkpt>
      <trkpt lat="49.95625" lon="2.37117">
        <ele>108.7</ele>
        <time>2023-01-04T15:01:03Z</time>
      </trkpt>
      <trkpt lat="49.95623" lon="2.37115">
        <ele>108.6</ele>
        <time>2023-01-04T15:01:04Z</time>
      </trkpt>
      <trkpt lat="49.95622" lon="2.37114">
        <ele>108.6</ele>
        <time>2023-01-04T15:01:05Z</time>
      </trkpt>
      <trkpt lat="49.95622" lon="2.37113">
        <ele>108.6</ele>
        <time>2023-01-04T15:01:06Z</time>
      </trkpt>
      <trkpt lat="49.9562" lon="2.37112">
        <ele>108.5</ele>
        <time>2023-01-04T15:01:08Z</time>
      </trkpt>
      <trkpt lat="49.95619" lon="2.37111">
        <ele>108.5</ele>
        <time>2023-01-04T15:01:09Z</time>
      </trkpt>
      <trkpt lat="49.95618" lon="2.3711">
        <ele>108.5</ele>
        <time>2023-01-04T15:01:10Z</time>
      </trkpt>
      <trkpt lat="49.95617" lon="2.37109">
        <ele>108.5</ele>
        <time>2023-01-04T15:01:11Z</time>
      </trkpt>
      <trkpt lat="49.95616" lon="2.37108">
        <ele>108.4</ele>
        <time>2023-01-04T15:01:12Z</time>
      </trkpt>
      <trkpt lat="49.95615" lon="2.37106">
        <ele>108.4</ele>
        <time>2023-01-04T15:01:13Z</time>
      </trkpt>
      <trkpt lat="49.95614" lon="2.37106">
        <ele>108.4</ele>
        <time>2023-01-04T15:01:14Z</time>
      </trkpt>
      <trkpt lat="49.95613" lon="2.37104">
        <ele>108.3</ele>
        <time>2023-01-04T15:01:16Z</time>
      </trkpt>
      <trkpt lat="49.95611" lon="2.37103">
        <ele>108.3</ele>
        <time>2023-01-04T15:01:17Z</time>
      </trkpt>
      <trkpt lat="49.9561" lon="2.37102">
        <ele>108.2</ele>
        <time>2023-01-04T15:01:18Z</time>
      </trkpt>
      <trkpt lat="49.95608" lon="2.371">
        <ele>108.2</ele>
        <time>2023-01-04T15:01:19Z</time>
      </trkpt>
      <trkpt lat="49.95607" lon="2.371">
        <ele>108.2</ele>
        <time>2023-01-04T15:01:20Z</time>
      </trkpt>
      <trkpt lat="49.95607" lon="2.37099">
        <ele>108.2</ele>
        <time>2023-01-04T15:01:21Z</time>
      </trkpt>
      <trkpt lat="49.95605" lon="2.37098">
        <ele>108.1</ele>
        <time>2023-01-04T15:01:22Z</time>
      </trkpt>
      <trkpt lat="49.95604" lon="2.37097">
        <ele>108.1</ele>
        <time>2023-01-04T15:01:24Z</time>
      </trkpt>
      <trkpt lat="49.95603" lon="2.37096">
        <ele>108</ele>
        <time>2023-01-04T15:01:25Z</time>
      </trkpt>
      <trkpt lat="49.95602" lon="2.37095">
        <ele>108</ele>
        <time>2023-01-04T15:01:26Z</time>
      </trkpt>
      <trkpt lat="49.956" lon="2.37093">
        <ele>108</ele>
        <time>2023-01-04T15:01:28Z</time>
      </trkpt>
      <trkpt lat="49.956" lon="2.37092">
        <ele>107.9</ele>
        <time>2023-01-04T15:01:29Z</time>
      </trkpt>
      <trkpt lat="49.95598" lon="2.3709">
        <ele>107.9</ele>
        <time>2023-01-04T15:01:30Z</time>
      </trkpt>
      <trkpt lat="49.95597" lon="2.37089">
        <ele>107.9</ele>
        <time>2023-01-04T15:01:31Z</time>
      </trkpt>
      <trkpt lat="49.95597" lon="2.37088">
        <ele>107.8</ele>
        <time>2023-01-04T15:01:32Z</time>
      </trkpt>
      <trkpt lat="49.95596" lon="2.37086">
        <ele>107.8</ele>
        <time>2023-01-04T15:01:33Z</time>
      </trkpt>
      <trkpt lat="49.95595" lon="2.37085">
        <ele>107.8</ele>
        <time>2023-01-04T15:01:34Z</time>
      </trkpt>
      <trkpt lat="49.95594" lon="2.37084">
        <ele>107.7</ele>
        <time>2023-01-04T15:01:36Z</time>
      </trkpt>
      <trkpt lat="49.95593" lon="2.37082">
        <ele>107.7</ele>
        <time>2023-01-04T15:01:37Z</time>
      </trkpt>
      <trkpt lat="49.95592" lon="2.37081">
        <ele>107.7</ele>
        <time>2023-01-04T15:01:38Z</time>
      </trkpt>
      <trkpt lat="49.95591" lon="2.3708">
        <ele>107.6</ele>
        <time>2023-01-04T15:01:39Z</time>
      </trkpt>
      <trkpt lat="49.9559" lon="2.37079">
        <ele>107.6</ele>
        <time>2023-01-04T15:01:40Z</time>
      </trkpt>
      <trkpt lat="49.95589" lon="2.37078">
        <ele>107.6</ele>
        <time>2023-01-04T15:01:41Z</time>
      </trkpt>
      <trkpt lat="49.95588" lon="2.37076">
        <ele>107.5</ele>
        <time>2023-01-04T15:01:43Z</time>
      </trkpt>
      <trkpt lat="49.95588" lon="2.37075">
        <ele>107.5</ele>
        <time>2023-01-04T15:01:44Z</time>
      </trkpt>
      <trkpt lat="49.95587" lon="2.37073">
        <ele>107.5</ele>
        <time>2023-01-04T15:01:45Z</time>
      </trkpt>
      <trkpt lat="49.95586" lon="2.37072">
        <ele>107.5</ele>
        <time>2023-01-04T15:01:46Z</time>
      </trkpt>
      <trkpt lat="49.95586" lon="2.3707">
        <ele>107.4</ele>
        <time>2023-01-04T15:01:47Z</time>
      </trkpt>
      <trkpt lat="49.95585" lon="2.37068">
        <ele>107.4</ele>
        <time>2023-01-04T15:01:48Z</time>
      </trkpt>
      <trkpt lat="49.95584" lon="2.37067">
        <ele>107.4</ele>
        <time>2023-01-04T15:01:49Z</time>
      </trkpt>
      <trkpt lat="49.95583" lon="2.37064">
        <ele>107.3</ele>
        <time>2023-01-04T15:01:50Z</time>
      </trkpt>
      <trkpt lat="49.95582" lon="2.37063">
        <ele>107.3</ele>
        <time>2023-01-04T15:01:52Z</time>
      </trkpt>
      <trkpt lat="49.95581" lon="2.37062">
        <ele>107.2</ele>
        <time>2023-01-04T15:01:53Z</time>
      </trkpt>
      <trkpt lat="49.9558" lon="2.37061">
        <ele>107.2</ele>
        <time>2023-01-04T15:01:54Z</time>
      </trkpt>
      <trkpt lat="49.95579" lon="2.37061">
        <ele>107.2</ele>
        <time>2023-01-04T15:01:55Z</time>
      </trkpt>
      <trkpt lat="49.95578" lon="2.3706">
        <ele>107.2</ele>
        <time>2023-01-04T15:01:56Z</time>
      </trkpt>
      <trkpt lat="49.95577" lon="2.37059">
        <ele>107.1</ele>
        <time>2023-01-04T15:01:57Z</time>
      </trkpt>
      <trkpt lat="49.95575" lon="2.37058">
        <ele>107.1</ele>
        <time>2023-01-04T15:01:58Z</time>
      </trkpt>
      <trkpt lat="49.95574" lon="2.37057">
        <ele>107.1</ele>
        <time>2023-01-04T15:01:59Z</time>
      </trkpt>
      <trkpt lat="49.95573" lon="2.37057">
        <ele>107</ele>
        <time>2023-01-04T15:02:00Z</time>
      </trkpt>
      <trkpt lat="49.95572" lon="2.37056">
        <ele>107</ele>
        <time>2023-01-04T15:02:02Z</time>
      </trkpt>
      <trkpt lat="49.9557" lon="2.37055">
        <ele>107</ele>
        <time>2023-01-04T15:02:03Z</time>
      </trkpt>
      <trkpt lat="49.95569" lon="2.37055">
        <ele>106.9</ele>
        <time>2023-01-04T15:02:04Z</time>
      </trkpt>
      <trkpt lat="49.95569" lon="2.37054">
        <ele>106.9</ele>
        <time>2023-01-04T15:02:05Z</time>
      </trkpt>
      <trkpt lat="49.95568" lon="2.37053">
        <ele>106.9</ele>
        <time>2023-01-04T15:02:06Z</time>
      </trkpt>
      <trkpt lat="49.95567" lon="2.37051">
        <ele>106.8</ele>
        <time>2023-01-04T15:02:07Z</time>
      </trkpt>
      <trkpt lat="49.95565" lon="2.3705">
        <ele>106.8</ele>
        <time>2023-01-04T15:02:09Z</time>
      </trkpt>
      <trkpt lat="49.95564" lon="2.37047">
        <ele>106.7</ele>
        <time>2023-01-04T15:02:10Z</time>
      </trkpt>
      <trkpt lat="49.95563" lon="2.37046">
        <ele>106.7</ele>
        <time>2023-01-04T15:02:11Z</time>
      </trkpt>
      <trkpt lat="49.95562" lon="2.37045">
        <ele>106.7</ele>
        <time>2023-01-04T15:02:12Z</time>
      </trkpt>
      <trkpt lat="49.95561" lon="2.37044">
        <ele>106.7</ele>
        <time>2023-01-04T15:02:13Z</time>
      </trkpt>
      <trkpt lat="49.9556" lon="2.37043">
        <ele>106.6</ele>
        <time>2023-01-04T15:02:14Z</time>
      </trkpt>
      <trkpt lat="49.95559" lon="2.3704">
        <ele>106.6</ele>
        <time>2023-01-04T15:02:16Z</time>
      </trkpt>
      <trkpt lat="49.95558" lon="2.37039">
        <ele>106.5</ele>
        <time>2023-01-04T15:02:17Z</time>
      </trkpt>
      <trkpt lat="49.95557" lon="2.37039">
        <ele>106.5</ele>
        <time>2023-01-04T15:02:18Z</time>
      </trkpt>
      <trkpt lat="49.95557" lon="2.37038">
        <ele>106.5</ele>
        <time>2023-01-04T15:02:19Z</time>
      </trkpt>
      <trkpt lat="49.95556" lon="2.37037">
        <ele>106.5</ele>
        <time>2023-01-04T15:02:20Z</time>
      </trkpt>
      <trkpt lat="49.95555" lon="2.37036">
        <ele>106.4</ele>
        <time>2023-01-04T15:02:21Z</time>
      </trkpt>
      <trkpt lat="49.95554" lon="2.37034">
        <ele>106.4</ele>
        <time>2023-01-04T15:02:22Z</time>
      </trkpt>
      <trkpt lat="49.95553" lon="2.37033">
        <ele>106.4</ele>
        <time>2023-01-04T15:02:23Z</time>
      </trkpt>
      <trkpt lat="49.95552" lon="2.37031">
        <ele>106.4</ele>
        <time>2023-01-04T15:02:25Z</time>
      </trkpt>
      <trkpt lat="49.9555" lon="2.37029">
        <ele>106.3</ele>
        <time>2023-01-04T15:02:26Z</time>
      </trkpt>
      <trkpt lat="49.9555" lon="2.37028">
        <ele>106.3</ele>
        <time>2023-01-04T15:02:27Z</time>
      </trkpt>
      <trkpt lat="49.95549" lon="2.37027">
        <ele>106.3</ele>
        <time>2023-01-04T15:02:28Z</time>
      </trkpt>
      <trkpt lat="49.95548" lon="2.37025">
        <ele>106.2</ele>
        <time>2023-01-04T15:02:30Z</time>
      </trkpt>
      <trkpt lat="49.95547" lon="2.37024">
        <ele>106.2</ele>
        <time>2023-01-04T15:02:31Z</time>
      </trkpt>
      <trkpt lat="49.95546" lon="2.37023">
        <ele>106.2</ele>
        <time>2023-01-04T15:02:32Z</time>
      </trkpt>
      <trkpt lat="49.95545" lon="2.37021">
        <ele>106.1</ele>
        <time>2023-01-04T15:02:33Z</time>
      </trkpt>
      <trkpt lat="49.95544" lon="2.3702">
        <ele>106.1</ele>
        <time>2023-01-04T15:02:34Z</time>
      </trkpt>
      <trkpt lat="49.95543" lon="2.37019">
        <ele>106</ele>
        <time>2023-01-04T15:02:35Z</time>
      </trkpt>
      <trkpt lat="49.95542" lon="2.37017">
        <ele>106</ele>
        <time>2023-01-04T15:02:36Z</time>
      </trkpt>
      <trkpt lat="49.9554" lon="2.37015">
        <ele>105.9</ele>
        <time>2023-01-04T15:02:37Z</time>
      </trkpt>
      <trkpt lat="49.9554" lon="2.37014">
        <ele>105.9</ele>
        <time>2023-01-04T15:02:38Z</time>
      </trkpt>
      <trkpt lat="49.95539" lon="2.37012">
        <ele>105.9</ele>
        <time>2023-01-04T15:02:40Z</time>
      </trkpt>
      <trkpt lat="49.95538" lon="2.37011">
        <ele>105.9</ele>
        <time>2023-01-04T15:02:41Z</time>
      </trkpt>
      <trkpt lat="49.95538" lon="2.3701">
        <ele>105.9</ele>
        <time>2023-01-04T15:02:42Z</time>
      </trkpt>
      <trkpt lat="49.95537" lon="2.37009">
        <ele>105.8</ele>
        <time>2023-01-04T15:02:43Z</time>
      </trkpt>
      <trkpt lat="49.95537" lon="2.37008">
        <ele>105.8</ele>
        <time>2023-01-04T15:02:44Z</time>
      </trkpt>
      <trkpt lat="49.95536" lon="2.37007">
        <ele>105.8</ele>
        <time>2023-01-04T15:02:45Z</time>
      </trkpt>
      <trkpt lat="49.95535" lon="2.37005">
        <ele>105.8</ele>
        <time>2023-01-04T15:02:46Z</time>
      </trkpt>
      <trkpt lat="49.95535" lon="2.37004">
        <ele>105.7</ele>
        <time>2023-01-04T15:02:47Z</time>
      </trkpt>
      <trkpt lat="49.95534" lon="2.37002">
        <ele>105.7</ele>
        <time>2023-01-04T15:02:49Z</time>
      </trkpt>
      <trkpt lat="49.95534" lon="2.37001">
        <ele>105.7</ele>
        <time>2023-01-04T15:02:50Z</time>
      </trkpt>
      <trkpt lat="49.95532" lon="2.36998">
        <ele>105.6</ele>
        <time>2023-01-04T15:02:51Z</time>
      </trkpt>
      <trkpt lat="49.95532" lon="2.36997">
        <ele>105.6</ele>
        <time>2023-01-04T15:02:52Z</time>
      </trkpt>
      <trkpt lat="49.95531" lon="2.36996">
        <ele>105.6</ele>
        <time>2023-01-04T15:02:53Z</time>
      </trkpt>
      <trkpt lat="49.95531" lon="2.36994">
        <ele>105.5</ele>
        <time>2023-01-04T15:02:54Z</time>
      </trkpt>
      <trkpt lat="49.9553" lon="2.36993">
        <ele>105.5</ele>
        <time>2023-01-04T15:02:55Z</time>
      </trkpt>
      <trkpt lat="49.9553" lon="2.36991">
        <ele>105.5</ele>
        <time>2023-01-04T15:02:56Z</time>
      </trkpt>
      <trkpt lat="49.95529" lon="2.36989">
        <ele>105.4</ele>
        <time>2023-01-04T15:02:58Z</time>
      </trkpt>
      <trkpt lat="49.95528" lon="2.36987">
        <ele>105.4</ele>
        <time>2023-01-04T15:02:59Z</time>
      </trkpt>
      <trkpt lat="49.95527" lon="2.36984">
        <ele>105.3</ele>
        <time>2023-01-04T15:03:00Z</time>
      </trkpt>
      <trkpt lat="49.95526" lon="2.36983">
        <ele>105.3</ele>
        <time>2023-01-04T15:03:01Z</time>
      </trkpt>
      <trkpt lat="49.95526" lon="2.36982">
        <ele>105.3</ele>
        <time>2023-01-04T15:03:02Z</time>
      </trkpt>
      <trkpt lat="49.95525" lon="2.36979">
        <ele>105.2</ele>
        <time>2023-01-04T15:03:03Z</time>
      </trkpt>
      <trkpt lat="49.95525" lon="2.36977">
        <ele>105.2</ele>
        <time>2023-01-04T15:03:04Z</time>
      </trkpt>
      <trkpt lat="49.95524" lon="2.36974">
        <ele>105.2</ele>
        <time>2023-01-04T15:03:05Z</time>
      </trkpt>
      <trkpt lat="49.95523" lon="2.36973">
        <ele>105.1</ele>
        <time>2023-01-04T15:03:07Z</time>
      </trkpt>
      <trkpt lat="49.95523" lon="2.36972">
        <ele>105.1</ele>
        <time>2023-01-04T15:03:08Z</time>
      </trkpt>
      <trkpt lat="49.95522" lon="2.36968">
        <ele>105</ele>
        <time>2023-01-04T15:03:09Z</time>
      </trkpt>
      <trkpt lat="49.95522" lon="2.36967">
        <ele>105</ele>
        <time>2023-01-04T15:03:10Z</time>
      </trkpt>
      <trkpt lat="49.95521" lon="2.36966">
        <ele>105</ele>
        <time>2023-01-04T15:03:11Z</time>
      </trkpt>
      <trkpt lat="49.95521" lon="2.36964">
        <ele>105</ele>
        <time>2023-01-04T15:03:12Z</time>
      </trkpt>
      <trkpt lat="49.9552" lon="2.36961">
        <ele>104.9</ele>
        <time>2023-01-04T15:03:13Z</time>
      </trkpt>
      <trkpt lat="49.9552" lon="2.3696">
        <ele>104.9</ele>
        <time>2023-01-04T15:03:14Z</time>
      </trkpt>
      <trkpt lat="49.9552" lon="2.36959">
        <ele>104.9</ele>
        <time>2023-01-04T15:03:16Z</time>
      </trkpt>
      <trkpt lat="49.95519" lon="2.36957">
        <ele>104.9</ele>
        <time>2023-01-04T15:03:17Z</time>
      </trkpt>
      <trkpt lat="49.95519" lon="2.36956">
        <ele>104.8</ele>
        <time>2023-01-04T15:03:18Z</time>
      </trkpt>
      <trkpt lat="49.95519" lon="2.36954">
        <ele>104.8</ele>
        <time>2023-01-04T15:03:19Z</time>
      </trkpt>
      <trkpt lat="49.95518" lon="2.36953">
        <ele>104.8</ele>
        <time>2023-01-04T15:03:20Z</time>
      </trkpt>
      <trkpt lat="49.95518" lon="2.36951">
        <ele>104.8</ele>
        <time>2023-01-04T15:03:21Z</time>
      </trkpt>
      <trkpt lat="49.95518" lon="2.36949">
        <ele>104.7</ele>
        <time>2023-01-04T15:03:22Z</time>
      </trkpt>
      <trkpt lat="49.95517" lon="2.36947">
        <ele>104.7</ele>
        <time>2023-01-04T15:03:23Z</time>
      </trkpt>
      <trkpt lat="49.95517" lon="2.36946">
        <ele>104.7</ele>
        <time>2023-01-04T15:03:25Z</time>
      </trkpt>
      <trkpt lat="49.95516" lon="2.36945">
        <ele>104.6</ele>
        <time>2023-01-04T15:03:26Z</time>
      </trkpt>
      <trkpt lat="49.95516" lon="2.36943">
        <ele>104.6</ele>
        <time>2023-01-04T15:03:27Z</time>
      </trkpt>
      <trkpt lat="49.95516" lon="2.36942">
        <ele>104.6</ele>
        <time>2023-01-04T15:03:28Z</time>
      </trkpt>
      <trkpt lat="49.95515" lon="2.3694">
        <ele>104.6</ele>
        <time>2023-01-04T15:03:29Z</time>
      </trkpt>
      <trkpt lat="49.95515" lon="2.36939">
        <ele>104.5</ele>
        <time>2023-01-04T15:03:30Z</time>
      </trkpt>
      <trkpt lat="49.95514" lon="2.36936">
        <ele>104.5</ele>
        <time>2023-01-04T15:03:31Z</time>
      </trkpt>
      <trkpt lat="49.95514" lon="2.36934">
        <ele>104.5</ele>
        <time>2023-01-04T15:03:32Z</time>
      </trkpt>
      <trkpt lat="49.95514" lon="2.36933">
        <ele>104.4</ele>
        <time>2023-01-04T15:03:33Z</time>
      </trkpt>
      <trkpt lat="49.95513" lon="2.36932">
        <ele>104.4</ele>
        <time>2023-01-04T15:03:34Z</time>
      </trkpt>
      <trkpt lat="49.95513" lon="2.36931">
        <ele>104.4</ele>
        <time>2023-01-04T15:03:36Z</time>
      </trkpt>
      <trkpt lat="49.95512" lon="2.36929">
        <ele>104.4</ele>
        <time>2023-01-04T15:03:37Z</time>
      </trkpt>
      <trkpt lat="49.95512" lon="2.36927">
        <ele>104.3</ele>
        <time>2023-01-04T15:03:38Z</time>
      </trkpt>
      <trkpt lat="49.95511" lon="2.36925">
        <ele>104.3</ele>
        <time>2023-01-04T15:03:39Z</time>
      </trkpt>
      <trkpt lat="49.9551" lon="2.36922">
        <ele>104.2</ele>
        <time>2023-01-04T15:03:40Z</time>
      </trkpt>
      <trkpt lat="49.9551" lon="2.36921">
        <ele>104.2</ele>
        <time>2023-01-04T15:03:41Z</time>
      </trkpt>
      <trkpt lat="49.95509" lon="2.3692">
        <ele>104.2</ele>
        <time>2023-01-04T15:03:42Z</time>
      </trkpt>
      <trkpt lat="49.95508" lon="2.36916">
        <ele>104.1</ele>
        <time>2023-01-04T15:03:43Z</time>
      </trkpt>
      <trkpt lat="49.95507" lon="2.36915">
        <ele>104.1</ele>
        <time>2023-01-04T15:03:45Z</time>
      </trkpt>
      <trkpt lat="49.95507" lon="2.36914">
        <ele>104.1</ele>
        <time>2023-01-04T15:03:46Z</time>
      </trkpt>
      <trkpt lat="49.95506" lon="2.36912">
        <ele>104.1</ele>
        <time>2023-01-04T15:03:47Z</time>
      </trkpt>
      <trkpt lat="49.95505" lon="2.36911">
        <ele>104</ele>
        <time>2023-01-04T15:03:48Z</time>
      </trkpt>
      <trkpt lat="49.95505" lon="2.3691">
        <ele>104</ele>
        <time>2023-01-04T15:03:49Z</time>
      </trkpt>
      <trkpt lat="49.95505" lon="2.36908">
        <ele>104</ele>
        <time>2023-01-04T15:03:50Z</time>
      </trkpt>
      <trkpt lat="49.95504" lon="2.36907">
        <ele>103.9</ele>
        <time>2023-01-04T15:03:52Z</time>
      </trkpt>
      <trkpt lat="49.95504" lon="2.36905">
        <ele>103.9</ele>
        <time>2023-01-04T15:03:53Z</time>
      </trkpt>
      <trkpt lat="49.95503" lon="2.36903">
        <ele>103.9</ele>
        <time>2023-01-04T15:03:54Z</time>
      </trkpt>
      <trkpt lat="49.95503" lon="2.36902">
        <ele>103.9</ele>
        <time>2023-01-04T15:03:55Z</time>
      </trkpt>
      <trkpt lat="49.95503" lon="2.369">
        <ele>103.8</ele>
        <time>2023-01-04T15:03:56Z</time>
      </trkpt>
      <trkpt lat="49.95502" lon="2.36899">
        <ele>103.8</ele>
        <time>2023-01-04T15:03:57Z</time>
      </trkpt>
      <trkpt lat="49.95502" lon="2.36897">
        <ele>103.8</ele>
        <time>2023-01-04T15:03:58Z</time>
      </trkpt>
      <trkpt lat="49.95501" lon="2.36896">
        <ele>103.8</ele>
        <time>2023-01-04T15:03:59Z</time>
      </trkpt>
      <trkpt lat="49.95501" lon="2.36894">
        <ele>103.7</ele>
        <time>2023-01-04T15:04:00Z</time>
      </trkpt>
      <trkpt lat="49.955" lon="2.36893">
        <ele>103.7</ele>
        <time>2023-01-04T15:04:02Z</time>
      </trkpt>
      <trkpt lat="49.955" lon="2.36891">
        <ele>103.7</ele>
        <time>2023-01-04T15:04:03Z</time>
      </trkpt>
      <trkpt lat="49.95499" lon="2.36889">
        <ele>103.6</ele>
        <time>2023-01-04T15:04:04Z</time>
      </trkpt>
      <trkpt lat="49.95499" lon="2.36888">
        <ele>103.6</ele>
        <time>2023-01-04T15:04:05Z</time>
      </trkpt>
      <trkpt lat="49.95499" lon="2.36886">
        <ele>103.6</ele>
        <time>2023-01-04T15:04:06Z</time>
      </trkpt>
      <trkpt lat="49.95498" lon="2.36885">
        <ele>103.6</ele>
        <time>2023-01-04T15:04:07Z</time>
      </trkpt>
      <trkpt lat="49.95498" lon="2.36884">
        <ele>103.5</ele>
        <time>2023-01-04T15:04:08Z</time>
      </trkpt>
      <trkpt lat="49.95497" lon="2.36881">
        <ele>103.5</ele>
        <time>2023-01-04T15:04:09Z</time>
      </trkpt>
      <trkpt lat="49.95497" lon="2.3688">
        <ele>103.5</ele>
        <time>2023-01-04T15:04:10Z</time>
      </trkpt>
      <trkpt lat="49.95496" lon="2.36877">
        <ele>103.4</ele>
        <time>2023-01-04T15:04:12Z</time>
      </trkpt>
      <trkpt lat="49.95495" lon="2.36876">
        <ele>103.4</ele>
        <time>2023-01-04T15:04:13Z</time>
      </trkpt>
      <trkpt lat="49.95495" lon="2.36873">
        <ele>103.4</ele>
        <time>2023-01-04T15:04:14Z</time>
      </trkpt>
      <trkpt lat="49.95494" lon="2.36873">
        <ele>103.3</ele>
        <time>2023-01-04T15:04:15Z</time>
      </trkpt>
      <trkpt lat="49.95494" lon="2.36871">
        <ele>103.3</ele>
        <time>2023-01-04T15:04:16Z</time>
      </trkpt>
      <trkpt lat="49.95492" lon="2.36869">
        <ele>103.3</ele>
        <time>2023-01-04T15:04:17Z</time>
      </trkpt>
      <trkpt lat="49.95492" lon="2.36868">
        <ele>103.2</ele>
        <time>2023-01-04T15:04:18Z</time>
      </trkpt>
      <trkpt lat="49.95491" lon="2.36866">
        <ele>103.2</ele>
        <time>2023-01-04T15:04:20Z</time>
      </trkpt>
      <trkpt lat="49.9549" lon="2.36865">
        <ele>103.2</ele>
        <time>2023-01-04T15:04:21Z</time>
      </trkpt>
      <trkpt lat="49.9549" lon="2.36864">
        <ele>103.2</ele>
        <time>2023-01-04T15:04:22Z</time>
      </trkpt>
      <trkpt lat="49.95489" lon="2.36863">
        <ele>103.1</ele>
        <time>2023-01-04T15:04:23Z</time>
      </trkpt>
      <trkpt lat="49.95488" lon="2.3686">
        <ele>103.1</ele>
        <time>2023-01-04T15:04:24Z</time>
      </trkpt>
      <trkpt lat="49.95487" lon="2.36859">
        <ele>103.1</ele>
        <time>2023-01-04T15:04:25Z</time>
      </trkpt>
      <trkpt lat="49.95487" lon="2.36858">
        <ele>103</ele>
        <time>2023-01-04T15:04:26Z</time>
      </trkpt>
      <trkpt lat="49.95486" lon="2.36857">
        <ele>103</ele>
        <time>2023-01-04T15:04:27Z</time>
      </trkpt>
      <trkpt lat="49.95485" lon="2.36856">
        <ele>103</ele>
        <time>2023-01-04T15:04:29Z</time>
      </trkpt>
      <trkpt lat="49.95484" lon="2.36855">
        <ele>103</ele>
        <time>2023-01-04T15:04:30Z</time>
      </trkpt>
      <trkpt lat="49.95483" lon="2.36854">
        <ele>102.9</ele>
        <time>2023-01-04T15:04:31Z</time>
      </trkpt>
      <trkpt lat="49.95482" lon="2.36853">
        <ele>102.9</ele>
        <time>2023-01-04T15:04:32Z</time>
      </trkpt>
      <trkpt lat="49.95482" lon="2.36852">
        <ele>102.9</ele>
        <time>2023-01-04T15:04:33Z</time>
      </trkpt>
      <trkpt lat="49.9548" lon="2.3685">
        <ele>102.8</ele>
        <time>2023-01-04T15:04:34Z</time>
      </trkpt>
      <trkpt lat="49.95479" lon="2.36848">
        <ele>102.8</ele>
        <time>2023-01-04T15:04:36Z</time>
      </trkpt>
      <trkpt lat="49.95478" lon="2.36847">
        <ele>102.8</ele>
        <time>2023-01-04T15:04:37Z</time>
      </trkpt>
      <trkpt lat="49.95477" lon="2.36846">
        <ele>102.7</ele>
        <time>2023-01-04T15:04:38Z</time>
      </trkpt>
      <trkpt lat="49.95476" lon="2.36844">
        <ele>102.7</ele>
        <time>2023-01-04T15:04:39Z</time>
      </trkpt>
      <trkpt lat="49.95475" lon="2.36843">
        <ele>102.7</ele>
        <time>2023-01-04T15:04:40Z</time>
      </trkpt>
      <trkpt lat="49.95473" lon="2.36841">
        <ele>102.6</ele>
        <time>2023-01-04T15:04:41Z</time>
      </trkpt>
      <trkpt lat="49.95473" lon="2.3684">
        <ele>102.6</ele>
        <time>2023-01-04T15:04:43Z</time>
      </trkpt>
      <trkpt lat="49.95472" lon="2.36838">
        <ele>102.5</ele>
        <time>2023-01-04T15:04:44Z</time>
      </trkpt>
      <trkpt lat="49.95471" lon="2.36838">
        <ele>102.5</ele>
        <time>2023-01-04T15:04:45Z</time>
      </trkpt>
      <trkpt lat="49.9547" lon="2.36837">
        <ele>102.5</ele>
        <time>2023-01-04T15:04:46Z</time>
      </trkpt>
      <trkpt lat="49.9547" lon="2.36836">
        <ele>102.5</ele>
        <time>2023-01-04T15:04:47Z</time>
      </trkpt>
      <trkpt lat="49.95468" lon="2.36834">
        <ele>102.4</ele>
        <time>2023-01-04T15:04:48Z</time>
      </trkpt>
      <trkpt lat="49.95467" lon="2.36833">
        <ele>102.4</ele>
        <time>2023-01-04T15:04:49Z</time>
      </trkpt>
      <trkpt lat="49.95466" lon="2.36832">
        <ele>102.4</ele>
        <time>2023-01-04T15:04:51Z</time>
      </trkpt>
      <trkpt lat="49.95466" lon="2.36831">
        <ele>102.3</ele>
        <time>2023-01-04T15:04:52Z</time>
      </trkpt>
      <trkpt lat="49.95465" lon="2.3683">
        <ele>102.3</ele>
        <time>2023-01-04T15:04:53Z</time>
      </trkpt>
      <trkpt lat="49.95464" lon="2.36829">
        <ele>102.3</ele>
        <time>2023-01-04T15:04:54Z</time>
      </trkpt>
      <trkpt lat="49.95462" lon="2.36828">
        <ele>102.2</ele>
        <time>2023-01-04T15:04:55Z</time>
      </trkpt>
      <trkpt lat="49.95462" lon="2.36827">
        <ele>102.2</ele>
        <time>2023-01-04T15:04:57Z</time>
      </trkpt>
      <trkpt lat="49.95461" lon="2.36826">
        <ele>102.2</ele>
        <time>2023-01-04T15:04:58Z</time>
      </trkpt>
      <trkpt lat="49.95459" lon="2.36825">
        <ele>102.2</ele>
        <time>2023-01-04T15:04:59Z</time>
      </trkpt>
      <trkpt lat="49.95459" lon="2.36824">
        <ele>102.1</ele>
        <time>2023-01-04T15:05:00Z</time>
      </trkpt>
      <trkpt lat="49.95458" lon="2.36823">
        <ele>102.1</ele>
        <time>2023-01-04T15:05:01Z</time>
      </trkpt>
      <trkpt lat="49.95458" lon="2.36823">
        <ele>102.1</ele>
        <time>2023-01-04T15:05:02Z</time>
      </trkpt>
      <trkpt lat="49.95457" lon="2.36822">
        <ele>102.1</ele>
        <time>2023-01-04T15:05:04Z</time>
      </trkpt>
      <trkpt lat="49.95456" lon="2.36821">
        <ele>102</ele>
        <time>2023-01-04T15:05:05Z</time>
      </trkpt>
      <trkpt lat="49.95455" lon="2.3682">
        <ele>102</ele>
        <time>2023-01-04T15:05:06Z</time>
      </trkpt>
      <trkpt lat="49.95453" lon="2.36819">
        <ele>102</ele>
        <time>2023-01-04T15:05:07Z</time>
      </trkpt>
      <trkpt lat="49.95453" lon="2.36818">
        <ele>102</ele>
        <time>2023-01-04T15:05:08Z</time>
      </trkpt>
      <trkpt lat="49.95452" lon="2.36817">
        <ele>101.9</ele>
        <time>2023-01-04T15:05:09Z</time>
      </trkpt>
      <trkpt lat="49.95451" lon="2.36816">
        <ele>101.9</ele>
        <time>2023-01-04T15:05:10Z</time>
      </trkpt>
      <trkpt lat="49.9545" lon="2.36816">
        <ele>101.9</ele>
        <time>2023-01-04T15:05:12Z</time>
      </trkpt>
      <trkpt lat="49.95449" lon="2.36815">
        <ele>101.8</ele>
        <time>2023-01-04T15:05:13Z</time>
      </trkpt>
      <trkpt lat="49.95447" lon="2.36813">
        <ele>101.8</ele>
        <time>2023-01-04T15:05:14Z</time>
      </trkpt>
      <trkpt lat="49.95446" lon="2.36811">
        <ele>101.7</ele>
        <time>2023-01-04T15:05:15Z</time>
      </trkpt>
      <trkpt lat="49.95445" lon="2.36811">
        <ele>101.7</ele>
        <time>2023-01-04T15:05:16Z</time>
      </trkpt>
      <trkpt lat="49.95444" lon="2.3681">
        <ele>101.7</ele>
        <time>2023-01-04T15:05:17Z</time>
      </trkpt>
      <trkpt lat="49.95443" lon="2.36809">
        <ele>101.7</ele>
        <time>2023-01-04T15:05:18Z</time>
      </trkpt>
      <trkpt lat="49.95441" lon="2.36807">
        <ele>101.6</ele>
        <time>2023-01-04T15:05:19Z</time>
      </trkpt>
      <trkpt lat="49.95441" lon="2.36806">
        <ele>101.6</ele>
        <time>2023-01-04T15:05:20Z</time>
      </trkpt>
      <trkpt lat="49.9544" lon="2.36804">
        <ele>101.6</ele>
        <time>2023-01-04T15:05:21Z</time>
      </trkpt>
      <trkpt lat="49.95439" lon="2.36802">
        <ele>101.5</ele>
        <time>2023-01-04T15:05:23Z</time>
      </trkpt>
      <trkpt lat="49.95437" lon="2.368">
        <ele>101.5</ele>
        <time>2023-01-04T15:05:24Z</time>
      </trkpt>
      <trkpt lat="49.95436" lon="2.36799">
        <ele>101.4</ele>
        <time>2023-01-04T15:05:25Z</time>
      </trkpt>
      <trkpt lat="49.95435" lon="2.36799">
        <ele>101.4</ele>
        <time>2023-01-04T15:05:26Z</time>
      </trkpt>
      <trkpt lat="49.95434" lon="2.36798">
        <ele>101.4</ele>
        <time>2023-01-04T15:05:27Z</time>
      </trkpt>
      <trkpt lat="49.95433" lon="2.36797">
        <ele>101.3</ele>
        <time>2023-01-04T15:05:28Z</time>
      </trkpt>
      <trkpt lat="49.95431" lon="2.36795">
        <ele>101.3</ele>
        <time>2023-01-04T15:05:29Z</time>
      </trkpt>
      <trkpt lat="49.9543" lon="2.36794">
        <ele>101.2</ele>
        <time>2023-01-04T15:05:31Z</time>
      </trkpt>
      <trkpt lat="49.95429" lon="2.36793">
        <ele>101.2</ele>
        <time>2023-01-04T15:05:32Z</time>
      </trkpt>
      <trkpt lat="49.95428" lon="2.36792">
        <ele>101.2</ele>
        <time>2023-01-04T15:05:33Z</time>
      </trkpt>
      <trkpt lat="49.95427" lon="2.36791">
        <ele>101.2</ele>
        <time>2023-01-04T15:05:34Z</time>
      </trkpt>
      <trkpt lat="49.95425" lon="2.3679">
        <ele>101.1</ele>
        <time>2023-01-04T15:05:36Z</time>
      </trkpt>
      <trkpt lat="49.95424" lon="2.36789">
        <ele>101.1</ele>
        <time>2023-01-04T15:05:37Z</time>
      </trkpt>
      <trkpt lat="49.95424" lon="2.36788">
        <ele>101.1</ele>
        <time>2023-01-04T15:05:38Z</time>
      </trkpt>
      <trkpt lat="49.95422" lon="2.36787">
        <ele>101</ele>
        <time>2023-01-04T15:05:39Z</time>
      </trkpt>
      <trkpt lat="49.95422" lon="2.36786">
        <ele>101</ele>
        <time>2023-01-04T15:05:40Z</time>
      </trkpt>
      <trkpt lat="49.95421" lon="2.36785">
        <ele>101</ele>
        <time>2023-01-04T15:05:41Z</time>
      </trkpt>
      <trkpt lat="49.95419" lon="2.36784">
        <ele>100.9</ele>
        <time>2023-01-04T15:05:42Z</time>
      </trkpt>
      <trkpt lat="49.95418" lon="2.36783">
        <ele>100.9</ele>
        <time>2023-01-04T15:05:43Z</time>
      </trkpt>
      <trkpt lat="49.95417" lon="2.36783">
        <ele>100.9</ele>
        <time>2023-01-04T15:05:44Z</time>
      </trkpt>
      <trkpt lat="49.95416" lon="2.36782">
        <ele>100.9</ele>
        <time>2023-01-04T15:05:46Z</time>
      </trkpt>
      <trkpt lat="49.95416" lon="2.36781">
        <ele>100.8</ele>
        <time>2023-01-04T15:05:47Z</time>
      </trkpt>
      <trkpt lat="49.95415" lon="2.3678">
        <ele>100.8</ele>
        <time>2023-01-04T15:05:48Z</time>
      </trkpt>
      <trkpt lat="49.95413" lon="2.36779">
        <ele>100.8</ele>
        <time>2023-01-04T15:05:49Z</time>
      </trkpt>
      <trkpt lat="49.95412" lon="2.36778">
        <ele>100.7</ele>
        <time>2023-01-04T15:05:50Z</time>
      </trkpt>
      <trkpt lat="49.9541" lon="2.36776">
        <ele>100.7</ele>
        <time>2023-01-04T15:05:51Z</time>
      </trkpt>
      <trkpt lat="49.95409" lon="2.36775">
        <ele>100.7</ele>
        <time>2023-01-04T15:05:52Z</time>
      </trkpt>
      <trkpt lat="49.95409" lon="2.36774">
        <ele>100.6</ele>
        <time>2023-01-04T15:05:53Z</time>
      </trkpt>
      <trkpt lat="49.95407" lon="2.36772">
        <ele>100.6</ele>
        <time>2023-01-04T15:05:54Z</time>
      </trkpt>
      <trkpt lat="49.95405" lon="2.36771">
        <ele>100.5</ele>
        <time>2023-01-04T15:05:56Z</time>
      </trkpt>
      <trkpt lat="49.95403" lon="2.3677">
        <ele>100.5</ele>
        <time>2023-01-04T15:05:57Z</time>
      </trkpt>
      <trkpt lat="49.95402" lon="2.36768">
        <ele>100.4</ele>
        <time>2023-01-04T15:05:58Z</time>
      </trkpt>
      <trkpt lat="49.95399" lon="2.36767">
        <ele>100.4</ele>
        <time>2023-01-04T15:05:59Z</time>
      </trkpt>
      <trkpt lat="49.95398" lon="2.36765">
        <ele>100.3</ele>
        <time>2023-01-04T15:06:01Z</time>
      </trkpt>
      <trkpt lat="49.95395" lon="2.36763">
        <ele>100.2</ele>
        <time>2023-01-04T15:06:02Z</time>
      </trkpt>
      <trkpt lat="49.95395" lon="2.36762">
        <ele>100.2</ele>
        <time>2023-01-04T15:06:03Z</time>
      </trkpt>
      <trkpt lat="49.95392" lon="2.36759">
        <ele>100.1</ele>
        <time>2023-01-04T15:06:05Z</time>
      </trkpt>
      <trkpt lat="49.95391" lon="2.36758">
        <ele>100.1</ele>
        <time>2023-01-04T15:06:06Z</time>
      </trkpt>
      <trkpt lat="49.9539" lon="2.36757">
        <ele>100.1</ele>
        <time>2023-01-04T15:06:07Z</time>
      </trkpt>
      <trkpt lat="49.95389" lon="2.36755">
        <ele>100</ele>
        <time>2023-01-04T15:06:08Z</time>
      </trkpt>
      <trkpt lat="49.95387" lon="2.36754">
        <ele>100</ele>
        <time>2023-01-04T15:06:09Z</time>
      </trkpt>
      <trkpt lat="49.95386" lon="2.36753">
        <ele>100</ele>
        <time>2023-01-04T15:06:10Z</time>
      </trkpt>
      <trkpt lat="49.95385" lon="2.36752">
        <ele>99.9</ele>
        <time>2023-01-04T15:06:11Z</time>
      </trkpt>
      <trkpt lat="49.95384" lon="2.36751">
        <ele>99.9</ele>
        <time>2023-01-04T15:06:12Z</time>
      </trkpt>
      <trkpt lat="49.95383" lon="2.3675">
        <ele>99.9</ele>
        <time>2023-01-04T15:06:13Z</time>
      </trkpt>
      <trkpt lat="49.95381" lon="2.36748">
        <ele>99.8</ele>
        <time>2023-01-04T15:06:15Z</time>
      </trkpt>
      <trkpt lat="49.9538" lon="2.36747">
        <ele>99.8</ele>
        <time>2023-01-04T15:06:16Z</time>
      </trkpt>
      <trkpt lat="49.95379" lon="2.36747">
        <ele>99.8</ele>
        <time>2023-01-04T15:06:17Z</time>
      </trkpt>
      <trkpt lat="49.95378" lon="2.36746">
        <ele>99.7</ele>
        <time>2023-01-04T15:06:18Z</time>
      </trkpt>
      <trkpt lat="49.95377" lon="2.36744">
        <ele>99.7</ele>
        <time>2023-01-04T15:06:20Z</time>
      </trkpt>
      <trkpt lat="49.95376" lon="2.36744">
        <ele>99.7</ele>
        <time>2023-01-04T15:06:21Z</time>
      </trkpt>
      <trkpt lat="49.95375" lon="2.36742">
        <ele>99.6</ele>
        <time>2023-01-04T15:06:22Z</time>
      </trkpt>
      <trkpt lat="49.95374" lon="2.36741">
        <ele>99.6</ele>
        <time>2023-01-04T15:06:23Z</time>
      </trkpt>
      <trkpt lat="49.95373" lon="2.36741">
        <ele>99.6</ele>
        <time>2023-01-04T15:06:24Z</time>
      </trkpt>
      <trkpt lat="49.95371" lon="2.36739">
        <ele>99.5</ele>
        <time>2023-01-04T15:06:25Z</time>
      </trkpt>
      <trkpt lat="49.9537" lon="2.36738">
        <ele>99.5</ele>
        <time>2023-01-04T15:06:26Z</time>
      </trkpt>
      <trkpt lat="49.95368" lon="2.36736">
        <ele>99.4</ele>
        <time>2023-01-04T15:06:28Z</time>
      </trkpt>
      <trkpt lat="49.95367" lon="2.36735">
        <ele>99.4</ele>
        <time>2023-01-04T15:06:29Z</time>
      </trkpt>
      <trkpt lat="49.95366" lon="2.36734">
        <ele>99.4</ele>
        <time>2023-01-04T15:06:30Z</time>
      </trkpt>
      <trkpt lat="49.95365" lon="2.36733">
        <ele>99.4</ele>
        <time>2023-01-04T15:06:31Z</time>
      </trkpt>
      <trkpt lat="49.95364" lon="2.36732">
        <ele>99.4</ele>
        <time>2023-01-04T15:06:32Z</time>
      </trkpt>
      <trkpt lat="49.95363" lon="2.36731">
        <ele>99.3</ele>
        <time>2023-01-04T15:06:34Z</time>
      </trkpt>
      <trkpt lat="49.95362" lon="2.36729">
        <ele>99.3</ele>
        <time>2023-01-04T15:06:35Z</time>
      </trkpt>
      <trkpt lat="49.95361" lon="2.36729">
        <ele>99.3</ele>
        <time>2023-01-04T15:06:36Z</time>
      </trkpt>
      <trkpt lat="49.9536" lon="2.36728">
        <ele>99.2</ele>
        <time>2023-01-04T15:06:37Z</time>
      </trkpt>
      <trkpt lat="49.95358" lon="2.36727">
        <ele>99.2</ele>
        <time>2023-01-04T15:06:38Z</time>
      </trkpt>
      <trkpt lat="49.95357" lon="2.36726">
        <ele>99.1</ele>
        <time>2023-01-04T15:06:39Z</time>
      </trkpt>
      <trkpt lat="49.95356" lon="2.36726">
        <ele>99.1</ele>
        <time>2023-01-04T15:06:40Z</time>
      </trkpt>
      <trkpt lat="49.95355" lon="2.36725">
        <ele>99.1</ele>
        <time>2023-01-04T15:06:41Z</time>
      </trkpt>
      <trkpt lat="49.95354" lon="2.36725">
        <ele>99.1</ele>
        <time>2023-01-04T15:06:43Z</time>
      </trkpt>
      <trkpt lat="49.95353" lon="2.36724">
        <ele>99.1</ele>
        <time>2023-01-04T15:06:44Z</time>
      </trkpt>
      <trkpt lat="49.95352" lon="2.36724">
        <ele>99</ele>
        <time>2023-01-04T15:06:45Z</time>
      </trkpt>
      <trkpt lat="49.95351" lon="2.36723">
        <ele>99</ele>
        <time>2023-01-04T15:06:46Z</time>
      </trkpt>
      <trkpt lat="49.9535" lon="2.36722">
        <ele>99</ele>
        <time>2023-01-04T15:06:47Z</time>
      </trkpt>
      <trkpt lat="49.95349" lon="2.36722">
        <ele>98.9</ele>
        <time>2023-01-04T15:06:48Z</time>
      </trkpt>
      <trkpt lat="49.95348" lon="2.36721">
        <ele>98.9</ele>
        <time>2023-01-04T15:06:49Z</time>
      </trkpt>
      <trkpt lat="49.95347" lon="2.36721">
        <ele>98.9</ele>
        <time>2023-01-04T15:06:51Z</time>
      </trkpt>
      <trkpt lat="49.95346" lon="2.3672">
        <ele>98.9</ele>
        <time>2023-01-04T15:06:52Z</time>
      </trkpt>
      <trkpt lat="49.95346" lon="2.3672">
        <ele>98.8</ele>
        <time>2023-01-04T15:06:53Z</time>
      </trkpt>
      <trkpt lat="49.95344" lon="2.36719">
        <ele>98.8</ele>
        <time>2023-01-04T15:06:54Z</time>
      </trkpt>
      <trkpt lat="49.95343" lon="2.36718">
        <ele>98.8</ele>
        <time>2023-01-04T15:06:55Z</time>
      </trkpt>
      <trkpt lat="49.95342" lon="2.36717">
        <ele>98.7</ele>
        <time>2023-01-04T15:06:56Z</time>
      </trkpt>
      <trkpt lat="49.95341" lon="2.36716">
        <ele>98.7</ele>
        <time>2023-01-04T15:06:57Z</time>
      </trkpt>
      <trkpt lat="49.9534" lon="2.36716">
        <ele>98.7</ele>
        <time>2023-01-04T15:06:59Z</time>
      </trkpt>
      <trkpt lat="49.95339" lon="2.36715">
        <ele>98.6</ele>
        <time>2023-01-04T15:07:00Z</time>
      </trkpt>
      <trkpt lat="49.95338" lon="2.36714">
        <ele>98.6</ele>
        <time>2023-01-04T15:07:01Z</time>
      </trkpt>
      <trkpt lat="49.95336" lon="2.36712">
        <ele>98.6</ele>
        <time>2023-01-04T15:07:02Z</time>
      </trkpt>
      <trkpt lat="49.95335" lon="2.36711">
        <ele>98.5</ele>
        <time>2023-01-04T15:07:03Z</time>
      </trkpt>
      <trkpt lat="49.95334" lon="2.3671">
        <ele>98.5</ele>
        <time>2023-01-04T15:07:04Z</time>
      </trkpt>
      <trkpt lat="49.95333" lon="2.36709">
        <ele>98.5</ele>
        <time>2023-01-04T15:07:05Z</time>
      </trkpt>
      <trkpt lat="49.95332" lon="2.36707">
        <ele>98.4</ele>
        <time>2023-01-04T15:07:07Z</time>
      </trkpt>
      <trkpt lat="49.9533" lon="2.36706">
        <ele>98.4</ele>
        <time>2023-01-04T15:07:08Z</time>
      </trkpt>
      <trkpt lat="49.95329" lon="2.36705">
        <ele>98.3</ele>
        <time>2023-01-04T15:07:09Z</time>
      </trkpt>
      <trkpt lat="49.95328" lon="2.36704">
        <ele>98.3</ele>
        <time>2023-01-04T15:07:10Z</time>
      </trkpt>
      <trkpt lat="49.95326" lon="2.36702">
        <ele>98.3</ele>
        <time>2023-01-04T15:07:11Z</time>
      </trkpt>
      <trkpt lat="49.95326" lon="2.36701">
        <ele>98.2</ele>
        <time>2023-01-04T15:07:12Z</time>
      </trkpt>
      <trkpt lat="49.95325" lon="2.367">
        <ele>98.2</ele>
        <time>2023-01-04T15:07:13Z</time>
      </trkpt>
      <trkpt lat="49.95323" lon="2.36698">
        <ele>98.1</ele>
        <time>2023-01-04T15:07:14Z</time>
      </trkpt>
      <trkpt lat="49.95322" lon="2.36697">
        <ele>98.1</ele>
        <time>2023-01-04T15:07:16Z</time>
      </trkpt>
      <trkpt lat="49.95321" lon="2.36696">
        <ele>98.1</ele>
        <time>2023-01-04T15:07:17Z</time>
      </trkpt>
      <trkpt lat="49.9532" lon="2.36695">
        <ele>98.1</ele>
        <time>2023-01-04T15:07:18Z</time>
      </trkpt>
      <trkpt lat="49.9532" lon="2.36694">
        <ele>98</ele>
        <time>2023-01-04T15:07:19Z</time>
      </trkpt>
      <trkpt lat="49.95318" lon="2.36692">
        <ele>98</ele>
        <time>2023-01-04T15:07:20Z</time>
      </trkpt>
      <trkpt lat="49.95318" lon="2.36691">
        <ele>98</ele>
        <time>2023-01-04T15:07:21Z</time>
      </trkpt>
      <trkpt lat="49.95317" lon="2.36689">
        <ele>97.9</ele>
        <time>2023-01-04T15:07:22Z</time>
      </trkpt>
      <trkpt lat="49.95316" lon="2.36688">
        <ele>97.9</ele>
        <time>2023-01-04T15:07:23Z</time>
      </trkpt>
      <trkpt lat="49.95315" lon="2.36687">
        <ele>97.9</ele>
        <time>2023-01-04T15:07:24Z</time>
      </trkpt>
      <trkpt lat="49.95314" lon="2.36684">
        <ele>97.8</ele>
        <time>2023-01-04T15:07:26Z</time>
      </trkpt>
      <trkpt lat="49.95313" lon="2.36683">
        <ele>97.8</ele>
        <time>2023-01-04T15:07:27Z</time>
      </trkpt>
      <trkpt lat="49.95313" lon="2.36682">
        <ele>97.8</ele>
        <time>2023-01-04T15:07:28Z</time>
      </trkpt>
      <trkpt lat="49.95311" lon="2.3668">
        <ele>97.7</ele>
        <time>2023-01-04T15:07:29Z</time>
      </trkpt>
      <trkpt lat="49.95311" lon="2.36679">
        <ele>97.7</ele>
        <time>2023-01-04T15:07:30Z</time>
      </trkpt>
      <trkpt lat="49.9531" lon="2.36678">
        <ele>97.7</ele>
        <time>2023-01-04T15:07:31Z</time>
      </trkpt>
      <trkpt lat="49.95309" lon="2.36675">
        <ele>97.6</ele>
        <time>2023-01-04T15:07:32Z</time>
      </trkpt>
      <trkpt lat="49.95308" lon="2.36673">
        <ele>97.6</ele>
        <time>2023-01-04T15:07:34Z</time>
      </trkpt>
      <trkpt lat="49.95307" lon="2.36672">
        <ele>97.5</ele>
        <time>2023-01-04T15:07:35Z</time>
      </trkpt>
      <trkpt lat="49.95307" lon="2.36671">
        <ele>97.5</ele>
        <time>2023-01-04T15:07:36Z</time>
      </trkpt>
      <trkpt lat="49.95306" lon="2.3667">
        <ele>97.5</ele>
        <time>2023-01-04T15:07:37Z</time>
      </trkpt>
      <trkpt lat="49.95305" lon="2.36668">
        <ele>97.5</ele>
        <time>2023-01-04T15:07:38Z</time>
      </trkpt>
      <trkpt lat="49.95304" lon="2.36665">
        <ele>97.4</ele>
        <time>2023-01-04T15:07:39Z</time>
      </trkpt>
      <trkpt lat="49.95303" lon="2.36664">
        <ele>97.4</ele>
        <time>2023-01-04T15:07:40Z</time>
      </trkpt>
      <trkpt lat="49.95302" lon="2.36663">
        <ele>97.4</ele>
        <time>2023-01-04T15:07:42Z</time>
      </trkpt>
      <trkpt lat="49.95302" lon="2.36662">
        <ele>97.3</ele>
        <time>2023-01-04T15:07:43Z</time>
      </trkpt>
      <trkpt lat="49.95301" lon="2.36661">
        <ele>97.3</ele>
        <time>2023-01-04T15:07:44Z</time>
      </trkpt>
      <trkpt lat="49.953" lon="2.3666">
        <ele>97.3</ele>
        <time>2023-01-04T15:07:45Z</time>
      </trkpt>
      <trkpt lat="49.953" lon="2.36659">
        <ele>97.3</ele>
        <time>2023-01-04T15:07:46Z</time>
      </trkpt>
      <trkpt lat="49.95299" lon="2.36658">
        <ele>97.2</ele>
        <time>2023-01-04T15:07:48Z</time>
      </trkpt>
      <trkpt lat="49.95298" lon="2.36657">
        <ele>97.2</ele>
        <time>2023-01-04T15:07:49Z</time>
      </trkpt>
      <trkpt lat="49.95298" lon="2.36655">
        <ele>97.2</ele>
        <time>2023-01-04T15:07:50Z</time>
      </trkpt>
      <trkpt lat="49.95298" lon="2.36655">
        <ele>97.2</ele>
        <time>2023-01-04T15:07:51Z</time>
      </trkpt>
      <trkpt lat="49.95298" lon="2.36654">
        <ele>97.2</ele>
        <time>2023-01-04T15:07:52Z</time>
      </trkpt>
      <trkpt lat="49.95299" lon="2.36653">
        <ele>97.1</ele>
        <time>2023-01-04T15:07:53Z</time>
      </trkpt>
      <trkpt lat="49.953" lon="2.36653">
        <ele>97.1</ele>
        <time>2023-01-04T15:07:54Z</time>
      </trkpt>
      <trkpt lat="49.953" lon="2.36652">
        <ele>97.1</ele>
        <time>2023-01-04T15:07:56Z</time>
      </trkpt>
      <trkpt lat="49.953" lon="2.36653">
        <ele>97.1</ele>
        <time>2023-01-04T15:07:57Z</time>
      </trkpt>
      <trkpt lat="49.953" lon="2.36653">
        <ele>97.1</ele>
        <time>2023-01-04T15:07:58Z</time>
      </trkpt>
      <trkpt lat="49.953" lon="2.36653">
        <ele>97.1</ele>
        <time>2023-01-04T15:08:00Z</time>
      </trkpt>
      <trkpt lat="49.95301" lon="2.36653">
        <ele>97.1</ele>
        <time>2023-01-04T15:08:01Z</time>
      </trkpt>
      <trkpt lat="49.95301" lon="2.36653">
        <ele>97.1</ele>
        <time>2023-01-04T15:08:02Z</time>
      </trkpt>
      <trkpt lat="49.95301" lon="2.36653">
        <ele>97.1</ele>
        <time>2023-01-04T15:08:04Z</time>
      </trkpt>
      <trkpt lat="49.95301" lon="2.36653">
        <ele>97.1</ele>
        <time>2023-01-04T15:08:05Z</time>
      </trkpt>
      <trkpt lat="49.95301" lon="2.36653">
        <ele>97.1</ele>
        <time>2023-01-04T15:08:06Z</time>
      </trkpt>
      <trkpt lat="49.95301" lon="2.36653">
        <ele>97.1</ele>
        <time>2023-01-04T15:08:08Z</time>
      </trkpt>
      <trkpt lat="49.95301" lon="2.36653">
        <ele>97.1</ele>
        <time>2023-01-04T15:08:09Z</time>
      </trkpt>
      <trkpt lat="49.95301" lon="2.36654">
        <ele>97.1</ele>
        <time>2023-01-04T15:08:10Z</time>
      </trkpt>
      <trkpt lat="49.95301" lon="2.36654">
        <ele>97.1</ele>
        <time>2023-01-04T15:08:11Z</time>
      </trkpt>
      <trkpt lat="49.95301" lon="2.36654">
        <ele>97.1</ele>
        <time>2023-01-04T15:08:12Z</time>
      </trkpt>
      <trkpt lat="49.95301" lon="2.36654">
        <ele>97.1</ele>
        <time>2023-01-04T15:08:13Z</time>
      </trkpt>
      <trkpt lat="49.95301" lon="2.36654">
        <ele>97.1</ele>
        <time>2023-01-04T15:08:14Z</time>
      </trkpt>
      <trkpt lat="49.95301" lon="2.36654">
        <ele>97.1</ele>
        <time>2023-01-04T15:08:15Z</time>
      </trkpt>
      <trkpt lat="49.95301" lon="2.36654">
        <ele>97.1</ele>
        <time>2023-01-04T15:08:16Z</time>
      </trkpt>
      <trkpt lat="49.95301" lon="2.36654">
        <ele>97.1</ele>
        <time>2023-01-04T15:08:17Z</time>
      </trkpt>
      <trkpt lat="49.95301" lon="2.36654">
        <ele>97.1</ele>
        <time>2023-01-04T15:08:18Z</time>
      </trkpt>
      <trkpt lat="49.95301" lon="2.36654">
        <ele>97.1</ele>
        <time>2023-01-04T15:08:19Z</time>
      </trkpt>
      <trkpt lat="49.95301" lon="2.36654">
        <ele>97.1</ele>
        <time>2023-01-04T15:08:20Z</time>
      </trkpt>
      <trkpt lat="49.95301" lon="2.36654">
        <ele>97.1</ele>
        <time>2023-01-04T15:08:21Z</time>
      </trkpt>
      <trkpt lat="49.95301" lon="2.36654">
        <ele>97.1</ele>
        <time>2023-01-04T15:08:22Z</time>
      </trkpt>
      <trkpt lat="49.95301" lon="2.36654">
        <ele>97.1</ele>
        <time>2023-01-04T15:08:23Z</time>
      </trkpt>
      <trkpt lat="49.95301" lon="2.36654">
        <ele>97.1</ele>
        <time>2023-01-04T15:08:24Z</time>
      </trkpt>
      <trkpt lat="49.95301" lon="2.36654">
        <ele>97.1</ele>
        <time>2023-01-04T15:08:25Z</time>
      </trkpt>
      <trkpt lat="49.95301" lon="2.36654">
        <ele>97.1</ele>
        <time>2023-01-04T15:08:26Z</time>
      </trkpt>
      <trkpt lat="49.95301" lon="2.36654">
        <ele>97.1</ele>
        <time>2023-01-04T15:08:27Z</time>
      </trkpt>
      <trkpt lat="49.95301" lon="2.36654">
        <ele>97.1</ele>
        <time>2023-01-04T15:08:28Z</time>
      </trkpt>
      <trkpt lat="49.95301" lon="2.36654">
        <ele>97.1</ele>
        <time>2023-01-04T15:08:29Z</time>
      </trkpt>
      <trkpt lat="49.95301" lon="2.36654">
        <ele>97.1</ele>
        <time>2023-01-04T15:08:30Z</time>
      </trkpt>
      <trkpt lat="49.95301" lon="2.36654">
        <ele>97.1</ele>
        <time>2023-01-04T15:08:31Z</time>
      </trkpt>
      <trkpt lat="49.95301" lon="2.36654">
        <ele>97.1</ele>
        <time>2023-01-04T15:08:32Z</time>
      </trkpt>
      <trkpt lat="49.95301" lon="2.36654">
        <ele>97.1</ele>
        <time>2023-01-04T15:08:33Z</time>
      </trkpt>
      <trkpt lat="49.95301" lon="2.36654">
        <ele>97.1</ele>
        <time>2023-01-04T15:08:34Z</time>
      </trkpt>
      <trkpt lat="49.95301" lon="2.36654">
        <ele>97.1</ele>
        <time>2023-01-04T15:08:35Z</time>
      </trkpt>
      <trkpt lat="49.95301" lon="2.36654">
        <ele>97.1</ele>
        <time>2023-01-04T15:08:36Z</time>
      </trkpt>
      <trkpt lat="49.95301" lon="2.36654">
        <ele>97.1</ele>
        <time>2023-01-04T15:08:37Z</time>
      </trkpt>
      <trkpt lat="49.95301" lon="2.36654">
        <ele>97.1</ele>
        <time>2023-01-04T15:08:38Z</time>
      </trkpt>
      <trkpt lat="49.95301" lon="2.36654">
        <ele>97.1</ele>
        <time>2023-01-04T15:08:39Z</time>
      </trkpt>
      <trkpt lat="49.95301" lon="2.36654">
        <ele>97.1</ele>
        <time>2023-01-04T15:08:40Z</time>
      </trkpt>
      <trkpt lat="49.95301" lon="2.36654">
        <ele>97.1</ele>
        <time>2023-01-04T15:08:41Z</time>
      </trkpt>
      <trkpt lat="49.95301" lon="2.36654">
        <ele>97.1</ele>
        <time>2023-01-04T15:08:42Z</time>
      </trkpt>
      <trkpt lat="49.95301" lon="2.36654">
        <ele>97.1</ele>
        <time>2023-01-04T15:08:43Z</time>
      </trkpt>
      <trkpt lat="49.95301" lon="2.36654">
        <ele>97.1</ele>
        <time>2023-01-04T15:08:44Z</time>
      </trkpt>
      <trkpt lat="49.95301" lon="2.36654">
        <ele>97.1</ele>
        <time>2023-01-04T15:08:45Z</time>
      </trkpt>
      <trkpt lat="49.95301" lon="2.36654">
        <ele>97.1</ele>
        <time>2023-01-04T15:08:46Z</time>
      </trkpt>
      <trkpt lat="49.95301" lon="2.36654">
        <ele>97.1</ele>
        <time>2023-01-04T15:08:47Z</time>
      </trkpt>
      <trkpt lat="49.95301" lon="2.36654">
        <ele>97.1</ele>
        <time>2023-01-04T15:08:48Z</time>
      </trkpt>
      <trkpt lat="49.95301" lon="2.36654">
        <ele>97.1</ele>
        <time>2023-01-04T15:08:49Z</time>
      </trkpt>
      <trkpt lat="49.95301" lon="2.36654">
        <ele>97.1</ele>
        <time>2023-01-04T15:08:50Z</time>
      </trkpt>
      <trkpt lat="49.95301" lon="2.36654">
        <ele>97.1</ele>
        <time>2023-01-04T15:08:51Z</time>
      </trkpt>
      <trkpt lat="49.95301" lon="2.36654">
        <ele>97.1</ele>
        <time>2023-01-04T15:08:52Z</time>
      </trkpt>
      <trkpt lat="49.95301" lon="2.36654">
        <ele>97.1</ele>
        <time>2023-01-04T15:08:53Z</time>
      </trkpt>
      <trkpt lat="49.95301" lon="2.36654">
        <ele>97.1</ele>
        <time>2023-01-04T15:08:54Z</time>
      </trkpt>
      <trkpt lat="49.95301" lon="2.36654">
        <ele>97.1</ele>
        <time>2023-01-04T15:08:55Z</time>
      </trkpt>
      <trkpt lat="49.95301" lon="2.36654">
        <ele>97.1</ele>
        <time>2023-01-04T15:08:56Z</time>
      </trkpt>
      <trkpt lat="49.95301" lon="2.36654">
        <ele>97.1</ele>
        <time>2023-01-04T15:08:57Z</time>
      </trkpt>
      <trkpt lat="49.95301" lon="2.36654">
        <ele>97.1</ele>
        <time>2023-01-04T15:08:58Z</time>
      </trkpt>
      <trkpt lat="49.95301" lon="2.36654">
        <ele>97.1</ele>
        <time>2023-01-04T15:08:59Z</time>
      </trkpt>
      <trkpt lat="49.95301" lon="2.36654">
        <ele>97.1</ele>
        <time>2023-01-04T15:09:00Z</time>
      </trkpt>
      <trkpt lat="49.95301" lon="2.36654">
        <ele>97.1</ele>
        <time>2023-01-04T15:09:01Z</time>
      </trkpt>
      <trkpt lat="49.95301" lon="2.36654">
        <ele>97.1</ele>
        <time>2023-01-04T15:09:02Z</time>
      </trkpt>
      <trkpt lat="49.953" lon="2.36657">
        <ele>97</ele>
        <time>2023-01-04T15:09:03Z</time>
      </trkpt>
      <trkpt lat="49.953" lon="2.3666">
        <ele>97</ele>
        <time>2023-01-04T15:09:04Z</time>
      </trkpt>
      <trkpt lat="49.953" lon="2.36661">
        <ele>96.9</ele>
        <time>2023-01-04T15:09:05Z</time>
      </trkpt>
      <trkpt lat="49.953" lon="2.36661">
        <ele>96.9</ele>
        <time>2023-01-04T15:09:06Z</time>
      </trkpt>
      <trkpt lat="49.95299" lon="2.3666">
        <ele>96.9</ele>
        <time>2023-01-04T15:09:07Z</time>
      </trkpt>
      <trkpt lat="49.95299" lon="2.36659">
        <ele>96.9</ele>
        <time>2023-01-04T15:09:08Z</time>
      </trkpt>
      <trkpt lat="49.95298" lon="2.36658">
        <ele>96.8</ele>
        <time>2023-01-04T15:09:09Z</time>
      </trkpt>
      <trkpt lat="49.95297" lon="2.36657">
        <ele>96.8</ele>
        <time>2023-01-04T15:09:11Z</time>
      </trkpt>
      <trkpt lat="49.95297" lon="2.36656">
        <ele>96.8</ele>
        <time>2023-01-04T15:09:12Z</time>
      </trkpt>
      <trkpt lat="49.95296" lon="2.36656">
        <ele>96.8</ele>
        <time>2023-01-04T15:09:13Z</time>
      </trkpt>
      <trkpt lat="49.95296" lon="2.36655">
        <ele>96.8</ele>
        <time>2023-01-04T15:09:14Z</time>
      </trkpt>
      <trkpt lat="49.95295" lon="2.36654">
        <ele>96.7</ele>
        <time>2023-01-04T15:09:15Z</time>
      </trkpt>
      <trkpt lat="49.95295" lon="2.36653">
        <ele>96.7</ele>
        <time>2023-01-04T15:09:16Z</time>
      </trkpt>
      <trkpt lat="49.95294" lon="2.36652">
        <ele>96.7</ele>
        <time>2023-01-04T15:09:18Z</time>
      </trkpt>
      <trkpt lat="49.95293" lon="2.3665">
        <ele>96.7</ele>
        <time>2023-01-04T15:09:19Z</time>
      </trkpt>
      <trkpt lat="49.95292" lon="2.36648">
        <ele>96.6</ele>
        <time>2023-01-04T15:09:20Z</time>
      </trkpt>
      <trkpt lat="49.95291" lon="2.36647">
        <ele>96.6</ele>
        <time>2023-01-04T15:09:22Z</time>
      </trkpt>
      <trkpt lat="49.9529" lon="2.36646">
        <ele>96.6</ele>
        <time>2023-01-04T15:09:23Z</time>
      </trkpt>
      <trkpt lat="49.95289" lon="2.36645">
        <ele>96.5</ele>
        <time>2023-01-04T15:09:24Z</time>
      </trkpt>
      <trkpt lat="49.95288" lon="2.36645">
        <ele>96.5</ele>
        <time>2023-01-04T15:09:25Z</time>
      </trkpt>
      <trkpt lat="49.95288" lon="2.36644">
        <ele>96.5</ele>
        <time>2023-01-04T15:09:26Z</time>
      </trkpt>
      <trkpt lat="49.95287" lon="2.36642">
        <ele>96.4</ele>
        <time>2023-01-04T15:09:27Z</time>
      </trkpt>
      <trkpt lat="49.95287" lon="2.36641">
        <ele>96.4</ele>
        <time>2023-01-04T15:09:28Z</time>
      </trkpt>
      <trkpt lat="49.95286" lon="2.3664">
        <ele>96.3</ele>
        <time>2023-01-04T15:09:29Z</time>
      </trkpt>
      <trkpt lat="49.95286" lon="2.36638">
        <ele>96.3</ele>
        <time>2023-01-04T15:09:31Z</time>
      </trkpt>
      <trkpt lat="49.95286" lon="2.36637">
        <ele>96.2</ele>
        <time>2023-01-04T15:09:32Z</time>
      </trkpt>
      <trkpt lat="49.95285" lon="2.36635">
        <ele>96.2</ele>
        <time>2023-01-04T15:09:33Z</time>
      </trkpt>
      <trkpt lat="49.95284" lon="2.36633">
        <ele>96.1</ele>
        <time>2023-01-04T15:09:35Z</time>
      </trkpt>
      <trkpt lat="49.95284" lon="2.36632">
        <ele>96</ele>
        <time>2023-01-04T15:09:36Z</time>
      </trkpt>
      <trkpt lat="49.95284" lon="2.3663">
        <ele>96</ele>
        <time>2023-01-04T15:09:37Z</time>
      </trkpt>
      <trkpt lat="49.95283" lon="2.36628">
        <ele>95.9</ele>
        <time>2023-01-04T15:09:38Z</time>
      </trkpt>
      <trkpt lat="49.95283" lon="2.36627">
        <ele>95.9</ele>
        <time>2023-01-04T15:09:39Z</time>
      </trkpt>
      <trkpt lat="49.95283" lon="2.36626">
        <ele>95.8</ele>
        <time>2023-01-04T15:09:40Z</time>
      </trkpt>
      <trkpt lat="49.95282" lon="2.36624">
        <ele>95.8</ele>
        <time>2023-01-04T15:09:41Z</time>
      </trkpt>
      <trkpt lat="49.95281" lon="2.36621">
        <ele>95.7</ele>
        <time>2023-01-04T15:09:42Z</time>
      </trkpt>
      <trkpt lat="49.95281" lon="2.3662">
        <ele>95.6</ele>
        <time>2023-01-04T15:09:44Z</time>
      </trkpt>
      <trkpt lat="49.95281" lon="2.36618">
        <ele>95.6</ele>
        <time>2023-01-04T15:09:45Z</time>
      </trkpt>
      <trkpt lat="49.9528" lon="2.36616">
        <ele>95.5</ele>
        <time>2023-01-04T15:09:46Z</time>
      </trkpt>
      <trkpt lat="49.95279" lon="2.36615">
        <ele>95.4</ele>
        <time>2023-01-04T15:09:47Z</time>
      </trkpt>
      <trkpt lat="49.95278" lon="2.36613">
        <ele>95.4</ele>
        <time>2023-01-04T15:09:48Z</time>
      </trkpt>
      <trkpt lat="49.95278" lon="2.36611">
        <ele>95.3</ele>
        <time>2023-01-04T15:09:49Z</time>
      </trkpt>
      <trkpt lat="49.95277" lon="2.36609">
        <ele>95.2</ele>
        <time>2023-01-04T15:09:51Z</time>
      </trkpt>
      <trkpt lat="49.95276" lon="2.36606">
        <ele>95.1</ele>
        <time>2023-01-04T15:09:52Z</time>
      </trkpt>
      <trkpt lat="49.95276" lon="2.36605">
        <ele>95.1</ele>
        <time>2023-01-04T15:09:53Z</time>
      </trkpt>
      <trkpt lat="49.95275" lon="2.36604">
        <ele>95</ele>
        <time>2023-01-04T15:09:54Z</time>
      </trkpt>
      <trkpt lat="49.95275" lon="2.36602">
        <ele>95</ele>
        <time>2023-01-04T15:09:55Z</time>
      </trkpt>
      <trkpt lat="49.95274" lon="2.366">
        <ele>94.9</ele>
        <time>2023-01-04T15:09:56Z</time>
      </trkpt>
      <trkpt lat="49.95274" lon="2.36599">
        <ele>94.8</ele>
        <time>2023-01-04T15:09:57Z</time>
      </trkpt>
      <trkpt lat="49.95273" lon="2.36597">
        <ele>94.7</ele>
        <time>2023-01-04T15:09:59Z</time>
      </trkpt>
      <trkpt lat="49.95273" lon="2.36595">
        <ele>94.7</ele>
        <time>2023-01-04T15:10:00Z</time>
      </trkpt>
      <trkpt lat="49.95272" lon="2.36593">
        <ele>94.6</ele>
        <time>2023-01-04T15:10:01Z</time>
      </trkpt>
      <trkpt lat="49.95271" lon="2.36592">
        <ele>94.5</ele>
        <time>2023-01-04T15:10:02Z</time>
      </trkpt>
      <trkpt lat="49.95271" lon="2.36591">
        <ele>94.5</ele>
        <time>2023-01-04T15:10:03Z</time>
      </trkpt>
      <trkpt lat="49.9527" lon="2.36588">
        <ele>94.4</ele>
        <time>2023-01-04T15:10:04Z</time>
      </trkpt>
      <trkpt lat="49.9527" lon="2.36587">
        <ele>94.3</ele>
        <time>2023-01-04T15:10:05Z</time>
      </trkpt>
      <trkpt lat="49.95269" lon="2.36585">
        <ele>94.3</ele>
        <time>2023-01-04T15:10:06Z</time>
      </trkpt>
      <trkpt lat="49.95269" lon="2.36584">
        <ele>94.2</ele>
        <time>2023-01-04T15:10:07Z</time>
      </trkpt>
      <trkpt lat="49.95268" lon="2.36583">
        <ele>94.2</ele>
        <time>2023-01-04T15:10:08Z</time>
      </trkpt>
      <trkpt lat="49.95268" lon="2.36581">
        <ele>94.1</ele>
        <time>2023-01-04T15:10:09Z</time>
      </trkpt>
      <trkpt lat="49.95267" lon="2.36578">
        <ele>94</ele>
        <time>2023-01-04T15:10:11Z</time>
      </trkpt>
      <trkpt lat="49.95266" lon="2.36577">
        <ele>93.9</ele>
        <time>2023-01-04T15:10:12Z</time>
      </trkpt>
      <trkpt lat="49.95266" lon="2.36576">
        <ele>93.9</ele>
        <time>2023-01-04T15:10:13Z</time>
      </trkpt>
      <trkpt lat="49.95265" lon="2.36574">
        <ele>93.8</ele>
        <time>2023-01-04T15:10:14Z</time>
      </trkpt>
      <trkpt lat="49.95264" lon="2.36572">
        <ele>93.7</ele>
        <time>2023-01-04T15:10:15Z</time>
      </trkpt>
      <trkpt lat="49.95263" lon="2.3657">
        <ele>93.6</ele>
        <time>2023-01-04T15:10:16Z</time>
      </trkpt>
      <trkpt lat="49.95263" lon="2.36569">
        <ele>93.6</ele>
        <time>2023-01-04T15:10:17Z</time>
      </trkpt>
      <trkpt lat="49.95262" lon="2.36565">
        <ele>93.4</ele>
        <time>2023-01-04T15:10:18Z</time>
      </trkpt>
      <trkpt lat="49.95261" lon="2.36564">
        <ele>93.4</ele>
        <time>2023-01-04T15:10:19Z</time>
      </trkpt>
      <trkpt lat="49.95261" lon="2.36563">
        <ele>93.3</ele>
        <time>2023-01-04T15:10:20Z</time>
      </trkpt>
      <trkpt lat="49.9526" lon="2.36561">
        <ele>93.2</ele>
        <time>2023-01-04T15:10:22Z</time>
      </trkpt>
      <trkpt lat="49.95259" lon="2.36559">
        <ele>93.2</ele>
        <time>2023-01-04T15:10:23Z</time>
      </trkpt>
      <trkpt lat="49.95258" lon="2.36557">
        <ele>93.1</ele>
        <time>2023-01-04T15:10:24Z</time>
      </trkpt>
      <trkpt lat="49.95257" lon="2.36555">
        <ele>93</ele>
        <time>2023-01-04T15:10:25Z</time>
      </trkpt>
      <trkpt lat="49.95256" lon="2.36552">
        <ele>92.9</ele>
        <time>2023-01-04T15:10:26Z</time>
      </trkpt>
      <trkpt lat="49.95256" lon="2.36551">
        <ele>92.9</ele>
        <time>2023-01-04T15:10:27Z</time>
      </trkpt>
      <trkpt lat="49.95255" lon="2.3655">
        <ele>92.8</ele>
        <time>2023-01-04T15:10:28Z</time>
      </trkpt>
      <trkpt lat="49.95255" lon="2.36547">
        <ele>92.7</ele>
        <time>2023-01-04T15:10:29Z</time>
      </trkpt>
      <trkpt lat="49.95254" lon="2.36546">
        <ele>92.7</ele>
        <time>2023-01-04T15:10:30Z</time>
      </trkpt>
      <trkpt lat="49.95254" lon="2.36545">
        <ele>92.7</ele>
        <time>2023-01-04T15:10:31Z</time>
      </trkpt>
      <trkpt lat="49.95253" lon="2.36542">
        <ele>92.6</ele>
        <time>2023-01-04T15:10:33Z</time>
      </trkpt>
      <trkpt lat="49.95252" lon="2.36541">
        <ele>92.5</ele>
        <time>2023-01-04T15:10:34Z</time>
      </trkpt>
      <trkpt lat="49.95252" lon="2.3654">
        <ele>92.5</ele>
        <time>2023-01-04T15:10:35Z</time>
      </trkpt>
      <trkpt lat="49.95251" lon="2.36538">
        <ele>92.4</ele>
        <time>2023-01-04T15:10:36Z</time>
      </trkpt>
      <trkpt lat="49.95251" lon="2.36536">
        <ele>92.4</ele>
        <time>2023-01-04T15:10:37Z</time>
      </trkpt>
      <trkpt lat="49.95251" lon="2.36535">
        <ele>92.3</ele>
        <time>2023-01-04T15:10:38Z</time>
      </trkpt>
      <trkpt lat="49.9525" lon="2.36532">
        <ele>92.2</ele>
        <time>2023-01-04T15:10:39Z</time>
      </trkpt>
      <trkpt lat="49.9525" lon="2.3653">
        <ele>92.2</ele>
        <time>2023-01-04T15:10:41Z</time>
      </trkpt>
      <trkpt lat="49.9525" lon="2.36529">
        <ele>92.2</ele>
        <time>2023-01-04T15:10:42Z</time>
      </trkpt>
      <trkpt lat="49.95249" lon="2.36527">
        <ele>92.1</ele>
        <time>2023-01-04T15:10:43Z</time>
      </trkpt>
      <trkpt lat="49.95249" lon="2.36525">
        <ele>92.1</ele>
        <time>2023-01-04T15:10:44Z</time>
      </trkpt>
      <trkpt lat="49.95249" lon="2.36523">
        <ele>92</ele>
        <time>2023-01-04T15:10:45Z</time>
      </trkpt>
      <trkpt lat="49.95248" lon="2.3652">
        <ele>91.9</ele>
        <time>2023-01-04T15:10:46Z</time>
      </trkpt>
      <trkpt lat="49.95248" lon="2.36519">
        <ele>91.9</ele>
        <time>2023-01-04T15:10:47Z</time>
      </trkpt>
      <trkpt lat="49.95248" lon="2.36517">
        <ele>91.9</ele>
        <time>2023-01-04T15:10:48Z</time>
      </trkpt>
      <trkpt lat="49.95248" lon="2.36515">
        <ele>91.8</ele>
        <time>2023-01-04T15:10:49Z</time>
      </trkpt>
      <trkpt lat="49.95248" lon="2.36514">
        <ele>91.8</ele>
        <time>2023-01-04T15:10:50Z</time>
      </trkpt>
      <trkpt lat="49.95247" lon="2.36511">
        <ele>91.7</ele>
        <time>2023-01-04T15:10:52Z</time>
      </trkpt>
      <trkpt lat="49.95247" lon="2.3651">
        <ele>91.7</ele>
        <time>2023-01-04T15:10:53Z</time>
      </trkpt>
      <trkpt lat="49.95247" lon="2.36508">
        <ele>91.6</ele>
        <time>2023-01-04T15:10:54Z</time>
      </trkpt>
      <trkpt lat="49.95246" lon="2.36506">
        <ele>91.6</ele>
        <time>2023-01-04T15:10:55Z</time>
      </trkpt>
      <trkpt lat="49.95246" lon="2.36503">
        <ele>91.5</ele>
        <time>2023-01-04T15:10:56Z</time>
      </trkpt>
      <trkpt lat="49.95245" lon="2.36502">
        <ele>91.5</ele>
        <time>2023-01-04T15:10:57Z</time>
      </trkpt>
      <trkpt lat="49.95245" lon="2.365">
        <ele>91.4</ele>
        <time>2023-01-04T15:10:58Z</time>
      </trkpt>
      <trkpt lat="49.95244" lon="2.36499">
        <ele>91.4</ele>
        <time>2023-01-04T15:10:59Z</time>
      </trkpt>
      <trkpt lat="49.95244" lon="2.36495">
        <ele>91.3</ele>
        <time>2023-01-04T15:11:00Z</time>
      </trkpt>
      <trkpt lat="49.95243" lon="2.36493">
        <ele>91.2</ele>
        <time>2023-01-04T15:11:02Z</time>
      </trkpt>
      <trkpt lat="49.95243" lon="2.36491">
        <ele>91.2</ele>
        <time>2023-01-04T15:11:03Z</time>
      </trkpt>
      <trkpt lat="49.95243" lon="2.36489">
        <ele>91.1</ele>
        <time>2023-01-04T15:11:04Z</time>
      </trkpt>
      <trkpt lat="49.95243" lon="2.36488">
        <ele>91.1</ele>
        <time>2023-01-04T15:11:05Z</time>
      </trkpt>
      <trkpt lat="49.95242" lon="2.36484">
        <ele>91</ele>
        <time>2023-01-04T15:11:06Z</time>
      </trkpt>
      <trkpt lat="49.95242" lon="2.36483">
        <ele>91</ele>
        <time>2023-01-04T15:11:07Z</time>
      </trkpt>
      <trkpt lat="49.95241" lon="2.36481">
        <ele>90.9</ele>
        <time>2023-01-04T15:11:09Z</time>
      </trkpt>
      <trkpt lat="49.95241" lon="2.36479">
        <ele>90.9</ele>
        <time>2023-01-04T15:11:10Z</time>
      </trkpt>
      <trkpt lat="49.95241" lon="2.36478">
        <ele>90.9</ele>
        <time>2023-01-04T15:11:11Z</time>
      </trkpt>
      <trkpt lat="49.9524" lon="2.36474">
        <ele>90.8</ele>
        <time>2023-01-04T15:11:12Z</time>
      </trkpt>
      <trkpt lat="49.9524" lon="2.36473">
        <ele>90.8</ele>
        <time>2023-01-04T15:11:13Z</time>
      </trkpt>
      <trkpt lat="49.95239" lon="2.36472">
        <ele>90.7</ele>
        <time>2023-01-04T15:11:14Z</time>
      </trkpt>
      <trkpt lat="49.95239" lon="2.36471">
        <ele>90.7</ele>
        <time>2023-01-04T15:11:15Z</time>
      </trkpt>
      <trkpt lat="49.95238" lon="2.36468">
        <ele>90.6</ele>
        <time>2023-01-04T15:11:16Z</time>
      </trkpt>
      <trkpt lat="49.95237" lon="2.36465">
        <ele>90.6</ele>
        <time>2023-01-04T15:11:17Z</time>
      </trkpt>
      <trkpt lat="49.95237" lon="2.36464">
        <ele>90.5</ele>
        <time>2023-01-04T15:11:19Z</time>
      </trkpt>
      <trkpt lat="49.95236" lon="2.36462">
        <ele>90.5</ele>
        <time>2023-01-04T15:11:20Z</time>
      </trkpt>
      <trkpt lat="49.95236" lon="2.3646">
        <ele>90.5</ele>
        <time>2023-01-04T15:11:21Z</time>
      </trkpt>
      <trkpt lat="49.95235" lon="2.36457">
        <ele>90.4</ele>
        <time>2023-01-04T15:11:22Z</time>
      </trkpt>
      <trkpt lat="49.95235" lon="2.36455">
        <ele>90.4</ele>
        <time>2023-01-04T15:11:23Z</time>
      </trkpt>
      <trkpt lat="49.95234" lon="2.36453">
        <ele>90.3</ele>
        <time>2023-01-04T15:11:24Z</time>
      </trkpt>
      <trkpt lat="49.95234" lon="2.36452">
        <ele>90.3</ele>
        <time>2023-01-04T15:11:25Z</time>
      </trkpt>
      <trkpt lat="49.95233" lon="2.36449">
        <ele>90.3</ele>
        <time>2023-01-04T15:11:26Z</time>
      </trkpt>
      <trkpt lat="49.95232" lon="2.36448">
        <ele>90.2</ele>
        <time>2023-01-04T15:11:27Z</time>
      </trkpt>
      <trkpt lat="49.95232" lon="2.36446">
        <ele>90.2</ele>
        <time>2023-01-04T15:11:29Z</time>
      </trkpt>
      <trkpt lat="49.95231" lon="2.36444">
        <ele>90.2</ele>
        <time>2023-01-04T15:11:30Z</time>
      </trkpt>
      <trkpt lat="49.95231" lon="2.36443">
        <ele>90.2</ele>
        <time>2023-01-04T15:11:31Z</time>
      </trkpt>
      <trkpt lat="49.95231" lon="2.36441">
        <ele>90.1</ele>
        <time>2023-01-04T15:11:32Z</time>
      </trkpt>
      <trkpt lat="49.9523" lon="2.36439">
        <ele>90.1</ele>
        <time>2023-01-04T15:11:33Z</time>
      </trkpt>
      <trkpt lat="49.9523" lon="2.36438">
        <ele>90.1</ele>
        <time>2023-01-04T15:11:34Z</time>
      </trkpt>
      <trkpt lat="49.95229" lon="2.36436">
        <ele>90.1</ele>
        <time>2023-01-04T15:11:35Z</time>
      </trkpt>
      <trkpt lat="49.95229" lon="2.36434">
        <ele>90</ele>
        <time>2023-01-04T15:11:36Z</time>
      </trkpt>
      <trkpt lat="49.95229" lon="2.36433">
        <ele>90</ele>
        <time>2023-01-04T15:11:37Z</time>
      </trkpt>
      <trkpt lat="49.95229" lon="2.36431">
        <ele>90</ele>
        <time>2023-01-04T15:11:39Z</time>
      </trkpt>
      <trkpt lat="49.95229" lon="2.36429">
        <ele>90</ele>
        <time>2023-01-04T15:11:40Z</time>
      </trkpt>
      <trkpt lat="49.95228" lon="2.36427">
        <ele>89.9</ele>
        <time>2023-01-04T15:11:41Z</time>
      </trkpt>
      <trkpt lat="49.95228" lon="2.36425">
        <ele>89.9</ele>
        <time>2023-01-04T15:11:42Z</time>
      </trkpt>
      <trkpt lat="49.95228" lon="2.36424">
        <ele>89.9</ele>
        <time>2023-01-04T15:11:43Z</time>
      </trkpt>
      <trkpt lat="49.95228" lon="2.36423">
        <ele>89.9</ele>
        <time>2023-01-04T15:11:44Z</time>
      </trkpt>
      <trkpt lat="49.95228" lon="2.36421">
        <ele>89.9</ele>
        <time>2023-01-04T15:11:45Z</time>
      </trkpt>
      <trkpt lat="49.95227" lon="2.36419">
        <ele>89.8</ele>
        <time>2023-01-04T15:11:47Z</time>
      </trkpt>
      <trkpt lat="49.95227" lon="2.36417">
        <ele>89.8</ele>
        <time>2023-01-04T15:11:48Z</time>
      </trkpt>
      <trkpt lat="49.95226" lon="2.36415">
        <ele>89.8</ele>
        <time>2023-01-04T15:11:49Z</time>
      </trkpt>
      <trkpt lat="49.95226" lon="2.36414">
        <ele>89.9</ele>
        <time>2023-01-04T15:11:50Z</time>
      </trkpt>
      <trkpt lat="49.95226" lon="2.36413">
        <ele>89.9</ele>
        <time>2023-01-04T15:11:51Z</time>
      </trkpt>
      <trkpt lat="49.95226" lon="2.36412">
        <ele>89.9</ele>
        <time>2023-01-04T15:11:52Z</time>
      </trkpt>
      <trkpt lat="49.95225" lon="2.36411">
        <ele>90</ele>
        <time>2023-01-04T15:11:54Z</time>
      </trkpt>
      <trkpt lat="49.95223" lon="2.36411">
        <ele>90</ele>
        <time>2023-01-04T15:11:55Z</time>
      </trkpt>
      <trkpt lat="49.95223" lon="2.36411">
        <ele>90</ele>
        <time>2023-01-04T15:11:56Z</time>
      </trkpt>
      <trkpt lat="49.95221" lon="2.36411">
        <ele>90.1</ele>
        <time>2023-01-04T15:11:57Z</time>
      </trkpt>
      <trkpt lat="49.9522" lon="2.36411">
        <ele>90.1</ele>
        <time>2023-01-04T15:11:58Z</time>
      </trkpt>
      <trkpt lat="49.95219" lon="2.36411">
        <ele>90.1</ele>
        <time>2023-01-04T15:11:59Z</time>
      </trkpt>
      <trkpt lat="49.95218" lon="2.36411">
        <ele>90.2</ele>
        <time>2023-01-04T15:12:00Z</time>
      </trkpt>
      <trkpt lat="49.95217" lon="2.36409">
        <ele>90.2</ele>
        <time>2023-01-04T15:12:02Z</time>
      </trkpt>
      <trkpt lat="49.95217" lon="2.36409">
        <ele>90.2</ele>
        <time>2023-01-04T15:12:03Z</time>
      </trkpt>
      <trkpt lat="49.95217" lon="2.36408">
        <ele>90.2</ele>
        <time>2023-01-04T15:12:04Z</time>
      </trkpt>
      <trkpt lat="49.95216" lon="2.36407">
        <ele>90.2</ele>
        <time>2023-01-04T15:12:06Z</time>
      </trkpt>
      <trkpt lat="49.95216" lon="2.36407">
        <ele>90.2</ele>
        <time>2023-01-04T15:12:07Z</time>
      </trkpt>
      <trkpt lat="49.95215" lon="2.36407">
        <ele>90.2</ele>
        <time>2023-01-04T15:12:08Z</time>
      </trkpt>
      <trkpt lat="49.95215" lon="2.36407">
        <ele>90.2</ele>
        <time>2023-01-04T15:12:09Z</time>
      </trkpt>
      <trkpt lat="49.95214" lon="2.36407">
        <ele>90.2</ele>
        <time>2023-01-04T15:12:10Z</time>
      </trkpt>
      <trkpt lat="49.95213" lon="2.36407">
        <ele>90.2</ele>
        <time>2023-01-04T15:12:11Z</time>
      </trkpt>
      <trkpt lat="49.95212" lon="2.36408">
        <ele>90.2</ele>
        <time>2023-01-04T15:12:13Z</time>
      </trkpt>
      <trkpt lat="49.95211" lon="2.36408">
        <ele>90.2</ele>
        <time>2023-01-04T15:12:14Z</time>
      </trkpt>
      <trkpt lat="49.95211" lon="2.36409">
        <ele>90.2</ele>
        <time>2023-01-04T15:12:15Z</time>
      </trkpt>
      <trkpt lat="49.9521" lon="2.3641">
        <ele>90.2</ele>
        <time>2023-01-04T15:12:16Z</time>
      </trkpt>
      <trkpt lat="49.95209" lon="2.36411">
        <ele>90.2</ele>
        <time>2023-01-04T15:12:17Z</time>
      </trkpt>
      <trkpt lat="49.95209" lon="2.36412">
        <ele>90.2</ele>
        <time>2023-01-04T15:12:18Z</time>
      </trkpt>
      <trkpt lat="49.95208" lon="2.36412">
        <ele>90.2</ele>
        <time>2023-01-04T15:12:19Z</time>
      </trkpt>
      <trkpt lat="49.95207" lon="2.36413">
        <ele>90.2</ele>
        <time>2023-01-04T15:12:20Z</time>
      </trkpt>
      <trkpt lat="49.95206" lon="2.36414">
        <ele>90.1</ele>
        <time>2023-01-04T15:12:21Z</time>
      </trkpt>
      <trkpt lat="49.95206" lon="2.36414">
        <ele>90.1</ele>
        <time>2023-01-04T15:12:23Z</time>
      </trkpt>
      <trkpt lat="49.95205" lon="2.36415">
        <ele>90.1</ele>
        <time>2023-01-04T15:12:24Z</time>
      </trkpt>
      <trkpt lat="49.95204" lon="2.36415">
        <ele>90.1</ele>
        <time>2023-01-04T15:12:25Z</time>
      </trkpt>
      <trkpt lat="49.95203" lon="2.36415">
        <ele>90.1</ele>
        <time>2023-01-04T15:12:26Z</time>
      </trkpt>
      <trkpt lat="49.95202" lon="2.36415">
        <ele>90</ele>
        <time>2023-01-04T15:12:27Z</time>
      </trkpt>
      <trkpt lat="49.95201" lon="2.36414">
        <ele>90</ele>
        <time>2023-01-04T15:12:29Z</time>
      </trkpt>
      <trkpt lat="49.952" lon="2.36414">
        <ele>90</ele>
        <time>2023-01-04T15:12:30Z</time>
      </trkpt>
      <trkpt lat="49.95199" lon="2.36414">
        <ele>90</ele>
        <time>2023-01-04T15:12:31Z</time>
      </trkpt>
      <trkpt lat="49.95198" lon="2.36413">
        <ele>89.9</ele>
        <time>2023-01-04T15:12:32Z</time>
      </trkpt>
      <trkpt lat="49.95197" lon="2.36413">
        <ele>89.9</ele>
        <time>2023-01-04T15:12:33Z</time>
      </trkpt>
      <trkpt lat="49.95196" lon="2.36412">
        <ele>89.9</ele>
        <time>2023-01-04T15:12:34Z</time>
      </trkpt>
      <trkpt lat="49.95195" lon="2.36412">
        <ele>89.9</ele>
        <time>2023-01-04T15:12:35Z</time>
      </trkpt>
      <trkpt lat="49.95194" lon="2.36411">
        <ele>89.8</ele>
        <time>2023-01-04T15:12:37Z</time>
      </trkpt>
      <trkpt lat="49.95193" lon="2.3641">
        <ele>89.8</ele>
        <time>2023-01-04T15:12:38Z</time>
      </trkpt>
      <trkpt lat="49.95192" lon="2.36409">
        <ele>89.8</ele>
        <time>2023-01-04T15:12:39Z</time>
      </trkpt>
      <trkpt lat="49.95191" lon="2.36408">
        <ele>89.8</ele>
        <time>2023-01-04T15:12:40Z</time>
      </trkpt>
      <trkpt lat="49.9519" lon="2.36407">
        <ele>89.7</ele>
        <time>2023-01-04T15:12:41Z</time>
      </trkpt>
      <trkpt lat="49.95189" lon="2.36406">
        <ele>89.7</ele>
        <time>2023-01-04T15:12:42Z</time>
      </trkpt>
      <trkpt lat="49.95188" lon="2.36404">
        <ele>89.7</ele>
        <time>2023-01-04T15:12:43Z</time>
      </trkpt>
      <trkpt lat="49.95188" lon="2.36403">
        <ele>89.7</ele>
        <time>2023-01-04T15:12:44Z</time>
      </trkpt>
      <trkpt lat="49.95187" lon="2.36402">
        <ele>89.6</ele>
        <time>2023-01-04T15:12:46Z</time>
      </trkpt>
      <trkpt lat="49.95185" lon="2.36402">
        <ele>89.6</ele>
        <time>2023-01-04T15:12:47Z</time>
      </trkpt>
      <trkpt lat="49.95184" lon="2.36401">
        <ele>89.6</ele>
        <time>2023-01-04T15:12:48Z</time>
      </trkpt>
      <trkpt lat="49.95183" lon="2.364">
        <ele>89.6</ele>
        <time>2023-01-04T15:12:49Z</time>
      </trkpt>
      <trkpt lat="49.95182" lon="2.36399">
        <ele>89.5</ele>
        <time>2023-01-04T15:12:50Z</time>
      </trkpt>
      <trkpt lat="49.95181" lon="2.36398">
        <ele>89.5</ele>
        <time>2023-01-04T15:12:52Z</time>
      </trkpt>
      <trkpt lat="49.9518" lon="2.36397">
        <ele>89.5</ele>
        <time>2023-01-04T15:12:53Z</time>
      </trkpt>
      <trkpt lat="49.95179" lon="2.36396">
        <ele>89.4</ele>
        <time>2023-01-04T15:12:54Z</time>
      </trkpt>
      <trkpt lat="49.95178" lon="2.36394">
        <ele>89.4</ele>
        <time>2023-01-04T15:12:55Z</time>
      </trkpt>
      <trkpt lat="49.95177" lon="2.36394">
        <ele>89.4</ele>
        <time>2023-01-04T15:12:56Z</time>
      </trkpt>
      <trkpt lat="49.95176" lon="2.36393">
        <ele>89.3</ele>
        <time>2023-01-04T15:12:57Z</time>
      </trkpt>
      <trkpt lat="49.95175" lon="2.36392">
        <ele>89.3</ele>
        <time>2023-01-04T15:12:58Z</time>
      </trkpt>
      <trkpt lat="49.95174" lon="2.36391">
        <ele>89.2</ele>
        <time>2023-01-04T15:13:00Z</time>
      </trkpt>
      <trkpt lat="49.95173" lon="2.3639">
        <ele>89.2</ele>
        <time>2023-01-04T15:13:01Z</time>
      </trkpt>
      <trkpt lat="49.95171" lon="2.36388">
        <ele>89.1</ele>
        <time>2023-01-04T15:13:02Z</time>
      </trkpt>
      <trkpt lat="49.95171" lon="2.36388">
        <ele>89.1</ele>
        <time>2023-01-04T15:13:03Z</time>
      </trkpt>
      <trkpt lat="49.9517" lon="2.36387">
        <ele>89.1</ele>
        <time>2023-01-04T15:13:04Z</time>
      </trkpt>
      <trkpt lat="49.95169" lon="2.36386">
        <ele>89</ele>
        <time>2023-01-04T15:13:05Z</time>
      </trkpt>
      <trkpt lat="49.95168" lon="2.36384">
        <ele>89</ele>
        <time>2023-01-04T15:13:06Z</time>
      </trkpt>
      <trkpt lat="49.95167" lon="2.36383">
        <ele>88.9</ele>
        <time>2023-01-04T15:13:07Z</time>
      </trkpt>
      <trkpt lat="49.95165" lon="2.36382">
        <ele>88.9</ele>
        <time>2023-01-04T15:13:09Z</time>
      </trkpt>
      <trkpt lat="49.95164" lon="2.36381">
        <ele>88.8</ele>
        <time>2023-01-04T15:13:10Z</time>
      </trkpt>
      <trkpt lat="49.95163" lon="2.3638">
        <ele>88.8</ele>
        <time>2023-01-04T15:13:11Z</time>
      </trkpt>
      <trkpt lat="49.95161" lon="2.36378">
        <ele>88.7</ele>
        <time>2023-01-04T15:13:12Z</time>
      </trkpt>
      <trkpt lat="49.95161" lon="2.36378">
        <ele>88.7</ele>
        <time>2023-01-04T15:13:13Z</time>
      </trkpt>
      <trkpt lat="49.9516" lon="2.36377">
        <ele>88.7</ele>
        <time>2023-01-04T15:13:14Z</time>
      </trkpt>
      <trkpt lat="49.95158" lon="2.36374">
        <ele>88.6</ele>
        <time>2023-01-04T15:13:15Z</time>
      </trkpt>
      <trkpt lat="49.95158" lon="2.36374">
        <ele>88.6</ele>
        <time>2023-01-04T15:13:16Z</time>
      </trkpt>
      <trkpt lat="49.95157" lon="2.36373">
        <ele>88.6</ele>
        <time>2023-01-04T15:13:17Z</time>
      </trkpt>
      <trkpt lat="49.95155" lon="2.36371">
        <ele>88.5</ele>
        <time>2023-01-04T15:13:19Z</time>
      </trkpt>
      <trkpt lat="49.95154" lon="2.3637">
        <ele>88.5</ele>
        <time>2023-01-04T15:13:20Z</time>
      </trkpt>
      <trkpt lat="49.95154" lon="2.36369">
        <ele>88.5</ele>
        <time>2023-01-04T15:13:21Z</time>
      </trkpt>
      <trkpt lat="49.95153" lon="2.36368">
        <ele>88.4</ele>
        <time>2023-01-04T15:13:22Z</time>
      </trkpt>
      <trkpt lat="49.95152" lon="2.36367">
        <ele>88.4</ele>
        <time>2023-01-04T15:13:23Z</time>
      </trkpt>
      <trkpt lat="49.95151" lon="2.36366">
        <ele>88.4</ele>
        <time>2023-01-04T15:13:24Z</time>
      </trkpt>
      <trkpt lat="49.9515" lon="2.36365">
        <ele>88.4</ele>
        <time>2023-01-04T15:13:25Z</time>
      </trkpt>
      <trkpt lat="49.95149" lon="2.36364">
        <ele>88.3</ele>
        <time>2023-01-04T15:13:26Z</time>
      </trkpt>
      <trkpt lat="49.95148" lon="2.36362">
        <ele>88.3</ele>
        <time>2023-01-04T15:13:28Z</time>
      </trkpt>
      <trkpt lat="49.95147" lon="2.36361">
        <ele>88.3</ele>
        <time>2023-01-04T15:13:29Z</time>
      </trkpt>
      <trkpt lat="49.95146" lon="2.3636">
        <ele>88.3</ele>
        <time>2023-01-04T15:13:30Z</time>
      </trkpt>
      <trkpt lat="49.95145" lon="2.36359">
        <ele>88.2</ele>
        <time>2023-01-04T15:13:31Z</time>
      </trkpt>
      <trkpt lat="49.95144" lon="2.36358">
        <ele>88.2</ele>
        <time>2023-01-04T15:13:32Z</time>
      </trkpt>
      <trkpt lat="49.95144" lon="2.36357">
        <ele>88.2</ele>
        <time>2023-01-04T15:13:33Z</time>
      </trkpt>
      <trkpt lat="49.95143" lon="2.36357">
        <ele>88.2</ele>
        <time>2023-01-04T15:13:34Z</time>
      </trkpt>
      <trkpt lat="49.95142" lon="2.36358">
        <ele>88.2</ele>
        <time>2023-01-04T15:13:36Z</time>
      </trkpt>
      <trkpt lat="49.95141" lon="2.36358">
        <ele>88.2</ele>
        <time>2023-01-04T15:13:37Z</time>
      </trkpt>
      <trkpt lat="49.95139" lon="2.36357">
        <ele>88.1</ele>
        <time>2023-01-04T15:13:38Z</time>
      </trkpt>
      <trkpt lat="49.95139" lon="2.36356">
        <ele>88.1</ele>
        <time>2023-01-04T15:13:39Z</time>
      </trkpt>
      <trkpt lat="49.95138" lon="2.36355">
        <ele>88.1</ele>
        <time>2023-01-04T15:13:40Z</time>
      </trkpt>
      <trkpt lat="49.95137" lon="2.36353">
        <ele>88.1</ele>
        <time>2023-01-04T15:13:41Z</time>
      </trkpt>
      <trkpt lat="49.95137" lon="2.36351">
        <ele>88.1</ele>
        <time>2023-01-04T15:13:43Z</time>
      </trkpt>
      <trkpt lat="49.95136" lon="2.3635">
        <ele>88</ele>
        <time>2023-01-04T15:13:44Z</time>
      </trkpt>
      <trkpt lat="49.95136" lon="2.36348">
        <ele>88</ele>
        <time>2023-01-04T15:13:45Z</time>
      </trkpt>
      <trkpt lat="49.95135" lon="2.36347">
        <ele>88</ele>
        <time>2023-01-04T15:13:46Z</time>
      </trkpt>
      <trkpt lat="49.95134" lon="2.36344">
        <ele>88</ele>
        <time>2023-01-04T15:13:47Z</time>
      </trkpt>
      <trkpt lat="49.95134" lon="2.36343">
        <ele>87.9</ele>
        <time>2023-01-04T15:13:48Z</time>
      </trkpt>
      <trkpt lat="49.95133" lon="2.36342">
        <ele>87.9</ele>
        <time>2023-01-04T15:13:49Z</time>
      </trkpt>
      <trkpt lat="49.95132" lon="2.36341">
        <ele>87.9</ele>
        <time>2023-01-04T15:13:51Z</time>
      </trkpt>
      <trkpt lat="49.95132" lon="2.3634">
        <ele>87.9</ele>
        <time>2023-01-04T15:13:52Z</time>
      </trkpt>
      <trkpt lat="49.95131" lon="2.36338">
        <ele>87.9</ele>
        <time>2023-01-04T15:13:53Z</time>
      </trkpt>
      <trkpt lat="49.9513" lon="2.36337">
        <ele>87.8</ele>
        <time>2023-01-04T15:13:54Z</time>
      </trkpt>
      <trkpt lat="49.9513" lon="2.36336">
        <ele>87.8</ele>
        <time>2023-01-04T15:13:55Z</time>
      </trkpt>
      <trkpt lat="49.95129" lon="2.36335">
        <ele>87.8</ele>
        <time>2023-01-04T15:13:56Z</time>
      </trkpt>
      <trkpt lat="49.95128" lon="2.36334">
        <ele>87.8</ele>
        <time>2023-01-04T15:13:57Z</time>
      </trkpt>
      <trkpt lat="49.95127" lon="2.36333">
        <ele>87.7</ele>
        <time>2023-01-04T15:13:58Z</time>
      </trkpt>
      <trkpt lat="49.95126" lon="2.36332">
        <ele>87.7</ele>
        <time>2023-01-04T15:14:00Z</time>
      </trkpt>
      <trkpt lat="49.95125" lon="2.36331">
        <ele>87.7</ele>
        <time>2023-01-04T15:14:01Z</time>
      </trkpt>
      <trkpt lat="49.95125" lon="2.3633">
        <ele>87.7</ele>
        <time>2023-01-04T15:14:02Z</time>
      </trkpt>
      <trkpt lat="49.95124" lon="2.36329">
        <ele>87.7</ele>
        <time>2023-01-04T15:14:03Z</time>
      </trkpt>
      <trkpt lat="49.95123" lon="2.36328">
        <ele>87.6</ele>
        <time>2023-01-04T15:14:04Z</time>
      </trkpt>
      <trkpt lat="49.95122" lon="2.36327">
        <ele>87.6</ele>
        <time>2023-01-04T15:14:05Z</time>
      </trkpt>
      <trkpt lat="49.95122" lon="2.36326">
        <ele>87.6</ele>
        <time>2023-01-04T15:14:06Z</time>
      </trkpt>
      <trkpt lat="49.9512" lon="2.36324">
        <ele>87.5</ele>
        <time>2023-01-04T15:14:07Z</time>
      </trkpt>
      <trkpt lat="49.9512" lon="2.36324">
        <ele>87.5</ele>
        <time>2023-01-04T15:14:09Z</time>
      </trkpt>
      <trkpt lat="49.95119" lon="2.36323">
        <ele>87.5</ele>
        <time>2023-01-04T15:14:10Z</time>
      </trkpt>
      <trkpt lat="49.95118" lon="2.36321">
        <ele>87.5</ele>
        <time>2023-01-04T15:14:11Z</time>
      </trkpt>
      <trkpt lat="49.95117" lon="2.3632">
        <ele>87.5</ele>
        <time>2023-01-04T15:14:12Z</time>
      </trkpt>
      <trkpt lat="49.95116" lon="2.36319">
        <ele>87.4</ele>
        <time>2023-01-04T15:14:13Z</time>
      </trkpt>
      <trkpt lat="49.95115" lon="2.36318">
        <ele>87.4</ele>
        <time>2023-01-04T15:14:14Z</time>
      </trkpt>
      <trkpt lat="49.95114" lon="2.36317">
        <ele>87.4</ele>
        <time>2023-01-04T15:14:15Z</time>
      </trkpt>
      <trkpt lat="49.95113" lon="2.36316">
        <ele>87.3</ele>
        <time>2023-01-04T15:14:17Z</time>
      </trkpt>
      <trkpt lat="49.95112" lon="2.36315">
        <ele>87.3</ele>
        <time>2023-01-04T15:14:18Z</time>
      </trkpt>
      <trkpt lat="49.95111" lon="2.36314">
        <ele>87.3</ele>
        <time>2023-01-04T15:14:19Z</time>
      </trkpt>
      <trkpt lat="49.9511" lon="2.36313">
        <ele>87.3</ele>
        <time>2023-01-04T15:14:20Z</time>
      </trkpt>
      <trkpt lat="49.9511" lon="2.36312">
        <ele>87.2</ele>
        <time>2023-01-04T15:14:21Z</time>
      </trkpt>
      <trkpt lat="49.95108" lon="2.3631">
        <ele>87.2</ele>
        <time>2023-01-04T15:14:22Z</time>
      </trkpt>
      <trkpt lat="49.95107" lon="2.36309">
        <ele>87.2</ele>
        <time>2023-01-04T15:14:23Z</time>
      </trkpt>
      <trkpt lat="49.95107" lon="2.36308">
        <ele>87.2</ele>
        <time>2023-01-04T15:14:24Z</time>
      </trkpt>
      <trkpt lat="49.95106" lon="2.36307">
        <ele>87.1</ele>
        <time>2023-01-04T15:14:26Z</time>
      </trkpt>
      <trkpt lat="49.95105" lon="2.36306">
        <ele>87.1</ele>
        <time>2023-01-04T15:14:27Z</time>
      </trkpt>
      <trkpt lat="49.95103" lon="2.36304">
        <ele>87</ele>
        <time>2023-01-04T15:14:28Z</time>
      </trkpt>
      <trkpt lat="49.95102" lon="2.36304">
        <ele>87</ele>
        <time>2023-01-04T15:14:30Z</time>
      </trkpt>
      <trkpt lat="49.95101" lon="2.36303">
        <ele>87</ele>
        <time>2023-01-04T15:14:31Z</time>
      </trkpt>
      <trkpt lat="49.951" lon="2.36301">
        <ele>87</ele>
        <time>2023-01-04T15:14:32Z</time>
      </trkpt>
      <trkpt lat="49.95099" lon="2.363">
        <ele>86.9</ele>
        <time>2023-01-04T15:14:33Z</time>
      </trkpt>
      <trkpt lat="49.95098" lon="2.36299">
        <ele>86.9</ele>
        <time>2023-01-04T15:14:34Z</time>
      </trkpt>
      <trkpt lat="49.95097" lon="2.36298">
        <ele>86.9</ele>
        <time>2023-01-04T15:14:35Z</time>
      </trkpt>
      <trkpt lat="49.95096" lon="2.36297">
        <ele>86.8</ele>
        <time>2023-01-04T15:14:36Z</time>
      </trkpt>
      <trkpt lat="49.95095" lon="2.36295">
        <ele>86.8</ele>
        <time>2023-01-04T15:14:37Z</time>
      </trkpt>
      <trkpt lat="49.95094" lon="2.36295">
        <ele>86.8</ele>
        <time>2023-01-04T15:14:38Z</time>
      </trkpt>
      <trkpt lat="49.95094" lon="2.36293">
        <ele>86.8</ele>
        <time>2023-01-04T15:14:40Z</time>
      </trkpt>
      <trkpt lat="49.95093" lon="2.36292">
        <ele>86.7</ele>
        <time>2023-01-04T15:14:41Z</time>
      </trkpt>
      <trkpt lat="49.95092" lon="2.36291">
        <ele>86.7</ele>
        <time>2023-01-04T15:14:42Z</time>
      </trkpt>
      <trkpt lat="49.95091" lon="2.3629">
        <ele>86.7</ele>
        <time>2023-01-04T15:14:43Z</time>
      </trkpt>
      <trkpt lat="49.95091" lon="2.36289">
        <ele>86.7</ele>
        <time>2023-01-04T15:14:44Z</time>
      </trkpt>
      <trkpt lat="49.9509" lon="2.36288">
        <ele>86.6</ele>
        <time>2023-01-04T15:14:45Z</time>
      </trkpt>
      <trkpt lat="49.95089" lon="2.36286">
        <ele>86.6</ele>
        <time>2023-01-04T15:14:47Z</time>
      </trkpt>
      <trkpt lat="49.95088" lon="2.36285">
        <ele>86.6</ele>
        <time>2023-01-04T15:14:48Z</time>
      </trkpt>
      <trkpt lat="49.95088" lon="2.36284">
        <ele>86.6</ele>
        <time>2023-01-04T15:14:49Z</time>
      </trkpt>
      <trkpt lat="49.95087" lon="2.36283">
        <ele>86.5</ele>
        <time>2023-01-04T15:14:50Z</time>
      </trkpt>
      <trkpt lat="49.95086" lon="2.36282">
        <ele>86.5</ele>
        <time>2023-01-04T15:14:51Z</time>
      </trkpt>
      <trkpt lat="49.95086" lon="2.36281">
        <ele>86.5</ele>
        <time>2023-01-04T15:14:52Z</time>
      </trkpt>
      <trkpt lat="49.95085" lon="2.36279">
        <ele>86.5</ele>
        <time>2023-01-04T15:14:53Z</time>
      </trkpt>
      <trkpt lat="49.95084" lon="2.36278">
        <ele>86.4</ele>
        <time>2023-01-04T15:14:55Z</time>
      </trkpt>
      <trkpt lat="49.95083" lon="2.36277">
        <ele>86.4</ele>
        <time>2023-01-04T15:14:56Z</time>
      </trkpt>
      <trkpt lat="49.95082" lon="2.36275">
        <ele>86.4</ele>
        <time>2023-01-04T15:14:57Z</time>
      </trkpt>
      <trkpt lat="49.95081" lon="2.36274">
        <ele>86.4</ele>
        <time>2023-01-04T15:14:58Z</time>
      </trkpt>
      <trkpt lat="49.9508" lon="2.36274">
        <ele>86.4</ele>
        <time>2023-01-04T15:14:59Z</time>
      </trkpt>
      <trkpt lat="49.95079" lon="2.36273">
        <ele>86.3</ele>
        <time>2023-01-04T15:15:01Z</time>
      </trkpt>
      <trkpt lat="49.95078" lon="2.36272">
        <ele>86.3</ele>
        <time>2023-01-04T15:15:02Z</time>
      </trkpt>
      <trkpt lat="49.95077" lon="2.3627">
        <ele>86.3</ele>
        <time>2023-01-04T15:15:03Z</time>
      </trkpt>
      <trkpt lat="49.95076" lon="2.36269">
        <ele>86.3</ele>
        <time>2023-01-04T15:15:04Z</time>
      </trkpt>
      <trkpt lat="49.95076" lon="2.36268">
        <ele>86.3</ele>
        <time>2023-01-04T15:15:05Z</time>
      </trkpt>
      <trkpt lat="49.95075" lon="2.36267">
        <ele>86.3</ele>
        <time>2023-01-04T15:15:06Z</time>
      </trkpt>
      <trkpt lat="49.95074" lon="2.36266">
        <ele>86.3</ele>
        <time>2023-01-04T15:15:07Z</time>
      </trkpt>
      <trkpt lat="49.95073" lon="2.36265">
        <ele>86.2</ele>
        <time>2023-01-04T15:15:08Z</time>
      </trkpt>
      <trkpt lat="49.95073" lon="2.36264">
        <ele>86.2</ele>
        <time>2023-01-04T15:15:10Z</time>
      </trkpt>
      <trkpt lat="49.95072" lon="2.36263">
        <ele>86.2</ele>
        <time>2023-01-04T15:15:11Z</time>
      </trkpt>
      <trkpt lat="49.9507" lon="2.36262">
        <ele>86.2</ele>
        <time>2023-01-04T15:15:12Z</time>
      </trkpt>
      <trkpt lat="49.95069" lon="2.36261">
        <ele>86.2</ele>
        <time>2023-01-04T15:15:13Z</time>
      </trkpt>
      <trkpt lat="49.95068" lon="2.3626">
        <ele>86.2</ele>
        <time>2023-01-04T15:15:14Z</time>
      </trkpt>
      <trkpt lat="49.95067" lon="2.36259">
        <ele>86.2</ele>
        <time>2023-01-04T15:15:16Z</time>
      </trkpt>
      <trkpt lat="49.95066" lon="2.36258">
        <ele>86.1</ele>
        <time>2023-01-04T15:15:17Z</time>
      </trkpt>
      <trkpt lat="49.95065" lon="2.36257">
        <ele>86.1</ele>
        <time>2023-01-04T15:15:18Z</time>
      </trkpt>
      <trkpt lat="49.95064" lon="2.36256">
        <ele>86.1</ele>
        <time>2023-01-04T15:15:19Z</time>
      </trkpt>
      <trkpt lat="49.95063" lon="2.36255">
        <ele>86.1</ele>
        <time>2023-01-04T15:15:20Z</time>
      </trkpt>
      <trkpt lat="49.95062" lon="2.36253">
        <ele>86</ele>
        <time>2023-01-04T15:15:21Z</time>
      </trkpt>
      <trkpt lat="49.95061" lon="2.36253">
        <ele>86</ele>
        <time>2023-01-04T15:15:22Z</time>
      </trkpt>
      <trkpt lat="49.9506" lon="2.36252">
        <ele>86</ele>
        <time>2023-01-04T15:15:23Z</time>
      </trkpt>
      <trkpt lat="49.95058" lon="2.36251">
        <ele>85.9</ele>
        <time>2023-01-04T15:15:25Z</time>
      </trkpt>
      <trkpt lat="49.95058" lon="2.3625">
        <ele>85.9</ele>
        <time>2023-01-04T15:15:26Z</time>
      </trkpt>
      <trkpt lat="49.95057" lon="2.36249">
        <ele>85.9</ele>
        <time>2023-01-04T15:15:27Z</time>
      </trkpt>
      <trkpt lat="49.95055" lon="2.36248">
        <ele>85.8</ele>
        <time>2023-01-04T15:15:28Z</time>
      </trkpt>
      <trkpt lat="49.95054" lon="2.36248">
        <ele>85.8</ele>
        <time>2023-01-04T15:15:29Z</time>
      </trkpt>
      <trkpt lat="49.95052" lon="2.36246">
        <ele>85.8</ele>
        <time>2023-01-04T15:15:30Z</time>
      </trkpt>
      <trkpt lat="49.95051" lon="2.36245">
        <ele>85.7</ele>
        <time>2023-01-04T15:15:32Z</time>
      </trkpt>
      <trkpt lat="49.9505" lon="2.36244">
        <ele>85.7</ele>
        <time>2023-01-04T15:15:33Z</time>
      </trkpt>
      <trkpt lat="49.9505" lon="2.36244">
        <ele>85.7</ele>
        <time>2023-01-04T15:15:34Z</time>
      </trkpt>
      <trkpt lat="49.95049" lon="2.36243">
        <ele>85.7</ele>
        <time>2023-01-04T15:15:35Z</time>
      </trkpt>
      <trkpt lat="49.95048" lon="2.36242">
        <ele>85.6</ele>
        <time>2023-01-04T15:15:36Z</time>
      </trkpt>
      <trkpt lat="49.95046" lon="2.36241">
        <ele>85.6</ele>
        <time>2023-01-04T15:15:37Z</time>
      </trkpt>
      <trkpt lat="49.95045" lon="2.36241">
        <ele>85.6</ele>
        <time>2023-01-04T15:15:38Z</time>
      </trkpt>
      <trkpt lat="49.95044" lon="2.3624">
        <ele>85.6</ele>
        <time>2023-01-04T15:15:40Z</time>
      </trkpt>
      <trkpt lat="49.95043" lon="2.36239">
        <ele>85.5</ele>
        <time>2023-01-04T15:15:41Z</time>
      </trkpt>
      <trkpt lat="49.95042" lon="2.36239">
        <ele>85.5</ele>
        <time>2023-01-04T15:15:42Z</time>
      </trkpt>
      <trkpt lat="49.95041" lon="2.36238">
        <ele>85.5</ele>
        <time>2023-01-04T15:15:43Z</time>
      </trkpt>
      <trkpt lat="49.9504" lon="2.36238">
        <ele>85.5</ele>
        <time>2023-01-04T15:15:44Z</time>
      </trkpt>
      <trkpt lat="49.95039" lon="2.36237">
        <ele>85.4</ele>
        <time>2023-01-04T15:15:45Z</time>
      </trkpt>
      <trkpt lat="49.95038" lon="2.36237">
        <ele>85.4</ele>
        <time>2023-01-04T15:15:46Z</time>
      </trkpt>
      <trkpt lat="49.95036" lon="2.36235">
        <ele>85.4</ele>
        <time>2023-01-04T15:15:47Z</time>
      </trkpt>
      <trkpt lat="49.95035" lon="2.36234">
        <ele>85.4</ele>
        <time>2023-01-04T15:15:49Z</time>
      </trkpt>
      <trkpt lat="49.95035" lon="2.36234">
        <ele>85.4</ele>
        <time>2023-01-04T15:15:50Z</time>
      </trkpt>
      <trkpt lat="49.95033" lon="2.36232">
        <ele>85.3</ele>
        <time>2023-01-04T15:15:51Z</time>
      </trkpt>
      <trkpt lat="49.95032" lon="2.36232">
        <ele>85.3</ele>
        <time>2023-01-04T15:15:52Z</time>
      </trkpt>
      <trkpt lat="49.95031" lon="2.36231">
        <ele>85.3</ele>
        <time>2023-01-04T15:15:53Z</time>
      </trkpt>
      <trkpt lat="49.9503" lon="2.3623">
        <ele>85.3</ele>
        <time>2023-01-04T15:15:54Z</time>
      </trkpt>
      <trkpt lat="49.95029" lon="2.3623">
        <ele>85.3</ele>
        <time>2023-01-04T15:15:55Z</time>
      </trkpt>
      <trkpt lat="49.95029" lon="2.36229">
        <ele>85.3</ele>
        <time>2023-01-04T15:15:56Z</time>
      </trkpt>
      <trkpt lat="49.95028" lon="2.36228">
        <ele>85.3</ele>
        <time>2023-01-04T15:15:58Z</time>
      </trkpt>
      <trkpt lat="49.95026" lon="2.36226">
        <ele>85.2</ele>
        <time>2023-01-04T15:15:59Z</time>
      </trkpt>
      <trkpt lat="49.95025" lon="2.36226">
        <ele>85.2</ele>
        <time>2023-01-04T15:16:00Z</time>
      </trkpt>
      <trkpt lat="49.95025" lon="2.36225">
        <ele>85.2</ele>
        <time>2023-01-04T15:16:01Z</time>
      </trkpt>
      <trkpt lat="49.95024" lon="2.36224">
        <ele>85.2</ele>
        <time>2023-01-04T15:16:02Z</time>
      </trkpt>
      <trkpt lat="49.95022" lon="2.36223">
        <ele>85.2</ele>
        <time>2023-01-04T15:16:03Z</time>
      </trkpt>
      <trkpt lat="49.95021" lon="2.36222">
        <ele>85.2</ele>
        <time>2023-01-04T15:16:04Z</time>
      </trkpt>
      <trkpt lat="49.9502" lon="2.36221">
        <ele>85.1</ele>
        <time>2023-01-04T15:16:05Z</time>
      </trkpt>
      <trkpt lat="49.95019" lon="2.36221">
        <ele>85.1</ele>
        <time>2023-01-04T15:16:07Z</time>
      </trkpt>
      <trkpt lat="49.95018" lon="2.3622">
        <ele>85.1</ele>
        <time>2023-01-04T15:16:08Z</time>
      </trkpt>
      <trkpt lat="49.95017" lon="2.36218">
        <ele>85.1</ele>
        <time>2023-01-04T15:16:09Z</time>
      </trkpt>
      <trkpt lat="49.95016" lon="2.36218">
        <ele>85</ele>
        <time>2023-01-04T15:16:10Z</time>
      </trkpt>
      <trkpt lat="49.95015" lon="2.36217">
        <ele>85</ele>
        <time>2023-01-04T15:16:11Z</time>
      </trkpt>
      <trkpt lat="49.95014" lon="2.36216">
        <ele>85</ele>
        <time>2023-01-04T15:16:12Z</time>
      </trkpt>
      <trkpt lat="49.95012" lon="2.36215">
        <ele>85</ele>
        <time>2023-01-04T15:16:13Z</time>
      </trkpt>
      <trkpt lat="49.95012" lon="2.36214">
        <ele>84.9</ele>
        <time>2023-01-04T15:16:14Z</time>
      </trkpt>
      <trkpt lat="49.95011" lon="2.36213">
        <ele>84.9</ele>
        <time>2023-01-04T15:16:16Z</time>
      </trkpt>
      <trkpt lat="49.9501" lon="2.36212">
        <ele>84.9</ele>
        <time>2023-01-04T15:16:17Z</time>
      </trkpt>
      <trkpt lat="49.95008" lon="2.36211">
        <ele>84.9</ele>
        <time>2023-01-04T15:16:18Z</time>
      </trkpt>
      <trkpt lat="49.95008" lon="2.3621">
        <ele>84.8</ele>
        <time>2023-01-04T15:16:19Z</time>
      </trkpt>
      <trkpt lat="49.95006" lon="2.36209">
        <ele>84.8</ele>
        <time>2023-01-04T15:16:20Z</time>
      </trkpt>
      <trkpt lat="49.95005" lon="2.36209">
        <ele>84.8</ele>
        <time>2023-01-04T15:16:21Z</time>
      </trkpt>
      <trkpt lat="49.95004" lon="2.36208">
        <ele>84.7</ele>
        <time>2023-01-04T15:16:22Z</time>
      </trkpt>
      <trkpt lat="49.95003" lon="2.36206">
        <ele>84.7</ele>
        <time>2023-01-04T15:16:23Z</time>
      </trkpt>
      <trkpt lat="49.95001" lon="2.36205">
        <ele>84.6</ele>
        <time>2023-01-04T15:16:25Z</time>
      </trkpt>
      <trkpt lat="49.95" lon="2.36204">
        <ele>84.6</ele>
        <time>2023-01-04T15:16:26Z</time>
      </trkpt>
      <trkpt lat="49.94997" lon="2.36202">
        <ele>84.5</ele>
        <time>2023-01-04T15:16:27Z</time>
      </trkpt>
      <trkpt lat="49.94996" lon="2.36201">
        <ele>84.4</ele>
        <time>2023-01-04T15:16:29Z</time>
      </trkpt>
      <trkpt lat="49.94995" lon="2.36201">
        <ele>84.4</ele>
        <time>2023-01-04T15:16:30Z</time>
      </trkpt>
      <trkpt lat="49.94994" lon="2.362">
        <ele>84.4</ele>
        <time>2023-01-04T15:16:31Z</time>
      </trkpt>
      <trkpt lat="49.94993" lon="2.36199">
        <ele>84.3</ele>
        <time>2023-01-04T15:16:32Z</time>
      </trkpt>
      <trkpt lat="49.94992" lon="2.36198">
        <ele>84.3</ele>
        <time>2023-01-04T15:16:33Z</time>
      </trkpt>
      <trkpt lat="49.94991" lon="2.36198">
        <ele>84.3</ele>
        <time>2023-01-04T15:16:34Z</time>
      </trkpt>
      <trkpt lat="49.94989" lon="2.36196">
        <ele>84.2</ele>
        <time>2023-01-04T15:16:35Z</time>
      </trkpt>
      <trkpt lat="49.94988" lon="2.36195">
        <ele>84.2</ele>
        <time>2023-01-04T15:16:36Z</time>
      </trkpt>
      <trkpt lat="49.94987" lon="2.36194">
        <ele>84.1</ele>
        <time>2023-01-04T15:16:38Z</time>
      </trkpt>
      <trkpt lat="49.94987" lon="2.36193">
        <ele>84.1</ele>
        <time>2023-01-04T15:16:39Z</time>
      </trkpt>
      <trkpt lat="49.94986" lon="2.36192">
        <ele>84.1</ele>
        <time>2023-01-04T15:16:40Z</time>
      </trkpt>
      <trkpt lat="49.94985" lon="2.36192">
        <ele>84.1</ele>
        <time>2023-01-04T15:16:41Z</time>
      </trkpt>
      <trkpt lat="49.94984" lon="2.36191">
        <ele>84</ele>
        <time>2023-01-04T15:16:42Z</time>
      </trkpt>
      <trkpt lat="49.94982" lon="2.3619">
        <ele>84</ele>
        <time>2023-01-04T15:16:43Z</time>
      </trkpt>
      <trkpt lat="49.94981" lon="2.3619">
        <ele>84</ele>
        <time>2023-01-04T15:16:44Z</time>
      </trkpt>
      <trkpt lat="49.9498" lon="2.36189">
        <ele>84</ele>
        <time>2023-01-04T15:16:45Z</time>
      </trkpt>
      <trkpt lat="49.94979" lon="2.36188">
        <ele>84</ele>
        <time>2023-01-04T15:16:46Z</time>
      </trkpt>
      <trkpt lat="49.94978" lon="2.36188">
        <ele>83.9</ele>
        <time>2023-01-04T15:16:48Z</time>
      </trkpt>
      <trkpt lat="49.94976" lon="2.36187">
        <ele>83.9</ele>
        <time>2023-01-04T15:16:49Z</time>
      </trkpt>
      <trkpt lat="49.94974" lon="2.36186">
        <ele>83.9</ele>
        <time>2023-01-04T15:16:50Z</time>
      </trkpt>
      <trkpt lat="49.94974" lon="2.36185">
        <ele>83.9</ele>
        <time>2023-01-04T15:16:51Z</time>
      </trkpt>
      <trkpt lat="49.94973" lon="2.36185">
        <ele>83.9</ele>
        <time>2023-01-04T15:16:52Z</time>
      </trkpt>
      <trkpt lat="49.94971" lon="2.36183">
        <ele>83.8</ele>
        <time>2023-01-04T15:16:53Z</time>
      </trkpt>
      <trkpt lat="49.9497" lon="2.36182">
        <ele>83.8</ele>
        <time>2023-01-04T15:16:55Z</time>
      </trkpt>
      <trkpt lat="49.9497" lon="2.36182">
        <ele>83.8</ele>
        <time>2023-01-04T15:16:56Z</time>
      </trkpt>
      <trkpt lat="49.94968" lon="2.3618">
        <ele>83.8</ele>
        <time>2023-01-04T15:16:57Z</time>
      </trkpt>
      <trkpt lat="49.94967" lon="2.3618">
        <ele>83.8</ele>
        <time>2023-01-04T15:16:58Z</time>
      </trkpt>
      <trkpt lat="49.94966" lon="2.36179">
        <ele>83.8</ele>
        <time>2023-01-04T15:16:59Z</time>
      </trkpt>
      <trkpt lat="49.94966" lon="2.36179">
        <ele>83.7</ele>
        <time>2023-01-04T15:17:00Z</time>
      </trkpt>
      <trkpt lat="49.94965" lon="2.36178">
        <ele>83.7</ele>
        <time>2023-01-04T15:17:01Z</time>
      </trkpt>
      <trkpt lat="49.94964" lon="2.36177">
        <ele>83.7</ele>
        <time>2023-01-04T15:17:03Z</time>
      </trkpt>
      <trkpt lat="49.94962" lon="2.36177">
        <ele>83.7</ele>
        <time>2023-01-04T15:17:04Z</time>
      </trkpt>
      <trkpt lat="49.94961" lon="2.36176">
        <ele>83.7</ele>
        <time>2023-01-04T15:17:05Z</time>
      </trkpt>
      <trkpt lat="49.94961" lon="2.36175">
        <ele>83.7</ele>
        <time>2023-01-04T15:17:06Z</time>
      </trkpt>
      <trkpt lat="49.9496" lon="2.36174">
        <ele>83.6</ele>
        <time>2023-01-04T15:17:07Z</time>
      </trkpt>
      <trkpt lat="49.94958" lon="2.36173">
        <ele>83.6</ele>
        <time>2023-01-04T15:17:08Z</time>
      </trkpt>
      <trkpt lat="49.94958" lon="2.36172">
        <ele>83.6</ele>
        <time>2023-01-04T15:17:09Z</time>
      </trkpt>
      <trkpt lat="49.94957" lon="2.36171">
        <ele>83.6</ele>
        <time>2023-01-04T15:17:11Z</time>
      </trkpt>
      <trkpt lat="49.94956" lon="2.3617">
        <ele>83.5</ele>
        <time>2023-01-04T15:17:12Z</time>
      </trkpt>
      <trkpt lat="49.94955" lon="2.36169">
        <ele>83.5</ele>
        <time>2023-01-04T15:17:13Z</time>
      </trkpt>
      <trkpt lat="49.94954" lon="2.36169">
        <ele>83.5</ele>
        <time>2023-01-04T15:17:14Z</time>
      </trkpt>
      <trkpt lat="49.94953" lon="2.36168">
        <ele>83.5</ele>
        <time>2023-01-04T15:17:15Z</time>
      </trkpt>
      <trkpt lat="49.94952" lon="2.36167">
        <ele>83.5</ele>
        <time>2023-01-04T15:17:16Z</time>
      </trkpt>
      <trkpt lat="49.94951" lon="2.36166">
        <ele>83.4</ele>
        <time>2023-01-04T15:17:17Z</time>
      </trkpt>
      <trkpt lat="49.9495" lon="2.36165">
        <ele>83.4</ele>
        <time>2023-01-04T15:17:19Z</time>
      </trkpt>
      <trkpt lat="49.94949" lon="2.36165">
        <ele>83.4</ele>
        <time>2023-01-04T15:17:20Z</time>
      </trkpt>
      <trkpt lat="49.94947" lon="2.36163">
        <ele>83.3</ele>
        <time>2023-01-04T15:17:21Z</time>
      </trkpt>
      <trkpt lat="49.94946" lon="2.36163">
        <ele>83.3</ele>
        <time>2023-01-04T15:17:22Z</time>
      </trkpt>
      <trkpt lat="49.94946" lon="2.36162">
        <ele>83.3</ele>
        <time>2023-01-04T15:17:23Z</time>
      </trkpt>
      <trkpt lat="49.94945" lon="2.36162">
        <ele>83.3</ele>
        <time>2023-01-04T15:17:24Z</time>
      </trkpt>
      <trkpt lat="49.94944" lon="2.36161">
        <ele>83.3</ele>
        <time>2023-01-04T15:17:25Z</time>
      </trkpt>
      <trkpt lat="49.94943" lon="2.3616">
        <ele>83.2</ele>
        <time>2023-01-04T15:17:27Z</time>
      </trkpt>
      <trkpt lat="49.94942" lon="2.36159">
        <ele>83.2</ele>
        <time>2023-01-04T15:17:28Z</time>
      </trkpt>
      <trkpt lat="49.9494" lon="2.36158">
        <ele>83.2</ele>
        <time>2023-01-04T15:17:29Z</time>
      </trkpt>
      <trkpt lat="49.94939" lon="2.36157">
        <ele>83.1</ele>
        <time>2023-01-04T15:17:30Z</time>
      </trkpt>
      <trkpt lat="49.94938" lon="2.36157">
        <ele>83.1</ele>
        <time>2023-01-04T15:17:31Z</time>
      </trkpt>
      <trkpt lat="49.94937" lon="2.36156">
        <ele>83.1</ele>
        <time>2023-01-04T15:17:32Z</time>
      </trkpt>
      <trkpt lat="49.94936" lon="2.36155">
        <ele>83.1</ele>
        <time>2023-01-04T15:17:33Z</time>
      </trkpt>
      <trkpt lat="49.94935" lon="2.36155">
        <ele>83</ele>
        <time>2023-01-04T15:17:35Z</time>
      </trkpt>
      <trkpt lat="49.94934" lon="2.36154">
        <ele>83</ele>
        <time>2023-01-04T15:17:36Z</time>
      </trkpt>
      <trkpt lat="49.94932" lon="2.36154">
        <ele>83</ele>
        <time>2023-01-04T15:17:37Z</time>
      </trkpt>
      <trkpt lat="49.94931" lon="2.36153">
        <ele>82.9</ele>
        <time>2023-01-04T15:17:38Z</time>
      </trkpt>
      <trkpt lat="49.9493" lon="2.36152">
        <ele>82.9</ele>
        <time>2023-01-04T15:17:39Z</time>
      </trkpt>
      <trkpt lat="49.94929" lon="2.36152">
        <ele>82.9</ele>
        <time>2023-01-04T15:17:40Z</time>
      </trkpt>
      <trkpt lat="49.94928" lon="2.36151">
        <ele>82.8</ele>
        <time>2023-01-04T15:17:42Z</time>
      </trkpt>
      <trkpt lat="49.94927" lon="2.3615">
        <ele>82.8</ele>
        <time>2023-01-04T15:17:43Z</time>
      </trkpt>
      <trkpt lat="49.94925" lon="2.36148">
        <ele>82.8</ele>
        <time>2023-01-04T15:17:44Z</time>
      </trkpt>
      <trkpt lat="49.94924" lon="2.36148">
        <ele>82.8</ele>
        <time>2023-01-04T15:17:45Z</time>
      </trkpt>
      <trkpt lat="49.94924" lon="2.36147">
        <ele>82.8</ele>
        <time>2023-01-04T15:17:46Z</time>
      </trkpt>
      <trkpt lat="49.94923" lon="2.36147">
        <ele>82.7</ele>
        <time>2023-01-04T15:17:47Z</time>
      </trkpt>
      <trkpt lat="49.94921" lon="2.36146">
        <ele>82.7</ele>
        <time>2023-01-04T15:17:48Z</time>
      </trkpt>
      <trkpt lat="49.9492" lon="2.36145">
        <ele>82.7</ele>
        <time>2023-01-04T15:17:50Z</time>
      </trkpt>
      <trkpt lat="49.94919" lon="2.36144">
        <ele>82.7</ele>
        <time>2023-01-04T15:17:51Z</time>
      </trkpt>
      <trkpt lat="49.94918" lon="2.36143">
        <ele>82.7</ele>
        <time>2023-01-04T15:17:52Z</time>
      </trkpt>
      <trkpt lat="49.94917" lon="2.36143">
        <ele>82.6</ele>
        <time>2023-01-04T15:17:53Z</time>
      </trkpt>
      <trkpt lat="49.94916" lon="2.36142">
        <ele>82.6</ele>
        <time>2023-01-04T15:17:54Z</time>
      </trkpt>
      <trkpt lat="49.94915" lon="2.36141">
        <ele>82.6</ele>
        <time>2023-01-04T15:17:55Z</time>
      </trkpt>
      <trkpt lat="49.94914" lon="2.3614">
        <ele>82.6</ele>
        <time>2023-01-04T15:17:56Z</time>
      </trkpt>
      <trkpt lat="49.94913" lon="2.3614">
        <ele>82.6</ele>
        <time>2023-01-04T15:17:57Z</time>
      </trkpt>
      <trkpt lat="49.94911" lon="2.36138">
        <ele>82.6</ele>
        <time>2023-01-04T15:17:59Z</time>
      </trkpt>
      <trkpt lat="49.9491" lon="2.36137">
        <ele>82.6</ele>
        <time>2023-01-04T15:18:00Z</time>
      </trkpt>
      <trkpt lat="49.94909" lon="2.36136">
        <ele>82.5</ele>
        <time>2023-01-04T15:18:01Z</time>
      </trkpt>
      <trkpt lat="49.94909" lon="2.36136">
        <ele>82.5</ele>
        <time>2023-01-04T15:18:02Z</time>
      </trkpt>
      <trkpt lat="49.94908" lon="2.36135">
        <ele>82.5</ele>
        <time>2023-01-04T15:18:03Z</time>
      </trkpt>
      <trkpt lat="49.94906" lon="2.36133">
        <ele>82.5</ele>
        <time>2023-01-04T15:18:04Z</time>
      </trkpt>
      <trkpt lat="49.94904" lon="2.36131">
        <ele>82.5</ele>
        <time>2023-01-04T15:18:05Z</time>
      </trkpt>
      <trkpt lat="49.94903" lon="2.36131">
        <ele>82.5</ele>
        <time>2023-01-04T15:18:07Z</time>
      </trkpt>
      <trkpt lat="49.94903" lon="2.3613">
        <ele>82.4</ele>
        <time>2023-01-04T15:18:08Z</time>
      </trkpt>
      <trkpt lat="49.949" lon="2.36128">
        <ele>82.4</ele>
        <time>2023-01-04T15:18:09Z</time>
      </trkpt>
      <trkpt lat="49.949" lon="2.36127">
        <ele>82.4</ele>
        <time>2023-01-04T15:18:10Z</time>
      </trkpt>
      <trkpt lat="49.94898" lon="2.36125">
        <ele>82.4</ele>
        <time>2023-01-04T15:18:12Z</time>
      </trkpt>
      <trkpt lat="49.94897" lon="2.36124">
        <ele>82.4</ele>
        <time>2023-01-04T15:18:13Z</time>
      </trkpt>
      <trkpt lat="49.94896" lon="2.36123">
        <ele>82.4</ele>
        <time>2023-01-04T15:18:14Z</time>
      </trkpt>
      <trkpt lat="49.94896" lon="2.36122">
        <ele>82.3</ele>
        <time>2023-01-04T15:18:15Z</time>
      </trkpt>
      <trkpt lat="49.94895" lon="2.36121">
        <ele>82.3</ele>
        <time>2023-01-04T15:18:16Z</time>
      </trkpt>
      <trkpt lat="49.94894" lon="2.3612">
        <ele>82.3</ele>
        <time>2023-01-04T15:18:17Z</time>
      </trkpt>
      <trkpt lat="49.94893" lon="2.36118">
        <ele>82.3</ele>
        <time>2023-01-04T15:18:18Z</time>
      </trkpt>
      <trkpt lat="49.94891" lon="2.36117">
        <ele>82.3</ele>
        <time>2023-01-04T15:18:20Z</time>
      </trkpt>
      <trkpt lat="49.9489" lon="2.36116">
        <ele>82.3</ele>
        <time>2023-01-04T15:18:21Z</time>
      </trkpt>
      <trkpt lat="49.94889" lon="2.36115">
        <ele>82.3</ele>
        <time>2023-01-04T15:18:22Z</time>
      </trkpt>
      <trkpt lat="49.94888" lon="2.36114">
        <ele>82.3</ele>
        <time>2023-01-04T15:18:23Z</time>
      </trkpt>
      <trkpt lat="49.94887" lon="2.36113">
        <ele>82.2</ele>
        <time>2023-01-04T15:18:24Z</time>
      </trkpt>
      <trkpt lat="49.94886" lon="2.36112">
        <ele>82.2</ele>
        <time>2023-01-04T15:18:25Z</time>
      </trkpt>
      <trkpt lat="49.94885" lon="2.36112">
        <ele>82.2</ele>
        <time>2023-01-04T15:18:27Z</time>
      </trkpt>
      <trkpt lat="49.94884" lon="2.36111">
        <ele>82.2</ele>
        <time>2023-01-04T15:18:28Z</time>
      </trkpt>
      <trkpt lat="49.94883" lon="2.3611">
        <ele>82.2</ele>
        <time>2023-01-04T15:18:29Z</time>
      </trkpt>
      <trkpt lat="49.94882" lon="2.36109">
        <ele>82.2</ele>
        <time>2023-01-04T15:18:30Z</time>
      </trkpt>
      <trkpt lat="49.94881" lon="2.36109">
        <ele>82.2</ele>
        <time>2023-01-04T15:18:31Z</time>
      </trkpt>
      <trkpt lat="49.9488" lon="2.36108">
        <ele>82.2</ele>
        <time>2023-01-04T15:18:32Z</time>
      </trkpt>
      <trkpt lat="49.94879" lon="2.36107">
        <ele>82.2</ele>
        <time>2023-01-04T15:18:33Z</time>
      </trkpt>
      <trkpt lat="49.94878" lon="2.36106">
        <ele>82.2</ele>
        <time>2023-01-04T15:18:35Z</time>
      </trkpt>
      <trkpt lat="49.94877" lon="2.36106">
        <ele>82.2</ele>
        <time>2023-01-04T15:18:36Z</time>
      </trkpt>
      <trkpt lat="49.94876" lon="2.36106">
        <ele>82.2</ele>
        <time>2023-01-04T15:18:37Z</time>
      </trkpt>
      <trkpt lat="49.94875" lon="2.36106">
        <ele>82.1</ele>
        <time>2023-01-04T15:18:38Z</time>
      </trkpt>
      <trkpt lat="49.94874" lon="2.36106">
        <ele>82.1</ele>
        <time>2023-01-04T15:18:39Z</time>
      </trkpt>
      <trkpt lat="49.94874" lon="2.36106">
        <ele>82.1</ele>
        <time>2023-01-04T15:18:40Z</time>
      </trkpt>
      <trkpt lat="49.94873" lon="2.36105">
        <ele>82.1</ele>
        <time>2023-01-04T15:18:41Z</time>
      </trkpt>
      <trkpt lat="49.94872" lon="2.36104">
        <ele>82.1</ele>
        <time>2023-01-04T15:18:43Z</time>
      </trkpt>
      <trkpt lat="49.94872" lon="2.36104">
        <ele>82.1</ele>
        <time>2023-01-04T15:18:44Z</time>
      </trkpt>
      <trkpt lat="49.9487" lon="2.36102">
        <ele>82.1</ele>
        <time>2023-01-04T15:18:45Z</time>
      </trkpt>
      <trkpt lat="49.9487" lon="2.36102">
        <ele>82.1</ele>
        <time>2023-01-04T15:18:46Z</time>
      </trkpt>
      <trkpt lat="49.94869" lon="2.36101">
        <ele>82.1</ele>
        <time>2023-01-04T15:18:47Z</time>
      </trkpt>
      <trkpt lat="49.94869" lon="2.361">
        <ele>82.1</ele>
        <time>2023-01-04T15:18:48Z</time>
      </trkpt>
      <trkpt lat="49.9487" lon="2.36099">
        <ele>82.1</ele>
        <time>2023-01-04T15:18:49Z</time>
      </trkpt>
      <trkpt lat="49.94871" lon="2.36098">
        <ele>82.1</ele>
        <time>2023-01-04T15:18:51Z</time>
      </trkpt>
      <trkpt lat="49.94871" lon="2.36098">
        <ele>82.1</ele>
        <time>2023-01-04T15:18:52Z</time>
      </trkpt>
      <trkpt lat="49.94871" lon="2.36097">
        <ele>82.1</ele>
        <time>2023-01-04T15:18:54Z</time>
      </trkpt>
      <trkpt lat="49.94871" lon="2.36097">
        <ele>82.1</ele>
        <time>2023-01-04T15:18:55Z</time>
      </trkpt>
      <trkpt lat="49.94872" lon="2.36097">
        <ele>82.1</ele>
        <time>2023-01-04T15:18:57Z</time>
      </trkpt>
      <trkpt lat="49.94872" lon="2.36097">
        <ele>82.1</ele>
        <time>2023-01-04T15:18:58Z</time>
      </trkpt>
      <trkpt lat="49.94872" lon="2.36096">
        <ele>82.1</ele>
        <time>2023-01-04T15:18:59Z</time>
      </trkpt>
      <trkpt lat="49.94872" lon="2.36096">
        <ele>82.1</ele>
        <time>2023-01-04T15:19:01Z</time>
      </trkpt>
      <trkpt lat="49.94872" lon="2.36096">
        <ele>82.1</ele>
        <time>2023-01-04T15:19:02Z</time>
      </trkpt>
      <trkpt lat="49.94872" lon="2.36097">
        <ele>82.1</ele>
        <time>2023-01-04T15:19:04Z</time>
      </trkpt>
      <trkpt lat="49.94872" lon="2.36097">
        <ele>82.1</ele>
        <time>2023-01-04T15:19:05Z</time>
      </trkpt>
      <trkpt lat="49.94872" lon="2.36097">
        <ele>82.1</ele>
        <time>2023-01-04T15:19:07Z</time>
      </trkpt>
      <trkpt lat="49.94872" lon="2.361">
        <ele>82.1</ele>
        <time>2023-01-04T15:19:08Z</time>
      </trkpt>
      <trkpt lat="49.94872" lon="2.361">
        <ele>82.1</ele>
        <time>2023-01-04T15:19:09Z</time>
      </trkpt>
      <trkpt lat="49.94872" lon="2.361">
        <ele>82.1</ele>
        <time>2023-01-04T15:19:10Z</time>
      </trkpt>
      <trkpt lat="49.94872" lon="2.361">
        <ele>82.1</ele>
        <time>2023-01-04T15:19:11Z</time>
      </trkpt>
      <trkpt lat="49.94872" lon="2.361">
        <ele>82.1</ele>
        <time>2023-01-04T15:19:12Z</time>
      </trkpt>
      <trkpt lat="49.94872" lon="2.36099">
        <ele>82.1</ele>
        <time>2023-01-04T15:19:14Z</time>
      </trkpt>
      <trkpt lat="49.94872" lon="2.36098">
        <ele>82.1</ele>
        <time>2023-01-04T15:19:15Z</time>
      </trkpt>
      <trkpt lat="49.94872" lon="2.36098">
        <ele>82.1</ele>
        <time>2023-01-04T15:19:16Z</time>
      </trkpt>
      <trkpt lat="49.94872" lon="2.36099">
        <ele>82.1</ele>
        <time>2023-01-04T15:19:18Z</time>
      </trkpt>
      <trkpt lat="49.94872" lon="2.361">
        <ele>82.1</ele>
        <time>2023-01-04T15:19:19Z</time>
      </trkpt>
      <trkpt lat="49.94871" lon="2.36101">
        <ele>82.1</ele>
        <time>2023-01-04T15:19:20Z</time>
      </trkpt>
      <trkpt lat="49.94871" lon="2.36103">
        <ele>82.1</ele>
        <time>2023-01-04T15:19:22Z</time>
      </trkpt>
      <trkpt lat="49.94871" lon="2.36104">
        <ele>82.1</ele>
        <time>2023-01-04T15:19:23Z</time>
      </trkpt>
      <trkpt lat="49.94871" lon="2.36104">
        <ele>82.1</ele>
        <time>2023-01-04T15:19:24Z</time>
      </trkpt>
      <trkpt lat="49.94872" lon="2.36104">
        <ele>82.1</ele>
        <time>2023-01-04T15:19:26Z</time>
      </trkpt>
      <trkpt lat="49.94872" lon="2.36104">
        <ele>82.1</ele>
        <time>2023-01-04T15:19:27Z</time>
      </trkpt>
      <trkpt lat="49.94872" lon="2.36104">
        <ele>82.1</ele>
        <time>2023-01-04T15:19:28Z</time>
      </trkpt>
      <trkpt lat="49.94872" lon="2.36104">
        <ele>82.1</ele>
        <time>2023-01-04T15:19:30Z</time>
      </trkpt>
      <trkpt lat="49.94872" lon="2.36103">
        <ele>82.1</ele>
        <time>2023-01-04T15:19:31Z</time>
      </trkpt>
      <trkpt lat="49.94872" lon="2.36103">
        <ele>82.1</ele>
        <time>2023-01-04T15:19:32Z</time>
      </trkpt>
      <trkpt lat="49.94871" lon="2.36102">
        <ele>82.1</ele>
        <time>2023-01-04T15:19:33Z</time>
      </trkpt>
      <trkpt lat="49.94871" lon="2.36102">
        <ele>82.1</ele>
        <time>2023-01-04T15:19:34Z</time>
      </trkpt>
      <trkpt lat="49.9487" lon="2.36101">
        <ele>82.1</ele>
        <time>2023-01-04T15:19:35Z</time>
      </trkpt>
      <trkpt lat="49.94869" lon="2.361">
        <ele>82.1</ele>
        <time>2023-01-04T15:19:37Z</time>
      </trkpt>
      <trkpt lat="49.94869" lon="2.36099">
        <ele>82.1</ele>
        <time>2023-01-04T15:19:38Z</time>
      </trkpt>
      <trkpt lat="49.94868" lon="2.36098">
        <ele>82.1</ele>
        <time>2023-01-04T15:19:39Z</time>
      </trkpt>
      <trkpt lat="49.94867" lon="2.36098">
        <ele>82.1</ele>
        <time>2023-01-04T15:19:40Z</time>
      </trkpt>
      <trkpt lat="49.94866" lon="2.36097">
        <ele>82.1</ele>
        <time>2023-01-04T15:19:41Z</time>
      </trkpt>
      <trkpt lat="49.94864" lon="2.36096">
        <ele>82.1</ele>
        <time>2023-01-04T15:19:42Z</time>
      </trkpt>
      <trkpt lat="49.94863" lon="2.36096">
        <ele>82.1</ele>
        <time>2023-01-04T15:19:44Z</time>
      </trkpt>
      <trkpt lat="49.94862" lon="2.36096">
        <ele>82.1</ele>
        <time>2023-01-04T15:19:45Z</time>
      </trkpt>
      <trkpt lat="49.94861" lon="2.36095">
        <ele>82.1</ele>
        <time>2023-01-04T15:19:46Z</time>
      </trkpt>
      <trkpt lat="49.9486" lon="2.36094">
        <ele>82</ele>
        <time>2023-01-04T15:19:47Z</time>
      </trkpt>
      <trkpt lat="49.94859" lon="2.36094">
        <ele>82</ele>
        <time>2023-01-04T15:19:48Z</time>
      </trkpt>
      <trkpt lat="49.94857" lon="2.36093">
        <ele>82</ele>
        <time>2023-01-04T15:19:49Z</time>
      </trkpt>
      <trkpt lat="49.94856" lon="2.36093">
        <ele>82</ele>
        <time>2023-01-04T15:19:50Z</time>
      </trkpt>
      <trkpt lat="49.94854" lon="2.36092">
        <ele>82</ele>
        <time>2023-01-04T15:19:52Z</time>
      </trkpt>
      <trkpt lat="49.94853" lon="2.36091">
        <ele>81.9</ele>
        <time>2023-01-04T15:19:53Z</time>
      </trkpt>
      <trkpt lat="49.94852" lon="2.36091">
        <ele>81.9</ele>
        <time>2023-01-04T15:19:54Z</time>
      </trkpt>
      <trkpt lat="49.94851" lon="2.3609">
        <ele>81.9</ele>
        <time>2023-01-04T15:19:55Z</time>
      </trkpt>
      <trkpt lat="49.9485" lon="2.36089">
        <ele>81.9</ele>
        <time>2023-01-04T15:19:56Z</time>
      </trkpt>
      <trkpt lat="49.94849" lon="2.36089">
        <ele>81.9</ele>
        <time>2023-01-04T15:19:57Z</time>
      </trkpt>
      <trkpt lat="49.94848" lon="2.36087">
        <ele>81.9</ele>
        <time>2023-01-04T15:19:59Z</time>
      </trkpt>
      <trkpt lat="49.94847" lon="2.36087">
        <ele>81.8</ele>
        <time>2023-01-04T15:20:00Z</time>
      </trkpt>
      <trkpt lat="49.94845" lon="2.36085">
        <ele>81.8</ele>
        <time>2023-01-04T15:20:01Z</time>
      </trkpt>
      <trkpt lat="49.94845" lon="2.36085">
        <ele>81.8</ele>
        <time>2023-01-04T15:20:02Z</time>
      </trkpt>
      <trkpt lat="49.94844" lon="2.36084">
        <ele>81.8</ele>
        <time>2023-01-04T15:20:03Z</time>
      </trkpt>
      <trkpt lat="49.94844" lon="2.36084">
        <ele>81.8</ele>
        <time>2023-01-04T15:20:04Z</time>
      </trkpt>
      <trkpt lat="49.94843" lon="2.36083">
        <ele>81.8</ele>
        <time>2023-01-04T15:20:05Z</time>
      </trkpt>
      <trkpt lat="49.94841" lon="2.36081">
        <ele>81.7</ele>
        <time>2023-01-04T15:20:07Z</time>
      </trkpt>
      <trkpt lat="49.94841" lon="2.36081">
        <ele>81.7</ele>
        <time>2023-01-04T15:20:08Z</time>
      </trkpt>
      <trkpt lat="49.9484" lon="2.3608">
        <ele>81.7</ele>
        <time>2023-01-04T15:20:09Z</time>
      </trkpt>
      <trkpt lat="49.94839" lon="2.36079">
        <ele>81.7</ele>
        <time>2023-01-04T15:20:10Z</time>
      </trkpt>
      <trkpt lat="49.94838" lon="2.36077">
        <ele>81.7</ele>
        <time>2023-01-04T15:20:11Z</time>
      </trkpt>
      <trkpt lat="49.94837" lon="2.36075">
        <ele>81.6</ele>
        <time>2023-01-04T15:20:13Z</time>
      </trkpt>
      <trkpt lat="49.94836" lon="2.36074">
        <ele>81.6</ele>
        <time>2023-01-04T15:20:14Z</time>
      </trkpt>
      <trkpt lat="49.94835" lon="2.36073">
        <ele>81.6</ele>
        <time>2023-01-04T15:20:15Z</time>
      </trkpt>
      <trkpt lat="49.94834" lon="2.36071">
        <ele>81.6</ele>
        <time>2023-01-04T15:20:16Z</time>
      </trkpt>
      <trkpt lat="49.94833" lon="2.3607">
        <ele>81.6</ele>
        <time>2023-01-04T15:20:17Z</time>
      </trkpt>
      <trkpt lat="49.94833" lon="2.36069">
        <ele>81.5</ele>
        <time>2023-01-04T15:20:18Z</time>
      </trkpt>
      <trkpt lat="49.94832" lon="2.36068">
        <ele>81.5</ele>
        <time>2023-01-04T15:20:20Z</time>
      </trkpt>
      <trkpt lat="49.94831" lon="2.36067">
        <ele>81.5</ele>
        <time>2023-01-04T15:20:21Z</time>
      </trkpt>
      <trkpt lat="49.9483" lon="2.36066">
        <ele>81.5</ele>
        <time>2023-01-04T15:20:22Z</time>
      </trkpt>
      <trkpt lat="49.9483" lon="2.36066">
        <ele>81.5</ele>
        <time>2023-01-04T15:20:23Z</time>
      </trkpt>
      <trkpt lat="49.94829" lon="2.36066">
        <ele>81.5</ele>
        <time>2023-01-04T15:20:24Z</time>
      </trkpt>
      <trkpt lat="49.94828" lon="2.36065">
        <ele>81.5</ele>
        <time>2023-01-04T15:20:25Z</time>
      </trkpt>
      <trkpt lat="49.94828" lon="2.36064">
        <ele>81.5</ele>
        <time>2023-01-04T15:20:26Z</time>
      </trkpt>
      <trkpt lat="49.94829" lon="2.36063">
        <ele>81.5</ele>
        <time>2023-01-04T15:20:27Z</time>
      </trkpt>
      <trkpt lat="49.94829" lon="2.36062">
        <ele>81.5</ele>
        <time>2023-01-04T15:20:28Z</time>
      </trkpt>
      <trkpt lat="49.94829" lon="2.36062">
        <ele>81.5</ele>
        <time>2023-01-04T15:20:30Z</time>
      </trkpt>
      <trkpt lat="49.94829" lon="2.36062">
        <ele>81.5</ele>
        <time>2023-01-04T15:20:31Z</time>
      </trkpt>
      <trkpt lat="49.9483" lon="2.36062">
        <ele>81.5</ele>
        <time>2023-01-04T15:20:33Z</time>
      </trkpt>
      <trkpt lat="49.9483" lon="2.36062">
        <ele>81.5</ele>
        <time>2023-01-04T15:20:34Z</time>
      </trkpt>
      <trkpt lat="49.94831" lon="2.36063">
        <ele>81.5</ele>
        <time>2023-01-04T15:20:35Z</time>
      </trkpt>
      <trkpt lat="49.94831" lon="2.36063">
        <ele>81.5</ele>
        <time>2023-01-04T15:20:37Z</time>
      </trkpt>
      <trkpt lat="49.94831" lon="2.36063">
        <ele>81.5</ele>
        <time>2023-01-04T15:20:38Z</time>
      </trkpt>
      <trkpt lat="49.94831" lon="2.36064">
        <ele>81.4</ele>
        <time>2023-01-04T15:20:39Z</time>
      </trkpt>
      <trkpt lat="49.94831" lon="2.36064">
        <ele>81.4</ele>
        <time>2023-01-04T15:20:40Z</time>
      </trkpt>
      <trkpt lat="49.94831" lon="2.36064">
        <ele>81.4</ele>
        <time>2023-01-04T15:20:42Z</time>
      </trkpt>
      <trkpt lat="49.94831" lon="2.36064">
        <ele>81.4</ele>
        <time>2023-01-04T15:20:43Z</time>
      </trkpt>
      <trkpt lat="49.9483" lon="2.36065">
        <ele>81.4</ele>
        <time>2023-01-04T15:20:44Z</time>
      </trkpt>
      <trkpt lat="49.9483" lon="2.36065">
        <ele>81.4</ele>
        <time>2023-01-04T15:20:45Z</time>
      </trkpt>
      <trkpt lat="49.9483" lon="2.36065">
        <ele>81.4</ele>
        <time>2023-01-04T15:20:47Z</time>
      </trkpt>
      <trkpt lat="49.94829" lon="2.36065">
        <ele>81.4</ele>
        <time>2023-01-04T15:20:48Z</time>
      </trkpt>
      <trkpt lat="49.94829" lon="2.36064">
        <ele>81.4</ele>
        <time>2023-01-04T15:20:49Z</time>
      </trkpt>
      <trkpt lat="49.94828" lon="2.36064">
        <ele>81.4</ele>
        <time>2023-01-04T15:20:50Z</time>
      </trkpt>
      <trkpt lat="49.94828" lon="2.36063">
        <ele>81.4</ele>
        <time>2023-01-04T15:20:51Z</time>
      </trkpt>
      <trkpt lat="49.94828" lon="2.36062">
        <ele>81.4</ele>
        <time>2023-01-04T15:20:52Z</time>
      </trkpt>
      <trkpt lat="49.94827" lon="2.36062">
        <ele>81.4</ele>
        <time>2023-01-04T15:20:53Z</time>
      </trkpt>
      <trkpt lat="49.94826" lon="2.36061">
        <ele>81.4</ele>
        <time>2023-01-04T15:20:54Z</time>
      </trkpt>
      <trkpt lat="49.94826" lon="2.36061">
        <ele>81.4</ele>
        <time>2023-01-04T15:20:56Z</time>
      </trkpt>
      <trkpt lat="49.94825" lon="2.3606">
        <ele>81.4</ele>
        <time>2023-01-04T15:20:57Z</time>
      </trkpt>
      <trkpt lat="49.94824" lon="2.3606">
        <ele>81.4</ele>
        <time>2023-01-04T15:20:58Z</time>
      </trkpt>
      <trkpt lat="49.94823" lon="2.3606">
        <ele>81.4</ele>
        <time>2023-01-04T15:20:59Z</time>
      </trkpt>
      <trkpt lat="49.94821" lon="2.3606">
        <ele>81.4</ele>
        <time>2023-01-04T15:21:00Z</time>
      </trkpt>
      <trkpt lat="49.9482" lon="2.3606">
        <ele>81.3</ele>
        <time>2023-01-04T15:21:01Z</time>
      </trkpt>
      <trkpt lat="49.9482" lon="2.36059">
        <ele>81.3</ele>
        <time>2023-01-04T15:21:02Z</time>
      </trkpt>
      <trkpt lat="49.94819" lon="2.36058">
        <ele>81.3</ele>
        <time>2023-01-04T15:21:04Z</time>
      </trkpt>
      <trkpt lat="49.94818" lon="2.36058">
        <ele>81.3</ele>
        <time>2023-01-04T15:21:05Z</time>
      </trkpt>
      <trkpt lat="49.94817" lon="2.36056">
        <ele>81.3</ele>
        <time>2023-01-04T15:21:06Z</time>
      </trkpt>
      <trkpt lat="49.94816" lon="2.36056">
        <ele>81.3</ele>
        <time>2023-01-04T15:21:07Z</time>
      </trkpt>
      <trkpt lat="49.94815" lon="2.36056">
        <ele>81.3</ele>
        <time>2023-01-04T15:21:08Z</time>
      </trkpt>
      <trkpt lat="49.94814" lon="2.36056">
        <ele>81.3</ele>
        <time>2023-01-04T15:21:09Z</time>
      </trkpt>
      <trkpt lat="49.94812" lon="2.36055">
        <ele>81.3</ele>
        <time>2023-01-04T15:21:10Z</time>
      </trkpt>
      <trkpt lat="49.94812" lon="2.36055">
        <ele>81.3</ele>
        <time>2023-01-04T15:21:12Z</time>
      </trkpt>
      <trkpt lat="49.94811" lon="2.36055">
        <ele>81.2</ele>
        <time>2023-01-04T15:21:13Z</time>
      </trkpt>
      <trkpt lat="49.9481" lon="2.36054">
        <ele>81.2</ele>
        <time>2023-01-04T15:21:14Z</time>
      </trkpt>
      <trkpt lat="49.94809" lon="2.36053">
        <ele>81.2</ele>
        <time>2023-01-04T15:21:15Z</time>
      </trkpt>
      <trkpt lat="49.94808" lon="2.36052">
        <ele>81.2</ele>
        <time>2023-01-04T15:21:16Z</time>
      </trkpt>
      <trkpt lat="49.94807" lon="2.36051">
        <ele>81.2</ele>
        <time>2023-01-04T15:21:17Z</time>
      </trkpt>
      <trkpt lat="49.94806" lon="2.3605">
        <ele>81.2</ele>
        <time>2023-01-04T15:21:18Z</time>
      </trkpt>
      <trkpt lat="49.94804" lon="2.36049">
        <ele>81.2</ele>
        <time>2023-01-04T15:21:20Z</time>
      </trkpt>
      <trkpt lat="49.94803" lon="2.36048">
        <ele>81.1</ele>
        <time>2023-01-04T15:21:21Z</time>
      </trkpt>
      <trkpt lat="49.94802" lon="2.36047">
        <ele>81.1</ele>
        <time>2023-01-04T15:21:22Z</time>
      </trkpt>
      <trkpt lat="49.94801" lon="2.36046">
        <ele>81.1</ele>
        <time>2023-01-04T15:21:23Z</time>
      </trkpt>
      <trkpt lat="49.94799" lon="2.36045">
        <ele>81.1</ele>
        <time>2023-01-04T15:21:24Z</time>
      </trkpt>
      <trkpt lat="49.94797" lon="2.36043">
        <ele>81.1</ele>
        <time>2023-01-04T15:21:25Z</time>
      </trkpt>
      <trkpt lat="49.94796" lon="2.36042">
        <ele>81</ele>
        <time>2023-01-04T15:21:27Z</time>
      </trkpt>
      <trkpt lat="49.94794" lon="2.36041">
        <ele>81</ele>
        <time>2023-01-04T15:21:28Z</time>
      </trkpt>
      <trkpt lat="49.94793" lon="2.3604">
        <ele>81</ele>
        <time>2023-01-04T15:21:29Z</time>
      </trkpt>
      <trkpt lat="49.94792" lon="2.36039">
        <ele>81</ele>
        <time>2023-01-04T15:21:30Z</time>
      </trkpt>
      <trkpt lat="49.9479" lon="2.36038">
        <ele>81</ele>
        <time>2023-01-04T15:21:31Z</time>
      </trkpt>
      <trkpt lat="49.94789" lon="2.36037">
        <ele>80.9</ele>
        <time>2023-01-04T15:21:32Z</time>
      </trkpt>
      <trkpt lat="49.94787" lon="2.36036">
        <ele>80.9</ele>
        <time>2023-01-04T15:21:33Z</time>
      </trkpt>
      <trkpt lat="49.94786" lon="2.36035">
        <ele>80.9</ele>
        <time>2023-01-04T15:21:34Z</time>
      </trkpt>
      <trkpt lat="49.94785" lon="2.36034">
        <ele>80.9</ele>
        <time>2023-01-04T15:21:35Z</time>
      </trkpt>
      <trkpt lat="49.94783" lon="2.36033">
        <ele>80.9</ele>
        <time>2023-01-04T15:21:37Z</time>
      </trkpt>
      <trkpt lat="49.94781" lon="2.36032">
        <ele>80.8</ele>
        <time>2023-01-04T15:21:38Z</time>
      </trkpt>
      <trkpt lat="49.9478" lon="2.36031">
        <ele>80.8</ele>
        <time>2023-01-04T15:21:39Z</time>
      </trkpt>
      <trkpt lat="49.94779" lon="2.36031">
        <ele>80.8</ele>
        <time>2023-01-04T15:21:40Z</time>
      </trkpt>
      <trkpt lat="49.94777" lon="2.3603">
        <ele>80.8</ele>
        <time>2023-01-04T15:21:41Z</time>
      </trkpt>
      <trkpt lat="49.94776" lon="2.36029">
        <ele>80.8</ele>
        <time>2023-01-04T15:21:42Z</time>
      </trkpt>
      <trkpt lat="49.94774" lon="2.36027">
        <ele>80.7</ele>
        <time>2023-01-04T15:21:44Z</time>
      </trkpt>
      <trkpt lat="49.94773" lon="2.36026">
        <ele>80.7</ele>
        <time>2023-01-04T15:21:45Z</time>
      </trkpt>
      <trkpt lat="49.94772" lon="2.36026">
        <ele>80.7</ele>
        <time>2023-01-04T15:21:46Z</time>
      </trkpt>
      <trkpt lat="49.94771" lon="2.36025">
        <ele>80.7</ele>
        <time>2023-01-04T15:21:47Z</time>
      </trkpt>
      <trkpt lat="49.9477" lon="2.36024">
        <ele>80.7</ele>
        <time>2023-01-04T15:21:48Z</time>
      </trkpt>
      <trkpt lat="49.94769" lon="2.36023">
        <ele>80.6</ele>
        <time>2023-01-04T15:21:49Z</time>
      </trkpt>
      <trkpt lat="49.94769" lon="2.36022">
        <ele>80.6</ele>
        <time>2023-01-04T15:21:51Z</time>
      </trkpt>
      <trkpt lat="49.94767" lon="2.3602">
        <ele>80.6</ele>
        <time>2023-01-04T15:21:52Z</time>
      </trkpt>
      <trkpt lat="49.94766" lon="2.3602">
        <ele>80.6</ele>
        <time>2023-01-04T15:21:53Z</time>
      </trkpt>
      <trkpt lat="49.94765" lon="2.36019">
        <ele>80.5</ele>
        <time>2023-01-04T15:21:54Z</time>
      </trkpt>
      <trkpt lat="49.94764" lon="2.36019">
        <ele>80.5</ele>
        <time>2023-01-04T15:21:55Z</time>
      </trkpt>
      <trkpt lat="49.94762" lon="2.36018">
        <ele>80.5</ele>
        <time>2023-01-04T15:21:56Z</time>
      </trkpt>
      <trkpt lat="49.94761" lon="2.36017">
        <ele>80.5</ele>
        <time>2023-01-04T15:21:58Z</time>
      </trkpt>
      <trkpt lat="49.9476" lon="2.36017">
        <ele>80.4</ele>
        <time>2023-01-04T15:21:59Z</time>
      </trkpt>
      <trkpt lat="49.94759" lon="2.36016">
        <ele>80.4</ele>
        <time>2023-01-04T15:22:00Z</time>
      </trkpt>
      <trkpt lat="49.94757" lon="2.36015">
        <ele>80.4</ele>
        <time>2023-01-04T15:22:01Z</time>
      </trkpt>
      <trkpt lat="49.94757" lon="2.36015">
        <ele>80.4</ele>
        <time>2023-01-04T15:22:02Z</time>
      </trkpt>
      <trkpt lat="49.94755" lon="2.36014">
        <ele>80.4</ele>
        <time>2023-01-04T15:22:03Z</time>
      </trkpt>
      <trkpt lat="49.94754" lon="2.36013">
        <ele>80.3</ele>
        <time>2023-01-04T15:22:04Z</time>
      </trkpt>
      <trkpt lat="49.94753" lon="2.36012">
        <ele>80.3</ele>
        <time>2023-01-04T15:22:05Z</time>
      </trkpt>
      <trkpt lat="49.94751" lon="2.36011">
        <ele>80.3</ele>
        <time>2023-01-04T15:22:06Z</time>
      </trkpt>
      <trkpt lat="49.94749" lon="2.3601">
        <ele>80.3</ele>
        <time>2023-01-04T15:22:08Z</time>
      </trkpt>
      <trkpt lat="49.94749" lon="2.3601">
        <ele>80.2</ele>
        <time>2023-01-04T15:22:09Z</time>
      </trkpt>
      <trkpt lat="49.94748" lon="2.36009">
        <ele>80.2</ele>
        <time>2023-01-04T15:22:10Z</time>
      </trkpt>
      <trkpt lat="49.94746" lon="2.36008">
        <ele>80.2</ele>
        <time>2023-01-04T15:22:11Z</time>
      </trkpt>
      <trkpt lat="49.94745" lon="2.36008">
        <ele>80.2</ele>
        <time>2023-01-04T15:22:12Z</time>
      </trkpt>
      <trkpt lat="49.94744" lon="2.36008">
        <ele>80.2</ele>
        <time>2023-01-04T15:22:13Z</time>
      </trkpt>
      <trkpt lat="49.94742" lon="2.36007">
        <ele>80.2</ele>
        <time>2023-01-04T15:22:14Z</time>
      </trkpt>
      <trkpt lat="49.94741" lon="2.36006">
        <ele>80.2</ele>
        <time>2023-01-04T15:22:16Z</time>
      </trkpt>
      <trkpt lat="49.9474" lon="2.36005">
        <ele>80.2</ele>
        <time>2023-01-04T15:22:17Z</time>
      </trkpt>
      <trkpt lat="49.94738" lon="2.36004">
        <ele>80.2</ele>
        <time>2023-01-04T15:22:18Z</time>
      </trkpt>
      <trkpt lat="49.94737" lon="2.36002">
        <ele>80.2</ele>
        <time>2023-01-04T15:22:19Z</time>
      </trkpt>
      <trkpt lat="49.94736" lon="2.36001">
        <ele>80.2</ele>
        <time>2023-01-04T15:22:20Z</time>
      </trkpt>
      <trkpt lat="49.94735" lon="2.36">
        <ele>80.2</ele>
        <time>2023-01-04T15:22:21Z</time>
      </trkpt>
      <trkpt lat="49.94734" lon="2.36">
        <ele>80.2</ele>
        <time>2023-01-04T15:22:23Z</time>
      </trkpt>
      <trkpt lat="49.94733" lon="2.35999">
        <ele>80.2</ele>
        <time>2023-01-04T15:22:24Z</time>
      </trkpt>
      <trkpt lat="49.94732" lon="2.35998">
        <ele>80.2</ele>
        <time>2023-01-04T15:22:25Z</time>
      </trkpt>
      <trkpt lat="49.94731" lon="2.35997">
        <ele>80.2</ele>
        <time>2023-01-04T15:22:26Z</time>
      </trkpt>
      <trkpt lat="49.94731" lon="2.35997">
        <ele>80.2</ele>
        <time>2023-01-04T15:22:27Z</time>
      </trkpt>
      <trkpt lat="49.9473" lon="2.35996">
        <ele>80.2</ele>
        <time>2023-01-04T15:22:28Z</time>
      </trkpt>
      <trkpt lat="49.94728" lon="2.35994">
        <ele>80.2</ele>
        <time>2023-01-04T15:22:29Z</time>
      </trkpt>
      <trkpt lat="49.94727" lon="2.35994">
        <ele>80.2</ele>
        <time>2023-01-04T15:22:31Z</time>
      </trkpt>
      <trkpt lat="49.94726" lon="2.35993">
        <ele>80.2</ele>
        <time>2023-01-04T15:22:32Z</time>
      </trkpt>
      <trkpt lat="49.94725" lon="2.35992">
        <ele>80.2</ele>
        <time>2023-01-04T15:22:33Z</time>
      </trkpt>
      <trkpt lat="49.94724" lon="2.35992">
        <ele>80.2</ele>
        <time>2023-01-04T15:22:34Z</time>
      </trkpt>
      <trkpt lat="49.94723" lon="2.35991">
        <ele>80.2</ele>
        <time>2023-01-04T15:22:35Z</time>
      </trkpt>
      <trkpt lat="49.94722" lon="2.3599">
        <ele>80.2</ele>
        <time>2023-01-04T15:22:36Z</time>
      </trkpt>
      <trkpt lat="49.94721" lon="2.35989">
        <ele>80.2</ele>
        <time>2023-01-04T15:22:38Z</time>
      </trkpt>
      <trkpt lat="49.9472" lon="2.35988">
        <ele>80.2</ele>
        <time>2023-01-04T15:22:39Z</time>
      </trkpt>
      <trkpt lat="49.94719" lon="2.35987">
        <ele>80.2</ele>
        <time>2023-01-04T15:22:40Z</time>
      </trkpt>
      <trkpt lat="49.94718" lon="2.35986">
        <ele>80.2</ele>
        <time>2023-01-04T15:22:41Z</time>
      </trkpt>
      <trkpt lat="49.94718" lon="2.35985">
        <ele>80.2</ele>
        <time>2023-01-04T15:22:42Z</time>
      </trkpt>
      <trkpt lat="49.94717" lon="2.35984">
        <ele>80.2</ele>
        <time>2023-01-04T15:22:43Z</time>
      </trkpt>
      <trkpt lat="49.94716" lon="2.35983">
        <ele>80.2</ele>
        <time>2023-01-04T15:22:44Z</time>
      </trkpt>
      <trkpt lat="49.94715" lon="2.35982">
        <ele>80.2</ele>
        <time>2023-01-04T15:22:46Z</time>
      </trkpt>
      <trkpt lat="49.94714" lon="2.35981">
        <ele>80.2</ele>
        <time>2023-01-04T15:22:47Z</time>
      </trkpt>
      <trkpt lat="49.94714" lon="2.3598">
        <ele>80.2</ele>
        <time>2023-01-04T15:22:48Z</time>
      </trkpt>
      <trkpt lat="49.94713" lon="2.35979">
        <ele>80.1</ele>
        <time>2023-01-04T15:22:49Z</time>
      </trkpt>
      <trkpt lat="49.94712" lon="2.35978">
        <ele>80.1</ele>
        <time>2023-01-04T15:22:50Z</time>
      </trkpt>
      <trkpt lat="49.9471" lon="2.35977">
        <ele>80.1</ele>
        <time>2023-01-04T15:22:51Z</time>
      </trkpt>
      <trkpt lat="49.9471" lon="2.35977">
        <ele>80.1</ele>
        <time>2023-01-04T15:22:52Z</time>
      </trkpt>
      <trkpt lat="49.94709" lon="2.35976">
        <ele>80.1</ele>
        <time>2023-01-04T15:22:54Z</time>
      </trkpt>
      <trkpt lat="49.94707" lon="2.35976">
        <ele>80.1</ele>
        <time>2023-01-04T15:22:55Z</time>
      </trkpt>
      <trkpt lat="49.94706" lon="2.35975">
        <ele>80.1</ele>
        <time>2023-01-04T15:22:56Z</time>
      </trkpt>
      <trkpt lat="49.94704" lon="2.35974">
        <ele>80.1</ele>
        <time>2023-01-04T15:22:57Z</time>
      </trkpt>
      <trkpt lat="49.94704" lon="2.35973">
        <ele>80.1</ele>
        <time>2023-01-04T15:22:58Z</time>
      </trkpt>
      <trkpt lat="49.94703" lon="2.35973">
        <ele>80.1</ele>
        <time>2023-01-04T15:22:59Z</time>
      </trkpt>
      <trkpt lat="49.94702" lon="2.35972">
        <ele>80.1</ele>
        <time>2023-01-04T15:23:00Z</time>
      </trkpt>
      <trkpt lat="49.947" lon="2.35971">
        <ele>80.1</ele>
        <time>2023-01-04T15:23:02Z</time>
      </trkpt>
      <trkpt lat="49.94699" lon="2.35971">
        <ele>80.1</ele>
        <time>2023-01-04T15:23:03Z</time>
      </trkpt>
      <trkpt lat="49.94698" lon="2.35971">
        <ele>80.1</ele>
        <time>2023-01-04T15:23:04Z</time>
      </trkpt>
      <trkpt lat="49.94697" lon="2.3597">
        <ele>80</ele>
        <time>2023-01-04T15:23:05Z</time>
      </trkpt>
      <trkpt lat="49.94696" lon="2.35969">
        <ele>80</ele>
        <time>2023-01-04T15:23:06Z</time>
      </trkpt>
      <trkpt lat="49.94695" lon="2.35968">
        <ele>80</ele>
        <time>2023-01-04T15:23:07Z</time>
      </trkpt>
      <trkpt lat="49.94694" lon="2.35967">
        <ele>80</ele>
        <time>2023-01-04T15:23:08Z</time>
      </trkpt>
      <trkpt lat="49.94693" lon="2.35966">
        <ele>80</ele>
        <time>2023-01-04T15:23:10Z</time>
      </trkpt>
      <trkpt lat="49.94692" lon="2.35966">
        <ele>80</ele>
        <time>2023-01-04T15:23:11Z</time>
      </trkpt>
      <trkpt lat="49.94691" lon="2.35965">
        <ele>80</ele>
        <time>2023-01-04T15:23:12Z</time>
      </trkpt>
      <trkpt lat="49.9469" lon="2.35965">
        <ele>80</ele>
        <time>2023-01-04T15:23:13Z</time>
      </trkpt>
      <trkpt lat="49.94689" lon="2.35964">
        <ele>80</ele>
        <time>2023-01-04T15:23:14Z</time>
      </trkpt>
      <trkpt lat="49.94688" lon="2.35963">
        <ele>80</ele>
        <time>2023-01-04T15:23:15Z</time>
      </trkpt>
      <trkpt lat="49.94686" lon="2.35962">
        <ele>80</ele>
        <time>2023-01-04T15:23:16Z</time>
      </trkpt>
      <trkpt lat="49.94685" lon="2.35961">
        <ele>80</ele>
        <time>2023-01-04T15:23:18Z</time>
      </trkpt>
      <trkpt lat="49.94684" lon="2.3596">
        <ele>80</ele>
        <time>2023-01-04T15:23:19Z</time>
      </trkpt>
      <trkpt lat="49.94683" lon="2.3596">
        <ele>80</ele>
        <time>2023-01-04T15:23:20Z</time>
      </trkpt>
      <trkpt lat="49.94683" lon="2.35959">
        <ele>80</ele>
        <time>2023-01-04T15:23:21Z</time>
      </trkpt>
      <trkpt lat="49.94682" lon="2.35958">
        <ele>79.9</ele>
        <time>2023-01-04T15:23:22Z</time>
      </trkpt>
      <trkpt lat="49.94681" lon="2.35957">
        <ele>79.9</ele>
        <time>2023-01-04T15:23:23Z</time>
      </trkpt>
      <trkpt lat="49.9468" lon="2.35956">
        <ele>79.9</ele>
        <time>2023-01-04T15:23:25Z</time>
      </trkpt>
      <trkpt lat="49.94679" lon="2.35955">
        <ele>79.9</ele>
        <time>2023-01-04T15:23:26Z</time>
      </trkpt>
      <trkpt lat="49.94677" lon="2.35953">
        <ele>79.9</ele>
        <time>2023-01-04T15:23:27Z</time>
      </trkpt>
      <trkpt lat="49.94676" lon="2.35952">
        <ele>79.9</ele>
        <time>2023-01-04T15:23:28Z</time>
      </trkpt>
      <trkpt lat="49.94676" lon="2.35952">
        <ele>79.9</ele>
        <time>2023-01-04T15:23:29Z</time>
      </trkpt>
      <trkpt lat="49.94674" lon="2.3595">
        <ele>79.9</ele>
        <time>2023-01-04T15:23:30Z</time>
      </trkpt>
      <trkpt lat="49.94672" lon="2.35949">
        <ele>79.9</ele>
        <time>2023-01-04T15:23:31Z</time>
      </trkpt>
      <trkpt lat="49.94672" lon="2.35949">
        <ele>79.9</ele>
        <time>2023-01-04T15:23:33Z</time>
      </trkpt>
      <trkpt lat="49.94671" lon="2.35948">
        <ele>79.9</ele>
        <time>2023-01-04T15:23:34Z</time>
      </trkpt>
      <trkpt lat="49.9467" lon="2.35947">
        <ele>79.9</ele>
        <time>2023-01-04T15:23:35Z</time>
      </trkpt>
      <trkpt lat="49.94669" lon="2.35947">
        <ele>79.9</ele>
        <time>2023-01-04T15:23:36Z</time>
      </trkpt>
      <trkpt lat="49.94668" lon="2.35946">
        <ele>80</ele>
        <time>2023-01-04T15:23:37Z</time>
      </trkpt>
      <trkpt lat="49.94667" lon="2.35946">
        <ele>80</ele>
        <time>2023-01-04T15:23:38Z</time>
      </trkpt>
      <trkpt lat="49.94666" lon="2.35945">
        <ele>80</ele>
        <time>2023-01-04T15:23:40Z</time>
      </trkpt>
      <trkpt lat="49.94664" lon="2.35944">
        <ele>80</ele>
        <time>2023-01-04T15:23:41Z</time>
      </trkpt>
      <trkpt lat="49.94663" lon="2.35943">
        <ele>80</ele>
        <time>2023-01-04T15:23:42Z</time>
      </trkpt>
      <trkpt lat="49.94662" lon="2.35942">
        <ele>80</ele>
        <time>2023-01-04T15:23:43Z</time>
      </trkpt>
      <trkpt lat="49.9466" lon="2.35941">
        <ele>80</ele>
        <time>2023-01-04T15:23:44Z</time>
      </trkpt>
      <trkpt lat="49.94659" lon="2.3594">
        <ele>80</ele>
        <time>2023-01-04T15:23:45Z</time>
      </trkpt>
      <trkpt lat="49.94658" lon="2.3594">
        <ele>80.1</ele>
        <time>2023-01-04T15:23:46Z</time>
      </trkpt>
      <trkpt lat="49.94657" lon="2.35939">
        <ele>80.1</ele>
        <time>2023-01-04T15:23:47Z</time>
      </trkpt>
      <trkpt lat="49.94656" lon="2.35939">
        <ele>80.1</ele>
        <time>2023-01-04T15:23:48Z</time>
      </trkpt>
      <trkpt lat="49.94655" lon="2.35938">
        <ele>80.1</ele>
        <time>2023-01-04T15:23:50Z</time>
      </trkpt>
      <trkpt lat="49.94655" lon="2.35938">
        <ele>80.1</ele>
        <time>2023-01-04T15:23:51Z</time>
      </trkpt>
      <trkpt lat="49.94653" lon="2.35936">
        <ele>80.1</ele>
        <time>2023-01-04T15:23:52Z</time>
      </trkpt>
      <trkpt lat="49.94652" lon="2.35936">
        <ele>80.1</ele>
        <time>2023-01-04T15:23:53Z</time>
      </trkpt>
      <trkpt lat="49.94651" lon="2.35935">
        <ele>80.1</ele>
        <time>2023-01-04T15:23:54Z</time>
      </trkpt>
      <trkpt lat="49.9465" lon="2.35935">
        <ele>80.1</ele>
        <time>2023-01-04T15:23:55Z</time>
      </trkpt>
      <trkpt lat="49.94649" lon="2.35934">
        <ele>80.1</ele>
        <time>2023-01-04T15:23:56Z</time>
      </trkpt>
      <trkpt lat="49.94648" lon="2.35933">
        <ele>80.2</ele>
        <time>2023-01-04T15:23:58Z</time>
      </trkpt>
      <trkpt lat="49.94646" lon="2.35932">
        <ele>80.2</ele>
        <time>2023-01-04T15:23:59Z</time>
      </trkpt>
      <trkpt lat="49.94645" lon="2.35931">
        <ele>80.2</ele>
        <time>2023-01-04T15:24:00Z</time>
      </trkpt>
      <trkpt lat="49.94645" lon="2.3593">
        <ele>80.2</ele>
        <time>2023-01-04T15:24:01Z</time>
      </trkpt>
      <trkpt lat="49.94644" lon="2.35929">
        <ele>80.2</ele>
        <time>2023-01-04T15:24:02Z</time>
      </trkpt>
      <trkpt lat="49.94643" lon="2.35928">
        <ele>80.2</ele>
        <time>2023-01-04T15:24:03Z</time>
      </trkpt>
      <trkpt lat="49.94642" lon="2.35927">
        <ele>80.2</ele>
        <time>2023-01-04T15:24:05Z</time>
      </trkpt>
      <trkpt lat="49.94641" lon="2.35926">
        <ele>80.2</ele>
        <time>2023-01-04T15:24:06Z</time>
      </trkpt>
      <trkpt lat="49.9464" lon="2.35925">
        <ele>80.3</ele>
        <time>2023-01-04T15:24:07Z</time>
      </trkpt>
      <trkpt lat="49.94639" lon="2.35925">
        <ele>80.3</ele>
        <time>2023-01-04T15:24:08Z</time>
      </trkpt>
      <trkpt lat="49.94638" lon="2.35924">
        <ele>80.3</ele>
        <time>2023-01-04T15:24:09Z</time>
      </trkpt>
      <trkpt lat="49.94637" lon="2.35923">
        <ele>80.3</ele>
        <time>2023-01-04T15:24:10Z</time>
      </trkpt>
      <trkpt lat="49.94636" lon="2.35923">
        <ele>80.3</ele>
        <time>2023-01-04T15:24:11Z</time>
      </trkpt>
      <trkpt lat="49.94635" lon="2.35922">
        <ele>80.3</ele>
        <time>2023-01-04T15:24:13Z</time>
      </trkpt>
      <trkpt lat="49.94633" lon="2.35921">
        <ele>80.3</ele>
        <time>2023-01-04T15:24:14Z</time>
      </trkpt>
      <trkpt lat="49.94631" lon="2.3592">
        <ele>80.4</ele>
        <time>2023-01-04T15:24:15Z</time>
      </trkpt>
      <trkpt lat="49.94631" lon="2.3592">
        <ele>80.4</ele>
        <time>2023-01-04T15:24:16Z</time>
      </trkpt>
      <trkpt lat="49.9463" lon="2.35919">
        <ele>80.4</ele>
        <time>2023-01-04T15:24:17Z</time>
      </trkpt>
      <trkpt lat="49.94629" lon="2.35918">
        <ele>80.4</ele>
        <time>2023-01-04T15:24:18Z</time>
      </trkpt>
      <trkpt lat="49.94627" lon="2.35917">
        <ele>80.4</ele>
        <time>2023-01-04T15:24:19Z</time>
      </trkpt>
      <trkpt lat="49.94626" lon="2.35916">
        <ele>80.5</ele>
        <time>2023-01-04T15:24:21Z</time>
      </trkpt>
      <trkpt lat="49.94625" lon="2.35915">
        <ele>80.5</ele>
        <time>2023-01-04T15:24:22Z</time>
      </trkpt>
      <trkpt lat="49.94624" lon="2.35915">
        <ele>80.5</ele>
        <time>2023-01-04T15:24:23Z</time>
      </trkpt>
      <trkpt lat="49.94623" lon="2.35914">
        <ele>80.5</ele>
        <time>2023-01-04T15:24:24Z</time>
      </trkpt>
      <trkpt lat="49.94622" lon="2.35913">
        <ele>80.5</ele>
        <time>2023-01-04T15:24:25Z</time>
      </trkpt>
      <trkpt lat="49.94622" lon="2.35913">
        <ele>80.5</ele>
        <time>2023-01-04T15:24:26Z</time>
      </trkpt>
      <trkpt lat="49.94621" lon="2.35912">
        <ele>80.5</ele>
        <time>2023-01-04T15:24:27Z</time>
      </trkpt>
      <trkpt lat="49.94621" lon="2.35912">
        <ele>80.6</ele>
        <time>2023-01-04T15:24:29Z</time>
      </trkpt>
      <trkpt lat="49.9462" lon="2.35911">
        <ele>80.6</ele>
        <time>2023-01-04T15:24:30Z</time>
      </trkpt>
      <trkpt lat="49.94619" lon="2.35911">
        <ele>80.6</ele>
        <time>2023-01-04T15:24:31Z</time>
      </trkpt>
      <trkpt lat="49.94618" lon="2.3591">
        <ele>80.6</ele>
        <time>2023-01-04T15:24:32Z</time>
      </trkpt>
      <trkpt lat="49.94618" lon="2.3591">
        <ele>80.6</ele>
        <time>2023-01-04T15:24:33Z</time>
      </trkpt>
      <trkpt lat="49.94617" lon="2.35909">
        <ele>80.7</ele>
        <time>2023-01-04T15:24:34Z</time>
      </trkpt>
      <trkpt lat="49.94616" lon="2.35908">
        <ele>80.7</ele>
        <time>2023-01-04T15:24:35Z</time>
      </trkpt>
      <trkpt lat="49.94615" lon="2.35906">
        <ele>80.7</ele>
        <time>2023-01-04T15:24:37Z</time>
      </trkpt>
      <trkpt lat="49.94614" lon="2.35905">
        <ele>80.7</ele>
        <time>2023-01-04T15:24:38Z</time>
      </trkpt>
      <trkpt lat="49.94615" lon="2.35904">
        <ele>80.7</ele>
        <time>2023-01-04T15:24:39Z</time>
      </trkpt>
      <trkpt lat="49.94615" lon="2.35903">
        <ele>80.8</ele>
        <time>2023-01-04T15:24:40Z</time>
      </trkpt>
      <trkpt lat="49.94616" lon="2.35902">
        <ele>80.8</ele>
        <time>2023-01-04T15:24:42Z</time>
      </trkpt>
      <trkpt lat="49.94616" lon="2.35901">
        <ele>80.8</ele>
        <time>2023-01-04T15:24:43Z</time>
      </trkpt>
      <trkpt lat="49.94616" lon="2.359">
        <ele>80.8</ele>
        <time>2023-01-04T15:24:44Z</time>
      </trkpt>
      <trkpt lat="49.94615" lon="2.35899">
        <ele>80.9</ele>
        <time>2023-01-04T15:24:46Z</time>
      </trkpt>
      <trkpt lat="49.94614" lon="2.35899">
        <ele>80.9</ele>
        <time>2023-01-04T15:24:47Z</time>
      </trkpt>
      <trkpt lat="49.94613" lon="2.359">
        <ele>80.9</ele>
        <time>2023-01-04T15:24:48Z</time>
      </trkpt>
      <trkpt lat="49.94612" lon="2.35901">
        <ele>81</ele>
        <time>2023-01-04T15:24:50Z</time>
      </trkpt>
      <trkpt lat="49.94611" lon="2.35902">
        <ele>81</ele>
        <time>2023-01-04T15:24:51Z</time>
      </trkpt>
      <trkpt lat="49.9461" lon="2.35903">
        <ele>81.1</ele>
        <time>2023-01-04T15:24:52Z</time>
      </trkpt>
      <trkpt lat="49.94609" lon="2.35905">
        <ele>81.1</ele>
        <time>2023-01-04T15:24:53Z</time>
      </trkpt>
      <trkpt lat="49.94608" lon="2.35906">
        <ele>81.2</ele>
        <time>2023-01-04T15:24:55Z</time>
      </trkpt>
      <trkpt lat="49.94608" lon="2.35907">
        <ele>81.6</ele>
        <time>2023-01-04T15:24:56Z</time>
      </trkpt>
      <trkpt lat="49.94608" lon="2.35907">
        <ele>81.6</ele>
        <time>2023-01-04T15:24:58Z</time>
      </trkpt>
      <trkpt lat="49.94608" lon="2.35907">
        <ele>81.6</ele>
        <time>2023-01-04T15:24:59Z</time>
      </trkpt>
      <trkpt lat="49.94608" lon="2.35907">
        <ele>81.6</ele>
        <time>2023-01-04T15:25:01Z</time>
      </trkpt>
      <trkpt lat="49.94608" lon="2.35907">
        <ele>81.6</ele>
        <time>2023-01-04T15:25:02Z</time>
      </trkpt>
      <trkpt lat="49.94608" lon="2.35907">
        <ele>81.6</ele>
        <time>2023-01-04T15:25:03Z</time>
      </trkpt>
      <trkpt lat="49.94608" lon="2.35907">
        <ele>81.6</ele>
        <time>2023-01-04T15:25:05Z</time>
      </trkpt>
      <trkpt lat="49.94608" lon="2.35907">
        <ele>81.6</ele>
        <time>2023-01-04T15:25:06Z</time>
      </trkpt>
      <trkpt lat="49.94608" lon="2.35907">
        <ele>81.6</ele>
        <time>2023-01-04T15:25:07Z</time>
      </trkpt>
      <trkpt lat="49.94608" lon="2.35907">
        <ele>81.6</ele>
        <time>2023-01-04T15:25:08Z</time>
      </trkpt>
      <trkpt lat="49.94608" lon="2.35907">
        <ele>81.6</ele>
        <time>2023-01-04T15:25:10Z</time>
      </trkpt>
      <trkpt lat="49.94609" lon="2.35907">
        <ele>81.6</ele>
        <time>2023-01-04T15:25:11Z</time>
      </trkpt>
      <trkpt lat="49.94609" lon="2.35908">
        <ele>81.6</ele>
        <time>2023-01-04T15:25:12Z</time>
      </trkpt>
      <trkpt lat="49.94609" lon="2.35908">
        <ele>81.6</ele>
        <time>2023-01-04T15:25:13Z</time>
      </trkpt>
      <trkpt lat="49.94609" lon="2.35908">
        <ele>81.6</ele>
        <time>2023-01-04T15:25:14Z</time>
      </trkpt>
      <trkpt lat="49.94609" lon="2.35908">
        <ele>81.6</ele>
        <time>2023-01-04T15:25:15Z</time>
      </trkpt>
      <trkpt lat="49.94609" lon="2.35908">
        <ele>81.6</ele>
        <time>2023-01-04T15:25:16Z</time>
      </trkpt>
      <trkpt lat="49.94609" lon="2.35908">
        <ele>81.6</ele>
        <time>2023-01-04T15:25:17Z</time>
      </trkpt>
      <trkpt lat="49.94609" lon="2.35908">
        <ele>81.6</ele>
        <time>2023-01-04T15:25:18Z</time>
      </trkpt>
      <trkpt lat="49.94609" lon="2.35908">
        <ele>81.6</ele>
        <time>2023-01-04T15:25:19Z</time>
      </trkpt>
      <trkpt lat="49.94609" lon="2.35908">
        <ele>81.6</ele>
        <time>2023-01-04T15:25:20Z</time>
      </trkpt>
      <trkpt lat="49.94609" lon="2.35908">
        <ele>81.6</ele>
        <time>2023-01-04T15:25:21Z</time>
      </trkpt>
      <trkpt lat="49.94609" lon="2.35908">
        <ele>81.6</ele>
        <time>2023-01-04T15:25:22Z</time>
      </trkpt>
      <trkpt lat="49.94609" lon="2.35908">
        <ele>81.6</ele>
        <time>2023-01-04T15:25:23Z</time>
      </trkpt>
      <trkpt lat="49.94609" lon="2.35908">
        <ele>81.6</ele>
        <time>2023-01-04T15:25:24Z</time>
      </trkpt>
      <trkpt lat="49.94609" lon="2.35908">
        <ele>81.6</ele>
        <time>2023-01-04T15:25:25Z</time>
      </trkpt>
      <trkpt lat="49.94609" lon="2.35908">
        <ele>81.6</ele>
        <time>2023-01-04T15:25:26Z</time>
      </trkpt>
      <trkpt lat="49.94611" lon="2.35907">
        <ele>81.7</ele>
        <time>2023-01-04T15:25:27Z</time>
      </trkpt>
      <trkpt lat="49.94612" lon="2.35906">
        <ele>81.7</ele>
        <time>2023-01-04T15:25:28Z</time>
      </trkpt>
      <trkpt lat="49.94612" lon="2.35906">
        <ele>81.7</ele>
        <time>2023-01-04T15:25:29Z</time>
      </trkpt>
      <trkpt lat="49.94613" lon="2.35906">
        <ele>81.7</ele>
        <time>2023-01-04T15:25:30Z</time>
      </trkpt>
      <trkpt lat="49.94613" lon="2.35905">
        <ele>81.7</ele>
        <time>2023-01-04T15:25:31Z</time>
      </trkpt>
      <trkpt lat="49.94613" lon="2.35905">
        <ele>81.7</ele>
        <time>2023-01-04T15:25:32Z</time>
      </trkpt>
      <trkpt lat="49.94613" lon="2.35905">
        <ele>81.7</ele>
        <time>2023-01-04T15:25:33Z</time>
      </trkpt>
      <trkpt lat="49.94613" lon="2.35905">
        <ele>81.7</ele>
        <time>2023-01-04T15:25:34Z</time>
      </trkpt>
      <trkpt lat="49.94614" lon="2.35905">
        <ele>81.7</ele>
        <time>2023-01-04T15:25:35Z</time>
      </trkpt>
      <trkpt lat="49.94614" lon="2.35905">
        <ele>81.7</ele>
        <time>2023-01-04T15:25:36Z</time>
      </trkpt>
      <trkpt lat="49.94614" lon="2.35905">
        <ele>81.7</ele>
        <time>2023-01-04T15:25:37Z</time>
      </trkpt>
      <trkpt lat="49.94614" lon="2.35905">
        <ele>81.7</ele>
        <time>2023-01-04T15:25:38Z</time>
      </trkpt>
      <trkpt lat="49.94614" lon="2.35905">
        <ele>81.7</ele>
        <time>2023-01-04T15:25:39Z</time>
      </trkpt>
      <trkpt lat="49.94614" lon="2.35905">
        <ele>81.7</ele>
        <time>2023-01-04T15:25:40Z</time>
      </trkpt>
      <trkpt lat="49.94614" lon="2.35905">
        <ele>81.7</ele>
        <time>2023-01-04T15:25:41Z</time>
      </trkpt>
      <trkpt lat="49.94614" lon="2.35905">
        <ele>81.7</ele>
        <time>2023-01-04T15:25:42Z</time>
      </trkpt>
      <trkpt lat="49.94614" lon="2.35905">
        <ele>81.7</ele>
        <time>2023-01-04T15:25:43Z</time>
      </trkpt>
      <trkpt lat="49.94614" lon="2.35905">
        <ele>81.7</ele>
        <time>2023-01-04T15:25:44Z</time>
      </trkpt>
      <trkpt lat="49.94614" lon="2.35905">
        <ele>81.7</ele>
        <time>2023-01-04T15:25:45Z</time>
      </trkpt>
      <trkpt lat="49.94614" lon="2.35905">
        <ele>81.7</ele>
        <time>2023-01-04T15:25:46Z</time>
      </trkpt>
      <trkpt lat="49.94614" lon="2.35905">
        <ele>81.7</ele>
        <time>2023-01-04T15:25:47Z</time>
      </trkpt>
      <trkpt lat="49.94614" lon="2.35905">
        <ele>81.7</ele>
        <time>2023-01-04T15:25:48Z</time>
      </trkpt>
      <trkpt lat="49.94614" lon="2.35905">
        <ele>81.7</ele>
        <time>2023-01-04T15:25:49Z</time>
      </trkpt>
      <trkpt lat="49.94614" lon="2.35905">
        <ele>81.7</ele>
        <time>2023-01-04T15:25:50Z</time>
      </trkpt>
      <trkpt lat="49.94614" lon="2.35905">
        <ele>81.7</ele>
        <time>2023-01-04T15:25:51Z</time>
      </trkpt>
      <trkpt lat="49.94614" lon="2.35905">
        <ele>81.7</ele>
        <time>2023-01-04T15:25:52Z</time>
      </trkpt>
      <trkpt lat="49.94614" lon="2.35905">
        <ele>81.7</ele>
        <time>2023-01-04T15:25:53Z</time>
      </trkpt>
      <trkpt lat="49.94614" lon="2.35905">
        <ele>81.7</ele>
        <time>2023-01-04T15:25:54Z</time>
      </trkpt>
      <trkpt lat="49.94614" lon="2.35905">
        <ele>81.7</ele>
        <time>2023-01-04T15:25:55Z</time>
      </trkpt>
      <trkpt lat="49.94614" lon="2.35905">
        <ele>81.7</ele>
        <time>2023-01-04T15:25:56Z</time>
      </trkpt>
      <trkpt lat="49.94614" lon="2.35905">
        <ele>81.7</ele>
        <time>2023-01-04T15:25:57Z</time>
      </trkpt>
      <trkpt lat="49.94614" lon="2.35905">
        <ele>81.7</ele>
        <time>2023-01-04T15:25:58Z</time>
      </trkpt>
      <trkpt lat="49.94614" lon="2.35905">
        <ele>81.7</ele>
        <time>2023-01-04T15:25:59Z</time>
      </trkpt>
      <trkpt lat="49.94614" lon="2.35905">
        <ele>81.7</ele>
        <time>2023-01-04T15:26:00Z</time>
      </trkpt>
      <trkpt lat="49.94614" lon="2.35905">
        <ele>81.7</ele>
        <time>2023-01-04T15:26:01Z</time>
      </trkpt>
      <trkpt lat="49.94614" lon="2.35905">
        <ele>81.7</ele>
        <time>2023-01-04T15:26:02Z</time>
      </trkpt>
      <trkpt lat="49.94614" lon="2.35905">
        <ele>81.7</ele>
        <time>2023-01-04T15:26:03Z</time>
      </trkpt>
      <trkpt lat="49.94614" lon="2.35905">
        <ele>81.7</ele>
        <time>2023-01-04T15:26:04Z</time>
      </trkpt>
      <trkpt lat="49.94614" lon="2.35905">
        <ele>81.7</ele>
        <time>2023-01-04T15:26:05Z</time>
      </trkpt>
      <trkpt lat="49.94614" lon="2.35905">
        <ele>81.7</ele>
        <time>2023-01-04T15:26:06Z</time>
      </trkpt>
      <trkpt lat="49.94614" lon="2.35905">
        <ele>81.7</ele>
        <time>2023-01-04T15:26:07Z</time>
      </trkpt>
      <trkpt lat="49.94614" lon="2.35905">
        <ele>81.7</ele>
        <time>2023-01-04T15:26:08Z</time>
      </trkpt>
      <trkpt lat="49.94614" lon="2.35905">
        <ele>81.7</ele>
        <time>2023-01-04T15:26:09Z</time>
      </trkpt>
      <trkpt lat="49.94614" lon="2.35905">
        <ele>81.7</ele>
        <time>2023-01-04T15:26:10Z</time>
      </trkpt>
      <trkpt lat="49.94614" lon="2.35905">
        <ele>81.7</ele>
        <time>2023-01-04T15:26:11Z</time>
      </trkpt>
      <trkpt lat="49.94614" lon="2.35905">
        <ele>81.7</ele>
        <time>2023-01-04T15:26:12Z</time>
      </trkpt>
      <trkpt lat="49.94614" lon="2.35905">
        <ele>81.7</ele>
        <time>2023-01-04T15:26:13Z</time>
      </trkpt>
      <trkpt lat="49.94614" lon="2.35905">
        <ele>81.7</ele>
        <time>2023-01-04T15:26:14Z</time>
      </trkpt>
      <trkpt lat="49.94614" lon="2.35905">
        <ele>81.7</ele>
        <time>2023-01-04T15:26:15Z</time>
      </trkpt>
      <trkpt lat="49.94614" lon="2.35905">
        <ele>81.7</ele>
        <time>2023-01-04T15:26:16Z</time>
      </trkpt>
      <trkpt lat="49.94614" lon="2.35905">
        <ele>81.7</ele>
        <time>2023-01-04T15:26:17Z</time>
      </trkpt>
      <trkpt lat="49.94614" lon="2.35905">
        <ele>81.7</ele>
        <time>2023-01-04T15:26:18Z</time>
      </trkpt>
      <trkpt lat="49.94614" lon="2.35905">
        <ele>81.7</ele>
        <time>2023-01-04T15:26:19Z</time>
      </trkpt>
      <trkpt lat="49.94614" lon="2.35905">
        <ele>81.7</ele>
        <time>2023-01-04T15:26:20Z</time>
      </trkpt>
      <trkpt lat="49.94614" lon="2.35905">
        <ele>81.7</ele>
        <time>2023-01-04T15:26:21Z</time>
      </trkpt>
      <trkpt lat="49.94614" lon="2.35905">
        <ele>81.7</ele>
        <time>2023-01-04T15:26:22Z</time>
      </trkpt>
      <trkpt lat="49.94614" lon="2.35905">
        <ele>81.7</ele>
        <time>2023-01-04T15:26:23Z</time>
      </trkpt>
      <trkpt lat="49.94614" lon="2.35905">
        <ele>81.7</ele>
        <time>2023-01-04T15:26:24Z</time>
      </trkpt>
      <trkpt lat="49.94614" lon="2.35905">
        <ele>81.7</ele>
        <time>2023-01-04T15:26:25Z</time>
      </trkpt>
      <trkpt lat="49.94614" lon="2.35905">
        <ele>81.7</ele>
        <time>2023-01-04T15:26:26Z</time>
      </trkpt>
      <trkpt lat="49.94614" lon="2.35905">
        <ele>81.7</ele>
        <time>2023-01-04T15:26:27Z</time>
      </trkpt>
      <trkpt lat="49.94614" lon="2.35905">
        <ele>81.7</ele>
        <time>2023-01-04T15:26:28Z</time>
      </trkpt>
      <trkpt lat="49.94614" lon="2.35905">
        <ele>81.7</ele>
        <time>2023-01-04T15:26:29Z</time>
      </trkpt>
      <trkpt lat="49.94614" lon="2.35905">
        <ele>81.7</ele>
        <time>2023-01-04T15:26:30Z</time>
      </trkpt>
      <trkpt lat="49.94614" lon="2.35905">
        <ele>81.7</ele>
        <time>2023-01-04T15:26:31Z</time>
      </trkpt>
      <trkpt lat="49.94614" lon="2.35905">
        <ele>81.7</ele>
        <time>2023-01-04T15:26:32Z</time>
      </trkpt>
      <trkpt lat="49.94614" lon="2.35905">
        <ele>81.7</ele>
        <time>2023-01-04T15:26:33Z</time>
      </trkpt>
      <trkpt lat="49.94614" lon="2.35905">
        <ele>81.7</ele>
        <time>2023-01-04T15:26:34Z</time>
      </trkpt>
      <trkpt lat="49.94614" lon="2.35905">
        <ele>81.7</ele>
        <time>2023-01-04T15:26:35Z</time>
      </trkpt>
      <trkpt lat="49.94614" lon="2.35905">
        <ele>81.7</ele>
        <time>2023-01-04T15:26:36Z</time>
      </trkpt>
      <trkpt lat="49.94614" lon="2.35905">
        <ele>81.7</ele>
        <time>2023-01-04T15:26:37Z</time>
      </trkpt>
      <trkpt lat="49.94614" lon="2.35905">
        <ele>81.7</ele>
        <time>2023-01-04T15:26:38Z</time>
      </trkpt>
      <trkpt lat="49.94614" lon="2.35905">
        <ele>81.7</ele>
        <time>2023-01-04T15:26:39Z</time>
      </trkpt>
      <trkpt lat="49.94614" lon="2.35905">
        <ele>81.7</ele>
        <time>2023-01-04T15:26:40Z</time>
      </trkpt>
      <trkpt lat="49.94614" lon="2.35905">
        <ele>81.7</ele>
        <time>2023-01-04T15:26:41Z</time>
      </trkpt>
      <trkpt lat="49.94614" lon="2.35905">
        <ele>81.7</ele>
        <time>2023-01-04T15:26:42Z</time>
      </trkpt>
      <trkpt lat="49.94614" lon="2.35905">
        <ele>81.7</ele>
        <time>2023-01-04T15:26:43Z</time>
      </trkpt>
      <trkpt lat="49.94614" lon="2.35905">
        <ele>81.7</ele>
        <time>2023-01-04T15:26:44Z</time>
      </trkpt>
      <trkpt lat="49.94614" lon="2.35905">
        <ele>81.7</ele>
        <time>2023-01-04T15:26:45Z</time>
      </trkpt>
      <trkpt lat="49.94614" lon="2.35905">
        <ele>81.7</ele>
        <time>2023-01-04T15:26:46Z</time>
      </trkpt>
      <trkpt lat="49.94614" lon="2.35905">
        <ele>81.7</ele>
        <time>2023-01-04T15:26:47Z</time>
      </trkpt>
      <trkpt lat="49.94614" lon="2.35905">
        <ele>81.7</ele>
        <time>2023-01-04T15:26:48Z</time>
      </trkpt>
      <trkpt lat="49.94614" lon="2.35905">
        <ele>81.7</ele>
        <time>2023-01-04T15:26:49Z</time>
      </trkpt>
      <trkpt lat="49.94614" lon="2.35905">
        <ele>81.7</ele>
        <time>2023-01-04T15:26:50Z</time>
      </trkpt>
      <trkpt lat="49.94614" lon="2.35905">
        <ele>81.7</ele>
        <time>2023-01-04T15:26:51Z</time>
      </trkpt>
      <trkpt lat="49.94614" lon="2.35905">
        <ele>81.7</ele>
        <time>2023-01-04T15:26:52Z</time>
      </trkpt>
      <trkpt lat="49.94614" lon="2.35905">
        <ele>81.7</ele>
        <time>2023-01-04T15:26:53Z</time>
      </trkpt>
      <trkpt lat="49.94614" lon="2.35905">
        <ele>81.7</ele>
        <time>2023-01-04T15:26:54Z</time>
      </trkpt>
      <trkpt lat="49.94614" lon="2.35905">
        <ele>81.7</ele>
        <time>2023-01-04T15:26:55Z</time>
      </trkpt>
      <trkpt lat="49.94614" lon="2.35905">
        <ele>81.7</ele>
        <time>2023-01-04T15:26:56Z</time>
      </trkpt>
      <trkpt lat="49.94614" lon="2.35905">
        <ele>81.7</ele>
        <time>2023-01-04T15:26:57Z</time>
      </trkpt>
      <trkpt lat="49.94614" lon="2.35905">
        <ele>81.7</ele>
        <time>2023-01-04T15:26:58Z</time>
      </trkpt>
      <trkpt lat="49.94615" lon="2.35905">
        <ele>81.8</ele>
        <time>2023-01-04T15:26:59Z</time>
      </trkpt>
      <trkpt lat="49.94615" lon="2.35905">
        <ele>81.8</ele>
        <time>2023-01-04T15:27:00Z</time>
      </trkpt>
      <trkpt lat="49.94615" lon="2.35905">
        <ele>81.8</ele>
        <time>2023-01-04T15:27:01Z</time>
      </trkpt>
      <trkpt lat="49.94615" lon="2.35905">
        <ele>81.8</ele>
        <time>2023-01-04T15:27:02Z</time>
      </trkpt>
      <trkpt lat="49.94615" lon="2.35905">
        <ele>81.8</ele>
        <time>2023-01-04T15:27:03Z</time>
      </trkpt>
      <trkpt lat="49.94614" lon="2.35905">
        <ele>81.8</ele>
        <time>2023-01-04T15:27:04Z</time>
      </trkpt>
      <trkpt lat="49.94614" lon="2.35904">
        <ele>81.8</ele>
        <time>2023-01-04T15:27:06Z</time>
      </trkpt>
      <trkpt lat="49.94613" lon="2.35904">
        <ele>81.8</ele>
        <time>2023-01-04T15:27:07Z</time>
      </trkpt>
      <trkpt lat="49.94613" lon="2.35904">
        <ele>81.8</ele>
        <time>2023-01-04T15:27:09Z</time>
      </trkpt>
      <trkpt lat="49.94612" lon="2.35905">
        <ele>81.8</ele>
        <time>2023-01-04T15:27:10Z</time>
      </trkpt>
      <trkpt lat="49.94611" lon="2.35906">
        <ele>81.9</ele>
        <time>2023-01-04T15:27:11Z</time>
      </trkpt>
      <trkpt lat="49.94611" lon="2.35907">
        <ele>81.9</ele>
        <time>2023-01-04T15:27:13Z</time>
      </trkpt>
      <trkpt lat="49.9461" lon="2.35907">
        <ele>81.9</ele>
        <time>2023-01-04T15:27:14Z</time>
      </trkpt>
      <trkpt lat="49.94609" lon="2.35908">
        <ele>81.9</ele>
        <time>2023-01-04T15:27:15Z</time>
      </trkpt>
      <trkpt lat="49.94607" lon="2.35909">
        <ele>82</ele>
        <time>2023-01-04T15:27:16Z</time>
      </trkpt>
      <trkpt lat="49.94607" lon="2.3591">
        <ele>82</ele>
        <time>2023-01-04T15:27:17Z</time>
      </trkpt>
      <trkpt lat="49.94606" lon="2.35911">
        <ele>82</ele>
        <time>2023-01-04T15:27:18Z</time>
      </trkpt>
      <trkpt lat="49.94606" lon="2.35912">
        <ele>82</ele>
        <time>2023-01-04T15:27:19Z</time>
      </trkpt>
      <trkpt lat="49.94605" lon="2.35913">
        <ele>82</ele>
        <time>2023-01-04T15:27:20Z</time>
      </trkpt>
      <trkpt lat="49.94604" lon="2.35915">
        <ele>82.1</ele>
        <time>2023-01-04T15:27:22Z</time>
      </trkpt>
      <trkpt lat="49.94602" lon="2.35917">
        <ele>82.1</ele>
        <time>2023-01-04T15:27:23Z</time>
      </trkpt>
      <trkpt lat="49.94601" lon="2.35919">
        <ele>82.1</ele>
        <time>2023-01-04T15:27:24Z</time>
      </trkpt>
      <trkpt lat="49.94599" lon="2.35921">
        <ele>82.2</ele>
        <time>2023-01-04T15:27:25Z</time>
      </trkpt>
      <trkpt lat="49.94599" lon="2.35922">
        <ele>82.2</ele>
        <time>2023-01-04T15:27:26Z</time>
      </trkpt>
      <trkpt lat="49.94598" lon="2.35923">
        <ele>82.2</ele>
        <time>2023-01-04T15:27:27Z</time>
      </trkpt>
      <trkpt lat="49.94598" lon="2.35924">
        <ele>82.3</ele>
        <time>2023-01-04T15:27:28Z</time>
      </trkpt>
      <trkpt lat="49.94597" lon="2.35925">
        <ele>82.3</ele>
        <time>2023-01-04T15:27:30Z</time>
      </trkpt>
      <trkpt lat="49.94596" lon="2.35926">
        <ele>82.3</ele>
        <time>2023-01-04T15:27:31Z</time>
      </trkpt>
      <trkpt lat="49.94595" lon="2.35927">
        <ele>82.3</ele>
        <time>2023-01-04T15:27:32Z</time>
      </trkpt>
      <trkpt lat="49.94594" lon="2.35929">
        <ele>82.4</ele>
        <time>2023-01-04T15:27:33Z</time>
      </trkpt>
      <trkpt lat="49.94594" lon="2.3593">
        <ele>82.4</ele>
        <time>2023-01-04T15:27:34Z</time>
      </trkpt>
      <trkpt lat="49.94593" lon="2.35931">
        <ele>82.4</ele>
        <time>2023-01-04T15:27:35Z</time>
      </trkpt>
      <trkpt lat="49.94592" lon="2.35933">
        <ele>82.5</ele>
        <time>2023-01-04T15:27:36Z</time>
      </trkpt>
      <trkpt lat="49.94592" lon="2.35935">
        <ele>82.5</ele>
        <time>2023-01-04T15:27:37Z</time>
      </trkpt>
      <trkpt lat="49.94591" lon="2.35936">
        <ele>82.5</ele>
        <time>2023-01-04T15:27:39Z</time>
      </trkpt>
      <trkpt lat="49.94591" lon="2.35937">
        <ele>82.6</ele>
        <time>2023-01-04T15:27:40Z</time>
      </trkpt>
      <trkpt lat="49.9459" lon="2.35939">
        <ele>82.6</ele>
        <time>2023-01-04T15:27:41Z</time>
      </trkpt>
      <trkpt lat="49.9459" lon="2.3594">
        <ele>82.6</ele>
        <time>2023-01-04T15:27:42Z</time>
      </trkpt>
      <trkpt lat="49.94589" lon="2.35942">
        <ele>82.6</ele>
        <time>2023-01-04T15:27:43Z</time>
      </trkpt>
      <trkpt lat="49.94588" lon="2.35944">
        <ele>82.7</ele>
        <time>2023-01-04T15:27:45Z</time>
      </trkpt>
      <trkpt lat="49.94587" lon="2.35946">
        <ele>82.7</ele>
        <time>2023-01-04T15:27:46Z</time>
      </trkpt>
      <trkpt lat="49.94586" lon="2.35948">
        <ele>82.8</ele>
        <time>2023-01-04T15:27:47Z</time>
      </trkpt>
      <trkpt lat="49.94585" lon="2.3595">
        <ele>82.8</ele>
        <time>2023-01-04T15:27:48Z</time>
      </trkpt>
      <trkpt lat="49.94584" lon="2.35952">
        <ele>82.9</ele>
        <time>2023-01-04T15:27:49Z</time>
      </trkpt>
      <trkpt lat="49.94583" lon="2.35954">
        <ele>82.9</ele>
        <time>2023-01-04T15:27:50Z</time>
      </trkpt>
      <trkpt lat="49.94583" lon="2.35956">
        <ele>83</ele>
        <time>2023-01-04T15:27:52Z</time>
      </trkpt>
      <trkpt lat="49.94582" lon="2.35958">
        <ele>83</ele>
        <time>2023-01-04T15:27:53Z</time>
      </trkpt>
      <trkpt lat="49.94581" lon="2.3596">
        <ele>83.1</ele>
        <time>2023-01-04T15:27:54Z</time>
      </trkpt>
      <trkpt lat="49.9458" lon="2.35963">
        <ele>83.1</ele>
        <time>2023-01-04T15:27:55Z</time>
      </trkpt>
      <trkpt lat="49.94579" lon="2.35964">
        <ele>83.2</ele>
        <time>2023-01-04T15:27:56Z</time>
      </trkpt>
      <trkpt lat="49.94579" lon="2.35965">
        <ele>83.2</ele>
        <time>2023-01-04T15:27:57Z</time>
      </trkpt>
      <trkpt lat="49.94579" lon="2.35967">
        <ele>83.2</ele>
        <time>2023-01-04T15:27:58Z</time>
      </trkpt>
      <trkpt lat="49.94578" lon="2.35969">
        <ele>83.3</ele>
        <time>2023-01-04T15:28:00Z</time>
      </trkpt>
      <trkpt lat="49.94577" lon="2.35971">
        <ele>83.3</ele>
        <time>2023-01-04T15:28:01Z</time>
      </trkpt>
      <trkpt lat="49.94577" lon="2.35972">
        <ele>83.3</ele>
        <time>2023-01-04T15:28:02Z</time>
      </trkpt>
      <trkpt lat="49.94577" lon="2.35974">
        <ele>83.4</ele>
        <time>2023-01-04T15:28:03Z</time>
      </trkpt>
      <trkpt lat="49.94576" lon="2.35975">
        <ele>83.4</ele>
        <time>2023-01-04T15:28:04Z</time>
      </trkpt>
      <trkpt lat="49.94576" lon="2.35976">
        <ele>83.5</ele>
        <time>2023-01-04T15:28:05Z</time>
      </trkpt>
      <trkpt lat="49.94575" lon="2.35978">
        <ele>83.5</ele>
        <time>2023-01-04T15:28:06Z</time>
      </trkpt>
      <trkpt lat="49.94574" lon="2.35981">
        <ele>83.6</ele>
        <time>2023-01-04T15:28:08Z</time>
      </trkpt>
      <trkpt lat="49.94574" lon="2.35982">
        <ele>83.6</ele>
        <time>2023-01-04T15:28:09Z</time>
      </trkpt>
      <trkpt lat="49.94574" lon="2.35984">
        <ele>83.7</ele>
        <time>2023-01-04T15:28:10Z</time>
      </trkpt>
      <trkpt lat="49.94574" lon="2.35985">
        <ele>83.7</ele>
        <time>2023-01-04T15:28:11Z</time>
      </trkpt>
      <trkpt lat="49.94574" lon="2.35986">
        <ele>83.7</ele>
        <time>2023-01-04T15:28:12Z</time>
      </trkpt>
      <trkpt lat="49.94574" lon="2.35988">
        <ele>83.8</ele>
        <time>2023-01-04T15:28:13Z</time>
      </trkpt>
      <trkpt lat="49.94574" lon="2.35989">
        <ele>83.8</ele>
        <time>2023-01-04T15:28:15Z</time>
      </trkpt>
      <trkpt lat="49.94573" lon="2.35992">
        <ele>83.9</ele>
        <time>2023-01-04T15:28:16Z</time>
      </trkpt>
      <trkpt lat="49.94573" lon="2.35993">
        <ele>83.9</ele>
        <time>2023-01-04T15:28:17Z</time>
      </trkpt>
      <trkpt lat="49.94573" lon="2.35995">
        <ele>84</ele>
        <time>2023-01-04T15:28:18Z</time>
      </trkpt>
      <trkpt lat="49.94573" lon="2.35996">
        <ele>84</ele>
        <time>2023-01-04T15:28:19Z</time>
      </trkpt>
      <trkpt lat="49.94573" lon="2.35998">
        <ele>84</ele>
        <time>2023-01-04T15:28:20Z</time>
      </trkpt>
      <trkpt lat="49.94573" lon="2.36">
        <ele>84.1</ele>
        <time>2023-01-04T15:28:21Z</time>
      </trkpt>
      <trkpt lat="49.94573" lon="2.36004">
        <ele>84.2</ele>
        <time>2023-01-04T15:28:23Z</time>
      </trkpt>
      <trkpt lat="49.94572" lon="2.36005">
        <ele>84.2</ele>
        <time>2023-01-04T15:28:24Z</time>
      </trkpt>
      <trkpt lat="49.94572" lon="2.36007">
        <ele>84.3</ele>
        <time>2023-01-04T15:28:25Z</time>
      </trkpt>
      <trkpt lat="49.94572" lon="2.36008">
        <ele>84.3</ele>
        <time>2023-01-04T15:28:26Z</time>
      </trkpt>
      <trkpt lat="49.94572" lon="2.36009">
        <ele>84.4</ele>
        <time>2023-01-04T15:28:27Z</time>
      </trkpt>
      <trkpt lat="49.94572" lon="2.36011">
        <ele>84.4</ele>
        <time>2023-01-04T15:28:28Z</time>
      </trkpt>
      <trkpt lat="49.94573" lon="2.36013">
        <ele>84.5</ele>
        <time>2023-01-04T15:28:30Z</time>
      </trkpt>
      <trkpt lat="49.94573" lon="2.36016">
        <ele>84.5</ele>
        <time>2023-01-04T15:28:31Z</time>
      </trkpt>
      <trkpt lat="49.94573" lon="2.36017">
        <ele>84.6</ele>
        <time>2023-01-04T15:28:32Z</time>
      </trkpt>
      <trkpt lat="49.94574" lon="2.36018">
        <ele>84.6</ele>
        <time>2023-01-04T15:28:33Z</time>
      </trkpt>
      <trkpt lat="49.94574" lon="2.36019">
        <ele>84.7</ele>
        <time>2023-01-04T15:28:34Z</time>
      </trkpt>
      <trkpt lat="49.94574" lon="2.3602">
        <ele>84.7</ele>
        <time>2023-01-04T15:28:35Z</time>
      </trkpt>
      <trkpt lat="49.94574" lon="2.36022">
        <ele>84.7</ele>
        <time>2023-01-04T15:28:37Z</time>
      </trkpt>
      <trkpt lat="49.94573" lon="2.36023">
        <ele>84.8</ele>
        <time>2023-01-04T15:28:38Z</time>
      </trkpt>
      <trkpt lat="49.94573" lon="2.36022">
        <ele>84.8</ele>
        <time>2023-01-04T15:28:40Z</time>
      </trkpt>
      <trkpt lat="49.94572" lon="2.36022">
        <ele>84.8</ele>
        <time>2023-01-04T15:28:41Z</time>
      </trkpt>
      <trkpt lat="49.94572" lon="2.36022">
        <ele>84.8</ele>
        <time>2023-01-04T15:28:43Z</time>
      </trkpt>
      <trkpt lat="49.94572" lon="2.36022">
        <ele>84.8</ele>
        <time>2023-01-04T15:28:44Z</time>
      </trkpt>
      <trkpt lat="49.94572" lon="2.36021">
        <ele>84.8</ele>
        <time>2023-01-04T15:28:45Z</time>
      </trkpt>
      <trkpt lat="49.94572" lon="2.36021">
        <ele>84.9</ele>
        <time>2023-01-04T15:28:47Z</time>
      </trkpt>
      <trkpt lat="49.94572" lon="2.36021">
        <ele>84.9</ele>
        <time>2023-01-04T15:28:48Z</time>
      </trkpt>
      <trkpt lat="49.94572" lon="2.36021">
        <ele>84.9</ele>
        <time>2023-01-04T15:28:49Z</time>
      </trkpt>
      <trkpt lat="49.94572" lon="2.36021">
        <ele>84.9</ele>
        <time>2023-01-04T15:28:51Z</time>
      </trkpt>
      <trkpt lat="49.94572" lon="2.36021">
        <ele>84.9</ele>
        <time>2023-01-04T15:28:52Z</time>
      </trkpt>
      <trkpt lat="49.94572" lon="2.3602">
        <ele>84.9</ele>
        <time>2023-01-04T15:28:53Z</time>
      </trkpt>
      <trkpt lat="49.94572" lon="2.3602">
        <ele>84.9</ele>
        <time>2023-01-04T15:28:54Z</time>
      </trkpt>
      <trkpt lat="49.94572" lon="2.3602">
        <ele>84.9</ele>
        <time>2023-01-04T15:28:55Z</time>
      </trkpt>
      <trkpt lat="49.94572" lon="2.3602">
        <ele>84.9</ele>
        <time>2023-01-04T15:28:56Z</time>
      </trkpt>
      <trkpt lat="49.94572" lon="2.3602">
        <ele>84.9</ele>
        <time>2023-01-04T15:28:57Z</time>
      </trkpt>
      <trkpt lat="49.94572" lon="2.3602">
        <ele>84.9</ele>
        <time>2023-01-04T15:28:58Z</time>
      </trkpt>
      <trkpt lat="49.94572" lon="2.3602">
        <ele>84.9</ele>
        <time>2023-01-04T15:28:59Z</time>
      </trkpt>
      <trkpt lat="49.94572" lon="2.3602">
        <ele>84.9</ele>
        <time>2023-01-04T15:29:00Z</time>
      </trkpt>
      <trkpt lat="49.94572" lon="2.3602">
        <ele>84.9</ele>
        <time>2023-01-04T15:29:01Z</time>
      </trkpt>
      <trkpt lat="49.94572" lon="2.3602">
        <ele>84.9</ele>
        <time>2023-01-04T15:29:02Z</time>
      </trkpt>
      <trkpt lat="49.94572" lon="2.3602">
        <ele>84.9</ele>
        <time>2023-01-04T15:29:03Z</time>
      </trkpt>
      <trkpt lat="49.94572" lon="2.3602">
        <ele>84.9</ele>
        <time>2023-01-04T15:29:04Z</time>
      </trkpt>
      <trkpt lat="49.94572" lon="2.3602">
        <ele>84.9</ele>
        <time>2023-01-04T15:29:05Z</time>
      </trkpt>
      <trkpt lat="49.94572" lon="2.3602">
        <ele>84.9</ele>
        <time>2023-01-04T15:29:06Z</time>
      </trkpt>
      <trkpt lat="49.94572" lon="2.3602">
        <ele>84.9</ele>
        <time>2023-01-04T15:29:07Z</time>
      </trkpt>
      <trkpt lat="49.94572" lon="2.3602">
        <ele>84.9</ele>
        <time>2023-01-04T15:29:08Z</time>
      </trkpt>
      <trkpt lat="49.94572" lon="2.3602">
        <ele>84.9</ele>
        <time>2023-01-04T15:29:09Z</time>
      </trkpt>
      <trkpt lat="49.94572" lon="2.3602">
        <ele>84.9</ele>
        <time>2023-01-04T15:29:10Z</time>
      </trkpt>
      <trkpt lat="49.94572" lon="2.3602">
        <ele>84.9</ele>
        <time>2023-01-04T15:29:11Z</time>
      </trkpt>
      <trkpt lat="49.94572" lon="2.3602">
        <ele>84.9</ele>
        <time>2023-01-04T15:29:12Z</time>
      </trkpt>
      <trkpt lat="49.94572" lon="2.3602">
        <ele>84.9</ele>
        <time>2023-01-04T15:29:13Z</time>
      </trkpt>
      <trkpt lat="49.94572" lon="2.3602">
        <ele>84.9</ele>
        <time>2023-01-04T15:29:14Z</time>
      </trkpt>
      <trkpt lat="49.94572" lon="2.3602">
        <ele>84.9</ele>
        <time>2023-01-04T15:29:15Z</time>
      </trkpt>
      <trkpt lat="49.94572" lon="2.3602">
        <ele>84.9</ele>
        <time>2023-01-04T15:29:16Z</time>
      </trkpt>
      <trkpt lat="49.94572" lon="2.3602">
        <ele>84.9</ele>
        <time>2023-01-04T15:29:17Z</time>
      </trkpt>
      <trkpt lat="49.94572" lon="2.3602">
        <ele>84.9</ele>
        <time>2023-01-04T15:29:18Z</time>
      </trkpt>
      <trkpt lat="49.94572" lon="2.3602">
        <ele>84.9</ele>
        <time>2023-01-04T15:29:19Z</time>
      </trkpt>
      <trkpt lat="49.94572" lon="2.3602">
        <ele>84.9</ele>
        <time>2023-01-04T15:29:20Z</time>
      </trkpt>
      <trkpt lat="49.94572" lon="2.3602">
        <ele>84.9</ele>
        <time>2023-01-04T15:29:21Z</time>
      </trkpt>
      <trkpt lat="49.94572" lon="2.3602">
        <ele>84.9</ele>
        <time>2023-01-04T15:29:22Z</time>
      </trkpt>
      <trkpt lat="49.94572" lon="2.3602">
        <ele>84.9</ele>
        <time>2023-01-04T15:29:23Z</time>
      </trkpt>
      <trkpt lat="49.94572" lon="2.3602">
        <ele>84.9</ele>
        <time>2023-01-04T15:29:24Z</time>
      </trkpt>
      <trkpt lat="49.94572" lon="2.3602">
        <ele>84.9</ele>
        <time>2023-01-04T15:29:25Z</time>
      </trkpt>
      <trkpt lat="49.94572" lon="2.3602">
        <ele>84.9</ele>
        <time>2023-01-04T15:29:26Z</time>
      </trkpt>
      <trkpt lat="49.94572" lon="2.3602">
        <ele>84.9</ele>
        <time>2023-01-04T15:29:27Z</time>
      </trkpt>
      <trkpt lat="49.94572" lon="2.3602">
        <ele>84.9</ele>
        <time>2023-01-04T15:29:28Z</time>
      </trkpt>
      <trkpt lat="49.94572" lon="2.3602">
        <ele>84.9</ele>
        <time>2023-01-04T15:29:29Z</time>
      </trkpt>
      <trkpt lat="49.94572" lon="2.3602">
        <ele>84.9</ele>
        <time>2023-01-04T15:29:30Z</time>
      </trkpt>
      <trkpt lat="49.94572" lon="2.3602">
        <ele>84.9</ele>
        <time>2023-01-04T15:29:31Z</time>
      </trkpt>
      <trkpt lat="49.94572" lon="2.3602">
        <ele>84.9</ele>
        <time>2023-01-04T15:29:32Z</time>
      </trkpt>
      <trkpt lat="49.94572" lon="2.3602">
        <ele>84.9</ele>
        <time>2023-01-04T15:29:33Z</time>
      </trkpt>
      <trkpt lat="49.94572" lon="2.3602">
        <ele>84.9</ele>
        <time>2023-01-04T15:29:34Z</time>
      </trkpt>
      <trkpt lat="49.94572" lon="2.3602">
        <ele>84.9</ele>
        <time>2023-01-04T15:29:35Z</time>
      </trkpt>
      <trkpt lat="49.94572" lon="2.3602">
        <ele>84.9</ele>
        <time>2023-01-04T15:29:36Z</time>
      </trkpt>
      <trkpt lat="49.94572" lon="2.3602">
        <ele>84.9</ele>
        <time>2023-01-04T15:29:37Z</time>
      </trkpt>
      <trkpt lat="49.94572" lon="2.3602">
        <ele>84.9</ele>
        <time>2023-01-04T15:29:38Z</time>
      </trkpt>
      <trkpt lat="49.94572" lon="2.3602">
        <ele>84.9</ele>
        <time>2023-01-04T15:29:39Z</time>
      </trkpt>
      <trkpt lat="49.94573" lon="2.36019">
        <ele>84.9</ele>
        <time>2023-01-04T15:29:40Z</time>
      </trkpt>
      <trkpt lat="49.94572" lon="2.36019">
        <ele>85</ele>
        <time>2023-01-04T15:29:41Z</time>
      </trkpt>
      <trkpt lat="49.94572" lon="2.36018">
        <ele>85</ele>
        <time>2023-01-04T15:29:42Z</time>
      </trkpt>
      <trkpt lat="49.94571" lon="2.36019">
        <ele>85</ele>
        <time>2023-01-04T15:29:43Z</time>
      </trkpt>
      <trkpt lat="49.9457" lon="2.3602">
        <ele>85.1</ele>
        <time>2023-01-04T15:29:44Z</time>
      </trkpt>
      <trkpt lat="49.94569" lon="2.36021">
        <ele>85.1</ele>
        <time>2023-01-04T15:29:45Z</time>
      </trkpt>
      <trkpt lat="49.94569" lon="2.36022">
        <ele>85.1</ele>
        <time>2023-01-04T15:29:47Z</time>
      </trkpt>
      <trkpt lat="49.94568" lon="2.36022">
        <ele>85.1</ele>
        <time>2023-01-04T15:29:48Z</time>
      </trkpt>
      <trkpt lat="49.94567" lon="2.36022">
        <ele>85.1</ele>
        <time>2023-01-04T15:29:49Z</time>
      </trkpt>
      <trkpt lat="49.94566" lon="2.36022">
        <ele>85.1</ele>
        <time>2023-01-04T15:29:50Z</time>
      </trkpt>
      <trkpt lat="49.94563" lon="2.36022">
        <ele>85.1</ele>
        <time>2023-01-04T15:29:51Z</time>
      </trkpt>
      <trkpt lat="49.94561" lon="2.36023">
        <ele>85.1</ele>
        <time>2023-01-04T15:29:53Z</time>
      </trkpt>
      <trkpt lat="49.9456" lon="2.36024">
        <ele>85.1</ele>
        <time>2023-01-04T15:29:54Z</time>
      </trkpt>
      <trkpt lat="49.94559" lon="2.36025">
        <ele>85.1</ele>
        <time>2023-01-04T15:29:55Z</time>
      </trkpt>
      <trkpt lat="49.94557" lon="2.36026">
        <ele>85.1</ele>
        <time>2023-01-04T15:29:56Z</time>
      </trkpt>
      <trkpt lat="49.94556" lon="2.36026">
        <ele>85.1</ele>
        <time>2023-01-04T15:29:57Z</time>
      </trkpt>
      <trkpt lat="49.94555" lon="2.36027">
        <ele>85.1</ele>
        <time>2023-01-04T15:29:58Z</time>
      </trkpt>
      <trkpt lat="49.94553" lon="2.36028">
        <ele>85.1</ele>
        <time>2023-01-04T15:30:00Z</time>
      </trkpt>
      <trkpt lat="49.94553" lon="2.36029">
        <ele>85.1</ele>
        <time>2023-01-04T15:30:01Z</time>
      </trkpt>
      <trkpt lat="49.94552" lon="2.36029">
        <ele>85.1</ele>
        <time>2023-01-04T15:30:02Z</time>
      </trkpt>
      <trkpt lat="49.9455" lon="2.3603">
        <ele>85</ele>
        <time>2023-01-04T15:30:03Z</time>
      </trkpt>
      <trkpt lat="49.94549" lon="2.3603">
        <ele>85</ele>
        <time>2023-01-04T15:30:04Z</time>
      </trkpt>
      <trkpt lat="49.94548" lon="2.3603">
        <ele>85</ele>
        <time>2023-01-04T15:30:05Z</time>
      </trkpt>
      <trkpt lat="49.94547" lon="2.36029">
        <ele>85</ele>
        <time>2023-01-04T15:30:06Z</time>
      </trkpt>
      <trkpt lat="49.94545" lon="2.36028">
        <ele>85</ele>
        <time>2023-01-04T15:30:08Z</time>
      </trkpt>
      <trkpt lat="49.94544" lon="2.36028">
        <ele>85</ele>
        <time>2023-01-04T15:30:09Z</time>
      </trkpt>
      <trkpt lat="49.94543" lon="2.36028">
        <ele>85</ele>
        <time>2023-01-04T15:30:10Z</time>
      </trkpt>
      <trkpt lat="49.94541" lon="2.36028">
        <ele>85</ele>
        <time>2023-01-04T15:30:11Z</time>
      </trkpt>
      <trkpt lat="49.9454" lon="2.36029">
        <ele>85</ele>
        <time>2023-01-04T15:30:12Z</time>
      </trkpt>
      <trkpt lat="49.94539" lon="2.3603">
        <ele>85</ele>
        <time>2023-01-04T15:30:13Z</time>
      </trkpt>
      <trkpt lat="49.94538" lon="2.36031">
        <ele>85</ele>
        <time>2023-01-04T15:30:14Z</time>
      </trkpt>
      <trkpt lat="49.94537" lon="2.36032">
        <ele>85.1</ele>
        <time>2023-01-04T15:30:15Z</time>
      </trkpt>
      <trkpt lat="49.94536" lon="2.36034">
        <ele>85.1</ele>
        <time>2023-01-04T15:30:17Z</time>
      </trkpt>
      <trkpt lat="49.94535" lon="2.36035">
        <ele>85.1</ele>
        <time>2023-01-04T15:30:18Z</time>
      </trkpt>
      <trkpt lat="49.94534" lon="2.36036">
        <ele>85.2</ele>
        <time>2023-01-04T15:30:19Z</time>
      </trkpt>
      <trkpt lat="49.94534" lon="2.36037">
        <ele>85.2</ele>
        <time>2023-01-04T15:30:20Z</time>
      </trkpt>
      <trkpt lat="49.94533" lon="2.36039">
        <ele>85.2</ele>
        <time>2023-01-04T15:30:21Z</time>
      </trkpt>
      <trkpt lat="49.94532" lon="2.3604">
        <ele>85.3</ele>
        <time>2023-01-04T15:30:22Z</time>
      </trkpt>
      <trkpt lat="49.94532" lon="2.36042">
        <ele>85.3</ele>
        <time>2023-01-04T15:30:23Z</time>
      </trkpt>
      <trkpt lat="49.94531" lon="2.36043">
        <ele>85.3</ele>
        <time>2023-01-04T15:30:24Z</time>
      </trkpt>
      <trkpt lat="49.94531" lon="2.36045">
        <ele>85.3</ele>
        <time>2023-01-04T15:30:25Z</time>
      </trkpt>
      <trkpt lat="49.9453" lon="2.36047">
        <ele>85.4</ele>
        <time>2023-01-04T15:30:27Z</time>
      </trkpt>
      <trkpt lat="49.94529" lon="2.36048">
        <ele>85.4</ele>
        <time>2023-01-04T15:30:28Z</time>
      </trkpt>
      <trkpt lat="49.94529" lon="2.36049">
        <ele>85.4</ele>
        <time>2023-01-04T15:30:29Z</time>
      </trkpt>
      <trkpt lat="49.94528" lon="2.36051">
        <ele>85.5</ele>
        <time>2023-01-04T15:30:30Z</time>
      </trkpt>
      <trkpt lat="49.94527" lon="2.36053">
        <ele>85.5</ele>
        <time>2023-01-04T15:30:31Z</time>
      </trkpt>
      <trkpt lat="49.94527" lon="2.36054">
        <ele>85.5</ele>
        <time>2023-01-04T15:30:32Z</time>
      </trkpt>
      <trkpt lat="49.94526" lon="2.36055">
        <ele>85.6</ele>
        <time>2023-01-04T15:30:33Z</time>
      </trkpt>
      <trkpt lat="49.94525" lon="2.36057">
        <ele>85.6</ele>
        <time>2023-01-04T15:30:35Z</time>
      </trkpt>
      <trkpt lat="49.94524" lon="2.36059">
        <ele>85.7</ele>
        <time>2023-01-04T15:30:36Z</time>
      </trkpt>
      <trkpt lat="49.94523" lon="2.3606">
        <ele>85.7</ele>
        <time>2023-01-04T15:30:37Z</time>
      </trkpt>
      <trkpt lat="49.94523" lon="2.36061">
        <ele>85.7</ele>
        <time>2023-01-04T15:30:38Z</time>
      </trkpt>
      <trkpt lat="49.94522" lon="2.36063">
        <ele>85.8</ele>
        <time>2023-01-04T15:30:39Z</time>
      </trkpt>
      <trkpt lat="49.94521" lon="2.36064">
        <ele>85.8</ele>
        <time>2023-01-04T15:30:40Z</time>
      </trkpt>
      <trkpt lat="49.94519" lon="2.36066">
        <ele>85.9</ele>
        <time>2023-01-04T15:30:41Z</time>
      </trkpt>
      <trkpt lat="49.94519" lon="2.36067">
        <ele>85.9</ele>
        <time>2023-01-04T15:30:43Z</time>
      </trkpt>
      <trkpt lat="49.94518" lon="2.36068">
        <ele>86</ele>
        <time>2023-01-04T15:30:44Z</time>
      </trkpt>
      <trkpt lat="49.94517" lon="2.36069">
        <ele>86</ele>
        <time>2023-01-04T15:30:45Z</time>
      </trkpt>
      <trkpt lat="49.94516" lon="2.36071">
        <ele>86.1</ele>
        <time>2023-01-04T15:30:46Z</time>
      </trkpt>
      <trkpt lat="49.94515" lon="2.36072">
        <ele>86.1</ele>
        <time>2023-01-04T15:30:47Z</time>
      </trkpt>
      <trkpt lat="49.94515" lon="2.36073">
        <ele>86.1</ele>
        <time>2023-01-04T15:30:48Z</time>
      </trkpt>
      <trkpt lat="49.94514" lon="2.36074">
        <ele>86.2</ele>
        <time>2023-01-04T15:30:50Z</time>
      </trkpt>
      <trkpt lat="49.94513" lon="2.36075">
        <ele>86.2</ele>
        <time>2023-01-04T15:30:51Z</time>
      </trkpt>
      <trkpt lat="49.94512" lon="2.36077">
        <ele>86.3</ele>
        <time>2023-01-04T15:30:52Z</time>
      </trkpt>
      <trkpt lat="49.94511" lon="2.36078">
        <ele>86.3</ele>
        <time>2023-01-04T15:30:53Z</time>
      </trkpt>
      <trkpt lat="49.94511" lon="2.3608">
        <ele>86.4</ele>
        <time>2023-01-04T15:30:54Z</time>
      </trkpt>
      <trkpt lat="49.9451" lon="2.36081">
        <ele>86.4</ele>
        <time>2023-01-04T15:30:55Z</time>
      </trkpt>
      <trkpt lat="49.9451" lon="2.36083">
        <ele>86.5</ele>
        <time>2023-01-04T15:30:56Z</time>
      </trkpt>
      <trkpt lat="49.94509" lon="2.36084">
        <ele>86.5</ele>
        <time>2023-01-04T15:30:57Z</time>
      </trkpt>
      <trkpt lat="49.94508" lon="2.36086">
        <ele>86.6</ele>
        <time>2023-01-04T15:30:59Z</time>
      </trkpt>
      <trkpt lat="49.94508" lon="2.36087">
        <ele>86.6</ele>
        <time>2023-01-04T15:31:00Z</time>
      </trkpt>
      <trkpt lat="49.94507" lon="2.36089">
        <ele>86.7</ele>
        <time>2023-01-04T15:31:01Z</time>
      </trkpt>
      <trkpt lat="49.94506" lon="2.36091">
        <ele>86.8</ele>
        <time>2023-01-04T15:31:02Z</time>
      </trkpt>
      <trkpt lat="49.94506" lon="2.36092">
        <ele>86.8</ele>
        <time>2023-01-04T15:31:04Z</time>
      </trkpt>
      <trkpt lat="49.94505" lon="2.36094">
        <ele>86.9</ele>
        <time>2023-01-04T15:31:05Z</time>
      </trkpt>
      <trkpt lat="49.94504" lon="2.36095">
        <ele>87</ele>
        <time>2023-01-04T15:31:06Z</time>
      </trkpt>
      <trkpt lat="49.94504" lon="2.36097">
        <ele>87</ele>
        <time>2023-01-04T15:31:07Z</time>
      </trkpt>
      <trkpt lat="49.94503" lon="2.36099">
        <ele>87.1</ele>
        <time>2023-01-04T15:31:08Z</time>
      </trkpt>
      <trkpt lat="49.94503" lon="2.361">
        <ele>87.1</ele>
        <time>2023-01-04T15:31:09Z</time>
      </trkpt>
      <trkpt lat="49.94502" lon="2.36102">
        <ele>87.2</ele>
        <time>2023-01-04T15:31:11Z</time>
      </trkpt>
      <trkpt lat="49.94502" lon="2.36103">
        <ele>87.3</ele>
        <time>2023-01-04T15:31:12Z</time>
      </trkpt>
      <trkpt lat="49.94501" lon="2.36103">
        <ele>87.3</ele>
        <time>2023-01-04T15:31:13Z</time>
      </trkpt>
      <trkpt lat="49.945" lon="2.36104">
        <ele>87.4</ele>
        <time>2023-01-04T15:31:14Z</time>
      </trkpt>
      <trkpt lat="49.945" lon="2.36105">
        <ele>87.4</ele>
        <time>2023-01-04T15:31:15Z</time>
      </trkpt>
      <trkpt lat="49.94499" lon="2.36106">
        <ele>87.5</ele>
        <time>2023-01-04T15:31:16Z</time>
      </trkpt>
      <trkpt lat="49.94498" lon="2.36107">
        <ele>87.6</ele>
        <time>2023-01-04T15:31:17Z</time>
      </trkpt>
      <trkpt lat="49.94497" lon="2.36109">
        <ele>87.6</ele>
        <time>2023-01-04T15:31:18Z</time>
      </trkpt>
      <trkpt lat="49.94496" lon="2.3611">
        <ele>87.7</ele>
        <time>2023-01-04T15:31:19Z</time>
      </trkpt>
      <trkpt lat="49.94495" lon="2.36111">
        <ele>87.7</ele>
        <time>2023-01-04T15:31:21Z</time>
      </trkpt>
      <trkpt lat="49.94495" lon="2.36112">
        <ele>87.8</ele>
        <time>2023-01-04T15:31:22Z</time>
      </trkpt>
      <trkpt lat="49.94494" lon="2.36114">
        <ele>87.9</ele>
        <time>2023-01-04T15:31:23Z</time>
      </trkpt>
      <trkpt lat="49.94494" lon="2.36114">
        <ele>87.9</ele>
        <time>2023-01-04T15:31:24Z</time>
      </trkpt>
      <trkpt lat="49.94494" lon="2.36115">
        <ele>87.9</ele>
        <time>2023-01-04T15:31:25Z</time>
      </trkpt>
      <trkpt lat="49.94493" lon="2.36117">
        <ele>88</ele>
        <time>2023-01-04T15:31:27Z</time>
      </trkpt>
      <trkpt lat="49.94492" lon="2.36118">
        <ele>88.1</ele>
        <time>2023-01-04T15:31:28Z</time>
      </trkpt>
      <trkpt lat="49.94491" lon="2.3612">
        <ele>88.2</ele>
        <time>2023-01-04T15:31:29Z</time>
      </trkpt>
      <trkpt lat="49.9449" lon="2.36121">
        <ele>88.2</ele>
        <time>2023-01-04T15:31:31Z</time>
      </trkpt>
      <trkpt lat="49.9449" lon="2.36122">
        <ele>88.3</ele>
        <time>2023-01-04T15:31:32Z</time>
      </trkpt>
      <trkpt lat="49.94489" lon="2.36123">
        <ele>88.4</ele>
        <time>2023-01-04T15:31:33Z</time>
      </trkpt>
      <trkpt lat="49.94488" lon="2.36124">
        <ele>88.4</ele>
        <time>2023-01-04T15:31:34Z</time>
      </trkpt>
      <trkpt lat="49.94487" lon="2.36125">
        <ele>88.5</ele>
        <time>2023-01-04T15:31:35Z</time>
      </trkpt>
      <trkpt lat="49.94486" lon="2.36127">
        <ele>88.6</ele>
        <time>2023-01-04T15:31:36Z</time>
      </trkpt>
      <trkpt lat="49.94485" lon="2.36128">
        <ele>88.6</ele>
        <time>2023-01-04T15:31:38Z</time>
      </trkpt>
      <trkpt lat="49.94485" lon="2.36129">
        <ele>88.7</ele>
        <time>2023-01-04T15:31:39Z</time>
      </trkpt>
      <trkpt lat="49.94484" lon="2.3613">
        <ele>88.8</ele>
        <time>2023-01-04T15:31:40Z</time>
      </trkpt>
      <trkpt lat="49.94484" lon="2.36131">
        <ele>88.8</ele>
        <time>2023-01-04T15:31:42Z</time>
      </trkpt>
      <trkpt lat="49.94483" lon="2.36132">
        <ele>88.9</ele>
        <time>2023-01-04T15:31:43Z</time>
      </trkpt>
      <trkpt lat="49.94482" lon="2.36133">
        <ele>88.9</ele>
        <time>2023-01-04T15:31:44Z</time>
      </trkpt>
      <trkpt lat="49.94481" lon="2.36134">
        <ele>89</ele>
        <time>2023-01-04T15:31:45Z</time>
      </trkpt>
      <trkpt lat="49.9448" lon="2.36136">
        <ele>89.1</ele>
        <time>2023-01-04T15:31:47Z</time>
      </trkpt>
      <trkpt lat="49.9448" lon="2.36137">
        <ele>89.1</ele>
        <time>2023-01-04T15:31:48Z</time>
      </trkpt>
      <trkpt lat="49.94479" lon="2.36138">
        <ele>89.2</ele>
        <time>2023-01-04T15:31:49Z</time>
      </trkpt>
      <trkpt lat="49.94478" lon="2.36138">
        <ele>89.3</ele>
        <time>2023-01-04T15:31:50Z</time>
      </trkpt>
      <trkpt lat="49.94477" lon="2.36139">
        <ele>89.3</ele>
        <time>2023-01-04T15:31:51Z</time>
      </trkpt>
      <trkpt lat="49.94476" lon="2.3614">
        <ele>89.4</ele>
        <time>2023-01-04T15:31:52Z</time>
      </trkpt>
      <trkpt lat="49.94475" lon="2.36141">
        <ele>89.5</ele>
        <time>2023-01-04T15:31:53Z</time>
      </trkpt>
      <trkpt lat="49.94474" lon="2.36142">
        <ele>89.5</ele>
        <time>2023-01-04T15:31:55Z</time>
      </trkpt>
      <trkpt lat="49.94473" lon="2.36145">
        <ele>89.7</ele>
        <time>2023-01-04T15:31:56Z</time>
      </trkpt>
      <trkpt lat="49.94472" lon="2.36145">
        <ele>89.7</ele>
        <time>2023-01-04T15:31:57Z</time>
      </trkpt>
      <trkpt lat="49.94471" lon="2.36146">
        <ele>89.8</ele>
        <time>2023-01-04T15:31:58Z</time>
      </trkpt>
      <trkpt lat="49.94471" lon="2.36147">
        <ele>89.9</ele>
        <time>2023-01-04T15:31:59Z</time>
      </trkpt>
      <trkpt lat="49.9447" lon="2.36148">
        <ele>89.9</ele>
        <time>2023-01-04T15:32:00Z</time>
      </trkpt>
      <trkpt lat="49.94469" lon="2.36149">
        <ele>90</ele>
        <time>2023-01-04T15:32:01Z</time>
      </trkpt>
      <trkpt lat="49.94468" lon="2.3615">
        <ele>90.1</ele>
        <time>2023-01-04T15:32:03Z</time>
      </trkpt>
      <trkpt lat="49.94467" lon="2.36151">
        <ele>90.1</ele>
        <time>2023-01-04T15:32:04Z</time>
      </trkpt>
      <trkpt lat="49.94466" lon="2.36152">
        <ele>90.2</ele>
        <time>2023-01-04T15:32:05Z</time>
      </trkpt>
      <trkpt lat="49.94465" lon="2.36153">
        <ele>90.3</ele>
        <time>2023-01-04T15:32:06Z</time>
      </trkpt>
      <trkpt lat="49.94464" lon="2.36154">
        <ele>90.3</ele>
        <time>2023-01-04T15:32:07Z</time>
      </trkpt>
      <trkpt lat="49.94463" lon="2.36155">
        <ele>90.4</ele>
        <time>2023-01-04T15:32:08Z</time>
      </trkpt>
      <trkpt lat="49.94462" lon="2.36156">
        <ele>90.5</ele>
        <time>2023-01-04T15:32:09Z</time>
      </trkpt>
      <trkpt lat="49.94462" lon="2.36157">
        <ele>90.6</ele>
        <time>2023-01-04T15:32:11Z</time>
      </trkpt>
      <trkpt lat="49.94461" lon="2.36158">
        <ele>90.7</ele>
        <time>2023-01-04T15:32:12Z</time>
      </trkpt>
      <trkpt lat="49.9446" lon="2.36159">
        <ele>90.8</ele>
        <time>2023-01-04T15:32:13Z</time>
      </trkpt>
      <trkpt lat="49.94459" lon="2.3616">
        <ele>90.8</ele>
        <time>2023-01-04T15:32:14Z</time>
      </trkpt>
      <trkpt lat="49.94458" lon="2.36161">
        <ele>90.9</ele>
        <time>2023-01-04T15:32:15Z</time>
      </trkpt>
      <trkpt lat="49.94457" lon="2.36162">
        <ele>91</ele>
        <time>2023-01-04T15:32:17Z</time>
      </trkpt>
      <trkpt lat="49.94456" lon="2.36163">
        <ele>91.1</ele>
        <time>2023-01-04T15:32:18Z</time>
      </trkpt>
      <trkpt lat="49.94455" lon="2.36164">
        <ele>91.2</ele>
        <time>2023-01-04T15:32:19Z</time>
      </trkpt>
      <trkpt lat="49.94454" lon="2.36165">
        <ele>91.3</ele>
        <time>2023-01-04T15:32:20Z</time>
      </trkpt>
      <trkpt lat="49.94452" lon="2.36166">
        <ele>91.4</ele>
        <time>2023-01-04T15:32:21Z</time>
      </trkpt>
      <trkpt lat="49.94452" lon="2.36166">
        <ele>91.4</ele>
        <time>2023-01-04T15:32:22Z</time>
      </trkpt>
      <trkpt lat="49.94451" lon="2.36167">
        <ele>91.5</ele>
        <time>2023-01-04T15:32:24Z</time>
      </trkpt>
      <trkpt lat="49.94451" lon="2.36167">
        <ele>91.5</ele>
        <time>2023-01-04T15:32:25Z</time>
      </trkpt>
      <trkpt lat="49.94449" lon="2.36168">
        <ele>91.6</ele>
        <time>2023-01-04T15:32:26Z</time>
      </trkpt>
      <trkpt lat="49.94449" lon="2.36169">
        <ele>91.7</ele>
        <time>2023-01-04T15:32:28Z</time>
      </trkpt>
      <trkpt lat="49.94448" lon="2.3617">
        <ele>91.8</ele>
        <time>2023-01-04T15:32:29Z</time>
      </trkpt>
      <trkpt lat="49.94447" lon="2.36171">
        <ele>91.9</ele>
        <time>2023-01-04T15:32:30Z</time>
      </trkpt>
      <trkpt lat="49.94446" lon="2.36173">
        <ele>92</ele>
        <time>2023-01-04T15:32:31Z</time>
      </trkpt>
      <trkpt lat="49.94445" lon="2.36174">
        <ele>92.1</ele>
        <time>2023-01-04T15:32:32Z</time>
      </trkpt>
      <trkpt lat="49.94444" lon="2.36175">
        <ele>92.1</ele>
        <time>2023-01-04T15:32:33Z</time>
      </trkpt>
      <trkpt lat="49.94443" lon="2.36176">
        <ele>92.2</ele>
        <time>2023-01-04T15:32:34Z</time>
      </trkpt>
      <trkpt lat="49.94442" lon="2.36178">
        <ele>92.4</ele>
        <time>2023-01-04T15:32:36Z</time>
      </trkpt>
      <trkpt lat="49.94441" lon="2.36179">
        <ele>92.4</ele>
        <time>2023-01-04T15:32:37Z</time>
      </trkpt>
      <trkpt lat="49.94441" lon="2.36179">
        <ele>92.5</ele>
        <time>2023-01-04T15:32:38Z</time>
      </trkpt>
      <trkpt lat="49.9444" lon="2.3618">
        <ele>92.5</ele>
        <time>2023-01-04T15:32:39Z</time>
      </trkpt>
      <trkpt lat="49.94439" lon="2.36181">
        <ele>92.6</ele>
        <time>2023-01-04T15:32:40Z</time>
      </trkpt>
      <trkpt lat="49.94438" lon="2.36182">
        <ele>92.7</ele>
        <time>2023-01-04T15:32:41Z</time>
      </trkpt>
      <trkpt lat="49.94438" lon="2.36183">
        <ele>92.8</ele>
        <time>2023-01-04T15:32:42Z</time>
      </trkpt>
      <trkpt lat="49.94437" lon="2.36183">
        <ele>92.8</ele>
        <time>2023-01-04T15:32:43Z</time>
      </trkpt>
      <trkpt lat="49.94436" lon="2.36184">
        <ele>92.9</ele>
        <time>2023-01-04T15:32:45Z</time>
      </trkpt>
      <trkpt lat="49.94435" lon="2.36185">
        <ele>93</ele>
        <time>2023-01-04T15:32:46Z</time>
      </trkpt>
      <trkpt lat="49.94434" lon="2.36185">
        <ele>93.1</ele>
        <time>2023-01-04T15:32:47Z</time>
      </trkpt>
      <trkpt lat="49.94433" lon="2.36186">
        <ele>93.2</ele>
        <time>2023-01-04T15:32:48Z</time>
      </trkpt>
      <trkpt lat="49.94432" lon="2.36187">
        <ele>93.2</ele>
        <time>2023-01-04T15:32:49Z</time>
      </trkpt>
      <trkpt lat="49.94431" lon="2.36188">
        <ele>93.3</ele>
        <time>2023-01-04T15:32:50Z</time>
      </trkpt>
      <trkpt lat="49.9443" lon="2.3619">
        <ele>93.5</ele>
        <time>2023-01-04T15:32:52Z</time>
      </trkpt>
      <trkpt lat="49.94428" lon="2.36191">
        <ele>93.6</ele>
        <time>2023-01-04T15:32:53Z</time>
      </trkpt>
      <trkpt lat="49.94427" lon="2.36192">
        <ele>93.7</ele>
        <time>2023-01-04T15:32:54Z</time>
      </trkpt>
      <trkpt lat="49.94427" lon="2.36192">
        <ele>93.7</ele>
        <time>2023-01-04T15:32:55Z</time>
      </trkpt>
      <trkpt lat="49.94426" lon="2.36193">
        <ele>93.8</ele>
        <time>2023-01-04T15:32:56Z</time>
      </trkpt>
      <trkpt lat="49.94425" lon="2.36194">
        <ele>93.9</ele>
        <time>2023-01-04T15:32:57Z</time>
      </trkpt>
      <trkpt lat="49.94424" lon="2.36195">
        <ele>93.9</ele>
        <time>2023-01-04T15:32:58Z</time>
      </trkpt>
      <trkpt lat="49.94424" lon="2.36196">
        <ele>94</ele>
        <time>2023-01-04T15:32:59Z</time>
      </trkpt>
      <trkpt lat="49.94423" lon="2.36197">
        <ele>94.1</ele>
        <time>2023-01-04T15:33:01Z</time>
      </trkpt>
      <trkpt lat="49.94422" lon="2.36198">
        <ele>94.2</ele>
        <time>2023-01-04T15:33:02Z</time>
      </trkpt>
      <trkpt lat="49.94421" lon="2.36199">
        <ele>94.2</ele>
        <time>2023-01-04T15:33:03Z</time>
      </trkpt>
      <trkpt lat="49.9442" lon="2.362">
        <ele>94.3</ele>
        <time>2023-01-04T15:33:04Z</time>
      </trkpt>
      <trkpt lat="49.9442" lon="2.362">
        <ele>94.4</ele>
        <time>2023-01-04T15:33:05Z</time>
      </trkpt>
      <trkpt lat="49.94419" lon="2.362">
        <ele>94.4</ele>
        <time>2023-01-04T15:33:06Z</time>
      </trkpt>
      <trkpt lat="49.94419" lon="2.36201">
        <ele>94.4</ele>
        <time>2023-01-04T15:33:07Z</time>
      </trkpt>
      <trkpt lat="49.94419" lon="2.36201">
        <ele>94.4</ele>
        <time>2023-01-04T15:33:09Z</time>
      </trkpt>
      <trkpt lat="49.94418" lon="2.36202">
        <ele>94.5</ele>
        <time>2023-01-04T15:33:10Z</time>
      </trkpt>
      <trkpt lat="49.94417" lon="2.36203">
        <ele>94.6</ele>
        <time>2023-01-04T15:33:11Z</time>
      </trkpt>
      <trkpt lat="49.94417" lon="2.36204">
        <ele>94.6</ele>
        <time>2023-01-04T15:33:12Z</time>
      </trkpt>
      <trkpt lat="49.94416" lon="2.36205">
        <ele>94.7</ele>
        <time>2023-01-04T15:33:13Z</time>
      </trkpt>
      <trkpt lat="49.94415" lon="2.36206">
        <ele>94.7</ele>
        <time>2023-01-04T15:33:14Z</time>
      </trkpt>
      <trkpt lat="49.94415" lon="2.36206">
        <ele>94.8</ele>
        <time>2023-01-04T15:33:15Z</time>
      </trkpt>
      <trkpt lat="49.94414" lon="2.36208">
        <ele>94.9</ele>
        <time>2023-01-04T15:33:17Z</time>
      </trkpt>
      <trkpt lat="49.94413" lon="2.36208">
        <ele>94.9</ele>
        <time>2023-01-04T15:33:18Z</time>
      </trkpt>
      <trkpt lat="49.94413" lon="2.36209">
        <ele>95</ele>
        <time>2023-01-04T15:33:19Z</time>
      </trkpt>
      <trkpt lat="49.94412" lon="2.3621">
        <ele>95</ele>
        <time>2023-01-04T15:33:20Z</time>
      </trkpt>
      <trkpt lat="49.94412" lon="2.36211">
        <ele>95.1</ele>
        <time>2023-01-04T15:33:21Z</time>
      </trkpt>
      <trkpt lat="49.94411" lon="2.36212">
        <ele>95.2</ele>
        <time>2023-01-04T15:33:23Z</time>
      </trkpt>
      <trkpt lat="49.9441" lon="2.36214">
        <ele>95.3</ele>
        <time>2023-01-04T15:33:24Z</time>
      </trkpt>
      <trkpt lat="49.94409" lon="2.36215">
        <ele>95.3</ele>
        <time>2023-01-04T15:33:25Z</time>
      </trkpt>
      <trkpt lat="49.94409" lon="2.36216">
        <ele>95.4</ele>
        <time>2023-01-04T15:33:26Z</time>
      </trkpt>
      <trkpt lat="49.94408" lon="2.36217">
        <ele>95.5</ele>
        <time>2023-01-04T15:33:27Z</time>
      </trkpt>
      <trkpt lat="49.94407" lon="2.36218">
        <ele>95.5</ele>
        <time>2023-01-04T15:33:28Z</time>
      </trkpt>
      <trkpt lat="49.94406" lon="2.36219">
        <ele>95.6</ele>
        <time>2023-01-04T15:33:29Z</time>
      </trkpt>
      <trkpt lat="49.94405" lon="2.3622">
        <ele>95.7</ele>
        <time>2023-01-04T15:33:30Z</time>
      </trkpt>
      <trkpt lat="49.94404" lon="2.36221">
        <ele>95.8</ele>
        <time>2023-01-04T15:33:32Z</time>
      </trkpt>
      <trkpt lat="49.94403" lon="2.36222">
        <ele>95.9</ele>
        <time>2023-01-04T15:33:33Z</time>
      </trkpt>
      <trkpt lat="49.94401" lon="2.36223">
        <ele>96</ele>
        <time>2023-01-04T15:33:34Z</time>
      </trkpt>
      <trkpt lat="49.944" lon="2.36225">
        <ele>96.1</ele>
        <time>2023-01-04T15:33:35Z</time>
      </trkpt>
      <trkpt lat="49.94399" lon="2.36225">
        <ele>96.2</ele>
        <time>2023-01-04T15:33:36Z</time>
      </trkpt>
      <trkpt lat="49.94398" lon="2.36226">
        <ele>96.3</ele>
        <time>2023-01-04T15:33:37Z</time>
      </trkpt>
      <trkpt lat="49.94396" lon="2.36228">
        <ele>96.4</ele>
        <time>2023-01-04T15:33:39Z</time>
      </trkpt>
      <trkpt lat="49.94396" lon="2.36229">
        <ele>96.5</ele>
        <time>2023-01-04T15:33:40Z</time>
      </trkpt>
      <trkpt lat="49.94395" lon="2.36229">
        <ele>96.5</ele>
        <time>2023-01-04T15:33:41Z</time>
      </trkpt>
      <trkpt lat="49.94394" lon="2.36231">
        <ele>96.6</ele>
        <time>2023-01-04T15:33:42Z</time>
      </trkpt>
      <trkpt lat="49.94393" lon="2.36232">
        <ele>96.7</ele>
        <time>2023-01-04T15:33:43Z</time>
      </trkpt>
      <trkpt lat="49.94392" lon="2.36233">
        <ele>96.8</ele>
        <time>2023-01-04T15:33:44Z</time>
      </trkpt>
      <trkpt lat="49.94391" lon="2.36235">
        <ele>96.9</ele>
        <time>2023-01-04T15:33:46Z</time>
      </trkpt>
      <trkpt lat="49.9439" lon="2.36236">
        <ele>97</ele>
        <time>2023-01-04T15:33:47Z</time>
      </trkpt>
      <trkpt lat="49.94389" lon="2.36237">
        <ele>97</ele>
        <time>2023-01-04T15:33:48Z</time>
      </trkpt>
      <trkpt lat="49.94388" lon="2.36238">
        <ele>97.1</ele>
        <time>2023-01-04T15:33:50Z</time>
      </trkpt>
      <trkpt lat="49.94387" lon="2.36239">
        <ele>97.2</ele>
        <time>2023-01-04T15:33:51Z</time>
      </trkpt>
      <trkpt lat="49.94386" lon="2.36241">
        <ele>97.3</ele>
        <time>2023-01-04T15:33:52Z</time>
      </trkpt>
      <trkpt lat="49.94386" lon="2.36242">
        <ele>97.4</ele>
        <time>2023-01-04T15:33:53Z</time>
      </trkpt>
      <trkpt lat="49.94385" lon="2.36243">
        <ele>97.5</ele>
        <time>2023-01-04T15:33:54Z</time>
      </trkpt>
      <trkpt lat="49.94385" lon="2.36245">
        <ele>97.5</ele>
        <time>2023-01-04T15:33:55Z</time>
      </trkpt>
      <trkpt lat="49.94384" lon="2.36246">
        <ele>97.6</ele>
        <time>2023-01-04T15:33:56Z</time>
      </trkpt>
      <trkpt lat="49.94383" lon="2.36247">
        <ele>97.7</ele>
        <time>2023-01-04T15:33:58Z</time>
      </trkpt>
      <trkpt lat="49.94382" lon="2.36248">
        <ele>97.8</ele>
        <time>2023-01-04T15:33:59Z</time>
      </trkpt>
      <trkpt lat="49.94381" lon="2.36249">
        <ele>97.8</ele>
        <time>2023-01-04T15:34:00Z</time>
      </trkpt>
      <trkpt lat="49.94381" lon="2.36249">
        <ele>97.8</ele>
        <time>2023-01-04T15:34:01Z</time>
      </trkpt>
      <trkpt lat="49.94379" lon="2.3625">
        <ele>97.9</ele>
        <time>2023-01-04T15:34:02Z</time>
      </trkpt>
      <trkpt lat="49.94378" lon="2.36251">
        <ele>97.9</ele>
        <time>2023-01-04T15:34:03Z</time>
      </trkpt>
      <trkpt lat="49.94378" lon="2.36251">
        <ele>97.9</ele>
        <time>2023-01-04T15:34:04Z</time>
      </trkpt>
      <trkpt lat="49.94377" lon="2.36252">
        <ele>98</ele>
        <time>2023-01-04T15:34:06Z</time>
      </trkpt>
      <trkpt lat="49.94375" lon="2.36252">
        <ele>98</ele>
        <time>2023-01-04T15:34:07Z</time>
      </trkpt>
      <trkpt lat="49.94374" lon="2.36253">
        <ele>98</ele>
        <time>2023-01-04T15:34:08Z</time>
      </trkpt>
      <trkpt lat="49.94373" lon="2.36254">
        <ele>98.1</ele>
        <time>2023-01-04T15:34:09Z</time>
      </trkpt>
      <trkpt lat="49.94372" lon="2.36255">
        <ele>98.1</ele>
        <time>2023-01-04T15:34:10Z</time>
      </trkpt>
      <trkpt lat="49.94372" lon="2.36255">
        <ele>98.1</ele>
        <time>2023-01-04T15:34:11Z</time>
      </trkpt>
      <trkpt lat="49.94371" lon="2.36256">
        <ele>98.1</ele>
        <time>2023-01-04T15:34:12Z</time>
      </trkpt>
      <trkpt lat="49.9437" lon="2.36256">
        <ele>98.2</ele>
        <time>2023-01-04T15:34:14Z</time>
      </trkpt>
      <trkpt lat="49.94369" lon="2.36256">
        <ele>98.2</ele>
        <time>2023-01-04T15:34:15Z</time>
      </trkpt>
      <trkpt lat="49.94368" lon="2.36257">
        <ele>98.2</ele>
        <time>2023-01-04T15:34:16Z</time>
      </trkpt>
      <trkpt lat="49.94367" lon="2.36257">
        <ele>98.3</ele>
        <time>2023-01-04T15:34:17Z</time>
      </trkpt>
      <trkpt lat="49.94366" lon="2.36257">
        <ele>98.3</ele>
        <time>2023-01-04T15:34:18Z</time>
      </trkpt>
      <trkpt lat="49.94365" lon="2.36257">
        <ele>98.3</ele>
        <time>2023-01-04T15:34:19Z</time>
      </trkpt>
      <trkpt lat="49.94364" lon="2.36257">
        <ele>98.4</ele>
        <time>2023-01-04T15:34:20Z</time>
      </trkpt>
      <trkpt lat="49.94362" lon="2.36257">
        <ele>98.4</ele>
        <time>2023-01-04T15:34:22Z</time>
      </trkpt>
      <trkpt lat="49.94361" lon="2.36257">
        <ele>98.4</ele>
        <time>2023-01-04T15:34:23Z</time>
      </trkpt>
      <trkpt lat="49.9436" lon="2.36257">
        <ele>98.5</ele>
        <time>2023-01-04T15:34:24Z</time>
      </trkpt>
      <trkpt lat="49.94359" lon="2.36257">
        <ele>98.5</ele>
        <time>2023-01-04T15:34:25Z</time>
      </trkpt>
      <trkpt lat="49.94358" lon="2.36257">
        <ele>98.5</ele>
        <time>2023-01-04T15:34:26Z</time>
      </trkpt>
      <trkpt lat="49.94358" lon="2.36256">
        <ele>98.5</ele>
        <time>2023-01-04T15:34:27Z</time>
      </trkpt>
      <trkpt lat="49.94357" lon="2.36256">
        <ele>98.6</ele>
        <time>2023-01-04T15:34:28Z</time>
      </trkpt>
      <trkpt lat="49.94355" lon="2.36256">
        <ele>98.6</ele>
        <time>2023-01-04T15:34:30Z</time>
      </trkpt>
      <trkpt lat="49.94354" lon="2.36256">
        <ele>98.7</ele>
        <time>2023-01-04T15:34:31Z</time>
      </trkpt>
      <trkpt lat="49.94353" lon="2.36256">
        <ele>98.7</ele>
        <time>2023-01-04T15:34:32Z</time>
      </trkpt>
      <trkpt lat="49.94352" lon="2.36256">
        <ele>98.7</ele>
        <time>2023-01-04T15:34:33Z</time>
      </trkpt>
      <trkpt lat="49.9435" lon="2.36256">
        <ele>98.8</ele>
        <time>2023-01-04T15:34:34Z</time>
      </trkpt>
      <trkpt lat="49.94349" lon="2.36257">
        <ele>98.8</ele>
        <time>2023-01-04T15:34:36Z</time>
      </trkpt>
      <trkpt lat="49.94348" lon="2.36257">
        <ele>98.9</ele>
        <time>2023-01-04T15:34:37Z</time>
      </trkpt>
      <trkpt lat="49.94347" lon="2.36257">
        <ele>98.9</ele>
        <time>2023-01-04T15:34:38Z</time>
      </trkpt>
      <trkpt lat="49.94346" lon="2.36258">
        <ele>98.9</ele>
        <time>2023-01-04T15:34:39Z</time>
      </trkpt>
      <trkpt lat="49.94345" lon="2.36258">
        <ele>99</ele>
        <time>2023-01-04T15:34:40Z</time>
      </trkpt>
      <trkpt lat="49.94344" lon="2.36258">
        <ele>99</ele>
        <time>2023-01-04T15:34:41Z</time>
      </trkpt>
      <trkpt lat="49.94343" lon="2.36259">
        <ele>99.1</ele>
        <time>2023-01-04T15:34:43Z</time>
      </trkpt>
      <trkpt lat="49.94342" lon="2.36259">
        <ele>99.1</ele>
        <time>2023-01-04T15:34:44Z</time>
      </trkpt>
      <trkpt lat="49.94341" lon="2.3626">
        <ele>99.1</ele>
        <time>2023-01-04T15:34:45Z</time>
      </trkpt>
      <trkpt lat="49.9434" lon="2.3626">
        <ele>99.2</ele>
        <time>2023-01-04T15:34:46Z</time>
      </trkpt>
      <trkpt lat="49.94339" lon="2.3626">
        <ele>99.2</ele>
        <time>2023-01-04T15:34:47Z</time>
      </trkpt>
      <trkpt lat="49.94338" lon="2.3626">
        <ele>99.2</ele>
        <time>2023-01-04T15:34:48Z</time>
      </trkpt>
      <trkpt lat="49.94337" lon="2.3626">
        <ele>99.3</ele>
        <time>2023-01-04T15:34:49Z</time>
      </trkpt>
      <trkpt lat="49.94336" lon="2.3626">
        <ele>99.3</ele>
        <time>2023-01-04T15:34:50Z</time>
      </trkpt>
      <trkpt lat="49.94334" lon="2.36259">
        <ele>99.4</ele>
        <time>2023-01-04T15:34:52Z</time>
      </trkpt>
      <trkpt lat="49.94334" lon="2.36259">
        <ele>99.4</ele>
        <time>2023-01-04T15:34:53Z</time>
      </trkpt>
      <trkpt lat="49.94332" lon="2.36259">
        <ele>99.4</ele>
        <time>2023-01-04T15:34:54Z</time>
      </trkpt>
      <trkpt lat="49.9433" lon="2.36259">
        <ele>99.5</ele>
        <time>2023-01-04T15:34:55Z</time>
      </trkpt>
      <trkpt lat="49.94329" lon="2.36259">
        <ele>99.5</ele>
        <time>2023-01-04T15:34:56Z</time>
      </trkpt>
      <trkpt lat="49.94328" lon="2.36259">
        <ele>99.6</ele>
        <time>2023-01-04T15:34:57Z</time>
      </trkpt>
      <trkpt lat="49.94328" lon="2.36259">
        <ele>99.6</ele>
        <time>2023-01-04T15:34:59Z</time>
      </trkpt>
      <trkpt lat="49.94327" lon="2.36259">
        <ele>99.6</ele>
        <time>2023-01-04T15:35:00Z</time>
      </trkpt>
      <trkpt lat="49.94326" lon="2.36259">
        <ele>99.7</ele>
        <time>2023-01-04T15:35:01Z</time>
      </trkpt>
      <trkpt lat="49.94325" lon="2.36259">
        <ele>99.7</ele>
        <time>2023-01-04T15:35:02Z</time>
      </trkpt>
      <trkpt lat="49.94323" lon="2.3626">
        <ele>99.8</ele>
        <time>2023-01-04T15:35:04Z</time>
      </trkpt>
      <trkpt lat="49.94322" lon="2.36261">
        <ele>99.8</ele>
        <time>2023-01-04T15:35:05Z</time>
      </trkpt>
      <trkpt lat="49.94321" lon="2.36261">
        <ele>99.8</ele>
        <time>2023-01-04T15:35:06Z</time>
      </trkpt>
      <trkpt lat="49.9432" lon="2.36262">
        <ele>99.9</ele>
        <time>2023-01-04T15:35:07Z</time>
      </trkpt>
      <trkpt lat="49.94319" lon="2.36262">
        <ele>99.9</ele>
        <time>2023-01-04T15:35:08Z</time>
      </trkpt>
      <trkpt lat="49.94318" lon="2.36262">
        <ele>100</ele>
        <time>2023-01-04T15:35:09Z</time>
      </trkpt>
      <trkpt lat="49.94316" lon="2.36263">
        <ele>100</ele>
        <time>2023-01-04T15:35:10Z</time>
      </trkpt>
      <trkpt lat="49.94315" lon="2.36264">
        <ele>100.1</ele>
        <time>2023-01-04T15:35:12Z</time>
      </trkpt>
      <trkpt lat="49.94314" lon="2.36264">
        <ele>100.1</ele>
        <time>2023-01-04T15:35:13Z</time>
      </trkpt>
      <trkpt lat="49.94313" lon="2.36264">
        <ele>100.1</ele>
        <time>2023-01-04T15:35:14Z</time>
      </trkpt>
      <trkpt lat="49.94312" lon="2.36265">
        <ele>100.2</ele>
        <time>2023-01-04T15:35:15Z</time>
      </trkpt>
      <trkpt lat="49.94311" lon="2.36265">
        <ele>100.2</ele>
        <time>2023-01-04T15:35:16Z</time>
      </trkpt>
      <trkpt lat="49.94309" lon="2.36266">
        <ele>100.3</ele>
        <time>2023-01-04T15:35:17Z</time>
      </trkpt>
      <trkpt lat="49.94308" lon="2.36266">
        <ele>100.3</ele>
        <time>2023-01-04T15:35:19Z</time>
      </trkpt>
      <trkpt lat="49.94307" lon="2.36266">
        <ele>100.4</ele>
        <time>2023-01-04T15:35:20Z</time>
      </trkpt>
      <trkpt lat="49.94306" lon="2.36267">
        <ele>100.4</ele>
        <time>2023-01-04T15:35:21Z</time>
      </trkpt>
      <trkpt lat="49.94304" lon="2.36268">
        <ele>100.5</ele>
        <time>2023-01-04T15:35:22Z</time>
      </trkpt>
      <trkpt lat="49.94304" lon="2.36268">
        <ele>100.5</ele>
        <time>2023-01-04T15:35:23Z</time>
      </trkpt>
      <trkpt lat="49.94303" lon="2.36268">
        <ele>100.5</ele>
        <time>2023-01-04T15:35:24Z</time>
      </trkpt>
      <trkpt lat="49.94302" lon="2.36268">
        <ele>100.5</ele>
        <time>2023-01-04T15:35:26Z</time>
      </trkpt>
      <trkpt lat="49.94301" lon="2.36269">
        <ele>100.6</ele>
        <time>2023-01-04T15:35:27Z</time>
      </trkpt>
      <trkpt lat="49.94299" lon="2.36269">
        <ele>100.7</ele>
        <time>2023-01-04T15:35:28Z</time>
      </trkpt>
      <trkpt lat="49.94298" lon="2.36269">
        <ele>100.7</ele>
        <time>2023-01-04T15:35:29Z</time>
      </trkpt>
      <trkpt lat="49.94297" lon="2.36269">
        <ele>100.7</ele>
        <time>2023-01-04T15:35:30Z</time>
      </trkpt>
      <trkpt lat="49.94295" lon="2.36269">
        <ele>100.8</ele>
        <time>2023-01-04T15:35:31Z</time>
      </trkpt>
      <trkpt lat="49.94294" lon="2.36268">
        <ele>100.8</ele>
        <time>2023-01-04T15:35:32Z</time>
      </trkpt>
      <trkpt lat="49.94293" lon="2.36267">
        <ele>100.8</ele>
        <time>2023-01-04T15:35:33Z</time>
      </trkpt>
      <trkpt lat="49.94292" lon="2.36266">
        <ele>100.9</ele>
        <time>2023-01-04T15:35:35Z</time>
      </trkpt>
      <trkpt lat="49.9429" lon="2.36266">
        <ele>100.9</ele>
        <time>2023-01-04T15:35:36Z</time>
      </trkpt>
      <trkpt lat="49.94289" lon="2.36267">
        <ele>101</ele>
        <time>2023-01-04T15:35:37Z</time>
      </trkpt>
      <trkpt lat="49.94288" lon="2.36268">
        <ele>101</ele>
        <time>2023-01-04T15:35:38Z</time>
      </trkpt>
      <trkpt lat="49.94287" lon="2.36268">
        <ele>101.1</ele>
        <time>2023-01-04T15:35:39Z</time>
      </trkpt>
      <trkpt lat="49.94286" lon="2.36269">
        <ele>101.1</ele>
        <time>2023-01-04T15:35:40Z</time>
      </trkpt>
      <trkpt lat="49.94285" lon="2.3627">
        <ele>101.2</ele>
        <time>2023-01-04T15:35:41Z</time>
      </trkpt>
      <trkpt lat="49.94283" lon="2.36272">
        <ele>101.2</ele>
        <time>2023-01-04T15:35:43Z</time>
      </trkpt>
      <trkpt lat="49.94282" lon="2.36273">
        <ele>101.2</ele>
        <time>2023-01-04T15:35:44Z</time>
      </trkpt>
      <trkpt lat="49.94282" lon="2.36274">
        <ele>101.3</ele>
        <time>2023-01-04T15:35:45Z</time>
      </trkpt>
      <trkpt lat="49.94281" lon="2.36275">
        <ele>101.3</ele>
        <time>2023-01-04T15:35:46Z</time>
      </trkpt>
      <trkpt lat="49.94281" lon="2.36275">
        <ele>101.3</ele>
        <time>2023-01-04T15:35:47Z</time>
      </trkpt>
      <trkpt lat="49.9428" lon="2.36275">
        <ele>101.4</ele>
        <time>2023-01-04T15:35:48Z</time>
      </trkpt>
      <trkpt lat="49.94279" lon="2.36276">
        <ele>101.4</ele>
        <time>2023-01-04T15:35:49Z</time>
      </trkpt>
      <trkpt lat="49.94278" lon="2.36276">
        <ele>101.4</ele>
        <time>2023-01-04T15:35:50Z</time>
      </trkpt>
      <trkpt lat="49.94277" lon="2.36277">
        <ele>101.4</ele>
        <time>2023-01-04T15:35:52Z</time>
      </trkpt>
      <trkpt lat="49.94276" lon="2.36277">
        <ele>101.5</ele>
        <time>2023-01-04T15:35:53Z</time>
      </trkpt>
      <trkpt lat="49.94275" lon="2.36278">
        <ele>101.5</ele>
        <time>2023-01-04T15:35:54Z</time>
      </trkpt>
      <trkpt lat="49.94274" lon="2.36278">
        <ele>101.6</ele>
        <time>2023-01-04T15:35:55Z</time>
      </trkpt>
      <trkpt lat="49.94273" lon="2.36279">
        <ele>101.6</ele>
        <time>2023-01-04T15:35:56Z</time>
      </trkpt>
      <trkpt lat="49.94272" lon="2.3628">
        <ele>101.6</ele>
        <time>2023-01-04T15:35:57Z</time>
      </trkpt>
      <trkpt lat="49.94271" lon="2.3628">
        <ele>101.7</ele>
        <time>2023-01-04T15:35:59Z</time>
      </trkpt>
      <trkpt lat="49.9427" lon="2.3628">
        <ele>101.7</ele>
        <time>2023-01-04T15:36:00Z</time>
      </trkpt>
      <trkpt lat="49.9427" lon="2.3628">
        <ele>101.7</ele>
        <time>2023-01-04T15:36:01Z</time>
      </trkpt>
      <trkpt lat="49.94268" lon="2.3628">
        <ele>101.8</ele>
        <time>2023-01-04T15:36:02Z</time>
      </trkpt>
      <trkpt lat="49.94267" lon="2.36281">
        <ele>101.8</ele>
        <time>2023-01-04T15:36:03Z</time>
      </trkpt>
      <trkpt lat="49.94266" lon="2.36281">
        <ele>101.8</ele>
        <time>2023-01-04T15:36:05Z</time>
      </trkpt>
      <trkpt lat="49.94265" lon="2.36282">
        <ele>101.9</ele>
        <time>2023-01-04T15:36:06Z</time>
      </trkpt>
      <trkpt lat="49.94264" lon="2.36282">
        <ele>101.9</ele>
        <time>2023-01-04T15:36:07Z</time>
      </trkpt>
      <trkpt lat="49.94263" lon="2.36283">
        <ele>101.9</ele>
        <time>2023-01-04T15:36:08Z</time>
      </trkpt>
      <trkpt lat="49.94262" lon="2.36283">
        <ele>101.9</ele>
        <time>2023-01-04T15:36:09Z</time>
      </trkpt>
      <trkpt lat="49.94261" lon="2.36284">
        <ele>102</ele>
        <time>2023-01-04T15:36:10Z</time>
      </trkpt>
      <trkpt lat="49.9426" lon="2.36285">
        <ele>102</ele>
        <time>2023-01-04T15:36:11Z</time>
      </trkpt>
      <trkpt lat="49.9426" lon="2.36286">
        <ele>102</ele>
        <time>2023-01-04T15:36:12Z</time>
      </trkpt>
      <trkpt lat="49.94259" lon="2.36287">
        <ele>102.1</ele>
        <time>2023-01-04T15:36:14Z</time>
      </trkpt>
      <trkpt lat="49.94258" lon="2.36288">
        <ele>102.1</ele>
        <time>2023-01-04T15:36:15Z</time>
      </trkpt>
      <trkpt lat="49.94257" lon="2.36289">
        <ele>102.2</ele>
        <time>2023-01-04T15:36:16Z</time>
      </trkpt>
      <trkpt lat="49.94256" lon="2.3629">
        <ele>102.2</ele>
        <time>2023-01-04T15:36:17Z</time>
      </trkpt>
      <trkpt lat="49.94255" lon="2.3629">
        <ele>102.2</ele>
        <time>2023-01-04T15:36:18Z</time>
      </trkpt>
      <trkpt lat="49.94254" lon="2.36291">
        <ele>102.2</ele>
        <time>2023-01-04T15:36:19Z</time>
      </trkpt>
      <trkpt lat="49.94253" lon="2.36292">
        <ele>102.3</ele>
        <time>2023-01-04T15:36:20Z</time>
      </trkpt>
      <trkpt lat="49.94252" lon="2.36292">
        <ele>102.3</ele>
        <time>2023-01-04T15:36:21Z</time>
      </trkpt>
      <trkpt lat="49.9425" lon="2.36293">
        <ele>102.3</ele>
        <time>2023-01-04T15:36:23Z</time>
      </trkpt>
      <trkpt lat="49.94249" lon="2.36293">
        <ele>102.4</ele>
        <time>2023-01-04T15:36:24Z</time>
      </trkpt>
      <trkpt lat="49.94247" lon="2.36294">
        <ele>102.4</ele>
        <time>2023-01-04T15:36:25Z</time>
      </trkpt>
      <trkpt lat="49.94246" lon="2.36295">
        <ele>102.5</ele>
        <time>2023-01-04T15:36:26Z</time>
      </trkpt>
      <trkpt lat="49.94244" lon="2.36297">
        <ele>102.5</ele>
        <time>2023-01-04T15:36:27Z</time>
      </trkpt>
      <trkpt lat="49.94243" lon="2.36297">
        <ele>102.6</ele>
        <time>2023-01-04T15:36:28Z</time>
      </trkpt>
      <trkpt lat="49.94242" lon="2.36299">
        <ele>102.6</ele>
        <time>2023-01-04T15:36:30Z</time>
      </trkpt>
      <trkpt lat="49.94241" lon="2.36299">
        <ele>102.6</ele>
        <time>2023-01-04T15:36:31Z</time>
      </trkpt>
      <trkpt lat="49.9424" lon="2.363">
        <ele>102.7</ele>
        <time>2023-01-04T15:36:32Z</time>
      </trkpt>
      <trkpt lat="49.94238" lon="2.363">
        <ele>102.7</ele>
        <time>2023-01-04T15:36:33Z</time>
      </trkpt>
      <trkpt lat="49.94237" lon="2.36301">
        <ele>102.7</ele>
        <time>2023-01-04T15:36:34Z</time>
      </trkpt>
      <trkpt lat="49.94235" lon="2.36302">
        <ele>102.8</ele>
        <time>2023-01-04T15:36:35Z</time>
      </trkpt>
      <trkpt lat="49.94234" lon="2.36303">
        <ele>102.8</ele>
        <time>2023-01-04T15:36:37Z</time>
      </trkpt>
      <trkpt lat="49.94233" lon="2.36303">
        <ele>102.9</ele>
        <time>2023-01-04T15:36:38Z</time>
      </trkpt>
      <trkpt lat="49.94232" lon="2.36304">
        <ele>102.9</ele>
        <time>2023-01-04T15:36:39Z</time>
      </trkpt>
      <trkpt lat="49.94231" lon="2.36305">
        <ele>102.9</ele>
        <time>2023-01-04T15:36:40Z</time>
      </trkpt>
      <trkpt lat="49.94231" lon="2.36305">
        <ele>103</ele>
        <time>2023-01-04T15:36:41Z</time>
      </trkpt>
      <trkpt lat="49.94229" lon="2.36308">
        <ele>103</ele>
        <time>2023-01-04T15:36:42Z</time>
      </trkpt>
      <trkpt lat="49.94228" lon="2.36308">
        <ele>103</ele>
        <time>2023-01-04T15:36:43Z</time>
      </trkpt>
      <trkpt lat="49.94228" lon="2.36309">
        <ele>103.1</ele>
        <time>2023-01-04T15:36:44Z</time>
      </trkpt>
      <trkpt lat="49.94227" lon="2.3631">
        <ele>103.1</ele>
        <time>2023-01-04T15:36:46Z</time>
      </trkpt>
      <trkpt lat="49.94226" lon="2.36311">
        <ele>103.1</ele>
        <time>2023-01-04T15:36:47Z</time>
      </trkpt>
      <trkpt lat="49.94226" lon="2.36311">
        <ele>103.1</ele>
        <time>2023-01-04T15:36:48Z</time>
      </trkpt>
      <trkpt lat="49.94225" lon="2.36312">
        <ele>103.2</ele>
        <time>2023-01-04T15:36:49Z</time>
      </trkpt>
      <trkpt lat="49.94224" lon="2.36313">
        <ele>103.2</ele>
        <time>2023-01-04T15:36:50Z</time>
      </trkpt>
      <trkpt lat="49.94223" lon="2.36313">
        <ele>103.2</ele>
        <time>2023-01-04T15:36:51Z</time>
      </trkpt>
      <trkpt lat="49.94221" lon="2.36315">
        <ele>103.3</ele>
        <time>2023-01-04T15:36:53Z</time>
      </trkpt>
      <trkpt lat="49.9422" lon="2.36316">
        <ele>103.3</ele>
        <time>2023-01-04T15:36:54Z</time>
      </trkpt>
      <trkpt lat="49.94219" lon="2.36317">
        <ele>103.4</ele>
        <time>2023-01-04T15:36:55Z</time>
      </trkpt>
      <trkpt lat="49.94218" lon="2.36317">
        <ele>103.4</ele>
        <time>2023-01-04T15:36:56Z</time>
      </trkpt>
      <trkpt lat="49.94217" lon="2.36318">
        <ele>103.4</ele>
        <time>2023-01-04T15:36:57Z</time>
      </trkpt>
      <trkpt lat="49.94216" lon="2.36318">
        <ele>103.5</ele>
        <time>2023-01-04T15:36:58Z</time>
      </trkpt>
      <trkpt lat="49.94215" lon="2.36319">
        <ele>103.5</ele>
        <time>2023-01-04T15:36:59Z</time>
      </trkpt>
      <trkpt lat="49.94213" lon="2.3632">
        <ele>103.5</ele>
        <time>2023-01-04T15:37:00Z</time>
      </trkpt>
      <trkpt lat="49.94212" lon="2.36321">
        <ele>103.5</ele>
        <time>2023-01-04T15:37:02Z</time>
      </trkpt>
      <trkpt lat="49.94211" lon="2.36321">
        <ele>103.5</ele>
        <time>2023-01-04T15:37:03Z</time>
      </trkpt>
      <trkpt lat="49.9421" lon="2.36322">
        <ele>103.5</ele>
        <time>2023-01-04T15:37:04Z</time>
      </trkpt>
      <trkpt lat="49.94209" lon="2.36323">
        <ele>103.5</ele>
        <time>2023-01-04T15:37:05Z</time>
      </trkpt>
      <trkpt lat="49.94209" lon="2.36324">
        <ele>103.6</ele>
        <time>2023-01-04T15:37:06Z</time>
      </trkpt>
      <trkpt lat="49.94208" lon="2.36327">
        <ele>103.6</ele>
        <time>2023-01-04T15:37:08Z</time>
      </trkpt>
      <trkpt lat="49.94208" lon="2.36328">
        <ele>103.6</ele>
        <time>2023-01-04T15:37:09Z</time>
      </trkpt>
      <trkpt lat="49.94206" lon="2.3633">
        <ele>103.6</ele>
        <time>2023-01-04T15:37:10Z</time>
      </trkpt>
      <trkpt lat="49.94205" lon="2.36331">
        <ele>103.6</ele>
        <time>2023-01-04T15:37:11Z</time>
      </trkpt>
      <trkpt lat="49.94204" lon="2.36331">
        <ele>103.6</ele>
        <time>2023-01-04T15:37:12Z</time>
      </trkpt>
      <trkpt lat="49.94204" lon="2.36334">
        <ele>103.7</ele>
        <time>2023-01-04T15:37:13Z</time>
      </trkpt>
      <trkpt lat="49.94204" lon="2.36335">
        <ele>103.7</ele>
        <time>2023-01-04T15:37:14Z</time>
      </trkpt>
      <trkpt lat="49.94203" lon="2.36337">
        <ele>103.7</ele>
        <time>2023-01-04T15:37:16Z</time>
      </trkpt>
      <trkpt lat="49.94202" lon="2.36338">
        <ele>103.7</ele>
        <time>2023-01-04T15:37:17Z</time>
      </trkpt>
      <trkpt lat="49.94202" lon="2.36339">
        <ele>103.7</ele>
        <time>2023-01-04T15:37:18Z</time>
      </trkpt>
      <trkpt lat="49.94202" lon="2.36339">
        <ele>103.7</ele>
        <time>2023-01-04T15:37:20Z</time>
      </trkpt>
      <trkpt lat="49.94202" lon="2.3634">
        <ele>103.7</ele>
        <time>2023-01-04T15:37:21Z</time>
      </trkpt>
      <trkpt lat="49.94202" lon="2.36341">
        <ele>103.7</ele>
        <time>2023-01-04T15:37:22Z</time>
      </trkpt>
      <trkpt lat="49.94202" lon="2.36341">
        <ele>103.7</ele>
        <time>2023-01-04T15:37:24Z</time>
      </trkpt>
      <trkpt lat="49.94201" lon="2.36342">
        <ele>103.7</ele>
        <time>2023-01-04T15:37:25Z</time>
      </trkpt>
      <trkpt lat="49.94201" lon="2.36343">
        <ele>103.7</ele>
        <time>2023-01-04T15:37:26Z</time>
      </trkpt>
      <trkpt lat="49.94201" lon="2.36344">
        <ele>103.7</ele>
        <time>2023-01-04T15:37:27Z</time>
      </trkpt>
      <trkpt lat="49.94201" lon="2.36344">
        <ele>103.7</ele>
        <time>2023-01-04T15:37:28Z</time>
      </trkpt>
      <trkpt lat="49.942" lon="2.36345">
        <ele>103.8</ele>
        <time>2023-01-04T15:37:29Z</time>
      </trkpt>
      <trkpt lat="49.942" lon="2.36346">
        <ele>103.8</ele>
        <time>2023-01-04T15:37:30Z</time>
      </trkpt>
      <trkpt lat="49.94199" lon="2.36347">
        <ele>103.8</ele>
        <time>2023-01-04T15:37:31Z</time>
      </trkpt>
      <trkpt lat="49.94198" lon="2.36348">
        <ele>103.8</ele>
        <time>2023-01-04T15:37:33Z</time>
      </trkpt>
      <trkpt lat="49.94197" lon="2.36347">
        <ele>103.8</ele>
        <time>2023-01-04T15:37:34Z</time>
      </trkpt>
      <trkpt lat="49.94196" lon="2.36348">
        <ele>103.8</ele>
        <time>2023-01-04T15:37:35Z</time>
      </trkpt>
      <trkpt lat="49.94195" lon="2.36348">
        <ele>103.8</ele>
        <time>2023-01-04T15:37:36Z</time>
      </trkpt>
      <trkpt lat="49.94194" lon="2.36349">
        <ele>103.8</ele>
        <time>2023-01-04T15:37:37Z</time>
      </trkpt>
      <trkpt lat="49.94192" lon="2.36351">
        <ele>103.9</ele>
        <time>2023-01-04T15:37:38Z</time>
      </trkpt>
      <trkpt lat="49.94191" lon="2.36353">
        <ele>103.9</ele>
        <time>2023-01-04T15:37:40Z</time>
      </trkpt>
      <trkpt lat="49.9419" lon="2.36354">
        <ele>103.9</ele>
        <time>2023-01-04T15:37:42Z</time>
      </trkpt>
      <trkpt lat="49.94189" lon="2.36356">
        <ele>103.9</ele>
        <time>2023-01-04T15:37:43Z</time>
      </trkpt>
      <trkpt lat="49.94188" lon="2.36357">
        <ele>103.9</ele>
        <time>2023-01-04T15:37:44Z</time>
      </trkpt>
      <trkpt lat="49.94188" lon="2.36358">
        <ele>103.9</ele>
        <time>2023-01-04T15:37:45Z</time>
      </trkpt>
      <trkpt lat="49.94187" lon="2.36358">
        <ele>103.9</ele>
        <time>2023-01-04T15:37:46Z</time>
      </trkpt>
      <trkpt lat="49.94186" lon="2.36359">
        <ele>104</ele>
        <time>2023-01-04T15:37:47Z</time>
      </trkpt>
      <trkpt lat="49.94186" lon="2.36363">
        <ele>104</ele>
        <time>2023-01-04T15:37:49Z</time>
      </trkpt>
      <trkpt lat="49.94186" lon="2.36364">
        <ele>104</ele>
        <time>2023-01-04T15:37:50Z</time>
      </trkpt>
      <trkpt lat="49.94185" lon="2.36365">
        <ele>104</ele>
        <time>2023-01-04T15:37:51Z</time>
      </trkpt>
      <trkpt lat="49.94184" lon="2.36366">
        <ele>104</ele>
        <time>2023-01-04T15:37:52Z</time>
      </trkpt>
      <trkpt lat="49.94183" lon="2.36367">
        <ele>104</ele>
        <time>2023-01-04T15:37:53Z</time>
      </trkpt>
      <trkpt lat="49.94183" lon="2.36369">
        <ele>104</ele>
        <time>2023-01-04T15:37:54Z</time>
      </trkpt>
      <trkpt lat="49.94182" lon="2.3637">
        <ele>104.1</ele>
        <time>2023-01-04T15:37:56Z</time>
      </trkpt>
      <trkpt lat="49.94181" lon="2.36371">
        <ele>104.1</ele>
        <time>2023-01-04T15:37:57Z</time>
      </trkpt>
      <trkpt lat="49.9418" lon="2.36373">
        <ele>104.1</ele>
        <time>2023-01-04T15:37:58Z</time>
      </trkpt>
      <trkpt lat="49.9418" lon="2.36374">
        <ele>104.1</ele>
        <time>2023-01-04T15:37:59Z</time>
      </trkpt>
      <trkpt lat="49.9418" lon="2.36375">
        <ele>104.1</ele>
        <time>2023-01-04T15:38:00Z</time>
      </trkpt>
      <trkpt lat="49.94181" lon="2.36375">
        <ele>104.1</ele>
        <time>2023-01-04T15:38:01Z</time>
      </trkpt>
      <trkpt lat="49.94181" lon="2.36376">
        <ele>104.1</ele>
        <time>2023-01-04T15:38:02Z</time>
      </trkpt>
      <trkpt lat="49.94181" lon="2.36377">
        <ele>104.1</ele>
        <time>2023-01-04T15:38:03Z</time>
      </trkpt>
      <trkpt lat="49.9418" lon="2.36377">
        <ele>104.1</ele>
        <time>2023-01-04T15:38:05Z</time>
      </trkpt>
      <trkpt lat="49.9418" lon="2.36378">
        <ele>104.1</ele>
        <time>2023-01-04T15:38:06Z</time>
      </trkpt>
      <trkpt lat="49.94179" lon="2.36379">
        <ele>104.1</ele>
        <time>2023-01-04T15:38:07Z</time>
      </trkpt>
      <trkpt lat="49.94178" lon="2.36379">
        <ele>104.2</ele>
        <time>2023-01-04T15:38:08Z</time>
      </trkpt>
      <trkpt lat="49.94177" lon="2.36381">
        <ele>104.2</ele>
        <time>2023-01-04T15:38:09Z</time>
      </trkpt>
      <trkpt lat="49.94176" lon="2.36382">
        <ele>104.2</ele>
        <time>2023-01-04T15:38:10Z</time>
      </trkpt>
      <trkpt lat="49.94174" lon="2.36383">
        <ele>104.2</ele>
        <time>2023-01-04T15:38:11Z</time>
      </trkpt>
      <trkpt lat="49.94173" lon="2.36383">
        <ele>104.2</ele>
        <time>2023-01-04T15:38:13Z</time>
      </trkpt>
      <trkpt lat="49.94172" lon="2.36384">
        <ele>104.3</ele>
        <time>2023-01-04T15:38:14Z</time>
      </trkpt>
      <trkpt lat="49.94171" lon="2.36384">
        <ele>104.3</ele>
        <time>2023-01-04T15:38:15Z</time>
      </trkpt>
      <trkpt lat="49.9417" lon="2.36385">
        <ele>104.3</ele>
        <time>2023-01-04T15:38:16Z</time>
      </trkpt>
      <trkpt lat="49.94169" lon="2.36385">
        <ele>104.3</ele>
        <time>2023-01-04T15:38:17Z</time>
      </trkpt>
      <trkpt lat="49.94167" lon="2.36388">
        <ele>104.3</ele>
        <time>2023-01-04T15:38:18Z</time>
      </trkpt>
      <trkpt lat="49.94167" lon="2.36389">
        <ele>104.3</ele>
        <time>2023-01-04T15:38:19Z</time>
      </trkpt>
      <trkpt lat="49.94166" lon="2.3639">
        <ele>104.3</ele>
        <time>2023-01-04T15:38:21Z</time>
      </trkpt>
      <trkpt lat="49.94165" lon="2.36391">
        <ele>104.4</ele>
        <time>2023-01-04T15:38:22Z</time>
      </trkpt>
      <trkpt lat="49.94165" lon="2.36395">
        <ele>104.4</ele>
        <time>2023-01-04T15:38:23Z</time>
      </trkpt>
      <trkpt lat="49.94165" lon="2.36396">
        <ele>104.4</ele>
        <time>2023-01-04T15:38:24Z</time>
      </trkpt>
      <trkpt lat="49.94164" lon="2.36397">
        <ele>104.4</ele>
        <time>2023-01-04T15:38:25Z</time>
      </trkpt>
      <trkpt lat="49.94163" lon="2.36397">
        <ele>104.4</ele>
        <time>2023-01-04T15:38:26Z</time>
      </trkpt>
      <trkpt lat="49.94162" lon="2.36398">
        <ele>104.5</ele>
        <time>2023-01-04T15:38:28Z</time>
      </trkpt>
      <trkpt lat="49.94162" lon="2.364">
        <ele>104.5</ele>
        <time>2023-01-04T15:38:29Z</time>
      </trkpt>
      <trkpt lat="49.94161" lon="2.36402">
        <ele>104.5</ele>
        <time>2023-01-04T15:38:30Z</time>
      </trkpt>
      <trkpt lat="49.9416" lon="2.36403">
        <ele>104.5</ele>
        <time>2023-01-04T15:38:31Z</time>
      </trkpt>
      <trkpt lat="49.94159" lon="2.36404">
        <ele>104.5</ele>
        <time>2023-01-04T15:38:32Z</time>
      </trkpt>
      <trkpt lat="49.94157" lon="2.36406">
        <ele>104.6</ele>
        <time>2023-01-04T15:38:34Z</time>
      </trkpt>
      <trkpt lat="49.94157" lon="2.36408">
        <ele>104.6</ele>
        <time>2023-01-04T15:38:35Z</time>
      </trkpt>
      <trkpt lat="49.94158" lon="2.36409">
        <ele>104.6</ele>
        <time>2023-01-04T15:38:36Z</time>
      </trkpt>
      <trkpt lat="49.94158" lon="2.3641">
        <ele>104.6</ele>
        <time>2023-01-04T15:38:38Z</time>
      </trkpt>
      <trkpt lat="49.94159" lon="2.36412">
        <ele>104.6</ele>
        <time>2023-01-04T15:38:39Z</time>
      </trkpt>
      <trkpt lat="49.94159" lon="2.36413">
        <ele>104.6</ele>
        <time>2023-01-04T15:38:40Z</time>
      </trkpt>
      <trkpt lat="49.94159" lon="2.36415">
        <ele>104.7</ele>
        <time>2023-01-04T15:38:41Z</time>
      </trkpt>
      <trkpt lat="49.94159" lon="2.36417">
        <ele>104.7</ele>
        <time>2023-01-04T15:38:42Z</time>
      </trkpt>
      <trkpt lat="49.9416" lon="2.36419">
        <ele>104.7</ele>
        <time>2023-01-04T15:38:43Z</time>
      </trkpt>
      <trkpt lat="49.9416" lon="2.3642">
        <ele>104.7</ele>
        <time>2023-01-04T15:38:45Z</time>
      </trkpt>
      <trkpt lat="49.9416" lon="2.36422">
        <ele>104.7</ele>
        <time>2023-01-04T15:38:46Z</time>
      </trkpt>
      <trkpt lat="49.9416" lon="2.36424">
        <ele>104.7</ele>
        <time>2023-01-04T15:38:47Z</time>
      </trkpt>
      <trkpt lat="49.94159" lon="2.36425">
        <ele>104.8</ele>
        <time>2023-01-04T15:38:48Z</time>
      </trkpt>
      <trkpt lat="49.94157" lon="2.36426">
        <ele>104.8</ele>
        <time>2023-01-04T15:38:49Z</time>
      </trkpt>
      <trkpt lat="49.94157" lon="2.36426">
        <ele>104.8</ele>
        <time>2023-01-04T15:38:50Z</time>
      </trkpt>
      <trkpt lat="49.94156" lon="2.36427">
        <ele>104.8</ele>
        <time>2023-01-04T15:38:51Z</time>
      </trkpt>
      <trkpt lat="49.94155" lon="2.36427">
        <ele>104.8</ele>
        <time>2023-01-04T15:38:53Z</time>
      </trkpt>
      <trkpt lat="49.94153" lon="2.36428">
        <ele>104.8</ele>
        <time>2023-01-04T15:38:54Z</time>
      </trkpt>
      <trkpt lat="49.94152" lon="2.36428">
        <ele>104.8</ele>
        <time>2023-01-04T15:38:55Z</time>
      </trkpt>
      <trkpt lat="49.94151" lon="2.36429">
        <ele>104.8</ele>
        <time>2023-01-04T15:38:56Z</time>
      </trkpt>
      <trkpt lat="49.9415" lon="2.3643">
        <ele>104.9</ele>
        <time>2023-01-04T15:38:57Z</time>
      </trkpt>
      <trkpt lat="49.94149" lon="2.36431">
        <ele>104.9</ele>
        <time>2023-01-04T15:38:58Z</time>
      </trkpt>
      <trkpt lat="49.94149" lon="2.36432">
        <ele>104.9</ele>
        <time>2023-01-04T15:38:59Z</time>
      </trkpt>
      <trkpt lat="49.94147" lon="2.36434">
        <ele>105</ele>
        <time>2023-01-04T15:39:01Z</time>
      </trkpt>
      <trkpt lat="49.94147" lon="2.36436">
        <ele>105</ele>
        <time>2023-01-04T15:39:03Z</time>
      </trkpt>
      <trkpt lat="49.94146" lon="2.36437">
        <ele>105</ele>
        <time>2023-01-04T15:39:04Z</time>
      </trkpt>
      <trkpt lat="49.94145" lon="2.36439">
        <ele>105.1</ele>
        <time>2023-01-04T15:39:05Z</time>
      </trkpt>
      <trkpt lat="49.94142" lon="2.36441">
        <ele>105.1</ele>
        <time>2023-01-04T15:39:06Z</time>
      </trkpt>
      <trkpt lat="49.94141" lon="2.36442">
        <ele>105.1</ele>
        <time>2023-01-04T15:39:07Z</time>
      </trkpt>
      <trkpt lat="49.9414" lon="2.36443">
        <ele>105.2</ele>
        <time>2023-01-04T15:39:08Z</time>
      </trkpt>
      <trkpt lat="49.9414" lon="2.36443">
        <ele>105.2</ele>
        <time>2023-01-04T15:39:10Z</time>
      </trkpt>
      <trkpt lat="49.94139" lon="2.36444">
        <ele>105.2</ele>
        <time>2023-01-04T15:39:11Z</time>
      </trkpt>
      <trkpt lat="49.94138" lon="2.36446">
        <ele>105.2</ele>
        <time>2023-01-04T15:39:12Z</time>
      </trkpt>
      <trkpt lat="49.94138" lon="2.36447">
        <ele>105.3</ele>
        <time>2023-01-04T15:39:13Z</time>
      </trkpt>
      <trkpt lat="49.94137" lon="2.36449">
        <ele>105.3</ele>
        <time>2023-01-04T15:39:14Z</time>
      </trkpt>
      <trkpt lat="49.94137" lon="2.36449">
        <ele>105.3</ele>
        <time>2023-01-04T15:39:15Z</time>
      </trkpt>
      <trkpt lat="49.94135" lon="2.36452">
        <ele>105.3</ele>
        <time>2023-01-04T15:39:16Z</time>
      </trkpt>
      <trkpt lat="49.94135" lon="2.36454">
        <ele>105.3</ele>
        <time>2023-01-04T15:39:18Z</time>
      </trkpt>
      <trkpt lat="49.94134" lon="2.36455">
        <ele>105.4</ele>
        <time>2023-01-04T15:39:19Z</time>
      </trkpt>
      <trkpt lat="49.94134" lon="2.36458">
        <ele>105.4</ele>
        <time>2023-01-04T15:39:20Z</time>
      </trkpt>
      <trkpt lat="49.94134" lon="2.3646">
        <ele>105.4</ele>
        <time>2023-01-04T15:39:21Z</time>
      </trkpt>
      <trkpt lat="49.94133" lon="2.36461">
        <ele>105.4</ele>
        <time>2023-01-04T15:39:22Z</time>
      </trkpt>
      <trkpt lat="49.94133" lon="2.36462">
        <ele>105.4</ele>
        <time>2023-01-04T15:39:23Z</time>
      </trkpt>
      <trkpt lat="49.94132" lon="2.36464">
        <ele>105.4</ele>
        <time>2023-01-04T15:39:25Z</time>
      </trkpt>
      <trkpt lat="49.94131" lon="2.36465">
        <ele>105.5</ele>
        <time>2023-01-04T15:39:26Z</time>
      </trkpt>
      <trkpt lat="49.9413" lon="2.36466">
        <ele>105.5</ele>
        <time>2023-01-04T15:39:27Z</time>
      </trkpt>
      <trkpt lat="49.94129" lon="2.36467">
        <ele>105.5</ele>
        <time>2023-01-04T15:39:28Z</time>
      </trkpt>
      <trkpt lat="49.94128" lon="2.36468">
        <ele>105.5</ele>
        <time>2023-01-04T15:39:29Z</time>
      </trkpt>
      <trkpt lat="49.94128" lon="2.36468">
        <ele>105.5</ele>
        <time>2023-01-04T15:39:30Z</time>
      </trkpt>
      <trkpt lat="49.94128" lon="2.3647">
        <ele>105.5</ele>
        <time>2023-01-04T15:39:32Z</time>
      </trkpt>
      <trkpt lat="49.94128" lon="2.36471">
        <ele>105.6</ele>
        <time>2023-01-04T15:39:33Z</time>
      </trkpt>
      <trkpt lat="49.94128" lon="2.36472">
        <ele>105.6</ele>
        <time>2023-01-04T15:39:34Z</time>
      </trkpt>
      <trkpt lat="49.94128" lon="2.36473">
        <ele>105.6</ele>
        <time>2023-01-04T15:39:35Z</time>
      </trkpt>
      <trkpt lat="49.94127" lon="2.36473">
        <ele>105.6</ele>
        <time>2023-01-04T15:39:36Z</time>
      </trkpt>
      <trkpt lat="49.94127" lon="2.36474">
        <ele>105.6</ele>
        <time>2023-01-04T15:39:37Z</time>
      </trkpt>
      <trkpt lat="49.94127" lon="2.36475">
        <ele>105.6</ele>
        <time>2023-01-04T15:39:38Z</time>
      </trkpt>
      <trkpt lat="49.94127" lon="2.36475">
        <ele>105.6</ele>
        <time>2023-01-04T15:39:40Z</time>
      </trkpt>
      <trkpt lat="49.94127" lon="2.36476">
        <ele>105.6</ele>
        <time>2023-01-04T15:39:41Z</time>
      </trkpt>
      <trkpt lat="49.94128" lon="2.36477">
        <ele>105.6</ele>
        <time>2023-01-04T15:39:42Z</time>
      </trkpt>
      <trkpt lat="49.9413" lon="2.36478">
        <ele>105.6</ele>
        <time>2023-01-04T15:39:43Z</time>
      </trkpt>
      <trkpt lat="49.9413" lon="2.36478">
        <ele>105.6</ele>
        <time>2023-01-04T15:39:45Z</time>
      </trkpt>
      <trkpt lat="49.94132" lon="2.36478">
        <ele>105.6</ele>
        <time>2023-01-04T15:39:46Z</time>
      </trkpt>
      <trkpt lat="49.94133" lon="2.36479">
        <ele>105.6</ele>
        <time>2023-01-04T15:39:48Z</time>
      </trkpt>
      <trkpt lat="49.94133" lon="2.3648">
        <ele>105.6</ele>
        <time>2023-01-04T15:39:49Z</time>
      </trkpt>
      <trkpt lat="49.94132" lon="2.3648">
        <ele>105.6</ele>
        <time>2023-01-04T15:39:50Z</time>
      </trkpt>
      <trkpt lat="49.94131" lon="2.36479">
        <ele>105.6</ele>
        <time>2023-01-04T15:39:52Z</time>
      </trkpt>
      <trkpt lat="49.94131" lon="2.36479">
        <ele>105.6</ele>
        <time>2023-01-04T15:39:53Z</time>
      </trkpt>
      <trkpt lat="49.94131" lon="2.36478">
        <ele>105.6</ele>
        <time>2023-01-04T15:39:54Z</time>
      </trkpt>
      <trkpt lat="49.94131" lon="2.36477">
        <ele>105.6</ele>
        <time>2023-01-04T15:39:56Z</time>
      </trkpt>
      <trkpt lat="49.94131" lon="2.36477">
        <ele>105.7</ele>
        <time>2023-01-04T15:39:57Z</time>
      </trkpt>
      <trkpt lat="49.94131" lon="2.36477">
        <ele>105.7</ele>
        <time>2023-01-04T15:39:59Z</time>
      </trkpt>
      <trkpt lat="49.9413" lon="2.36477">
        <ele>105.7</ele>
        <time>2023-01-04T15:40:00Z</time>
      </trkpt>
      <trkpt lat="49.9413" lon="2.36477">
        <ele>105.7</ele>
        <time>2023-01-04T15:40:01Z</time>
      </trkpt>
      <trkpt lat="49.94129" lon="2.36478">
        <ele>105.7</ele>
        <time>2023-01-04T15:40:03Z</time>
      </trkpt>
      <trkpt lat="49.94128" lon="2.36479">
        <ele>105.7</ele>
        <time>2023-01-04T15:40:04Z</time>
      </trkpt>
      <trkpt lat="49.94128" lon="2.36478">
        <ele>105.7</ele>
        <time>2023-01-04T15:40:05Z</time>
      </trkpt>
      <trkpt lat="49.94127" lon="2.36478">
        <ele>105.7</ele>
        <time>2023-01-04T15:40:07Z</time>
      </trkpt>
      <trkpt lat="49.94127" lon="2.36478">
        <ele>105.7</ele>
        <time>2023-01-04T15:40:08Z</time>
      </trkpt>
      <trkpt lat="49.94127" lon="2.36478">
        <ele>105.7</ele>
        <time>2023-01-04T15:40:09Z</time>
      </trkpt>
      <trkpt lat="49.94127" lon="2.36478">
        <ele>105.7</ele>
        <time>2023-01-04T15:40:11Z</time>
      </trkpt>
      <trkpt lat="49.94127" lon="2.36478">
        <ele>105.7</ele>
        <time>2023-01-04T15:40:12Z</time>
      </trkpt>
      <trkpt lat="49.94127" lon="2.36478">
        <ele>105.7</ele>
        <time>2023-01-04T15:40:14Z</time>
      </trkpt>
      <trkpt lat="49.94127" lon="2.36478">
        <ele>105.7</ele>
        <time>2023-01-04T15:40:15Z</time>
      </trkpt>
      <trkpt lat="49.94127" lon="2.36478">
        <ele>105.7</ele>
        <time>2023-01-04T15:40:16Z</time>
      </trkpt>
      <trkpt lat="49.94127" lon="2.36478">
        <ele>105.7</ele>
        <time>2023-01-04T15:40:18Z</time>
      </trkpt>
      <trkpt lat="49.94127" lon="2.36478">
        <ele>105.7</ele>
        <time>2023-01-04T15:40:19Z</time>
      </trkpt>
      <trkpt lat="49.94127" lon="2.36478">
        <ele>105.7</ele>
        <time>2023-01-04T15:40:20Z</time>
      </trkpt>
      <trkpt lat="49.94127" lon="2.36478">
        <ele>105.7</ele>
        <time>2023-01-04T15:40:21Z</time>
      </trkpt>
      <trkpt lat="49.94127" lon="2.36478">
        <ele>105.7</ele>
        <time>2023-01-04T15:40:22Z</time>
      </trkpt>
      <trkpt lat="49.94127" lon="2.36478">
        <ele>105.7</ele>
        <time>2023-01-04T15:40:23Z</time>
      </trkpt>
      <trkpt lat="49.94127" lon="2.36478">
        <ele>105.7</ele>
        <time>2023-01-04T15:40:24Z</time>
      </trkpt>
      <trkpt lat="49.94127" lon="2.36478">
        <ele>105.7</ele>
        <time>2023-01-04T15:40:25Z</time>
      </trkpt>
      <trkpt lat="49.94127" lon="2.36478">
        <ele>105.7</ele>
        <time>2023-01-04T15:40:26Z</time>
      </trkpt>
      <trkpt lat="49.94127" lon="2.36478">
        <ele>105.7</ele>
        <time>2023-01-04T15:40:27Z</time>
      </trkpt>
      <trkpt lat="49.94127" lon="2.36478">
        <ele>105.7</ele>
        <time>2023-01-04T15:40:28Z</time>
      </trkpt>
      <trkpt lat="49.94127" lon="2.36478">
        <ele>105.7</ele>
        <time>2023-01-04T15:40:29Z</time>
      </trkpt>
      <trkpt lat="49.94127" lon="2.36478">
        <ele>105.7</ele>
        <time>2023-01-04T15:40:30Z</time>
      </trkpt>
      <trkpt lat="49.94127" lon="2.36478">
        <ele>105.7</ele>
        <time>2023-01-04T15:40:31Z</time>
      </trkpt>
      <trkpt lat="49.94127" lon="2.36478">
        <ele>105.7</ele>
        <time>2023-01-04T15:40:32Z</time>
      </trkpt>
      <trkpt lat="49.94127" lon="2.36478">
        <ele>105.7</ele>
        <time>2023-01-04T15:40:33Z</time>
      </trkpt>
      <trkpt lat="49.94127" lon="2.36478">
        <ele>105.7</ele>
        <time>2023-01-04T15:40:34Z</time>
      </trkpt>
      <trkpt lat="49.94127" lon="2.36478">
        <ele>105.7</ele>
        <time>2023-01-04T15:40:35Z</time>
      </trkpt>
      <trkpt lat="49.94127" lon="2.36478">
        <ele>105.7</ele>
        <time>2023-01-04T15:40:36Z</time>
      </trkpt>
      <trkpt lat="49.94127" lon="2.36478">
        <ele>105.7</ele>
        <time>2023-01-04T15:40:37Z</time>
      </trkpt>
      <trkpt lat="49.94127" lon="2.36478">
        <ele>105.7</ele>
        <time>2023-01-04T15:40:38Z</time>
      </trkpt>
      <trkpt lat="49.94127" lon="2.36478">
        <ele>105.7</ele>
        <time>2023-01-04T15:40:39Z</time>
      </trkpt>
      <trkpt lat="49.94127" lon="2.36478">
        <ele>105.7</ele>
        <time>2023-01-04T15:40:40Z</time>
      </trkpt>
      <trkpt lat="49.94127" lon="2.36478">
        <ele>105.7</ele>
        <time>2023-01-04T15:40:41Z</time>
      </trkpt>
      <trkpt lat="49.94127" lon="2.36478">
        <ele>105.7</ele>
        <time>2023-01-04T15:40:42Z</time>
      </trkpt>
      <trkpt lat="49.94127" lon="2.36478">
        <ele>105.7</ele>
        <time>2023-01-04T15:40:43Z</time>
      </trkpt>
      <trkpt lat="49.94127" lon="2.36478">
        <ele>105.7</ele>
        <time>2023-01-04T15:40:44Z</time>
      </trkpt>
      <trkpt lat="49.94127" lon="2.36478">
        <ele>105.7</ele>
        <time>2023-01-04T15:40:45Z</time>
      </trkpt>
      <trkpt lat="49.94127" lon="2.36478">
        <ele>105.7</ele>
        <time>2023-01-04T15:40:46Z</time>
      </trkpt>
      <trkpt lat="49.94127" lon="2.36478">
        <ele>105.7</ele>
        <time>2023-01-04T15:40:47Z</time>
      </trkpt>
      <trkpt lat="49.94127" lon="2.36478">
        <ele>105.7</ele>
        <time>2023-01-04T15:40:48Z</time>
      </trkpt>
      <trkpt lat="49.94127" lon="2.36478">
        <ele>105.7</ele>
        <time>2023-01-04T15:40:49Z</time>
      </trkpt>
      <trkpt lat="49.94127" lon="2.36478">
        <ele>105.7</ele>
        <time>2023-01-04T15:40:50Z</time>
      </trkpt>
      <trkpt lat="49.94128" lon="2.36479">
        <ele>105.7</ele>
        <time>2023-01-04T15:40:51Z</time>
      </trkpt>
      <trkpt lat="49.94128" lon="2.36479">
        <ele>105.7</ele>
        <time>2023-01-04T15:40:52Z</time>
      </trkpt>
      <trkpt lat="49.94127" lon="2.3648">
        <ele>105.7</ele>
        <time>2023-01-04T15:40:53Z</time>
      </trkpt>
      <trkpt lat="49.94127" lon="2.3648">
        <ele>105.7</ele>
        <time>2023-01-04T15:40:54Z</time>
      </trkpt>
      <trkpt lat="49.94127" lon="2.3648">
        <ele>105.7</ele>
        <time>2023-01-04T15:40:55Z</time>
      </trkpt>
      <trkpt lat="49.94126" lon="2.36481">
        <ele>105.7</ele>
        <time>2023-01-04T15:40:56Z</time>
      </trkpt>
      <trkpt lat="49.94126" lon="2.36482">
        <ele>105.7</ele>
        <time>2023-01-04T15:40:57Z</time>
      </trkpt>
      <trkpt lat="49.94126" lon="2.36484">
        <ele>105.7</ele>
        <time>2023-01-04T15:40:58Z</time>
      </trkpt>
      <trkpt lat="49.94126" lon="2.36486">
        <ele>105.7</ele>
        <time>2023-01-04T15:40:59Z</time>
      </trkpt>
      <trkpt lat="49.94126" lon="2.36487">
        <ele>105.7</ele>
        <time>2023-01-04T15:41:01Z</time>
      </trkpt>
      <trkpt lat="49.94126" lon="2.36488">
        <ele>105.7</ele>
        <time>2023-01-04T15:41:02Z</time>
      </trkpt>
      <trkpt lat="49.94126" lon="2.36489">
        <ele>105.7</ele>
        <time>2023-01-04T15:41:03Z</time>
      </trkpt>
      <trkpt lat="49.94126" lon="2.3649">
        <ele>105.7</ele>
        <time>2023-01-04T15:41:04Z</time>
      </trkpt>
      <trkpt lat="49.94126" lon="2.36491">
        <ele>105.7</ele>
        <time>2023-01-04T15:41:05Z</time>
      </trkpt>
      <trkpt lat="49.94126" lon="2.36497">
        <ele>105.8</ele>
        <time>2023-01-04T15:41:06Z</time>
      </trkpt>
      <trkpt lat="49.94126" lon="2.36498">
        <ele>105.8</ele>
        <time>2023-01-04T15:41:07Z</time>
      </trkpt>
      <trkpt lat="49.94126" lon="2.36501">
        <ele>105.8</ele>
        <time>2023-01-04T15:41:09Z</time>
      </trkpt>
      <trkpt lat="49.94126" lon="2.36502">
        <ele>105.8</ele>
        <time>2023-01-04T15:41:10Z</time>
      </trkpt>
      <trkpt lat="49.94126" lon="2.36504">
        <ele>105.8</ele>
        <time>2023-01-04T15:41:11Z</time>
      </trkpt>
      <trkpt lat="49.94126" lon="2.36506">
        <ele>105.8</ele>
        <time>2023-01-04T15:41:12Z</time>
      </trkpt>
      <trkpt lat="49.94126" lon="2.36507">
        <ele>105.8</ele>
        <time>2023-01-04T15:41:13Z</time>
      </trkpt>
      <trkpt lat="49.94126" lon="2.36508">
        <ele>105.8</ele>
        <time>2023-01-04T15:41:14Z</time>
      </trkpt>
      <trkpt lat="49.94126" lon="2.36509">
        <ele>105.8</ele>
        <time>2023-01-04T15:41:15Z</time>
      </trkpt>
      <trkpt lat="49.94126" lon="2.36511">
        <ele>105.9</ele>
        <time>2023-01-04T15:41:17Z</time>
      </trkpt>
      <trkpt lat="49.94126" lon="2.36512">
        <ele>105.9</ele>
        <time>2023-01-04T15:41:18Z</time>
      </trkpt>
      <trkpt lat="49.94127" lon="2.36513">
        <ele>105.9</ele>
        <time>2023-01-04T15:41:19Z</time>
      </trkpt>
      <trkpt lat="49.94127" lon="2.36514">
        <ele>105.9</ele>
        <time>2023-01-04T15:41:20Z</time>
      </trkpt>
      <trkpt lat="49.94127" lon="2.36515">
        <ele>105.9</ele>
        <time>2023-01-04T15:41:21Z</time>
      </trkpt>
      <trkpt lat="49.94128" lon="2.36516">
        <ele>105.9</ele>
        <time>2023-01-04T15:41:22Z</time>
      </trkpt>
      <trkpt lat="49.94128" lon="2.36516">
        <ele>105.9</ele>
        <time>2023-01-04T15:41:24Z</time>
      </trkpt>
      <trkpt lat="49.94128" lon="2.36517">
        <ele>105.9</ele>
        <time>2023-01-04T15:41:25Z</time>
      </trkpt>
      <trkpt lat="49.94128" lon="2.36517">
        <ele>105.9</ele>
        <time>2023-01-04T15:41:26Z</time>
      </trkpt>
      <trkpt lat="49.94128" lon="2.36518">
        <ele>105.9</ele>
        <time>2023-01-04T15:41:27Z</time>
      </trkpt>
      <trkpt lat="49.94128" lon="2.36518">
        <ele>105.9</ele>
        <time>2023-01-04T15:41:28Z</time>
      </trkpt>
      <trkpt lat="49.94127" lon="2.36519">
        <ele>105.9</ele>
        <time>2023-01-04T15:41:29Z</time>
      </trkpt>
      <trkpt lat="49.94127" lon="2.3652">
        <ele>105.9</ele>
        <time>2023-01-04T15:41:30Z</time>
      </trkpt>
      <trkpt lat="49.94127" lon="2.36522">
        <ele>105.9</ele>
        <time>2023-01-04T15:41:32Z</time>
      </trkpt>
      <trkpt lat="49.94127" lon="2.36524">
        <ele>105.9</ele>
        <time>2023-01-04T15:41:33Z</time>
      </trkpt>
      <trkpt lat="49.94127" lon="2.36525">
        <ele>106</ele>
        <time>2023-01-04T15:41:34Z</time>
      </trkpt>
      <trkpt lat="49.94127" lon="2.36528">
        <ele>106</ele>
        <time>2023-01-04T15:41:36Z</time>
      </trkpt>
      <trkpt lat="49.94128" lon="2.36531">
        <ele>106</ele>
        <time>2023-01-04T15:41:37Z</time>
      </trkpt>
      <trkpt lat="49.94128" lon="2.36533">
        <ele>106</ele>
        <time>2023-01-04T15:41:38Z</time>
      </trkpt>
      <trkpt lat="49.94128" lon="2.36535">
        <ele>106</ele>
        <time>2023-01-04T15:41:39Z</time>
      </trkpt>
      <trkpt lat="49.94128" lon="2.36538">
        <ele>106</ele>
        <time>2023-01-04T15:41:40Z</time>
      </trkpt>
      <trkpt lat="49.94128" lon="2.3654">
        <ele>106</ele>
        <time>2023-01-04T15:41:41Z</time>
      </trkpt>
      <trkpt lat="49.94128" lon="2.36541">
        <ele>106</ele>
        <time>2023-01-04T15:41:42Z</time>
      </trkpt>
      <trkpt lat="49.94128" lon="2.36544">
        <ele>106</ele>
        <time>2023-01-04T15:41:43Z</time>
      </trkpt>
      <trkpt lat="49.94128" lon="2.36546">
        <ele>106</ele>
        <time>2023-01-04T15:41:45Z</time>
      </trkpt>
      <trkpt lat="49.94128" lon="2.36548">
        <ele>106.1</ele>
        <time>2023-01-04T15:41:46Z</time>
      </trkpt>
      <trkpt lat="49.94128" lon="2.3655">
        <ele>106.1</ele>
        <time>2023-01-04T15:41:47Z</time>
      </trkpt>
      <trkpt lat="49.94129" lon="2.36554">
        <ele>106.1</ele>
        <time>2023-01-04T15:41:48Z</time>
      </trkpt>
      <trkpt lat="49.94129" lon="2.36555">
        <ele>106.1</ele>
        <time>2023-01-04T15:41:49Z</time>
      </trkpt>
      <trkpt lat="49.94129" lon="2.36556">
        <ele>106.1</ele>
        <time>2023-01-04T15:41:50Z</time>
      </trkpt>
      <trkpt lat="49.94129" lon="2.36559">
        <ele>106.1</ele>
        <time>2023-01-04T15:41:51Z</time>
      </trkpt>
      <trkpt lat="49.94129" lon="2.3656">
        <ele>106.1</ele>
        <time>2023-01-04T15:41:52Z</time>
      </trkpt>
      <trkpt lat="49.94129" lon="2.36562">
        <ele>106.1</ele>
        <time>2023-01-04T15:41:53Z</time>
      </trkpt>
      <trkpt lat="49.9413" lon="2.36564">
        <ele>106.1</ele>
        <time>2023-01-04T15:41:55Z</time>
      </trkpt>
      <trkpt lat="49.9413" lon="2.36566">
        <ele>106.1</ele>
        <time>2023-01-04T15:41:56Z</time>
      </trkpt>
      <trkpt lat="49.9413" lon="2.36568">
        <ele>106.1</ele>
        <time>2023-01-04T15:41:57Z</time>
      </trkpt>
      <trkpt lat="49.9413" lon="2.36569">
        <ele>106.1</ele>
        <time>2023-01-04T15:41:59Z</time>
      </trkpt>
      <trkpt lat="49.9413" lon="2.36571">
        <ele>106.1</ele>
        <time>2023-01-04T15:42:00Z</time>
      </trkpt>
      <trkpt lat="49.9413" lon="2.36573">
        <ele>106.1</ele>
        <time>2023-01-04T15:42:01Z</time>
      </trkpt>
      <trkpt lat="49.9413" lon="2.36575">
        <ele>106.1</ele>
        <time>2023-01-04T15:42:02Z</time>
      </trkpt>
      <trkpt lat="49.9413" lon="2.36576">
        <ele>106.1</ele>
        <time>2023-01-04T15:42:03Z</time>
      </trkpt>
      <trkpt lat="49.9413" lon="2.36578">
        <ele>106.2</ele>
        <time>2023-01-04T15:42:04Z</time>
      </trkpt>
      <trkpt lat="49.9413" lon="2.3658">
        <ele>106.2</ele>
        <time>2023-01-04T15:42:06Z</time>
      </trkpt>
      <trkpt lat="49.9413" lon="2.36581">
        <ele>106.2</ele>
        <time>2023-01-04T15:42:07Z</time>
      </trkpt>
      <trkpt lat="49.9413" lon="2.36583">
        <ele>106.2</ele>
        <time>2023-01-04T15:42:08Z</time>
      </trkpt>
      <trkpt lat="49.9413" lon="2.36585">
        <ele>106.2</ele>
        <time>2023-01-04T15:42:10Z</time>
      </trkpt>
      <trkpt lat="49.94129" lon="2.36585">
        <ele>106.2</ele>
        <time>2023-01-04T15:42:11Z</time>
      </trkpt>
      <trkpt lat="49.94129" lon="2.36586">
        <ele>106.2</ele>
        <time>2023-01-04T15:42:12Z</time>
      </trkpt>
      <trkpt lat="49.94129" lon="2.36586">
        <ele>106.2</ele>
        <time>2023-01-04T15:42:14Z</time>
      </trkpt>
      <trkpt lat="49.94128" lon="2.36587">
        <ele>106.2</ele>
        <time>2023-01-04T15:42:15Z</time>
      </trkpt>
      <trkpt lat="49.94127" lon="2.36587">
        <ele>106.2</ele>
        <time>2023-01-04T15:42:16Z</time>
      </trkpt>
      <trkpt lat="49.94126" lon="2.36585">
        <ele>106.2</ele>
        <time>2023-01-04T15:42:18Z</time>
      </trkpt>
      <trkpt lat="49.94126" lon="2.36585">
        <ele>106.2</ele>
        <time>2023-01-04T15:42:19Z</time>
      </trkpt>
      <trkpt lat="49.94126" lon="2.36585">
        <ele>106.2</ele>
        <time>2023-01-04T15:42:20Z</time>
      </trkpt>
      <trkpt lat="49.94126" lon="2.36584">
        <ele>106.2</ele>
        <time>2023-01-04T15:42:22Z</time>
      </trkpt>
      <trkpt lat="49.94126" lon="2.36584">
        <ele>106.2</ele>
        <time>2023-01-04T15:42:23Z</time>
      </trkpt>
      <trkpt lat="49.94126" lon="2.36583">
        <ele>106.2</ele>
        <time>2023-01-04T15:42:25Z</time>
      </trkpt>
      <trkpt lat="49.94126" lon="2.36583">
        <ele>106.2</ele>
        <time>2023-01-04T15:42:26Z</time>
      </trkpt>
      <trkpt lat="49.94126" lon="2.36583">
        <ele>106.2</ele>
        <time>2023-01-04T15:42:27Z</time>
      </trkpt>
      <trkpt lat="49.94126" lon="2.36582">
        <ele>106.2</ele>
        <time>2023-01-04T15:42:29Z</time>
      </trkpt>
      <trkpt lat="49.94126" lon="2.36582">
        <ele>106.2</ele>
        <time>2023-01-04T15:42:30Z</time>
      </trkpt>
      <trkpt lat="49.94126" lon="2.36582">
        <ele>106.2</ele>
        <time>2023-01-04T15:42:31Z</time>
      </trkpt>
      <trkpt lat="49.94126" lon="2.36582">
        <ele>106.2</ele>
        <time>2023-01-04T15:42:32Z</time>
      </trkpt>
      <trkpt lat="49.94126" lon="2.36582">
        <ele>106.2</ele>
        <time>2023-01-04T15:42:33Z</time>
      </trkpt>
      <trkpt lat="49.94126" lon="2.36582">
        <ele>106.2</ele>
        <time>2023-01-04T15:42:34Z</time>
      </trkpt>
      <trkpt lat="49.94126" lon="2.36582">
        <ele>106.2</ele>
        <time>2023-01-04T15:42:35Z</time>
      </trkpt>
      <trkpt lat="49.94126" lon="2.36582">
        <ele>106.2</ele>
        <time>2023-01-04T15:42:36Z</time>
      </trkpt>
      <trkpt lat="49.94127" lon="2.3658">
        <ele>106.2</ele>
        <time>2023-01-04T15:42:37Z</time>
      </trkpt>
      <trkpt lat="49.94127" lon="2.36579">
        <ele>106.2</ele>
        <time>2023-01-04T15:42:38Z</time>
      </trkpt>
      <trkpt lat="49.94127" lon="2.36579">
        <ele>106.2</ele>
        <time>2023-01-04T15:42:39Z</time>
      </trkpt>
      <trkpt lat="49.94127" lon="2.36578">
        <ele>106.2</ele>
        <time>2023-01-04T15:42:40Z</time>
      </trkpt>
      <trkpt lat="49.94128" lon="2.36578">
        <ele>106.2</ele>
        <time>2023-01-04T15:42:41Z</time>
      </trkpt>
      <trkpt lat="49.94128" lon="2.36578">
        <ele>106.2</ele>
        <time>2023-01-04T15:42:42Z</time>
      </trkpt>
      <trkpt lat="49.94128" lon="2.36578">
        <ele>106.2</ele>
        <time>2023-01-04T15:42:43Z</time>
      </trkpt>
      <trkpt lat="49.94128" lon="2.36578">
        <ele>106.2</ele>
        <time>2023-01-04T15:42:44Z</time>
      </trkpt>
      <trkpt lat="49.94128" lon="2.36578">
        <ele>106.2</ele>
        <time>2023-01-04T15:42:45Z</time>
      </trkpt>
      <trkpt lat="49.94128" lon="2.36578">
        <ele>106.2</ele>
        <time>2023-01-04T15:42:46Z</time>
      </trkpt>
      <trkpt lat="49.94128" lon="2.36578">
        <ele>106.2</ele>
        <time>2023-01-04T15:42:47Z</time>
      </trkpt>
      <trkpt lat="49.94128" lon="2.36578">
        <ele>106.2</ele>
        <time>2023-01-04T15:42:48Z</time>
      </trkpt>
      <trkpt lat="49.94128" lon="2.36578">
        <ele>106.2</ele>
        <time>2023-01-04T15:42:49Z</time>
      </trkpt>
      <trkpt lat="49.94128" lon="2.36578">
        <ele>106.2</ele>
        <time>2023-01-04T15:42:50Z</time>
      </trkpt>
      <trkpt lat="49.94128" lon="2.36578">
        <ele>106.2</ele>
        <time>2023-01-04T15:42:51Z</time>
      </trkpt>
      <trkpt lat="49.94128" lon="2.36578">
        <ele>106.2</ele>
        <time>2023-01-04T15:42:52Z</time>
      </trkpt>
      <trkpt lat="49.94128" lon="2.36578">
        <ele>106.2</ele>
        <time>2023-01-04T15:42:53Z</time>
      </trkpt>
      <trkpt lat="49.94128" lon="2.36578">
        <ele>106.2</ele>
        <time>2023-01-04T15:42:54Z</time>
      </trkpt>
      <trkpt lat="49.94128" lon="2.36578">
        <ele>106.2</ele>
        <time>2023-01-04T15:42:55Z</time>
      </trkpt>
      <trkpt lat="49.94128" lon="2.36578">
        <ele>106.2</ele>
        <time>2023-01-04T15:42:56Z</time>
      </trkpt>
      <trkpt lat="49.94128" lon="2.36578">
        <ele>106.2</ele>
        <time>2023-01-04T15:42:57Z</time>
      </trkpt>
      <trkpt lat="49.94128" lon="2.36578">
        <ele>106.2</ele>
        <time>2023-01-04T15:42:58Z</time>
      </trkpt>
      <trkpt lat="49.94128" lon="2.36578">
        <ele>106.2</ele>
        <time>2023-01-04T15:42:59Z</time>
      </trkpt>
      <trkpt lat="49.94128" lon="2.36578">
        <ele>106.2</ele>
        <time>2023-01-04T15:43:00Z</time>
      </trkpt>
      <trkpt lat="49.94128" lon="2.36578">
        <ele>106.2</ele>
        <time>2023-01-04T15:43:01Z</time>
      </trkpt>
      <trkpt lat="49.94128" lon="2.36578">
        <ele>106.2</ele>
        <time>2023-01-04T15:43:02Z</time>
      </trkpt>
      <trkpt lat="49.94128" lon="2.36578">
        <ele>106.2</ele>
        <time>2023-01-04T15:43:03Z</time>
      </trkpt>
      <trkpt lat="49.94128" lon="2.36578">
        <ele>106.2</ele>
        <time>2023-01-04T15:43:04Z</time>
      </trkpt>
      <trkpt lat="49.94128" lon="2.36578">
        <ele>106.2</ele>
        <time>2023-01-04T15:43:05Z</time>
      </trkpt>
      <trkpt lat="49.94128" lon="2.36578">
        <ele>106.2</ele>
        <time>2023-01-04T15:43:06Z</time>
      </trkpt>
      <trkpt lat="49.94128" lon="2.36578">
        <ele>106.2</ele>
        <time>2023-01-04T15:43:07Z</time>
      </trkpt>
      <trkpt lat="49.94128" lon="2.36578">
        <ele>106.2</ele>
        <time>2023-01-04T15:43:08Z</time>
      </trkpt>
      <trkpt lat="49.94128" lon="2.36578">
        <ele>106.2</ele>
        <time>2023-01-04T15:43:09Z</time>
      </trkpt>
      <trkpt lat="49.94128" lon="2.36578">
        <ele>106.2</ele>
        <time>2023-01-04T15:43:10Z</time>
      </trkpt>
      <trkpt lat="49.94128" lon="2.36578">
        <ele>106.2</ele>
        <time>2023-01-04T15:43:11Z</time>
      </trkpt>
      <trkpt lat="49.94128" lon="2.36578">
        <ele>106.2</ele>
        <time>2023-01-04T15:43:12Z</time>
      </trkpt>
      <trkpt lat="49.94128" lon="2.36578">
        <ele>106.2</ele>
        <time>2023-01-04T15:43:13Z</time>
      </trkpt>
      <trkpt lat="49.94128" lon="2.36578">
        <ele>106.2</ele>
        <time>2023-01-04T15:43:14Z</time>
      </trkpt>
      <trkpt lat="49.94128" lon="2.36578">
        <ele>106.2</ele>
        <time>2023-01-04T15:43:15Z</time>
      </trkpt>
      <trkpt lat="49.94128" lon="2.36578">
        <ele>106.2</ele>
        <time>2023-01-04T15:43:16Z</time>
      </trkpt>
      <trkpt lat="49.94128" lon="2.36578">
        <ele>106.2</ele>
        <time>2023-01-04T15:43:17Z</time>
      </trkpt>
      <trkpt lat="49.94128" lon="2.36578">
        <ele>106.2</ele>
        <time>2023-01-04T15:43:18Z</time>
      </trkpt>
      <trkpt lat="49.94128" lon="2.36578">
        <ele>106.2</ele>
        <time>2023-01-04T15:43:19Z</time>
      </trkpt>
      <trkpt lat="49.94128" lon="2.36578">
        <ele>106.2</ele>
        <time>2023-01-04T15:43:20Z</time>
      </trkpt>
      <trkpt lat="49.94128" lon="2.36578">
        <ele>106.2</ele>
        <time>2023-01-04T15:43:21Z</time>
      </trkpt>
      <trkpt lat="49.94128" lon="2.36578">
        <ele>106.2</ele>
        <time>2023-01-04T15:43:22Z</time>
      </trkpt>
      <trkpt lat="49.94128" lon="2.36578">
        <ele>106.2</ele>
        <time>2023-01-04T15:43:23Z</time>
      </trkpt>
      <trkpt lat="49.94128" lon="2.36578">
        <ele>106.2</ele>
        <time>2023-01-04T15:43:24Z</time>
      </trkpt>
      <trkpt lat="49.94128" lon="2.36578">
        <ele>106.2</ele>
        <time>2023-01-04T15:43:25Z</time>
      </trkpt>
      <trkpt lat="49.94128" lon="2.36578">
        <ele>106.2</ele>
        <time>2023-01-04T15:43:26Z</time>
      </trkpt>
      <trkpt lat="49.94128" lon="2.36578">
        <ele>106.2</ele>
        <time>2023-01-04T15:43:27Z</time>
      </trkpt>
      <trkpt lat="49.94128" lon="2.36578">
        <ele>106.2</ele>
        <time>2023-01-04T15:43:28Z</time>
      </trkpt>
      <trkpt lat="49.94128" lon="2.36578">
        <ele>106.2</ele>
        <time>2023-01-04T15:43:29Z</time>
      </trkpt>
      <trkpt lat="49.94128" lon="2.36578">
        <ele>106.2</ele>
        <time>2023-01-04T15:43:30Z</time>
      </trkpt>
      <trkpt lat="49.94128" lon="2.36578">
        <ele>106.2</ele>
        <time>2023-01-04T15:43:31Z</time>
      </trkpt>
      <trkpt lat="49.94128" lon="2.36578">
        <ele>106.2</ele>
        <time>2023-01-04T15:43:32Z</time>
      </trkpt>
      <trkpt lat="49.94128" lon="2.36578">
        <ele>106.2</ele>
        <time>2023-01-04T15:43:33Z</time>
      </trkpt>
      <trkpt lat="49.94128" lon="2.36578">
        <ele>106.2</ele>
        <time>2023-01-04T15:43:34Z</time>
      </trkpt>
      <trkpt lat="49.94128" lon="2.36578">
        <ele>106.2</ele>
        <time>2023-01-04T15:43:35Z</time>
      </trkpt>
      <trkpt lat="49.94128" lon="2.36578">
        <ele>106.2</ele>
        <time>2023-01-04T15:43:36Z</time>
      </trkpt>
      <trkpt lat="49.94128" lon="2.36578">
        <ele>106.2</ele>
        <time>2023-01-04T15:43:37Z</time>
      </trkpt>
      <trkpt lat="49.94128" lon="2.36578">
        <ele>106.2</ele>
        <time>2023-01-04T15:43:38Z</time>
      </trkpt>
      <trkpt lat="49.94128" lon="2.36578">
        <ele>106.2</ele>
        <time>2023-01-04T15:43:39Z</time>
      </trkpt>
      <trkpt lat="49.94128" lon="2.36578">
        <ele>106.2</ele>
        <time>2023-01-04T15:43:40Z</time>
      </trkpt>
      <trkpt lat="49.94128" lon="2.36578">
        <ele>106.2</ele>
        <time>2023-01-04T15:43:41Z</time>
      </trkpt>
      <trkpt lat="49.94128" lon="2.36578">
        <ele>106.2</ele>
        <time>2023-01-04T15:43:42Z</time>
      </trkpt>
      <trkpt lat="49.94128" lon="2.36578">
        <ele>106.2</ele>
        <time>2023-01-04T15:43:43Z</time>
      </trkpt>
      <trkpt lat="49.94128" lon="2.36578">
        <ele>106.2</ele>
        <time>2023-01-04T15:43:44Z</time>
      </trkpt>
      <trkpt lat="49.94128" lon="2.36578">
        <ele>106.2</ele>
        <time>2023-01-04T15:43:45Z</time>
      </trkpt>
      <trkpt lat="49.94128" lon="2.36578">
        <ele>106.2</ele>
        <time>2023-01-04T15:43:46Z</time>
      </trkpt>
      <trkpt lat="49.94128" lon="2.36578">
        <ele>106.2</ele>
        <time>2023-01-04T15:43:47Z</time>
      </trkpt>
      <trkpt lat="49.94128" lon="2.36578">
        <ele>106.2</ele>
        <time>2023-01-04T15:43:48Z</time>
      </trkpt>
      <trkpt lat="49.94128" lon="2.36578">
        <ele>106.2</ele>
        <time>2023-01-04T15:43:49Z</time>
      </trkpt>
      <trkpt lat="49.94128" lon="2.36578">
        <ele>106.2</ele>
        <time>2023-01-04T15:43:50Z</time>
      </trkpt>
      <trkpt lat="49.94128" lon="2.36578">
        <ele>106.2</ele>
        <time>2023-01-04T15:43:51Z</time>
      </trkpt>
      <trkpt lat="49.94128" lon="2.36578">
        <ele>106.2</ele>
        <time>2023-01-04T15:43:52Z</time>
      </trkpt>
      <trkpt lat="49.94128" lon="2.36578">
        <ele>106.2</ele>
        <time>2023-01-04T15:43:53Z</time>
      </trkpt>
      <trkpt lat="49.94128" lon="2.36578">
        <ele>106.2</ele>
        <time>2023-01-04T15:43:54Z</time>
      </trkpt>
      <trkpt lat="49.94128" lon="2.36578">
        <ele>106.2</ele>
        <time>2023-01-04T15:43:55Z</time>
      </trkpt>
      <trkpt lat="49.94128" lon="2.36578">
        <ele>106.2</ele>
        <time>2023-01-04T15:43:56Z</time>
      </trkpt>
      <trkpt lat="49.94128" lon="2.36578">
        <ele>106.2</ele>
        <time>2023-01-04T15:43:57Z</time>
      </trkpt>
      <trkpt lat="49.94128" lon="2.36578">
        <ele>106.2</ele>
        <time>2023-01-04T15:43:58Z</time>
      </trkpt>
      <trkpt lat="49.94128" lon="2.36578">
        <ele>106.2</ele>
        <time>2023-01-04T15:43:59Z</time>
      </trkpt>
      <trkpt lat="49.94128" lon="2.36578">
        <ele>106.2</ele>
        <time>2023-01-04T15:44:00Z</time>
      </trkpt>
      <trkpt lat="49.94128" lon="2.36578">
        <ele>106.2</ele>
        <time>2023-01-04T15:44:01Z</time>
      </trkpt>
      <trkpt lat="49.94128" lon="2.36578">
        <ele>106.2</ele>
        <time>2023-01-04T15:44:02Z</time>
      </trkpt>
      <trkpt lat="49.94128" lon="2.36578">
        <ele>106.2</ele>
        <time>2023-01-04T15:44:03Z</time>
      </trkpt>
      <trkpt lat="49.94128" lon="2.36578">
        <ele>106.2</ele>
        <time>2023-01-04T15:44:04Z</time>
      </trkpt>
      <trkpt lat="49.94128" lon="2.36578">
        <ele>106.2</ele>
        <time>2023-01-04T15:44:05Z</time>
      </trkpt>
      <trkpt lat="49.94128" lon="2.36578">
        <ele>106.2</ele>
        <time>2023-01-04T15:44:06Z</time>
      </trkpt>
      <trkpt lat="49.94128" lon="2.36578">
        <ele>106.2</ele>
        <time>2023-01-04T15:44:07Z</time>
      </trkpt>
      <trkpt lat="49.94128" lon="2.36578">
        <ele>106.2</ele>
        <time>2023-01-04T15:44:08Z</time>
      </trkpt>
      <trkpt lat="49.94128" lon="2.36578">
        <ele>106.2</ele>
        <time>2023-01-04T15:44:09Z</time>
      </trkpt>
      <trkpt lat="49.94128" lon="2.36578">
        <ele>106.2</ele>
        <time>2023-01-04T15:44:10Z</time>
      </trkpt>
      <trkpt lat="49.94128" lon="2.36578">
        <ele>106.2</ele>
        <time>2023-01-04T15:44:11Z</time>
      </trkpt>
      <trkpt lat="49.94128" lon="2.36578">
        <ele>106.2</ele>
        <time>2023-01-04T15:44:12Z</time>
      </trkpt>
      <trkpt lat="49.94128" lon="2.36578">
        <ele>106.2</ele>
        <time>2023-01-04T15:44:13Z</time>
      </trkpt>
      <trkpt lat="49.94128" lon="2.36578">
        <ele>106.2</ele>
        <time>2023-01-04T15:44:14Z</time>
      </trkpt>
      <trkpt lat="49.94128" lon="2.36578">
        <ele>106.2</ele>
        <time>2023-01-04T15:44:15Z</time>
      </trkpt>
      <trkpt lat="49.94128" lon="2.36578">
        <ele>106.2</ele>
        <time>2023-01-04T15:44:16Z</time>
      </trkpt>
      <trkpt lat="49.94128" lon="2.36578">
        <ele>106.2</ele>
        <time>2023-01-04T15:44:17Z</time>
      </trkpt>
      <trkpt lat="49.94128" lon="2.36578">
        <ele>106.2</ele>
        <time>2023-01-04T15:44:18Z</time>
      </trkpt>
      <trkpt lat="49.94128" lon="2.36578">
        <ele>106.2</ele>
        <time>2023-01-04T15:44:19Z</time>
      </trkpt>
      <trkpt lat="49.94128" lon="2.36578">
        <ele>106.2</ele>
        <time>2023-01-04T15:44:20Z</time>
      </trkpt>
      <trkpt lat="49.94128" lon="2.36578">
        <ele>106.2</ele>
        <time>2023-01-04T15:44:21Z</time>
      </trkpt>
      <trkpt lat="49.94128" lon="2.36578">
        <ele>106.2</ele>
        <time>2023-01-04T15:44:22Z</time>
      </trkpt>
      <trkpt lat="49.94128" lon="2.36578">
        <ele>106.2</ele>
        <time>2023-01-04T15:44:23Z</time>
      </trkpt>
      <trkpt lat="49.94128" lon="2.36578">
        <ele>106.2</ele>
        <time>2023-01-04T15:44:24Z</time>
      </trkpt>
      <trkpt lat="49.94128" lon="2.36578">
        <ele>106.2</ele>
        <time>2023-01-04T15:44:25Z</time>
      </trkpt>
      <trkpt lat="49.94128" lon="2.36578">
        <ele>106.2</ele>
        <time>2023-01-04T15:44:26Z</time>
      </trkpt>
      <trkpt lat="49.94128" lon="2.36578">
        <ele>106.2</ele>
        <time>2023-01-04T15:44:27Z</time>
      </trkpt>
      <trkpt lat="49.94128" lon="2.36578">
        <ele>106.2</ele>
        <time>2023-01-04T15:44:28Z</time>
      </trkpt>
      <trkpt lat="49.94128" lon="2.36578">
        <ele>106.2</ele>
        <time>2023-01-04T15:44:29Z</time>
      </trkpt>
      <trkpt lat="49.94128" lon="2.36578">
        <ele>106.2</ele>
        <time>2023-01-04T15:44:30Z</time>
      </trkpt>
      <trkpt lat="49.94128" lon="2.36578">
        <ele>106.2</ele>
        <time>2023-01-04T15:44:31Z</time>
      </trkpt>
      <trkpt lat="49.94128" lon="2.36578">
        <ele>106.2</ele>
        <time>2023-01-04T15:44:32Z</time>
      </trkpt>
      <trkpt lat="49.94128" lon="2.36578">
        <ele>106.2</ele>
        <time>2023-01-04T15:44:33Z</time>
      </trkpt>
      <trkpt lat="49.94128" lon="2.36578">
        <ele>106.2</ele>
        <time>2023-01-04T15:44:34Z</time>
      </trkpt>
      <trkpt lat="49.94128" lon="2.36578">
        <ele>106.2</ele>
        <time>2023-01-04T15:44:35Z</time>
      </trkpt>
      <trkpt lat="49.94128" lon="2.36578">
        <ele>106.2</ele>
        <time>2023-01-04T15:44:36Z</time>
      </trkpt>
      <trkpt lat="49.94128" lon="2.36578">
        <ele>106.2</ele>
        <time>2023-01-04T15:44:37Z</time>
      </trkpt>
      <trkpt lat="49.94128" lon="2.36578">
        <ele>106.2</ele>
        <time>2023-01-04T15:44:38Z</time>
      </trkpt>
      <trkpt lat="49.94128" lon="2.36578">
        <ele>106.2</ele>
        <time>2023-01-04T15:44:39Z</time>
      </trkpt>
      <trkpt lat="49.94128" lon="2.36578">
        <ele>106.2</ele>
        <time>2023-01-04T15:44:40Z</time>
      </trkpt>
      <trkpt lat="49.94128" lon="2.36578">
        <ele>106.2</ele>
        <time>2023-01-04T15:44:41Z</time>
      </trkpt>
      <trkpt lat="49.94128" lon="2.36578">
        <ele>106.2</ele>
        <time>2023-01-04T15:44:42Z</time>
      </trkpt>
      <trkpt lat="49.94128" lon="2.36578">
        <ele>106.2</ele>
        <time>2023-01-04T15:44:43Z</time>
      </trkpt>
      <trkpt lat="49.94128" lon="2.36578">
        <ele>106.2</ele>
        <time>2023-01-04T15:44:44Z</time>
      </trkpt>
      <trkpt lat="49.94128" lon="2.36578">
        <ele>106.2</ele>
        <time>2023-01-04T15:44:45Z</time>
      </trkpt>
      <trkpt lat="49.94128" lon="2.36578">
        <ele>106.2</ele>
        <time>2023-01-04T15:44:46Z</time>
      </trkpt>
      <trkpt lat="49.94128" lon="2.36578">
        <ele>106.2</ele>
        <time>2023-01-04T15:44:47Z</time>
      </trkpt>
      <trkpt lat="49.94128" lon="2.36578">
        <ele>106.2</ele>
        <time>2023-01-04T15:44:48Z</time>
      </trkpt>
      <trkpt lat="49.94128" lon="2.36578">
        <ele>106.2</ele>
        <time>2023-01-04T15:44:49Z</time>
      </trkpt>
      <trkpt lat="49.94128" lon="2.36578">
        <ele>106.2</ele>
        <time>2023-01-04T15:44:50Z</time>
      </trkpt>
      <trkpt lat="49.94128" lon="2.36578">
        <ele>106.2</ele>
        <time>2023-01-04T15:44:51Z</time>
      </trkpt>
      <trkpt lat="49.94128" lon="2.36578">
        <ele>106.2</ele>
        <time>2023-01-04T15:44:52Z</time>
      </trkpt>
      <trkpt lat="49.94128" lon="2.36578">
        <ele>106.2</ele>
        <time>2023-01-04T15:44:53Z</time>
      </trkpt>
      <trkpt lat="49.94128" lon="2.36578">
        <ele>106.2</ele>
        <time>2023-01-04T15:44:54Z</time>
      </trkpt>
      <trkpt lat="49.94128" lon="2.36578">
        <ele>106.2</ele>
        <time>2023-01-04T15:44:55Z</time>
      </trkpt>
      <trkpt lat="49.94128" lon="2.36578">
        <ele>106.2</ele>
        <time>2023-01-04T15:44:56Z</time>
      </trkpt>
      <trkpt lat="49.94128" lon="2.36578">
        <ele>106.2</ele>
        <time>2023-01-04T15:44:57Z</time>
      </trkpt>
      <trkpt lat="49.94128" lon="2.36578">
        <ele>106.2</ele>
        <time>2023-01-04T15:44:58Z</time>
      </trkpt>
      <trkpt lat="49.94128" lon="2.36578">
        <ele>106.2</ele>
        <time>2023-01-04T15:44:59Z</time>
      </trkpt>
      <trkpt lat="49.94128" lon="2.36578">
        <ele>106.2</ele>
        <time>2023-01-04T15:45:00Z</time>
      </trkpt>
      <trkpt lat="49.94128" lon="2.36578">
        <ele>106.2</ele>
        <time>2023-01-04T15:45:01Z</time>
      </trkpt>
      <trkpt lat="49.94128" lon="2.36578">
        <ele>106.2</ele>
        <time>2023-01-04T15:45:02Z</time>
      </trkpt>
      <trkpt lat="49.94128" lon="2.36578">
        <ele>106.2</ele>
        <time>2023-01-04T15:45:03Z</time>
      </trkpt>
      <trkpt lat="49.94128" lon="2.36578">
        <ele>106.2</ele>
        <time>2023-01-04T15:45:04Z</time>
      </trkpt>
      <trkpt lat="49.94128" lon="2.36578">
        <ele>106.2</ele>
        <time>2023-01-04T15:45:05Z</time>
      </trkpt>
      <trkpt lat="49.94128" lon="2.36578">
        <ele>106.2</ele>
        <time>2023-01-04T15:45:06Z</time>
      </trkpt>
      <trkpt lat="49.94128" lon="2.36578">
        <ele>106.2</ele>
        <time>2023-01-04T15:45:07Z</time>
      </trkpt>
      <trkpt lat="49.94128" lon="2.36578">
        <ele>106.2</ele>
        <time>2023-01-04T15:45:08Z</time>
      </trkpt>
      <trkpt lat="49.94128" lon="2.36578">
        <ele>106.2</ele>
        <time>2023-01-04T15:45:09Z</time>
      </trkpt>
      <trkpt lat="49.94128" lon="2.36578">
        <ele>106.2</ele>
        <time>2023-01-04T15:45:10Z</time>
      </trkpt>
      <trkpt lat="49.94128" lon="2.36578">
        <ele>106.2</ele>
        <time>2023-01-04T15:45:11Z</time>
      </trkpt>
      <trkpt lat="49.94128" lon="2.36578">
        <ele>106.2</ele>
        <time>2023-01-04T15:45:12Z</time>
      </trkpt>
      <trkpt lat="49.94128" lon="2.36578">
        <ele>106.2</ele>
        <time>2023-01-04T15:45:13Z</time>
      </trkpt>
      <trkpt lat="49.94128" lon="2.36578">
        <ele>106.2</ele>
        <time>2023-01-04T15:45:14Z</time>
      </trkpt>
      <trkpt lat="49.94128" lon="2.36578">
        <ele>106.2</ele>
        <time>2023-01-04T15:45:15Z</time>
      </trkpt>
      <trkpt lat="49.94128" lon="2.36578">
        <ele>106.2</ele>
        <time>2023-01-04T15:45:16Z</time>
      </trkpt>
      <trkpt lat="49.94128" lon="2.36578">
        <ele>106.2</ele>
        <time>2023-01-04T15:45:17Z</time>
      </trkpt>
      <trkpt lat="49.94128" lon="2.36578">
        <ele>106.2</ele>
        <time>2023-01-04T15:45:18Z</time>
      </trkpt>
      <trkpt lat="49.94128" lon="2.36578">
        <ele>106.2</ele>
        <time>2023-01-04T15:45:19Z</time>
      </trkpt>
      <trkpt lat="49.94127" lon="2.36576">
        <ele>106.2</ele>
        <time>2023-01-04T15:45:20Z</time>
      </trkpt>
      <trkpt lat="49.94127" lon="2.36576">
        <ele>106.2</ele>
        <time>2023-01-04T15:45:21Z</time>
      </trkpt>
      <trkpt lat="49.94127" lon="2.36576">
        <ele>106.2</ele>
        <time>2023-01-04T15:45:22Z</time>
      </trkpt>
      <trkpt lat="49.94127" lon="2.36575">
        <ele>106.2</ele>
        <time>2023-01-04T15:45:23Z</time>
      </trkpt>
      <trkpt lat="49.94127" lon="2.36575">
        <ele>106.2</ele>
        <time>2023-01-04T15:45:24Z</time>
      </trkpt>
      <trkpt lat="49.94127" lon="2.36575">
        <ele>106.2</ele>
        <time>2023-01-04T15:45:25Z</time>
      </trkpt>
      <trkpt lat="49.94127" lon="2.36575">
        <ele>106.2</ele>
        <time>2023-01-04T15:45:26Z</time>
      </trkpt>
      <trkpt lat="49.94127" lon="2.36575">
        <ele>106.2</ele>
        <time>2023-01-04T15:45:27Z</time>
      </trkpt>
      <trkpt lat="49.94127" lon="2.36575">
        <ele>106.2</ele>
        <time>2023-01-04T15:45:28Z</time>
      </trkpt>
      <trkpt lat="49.94127" lon="2.36575">
        <ele>106.2</ele>
        <time>2023-01-04T15:45:29Z</time>
      </trkpt>
      <trkpt lat="49.94127" lon="2.36575">
        <ele>106.2</ele>
        <time>2023-01-04T15:45:30Z</time>
      </trkpt>
      <trkpt lat="49.94127" lon="2.36575">
        <ele>106.2</ele>
        <time>2023-01-04T15:45:31Z</time>
      </trkpt>
      <trkpt lat="49.94127" lon="2.36575">
        <ele>106.2</ele>
        <time>2023-01-04T15:45:32Z</time>
      </trkpt>
      <trkpt lat="49.94126" lon="2.36575">
        <ele>106.2</ele>
        <time>2023-01-04T15:45:33Z</time>
      </trkpt>
      <trkpt lat="49.94126" lon="2.36575">
        <ele>106.2</ele>
        <time>2023-01-04T15:45:34Z</time>
      </trkpt>
      <trkpt lat="49.94126" lon="2.36575">
        <ele>106.2</ele>
        <time>2023-01-04T15:45:35Z</time>
      </trkpt>
      <trkpt lat="49.94126" lon="2.36575">
        <ele>106.2</ele>
        <time>2023-01-04T15:45:36Z</time>
      </trkpt>
      <trkpt lat="49.94126" lon="2.36575">
        <ele>106.2</ele>
        <time>2023-01-04T15:45:37Z</time>
      </trkpt>
      <trkpt lat="49.94126" lon="2.36575">
        <ele>106.2</ele>
        <time>2023-01-04T15:45:38Z</time>
      </trkpt>
      <trkpt lat="49.94126" lon="2.36575">
        <ele>106.2</ele>
        <time>2023-01-04T15:45:39Z</time>
      </trkpt>
      <trkpt lat="49.94126" lon="2.36575">
        <ele>106.2</ele>
        <time>2023-01-04T15:45:40Z</time>
      </trkpt>
      <trkpt lat="49.94127" lon="2.36575">
        <ele>106.2</ele>
        <time>2023-01-04T15:45:41Z</time>
      </trkpt>
      <trkpt lat="49.94127" lon="2.36575">
        <ele>106.2</ele>
        <time>2023-01-04T15:45:42Z</time>
      </trkpt>
      <trkpt lat="49.94127" lon="2.36575">
        <ele>106.2</ele>
        <time>2023-01-04T15:45:43Z</time>
      </trkpt>
      <trkpt lat="49.94127" lon="2.36575">
        <ele>106.2</ele>
        <time>2023-01-04T15:45:44Z</time>
      </trkpt>
      <trkpt lat="49.94127" lon="2.36575">
        <ele>106.2</ele>
        <time>2023-01-04T15:45:45Z</time>
      </trkpt>
      <trkpt lat="49.94127" lon="2.36575">
        <ele>106.2</ele>
        <time>2023-01-04T15:45:46Z</time>
      </trkpt>
      <trkpt lat="49.94127" lon="2.36575">
        <ele>106.2</ele>
        <time>2023-01-04T15:45:47Z</time>
      </trkpt>
      <trkpt lat="49.94127" lon="2.36575">
        <ele>106.2</ele>
        <time>2023-01-04T15:45:48Z</time>
      </trkpt>
      <trkpt lat="49.94127" lon="2.36575">
        <ele>106.2</ele>
        <time>2023-01-04T15:45:49Z</time>
      </trkpt>
      <trkpt lat="49.94127" lon="2.36575">
        <ele>106.2</ele>
        <time>2023-01-04T15:45:50Z</time>
      </trkpt>
      <trkpt lat="49.94127" lon="2.36575">
        <ele>106.2</ele>
        <time>2023-01-04T15:45:51Z</time>
      </trkpt>
      <trkpt lat="49.94127" lon="2.36575">
        <ele>106.2</ele>
        <time>2023-01-04T15:45:52Z</time>
      </trkpt>
      <trkpt lat="49.94127" lon="2.36575">
        <ele>106.2</ele>
        <time>2023-01-04T15:45:53Z</time>
      </trkpt>
      <trkpt lat="49.94127" lon="2.36575">
        <ele>106.2</ele>
        <time>2023-01-04T15:45:54Z</time>
      </trkpt>
      <trkpt lat="49.94127" lon="2.36575">
        <ele>106.2</ele>
        <time>2023-01-04T15:45:55Z</time>
      </trkpt>
      <trkpt lat="49.94127" lon="2.36575">
        <ele>106.2</ele>
        <time>2023-01-04T15:45:56Z</time>
      </trkpt>
      <trkpt lat="49.94127" lon="2.36575">
        <ele>106.2</ele>
        <time>2023-01-04T15:45:57Z</time>
      </trkpt>
      <trkpt lat="49.94127" lon="2.36575">
        <ele>106.2</ele>
        <time>2023-01-04T15:45:58Z</time>
      </trkpt>
      <trkpt lat="49.94127" lon="2.36575">
        <ele>106.2</ele>
        <time>2023-01-04T15:45:59Z</time>
      </trkpt>
      <trkpt lat="49.94127" lon="2.36575">
        <ele>106.2</ele>
        <time>2023-01-04T15:46:00Z</time>
      </trkpt>
      <trkpt lat="49.94127" lon="2.36575">
        <ele>106.2</ele>
        <time>2023-01-04T15:46:01Z</time>
      </trkpt>
      <trkpt lat="49.94127" lon="2.36575">
        <ele>106.2</ele>
        <time>2023-01-04T15:46:02Z</time>
      </trkpt>
      <trkpt lat="49.94127" lon="2.36575">
        <ele>106.2</ele>
        <time>2023-01-04T15:46:03Z</time>
      </trkpt>
      <trkpt lat="49.94127" lon="2.36575">
        <ele>106.2</ele>
        <time>2023-01-04T15:46:04Z</time>
      </trkpt>
      <trkpt lat="49.94127" lon="2.36575">
        <ele>106.2</ele>
        <time>2023-01-04T15:46:05Z</time>
      </trkpt>
      <trkpt lat="49.94127" lon="2.36575">
        <ele>106.2</ele>
        <time>2023-01-04T15:46:06Z</time>
      </trkpt>
      <trkpt lat="49.94127" lon="2.36575">
        <ele>106.2</ele>
        <time>2023-01-04T15:46:07Z</time>
      </trkpt>
      <trkpt lat="49.94127" lon="2.36575">
        <ele>106.2</ele>
        <time>2023-01-04T15:46:08Z</time>
      </trkpt>
      <trkpt lat="49.94127" lon="2.36575">
        <ele>106.2</ele>
        <time>2023-01-04T15:46:09Z</time>
      </trkpt>
      <trkpt lat="49.94127" lon="2.36575">
        <ele>106.2</ele>
        <time>2023-01-04T15:46:10Z</time>
      </trkpt>
      <trkpt lat="49.94127" lon="2.36575">
        <ele>106.2</ele>
        <time>2023-01-04T15:46:11Z</time>
      </trkpt>
      <trkpt lat="49.94127" lon="2.36575">
        <ele>106.2</ele>
        <time>2023-01-04T15:46:12Z</time>
      </trkpt>
      <trkpt lat="49.94127" lon="2.36575">
        <ele>106.2</ele>
        <time>2023-01-04T15:46:13Z</time>
      </trkpt>
      <trkpt lat="49.94127" lon="2.36575">
        <ele>106.2</ele>
        <time>2023-01-04T15:46:14Z</time>
      </trkpt>
      <trkpt lat="49.94127" lon="2.36575">
        <ele>106.2</ele>
        <time>2023-01-04T15:46:15Z</time>
      </trkpt>
      <trkpt lat="49.94127" lon="2.36575">
        <ele>106.2</ele>
        <time>2023-01-04T15:46:16Z</time>
      </trkpt>
      <trkpt lat="49.94127" lon="2.36575">
        <ele>106.2</ele>
        <time>2023-01-04T15:46:17Z</time>
      </trkpt>
      <trkpt lat="49.94127" lon="2.36575">
        <ele>106.2</ele>
        <time>2023-01-04T15:46:18Z</time>
      </trkpt>
      <trkpt lat="49.94127" lon="2.36575">
        <ele>106.2</ele>
        <time>2023-01-04T15:46:19Z</time>
      </trkpt>
      <trkpt lat="49.94127" lon="2.36575">
        <ele>106.2</ele>
        <time>2023-01-04T15:46:20Z</time>
      </trkpt>
      <trkpt lat="49.94127" lon="2.36575">
        <ele>106.2</ele>
        <time>2023-01-04T15:46:21Z</time>
      </trkpt>
      <trkpt lat="49.94127" lon="2.36575">
        <ele>106.2</ele>
        <time>2023-01-04T15:46:22Z</time>
      </trkpt>
      <trkpt lat="49.94127" lon="2.36575">
        <ele>106.2</ele>
        <time>2023-01-04T15:46:23Z</time>
      </trkpt>
      <trkpt lat="49.94127" lon="2.36575">
        <ele>106.2</ele>
        <time>2023-01-04T15:46:24Z</time>
      </trkpt>
      <trkpt lat="49.94127" lon="2.36575">
        <ele>106.2</ele>
        <time>2023-01-04T15:46:25Z</time>
      </trkpt>
      <trkpt lat="49.94127" lon="2.36575">
        <ele>106.2</ele>
        <time>2023-01-04T15:46:26Z</time>
      </trkpt>
      <trkpt lat="49.94127" lon="2.36575">
        <ele>106.2</ele>
        <time>2023-01-04T15:46:27Z</time>
      </trkpt>
      <trkpt lat="49.94127" lon="2.36575">
        <ele>106.2</ele>
        <time>2023-01-04T15:46:28Z</time>
      </trkpt>
      <trkpt lat="49.94127" lon="2.36575">
        <ele>106.2</ele>
        <time>2023-01-04T15:46:29Z</time>
      </trkpt>
      <trkpt lat="49.94127" lon="2.36576">
        <ele>106.2</ele>
        <time>2023-01-04T15:46:30Z</time>
      </trkpt>
      <trkpt lat="49.94127" lon="2.36576">
        <ele>106.2</ele>
        <time>2023-01-04T15:46:31Z</time>
      </trkpt>
      <trkpt lat="49.94127" lon="2.36576">
        <ele>106.2</ele>
        <time>2023-01-04T15:46:32Z</time>
      </trkpt>
      <trkpt lat="49.94127" lon="2.36576">
        <ele>106.2</ele>
        <time>2023-01-04T15:46:33Z</time>
      </trkpt>
      <trkpt lat="49.94127" lon="2.36576">
        <ele>106.2</ele>
        <time>2023-01-04T15:46:34Z</time>
      </trkpt>
      <trkpt lat="49.94127" lon="2.36576">
        <ele>106.2</ele>
        <time>2023-01-04T15:46:35Z</time>
      </trkpt>
      <trkpt lat="49.94127" lon="2.36576">
        <ele>106.2</ele>
        <time>2023-01-04T15:46:36Z</time>
      </trkpt>
      <trkpt lat="49.94127" lon="2.36576">
        <ele>106.2</ele>
        <time>2023-01-04T15:46:37Z</time>
      </trkpt>
      <trkpt lat="49.94127" lon="2.36576">
        <ele>106.2</ele>
        <time>2023-01-04T15:46:38Z</time>
      </trkpt>
      <trkpt lat="49.94127" lon="2.36576">
        <ele>106.2</ele>
        <time>2023-01-04T15:46:39Z</time>
      </trkpt>
      <trkpt lat="49.94127" lon="2.36576">
        <ele>106.2</ele>
        <time>2023-01-04T15:46:40Z</time>
      </trkpt>
      <trkpt lat="49.94127" lon="2.36576">
        <ele>106.2</ele>
        <time>2023-01-04T15:46:41Z</time>
      </trkpt>
      <trkpt lat="49.94127" lon="2.36576">
        <ele>106.2</ele>
        <time>2023-01-04T15:46:42Z</time>
      </trkpt>
      <trkpt lat="49.94127" lon="2.36576">
        <ele>106.2</ele>
        <time>2023-01-04T15:46:43Z</time>
      </trkpt>
      <trkpt lat="49.94127" lon="2.36576">
        <ele>106.2</ele>
        <time>2023-01-04T15:46:44Z</time>
      </trkpt>
      <trkpt lat="49.94127" lon="2.36576">
        <ele>106.2</ele>
        <time>2023-01-04T15:46:45Z</time>
      </trkpt>
      <trkpt lat="49.94127" lon="2.36576">
        <ele>106.2</ele>
        <time>2023-01-04T15:46:46Z</time>
      </trkpt>
      <trkpt lat="49.94127" lon="2.36576">
        <ele>106.2</ele>
        <time>2023-01-04T15:46:47Z</time>
      </trkpt>
      <trkpt lat="49.94127" lon="2.36576">
        <ele>106.2</ele>
        <time>2023-01-04T15:46:48Z</time>
      </trkpt>
      <trkpt lat="49.94127" lon="2.36576">
        <ele>106.2</ele>
        <time>2023-01-04T15:46:49Z</time>
      </trkpt>
      <trkpt lat="49.94127" lon="2.36576">
        <ele>106.2</ele>
        <time>2023-01-04T15:46:50Z</time>
      </trkpt>
      <trkpt lat="49.94127" lon="2.36576">
        <ele>106.2</ele>
        <time>2023-01-04T15:46:51Z</time>
      </trkpt>
      <trkpt lat="49.94127" lon="2.36576">
        <ele>106.2</ele>
        <time>2023-01-04T15:46:52Z</time>
      </trkpt>
      <trkpt lat="49.94127" lon="2.36576">
        <ele>106.2</ele>
        <time>2023-01-04T15:46:53Z</time>
      </trkpt>
      <trkpt lat="49.94127" lon="2.36576">
        <ele>106.2</ele>
        <time>2023-01-04T15:46:54Z</time>
      </trkpt>
      <trkpt lat="49.94127" lon="2.36576">
        <ele>106.2</ele>
        <time>2023-01-04T15:46:55Z</time>
      </trkpt>
      <trkpt lat="49.94127" lon="2.36576">
        <ele>106.2</ele>
        <time>2023-01-04T15:46:56Z</time>
      </trkpt>
      <trkpt lat="49.94127" lon="2.36576">
        <ele>106.2</ele>
        <time>2023-01-04T15:46:57Z</time>
      </trkpt>
      <trkpt lat="49.94127" lon="2.36576">
        <ele>106.2</ele>
        <time>2023-01-04T15:46:58Z</time>
      </trkpt>
      <trkpt lat="49.94127" lon="2.36576">
        <ele>106.2</ele>
        <time>2023-01-04T15:46:59Z</time>
      </trkpt>
      <trkpt lat="49.94127" lon="2.36576">
        <ele>106.2</ele>
        <time>2023-01-04T15:47:00Z</time>
      </trkpt>
      <trkpt lat="49.94127" lon="2.36576">
        <ele>106.2</ele>
        <time>2023-01-04T15:47:01Z</time>
      </trkpt>
      <trkpt lat="49.94127" lon="2.36576">
        <ele>106.2</ele>
        <time>2023-01-04T15:47:02Z</time>
      </trkpt>
      <trkpt lat="49.94127" lon="2.36576">
        <ele>106.2</ele>
        <time>2023-01-04T15:47:03Z</time>
      </trkpt>
      <trkpt lat="49.94127" lon="2.36576">
        <ele>106.2</ele>
        <time>2023-01-04T15:47:04Z</time>
      </trkpt>
      <trkpt lat="49.94127" lon="2.36576">
        <ele>106.2</ele>
        <time>2023-01-04T15:47:05Z</time>
      </trkpt>
      <trkpt lat="49.94127" lon="2.36576">
        <ele>106.2</ele>
        <time>2023-01-04T15:47:06Z</time>
      </trkpt>
      <trkpt lat="49.94127" lon="2.36576">
        <ele>106.2</ele>
        <time>2023-01-04T15:47:07Z</time>
      </trkpt>
      <trkpt lat="49.94127" lon="2.36576">
        <ele>106.2</ele>
        <time>2023-01-04T15:47:08Z</time>
      </trkpt>
      <trkpt lat="49.94127" lon="2.36576">
        <ele>106.2</ele>
        <time>2023-01-04T15:47:09Z</time>
      </trkpt>
      <trkpt lat="49.94127" lon="2.36576">
        <ele>106.2</ele>
        <time>2023-01-04T15:47:10Z</time>
      </trkpt>
      <trkpt lat="49.94127" lon="2.36576">
        <ele>106.2</ele>
        <time>2023-01-04T15:47:11Z</time>
      </trkpt>
      <trkpt lat="49.94127" lon="2.36576">
        <ele>106.2</ele>
        <time>2023-01-04T15:47:12Z</time>
      </trkpt>
      <trkpt lat="49.94127" lon="2.36576">
        <ele>106.2</ele>
        <time>2023-01-04T15:47:13Z</time>
      </trkpt>
      <trkpt lat="49.94127" lon="2.36576">
        <ele>106.2</ele>
        <time>2023-01-04T15:47:14Z</time>
      </trkpt>
      <trkpt lat="49.94127" lon="2.36576">
        <ele>106.2</ele>
        <time>2023-01-04T15:47:15Z</time>
      </trkpt>
      <trkpt lat="49.94127" lon="2.36576">
        <ele>106.2</ele>
        <time>2023-01-04T15:47:16Z</time>
      </trkpt>
      <trkpt lat="49.94127" lon="2.36576">
        <ele>106.2</ele>
        <time>2023-01-04T15:47:17Z</time>
      </trkpt>
      <trkpt lat="49.94127" lon="2.36576">
        <ele>106.2</ele>
        <time>2023-01-04T15:47:18Z</time>
      </trkpt>
      <trkpt lat="49.94127" lon="2.36576">
        <ele>106.2</ele>
        <time>2023-01-04T15:47:19Z</time>
      </trkpt>
      <trkpt lat="49.94127" lon="2.36576">
        <ele>106.2</ele>
        <time>2023-01-04T15:47:20Z</time>
      </trkpt>
      <trkpt lat="49.94127" lon="2.36576">
        <ele>106.2</ele>
        <time>2023-01-04T15:47:21Z</time>
      </trkpt>
      <trkpt lat="49.94127" lon="2.36576">
        <ele>106.2</ele>
        <time>2023-01-04T15:47:22Z</time>
      </trkpt>
      <trkpt lat="49.94127" lon="2.36576">
        <ele>106.2</ele>
        <time>2023-01-04T15:47:23Z</time>
      </trkpt>
      <trkpt lat="49.94127" lon="2.36576">
        <ele>106.2</ele>
        <time>2023-01-04T15:47:24Z</time>
      </trkpt>
      <trkpt lat="49.94127" lon="2.36576">
        <ele>106.2</ele>
        <time>2023-01-04T15:47:25Z</time>
      </trkpt>
      <trkpt lat="49.94127" lon="2.36576">
        <ele>106.2</ele>
        <time>2023-01-04T15:47:26Z</time>
      </trkpt>
      <trkpt lat="49.94127" lon="2.36576">
        <ele>106.2</ele>
        <time>2023-01-04T15:47:27Z</time>
      </trkpt>
      <trkpt lat="49.94127" lon="2.36576">
        <ele>106.2</ele>
        <time>2023-01-04T15:47:28Z</time>
      </trkpt>
      <trkpt lat="49.94127" lon="2.36576">
        <ele>106.2</ele>
        <time>2023-01-04T15:47:29Z</time>
      </trkpt>
      <trkpt lat="49.94127" lon="2.36576">
        <ele>106.2</ele>
        <time>2023-01-04T15:47:30Z</time>
      </trkpt>
      <trkpt lat="49.94127" lon="2.36575">
        <ele>106.2</ele>
        <time>2023-01-04T15:47:31Z</time>
      </trkpt>
      <trkpt lat="49.94127" lon="2.36575">
        <ele>106.2</ele>
        <time>2023-01-04T15:47:33Z</time>
      </trkpt>
      <trkpt lat="49.94127" lon="2.36575">
        <ele>106.2</ele>
        <time>2023-01-04T15:47:34Z</time>
      </trkpt>
      <trkpt lat="49.94127" lon="2.36575">
        <ele>106.2</ele>
        <time>2023-01-04T15:47:35Z</time>
      </trkpt>
      <trkpt lat="49.94127" lon="2.36575">
        <ele>106.2</ele>
        <time>2023-01-04T15:47:37Z</time>
      </trkpt>
      <trkpt lat="49.94127" lon="2.36575">
        <ele>106.2</ele>
        <time>2023-01-04T15:47:38Z</time>
      </trkpt>
    </trkseg>
  </trk>
</gpx>